<?xml version="1.0" encoding="UTF-8" standalone="no" ?>
<gpx xmlns="http://www.topografix.com/GPX/1/1" xmlns:xsi="http://www.w3.org/2001/XMLSchema-instance" xsi:schemaLocation="http://www.topografix.com/GPX/1/1 http://www.topografix.com/GPX/1/1/gpx.xsd" version="1.1" creator="VisuGPX - https://www.visugpx.com">
  <metadata>
    <name>Parcours n°𝟳 [NOIR] = TRÈS DIFFICILE</name>
    <desc><![CDATA[Parcours n°𝟳 [NOIR] = TRÈS DIFFICILE de l'UCP au Plan de la Tour. Ce parcours est labellisé FFC et répond aux normes de ce label.]]></desc>
  </metadata>
  <trk>
    <name><![CDATA[Parcours n°𝟳 [NOIR] = TRÈS DIFFICILE]]></name>
    <desc><![CDATA[Parcours n°𝟳 [NOIR] = TRÈS DIFFICILE de l'UCP au Plan de la Tour. Ce parcours est labellisé FFC et répond aux normes de ce label.]]></desc>
    <extensions>
      <line xmlns="http://www.topografix.com/GPX/gpx_style/0/2">
        <color>000000</color>
        <width>4</width>
          <extensions>
            <sens>1</sens>
          </extensions>
      </line>
    </extensions>
    <trkseg>
      <trkpt lat="43.33816" lon="6.546">
        <ele>73.82</ele>
        <time>2025-03-15T13:00:00.000Z</time>
      </trkpt>
      <trkpt lat="43.33816" lon="6.546">
        <ele>73.96</ele>
        <time>2025-03-15T13:00:00.372Z</time>
      </trkpt>
      <trkpt lat="43.33816" lon="6.546">
        <ele>74.11</ele>
        <time>2025-03-15T13:00:01.127Z</time>
      </trkpt>
      <trkpt lat="43.33818" lon="6.54601">
        <ele>74.28</ele>
        <time>2025-03-15T13:00:02.181Z</time>
      </trkpt>
      <trkpt lat="43.3382" lon="6.54602">
        <ele>74.47</ele>
        <time>2025-03-15T13:00:03.476Z</time>
      </trkpt>
      <trkpt lat="43.33827" lon="6.546">
        <ele>74.71</ele>
        <time>2025-03-15T13:00:07.227Z</time>
      </trkpt>
      <trkpt lat="43.33833" lon="6.54596">
        <ele>74.98</ele>
        <time>2025-03-15T13:00:10.822Z</time>
      </trkpt>
      <trkpt lat="43.3385" lon="6.54583">
        <ele>75.32</ele>
        <time>2025-03-15T13:00:19.989Z</time>
      </trkpt>
      <trkpt lat="43.3386" lon="6.54573">
        <ele>75.64</ele>
        <time>2025-03-15T13:00:26.318Z</time>
      </trkpt>
      <trkpt lat="43.33874" lon="6.5456">
        <ele>75.89</ele>
        <time>2025-03-15T13:00:34.392Z</time>
      </trkpt>
      <trkpt lat="43.3388" lon="6.54558">
        <ele>76.15</ele>
        <time>2025-03-15T13:00:37.531Z</time>
      </trkpt>
      <trkpt lat="43.33882" lon="6.54556">
        <ele>76.43</ele>
        <time>2025-03-15T13:00:39.110Z</time>
      </trkpt>
      <trkpt lat="43.33885" lon="6.54545">
        <ele>76.75</ele>
        <time>2025-03-15T13:00:43.689Z</time>
      </trkpt>
      <trkpt lat="43.33886" lon="6.54529">
        <ele>77.1</ele>
        <time>2025-03-15T13:00:49.346Z</time>
      </trkpt>
      <trkpt lat="43.33885" lon="6.54514">
        <ele>77.48</ele>
        <time>2025-03-15T13:00:55.115Z</time>
      </trkpt>
      <trkpt lat="43.33878" lon="6.54483">
        <ele>77.93</ele>
        <time>2025-03-15T13:01:06.402Z</time>
      </trkpt>
      <trkpt lat="43.33872" lon="6.54454">
        <ele>78.41</ele>
        <time>2025-03-15T13:01:17.031Z</time>
      </trkpt>
      <trkpt lat="43.33872" lon="6.5445">
        <ele>78.87</ele>
        <time>2025-03-15T13:01:19.499Z</time>
      </trkpt>
      <trkpt lat="43.33872" lon="6.54445">
        <ele>79.33</ele>
        <time>2025-03-15T13:01:21.934Z</time>
      </trkpt>
      <trkpt lat="43.33871" lon="6.5444">
        <ele>79.8</ele>
        <time>2025-03-15T13:01:24.381Z</time>
      </trkpt>
      <trkpt lat="43.33866" lon="6.54415">
        <ele>80.35</ele>
        <time>2025-03-15T13:01:34.036Z</time>
      </trkpt>
      <trkpt lat="43.33865" lon="6.54411">
        <ele>80.85</ele>
        <time>2025-03-15T13:01:36.545Z</time>
      </trkpt>
      <trkpt lat="43.33863" lon="6.54407">
        <ele>81.34</ele>
        <time>2025-03-15T13:01:39.050Z</time>
      </trkpt>
      <trkpt lat="43.33862" lon="6.54403">
        <ele>81.83</ele>
        <time>2025-03-15T13:01:41.511Z</time>
      </trkpt>
      <trkpt lat="43.33861" lon="6.54398">
        <ele>82.31</ele>
        <time>2025-03-15T13:01:43.931Z</time>
      </trkpt>
      <trkpt lat="43.33858" lon="6.5439">
        <ele>82.8</ele>
        <time>2025-03-15T13:01:47.651Z</time>
      </trkpt>
      <trkpt lat="43.33857" lon="6.54386">
        <ele>83.28</ele>
        <time>2025-03-15T13:01:50.042Z</time>
      </trkpt>
      <trkpt lat="43.33856" lon="6.54378">
        <ele>83.76</ele>
        <time>2025-03-15T13:01:53.700Z</time>
      </trkpt>
      <trkpt lat="43.33855" lon="6.54374">
        <ele>84.23</ele>
        <time>2025-03-15T13:01:56.102Z</time>
      </trkpt>
      <trkpt lat="43.33854" lon="6.5437">
        <ele>84.68</ele>
        <time>2025-03-15T13:01:58.446Z</time>
      </trkpt>
      <trkpt lat="43.33852" lon="6.54365">
        <ele>85.13</ele>
        <time>2025-03-15T13:02:00.911Z</time>
      </trkpt>
      <trkpt lat="43.33851" lon="6.54361">
        <ele>85.56</ele>
        <time>2025-03-15T13:02:03.304Z</time>
      </trkpt>
      <trkpt lat="43.33849" lon="6.54352">
        <ele>86</ele>
        <time>2025-03-15T13:02:07.183Z</time>
      </trkpt>
      <trkpt lat="43.33843" lon="6.54329">
        <ele>86.48</ele>
        <time>2025-03-15T13:02:15.874Z</time>
      </trkpt>
      <trkpt lat="43.33842" lon="6.54325">
        <ele>86.91</ele>
        <time>2025-03-15T13:02:18.260Z</time>
      </trkpt>
      <trkpt lat="43.33841" lon="6.5432">
        <ele>87.31</ele>
        <time>2025-03-15T13:02:20.627Z</time>
      </trkpt>
      <trkpt lat="43.33838" lon="6.54316">
        <ele>87.7</ele>
        <time>2025-03-15T13:02:23.064Z</time>
      </trkpt>
      <trkpt lat="43.33836" lon="6.54312">
        <ele>88.07</ele>
        <time>2025-03-15T13:02:25.494Z</time>
      </trkpt>
      <trkpt lat="43.33825" lon="6.54299">
        <ele>88.44</ele>
        <time>2025-03-15T13:02:32.542Z</time>
      </trkpt>
      <trkpt lat="43.33819" lon="6.54295">
        <ele>88.79</ele>
        <time>2025-03-15T13:02:36.088Z</time>
      </trkpt>
      <trkpt lat="43.33817" lon="6.54293">
        <ele>89.12</ele>
        <time>2025-03-15T13:02:38.129Z</time>
      </trkpt>
      <trkpt lat="43.33814" lon="6.54291">
        <ele>89.44</ele>
        <time>2025-03-15T13:02:40.172Z</time>
      </trkpt>
      <trkpt lat="43.33811" lon="6.54289">
        <ele>89.74</ele>
        <time>2025-03-15T13:02:42.221Z</time>
      </trkpt>
      <trkpt lat="43.33808" lon="6.54286">
        <ele>90.03</ele>
        <time>2025-03-15T13:02:44.320Z</time>
      </trkpt>
      <trkpt lat="43.33805" lon="6.54283">
        <ele>90.3</ele>
        <time>2025-03-15T13:02:46.411Z</time>
      </trkpt>
      <trkpt lat="43.338" lon="6.54278">
        <ele>90.56</ele>
        <time>2025-03-15T13:02:49.766Z</time>
      </trkpt>
      <trkpt lat="43.33789" lon="6.54268">
        <ele>90.86</ele>
        <time>2025-03-15T13:02:56.112Z</time>
      </trkpt>
      <trkpt lat="43.33787" lon="6.54265">
        <ele>91.11</ele>
        <time>2025-03-15T13:02:58.097Z</time>
      </trkpt>
      <trkpt lat="43.33784" lon="6.54262">
        <ele>91.35</ele>
        <time>2025-03-15T13:03:00.056Z</time>
      </trkpt>
      <trkpt lat="43.33781" lon="6.54259">
        <ele>91.57</ele>
        <time>2025-03-15T13:03:01.927Z</time>
      </trkpt>
      <trkpt lat="43.33776" lon="6.54254">
        <ele>91.79</ele>
        <time>2025-03-15T13:03:05.335Z</time>
      </trkpt>
      <trkpt lat="43.33773" lon="6.54251">
        <ele>91.97</ele>
        <time>2025-03-15T13:03:07.198Z</time>
      </trkpt>
      <trkpt lat="43.3377" lon="6.54248">
        <ele>92.14</ele>
        <time>2025-03-15T13:03:09.059Z</time>
      </trkpt>
      <trkpt lat="43.33767" lon="6.54246">
        <ele>92.28</ele>
        <time>2025-03-15T13:03:10.874Z</time>
      </trkpt>
      <trkpt lat="43.33764" lon="6.54243">
        <ele>92.4</ele>
        <time>2025-03-15T13:03:12.549Z</time>
      </trkpt>
      <trkpt lat="43.33762" lon="6.5424">
        <ele>92.5</ele>
        <time>2025-03-15T13:03:14.170Z</time>
      </trkpt>
      <trkpt lat="43.33755" lon="6.54231">
        <ele>92.61</ele>
        <time>2025-03-15T13:03:18.566Z</time>
      </trkpt>
      <trkpt lat="43.33754" lon="6.54228">
        <ele>92.69</ele>
        <time>2025-03-15T13:03:19.944Z</time>
      </trkpt>
      <trkpt lat="43.33752" lon="6.54225">
        <ele>92.74</ele>
        <time>2025-03-15T13:03:21.369Z</time>
      </trkpt>
      <trkpt lat="43.3375" lon="6.54221">
        <ele>92.76</ele>
        <time>2025-03-15T13:03:22.920Z</time>
      </trkpt>
      <trkpt lat="43.33748" lon="6.54218">
        <ele>92.76</ele>
        <time>2025-03-15T13:03:24.304Z</time>
      </trkpt>
      <trkpt lat="43.33742" lon="6.54213">
        <ele>92.72</ele>
        <time>2025-03-15T13:03:27.475Z</time>
      </trkpt>
      <trkpt lat="43.33734" lon="6.54212">
        <ele>92.62</ele>
        <time>2025-03-15T13:03:30.922Z</time>
      </trkpt>
      <trkpt lat="43.33729" lon="6.54214">
        <ele>92.5</ele>
        <time>2025-03-15T13:03:32.979Z</time>
      </trkpt>
      <trkpt lat="43.33707" lon="6.54217">
        <ele>92.3</ele>
        <time>2025-03-15T13:03:42.697Z</time>
      </trkpt>
      <trkpt lat="43.33701" lon="6.54217">
        <ele>92.11</ele>
        <time>2025-03-15T13:03:45.137Z</time>
      </trkpt>
      <trkpt lat="43.33685" lon="6.54221">
        <ele>91.86</ele>
        <time>2025-03-15T13:03:52.309Z</time>
      </trkpt>
      <trkpt lat="43.33679" lon="6.54222">
        <ele>91.63</ele>
        <time>2025-03-15T13:03:54.733Z</time>
      </trkpt>
      <trkpt lat="43.33674" lon="6.54223">
        <ele>91.39</ele>
        <time>2025-03-15T13:03:57.030Z</time>
      </trkpt>
      <trkpt lat="43.33662" lon="6.54223">
        <ele>91.13</ele>
        <time>2025-03-15T13:04:02.108Z</time>
      </trkpt>
      <trkpt lat="43.33656" lon="6.54224">
        <ele>90.87</ele>
        <time>2025-03-15T13:04:04.401Z</time>
      </trkpt>
      <trkpt lat="43.33646" lon="6.54226">
        <ele>90.61</ele>
        <time>2025-03-15T13:04:08.760Z</time>
      </trkpt>
      <trkpt lat="43.33642" lon="6.54224">
        <ele>90.34</ele>
        <time>2025-03-15T13:04:10.367Z</time>
      </trkpt>
      <trkpt lat="43.33638" lon="6.54224">
        <ele>90.08</ele>
        <time>2025-03-15T13:04:11.924Z</time>
      </trkpt>
      <trkpt lat="43.33634" lon="6.54224">
        <ele>89.81</ele>
        <time>2025-03-15T13:04:13.506Z</time>
      </trkpt>
      <trkpt lat="43.3363" lon="6.54225">
        <ele>89.55</ele>
        <time>2025-03-15T13:04:15.247Z</time>
      </trkpt>
      <trkpt lat="43.33625" lon="6.54225">
        <ele>89.3</ele>
        <time>2025-03-15T13:04:17.351Z</time>
      </trkpt>
      <trkpt lat="43.33615" lon="6.54227">
        <ele>89.07</ele>
        <time>2025-03-15T13:04:21.578Z</time>
      </trkpt>
      <trkpt lat="43.33611" lon="6.54227">
        <ele>88.82</ele>
        <time>2025-03-15T13:04:23.234Z</time>
      </trkpt>
      <trkpt lat="43.33597" lon="6.54229">
        <ele>88.57</ele>
        <time>2025-03-15T13:04:29.017Z</time>
      </trkpt>
      <trkpt lat="43.33584" lon="6.54228">
        <ele>88.31</ele>
        <time>2025-03-15T13:04:34.851Z</time>
      </trkpt>
      <trkpt lat="43.33577" lon="6.54234">
        <ele>88.03</ele>
        <time>2025-03-15T13:04:38.316Z</time>
      </trkpt>
      <trkpt lat="43.33575" lon="6.54255">
        <ele>87.72</ele>
        <time>2025-03-15T13:04:44.706Z</time>
      </trkpt>
      <trkpt lat="43.33575" lon="6.54262">
        <ele>87.44</ele>
        <time>2025-03-15T13:04:46.774Z</time>
      </trkpt>
      <trkpt lat="43.33577" lon="6.54305">
        <ele>87.1</ele>
        <time>2025-03-15T13:05:00.698Z</time>
      </trkpt>
      <trkpt lat="43.33578" lon="6.54313">
        <ele>86.78</ele>
        <time>2025-03-15T13:05:02.969Z</time>
      </trkpt>
      <trkpt lat="43.33582" lon="6.54355">
        <ele>86.37</ele>
        <time>2025-03-15T13:05:16.605Z</time>
      </trkpt>
      <trkpt lat="43.33583" lon="6.54366">
        <ele>86</ele>
        <time>2025-03-15T13:05:19.893Z</time>
      </trkpt>
      <trkpt lat="43.33584" lon="6.54377">
        <ele>85.64</ele>
        <time>2025-03-15T13:05:23.092Z</time>
      </trkpt>
      <trkpt lat="43.33584" lon="6.54388">
        <ele>85.28</ele>
        <time>2025-03-15T13:05:26.287Z</time>
      </trkpt>
      <trkpt lat="43.33584" lon="6.54399">
        <ele>84.92</ele>
        <time>2025-03-15T13:05:29.464Z</time>
      </trkpt>
      <trkpt lat="43.33584" lon="6.5441">
        <ele>84.55</ele>
        <time>2025-03-15T13:05:32.729Z</time>
      </trkpt>
      <trkpt lat="43.33581" lon="6.54421">
        <ele>84.19</ele>
        <time>2025-03-15T13:05:36.050Z</time>
      </trkpt>
      <trkpt lat="43.33577" lon="6.54431">
        <ele>83.83</ele>
        <time>2025-03-15T13:05:39.511Z</time>
      </trkpt>
      <trkpt lat="43.33573" lon="6.54441">
        <ele>83.46</ele>
        <time>2025-03-15T13:05:42.600Z</time>
      </trkpt>
      <trkpt lat="43.33571" lon="6.54451">
        <ele>83.11</ele>
        <time>2025-03-15T13:05:45.682Z</time>
      </trkpt>
      <trkpt lat="43.33569" lon="6.54461">
        <ele>82.78</ele>
        <time>2025-03-15T13:05:48.758Z</time>
      </trkpt>
      <trkpt lat="43.33569" lon="6.54471">
        <ele>82.45</ele>
        <time>2025-03-15T13:05:51.534Z</time>
      </trkpt>
      <trkpt lat="43.33569" lon="6.54481">
        <ele>82.12</ele>
        <time>2025-03-15T13:05:54.460Z</time>
      </trkpt>
      <trkpt lat="43.33567" lon="6.5449">
        <ele>81.79</ele>
        <time>2025-03-15T13:05:57.394Z</time>
      </trkpt>
      <trkpt lat="43.33563" lon="6.54499">
        <ele>81.48</ele>
        <time>2025-03-15T13:06:00.325Z</time>
      </trkpt>
      <trkpt lat="43.33558" lon="6.54505">
        <ele>81.17</ele>
        <time>2025-03-15T13:06:03.224Z</time>
      </trkpt>
      <trkpt lat="43.33552" lon="6.5451">
        <ele>80.86</ele>
        <time>2025-03-15T13:06:05.671Z</time>
      </trkpt>
      <trkpt lat="43.33547" lon="6.54514">
        <ele>80.56</ele>
        <time>2025-03-15T13:06:08.130Z</time>
      </trkpt>
      <trkpt lat="43.33543" lon="6.54519">
        <ele>80.26</ele>
        <time>2025-03-15T13:06:10.463Z</time>
      </trkpt>
      <trkpt lat="43.33517" lon="6.54544">
        <ele>79.93</ele>
        <time>2025-03-15T13:06:24.123Z</time>
      </trkpt>
      <trkpt lat="43.33509" lon="6.54554">
        <ele>79.6</ele>
        <time>2025-03-15T13:06:28.739Z</time>
      </trkpt>
      <trkpt lat="43.33509" lon="6.54556">
        <ele>79.3</ele>
        <time>2025-03-15T13:06:29.352Z</time>
      </trkpt>
      <trkpt lat="43.3351" lon="6.5456">
        <ele>79</ele>
        <time>2025-03-15T13:06:30.449Z</time>
      </trkpt>
      <trkpt lat="43.33513" lon="6.54563">
        <ele>78.71</ele>
        <time>2025-03-15T13:06:31.787Z</time>
      </trkpt>
      <trkpt lat="43.33516" lon="6.54564">
        <ele>78.42</ele>
        <time>2025-03-15T13:06:33.018Z</time>
      </trkpt>
      <trkpt lat="43.3352" lon="6.54566">
        <ele>78.14</ele>
        <time>2025-03-15T13:06:34.562Z</time>
      </trkpt>
      <trkpt lat="43.33523" lon="6.54567">
        <ele>77.86</ele>
        <time>2025-03-15T13:06:36.076Z</time>
      </trkpt>
      <trkpt lat="43.33528" lon="6.54567">
        <ele>77.58</ele>
        <time>2025-03-15T13:06:37.845Z</time>
      </trkpt>
      <trkpt lat="43.33532" lon="6.54567">
        <ele>77.31</ele>
        <time>2025-03-15T13:06:39.727Z</time>
      </trkpt>
      <trkpt lat="43.33536" lon="6.54567">
        <ele>77.03</ele>
        <time>2025-03-15T13:06:41.359Z</time>
      </trkpt>
      <trkpt lat="43.33541" lon="6.54568">
        <ele>76.75</ele>
        <time>2025-03-15T13:06:43.170Z</time>
      </trkpt>
      <trkpt lat="43.33546" lon="6.54571">
        <ele>76.46</ele>
        <time>2025-03-15T13:06:45.175Z</time>
      </trkpt>
      <trkpt lat="43.3355" lon="6.54574">
        <ele>76.17</ele>
        <time>2025-03-15T13:06:47.092Z</time>
      </trkpt>
      <trkpt lat="43.33554" lon="6.54577">
        <ele>75.87</ele>
        <time>2025-03-15T13:06:49.057Z</time>
      </trkpt>
      <trkpt lat="43.33559" lon="6.54582">
        <ele>75.57</ele>
        <time>2025-03-15T13:06:51.434Z</time>
      </trkpt>
      <trkpt lat="43.33564" lon="6.54587">
        <ele>75.25</ele>
        <time>2025-03-15T13:06:53.783Z</time>
      </trkpt>
      <trkpt lat="43.33569" lon="6.54591">
        <ele>74.92</ele>
        <time>2025-03-15T13:06:56.259Z</time>
      </trkpt>
      <trkpt lat="43.33575" lon="6.54594">
        <ele>74.59</ele>
        <time>2025-03-15T13:06:58.704Z</time>
      </trkpt>
      <trkpt lat="43.33581" lon="6.54597">
        <ele>74.25</ele>
        <time>2025-03-15T13:07:01.374Z</time>
      </trkpt>
      <trkpt lat="43.33587" lon="6.54601">
        <ele>73.9</ele>
        <time>2025-03-15T13:07:04.005Z</time>
      </trkpt>
      <trkpt lat="43.33629" lon="6.54623">
        <ele>73.41</ele>
        <time>2025-03-15T13:07:23.914Z</time>
      </trkpt>
      <trkpt lat="43.33635" lon="6.54625">
        <ele>73.04</ele>
        <time>2025-03-15T13:07:26.363Z</time>
      </trkpt>
      <trkpt lat="43.33658" lon="6.54637">
        <ele>72.66</ele>
        <time>2025-03-15T13:07:36.878Z</time>
      </trkpt>
      <trkpt lat="43.33667" lon="6.54649">
        <ele>72.31</ele>
        <time>2025-03-15T13:07:42.141Z</time>
      </trkpt>
      <trkpt lat="43.33671" lon="6.54656">
        <ele>71.98</ele>
        <time>2025-03-15T13:07:44.770Z</time>
      </trkpt>
      <trkpt lat="43.33673" lon="6.54665">
        <ele>71.64</ele>
        <time>2025-03-15T13:07:47.395Z</time>
      </trkpt>
      <trkpt lat="43.33674" lon="6.54674">
        <ele>71.3</ele>
        <time>2025-03-15T13:07:50.051Z</time>
      </trkpt>
      <trkpt lat="43.33674" lon="6.54683">
        <ele>70.96</ele>
        <time>2025-03-15T13:07:52.796Z</time>
      </trkpt>
      <trkpt lat="43.33675" lon="6.54693">
        <ele>70.63</ele>
        <time>2025-03-15T13:07:55.542Z</time>
      </trkpt>
      <trkpt lat="43.33678" lon="6.54712">
        <ele>70.31</ele>
        <time>2025-03-15T13:08:01.680Z</time>
      </trkpt>
      <trkpt lat="43.33679" lon="6.54723">
        <ele>69.97</ele>
        <time>2025-03-15T13:08:04.765Z</time>
      </trkpt>
      <trkpt lat="43.33679" lon="6.54733">
        <ele>69.65</ele>
        <time>2025-03-15T13:08:07.711Z</time>
      </trkpt>
      <trkpt lat="43.33679" lon="6.54743">
        <ele>69.33</ele>
        <time>2025-03-15T13:08:10.669Z</time>
      </trkpt>
      <trkpt lat="43.33678" lon="6.54753">
        <ele>69.03</ele>
        <time>2025-03-15T13:08:13.777Z</time>
      </trkpt>
      <trkpt lat="43.33673" lon="6.54773">
        <ele>68.7</ele>
        <time>2025-03-15T13:08:20.254Z</time>
      </trkpt>
      <trkpt lat="43.3367" lon="6.54783">
        <ele>68.38</ele>
        <time>2025-03-15T13:08:23.289Z</time>
      </trkpt>
      <trkpt lat="43.33669" lon="6.54793">
        <ele>68.08</ele>
        <time>2025-03-15T13:08:26.422Z</time>
      </trkpt>
      <trkpt lat="43.33669" lon="6.54803">
        <ele>67.8</ele>
        <time>2025-03-15T13:08:29.377Z</time>
      </trkpt>
      <trkpt lat="43.3367" lon="6.54813">
        <ele>67.52</ele>
        <time>2025-03-15T13:08:32.315Z</time>
      </trkpt>
      <trkpt lat="43.33672" lon="6.54822">
        <ele>67.24</ele>
        <time>2025-03-15T13:08:35.227Z</time>
      </trkpt>
      <trkpt lat="43.33679" lon="6.54838">
        <ele>66.99</ele>
        <time>2025-03-15T13:08:41.266Z</time>
      </trkpt>
      <trkpt lat="43.33692" lon="6.54851">
        <ele>66.76</ele>
        <time>2025-03-15T13:08:48.141Z</time>
      </trkpt>
      <trkpt lat="43.33694" lon="6.54854">
        <ele>66.51</ele>
        <time>2025-03-15T13:08:49.402Z</time>
      </trkpt>
      <trkpt lat="43.33693" lon="6.54859">
        <ele>66.24</ele>
        <time>2025-03-15T13:08:50.898Z</time>
      </trkpt>
      <trkpt lat="43.33693" lon="6.5486">
        <ele>65.98</ele>
        <time>2025-03-15T13:08:51.395Z</time>
      </trkpt>
      <trkpt lat="43.3369" lon="6.54867">
        <ele>65.71</ele>
        <time>2025-03-15T13:08:53.608Z</time>
      </trkpt>
      <trkpt lat="43.33687" lon="6.54871">
        <ele>65.44</ele>
        <time>2025-03-15T13:08:55.047Z</time>
      </trkpt>
      <trkpt lat="43.33685" lon="6.54875">
        <ele>65.18</ele>
        <time>2025-03-15T13:08:56.577Z</time>
      </trkpt>
      <trkpt lat="43.33682" lon="6.54879">
        <ele>64.91</ele>
        <time>2025-03-15T13:08:58.327Z</time>
      </trkpt>
      <trkpt lat="43.3368" lon="6.54885">
        <ele>64.65</ele>
        <time>2025-03-15T13:09:00.231Z</time>
      </trkpt>
      <trkpt lat="43.33679" lon="6.54891">
        <ele>64.38</ele>
        <time>2025-03-15T13:09:02.073Z</time>
      </trkpt>
      <trkpt lat="43.33676" lon="6.54912">
        <ele>64.07</ele>
        <time>2025-03-15T13:09:08.699Z</time>
      </trkpt>
      <trkpt lat="43.33674" lon="6.54918">
        <ele>63.8</ele>
        <time>2025-03-15T13:09:10.486Z</time>
      </trkpt>
      <trkpt lat="43.33671" lon="6.54921">
        <ele>63.52</ele>
        <time>2025-03-15T13:09:12.100Z</time>
      </trkpt>
      <trkpt lat="43.33667" lon="6.54925">
        <ele>63.25</ele>
        <time>2025-03-15T13:09:13.948Z</time>
      </trkpt>
      <trkpt lat="43.33663" lon="6.5493">
        <ele>62.98</ele>
        <time>2025-03-15T13:09:15.986Z</time>
      </trkpt>
      <trkpt lat="43.3366" lon="6.54935">
        <ele>62.7</ele>
        <time>2025-03-15T13:09:18.086Z</time>
      </trkpt>
      <trkpt lat="43.33656" lon="6.5494">
        <ele>62.43</ele>
        <time>2025-03-15T13:09:20.315Z</time>
      </trkpt>
      <trkpt lat="43.33651" lon="6.54946">
        <ele>62.15</ele>
        <time>2025-03-15T13:09:22.777Z</time>
      </trkpt>
      <trkpt lat="43.33647" lon="6.54953">
        <ele>61.86</ele>
        <time>2025-03-15T13:09:25.294Z</time>
      </trkpt>
      <trkpt lat="43.33643" lon="6.54958">
        <ele>61.58</ele>
        <time>2025-03-15T13:09:27.614Z</time>
      </trkpt>
      <trkpt lat="43.33638" lon="6.54962">
        <ele>61.31</ele>
        <time>2025-03-15T13:09:29.854Z</time>
      </trkpt>
      <trkpt lat="43.33633" lon="6.54965">
        <ele>61.03</ele>
        <time>2025-03-15T13:09:31.957Z</time>
      </trkpt>
      <trkpt lat="43.33628" lon="6.54968">
        <ele>60.75</ele>
        <time>2025-03-15T13:09:34.046Z</time>
      </trkpt>
      <trkpt lat="43.33624" lon="6.5497">
        <ele>60.48</ele>
        <time>2025-03-15T13:09:35.958Z</time>
      </trkpt>
      <trkpt lat="43.33619" lon="6.54972">
        <ele>60.2</ele>
        <time>2025-03-15T13:09:37.912Z</time>
      </trkpt>
      <trkpt lat="43.33604" lon="6.54974">
        <ele>59.91</ele>
        <time>2025-03-15T13:09:44.289Z</time>
      </trkpt>
      <trkpt lat="43.33594" lon="6.54972">
        <ele>59.62</ele>
        <time>2025-03-15T13:09:48.870Z</time>
      </trkpt>
      <trkpt lat="43.33583" lon="6.54968">
        <ele>59.33</ele>
        <time>2025-03-15T13:09:53.578Z</time>
      </trkpt>
      <trkpt lat="43.33556" lon="6.54958">
        <ele>59.05</ele>
        <time>2025-03-15T13:10:05.987Z</time>
      </trkpt>
      <trkpt lat="43.3354" lon="6.54953">
        <ele>58.77</ele>
        <time>2025-03-15T13:10:12.946Z</time>
      </trkpt>
      <trkpt lat="43.33524" lon="6.54949">
        <ele>58.49</ele>
        <time>2025-03-15T13:10:19.919Z</time>
      </trkpt>
      <trkpt lat="43.33509" lon="6.54943">
        <ele>58.2</ele>
        <time>2025-03-15T13:10:26.963Z</time>
      </trkpt>
      <trkpt lat="43.33506" lon="6.54957">
        <ele>57.91</ele>
        <time>2025-03-15T13:10:31.294Z</time>
      </trkpt>
      <trkpt lat="43.33507" lon="6.54964">
        <ele>57.62</ele>
        <time>2025-03-15T13:10:33.411Z</time>
      </trkpt>
      <trkpt lat="43.33511" lon="6.54987">
        <ele>57.33</ele>
        <time>2025-03-15T13:10:40.951Z</time>
      </trkpt>
      <trkpt lat="43.33516" lon="6.55019">
        <ele>57.03</ele>
        <time>2025-03-15T13:10:51.429Z</time>
      </trkpt>
      <trkpt lat="43.33517" lon="6.55028">
        <ele>56.72</ele>
        <time>2025-03-15T13:10:54.122Z</time>
      </trkpt>
      <trkpt lat="43.33517" lon="6.55037">
        <ele>56.41</ele>
        <time>2025-03-15T13:10:56.661Z</time>
      </trkpt>
      <trkpt lat="43.33516" lon="6.55046">
        <ele>56.1</ele>
        <time>2025-03-15T13:10:59.150Z</time>
      </trkpt>
      <trkpt lat="43.33514" lon="6.55054">
        <ele>55.78</ele>
        <time>2025-03-15T13:11:01.675Z</time>
      </trkpt>
      <trkpt lat="43.33511" lon="6.55061">
        <ele>55.44</ele>
        <time>2025-03-15T13:11:04.155Z</time>
      </trkpt>
      <trkpt lat="43.33491" lon="6.55112">
        <ele>55.03</ele>
        <time>2025-03-15T13:11:22.770Z</time>
      </trkpt>
      <trkpt lat="43.33481" lon="6.55132">
        <ele>54.65</ele>
        <time>2025-03-15T13:11:30.376Z</time>
      </trkpt>
      <trkpt lat="43.33477" lon="6.55139">
        <ele>54.3</ele>
        <time>2025-03-15T13:11:32.904Z</time>
      </trkpt>
      <trkpt lat="43.33473" lon="6.55145">
        <ele>53.94</ele>
        <time>2025-03-15T13:11:35.405Z</time>
      </trkpt>
      <trkpt lat="43.33469" lon="6.55153">
        <ele>53.56</ele>
        <time>2025-03-15T13:11:37.959Z</time>
      </trkpt>
      <trkpt lat="43.33466" lon="6.5516">
        <ele>53.19</ele>
        <time>2025-03-15T13:11:40.516Z</time>
      </trkpt>
      <trkpt lat="43.33462" lon="6.55167">
        <ele>52.8</ele>
        <time>2025-03-15T13:11:43.113Z</time>
      </trkpt>
      <trkpt lat="43.33445" lon="6.55192">
        <ele>52.37</ele>
        <time>2025-03-15T13:11:53.768Z</time>
      </trkpt>
      <trkpt lat="43.3344" lon="6.55199">
        <ele>51.97</ele>
        <time>2025-03-15T13:11:56.679Z</time>
      </trkpt>
      <trkpt lat="43.33435" lon="6.55206">
        <ele>51.57</ele>
        <time>2025-03-15T13:11:59.700Z</time>
      </trkpt>
      <trkpt lat="43.33431" lon="6.55215">
        <ele>51.18</ele>
        <time>2025-03-15T13:12:02.484Z</time>
      </trkpt>
      <trkpt lat="43.33428" lon="6.55223">
        <ele>50.78</ele>
        <time>2025-03-15T13:12:05.229Z</time>
      </trkpt>
      <trkpt lat="43.33426" lon="6.55231">
        <ele>50.38</ele>
        <time>2025-03-15T13:12:07.843Z</time>
      </trkpt>
      <trkpt lat="43.33425" lon="6.5524">
        <ele>49.99</ele>
        <time>2025-03-15T13:12:10.281Z</time>
      </trkpt>
      <trkpt lat="43.33425" lon="6.55247">
        <ele>49.6</ele>
        <time>2025-03-15T13:12:12.456Z</time>
      </trkpt>
      <trkpt lat="43.33424" lon="6.55252">
        <ele>49.22</ele>
        <time>2025-03-15T13:12:13.957Z</time>
      </trkpt>
      <trkpt lat="43.33421" lon="6.55254">
        <ele>48.85</ele>
        <time>2025-03-15T13:12:15.089Z</time>
      </trkpt>
      <trkpt lat="43.33418" lon="6.55252">
        <ele>48.48</ele>
        <time>2025-03-15T13:12:16.676Z</time>
      </trkpt>
      <trkpt lat="43.33404" lon="6.55254">
        <ele>48.11</ele>
        <time>2025-03-15T13:12:22.669Z</time>
      </trkpt>
      <trkpt lat="43.33399" lon="6.55258">
        <ele>47.75</ele>
        <time>2025-03-15T13:12:24.980Z</time>
      </trkpt>
      <trkpt lat="43.33394" lon="6.55263">
        <ele>47.4</ele>
        <time>2025-03-15T13:12:27.250Z</time>
      </trkpt>
      <trkpt lat="43.3339" lon="6.55268">
        <ele>47.06</ele>
        <time>2025-03-15T13:12:29.501Z</time>
      </trkpt>
      <trkpt lat="43.33386" lon="6.55274">
        <ele>46.73</ele>
        <time>2025-03-15T13:12:31.834Z</time>
      </trkpt>
      <trkpt lat="43.33383" lon="6.5528">
        <ele>46.42</ele>
        <time>2025-03-15T13:12:34.073Z</time>
      </trkpt>
      <trkpt lat="43.3338" lon="6.55294">
        <ele>46.11</ele>
        <time>2025-03-15T13:12:38.393Z</time>
      </trkpt>
      <trkpt lat="43.33378" lon="6.55307">
        <ele>45.8</ele>
        <time>2025-03-15T13:12:42.341Z</time>
      </trkpt>
      <trkpt lat="43.33377" lon="6.55312">
        <ele>45.5</ele>
        <time>2025-03-15T13:12:44.032Z</time>
      </trkpt>
      <trkpt lat="43.33373" lon="6.55323">
        <ele>45.21</ele>
        <time>2025-03-15T13:12:47.618Z</time>
      </trkpt>
      <trkpt lat="43.33366" lon="6.55336">
        <ele>44.9</ele>
        <time>2025-03-15T13:12:52.291Z</time>
      </trkpt>
      <trkpt lat="43.33357" lon="6.55354">
        <ele>44.58</ele>
        <time>2025-03-15T13:12:59.361Z</time>
      </trkpt>
      <trkpt lat="43.33357" lon="6.55368">
        <ele>44.29</ele>
        <time>2025-03-15T13:13:03.539Z</time>
      </trkpt>
      <trkpt lat="43.33357" lon="6.55376">
        <ele>44.02</ele>
        <time>2025-03-15T13:13:05.878Z</time>
      </trkpt>
      <trkpt lat="43.33348" lon="6.55387">
        <ele>43.75</ele>
        <time>2025-03-15T13:13:10.861Z</time>
      </trkpt>
      <trkpt lat="43.33343" lon="6.55389">
        <ele>43.52</ele>
        <time>2025-03-15T13:13:13.151Z</time>
      </trkpt>
      <trkpt lat="43.33337" lon="6.55389">
        <ele>43.31</ele>
        <time>2025-03-15T13:13:15.703Z</time>
      </trkpt>
      <trkpt lat="43.33332" lon="6.55385">
        <ele>43.14</ele>
        <time>2025-03-15T13:13:18.031Z</time>
      </trkpt>
      <trkpt lat="43.33329" lon="6.55378">
        <ele>42.99</ele>
        <time>2025-03-15T13:13:20.375Z</time>
      </trkpt>
      <trkpt lat="43.33326" lon="6.55372">
        <ele>42.86</ele>
        <time>2025-03-15T13:13:22.773Z</time>
      </trkpt>
      <trkpt lat="43.33322" lon="6.55367">
        <ele>42.75</ele>
        <time>2025-03-15T13:13:25.091Z</time>
      </trkpt>
      <trkpt lat="43.33317" lon="6.55364">
        <ele>42.66</ele>
        <time>2025-03-15T13:13:27.296Z</time>
      </trkpt>
      <trkpt lat="43.33313" lon="6.55364">
        <ele>42.57</ele>
        <time>2025-03-15T13:13:29.054Z</time>
      </trkpt>
      <trkpt lat="43.33308" lon="6.55364">
        <ele>42.51</ele>
        <time>2025-03-15T13:13:31.348Z</time>
      </trkpt>
      <trkpt lat="43.33303" lon="6.55365">
        <ele>42.46</ele>
        <time>2025-03-15T13:13:33.340Z</time>
      </trkpt>
      <trkpt lat="43.33298" lon="6.55366">
        <ele>42.44</ele>
        <time>2025-03-15T13:13:35.722Z</time>
      </trkpt>
      <trkpt lat="43.33288" lon="6.55371">
        <ele>42.44</ele>
        <time>2025-03-15T13:13:40.681Z</time>
      </trkpt>
      <trkpt lat="43.33278" lon="6.55376">
        <ele>42.47</ele>
        <time>2025-03-15T13:13:45.670Z</time>
      </trkpt>
      <trkpt lat="43.33267" lon="6.55387">
        <ele>42.52</ele>
        <time>2025-03-15T13:13:51.744Z</time>
      </trkpt>
      <trkpt lat="43.33265" lon="6.55391">
        <ele>42.59</ele>
        <time>2025-03-15T13:13:53.661Z</time>
      </trkpt>
      <trkpt lat="43.33262" lon="6.55395">
        <ele>42.68</ele>
        <time>2025-03-15T13:13:55.538Z</time>
      </trkpt>
      <trkpt lat="43.3326" lon="6.55398">
        <ele>42.79</ele>
        <time>2025-03-15T13:13:57.221Z</time>
      </trkpt>
      <trkpt lat="43.33258" lon="6.55402">
        <ele>42.92</ele>
        <time>2025-03-15T13:13:58.794Z</time>
      </trkpt>
      <trkpt lat="43.33254" lon="6.55407">
        <ele>43.08</ele>
        <time>2025-03-15T13:14:01.598Z</time>
      </trkpt>
      <trkpt lat="43.33253" lon="6.55409">
        <ele>43.26</ele>
        <time>2025-03-15T13:14:02.958Z</time>
      </trkpt>
      <trkpt lat="43.3325" lon="6.5541">
        <ele>43.46</ele>
        <time>2025-03-15T13:14:04.451Z</time>
      </trkpt>
      <trkpt lat="43.33247" lon="6.55409">
        <ele>43.67</ele>
        <time>2025-03-15T13:14:05.994Z</time>
      </trkpt>
      <trkpt lat="43.33245" lon="6.55409">
        <ele>43.91</ele>
        <time>2025-03-15T13:14:07.559Z</time>
      </trkpt>
      <trkpt lat="43.33242" lon="6.55409">
        <ele>44.15</ele>
        <time>2025-03-15T13:14:09.111Z</time>
      </trkpt>
      <trkpt lat="43.3324" lon="6.55408">
        <ele>44.42</ele>
        <time>2025-03-15T13:14:10.819Z</time>
      </trkpt>
      <trkpt lat="43.33237" lon="6.55408">
        <ele>44.71</ele>
        <time>2025-03-15T13:14:12.473Z</time>
      </trkpt>
      <trkpt lat="43.33235" lon="6.55408">
        <ele>45.01</ele>
        <time>2025-03-15T13:14:14.318Z</time>
      </trkpt>
      <trkpt lat="43.33232" lon="6.55408">
        <ele>45.32</ele>
        <time>2025-03-15T13:14:16.174Z</time>
      </trkpt>
      <trkpt lat="43.33229" lon="6.5541">
        <ele>45.65</ele>
        <time>2025-03-15T13:14:18.113Z</time>
      </trkpt>
      <trkpt lat="43.33223" lon="6.55415">
        <ele>46.01</ele>
        <time>2025-03-15T13:14:21.852Z</time>
      </trkpt>
      <trkpt lat="43.33215" lon="6.55421">
        <ele>46.38</ele>
        <time>2025-03-15T13:14:26.763Z</time>
      </trkpt>
      <trkpt lat="43.33212" lon="6.55422">
        <ele>46.74</ele>
        <time>2025-03-15T13:14:28.696Z</time>
      </trkpt>
      <trkpt lat="43.3321" lon="6.55423">
        <ele>47.12</ele>
        <time>2025-03-15T13:14:30.475Z</time>
      </trkpt>
      <trkpt lat="43.33209" lon="6.55424">
        <ele>47.5</ele>
        <time>2025-03-15T13:14:32.203Z</time>
      </trkpt>
      <trkpt lat="43.33206" lon="6.55426">
        <ele>47.89</ele>
        <time>2025-03-15T13:14:34.226Z</time>
      </trkpt>
      <trkpt lat="43.33203" lon="6.55428">
        <ele>48.29</ele>
        <time>2025-03-15T13:14:36.548Z</time>
      </trkpt>
      <trkpt lat="43.33191" lon="6.55433">
        <ele>48.67</ele>
        <time>2025-03-15T13:14:43.069Z</time>
      </trkpt>
      <trkpt lat="43.33179" lon="6.55437">
        <ele>49.06</ele>
        <time>2025-03-15T13:14:48.915Z</time>
      </trkpt>
      <trkpt lat="43.33144" lon="6.55453">
        <ele>49.56</ele>
        <time>2025-03-15T13:15:06.544Z</time>
      </trkpt>
      <trkpt lat="43.3314" lon="6.55456">
        <ele>49.98</ele>
        <time>2025-03-15T13:15:09.576Z</time>
      </trkpt>
      <trkpt lat="43.33126" lon="6.55464">
        <ele>50.42</ele>
        <time>2025-03-15T13:15:16.948Z</time>
      </trkpt>
      <trkpt lat="43.33122" lon="6.55467">
        <ele>50.82</ele>
        <time>2025-03-15T13:15:19.693Z</time>
      </trkpt>
      <trkpt lat="43.33107" lon="6.55476">
        <ele>51.23</ele>
        <time>2025-03-15T13:15:28.106Z</time>
      </trkpt>
      <trkpt lat="43.33098" lon="6.5548">
        <ele>51.65</ele>
        <time>2025-03-15T13:15:32.847Z</time>
      </trkpt>
      <trkpt lat="43.33094" lon="6.55482">
        <ele>52.03</ele>
        <time>2025-03-15T13:15:35.575Z</time>
      </trkpt>
      <trkpt lat="43.33089" lon="6.55487">
        <ele>52.4</ele>
        <time>2025-03-15T13:15:38.648Z</time>
      </trkpt>
      <trkpt lat="43.33086" lon="6.55491">
        <ele>52.75</ele>
        <time>2025-03-15T13:15:41.419Z</time>
      </trkpt>
      <trkpt lat="43.33082" lon="6.55495">
        <ele>53.07</ele>
        <time>2025-03-15T13:15:44.181Z</time>
      </trkpt>
      <trkpt lat="43.33078" lon="6.55497">
        <ele>53.38</ele>
        <time>2025-03-15T13:15:46.495Z</time>
      </trkpt>
      <trkpt lat="43.33071" lon="6.555">
        <ele>53.69</ele>
        <time>2025-03-15T13:15:50.628Z</time>
      </trkpt>
      <trkpt lat="43.33052" lon="6.55511">
        <ele>53.97</ele>
        <time>2025-03-15T13:16:00.348Z</time>
      </trkpt>
      <trkpt lat="43.33047" lon="6.55514">
        <ele>54.23</ele>
        <time>2025-03-15T13:16:03.206Z</time>
      </trkpt>
      <trkpt lat="43.33024" lon="6.55528">
        <ele>54.45</ele>
        <time>2025-03-15T13:16:14.729Z</time>
      </trkpt>
      <trkpt lat="43.33011" lon="6.55535">
        <ele>54.63</ele>
        <time>2025-03-15T13:16:21.766Z</time>
      </trkpt>
      <trkpt lat="43.33001" lon="6.55536">
        <ele>54.82</ele>
        <time>2025-03-15T13:16:26.722Z</time>
      </trkpt>
      <trkpt lat="43.32971" lon="6.55535">
        <ele>55.03</ele>
        <time>2025-03-15T13:16:40.478Z</time>
      </trkpt>
      <trkpt lat="43.32966" lon="6.55535">
        <ele>55.2</ele>
        <time>2025-03-15T13:16:42.988Z</time>
      </trkpt>
      <trkpt lat="43.32961" lon="6.55535">
        <ele>55.35</ele>
        <time>2025-03-15T13:16:45.550Z</time>
      </trkpt>
      <trkpt lat="43.32956" lon="6.55534">
        <ele>55.49</ele>
        <time>2025-03-15T13:16:47.988Z</time>
      </trkpt>
      <trkpt lat="43.32933" lon="6.55531">
        <ele>55.65</ele>
        <time>2025-03-15T13:16:58.987Z</time>
      </trkpt>
      <trkpt lat="43.32919" lon="6.55527">
        <ele>55.76</ele>
        <time>2025-03-15T13:17:05.525Z</time>
      </trkpt>
      <trkpt lat="43.32911" lon="6.5552">
        <ele>55.85</ele>
        <time>2025-03-15T13:17:10.031Z</time>
      </trkpt>
      <trkpt lat="43.32903" lon="6.55514">
        <ele>55.9</ele>
        <time>2025-03-15T13:17:14.207Z</time>
      </trkpt>
      <trkpt lat="43.32898" lon="6.55513">
        <ele>55.92</ele>
        <time>2025-03-15T13:17:16.442Z</time>
      </trkpt>
      <trkpt lat="43.32894" lon="6.55515">
        <ele>55.93</ele>
        <time>2025-03-15T13:17:18.444Z</time>
      </trkpt>
      <trkpt lat="43.32891" lon="6.55519">
        <ele>55.91</ele>
        <time>2025-03-15T13:17:20.514Z</time>
      </trkpt>
      <trkpt lat="43.32888" lon="6.55524">
        <ele>55.87</ele>
        <time>2025-03-15T13:17:22.610Z</time>
      </trkpt>
      <trkpt lat="43.32885" lon="6.55529">
        <ele>55.82</ele>
        <time>2025-03-15T13:17:24.454Z</time>
      </trkpt>
      <trkpt lat="43.32886" lon="6.55545">
        <ele>55.71</ele>
        <time>2025-03-15T13:17:29.667Z</time>
      </trkpt>
      <trkpt lat="43.32886" lon="6.55551">
        <ele>55.61</ele>
        <time>2025-03-15T13:17:31.673Z</time>
      </trkpt>
      <trkpt lat="43.32886" lon="6.55565">
        <ele>55.5</ele>
        <time>2025-03-15T13:17:36.213Z</time>
      </trkpt>
      <trkpt lat="43.32883" lon="6.5558">
        <ele>55.4</ele>
        <time>2025-03-15T13:17:41.170Z</time>
      </trkpt>
      <trkpt lat="43.32882" lon="6.55605">
        <ele>55.27</ele>
        <time>2025-03-15T13:17:49.185Z</time>
      </trkpt>
      <trkpt lat="43.32881" lon="6.55621">
        <ele>55.14</ele>
        <time>2025-03-15T13:17:54.421Z</time>
      </trkpt>
      <trkpt lat="43.32879" lon="6.55664">
        <ele>55</ele>
        <time>2025-03-15T13:18:08.712Z</time>
      </trkpt>
      <trkpt lat="43.32878" lon="6.55673">
        <ele>54.87</ele>
        <time>2025-03-15T13:18:11.335Z</time>
      </trkpt>
      <trkpt lat="43.32874" lon="6.55705">
        <ele>54.73</ele>
        <time>2025-03-15T13:18:21.880Z</time>
      </trkpt>
      <trkpt lat="43.32872" lon="6.5571">
        <ele>54.59</ele>
        <time>2025-03-15T13:18:23.902Z</time>
      </trkpt>
      <trkpt lat="43.32868" lon="6.55722">
        <ele>54.43</ele>
        <time>2025-03-15T13:18:27.916Z</time>
      </trkpt>
      <trkpt lat="43.32866" lon="6.55727">
        <ele>54.28</ele>
        <time>2025-03-15T13:18:29.651Z</time>
      </trkpt>
      <trkpt lat="43.32865" lon="6.55733">
        <ele>54.14</ele>
        <time>2025-03-15T13:18:31.567Z</time>
      </trkpt>
      <trkpt lat="43.32867" lon="6.5574">
        <ele>54</ele>
        <time>2025-03-15T13:18:33.624Z</time>
      </trkpt>
      <trkpt lat="43.32868" lon="6.55746">
        <ele>53.88</ele>
        <time>2025-03-15T13:18:35.585Z</time>
      </trkpt>
      <trkpt lat="43.32866" lon="6.5575">
        <ele>53.76</ele>
        <time>2025-03-15T13:18:36.862Z</time>
      </trkpt>
      <trkpt lat="43.32866" lon="6.55753">
        <ele>53.64</ele>
        <time>2025-03-15T13:18:37.747Z</time>
      </trkpt>
      <trkpt lat="43.32865" lon="6.55755">
        <ele>53.53</ele>
        <time>2025-03-15T13:18:38.622Z</time>
      </trkpt>
      <trkpt lat="43.32861" lon="6.55767">
        <ele>53.42</ele>
        <time>2025-03-15T13:18:42.530Z</time>
      </trkpt>
      <trkpt lat="43.3286" lon="6.5577">
        <ele>53.33</ele>
        <time>2025-03-15T13:18:43.819Z</time>
      </trkpt>
      <trkpt lat="43.32858" lon="6.55774">
        <ele>53.25</ele>
        <time>2025-03-15T13:18:45.255Z</time>
      </trkpt>
      <trkpt lat="43.32856" lon="6.55778">
        <ele>53.19</ele>
        <time>2025-03-15T13:18:46.675Z</time>
      </trkpt>
      <trkpt lat="43.32854" lon="6.5578">
        <ele>53.13</ele>
        <time>2025-03-15T13:18:47.911Z</time>
      </trkpt>
      <trkpt lat="43.32851" lon="6.55783">
        <ele>53.1</ele>
        <time>2025-03-15T13:18:49.319Z</time>
      </trkpt>
      <trkpt lat="43.32847" lon="6.55789">
        <ele>53.07</ele>
        <time>2025-03-15T13:18:52.180Z</time>
      </trkpt>
      <trkpt lat="43.32844" lon="6.55795">
        <ele>53.06</ele>
        <time>2025-03-15T13:18:54.429Z</time>
      </trkpt>
      <trkpt lat="43.32841" lon="6.55798">
        <ele>53.07</ele>
        <time>2025-03-15T13:18:56.006Z</time>
      </trkpt>
      <trkpt lat="43.32832" lon="6.55814">
        <ele>53.12</ele>
        <time>2025-03-15T13:19:02.729Z</time>
      </trkpt>
      <trkpt lat="43.32827" lon="6.55824">
        <ele>53.17</ele>
        <time>2025-03-15T13:19:07.095Z</time>
      </trkpt>
      <trkpt lat="43.32822" lon="6.55836">
        <ele>53.24</ele>
        <time>2025-03-15T13:19:11.689Z</time>
      </trkpt>
      <trkpt lat="43.32822" lon="6.55841">
        <ele>53.31</ele>
        <time>2025-03-15T13:19:13.288Z</time>
      </trkpt>
      <trkpt lat="43.32821" lon="6.55845">
        <ele>53.4</ele>
        <time>2025-03-15T13:19:14.937Z</time>
      </trkpt>
      <trkpt lat="43.32822" lon="6.5585">
        <ele>53.5</ele>
        <time>2025-03-15T13:19:16.608Z</time>
      </trkpt>
      <trkpt lat="43.32823" lon="6.55854">
        <ele>53.61</ele>
        <time>2025-03-15T13:19:18.308Z</time>
      </trkpt>
      <trkpt lat="43.32824" lon="6.55859">
        <ele>53.73</ele>
        <time>2025-03-15T13:19:20.219Z</time>
      </trkpt>
      <trkpt lat="43.32829" lon="6.5588">
        <ele>53.91</ele>
        <time>2025-03-15T13:19:27.968Z</time>
      </trkpt>
      <trkpt lat="43.3283" lon="6.55885">
        <ele>54.06</ele>
        <time>2025-03-15T13:19:29.720Z</time>
      </trkpt>
      <trkpt lat="43.32831" lon="6.5589">
        <ele>54.23</ele>
        <time>2025-03-15T13:19:31.694Z</time>
      </trkpt>
      <trkpt lat="43.32832" lon="6.55894">
        <ele>54.39</ele>
        <time>2025-03-15T13:19:33.484Z</time>
      </trkpt>
      <trkpt lat="43.32832" lon="6.55899">
        <ele>54.56</ele>
        <time>2025-03-15T13:19:35.293Z</time>
      </trkpt>
      <trkpt lat="43.32831" lon="6.55902">
        <ele>54.74</ele>
        <time>2025-03-15T13:19:36.729Z</time>
      </trkpt>
      <trkpt lat="43.3283" lon="6.55906">
        <ele>54.93</ele>
        <time>2025-03-15T13:19:38.413Z</time>
      </trkpt>
      <trkpt lat="43.32827" lon="6.5591">
        <ele>55.12</ele>
        <time>2025-03-15T13:19:40.335Z</time>
      </trkpt>
      <trkpt lat="43.32825" lon="6.55912">
        <ele>55.32</ele>
        <time>2025-03-15T13:19:41.980Z</time>
      </trkpt>
      <trkpt lat="43.32823" lon="6.55914">
        <ele>55.51</ele>
        <time>2025-03-15T13:19:43.648Z</time>
      </trkpt>
      <trkpt lat="43.3282" lon="6.55917">
        <ele>55.72</ele>
        <time>2025-03-15T13:19:45.415Z</time>
      </trkpt>
      <trkpt lat="43.32815" lon="6.55927">
        <ele>55.95</ele>
        <time>2025-03-15T13:19:49.773Z</time>
      </trkpt>
      <trkpt lat="43.32813" lon="6.5593">
        <ele>56.17</ele>
        <time>2025-03-15T13:19:51.735Z</time>
      </trkpt>
      <trkpt lat="43.3281" lon="6.55934">
        <ele>56.38</ele>
        <time>2025-03-15T13:19:53.757Z</time>
      </trkpt>
      <trkpt lat="43.32808" lon="6.55938">
        <ele>56.6</ele>
        <time>2025-03-15T13:19:55.759Z</time>
      </trkpt>
      <trkpt lat="43.328" lon="6.55951">
        <ele>56.83</ele>
        <time>2025-03-15T13:20:01.738Z</time>
      </trkpt>
      <trkpt lat="43.32788" lon="6.55981">
        <ele>57.09</ele>
        <time>2025-03-15T13:20:13.418Z</time>
      </trkpt>
      <trkpt lat="43.32779" lon="6.56005">
        <ele>57.35</ele>
        <time>2025-03-15T13:20:22.884Z</time>
      </trkpt>
      <trkpt lat="43.32777" lon="6.56009">
        <ele>57.57</ele>
        <time>2025-03-15T13:20:24.893Z</time>
      </trkpt>
      <trkpt lat="43.3277" lon="6.56017">
        <ele>57.77</ele>
        <time>2025-03-15T13:20:29.302Z</time>
      </trkpt>
      <trkpt lat="43.32766" lon="6.56021">
        <ele>57.98</ele>
        <time>2025-03-15T13:20:31.901Z</time>
      </trkpt>
      <trkpt lat="43.32762" lon="6.56024">
        <ele>58.2</ele>
        <time>2025-03-15T13:20:34.247Z</time>
      </trkpt>
      <trkpt lat="43.32759" lon="6.56027">
        <ele>58.42</ele>
        <time>2025-03-15T13:20:36.548Z</time>
      </trkpt>
      <trkpt lat="43.32755" lon="6.56029">
        <ele>58.64</ele>
        <time>2025-03-15T13:20:38.849Z</time>
      </trkpt>
      <trkpt lat="43.32735" lon="6.56039">
        <ele>58.85</ele>
        <time>2025-03-15T13:20:48.713Z</time>
      </trkpt>
      <trkpt lat="43.32732" lon="6.56041">
        <ele>59.08</ele>
        <time>2025-03-15T13:20:50.644Z</time>
      </trkpt>
      <trkpt lat="43.32729" lon="6.56042">
        <ele>59.3</ele>
        <time>2025-03-15T13:20:52.499Z</time>
      </trkpt>
      <trkpt lat="43.32726" lon="6.56045">
        <ele>59.52</ele>
        <time>2025-03-15T13:20:54.518Z</time>
      </trkpt>
      <trkpt lat="43.32723" lon="6.56048">
        <ele>59.75</ele>
        <time>2025-03-15T13:20:56.715Z</time>
      </trkpt>
      <trkpt lat="43.32719" lon="6.56052">
        <ele>59.98</ele>
        <time>2025-03-15T13:20:58.931Z</time>
      </trkpt>
      <trkpt lat="43.32717" lon="6.56056">
        <ele>60.21</ele>
        <time>2025-03-15T13:21:01.045Z</time>
      </trkpt>
      <trkpt lat="43.32702" lon="6.56075">
        <ele>60.47</ele>
        <time>2025-03-15T13:21:10.615Z</time>
      </trkpt>
      <trkpt lat="43.32687" lon="6.56076">
        <ele>60.71</ele>
        <time>2025-03-15T13:21:17.812Z</time>
      </trkpt>
      <trkpt lat="43.32675" lon="6.56082">
        <ele>60.96</ele>
        <time>2025-03-15T13:21:24.221Z</time>
      </trkpt>
      <trkpt lat="43.32671" lon="6.56083">
        <ele>61.2</ele>
        <time>2025-03-15T13:21:26.096Z</time>
      </trkpt>
      <trkpt lat="43.32668" lon="6.56084">
        <ele>61.46</ele>
        <time>2025-03-15T13:21:28.171Z</time>
      </trkpt>
      <trkpt lat="43.32665" lon="6.56085">
        <ele>61.71</ele>
        <time>2025-03-15T13:21:30.019Z</time>
      </trkpt>
      <trkpt lat="43.32652" lon="6.56091">
        <ele>62</ele>
        <time>2025-03-15T13:21:36.571Z</time>
      </trkpt>
      <trkpt lat="43.32649" lon="6.56092">
        <ele>62.27</ele>
        <time>2025-03-15T13:21:38.511Z</time>
      </trkpt>
      <trkpt lat="43.32646" lon="6.56093">
        <ele>62.56</ele>
        <time>2025-03-15T13:21:40.603Z</time>
      </trkpt>
      <trkpt lat="43.32642" lon="6.56094">
        <ele>62.85</ele>
        <time>2025-03-15T13:21:42.729Z</time>
      </trkpt>
      <trkpt lat="43.32639" lon="6.56095">
        <ele>63.15</ele>
        <time>2025-03-15T13:21:44.805Z</time>
      </trkpt>
      <trkpt lat="43.32629" lon="6.56101">
        <ele>63.48</ele>
        <time>2025-03-15T13:21:50.334Z</time>
      </trkpt>
      <trkpt lat="43.32619" lon="6.56105">
        <ele>63.81</ele>
        <time>2025-03-15T13:21:55.422Z</time>
      </trkpt>
      <trkpt lat="43.32616" lon="6.56106">
        <ele>64.13</ele>
        <time>2025-03-15T13:21:57.552Z</time>
      </trkpt>
      <trkpt lat="43.32612" lon="6.56106">
        <ele>64.46</ele>
        <time>2025-03-15T13:21:59.822Z</time>
      </trkpt>
      <trkpt lat="43.32609" lon="6.56107">
        <ele>64.81</ele>
        <time>2025-03-15T13:22:01.995Z</time>
      </trkpt>
      <trkpt lat="43.32605" lon="6.56107">
        <ele>65.16</ele>
        <time>2025-03-15T13:22:04.099Z</time>
      </trkpt>
      <trkpt lat="43.32592" lon="6.56111">
        <ele>65.53</ele>
        <time>2025-03-15T13:22:10.786Z</time>
      </trkpt>
      <trkpt lat="43.32589" lon="6.56112">
        <ele>65.9</ele>
        <time>2025-03-15T13:22:13.003Z</time>
      </trkpt>
      <trkpt lat="43.32586" lon="6.56113">
        <ele>66.29</ele>
        <time>2025-03-15T13:22:15.302Z</time>
      </trkpt>
      <trkpt lat="43.32582" lon="6.56114">
        <ele>66.68</ele>
        <time>2025-03-15T13:22:17.590Z</time>
      </trkpt>
      <trkpt lat="43.32565" lon="6.56117">
        <ele>67.12</ele>
        <time>2025-03-15T13:22:26.060Z</time>
      </trkpt>
      <trkpt lat="43.32562" lon="6.56117">
        <ele>67.53</ele>
        <time>2025-03-15T13:22:28.436Z</time>
      </trkpt>
      <trkpt lat="43.32558" lon="6.56116">
        <ele>67.96</ele>
        <time>2025-03-15T13:22:30.927Z</time>
      </trkpt>
      <trkpt lat="43.32554" lon="6.56116">
        <ele>68.39</ele>
        <time>2025-03-15T13:22:33.342Z</time>
      </trkpt>
      <trkpt lat="43.32551" lon="6.56114">
        <ele>68.83</ele>
        <time>2025-03-15T13:22:35.922Z</time>
      </trkpt>
      <trkpt lat="43.32547" lon="6.56113">
        <ele>69.28</ele>
        <time>2025-03-15T13:22:38.412Z</time>
      </trkpt>
      <trkpt lat="43.32544" lon="6.56111">
        <ele>69.75</ele>
        <time>2025-03-15T13:22:40.869Z</time>
      </trkpt>
      <trkpt lat="43.32525" lon="6.56103">
        <ele>70.28</ele>
        <time>2025-03-15T13:22:51.011Z</time>
      </trkpt>
      <trkpt lat="43.32521" lon="6.56102">
        <ele>70.76</ele>
        <time>2025-03-15T13:22:53.550Z</time>
      </trkpt>
      <trkpt lat="43.32518" lon="6.56101">
        <ele>71.24</ele>
        <time>2025-03-15T13:22:56.026Z</time>
      </trkpt>
      <trkpt lat="43.32514" lon="6.56101">
        <ele>71.72</ele>
        <time>2025-03-15T13:22:58.546Z</time>
      </trkpt>
      <trkpt lat="43.32511" lon="6.56101">
        <ele>72.21</ele>
        <time>2025-03-15T13:23:01.081Z</time>
      </trkpt>
      <trkpt lat="43.325" lon="6.56102">
        <ele>72.74</ele>
        <time>2025-03-15T13:23:06.800Z</time>
      </trkpt>
      <trkpt lat="43.32477" lon="6.56112">
        <ele>73.26</ele>
        <time>2025-03-15T13:23:18.593Z</time>
      </trkpt>
      <trkpt lat="43.32475" lon="6.56115">
        <ele>73.76</ele>
        <time>2025-03-15T13:23:21.170Z</time>
      </trkpt>
      <trkpt lat="43.32472" lon="6.56118">
        <ele>74.25</ele>
        <time>2025-03-15T13:23:23.801Z</time>
      </trkpt>
      <trkpt lat="43.32469" lon="6.56121">
        <ele>74.75</ele>
        <time>2025-03-15T13:23:26.334Z</time>
      </trkpt>
      <trkpt lat="43.32466" lon="6.56124">
        <ele>75.24</ele>
        <time>2025-03-15T13:23:28.921Z</time>
      </trkpt>
      <trkpt lat="43.32458" lon="6.56132">
        <ele>75.74</ele>
        <time>2025-03-15T13:23:34.250Z</time>
      </trkpt>
      <trkpt lat="43.32436" lon="6.56154">
        <ele>76.27</ele>
        <time>2025-03-15T13:23:47.405Z</time>
      </trkpt>
      <trkpt lat="43.32433" lon="6.56155">
        <ele>76.76</ele>
        <time>2025-03-15T13:23:49.883Z</time>
      </trkpt>
      <trkpt lat="43.3243" lon="6.56157">
        <ele>77.26</ele>
        <time>2025-03-15T13:23:52.362Z</time>
      </trkpt>
      <trkpt lat="43.32427" lon="6.56158">
        <ele>77.75</ele>
        <time>2025-03-15T13:23:54.818Z</time>
      </trkpt>
      <trkpt lat="43.32424" lon="6.56159">
        <ele>78.24</ele>
        <time>2025-03-15T13:23:57.138Z</time>
      </trkpt>
      <trkpt lat="43.32413" lon="6.56164">
        <ele>78.76</ele>
        <time>2025-03-15T13:24:03.484Z</time>
      </trkpt>
      <trkpt lat="43.32407" lon="6.56166">
        <ele>79.26</ele>
        <time>2025-03-15T13:24:07.136Z</time>
      </trkpt>
      <trkpt lat="43.32404" lon="6.56167">
        <ele>79.73</ele>
        <time>2025-03-15T13:24:09.416Z</time>
      </trkpt>
      <trkpt lat="43.32402" lon="6.56168">
        <ele>80.2</ele>
        <time>2025-03-15T13:24:11.686Z</time>
      </trkpt>
      <trkpt lat="43.32398" lon="6.56169">
        <ele>80.67</ele>
        <time>2025-03-15T13:24:14.082Z</time>
      </trkpt>
      <trkpt lat="43.32396" lon="6.5617">
        <ele>81.12</ele>
        <time>2025-03-15T13:24:16.343Z</time>
      </trkpt>
      <trkpt lat="43.3239" lon="6.5617">
        <ele>81.59</ele>
        <time>2025-03-15T13:24:19.703Z</time>
      </trkpt>
      <trkpt lat="43.32377" lon="6.56163">
        <ele>82.05</ele>
        <time>2025-03-15T13:24:26.984Z</time>
      </trkpt>
      <trkpt lat="43.32372" lon="6.56161">
        <ele>82.49</ele>
        <time>2025-03-15T13:24:30.090Z</time>
      </trkpt>
      <trkpt lat="43.32369" lon="6.5616">
        <ele>82.91</ele>
        <time>2025-03-15T13:24:32.211Z</time>
      </trkpt>
      <trkpt lat="43.32366" lon="6.56159">
        <ele>83.33</ele>
        <time>2025-03-15T13:24:34.461Z</time>
      </trkpt>
      <trkpt lat="43.32363" lon="6.56158">
        <ele>83.74</ele>
        <time>2025-03-15T13:24:36.593Z</time>
      </trkpt>
      <trkpt lat="43.32348" lon="6.56157">
        <ele>84.18</ele>
        <time>2025-03-15T13:24:44.015Z</time>
      </trkpt>
      <trkpt lat="43.32345" lon="6.56158">
        <ele>84.58</ele>
        <time>2025-03-15T13:24:46.212Z</time>
      </trkpt>
      <trkpt lat="43.32342" lon="6.5616">
        <ele>84.99</ele>
        <time>2025-03-15T13:24:48.395Z</time>
      </trkpt>
      <trkpt lat="43.3234" lon="6.56161">
        <ele>85.39</ele>
        <time>2025-03-15T13:24:50.539Z</time>
      </trkpt>
      <trkpt lat="43.32337" lon="6.56163">
        <ele>85.78</ele>
        <time>2025-03-15T13:24:52.495Z</time>
      </trkpt>
      <trkpt lat="43.32328" lon="6.56167">
        <ele>86.21</ele>
        <time>2025-03-15T13:24:57.771Z</time>
      </trkpt>
      <trkpt lat="43.32326" lon="6.56168">
        <ele>86.59</ele>
        <time>2025-03-15T13:24:59.638Z</time>
      </trkpt>
      <trkpt lat="43.32323" lon="6.5617">
        <ele>86.97</ele>
        <time>2025-03-15T13:25:01.571Z</time>
      </trkpt>
      <trkpt lat="43.32321" lon="6.56171">
        <ele>87.35</ele>
        <time>2025-03-15T13:25:03.408Z</time>
      </trkpt>
      <trkpt lat="43.32319" lon="6.56172">
        <ele>87.72</ele>
        <time>2025-03-15T13:25:05.106Z</time>
      </trkpt>
      <trkpt lat="43.32318" lon="6.56174">
        <ele>88.09</ele>
        <time>2025-03-15T13:25:06.946Z</time>
      </trkpt>
      <trkpt lat="43.32316" lon="6.56176">
        <ele>88.46</ele>
        <time>2025-03-15T13:25:08.747Z</time>
      </trkpt>
      <trkpt lat="43.32313" lon="6.56177">
        <ele>88.83</ele>
        <time>2025-03-15T13:25:10.863Z</time>
      </trkpt>
      <trkpt lat="43.32311" lon="6.56178">
        <ele>89.21</ele>
        <time>2025-03-15T13:25:12.650Z</time>
      </trkpt>
      <trkpt lat="43.32309" lon="6.56178">
        <ele>89.57</ele>
        <time>2025-03-15T13:25:14.360Z</time>
      </trkpt>
      <trkpt lat="43.32307" lon="6.56179">
        <ele>89.94</ele>
        <time>2025-03-15T13:25:16.028Z</time>
      </trkpt>
      <trkpt lat="43.32306" lon="6.5618">
        <ele>90.31</ele>
        <time>2025-03-15T13:25:17.711Z</time>
      </trkpt>
      <trkpt lat="43.32304" lon="6.56181">
        <ele>90.68</ele>
        <time>2025-03-15T13:25:19.463Z</time>
      </trkpt>
      <trkpt lat="43.32299" lon="6.56181">
        <ele>91.07</ele>
        <time>2025-03-15T13:25:22.002Z</time>
      </trkpt>
      <trkpt lat="43.32297" lon="6.56181">
        <ele>91.45</ele>
        <time>2025-03-15T13:25:23.811Z</time>
      </trkpt>
      <trkpt lat="43.32296" lon="6.56183">
        <ele>91.83</ele>
        <time>2025-03-15T13:25:25.599Z</time>
      </trkpt>
      <trkpt lat="43.32292" lon="6.56185">
        <ele>92.22</ele>
        <time>2025-03-15T13:25:28.054Z</time>
      </trkpt>
      <trkpt lat="43.3229" lon="6.56186">
        <ele>92.61</ele>
        <time>2025-03-15T13:25:29.871Z</time>
      </trkpt>
      <trkpt lat="43.32288" lon="6.56187">
        <ele>93.01</ele>
        <time>2025-03-15T13:25:31.747Z</time>
      </trkpt>
      <trkpt lat="43.32286" lon="6.56188">
        <ele>93.41</ele>
        <time>2025-03-15T13:25:33.579Z</time>
      </trkpt>
      <trkpt lat="43.32285" lon="6.56189">
        <ele>93.81</ele>
        <time>2025-03-15T13:25:35.411Z</time>
      </trkpt>
      <trkpt lat="43.32283" lon="6.5619">
        <ele>94.22</ele>
        <time>2025-03-15T13:25:37.251Z</time>
      </trkpt>
      <trkpt lat="43.32281" lon="6.56191">
        <ele>94.63</ele>
        <time>2025-03-15T13:25:39.228Z</time>
      </trkpt>
      <trkpt lat="43.32279" lon="6.56192">
        <ele>95.05</ele>
        <time>2025-03-15T13:25:41.174Z</time>
      </trkpt>
      <trkpt lat="43.32276" lon="6.56193">
        <ele>95.48</ele>
        <time>2025-03-15T13:25:43.199Z</time>
      </trkpt>
      <trkpt lat="43.32274" lon="6.56193">
        <ele>95.9</ele>
        <time>2025-03-15T13:25:45.157Z</time>
      </trkpt>
      <trkpt lat="43.32267" lon="6.56196">
        <ele>96.37</ele>
        <time>2025-03-15T13:25:49.292Z</time>
      </trkpt>
      <trkpt lat="43.32265" lon="6.56197">
        <ele>96.81</ele>
        <time>2025-03-15T13:25:51.389Z</time>
      </trkpt>
      <trkpt lat="43.32262" lon="6.56198">
        <ele>97.25</ele>
        <time>2025-03-15T13:25:53.467Z</time>
      </trkpt>
      <trkpt lat="43.3226" lon="6.56199">
        <ele>97.69</ele>
        <time>2025-03-15T13:25:55.586Z</time>
      </trkpt>
      <trkpt lat="43.32258" lon="6.562">
        <ele>98.13</ele>
        <time>2025-03-15T13:25:57.607Z</time>
      </trkpt>
      <trkpt lat="43.32246" lon="6.56203">
        <ele>98.65</ele>
        <time>2025-03-15T13:26:03.840Z</time>
      </trkpt>
      <trkpt lat="43.32245" lon="6.56203">
        <ele>99.09</ele>
        <time>2025-03-15T13:26:05.845Z</time>
      </trkpt>
      <trkpt lat="43.32243" lon="6.56204">
        <ele>99.51</ele>
        <time>2025-03-15T13:26:07.783Z</time>
      </trkpt>
      <trkpt lat="43.32241" lon="6.56204">
        <ele>99.94</ele>
        <time>2025-03-15T13:26:09.758Z</time>
      </trkpt>
      <trkpt lat="43.32239" lon="6.56205">
        <ele>100.37</ele>
        <time>2025-03-15T13:26:11.697Z</time>
      </trkpt>
      <trkpt lat="43.32237" lon="6.56205">
        <ele>100.78</ele>
        <time>2025-03-15T13:26:13.553Z</time>
      </trkpt>
      <trkpt lat="43.32235" lon="6.56206">
        <ele>101.2</ele>
        <time>2025-03-15T13:26:15.494Z</time>
      </trkpt>
      <trkpt lat="43.32233" lon="6.56208">
        <ele>101.62</ele>
        <time>2025-03-15T13:26:17.537Z</time>
      </trkpt>
      <trkpt lat="43.32231" lon="6.5621">
        <ele>102.03</ele>
        <time>2025-03-15T13:26:19.492Z</time>
      </trkpt>
      <trkpt lat="43.32229" lon="6.56212">
        <ele>102.43</ele>
        <time>2025-03-15T13:26:21.552Z</time>
      </trkpt>
      <trkpt lat="43.32227" lon="6.56213">
        <ele>102.82</ele>
        <time>2025-03-15T13:26:23.365Z</time>
      </trkpt>
      <trkpt lat="43.32225" lon="6.56215">
        <ele>103.21</ele>
        <time>2025-03-15T13:26:25.299Z</time>
      </trkpt>
      <trkpt lat="43.32223" lon="6.56217">
        <ele>103.6</ele>
        <time>2025-03-15T13:26:27.417Z</time>
      </trkpt>
      <trkpt lat="43.3222" lon="6.56219">
        <ele>103.97</ele>
        <time>2025-03-15T13:26:29.386Z</time>
      </trkpt>
      <trkpt lat="43.32219" lon="6.56221">
        <ele>104.34</ele>
        <time>2025-03-15T13:26:31.124Z</time>
      </trkpt>
      <trkpt lat="43.32217" lon="6.56223">
        <ele>104.71</ele>
        <time>2025-03-15T13:26:32.953Z</time>
      </trkpt>
      <trkpt lat="43.32216" lon="6.56224">
        <ele>105.07</ele>
        <time>2025-03-15T13:26:34.586Z</time>
      </trkpt>
      <trkpt lat="43.32214" lon="6.56226">
        <ele>105.42</ele>
        <time>2025-03-15T13:26:36.292Z</time>
      </trkpt>
      <trkpt lat="43.32211" lon="6.5623">
        <ele>105.77</ele>
        <time>2025-03-15T13:26:38.650Z</time>
      </trkpt>
      <trkpt lat="43.32209" lon="6.56231">
        <ele>106.12</ele>
        <time>2025-03-15T13:26:40.379Z</time>
      </trkpt>
      <trkpt lat="43.32207" lon="6.56232">
        <ele>106.46</ele>
        <time>2025-03-15T13:26:41.943Z</time>
      </trkpt>
      <trkpt lat="43.32206" lon="6.56234">
        <ele>106.81</ele>
        <time>2025-03-15T13:26:43.648Z</time>
      </trkpt>
      <trkpt lat="43.32202" lon="6.56237">
        <ele>107.15</ele>
        <time>2025-03-15T13:26:46.108Z</time>
      </trkpt>
      <trkpt lat="43.32201" lon="6.56239">
        <ele>107.49</ele>
        <time>2025-03-15T13:26:47.719Z</time>
      </trkpt>
      <trkpt lat="43.322" lon="6.56241">
        <ele>107.83</ele>
        <time>2025-03-15T13:26:49.313Z</time>
      </trkpt>
      <trkpt lat="43.32198" lon="6.56242">
        <ele>108.17</ele>
        <time>2025-03-15T13:26:50.873Z</time>
      </trkpt>
      <trkpt lat="43.32196" lon="6.56243">
        <ele>108.51</ele>
        <time>2025-03-15T13:26:52.549Z</time>
      </trkpt>
      <trkpt lat="43.32193" lon="6.56247">
        <ele>108.86</ele>
        <time>2025-03-15T13:26:54.999Z</time>
      </trkpt>
      <trkpt lat="43.32192" lon="6.56249">
        <ele>109.2</ele>
        <time>2025-03-15T13:26:56.658Z</time>
      </trkpt>
      <trkpt lat="43.3219" lon="6.5625">
        <ele>109.55</ele>
        <time>2025-03-15T13:26:58.337Z</time>
      </trkpt>
      <trkpt lat="43.32188" lon="6.56251">
        <ele>109.91</ele>
        <time>2025-03-15T13:26:59.987Z</time>
      </trkpt>
      <trkpt lat="43.32187" lon="6.56253">
        <ele>110.27</ele>
        <time>2025-03-15T13:27:01.727Z</time>
      </trkpt>
      <trkpt lat="43.32184" lon="6.56256">
        <ele>110.65</ele>
        <time>2025-03-15T13:27:04.076Z</time>
      </trkpt>
      <trkpt lat="43.32182" lon="6.56258">
        <ele>111.03</ele>
        <time>2025-03-15T13:27:05.790Z</time>
      </trkpt>
      <trkpt lat="43.32181" lon="6.56259">
        <ele>111.41</ele>
        <time>2025-03-15T13:27:07.504Z</time>
      </trkpt>
      <trkpt lat="43.32179" lon="6.5626">
        <ele>111.79</ele>
        <time>2025-03-15T13:27:09.254Z</time>
      </trkpt>
      <trkpt lat="43.32178" lon="6.56261">
        <ele>112.18</ele>
        <time>2025-03-15T13:27:11.018Z</time>
      </trkpt>
      <trkpt lat="43.32175" lon="6.56264">
        <ele>112.6</ele>
        <time>2025-03-15T13:27:13.492Z</time>
      </trkpt>
      <trkpt lat="43.32173" lon="6.56265">
        <ele>113</ele>
        <time>2025-03-15T13:27:15.335Z</time>
      </trkpt>
      <trkpt lat="43.32171" lon="6.56266">
        <ele>113.41</ele>
        <time>2025-03-15T13:27:17.176Z</time>
      </trkpt>
      <trkpt lat="43.3217" lon="6.56268">
        <ele>113.83</ele>
        <time>2025-03-15T13:27:19.086Z</time>
      </trkpt>
      <trkpt lat="43.32166" lon="6.56271">
        <ele>114.28</ele>
        <time>2025-03-15T13:27:21.646Z</time>
      </trkpt>
      <trkpt lat="43.32165" lon="6.56272">
        <ele>114.71</ele>
        <time>2025-03-15T13:27:23.592Z</time>
      </trkpt>
      <trkpt lat="43.32163" lon="6.56273">
        <ele>115.15</ele>
        <time>2025-03-15T13:27:25.568Z</time>
      </trkpt>
      <trkpt lat="43.32162" lon="6.56275">
        <ele>115.6</ele>
        <time>2025-03-15T13:27:27.589Z</time>
      </trkpt>
      <trkpt lat="43.3216" lon="6.56276">
        <ele>116.06</ele>
        <time>2025-03-15T13:27:29.654Z</time>
      </trkpt>
      <trkpt lat="43.32159" lon="6.56278">
        <ele>116.52</ele>
        <time>2025-03-15T13:27:31.719Z</time>
      </trkpt>
      <trkpt lat="43.32157" lon="6.56279">
        <ele>116.98</ele>
        <time>2025-03-15T13:27:33.789Z</time>
      </trkpt>
      <trkpt lat="43.32154" lon="6.56281">
        <ele>117.47</ele>
        <time>2025-03-15T13:27:36.404Z</time>
      </trkpt>
      <trkpt lat="43.32152" lon="6.56282">
        <ele>117.94</ele>
        <time>2025-03-15T13:27:38.523Z</time>
      </trkpt>
      <trkpt lat="43.3215" lon="6.56283">
        <ele>118.43</ele>
        <time>2025-03-15T13:27:40.758Z</time>
      </trkpt>
      <trkpt lat="43.32147" lon="6.56284">
        <ele>118.92</ele>
        <time>2025-03-15T13:27:43.003Z</time>
      </trkpt>
      <trkpt lat="43.32145" lon="6.56285">
        <ele>119.41</ele>
        <time>2025-03-15T13:27:45.224Z</time>
      </trkpt>
      <trkpt lat="43.32139" lon="6.56288">
        <ele>119.93</ele>
        <time>2025-03-15T13:27:49.149Z</time>
      </trkpt>
      <trkpt lat="43.32122" lon="6.56291">
        <ele>120.51</ele>
        <time>2025-03-15T13:27:57.697Z</time>
      </trkpt>
      <trkpt lat="43.3211" lon="6.56291">
        <ele>121.07</ele>
        <time>2025-03-15T13:28:03.977Z</time>
      </trkpt>
      <trkpt lat="43.32108" lon="6.56291">
        <ele>121.57</ele>
        <time>2025-03-15T13:28:06.260Z</time>
      </trkpt>
      <trkpt lat="43.32105" lon="6.5629">
        <ele>122.07</ele>
        <time>2025-03-15T13:28:08.542Z</time>
      </trkpt>
      <trkpt lat="43.32103" lon="6.56291">
        <ele>122.56</ele>
        <time>2025-03-15T13:28:10.744Z</time>
      </trkpt>
      <trkpt lat="43.32102" lon="6.56292">
        <ele>123.05</ele>
        <time>2025-03-15T13:28:12.944Z</time>
      </trkpt>
      <trkpt lat="43.32095" lon="6.56298">
        <ele>123.55</ele>
        <time>2025-03-15T13:28:17.484Z</time>
      </trkpt>
      <trkpt lat="43.32088" lon="6.56316">
        <ele>124.03</ele>
        <time>2025-03-15T13:28:25.034Z</time>
      </trkpt>
      <trkpt lat="43.32079" lon="6.56334">
        <ele>124.49</ele>
        <time>2025-03-15T13:28:32.783Z</time>
      </trkpt>
      <trkpt lat="43.3207" lon="6.56346">
        <ele>124.95</ele>
        <time>2025-03-15T13:28:39.438Z</time>
      </trkpt>
      <trkpt lat="43.32067" lon="6.56349">
        <ele>125.41</ele>
        <time>2025-03-15T13:28:41.751Z</time>
      </trkpt>
      <trkpt lat="43.32065" lon="6.56351">
        <ele>125.87</ele>
        <time>2025-03-15T13:28:44.021Z</time>
      </trkpt>
      <trkpt lat="43.32063" lon="6.56354">
        <ele>126.32</ele>
        <time>2025-03-15T13:28:46.390Z</time>
      </trkpt>
      <trkpt lat="43.3206" lon="6.56357">
        <ele>126.78</ele>
        <time>2025-03-15T13:28:48.720Z</time>
      </trkpt>
      <trkpt lat="43.3205" lon="6.56368">
        <ele>127.22</ele>
        <time>2025-03-15T13:28:55.367Z</time>
      </trkpt>
      <trkpt lat="43.32044" lon="6.56371">
        <ele>127.68</ele>
        <time>2025-03-15T13:28:59.032Z</time>
      </trkpt>
      <trkpt lat="43.32032" lon="6.56374">
        <ele>128.16</ele>
        <time>2025-03-15T13:29:05.303Z</time>
      </trkpt>
      <trkpt lat="43.32024" lon="6.56375">
        <ele>128.63</ele>
        <time>2025-03-15T13:29:09.928Z</time>
      </trkpt>
      <trkpt lat="43.32011" lon="6.56377">
        <ele>129.11</ele>
        <time>2025-03-15T13:29:16.546Z</time>
      </trkpt>
      <trkpt lat="43.32008" lon="6.56377">
        <ele>129.55</ele>
        <time>2025-03-15T13:29:18.913Z</time>
      </trkpt>
      <trkpt lat="43.32005" lon="6.56377">
        <ele>129.99</ele>
        <time>2025-03-15T13:29:21.197Z</time>
      </trkpt>
      <trkpt lat="43.32002" lon="6.56376">
        <ele>130.43</ele>
        <time>2025-03-15T13:29:23.459Z</time>
      </trkpt>
      <trkpt lat="43.31999" lon="6.56374">
        <ele>130.87</ele>
        <time>2025-03-15T13:29:25.768Z</time>
      </trkpt>
      <trkpt lat="43.31993" lon="6.56368">
        <ele>131.33</ele>
        <time>2025-03-15T13:29:29.715Z</time>
      </trkpt>
      <trkpt lat="43.31987" lon="6.56356">
        <ele>131.8</ele>
        <time>2025-03-15T13:29:35.690Z</time>
      </trkpt>
      <trkpt lat="43.31986" lon="6.56353">
        <ele>132.21</ele>
        <time>2025-03-15T13:29:37.544Z</time>
      </trkpt>
      <trkpt lat="43.31985" lon="6.56351">
        <ele>132.62</ele>
        <time>2025-03-15T13:29:39.389Z</time>
      </trkpt>
      <trkpt lat="43.31985" lon="6.56349">
        <ele>133.02</ele>
        <time>2025-03-15T13:29:41.208Z</time>
      </trkpt>
      <trkpt lat="43.31984" lon="6.56347">
        <ele>133.42</ele>
        <time>2025-03-15T13:29:43.033Z</time>
      </trkpt>
      <trkpt lat="43.31983" lon="6.56345">
        <ele>133.82</ele>
        <time>2025-03-15T13:29:44.829Z</time>
      </trkpt>
      <trkpt lat="43.31983" lon="6.56342">
        <ele>134.21</ele>
        <time>2025-03-15T13:29:46.618Z</time>
      </trkpt>
      <trkpt lat="43.31981" lon="6.56337">
        <ele>134.6</ele>
        <time>2025-03-15T13:29:49.104Z</time>
      </trkpt>
      <trkpt lat="43.3198" lon="6.56335">
        <ele>134.98</ele>
        <time>2025-03-15T13:29:50.978Z</time>
      </trkpt>
      <trkpt lat="43.31978" lon="6.56333">
        <ele>135.36</ele>
        <time>2025-03-15T13:29:52.733Z</time>
      </trkpt>
      <trkpt lat="43.31977" lon="6.56331">
        <ele>135.73</ele>
        <time>2025-03-15T13:29:54.465Z</time>
      </trkpt>
      <trkpt lat="43.31976" lon="6.56329">
        <ele>136.1</ele>
        <time>2025-03-15T13:29:56.127Z</time>
      </trkpt>
      <trkpt lat="43.31975" lon="6.56327">
        <ele>136.46</ele>
        <time>2025-03-15T13:29:57.786Z</time>
      </trkpt>
      <trkpt lat="43.31973" lon="6.56326">
        <ele>136.82</ele>
        <time>2025-03-15T13:29:59.431Z</time>
      </trkpt>
      <trkpt lat="43.31971" lon="6.56324">
        <ele>137.18</ele>
        <time>2025-03-15T13:30:01.271Z</time>
      </trkpt>
      <trkpt lat="43.31969" lon="6.56322">
        <ele>137.53</ele>
        <time>2025-03-15T13:30:03.028Z</time>
      </trkpt>
      <trkpt lat="43.31968" lon="6.5632">
        <ele>137.88</ele>
        <time>2025-03-15T13:30:04.694Z</time>
      </trkpt>
      <trkpt lat="43.31967" lon="6.56318">
        <ele>138.23</ele>
        <time>2025-03-15T13:30:06.336Z</time>
      </trkpt>
      <trkpt lat="43.31965" lon="6.56317">
        <ele>138.58</ele>
        <time>2025-03-15T13:30:08.034Z</time>
      </trkpt>
      <trkpt lat="43.31965" lon="6.56316">
        <ele>138.92</ele>
        <time>2025-03-15T13:30:09.754Z</time>
      </trkpt>
      <trkpt lat="43.31964" lon="6.56314">
        <ele>139.26</ele>
        <time>2025-03-15T13:30:11.315Z</time>
      </trkpt>
      <trkpt lat="43.31957" lon="6.56304">
        <ele>139.66</ele>
        <time>2025-03-15T13:30:16.499Z</time>
      </trkpt>
      <trkpt lat="43.31956" lon="6.56302">
        <ele>140</ele>
        <time>2025-03-15T13:30:18.162Z</time>
      </trkpt>
      <trkpt lat="43.31955" lon="6.563">
        <ele>140.34</ele>
        <time>2025-03-15T13:30:19.698Z</time>
      </trkpt>
      <trkpt lat="43.31954" lon="6.56298">
        <ele>140.66</ele>
        <time>2025-03-15T13:30:21.155Z</time>
      </trkpt>
      <trkpt lat="43.31953" lon="6.56297">
        <ele>140.99</ele>
        <time>2025-03-15T13:30:22.640Z</time>
      </trkpt>
      <trkpt lat="43.31952" lon="6.56295">
        <ele>141.3</ele>
        <time>2025-03-15T13:30:24.034Z</time>
      </trkpt>
      <trkpt lat="43.31952" lon="6.56294">
        <ele>141.61</ele>
        <time>2025-03-15T13:30:25.496Z</time>
      </trkpt>
      <trkpt lat="43.3195" lon="6.56293">
        <ele>141.91</ele>
        <time>2025-03-15T13:30:26.845Z</time>
      </trkpt>
      <trkpt lat="43.3195" lon="6.56292">
        <ele>142.21</ele>
        <time>2025-03-15T13:30:28.377Z</time>
      </trkpt>
      <trkpt lat="43.31949" lon="6.56291">
        <ele>142.51</ele>
        <time>2025-03-15T13:30:29.738Z</time>
      </trkpt>
      <trkpt lat="43.31947" lon="6.56288">
        <ele>142.81</ele>
        <time>2025-03-15T13:30:31.503Z</time>
      </trkpt>
      <trkpt lat="43.31945" lon="6.56287">
        <ele>143.09</ele>
        <time>2025-03-15T13:30:32.989Z</time>
      </trkpt>
      <trkpt lat="43.31944" lon="6.56287">
        <ele>143.37</ele>
        <time>2025-03-15T13:30:34.318Z</time>
      </trkpt>
      <trkpt lat="43.31942" lon="6.56285">
        <ele>143.64</ele>
        <time>2025-03-15T13:30:35.718Z</time>
      </trkpt>
      <trkpt lat="43.31941" lon="6.56285">
        <ele>143.9</ele>
        <time>2025-03-15T13:30:36.897Z</time>
      </trkpt>
      <trkpt lat="43.31937" lon="6.56285">
        <ele>144.17</ele>
        <time>2025-03-15T13:30:39.102Z</time>
      </trkpt>
      <trkpt lat="43.31935" lon="6.56286">
        <ele>144.44</ele>
        <time>2025-03-15T13:30:40.747Z</time>
      </trkpt>
      <trkpt lat="43.31933" lon="6.56287">
        <ele>144.69</ele>
        <time>2025-03-15T13:30:42.125Z</time>
      </trkpt>
      <trkpt lat="43.31931" lon="6.56287">
        <ele>144.93</ele>
        <time>2025-03-15T13:30:43.324Z</time>
      </trkpt>
      <trkpt lat="43.31929" lon="6.5629">
        <ele>145.16</ele>
        <time>2025-03-15T13:30:45.165Z</time>
      </trkpt>
      <trkpt lat="43.31927" lon="6.56294">
        <ele>145.38</ele>
        <time>2025-03-15T13:30:47.137Z</time>
      </trkpt>
      <trkpt lat="43.31926" lon="6.56296">
        <ele>145.58</ele>
        <time>2025-03-15T13:30:48.364Z</time>
      </trkpt>
      <trkpt lat="43.31926" lon="6.56298">
        <ele>145.78</ele>
        <time>2025-03-15T13:30:49.385Z</time>
      </trkpt>
      <trkpt lat="43.31925" lon="6.56299">
        <ele>145.98</ele>
        <time>2025-03-15T13:30:50.406Z</time>
      </trkpt>
      <trkpt lat="43.31924" lon="6.56301">
        <ele>146.17</ele>
        <time>2025-03-15T13:30:51.386Z</time>
      </trkpt>
      <trkpt lat="43.31921" lon="6.56307">
        <ele>146.37</ele>
        <time>2025-03-15T13:30:54.264Z</time>
      </trkpt>
      <trkpt lat="43.31921" lon="6.56309">
        <ele>146.56</ele>
        <time>2025-03-15T13:30:55.253Z</time>
      </trkpt>
      <trkpt lat="43.3192" lon="6.5631">
        <ele>146.75</ele>
        <time>2025-03-15T13:30:56.203Z</time>
      </trkpt>
      <trkpt lat="43.31919" lon="6.56312">
        <ele>146.94</ele>
        <time>2025-03-15T13:30:57.232Z</time>
      </trkpt>
      <trkpt lat="43.31918" lon="6.56314">
        <ele>147.13</ele>
        <time>2025-03-15T13:30:58.290Z</time>
      </trkpt>
      <trkpt lat="43.31914" lon="6.56322">
        <ele>147.34</ele>
        <time>2025-03-15T13:31:02.019Z</time>
      </trkpt>
      <trkpt lat="43.31913" lon="6.56324">
        <ele>147.54</ele>
        <time>2025-03-15T13:31:03.326Z</time>
      </trkpt>
      <trkpt lat="43.31911" lon="6.56326">
        <ele>147.74</ele>
        <time>2025-03-15T13:31:04.708Z</time>
      </trkpt>
      <trkpt lat="43.3191" lon="6.56328">
        <ele>147.95</ele>
        <time>2025-03-15T13:31:05.984Z</time>
      </trkpt>
      <trkpt lat="43.31907" lon="6.56333">
        <ele>148.16</ele>
        <time>2025-03-15T13:31:08.161Z</time>
      </trkpt>
      <trkpt lat="43.31907" lon="6.56335">
        <ele>148.34</ele>
        <time>2025-03-15T13:31:09.419Z</time>
      </trkpt>
      <trkpt lat="43.31906" lon="6.56337">
        <ele>148.55</ele>
        <time>2025-03-15T13:31:10.551Z</time>
      </trkpt>
      <trkpt lat="43.31904" lon="6.56339">
        <ele>148.76</ele>
        <time>2025-03-15T13:31:11.795Z</time>
      </trkpt>
      <trkpt lat="43.31904" lon="6.56342">
        <ele>148.97</ele>
        <time>2025-03-15T13:31:13.159Z</time>
      </trkpt>
      <trkpt lat="43.31902" lon="6.56343">
        <ele>149.2</ele>
        <time>2025-03-15T13:31:14.376Z</time>
      </trkpt>
      <trkpt lat="43.31899" lon="6.56346">
        <ele>149.44</ele>
        <time>2025-03-15T13:31:16.477Z</time>
      </trkpt>
      <trkpt lat="43.31898" lon="6.56348">
        <ele>149.68</ele>
        <time>2025-03-15T13:31:17.850Z</time>
      </trkpt>
      <trkpt lat="43.31897" lon="6.56349">
        <ele>149.92</ele>
        <time>2025-03-15T13:31:19.069Z</time>
      </trkpt>
      <trkpt lat="43.31895" lon="6.56352">
        <ele>150.16</ele>
        <time>2025-03-15T13:31:20.424Z</time>
      </trkpt>
      <trkpt lat="43.31895" lon="6.56353">
        <ele>150.4</ele>
        <time>2025-03-15T13:31:21.565Z</time>
      </trkpt>
      <trkpt lat="43.31893" lon="6.56359">
        <ele>150.65</ele>
        <time>2025-03-15T13:31:24.091Z</time>
      </trkpt>
      <trkpt lat="43.31892" lon="6.5636">
        <ele>150.91</ele>
        <time>2025-03-15T13:31:25.289Z</time>
      </trkpt>
      <trkpt lat="43.31891" lon="6.56362">
        <ele>151.18</ele>
        <time>2025-03-15T13:31:26.519Z</time>
      </trkpt>
      <trkpt lat="43.31891" lon="6.56363">
        <ele>151.46</ele>
        <time>2025-03-15T13:31:27.776Z</time>
      </trkpt>
      <trkpt lat="43.31889" lon="6.56364">
        <ele>151.76</ele>
        <time>2025-03-15T13:31:29.169Z</time>
      </trkpt>
      <trkpt lat="43.31887" lon="6.56364">
        <ele>152.07</ele>
        <time>2025-03-15T13:31:30.732Z</time>
      </trkpt>
      <trkpt lat="43.31882" lon="6.56365">
        <ele>152.43</ele>
        <time>2025-03-15T13:31:33.620Z</time>
      </trkpt>
      <trkpt lat="43.31881" lon="6.56366">
        <ele>152.75</ele>
        <time>2025-03-15T13:31:35.057Z</time>
      </trkpt>
      <trkpt lat="43.31879" lon="6.56366">
        <ele>153.09</ele>
        <time>2025-03-15T13:31:36.603Z</time>
      </trkpt>
      <trkpt lat="43.31878" lon="6.56367">
        <ele>153.45</ele>
        <time>2025-03-15T13:31:38.249Z</time>
      </trkpt>
      <trkpt lat="43.31876" lon="6.56368">
        <ele>153.8</ele>
        <time>2025-03-15T13:31:39.827Z</time>
      </trkpt>
      <trkpt lat="43.31875" lon="6.56369">
        <ele>154.17</ele>
        <time>2025-03-15T13:31:41.488Z</time>
      </trkpt>
      <trkpt lat="43.31873" lon="6.56371">
        <ele>154.55</ele>
        <time>2025-03-15T13:31:43.307Z</time>
      </trkpt>
      <trkpt lat="43.31872" lon="6.56372">
        <ele>154.94</ele>
        <time>2025-03-15T13:31:45.058Z</time>
      </trkpt>
      <trkpt lat="43.31871" lon="6.56373">
        <ele>155.34</ele>
        <time>2025-03-15T13:31:46.856Z</time>
      </trkpt>
      <trkpt lat="43.3187" lon="6.56375">
        <ele>155.74</ele>
        <time>2025-03-15T13:31:48.670Z</time>
      </trkpt>
      <trkpt lat="43.31869" lon="6.56377">
        <ele>156.15</ele>
        <time>2025-03-15T13:31:50.534Z</time>
      </trkpt>
      <trkpt lat="43.31867" lon="6.56378">
        <ele>156.56</ele>
        <time>2025-03-15T13:31:52.388Z</time>
      </trkpt>
      <trkpt lat="43.31865" lon="6.56381">
        <ele>156.99</ele>
        <time>2025-03-15T13:31:54.677Z</time>
      </trkpt>
      <trkpt lat="43.31864" lon="6.56381">
        <ele>157.43</ele>
        <time>2025-03-15T13:31:56.449Z</time>
      </trkpt>
      <trkpt lat="43.31863" lon="6.56382">
        <ele>157.89</ele>
        <time>2025-03-15T13:31:58.544Z</time>
      </trkpt>
      <trkpt lat="43.31861" lon="6.56383">
        <ele>158.35</ele>
        <time>2025-03-15T13:32:00.649Z</time>
      </trkpt>
      <trkpt lat="43.3186" lon="6.56385">
        <ele>158.83</ele>
        <time>2025-03-15T13:32:02.805Z</time>
      </trkpt>
      <trkpt lat="43.31856" lon="6.56387">
        <ele>159.33</ele>
        <time>2025-03-15T13:32:05.598Z</time>
      </trkpt>
      <trkpt lat="43.31855" lon="6.56388">
        <ele>159.84</ele>
        <time>2025-03-15T13:32:07.966Z</time>
      </trkpt>
      <trkpt lat="43.31853" lon="6.56389">
        <ele>160.35</ele>
        <time>2025-03-15T13:32:10.391Z</time>
      </trkpt>
      <trkpt lat="43.31852" lon="6.5639">
        <ele>160.87</ele>
        <time>2025-03-15T13:32:12.797Z</time>
      </trkpt>
      <trkpt lat="43.31847" lon="6.56393">
        <ele>161.44</ele>
        <time>2025-03-15T13:32:16.290Z</time>
      </trkpt>
      <trkpt lat="43.31845" lon="6.56394">
        <ele>161.99</ele>
        <time>2025-03-15T13:32:18.901Z</time>
      </trkpt>
      <trkpt lat="43.31844" lon="6.56395">
        <ele>162.56</ele>
        <time>2025-03-15T13:32:21.480Z</time>
      </trkpt>
      <trkpt lat="43.31841" lon="6.56396">
        <ele>163.13</ele>
        <time>2025-03-15T13:32:24.040Z</time>
      </trkpt>
      <trkpt lat="43.3184" lon="6.56397">
        <ele>163.72</ele>
        <time>2025-03-15T13:32:26.803Z</time>
      </trkpt>
      <trkpt lat="43.3183" lon="6.564">
        <ele>164.36</ele>
        <time>2025-03-15T13:32:32.165Z</time>
      </trkpt>
      <trkpt lat="43.31829" lon="6.56401">
        <ele>164.96</ele>
        <time>2025-03-15T13:32:35.323Z</time>
      </trkpt>
      <trkpt lat="43.31827" lon="6.56401">
        <ele>165.57</ele>
        <time>2025-03-15T13:32:38.165Z</time>
      </trkpt>
      <trkpt lat="43.31825" lon="6.56402">
        <ele>166.19</ele>
        <time>2025-03-15T13:32:41.054Z</time>
      </trkpt>
      <trkpt lat="43.31824" lon="6.56402">
        <ele>166.82</ele>
        <time>2025-03-15T13:32:44.329Z</time>
      </trkpt>
      <trkpt lat="43.3182" lon="6.56404">
        <ele>167.47</ele>
        <time>2025-03-15T13:32:47.446Z</time>
      </trkpt>
      <trkpt lat="43.31819" lon="6.56405">
        <ele>168.1</ele>
        <time>2025-03-15T13:32:50.129Z</time>
      </trkpt>
      <trkpt lat="43.31818" lon="6.56405">
        <ele>168.74</ele>
        <time>2025-03-15T13:32:53.551Z</time>
      </trkpt>
      <trkpt lat="43.31816" lon="6.56404">
        <ele>169.39</ele>
        <time>2025-03-15T13:32:56.583Z</time>
      </trkpt>
      <trkpt lat="43.31811" lon="6.56404">
        <ele>170.08</ele>
        <time>2025-03-15T13:32:59.939Z</time>
      </trkpt>
      <trkpt lat="43.3181" lon="6.56404">
        <ele>170.73</ele>
        <time>2025-03-15T13:33:02.860Z</time>
      </trkpt>
      <trkpt lat="43.31808" lon="6.56404">
        <ele>171.4</ele>
        <time>2025-03-15T13:33:05.996Z</time>
      </trkpt>
      <trkpt lat="43.31807" lon="6.56404">
        <ele>172.04</ele>
        <time>2025-03-15T13:33:08.014Z</time>
      </trkpt>
      <trkpt lat="43.31806" lon="6.56404">
        <ele>172.69</ele>
        <time>2025-03-15T13:33:11.335Z</time>
      </trkpt>
      <trkpt lat="43.31804" lon="6.56404">
        <ele>173.35</ele>
        <time>2025-03-15T13:33:14.783Z</time>
      </trkpt>
      <trkpt lat="43.31803" lon="6.56405">
        <ele>173.99</ele>
        <time>2025-03-15T13:33:17.901Z</time>
      </trkpt>
      <trkpt lat="43.31799" lon="6.56406">
        <ele>174.67</ele>
        <time>2025-03-15T13:33:21.456Z</time>
      </trkpt>
      <trkpt lat="43.31797" lon="6.56408">
        <ele>175.31</ele>
        <time>2025-03-15T13:33:24.791Z</time>
      </trkpt>
      <trkpt lat="43.31796" lon="6.56408">
        <ele>175.95</ele>
        <time>2025-03-15T13:33:28.034Z</time>
      </trkpt>
      <trkpt lat="43.31794" lon="6.56408">
        <ele>176.58</ele>
        <time>2025-03-15T13:33:31.357Z</time>
      </trkpt>
      <trkpt lat="43.31792" lon="6.56408">
        <ele>177.21</ele>
        <time>2025-03-15T13:33:34.517Z</time>
      </trkpt>
      <trkpt lat="43.3179" lon="6.56411">
        <ele>177.85</ele>
        <time>2025-03-15T13:33:37.505Z</time>
      </trkpt>
      <trkpt lat="43.31789" lon="6.56411">
        <ele>178.46</ele>
        <time>2025-03-15T13:33:40.206Z</time>
      </trkpt>
      <trkpt lat="43.31787" lon="6.56412">
        <ele>179.07</ele>
        <time>2025-03-15T13:33:43.312Z</time>
      </trkpt>
      <trkpt lat="43.31785" lon="6.56413">
        <ele>179.68</ele>
        <time>2025-03-15T13:33:46.182Z</time>
      </trkpt>
      <trkpt lat="43.31783" lon="6.56413">
        <ele>180.29</ele>
        <time>2025-03-15T13:33:48.983Z</time>
      </trkpt>
      <trkpt lat="43.31781" lon="6.56414">
        <ele>180.89</ele>
        <time>2025-03-15T13:33:51.798Z</time>
      </trkpt>
      <trkpt lat="43.31777" lon="6.56415">
        <ele>181.51</ele>
        <time>2025-03-15T13:33:55.006Z</time>
      </trkpt>
      <trkpt lat="43.31771" lon="6.56419">
        <ele>182.13</ele>
        <time>2025-03-15T13:33:59.371Z</time>
      </trkpt>
      <trkpt lat="43.31769" lon="6.56419">
        <ele>182.7</ele>
        <time>2025-03-15T13:34:02.011Z</time>
      </trkpt>
      <trkpt lat="43.31768" lon="6.5642">
        <ele>183.26</ele>
        <time>2025-03-15T13:34:04.931Z</time>
      </trkpt>
      <trkpt lat="43.31766" lon="6.56421">
        <ele>183.83</ele>
        <time>2025-03-15T13:34:07.679Z</time>
      </trkpt>
      <trkpt lat="43.31764" lon="6.56422">
        <ele>184.38</ele>
        <time>2025-03-15T13:34:10.157Z</time>
      </trkpt>
      <trkpt lat="43.31759" lon="6.56423">
        <ele>184.94</ele>
        <time>2025-03-15T13:34:13.511Z</time>
      </trkpt>
      <trkpt lat="43.31757" lon="6.56424">
        <ele>185.48</ele>
        <time>2025-03-15T13:34:15.935Z</time>
      </trkpt>
      <trkpt lat="43.31755" lon="6.56425">
        <ele>186</ele>
        <time>2025-03-15T13:34:18.273Z</time>
      </trkpt>
      <trkpt lat="43.31754" lon="6.56426">
        <ele>186.52</ele>
        <time>2025-03-15T13:34:20.743Z</time>
      </trkpt>
      <trkpt lat="43.31752" lon="6.56427">
        <ele>187.04</ele>
        <time>2025-03-15T13:34:23.077Z</time>
      </trkpt>
      <trkpt lat="43.31744" lon="6.56428">
        <ele>187.59</ele>
        <time>2025-03-15T13:34:27.366Z</time>
      </trkpt>
      <trkpt lat="43.31743" lon="6.56428">
        <ele>188.09</ele>
        <time>2025-03-15T13:34:29.729Z</time>
      </trkpt>
      <trkpt lat="43.3174" lon="6.56429">
        <ele>188.58</ele>
        <time>2025-03-15T13:34:31.953Z</time>
      </trkpt>
      <trkpt lat="43.31739" lon="6.56429">
        <ele>189.06</ele>
        <time>2025-03-15T13:34:34.130Z</time>
      </trkpt>
      <trkpt lat="43.31737" lon="6.56429">
        <ele>189.53</ele>
        <time>2025-03-15T13:34:36.249Z</time>
      </trkpt>
      <trkpt lat="43.31723" lon="6.5643">
        <ele>190.07</ele>
        <time>2025-03-15T13:34:43.564Z</time>
      </trkpt>
      <trkpt lat="43.31719" lon="6.5643">
        <ele>190.53</ele>
        <time>2025-03-15T13:34:46.145Z</time>
      </trkpt>
      <trkpt lat="43.31718" lon="6.5643">
        <ele>190.97</ele>
        <time>2025-03-15T13:34:48.149Z</time>
      </trkpt>
      <trkpt lat="43.31716" lon="6.56431">
        <ele>191.4</ele>
        <time>2025-03-15T13:34:50.084Z</time>
      </trkpt>
      <trkpt lat="43.31714" lon="6.56431">
        <ele>191.82</ele>
        <time>2025-03-15T13:34:51.975Z</time>
      </trkpt>
      <trkpt lat="43.31712" lon="6.56431">
        <ele>192.23</ele>
        <time>2025-03-15T13:34:53.815Z</time>
      </trkpt>
      <trkpt lat="43.31711" lon="6.56431">
        <ele>192.63</ele>
        <time>2025-03-15T13:34:55.644Z</time>
      </trkpt>
      <trkpt lat="43.31704" lon="6.56432">
        <ele>193.06</ele>
        <time>2025-03-15T13:34:59.595Z</time>
      </trkpt>
      <trkpt lat="43.31702" lon="6.56431">
        <ele>193.44</ele>
        <time>2025-03-15T13:35:01.302Z</time>
      </trkpt>
      <trkpt lat="43.31701" lon="6.56432">
        <ele>193.81</ele>
        <time>2025-03-15T13:35:02.985Z</time>
      </trkpt>
      <trkpt lat="43.31699" lon="6.56431">
        <ele>194.17</ele>
        <time>2025-03-15T13:35:04.604Z</time>
      </trkpt>
      <trkpt lat="43.31698" lon="6.56431">
        <ele>194.52</ele>
        <time>2025-03-15T13:35:06.182Z</time>
      </trkpt>
      <trkpt lat="43.31695" lon="6.56431">
        <ele>194.87</ele>
        <time>2025-03-15T13:35:08.132Z</time>
      </trkpt>
      <trkpt lat="43.31693" lon="6.56431">
        <ele>195.2</ele>
        <time>2025-03-15T13:35:09.618Z</time>
      </trkpt>
      <trkpt lat="43.31692" lon="6.56431">
        <ele>195.52</ele>
        <time>2025-03-15T13:35:11.183Z</time>
      </trkpt>
      <trkpt lat="43.3169" lon="6.56432">
        <ele>195.83</ele>
        <time>2025-03-15T13:35:12.625Z</time>
      </trkpt>
      <trkpt lat="43.31688" lon="6.56432">
        <ele>196.13</ele>
        <time>2025-03-15T13:35:14.005Z</time>
      </trkpt>
      <trkpt lat="43.31685" lon="6.56432">
        <ele>196.43</ele>
        <time>2025-03-15T13:35:15.988Z</time>
      </trkpt>
      <trkpt lat="43.31684" lon="6.56432">
        <ele>196.72</ele>
        <time>2025-03-15T13:35:17.360Z</time>
      </trkpt>
      <trkpt lat="43.31682" lon="6.56432">
        <ele>197</ele>
        <time>2025-03-15T13:35:18.796Z</time>
      </trkpt>
      <trkpt lat="43.3168" lon="6.56431">
        <ele>197.28</ele>
        <time>2025-03-15T13:35:20.192Z</time>
      </trkpt>
      <trkpt lat="43.31679" lon="6.56431">
        <ele>197.55</ele>
        <time>2025-03-15T13:35:21.406Z</time>
      </trkpt>
      <trkpt lat="43.31671" lon="6.56427">
        <ele>197.85</ele>
        <time>2025-03-15T13:35:25.836Z</time>
      </trkpt>
      <trkpt lat="43.31669" lon="6.56426">
        <ele>198.1</ele>
        <time>2025-03-15T13:35:27.153Z</time>
      </trkpt>
      <trkpt lat="43.31667" lon="6.56425">
        <ele>198.36</ele>
        <time>2025-03-15T13:35:28.428Z</time>
      </trkpt>
      <trkpt lat="43.31667" lon="6.56424">
        <ele>198.61</ele>
        <time>2025-03-15T13:35:29.569Z</time>
      </trkpt>
      <trkpt lat="43.31665" lon="6.56423">
        <ele>198.85</ele>
        <time>2025-03-15T13:35:30.910Z</time>
      </trkpt>
      <trkpt lat="43.31662" lon="6.56421">
        <ele>199.09</ele>
        <time>2025-03-15T13:35:32.851Z</time>
      </trkpt>
      <trkpt lat="43.3166" lon="6.5642">
        <ele>199.33</ele>
        <time>2025-03-15T13:35:34.212Z</time>
      </trkpt>
      <trkpt lat="43.31658" lon="6.56418">
        <ele>199.56</ele>
        <time>2025-03-15T13:35:35.524Z</time>
      </trkpt>
      <trkpt lat="43.31657" lon="6.56417">
        <ele>199.78</ele>
        <time>2025-03-15T13:35:36.759Z</time>
      </trkpt>
      <trkpt lat="43.31655" lon="6.56416">
        <ele>199.99</ele>
        <time>2025-03-15T13:35:37.937Z</time>
      </trkpt>
      <trkpt lat="43.31647" lon="6.5641">
        <ele>200.26</ele>
        <time>2025-03-15T13:35:42.682Z</time>
      </trkpt>
      <trkpt lat="43.31645" lon="6.56409">
        <ele>200.47</ele>
        <time>2025-03-15T13:35:43.968Z</time>
      </trkpt>
      <trkpt lat="43.31643" lon="6.56409">
        <ele>200.67</ele>
        <time>2025-03-15T13:35:45.280Z</time>
      </trkpt>
      <trkpt lat="43.31641" lon="6.5641">
        <ele>200.86</ele>
        <time>2025-03-15T13:35:46.643Z</time>
      </trkpt>
      <trkpt lat="43.31637" lon="6.5641">
        <ele>201.05</ele>
        <time>2025-03-15T13:35:48.382Z</time>
      </trkpt>
      <trkpt lat="43.31635" lon="6.5641">
        <ele>201.23</ele>
        <time>2025-03-15T13:35:49.689Z</time>
      </trkpt>
      <trkpt lat="43.31633" lon="6.5641">
        <ele>201.41</ele>
        <time>2025-03-15T13:35:50.861Z</time>
      </trkpt>
      <trkpt lat="43.31623" lon="6.5642">
        <ele>201.57</ele>
        <time>2025-03-15T13:35:56.780Z</time>
      </trkpt>
      <trkpt lat="43.31616" lon="6.56428">
        <ele>201.74</ele>
        <time>2025-03-15T13:36:01.247Z</time>
      </trkpt>
      <trkpt lat="43.3161" lon="6.56433">
        <ele>201.9</ele>
        <time>2025-03-15T13:36:04.649Z</time>
      </trkpt>
      <trkpt lat="43.316" lon="6.56444">
        <ele>202.07</ele>
        <time>2025-03-15T13:36:10.803Z</time>
      </trkpt>
      <trkpt lat="43.31598" lon="6.56447">
        <ele>202.25</ele>
        <time>2025-03-15T13:36:12.333Z</time>
      </trkpt>
      <trkpt lat="43.31587" lon="6.56459">
        <ele>202.43</ele>
        <time>2025-03-15T13:36:19.045Z</time>
      </trkpt>
      <trkpt lat="43.31584" lon="6.56466">
        <ele>202.6</ele>
        <time>2025-03-15T13:36:21.854Z</time>
      </trkpt>
      <trkpt lat="43.31582" lon="6.56469">
        <ele>202.79</ele>
        <time>2025-03-15T13:36:23.482Z</time>
      </trkpt>
      <trkpt lat="43.31579" lon="6.56472">
        <ele>202.99</ele>
        <time>2025-03-15T13:36:25.599Z</time>
      </trkpt>
      <trkpt lat="43.31576" lon="6.56474">
        <ele>203.2</ele>
        <time>2025-03-15T13:36:27.396Z</time>
      </trkpt>
      <trkpt lat="43.31574" lon="6.56477">
        <ele>203.42</ele>
        <time>2025-03-15T13:36:29.088Z</time>
      </trkpt>
      <trkpt lat="43.31561" lon="6.56491">
        <ele>203.68</ele>
        <time>2025-03-15T13:36:37.029Z</time>
      </trkpt>
      <trkpt lat="43.31559" lon="6.56493">
        <ele>203.92</ele>
        <time>2025-03-15T13:36:38.673Z</time>
      </trkpt>
      <trkpt lat="43.31557" lon="6.56494">
        <ele>204.15</ele>
        <time>2025-03-15T13:36:40.269Z</time>
      </trkpt>
      <trkpt lat="43.31554" lon="6.56497">
        <ele>204.4</ele>
        <time>2025-03-15T13:36:42.126Z</time>
      </trkpt>
      <trkpt lat="43.31551" lon="6.56499">
        <ele>204.66</ele>
        <time>2025-03-15T13:36:43.948Z</time>
      </trkpt>
      <trkpt lat="43.31546" lon="6.56502">
        <ele>204.94</ele>
        <time>2025-03-15T13:36:46.970Z</time>
      </trkpt>
      <trkpt lat="43.31544" lon="6.56503">
        <ele>205.23</ele>
        <time>2025-03-15T13:36:48.639Z</time>
      </trkpt>
      <trkpt lat="43.31541" lon="6.56503">
        <ele>205.53</ele>
        <time>2025-03-15T13:36:50.327Z</time>
      </trkpt>
      <trkpt lat="43.31539" lon="6.56503">
        <ele>205.86</ele>
        <time>2025-03-15T13:36:52.123Z</time>
      </trkpt>
      <trkpt lat="43.31536" lon="6.56503">
        <ele>206.19</ele>
        <time>2025-03-15T13:36:53.886Z</time>
      </trkpt>
      <trkpt lat="43.31527" lon="6.56498">
        <ele>206.6</ele>
        <time>2025-03-15T13:36:59.228Z</time>
      </trkpt>
      <trkpt lat="43.31524" lon="6.56498">
        <ele>206.96</ele>
        <time>2025-03-15T13:37:01.001Z</time>
      </trkpt>
      <trkpt lat="43.31522" lon="6.56497">
        <ele>207.33</ele>
        <time>2025-03-15T13:37:02.731Z</time>
      </trkpt>
      <trkpt lat="43.31521" lon="6.56496">
        <ele>207.72</ele>
        <time>2025-03-15T13:37:04.533Z</time>
      </trkpt>
      <trkpt lat="43.31519" lon="6.56494">
        <ele>208.11</ele>
        <time>2025-03-15T13:37:06.353Z</time>
      </trkpt>
      <trkpt lat="43.31517" lon="6.56493">
        <ele>208.51</ele>
        <time>2025-03-15T13:37:08.219Z</time>
      </trkpt>
      <trkpt lat="43.31513" lon="6.56491">
        <ele>208.93</ele>
        <time>2025-03-15T13:37:11.041Z</time>
      </trkpt>
      <trkpt lat="43.31507" lon="6.56487">
        <ele>209.36</ele>
        <time>2025-03-15T13:37:14.593Z</time>
      </trkpt>
      <trkpt lat="43.31504" lon="6.56486">
        <ele>209.79</ele>
        <time>2025-03-15T13:37:16.695Z</time>
      </trkpt>
      <trkpt lat="43.31502" lon="6.56485">
        <ele>210.22</ele>
        <time>2025-03-15T13:37:18.810Z</time>
      </trkpt>
      <trkpt lat="43.31499" lon="6.56483">
        <ele>210.67</ele>
        <time>2025-03-15T13:37:21.032Z</time>
      </trkpt>
      <trkpt lat="43.31486" lon="6.56474">
        <ele>211.17</ele>
        <time>2025-03-15T13:37:28.626Z</time>
      </trkpt>
      <trkpt lat="43.31484" lon="6.56473">
        <ele>211.62</ele>
        <time>2025-03-15T13:37:30.803Z</time>
      </trkpt>
      <trkpt lat="43.31481" lon="6.56471">
        <ele>212.08</ele>
        <time>2025-03-15T13:37:33.038Z</time>
      </trkpt>
      <trkpt lat="43.31478" lon="6.5647">
        <ele>212.53</ele>
        <time>2025-03-15T13:37:35.221Z</time>
      </trkpt>
      <trkpt lat="43.31476" lon="6.5647">
        <ele>212.98</ele>
        <time>2025-03-15T13:37:37.414Z</time>
      </trkpt>
      <trkpt lat="43.3147" lon="6.5647">
        <ele>213.43</ele>
        <time>2025-03-15T13:37:40.720Z</time>
      </trkpt>
      <trkpt lat="43.31454" lon="6.56473">
        <ele>213.9</ele>
        <time>2025-03-15T13:37:48.908Z</time>
      </trkpt>
      <trkpt lat="43.31448" lon="6.56473">
        <ele>214.36</ele>
        <time>2025-03-15T13:37:52.432Z</time>
      </trkpt>
      <trkpt lat="43.31446" lon="6.56473">
        <ele>214.81</ele>
        <time>2025-03-15T13:37:54.492Z</time>
      </trkpt>
      <trkpt lat="43.31443" lon="6.56473">
        <ele>215.26</ele>
        <time>2025-03-15T13:37:56.539Z</time>
      </trkpt>
      <trkpt lat="43.31442" lon="6.56473">
        <ele>215.7</ele>
        <time>2025-03-15T13:37:58.524Z</time>
      </trkpt>
      <trkpt lat="43.31439" lon="6.56473">
        <ele>216.14</ele>
        <time>2025-03-15T13:38:00.545Z</time>
      </trkpt>
      <trkpt lat="43.31436" lon="6.56472">
        <ele>216.59</ele>
        <time>2025-03-15T13:38:03.113Z</time>
      </trkpt>
      <trkpt lat="43.31434" lon="6.56471">
        <ele>217.02</ele>
        <time>2025-03-15T13:38:05.050Z</time>
      </trkpt>
      <trkpt lat="43.31432" lon="6.56471">
        <ele>217.44</ele>
        <time>2025-03-15T13:38:06.936Z</time>
      </trkpt>
      <trkpt lat="43.3143" lon="6.5647">
        <ele>217.86</ele>
        <time>2025-03-15T13:38:08.854Z</time>
      </trkpt>
      <trkpt lat="43.31428" lon="6.5647">
        <ele>218.26</ele>
        <time>2025-03-15T13:38:10.697Z</time>
      </trkpt>
      <trkpt lat="43.31423" lon="6.56467">
        <ele>218.7</ele>
        <time>2025-03-15T13:38:14.220Z</time>
      </trkpt>
      <trkpt lat="43.31421" lon="6.56465">
        <ele>219.09</ele>
        <time>2025-03-15T13:38:16.010Z</time>
      </trkpt>
      <trkpt lat="43.31419" lon="6.56465">
        <ele>219.46</ele>
        <time>2025-03-15T13:38:17.687Z</time>
      </trkpt>
      <trkpt lat="43.31418" lon="6.56464">
        <ele>219.81</ele>
        <time>2025-03-15T13:38:19.298Z</time>
      </trkpt>
      <trkpt lat="43.31416" lon="6.56463">
        <ele>220.16</ele>
        <time>2025-03-15T13:38:20.876Z</time>
      </trkpt>
      <trkpt lat="43.31415" lon="6.56462">
        <ele>220.49</ele>
        <time>2025-03-15T13:38:22.372Z</time>
      </trkpt>
      <trkpt lat="43.31413" lon="6.56462">
        <ele>220.8</ele>
        <time>2025-03-15T13:38:23.917Z</time>
      </trkpt>
      <trkpt lat="43.31404" lon="6.56461">
        <ele>221.14</ele>
        <time>2025-03-15T13:38:28.366Z</time>
      </trkpt>
      <trkpt lat="43.31402" lon="6.56462">
        <ele>221.42</ele>
        <time>2025-03-15T13:38:30.025Z</time>
      </trkpt>
      <trkpt lat="43.31399" lon="6.56462">
        <ele>221.69</ele>
        <time>2025-03-15T13:38:31.859Z</time>
      </trkpt>
      <trkpt lat="43.31396" lon="6.56463">
        <ele>221.94</ele>
        <time>2025-03-15T13:38:33.532Z</time>
      </trkpt>
      <trkpt lat="43.31386" lon="6.56467">
        <ele>222.21</ele>
        <time>2025-03-15T13:38:38.750Z</time>
      </trkpt>
      <trkpt lat="43.31371" lon="6.56474">
        <ele>222.47</ele>
        <time>2025-03-15T13:38:46.421Z</time>
      </trkpt>
      <trkpt lat="43.31367" lon="6.56478">
        <ele>222.67</ele>
        <time>2025-03-15T13:38:48.788Z</time>
      </trkpt>
      <trkpt lat="43.31359" lon="6.56488">
        <ele>222.83</ele>
        <time>2025-03-15T13:38:54.263Z</time>
      </trkpt>
      <trkpt lat="43.3135" lon="6.56502">
        <ele>222.97</ele>
        <time>2025-03-15T13:39:00.583Z</time>
      </trkpt>
      <trkpt lat="43.31347" lon="6.56508">
        <ele>223.14</ele>
        <time>2025-03-15T13:39:03.293Z</time>
      </trkpt>
      <trkpt lat="43.31344" lon="6.56513">
        <ele>223.3</ele>
        <time>2025-03-15T13:39:05.803Z</time>
      </trkpt>
      <trkpt lat="43.31342" lon="6.56519">
        <ele>223.45</ele>
        <time>2025-03-15T13:39:08.242Z</time>
      </trkpt>
      <trkpt lat="43.3134" lon="6.56526">
        <ele>223.59</ele>
        <time>2025-03-15T13:39:10.865Z</time>
      </trkpt>
      <trkpt lat="43.31329" lon="6.56555">
        <ele>223.7</ele>
        <time>2025-03-15T13:39:21.810Z</time>
      </trkpt>
      <trkpt lat="43.31321" lon="6.56574">
        <ele>223.84</ele>
        <time>2025-03-15T13:39:29.321Z</time>
      </trkpt>
      <trkpt lat="43.31314" lon="6.56587">
        <ele>224.03</ele>
        <time>2025-03-15T13:39:34.939Z</time>
      </trkpt>
      <trkpt lat="43.31299" lon="6.56608">
        <ele>224.25</ele>
        <time>2025-03-15T13:39:44.971Z</time>
      </trkpt>
      <trkpt lat="43.31297" lon="6.56612">
        <ele>224.43</ele>
        <time>2025-03-15T13:39:47.035Z</time>
      </trkpt>
      <trkpt lat="43.31294" lon="6.56615">
        <ele>224.63</ele>
        <time>2025-03-15T13:39:48.993Z</time>
      </trkpt>
      <trkpt lat="43.31291" lon="6.56618">
        <ele>224.83</ele>
        <time>2025-03-15T13:39:50.903Z</time>
      </trkpt>
      <trkpt lat="43.31288" lon="6.56621">
        <ele>225.04</ele>
        <time>2025-03-15T13:39:52.880Z</time>
      </trkpt>
      <trkpt lat="43.3128" lon="6.56629">
        <ele>225.28</ele>
        <time>2025-03-15T13:39:57.994Z</time>
      </trkpt>
      <trkpt lat="43.31277" lon="6.56632">
        <ele>225.52</ele>
        <time>2025-03-15T13:40:00.124Z</time>
      </trkpt>
      <trkpt lat="43.31274" lon="6.56635">
        <ele>225.76</ele>
        <time>2025-03-15T13:40:02.160Z</time>
      </trkpt>
      <trkpt lat="43.31271" lon="6.56639">
        <ele>226.02</ele>
        <time>2025-03-15T13:40:04.269Z</time>
      </trkpt>
      <trkpt lat="43.31255" lon="6.56651">
        <ele>226.28</ele>
        <time>2025-03-15T13:40:12.922Z</time>
      </trkpt>
      <trkpt lat="43.31239" lon="6.56662">
        <ele>226.59</ele>
        <time>2025-03-15T13:40:21.900Z</time>
      </trkpt>
      <trkpt lat="43.31234" lon="6.56666">
        <ele>226.86</ele>
        <time>2025-03-15T13:40:24.860Z</time>
      </trkpt>
      <trkpt lat="43.31231" lon="6.56667">
        <ele>227.15</ele>
        <time>2025-03-15T13:40:26.614Z</time>
      </trkpt>
      <trkpt lat="43.31229" lon="6.56669">
        <ele>227.46</ele>
        <time>2025-03-15T13:40:28.483Z</time>
      </trkpt>
      <trkpt lat="43.31226" lon="6.56671">
        <ele>227.78</ele>
        <time>2025-03-15T13:40:30.423Z</time>
      </trkpt>
      <trkpt lat="43.31223" lon="6.56673">
        <ele>228.1</ele>
        <time>2025-03-15T13:40:32.613Z</time>
      </trkpt>
      <trkpt lat="43.31206" lon="6.56687">
        <ele>228.51</ele>
        <time>2025-03-15T13:40:42.269Z</time>
      </trkpt>
      <trkpt lat="43.31203" lon="6.56689">
        <ele>228.86</ele>
        <time>2025-03-15T13:40:44.378Z</time>
      </trkpt>
      <trkpt lat="43.312" lon="6.56691">
        <ele>229.23</ele>
        <time>2025-03-15T13:40:46.442Z</time>
      </trkpt>
      <trkpt lat="43.31197" lon="6.56693">
        <ele>229.61</ele>
        <time>2025-03-15T13:40:48.575Z</time>
      </trkpt>
      <trkpt lat="43.31186" lon="6.56702">
        <ele>230.03</ele>
        <time>2025-03-15T13:40:55.287Z</time>
      </trkpt>
      <trkpt lat="43.31171" lon="6.56713">
        <ele>230.48</ele>
        <time>2025-03-15T13:41:03.552Z</time>
      </trkpt>
      <trkpt lat="43.31162" lon="6.56719">
        <ele>230.89</ele>
        <time>2025-03-15T13:41:08.717Z</time>
      </trkpt>
      <trkpt lat="43.3116" lon="6.5672">
        <ele>231.29</ele>
        <time>2025-03-15T13:41:10.609Z</time>
      </trkpt>
      <trkpt lat="43.31158" lon="6.56721">
        <ele>231.7</ele>
        <time>2025-03-15T13:41:12.522Z</time>
      </trkpt>
      <trkpt lat="43.31157" lon="6.56722">
        <ele>232.12</ele>
        <time>2025-03-15T13:41:14.424Z</time>
      </trkpt>
      <trkpt lat="43.31155" lon="6.56724">
        <ele>232.55</ele>
        <time>2025-03-15T13:41:16.363Z</time>
      </trkpt>
      <trkpt lat="43.31152" lon="6.56727">
        <ele>233</ele>
        <time>2025-03-15T13:41:18.868Z</time>
      </trkpt>
      <trkpt lat="43.31151" lon="6.56728">
        <ele>233.44</ele>
        <time>2025-03-15T13:41:20.843Z</time>
      </trkpt>
      <trkpt lat="43.31149" lon="6.56729">
        <ele>233.89</ele>
        <time>2025-03-15T13:41:22.892Z</time>
      </trkpt>
      <trkpt lat="43.31146" lon="6.5673">
        <ele>234.35</ele>
        <time>2025-03-15T13:41:25.115Z</time>
      </trkpt>
      <trkpt lat="43.31138" lon="6.56731">
        <ele>234.82</ele>
        <time>2025-03-15T13:41:29.517Z</time>
      </trkpt>
      <trkpt lat="43.31127" lon="6.56723">
        <ele>235.27</ele>
        <time>2025-03-15T13:41:35.970Z</time>
      </trkpt>
      <trkpt lat="43.31118" lon="6.56708">
        <ele>235.77</ele>
        <time>2025-03-15T13:41:43.104Z</time>
      </trkpt>
      <trkpt lat="43.31116" lon="6.56706">
        <ele>236.22</ele>
        <time>2025-03-15T13:41:45.285Z</time>
      </trkpt>
      <trkpt lat="43.31115" lon="6.56703">
        <ele>236.67</ele>
        <time>2025-03-15T13:41:47.408Z</time>
      </trkpt>
      <trkpt lat="43.31113" lon="6.567">
        <ele>237.11</ele>
        <time>2025-03-15T13:41:49.561Z</time>
      </trkpt>
      <trkpt lat="43.31111" lon="6.56697">
        <ele>237.55</ele>
        <time>2025-03-15T13:41:51.760Z</time>
      </trkpt>
      <trkpt lat="43.31102" lon="6.56688">
        <ele>238.02</ele>
        <time>2025-03-15T13:41:57.617Z</time>
      </trkpt>
      <trkpt lat="43.31088" lon="6.5668">
        <ele>238.43</ele>
        <time>2025-03-15T13:42:05.124Z</time>
      </trkpt>
      <trkpt lat="43.31085" lon="6.56678">
        <ele>238.84</ele>
        <time>2025-03-15T13:42:07.420Z</time>
      </trkpt>
      <trkpt lat="43.31082" lon="6.56676">
        <ele>239.23</ele>
        <time>2025-03-15T13:42:09.661Z</time>
      </trkpt>
      <trkpt lat="43.31079" lon="6.56674">
        <ele>239.62</ele>
        <time>2025-03-15T13:42:11.926Z</time>
      </trkpt>
      <trkpt lat="43.31076" lon="6.56672">
        <ele>239.99</ele>
        <time>2025-03-15T13:42:14.028Z</time>
      </trkpt>
      <trkpt lat="43.31064" lon="6.5666">
        <ele>240.37</ele>
        <time>2025-03-15T13:42:21.583Z</time>
      </trkpt>
      <trkpt lat="43.31057" lon="6.56651">
        <ele>240.77</ele>
        <time>2025-03-15T13:42:26.466Z</time>
      </trkpt>
      <trkpt lat="43.31055" lon="6.56647">
        <ele>241.11</ele>
        <time>2025-03-15T13:42:28.589Z</time>
      </trkpt>
      <trkpt lat="43.31053" lon="6.56644">
        <ele>241.45</ele>
        <time>2025-03-15T13:42:30.800Z</time>
      </trkpt>
      <trkpt lat="43.3105" lon="6.5664">
        <ele>241.76</ele>
        <time>2025-03-15T13:42:32.972Z</time>
      </trkpt>
      <trkpt lat="43.31048" lon="6.56636">
        <ele>242.05</ele>
        <time>2025-03-15T13:42:35.013Z</time>
      </trkpt>
      <trkpt lat="43.31027" lon="6.56601">
        <ele>242.45</ele>
        <time>2025-03-15T13:42:50.789Z</time>
      </trkpt>
      <trkpt lat="43.31008" lon="6.5658">
        <ele>242.67</ele>
        <time>2025-03-15T13:43:02.227Z</time>
      </trkpt>
      <trkpt lat="43.31005" lon="6.56576">
        <ele>242.87</ele>
        <time>2025-03-15T13:43:04.598Z</time>
      </trkpt>
      <trkpt lat="43.31002" lon="6.56572">
        <ele>243.05</ele>
        <time>2025-03-15T13:43:06.790Z</time>
      </trkpt>
      <trkpt lat="43.30998" lon="6.56569">
        <ele>243.19</ele>
        <time>2025-03-15T13:43:08.949Z</time>
      </trkpt>
      <trkpt lat="43.30994" lon="6.56566">
        <ele>243.3</ele>
        <time>2025-03-15T13:43:11.061Z</time>
      </trkpt>
      <trkpt lat="43.30979" lon="6.56553">
        <ele>243.41</ele>
        <time>2025-03-15T13:43:19.567Z</time>
      </trkpt>
      <trkpt lat="43.30949" lon="6.56528">
        <ele>243.5</ele>
        <time>2025-03-15T13:43:35.889Z</time>
      </trkpt>
      <trkpt lat="43.30933" lon="6.56517">
        <ele>243.49</ele>
        <time>2025-03-15T13:43:43.724Z</time>
      </trkpt>
      <trkpt lat="43.30918" lon="6.56505">
        <ele>243.46</ele>
        <time>2025-03-15T13:43:51.603Z</time>
      </trkpt>
      <trkpt lat="43.30914" lon="6.56501">
        <ele>243.45</ele>
        <time>2025-03-15T13:43:54.226Z</time>
      </trkpt>
      <trkpt lat="43.30905" lon="6.5649">
        <ele>243.4</ele>
        <time>2025-03-15T13:43:59.500Z</time>
      </trkpt>
      <trkpt lat="43.30897" lon="6.56478">
        <ele>243.36</ele>
        <time>2025-03-15T13:44:04.785Z</time>
      </trkpt>
      <trkpt lat="43.30894" lon="6.56471">
        <ele>243.3</ele>
        <time>2025-03-15T13:44:07.468Z</time>
      </trkpt>
      <trkpt lat="43.3089" lon="6.56464">
        <ele>243.21</ele>
        <time>2025-03-15T13:44:10.231Z</time>
      </trkpt>
      <trkpt lat="43.30888" lon="6.56456">
        <ele>243.12</ele>
        <time>2025-03-15T13:44:13.035Z</time>
      </trkpt>
      <trkpt lat="43.30885" lon="6.56447">
        <ele>243.01</ele>
        <time>2025-03-15T13:44:15.885Z</time>
      </trkpt>
      <trkpt lat="43.30883" lon="6.56439">
        <ele>242.89</ele>
        <time>2025-03-15T13:44:18.683Z</time>
      </trkpt>
      <trkpt lat="43.3087" lon="6.56428">
        <ele>242.73</ele>
        <time>2025-03-15T13:44:25.213Z</time>
      </trkpt>
      <trkpt lat="43.30865" lon="6.56429">
        <ele>242.5</ele>
        <time>2025-03-15T13:44:27.332Z</time>
      </trkpt>
      <trkpt lat="43.3086" lon="6.56431">
        <ele>242.21</ele>
        <time>2025-03-15T13:44:29.513Z</time>
      </trkpt>
      <trkpt lat="43.30855" lon="6.56434">
        <ele>241.91</ele>
        <time>2025-03-15T13:44:31.642Z</time>
      </trkpt>
      <trkpt lat="43.30849" lon="6.56436">
        <ele>241.62</ele>
        <time>2025-03-15T13:44:33.941Z</time>
      </trkpt>
      <trkpt lat="43.30844" lon="6.56438">
        <ele>241.33</ele>
        <time>2025-03-15T13:44:36.129Z</time>
      </trkpt>
      <trkpt lat="43.30833" lon="6.5644">
        <ele>241.02</ele>
        <time>2025-03-15T13:44:40.896Z</time>
      </trkpt>
      <trkpt lat="43.30827" lon="6.5644">
        <ele>240.73</ele>
        <time>2025-03-15T13:44:43.074Z</time>
      </trkpt>
      <trkpt lat="43.30788" lon="6.5644">
        <ele>240.43</ele>
        <time>2025-03-15T13:45:00.424Z</time>
      </trkpt>
      <trkpt lat="43.30783" lon="6.56442">
        <ele>240.08</ele>
        <time>2025-03-15T13:45:02.781Z</time>
      </trkpt>
      <trkpt lat="43.30777" lon="6.56443">
        <ele>239.72</ele>
        <time>2025-03-15T13:45:05.194Z</time>
      </trkpt>
      <trkpt lat="43.30771" lon="6.56445">
        <ele>239.36</ele>
        <time>2025-03-15T13:45:07.726Z</time>
      </trkpt>
      <trkpt lat="43.30765" lon="6.56446">
        <ele>239.01</ele>
        <time>2025-03-15T13:45:10.103Z</time>
      </trkpt>
      <trkpt lat="43.30759" lon="6.56446">
        <ele>238.66</ele>
        <time>2025-03-15T13:45:12.459Z</time>
      </trkpt>
      <trkpt lat="43.30753" lon="6.56446">
        <ele>238.31</ele>
        <time>2025-03-15T13:45:14.808Z</time>
      </trkpt>
      <trkpt lat="43.30747" lon="6.56446">
        <ele>237.95</ele>
        <time>2025-03-15T13:45:17.174Z</time>
      </trkpt>
      <trkpt lat="43.30741" lon="6.56446">
        <ele>237.59</ele>
        <time>2025-03-15T13:45:19.460Z</time>
      </trkpt>
      <trkpt lat="43.30735" lon="6.56446">
        <ele>237.23</ele>
        <time>2025-03-15T13:45:21.810Z</time>
      </trkpt>
      <trkpt lat="43.3073" lon="6.56445">
        <ele>236.87</ele>
        <time>2025-03-15T13:45:24.146Z</time>
      </trkpt>
      <trkpt lat="43.30717" lon="6.56442">
        <ele>236.52</ele>
        <time>2025-03-15T13:45:29.355Z</time>
      </trkpt>
      <trkpt lat="43.30693" lon="6.56439">
        <ele>236.22</ele>
        <time>2025-03-15T13:45:40.132Z</time>
      </trkpt>
      <trkpt lat="43.30681" lon="6.5644">
        <ele>235.82</ele>
        <time>2025-03-15T13:45:45.100Z</time>
      </trkpt>
      <trkpt lat="43.30675" lon="6.56441">
        <ele>235.39</ele>
        <time>2025-03-15T13:45:47.495Z</time>
      </trkpt>
      <trkpt lat="43.30669" lon="6.56443">
        <ele>234.93</ele>
        <time>2025-03-15T13:45:49.927Z</time>
      </trkpt>
      <trkpt lat="43.30663" lon="6.56445">
        <ele>234.45</ele>
        <time>2025-03-15T13:45:52.411Z</time>
      </trkpt>
      <trkpt lat="43.30657" lon="6.56447">
        <ele>233.96</ele>
        <time>2025-03-15T13:45:55.024Z</time>
      </trkpt>
      <trkpt lat="43.3065" lon="6.56449">
        <ele>233.47</ele>
        <time>2025-03-15T13:45:57.664Z</time>
      </trkpt>
      <trkpt lat="43.30637" lon="6.56453">
        <ele>232.96</ele>
        <time>2025-03-15T13:46:03.009Z</time>
      </trkpt>
      <trkpt lat="43.30625" lon="6.56453">
        <ele>232.44</ele>
        <time>2025-03-15T13:46:08.152Z</time>
      </trkpt>
      <trkpt lat="43.30618" lon="6.56451">
        <ele>231.9</ele>
        <time>2025-03-15T13:46:10.661Z</time>
      </trkpt>
      <trkpt lat="43.30612" lon="6.56448">
        <ele>231.38</ele>
        <time>2025-03-15T13:46:13.196Z</time>
      </trkpt>
      <trkpt lat="43.30607" lon="6.56445">
        <ele>230.83</ele>
        <time>2025-03-15T13:46:15.723Z</time>
      </trkpt>
      <trkpt lat="43.30601" lon="6.5644">
        <ele>230.22</ele>
        <time>2025-03-15T13:46:18.315Z</time>
      </trkpt>
      <trkpt lat="43.30573" lon="6.56409">
        <ele>229.6</ele>
        <time>2025-03-15T13:46:33.927Z</time>
      </trkpt>
      <trkpt lat="43.30568" lon="6.56406">
        <ele>228.96</ele>
        <time>2025-03-15T13:46:36.187Z</time>
      </trkpt>
      <trkpt lat="43.30557" lon="6.56404">
        <ele>228.27</ele>
        <time>2025-03-15T13:46:40.576Z</time>
      </trkpt>
      <trkpt lat="43.30546" lon="6.56405">
        <ele>227.53</ele>
        <time>2025-03-15T13:46:45.101Z</time>
      </trkpt>
      <trkpt lat="43.3054" lon="6.56407">
        <ele>226.8</ele>
        <time>2025-03-15T13:46:47.472Z</time>
      </trkpt>
      <trkpt lat="43.30534" lon="6.56408">
        <ele>226.06</ele>
        <time>2025-03-15T13:46:49.975Z</time>
      </trkpt>
      <trkpt lat="43.30527" lon="6.56409">
        <ele>225.31</ele>
        <time>2025-03-15T13:46:52.529Z</time>
      </trkpt>
      <trkpt lat="43.30514" lon="6.56411">
        <ele>224.52</ele>
        <time>2025-03-15T13:46:57.866Z</time>
      </trkpt>
      <trkpt lat="43.30507" lon="6.56412">
        <ele>223.74</ele>
        <time>2025-03-15T13:47:00.700Z</time>
      </trkpt>
      <trkpt lat="43.305" lon="6.56413">
        <ele>222.95</ele>
        <time>2025-03-15T13:47:03.403Z</time>
      </trkpt>
      <trkpt lat="43.30493" lon="6.56415">
        <ele>222.15</ele>
        <time>2025-03-15T13:47:06.295Z</time>
      </trkpt>
      <trkpt lat="43.30486" lon="6.56416">
        <ele>221.36</ele>
        <time>2025-03-15T13:47:09.288Z</time>
      </trkpt>
      <trkpt lat="43.30478" lon="6.56416">
        <ele>220.59</ele>
        <time>2025-03-15T13:47:12.352Z</time>
      </trkpt>
      <trkpt lat="43.3047" lon="6.56416">
        <ele>219.82</ele>
        <time>2025-03-15T13:47:15.513Z</time>
      </trkpt>
      <trkpt lat="43.30462" lon="6.56415">
        <ele>219.03</ele>
        <time>2025-03-15T13:47:18.781Z</time>
      </trkpt>
      <trkpt lat="43.30453" lon="6.56414">
        <ele>218.23</ele>
        <time>2025-03-15T13:47:22.332Z</time>
      </trkpt>
      <trkpt lat="43.30444" lon="6.56413">
        <ele>217.45</ele>
        <time>2025-03-15T13:47:25.814Z</time>
      </trkpt>
      <trkpt lat="43.30435" lon="6.56411">
        <ele>216.66</ele>
        <time>2025-03-15T13:47:29.445Z</time>
      </trkpt>
      <trkpt lat="43.30426" lon="6.56409">
        <ele>215.89</ele>
        <time>2025-03-15T13:47:33.265Z</time>
      </trkpt>
      <trkpt lat="43.30416" lon="6.56408">
        <ele>215.13</ele>
        <time>2025-03-15T13:47:37.118Z</time>
      </trkpt>
      <trkpt lat="43.30407" lon="6.56406">
        <ele>214.41</ele>
        <time>2025-03-15T13:47:41.075Z</time>
      </trkpt>
      <trkpt lat="43.30397" lon="6.56404">
        <ele>213.72</ele>
        <time>2025-03-15T13:47:45.121Z</time>
      </trkpt>
      <trkpt lat="43.30387" lon="6.56401">
        <ele>213.07</ele>
        <time>2025-03-15T13:47:49.049Z</time>
      </trkpt>
      <trkpt lat="43.30378" lon="6.56397">
        <ele>212.45</ele>
        <time>2025-03-15T13:47:52.830Z</time>
      </trkpt>
      <trkpt lat="43.3037" lon="6.56395">
        <ele>211.85</ele>
        <time>2025-03-15T13:47:56.121Z</time>
      </trkpt>
      <trkpt lat="43.30362" lon="6.56394">
        <ele>211.26</ele>
        <time>2025-03-15T13:47:59.188Z</time>
      </trkpt>
      <trkpt lat="43.30355" lon="6.56396">
        <ele>210.67</ele>
        <time>2025-03-15T13:48:02.357Z</time>
      </trkpt>
      <trkpt lat="43.30347" lon="6.56399">
        <ele>210.13</ele>
        <time>2025-03-15T13:48:05.619Z</time>
      </trkpt>
      <trkpt lat="43.30339" lon="6.56404">
        <ele>209.6</ele>
        <time>2025-03-15T13:48:09.044Z</time>
      </trkpt>
      <trkpt lat="43.30331" lon="6.5641">
        <ele>209.1</ele>
        <time>2025-03-15T13:48:12.557Z</time>
      </trkpt>
      <trkpt lat="43.30324" lon="6.56417">
        <ele>208.64</ele>
        <time>2025-03-15T13:48:16.218Z</time>
      </trkpt>
      <trkpt lat="43.30317" lon="6.56424">
        <ele>208.22</ele>
        <time>2025-03-15T13:48:19.700Z</time>
      </trkpt>
      <trkpt lat="43.30309" lon="6.5643">
        <ele>207.85</ele>
        <time>2025-03-15T13:48:23.156Z</time>
      </trkpt>
      <trkpt lat="43.30302" lon="6.56435">
        <ele>207.54</ele>
        <time>2025-03-15T13:48:26.452Z</time>
      </trkpt>
      <trkpt lat="43.30295" lon="6.5644">
        <ele>207.25</ele>
        <time>2025-03-15T13:48:29.608Z</time>
      </trkpt>
      <trkpt lat="43.30288" lon="6.56444">
        <ele>207.01</ele>
        <time>2025-03-15T13:48:32.513Z</time>
      </trkpt>
      <trkpt lat="43.30283" lon="6.56446">
        <ele>206.81</ele>
        <time>2025-03-15T13:48:34.973Z</time>
      </trkpt>
      <trkpt lat="43.30278" lon="6.56447">
        <ele>206.64</ele>
        <time>2025-03-15T13:48:37.204Z</time>
      </trkpt>
      <trkpt lat="43.30268" lon="6.56447">
        <ele>206.52</ele>
        <time>2025-03-15T13:48:41.398Z</time>
      </trkpt>
      <trkpt lat="43.30264" lon="6.56446">
        <ele>206.43</ele>
        <time>2025-03-15T13:48:43.228Z</time>
      </trkpt>
      <trkpt lat="43.3026" lon="6.56445">
        <ele>206.36</ele>
        <time>2025-03-15T13:48:45.004Z</time>
      </trkpt>
      <trkpt lat="43.30256" lon="6.56442">
        <ele>206.32</ele>
        <time>2025-03-15T13:48:46.778Z</time>
      </trkpt>
      <trkpt lat="43.30253" lon="6.56439">
        <ele>206.31</ele>
        <time>2025-03-15T13:48:48.587Z</time>
      </trkpt>
      <trkpt lat="43.3025" lon="6.56436">
        <ele>206.31</ele>
        <time>2025-03-15T13:48:50.377Z</time>
      </trkpt>
      <trkpt lat="43.30248" lon="6.56431">
        <ele>206.33</ele>
        <time>2025-03-15T13:48:52.238Z</time>
      </trkpt>
      <trkpt lat="43.30246" lon="6.56426">
        <ele>206.36</ele>
        <time>2025-03-15T13:48:54.082Z</time>
      </trkpt>
      <trkpt lat="43.30246" lon="6.56421">
        <ele>206.39</ele>
        <time>2025-03-15T13:48:55.933Z</time>
      </trkpt>
      <trkpt lat="43.30247" lon="6.56415">
        <ele>206.42</ele>
        <time>2025-03-15T13:48:57.755Z</time>
      </trkpt>
      <trkpt lat="43.30247" lon="6.5641">
        <ele>206.43</ele>
        <time>2025-03-15T13:48:59.448Z</time>
      </trkpt>
      <trkpt lat="43.3025" lon="6.56402">
        <ele>206.45</ele>
        <time>2025-03-15T13:49:02.616Z</time>
      </trkpt>
      <trkpt lat="43.30251" lon="6.56397">
        <ele>206.45</ele>
        <time>2025-03-15T13:49:04.194Z</time>
      </trkpt>
      <trkpt lat="43.30253" lon="6.56393">
        <ele>206.47</ele>
        <time>2025-03-15T13:49:05.900Z</time>
      </trkpt>
      <trkpt lat="43.30254" lon="6.56388">
        <ele>206.47</ele>
        <time>2025-03-15T13:49:07.561Z</time>
      </trkpt>
      <trkpt lat="43.3026" lon="6.56374">
        <ele>206.47</ele>
        <time>2025-03-15T13:49:12.958Z</time>
      </trkpt>
      <trkpt lat="43.30271" lon="6.5634">
        <ele>206.51</ele>
        <time>2025-03-15T13:49:25.461Z</time>
      </trkpt>
      <trkpt lat="43.30277" lon="6.56312">
        <ele>206.38</ele>
        <time>2025-03-15T13:49:34.927Z</time>
      </trkpt>
      <trkpt lat="43.30279" lon="6.56292">
        <ele>206.21</ele>
        <time>2025-03-15T13:49:41.358Z</time>
      </trkpt>
      <trkpt lat="43.30281" lon="6.56282">
        <ele>206.04</ele>
        <time>2025-03-15T13:49:44.636Z</time>
      </trkpt>
      <trkpt lat="43.30284" lon="6.56272">
        <ele>205.84</ele>
        <time>2025-03-15T13:49:47.781Z</time>
      </trkpt>
      <trkpt lat="43.30287" lon="6.56263">
        <ele>205.61</ele>
        <time>2025-03-15T13:49:50.907Z</time>
      </trkpt>
      <trkpt lat="43.30289" lon="6.56254">
        <ele>205.34</ele>
        <time>2025-03-15T13:49:53.783Z</time>
      </trkpt>
      <trkpt lat="43.30299" lon="6.56212">
        <ele>205.11</ele>
        <time>2025-03-15T13:50:08.036Z</time>
      </trkpt>
      <trkpt lat="43.30314" lon="6.56166">
        <ele>204.81</ele>
        <time>2025-03-15T13:50:24.565Z</time>
      </trkpt>
      <trkpt lat="43.30317" lon="6.56157">
        <ele>204.39</ele>
        <time>2025-03-15T13:50:27.198Z</time>
      </trkpt>
      <trkpt lat="43.30327" lon="6.5612">
        <ele>203.84</ele>
        <time>2025-03-15T13:50:39.660Z</time>
      </trkpt>
      <trkpt lat="43.3033" lon="6.5611">
        <ele>203.35</ele>
        <time>2025-03-15T13:50:42.802Z</time>
      </trkpt>
      <trkpt lat="43.30333" lon="6.561">
        <ele>202.82</ele>
        <time>2025-03-15T13:50:46.071Z</time>
      </trkpt>
      <trkpt lat="43.30337" lon="6.5609">
        <ele>202.25</ele>
        <time>2025-03-15T13:50:49.273Z</time>
      </trkpt>
      <trkpt lat="43.30341" lon="6.5608">
        <ele>201.64</ele>
        <time>2025-03-15T13:50:52.443Z</time>
      </trkpt>
      <trkpt lat="43.30345" lon="6.56071">
        <ele>200.99</ele>
        <time>2025-03-15T13:50:55.632Z</time>
      </trkpt>
      <trkpt lat="43.30349" lon="6.56062">
        <ele>200.34</ele>
        <time>2025-03-15T13:50:58.815Z</time>
      </trkpt>
      <trkpt lat="43.30353" lon="6.56052">
        <ele>199.64</ele>
        <time>2025-03-15T13:51:02.080Z</time>
      </trkpt>
      <trkpt lat="43.30356" lon="6.56041">
        <ele>198.87</ele>
        <time>2025-03-15T13:51:05.624Z</time>
      </trkpt>
      <trkpt lat="43.30359" lon="6.56029">
        <ele>198.05</ele>
        <time>2025-03-15T13:51:09.277Z</time>
      </trkpt>
      <trkpt lat="43.30362" lon="6.56016">
        <ele>197.16</ele>
        <time>2025-03-15T13:51:13.056Z</time>
      </trkpt>
      <trkpt lat="43.30365" lon="6.56003">
        <ele>196.24</ele>
        <time>2025-03-15T13:51:17.009Z</time>
      </trkpt>
      <trkpt lat="43.3037" lon="6.55991">
        <ele>195.32</ele>
        <time>2025-03-15T13:51:21.071Z</time>
      </trkpt>
      <trkpt lat="43.30375" lon="6.55979">
        <ele>194.34</ele>
        <time>2025-03-15T13:51:25.274Z</time>
      </trkpt>
      <trkpt lat="43.30382" lon="6.55967">
        <ele>193.36</ele>
        <time>2025-03-15T13:51:29.532Z</time>
      </trkpt>
      <trkpt lat="43.30388" lon="6.55956">
        <ele>192.37</ele>
        <time>2025-03-15T13:51:33.594Z</time>
      </trkpt>
      <trkpt lat="43.30395" lon="6.55945">
        <ele>191.36</ele>
        <time>2025-03-15T13:51:37.834Z</time>
      </trkpt>
      <trkpt lat="43.30401" lon="6.55934">
        <ele>190.35</ele>
        <time>2025-03-15T13:51:41.849Z</time>
      </trkpt>
      <trkpt lat="43.30409" lon="6.55925">
        <ele>189.29</ele>
        <time>2025-03-15T13:51:45.949Z</time>
      </trkpt>
      <trkpt lat="43.30417" lon="6.55916">
        <ele>188.27</ele>
        <time>2025-03-15T13:51:50.052Z</time>
      </trkpt>
      <trkpt lat="43.30426" lon="6.55909">
        <ele>187.3</ele>
        <time>2025-03-15T13:51:54.163Z</time>
      </trkpt>
      <trkpt lat="43.30435" lon="6.55904">
        <ele>186.37</ele>
        <time>2025-03-15T13:51:58.154Z</time>
      </trkpt>
      <trkpt lat="43.30444" lon="6.55899">
        <ele>185.45</ele>
        <time>2025-03-15T13:52:02.047Z</time>
      </trkpt>
      <trkpt lat="43.30454" lon="6.55894">
        <ele>184.57</ele>
        <time>2025-03-15T13:52:06.221Z</time>
      </trkpt>
      <trkpt lat="43.30463" lon="6.5589">
        <ele>183.71</ele>
        <time>2025-03-15T13:52:10.197Z</time>
      </trkpt>
      <trkpt lat="43.30474" lon="6.55886">
        <ele>182.85</ele>
        <time>2025-03-15T13:52:14.379Z</time>
      </trkpt>
      <trkpt lat="43.30484" lon="6.55881">
        <ele>182</ele>
        <time>2025-03-15T13:52:18.758Z</time>
      </trkpt>
      <trkpt lat="43.30495" lon="6.55877">
        <ele>181.17</ele>
        <time>2025-03-15T13:52:23.247Z</time>
      </trkpt>
      <trkpt lat="43.30505" lon="6.55872">
        <ele>180.35</ele>
        <time>2025-03-15T13:52:27.750Z</time>
      </trkpt>
      <trkpt lat="43.30516" lon="6.55868">
        <ele>179.52</ele>
        <time>2025-03-15T13:52:32.224Z</time>
      </trkpt>
      <trkpt lat="43.30526" lon="6.55864">
        <ele>178.75</ele>
        <time>2025-03-15T13:52:36.313Z</time>
      </trkpt>
      <trkpt lat="43.30535" lon="6.55859">
        <ele>178.04</ele>
        <time>2025-03-15T13:52:40.218Z</time>
      </trkpt>
      <trkpt lat="43.30543" lon="6.55854">
        <ele>177.37</ele>
        <time>2025-03-15T13:52:43.839Z</time>
      </trkpt>
      <trkpt lat="43.30552" lon="6.55848">
        <ele>176.71</ele>
        <time>2025-03-15T13:52:47.615Z</time>
      </trkpt>
      <trkpt lat="43.3056" lon="6.55842">
        <ele>176.12</ele>
        <time>2025-03-15T13:52:51.303Z</time>
      </trkpt>
      <trkpt lat="43.30568" lon="6.55835">
        <ele>175.6</ele>
        <time>2025-03-15T13:52:55.028Z</time>
      </trkpt>
      <trkpt lat="43.30575" lon="6.55828">
        <ele>175.16</ele>
        <time>2025-03-15T13:52:58.697Z</time>
      </trkpt>
      <trkpt lat="43.30582" lon="6.5582">
        <ele>174.8</ele>
        <time>2025-03-15T13:53:02.282Z</time>
      </trkpt>
      <trkpt lat="43.30588" lon="6.55811">
        <ele>174.48</ele>
        <time>2025-03-15T13:53:05.949Z</time>
      </trkpt>
      <trkpt lat="43.30591" lon="6.55802">
        <ele>174.19</ele>
        <time>2025-03-15T13:53:08.960Z</time>
      </trkpt>
      <trkpt lat="43.3059" lon="6.55791">
        <ele>173.9</ele>
        <time>2025-03-15T13:53:11.949Z</time>
      </trkpt>
      <trkpt lat="43.3059" lon="6.55782">
        <ele>173.68</ele>
        <time>2025-03-15T13:53:14.675Z</time>
      </trkpt>
      <trkpt lat="43.30597" lon="6.55759">
        <ele>173.53</ele>
        <time>2025-03-15T13:53:22.938Z</time>
      </trkpt>
      <trkpt lat="43.30601" lon="6.55753">
        <ele>173.47</ele>
        <time>2025-03-15T13:53:25.535Z</time>
      </trkpt>
      <trkpt lat="43.30608" lon="6.55741">
        <ele>173.46</ele>
        <time>2025-03-15T13:53:30.339Z</time>
      </trkpt>
      <trkpt lat="43.30611" lon="6.55736">
        <ele>173.49</ele>
        <time>2025-03-15T13:53:32.595Z</time>
      </trkpt>
      <trkpt lat="43.30614" lon="6.55732">
        <ele>173.58</ele>
        <time>2025-03-15T13:53:35.005Z</time>
      </trkpt>
      <trkpt lat="43.30618" lon="6.55727">
        <ele>173.71</ele>
        <time>2025-03-15T13:53:37.463Z</time>
      </trkpt>
      <trkpt lat="43.3063" lon="6.55716">
        <ele>173.95</ele>
        <time>2025-03-15T13:53:44.363Z</time>
      </trkpt>
      <trkpt lat="43.30634" lon="6.55713">
        <ele>174.17</ele>
        <time>2025-03-15T13:53:46.866Z</time>
      </trkpt>
      <trkpt lat="43.30639" lon="6.5571">
        <ele>174.43</ele>
        <time>2025-03-15T13:53:49.509Z</time>
      </trkpt>
      <trkpt lat="43.30643" lon="6.55707">
        <ele>174.73</ele>
        <time>2025-03-15T13:53:52.305Z</time>
      </trkpt>
      <trkpt lat="43.30648" lon="6.55704">
        <ele>175.06</ele>
        <time>2025-03-15T13:53:55.180Z</time>
      </trkpt>
      <trkpt lat="43.30652" lon="6.55701">
        <ele>175.4</ele>
        <time>2025-03-15T13:53:58.001Z</time>
      </trkpt>
      <trkpt lat="43.30656" lon="6.55698">
        <ele>175.78</ele>
        <time>2025-03-15T13:54:00.845Z</time>
      </trkpt>
      <trkpt lat="43.30665" lon="6.5569">
        <ele>176.22</ele>
        <time>2025-03-15T13:54:06.038Z</time>
      </trkpt>
      <trkpt lat="43.3069" lon="6.55658">
        <ele>176.69</ele>
        <time>2025-03-15T13:54:22.476Z</time>
      </trkpt>
      <trkpt lat="43.30709" lon="6.55626">
        <ele>177.1</ele>
        <time>2025-03-15T13:54:36.885Z</time>
      </trkpt>
      <trkpt lat="43.30713" lon="6.55621">
        <ele>177.52</ele>
        <time>2025-03-15T13:54:39.797Z</time>
      </trkpt>
      <trkpt lat="43.30716" lon="6.55616">
        <ele>177.94</ele>
        <time>2025-03-15T13:54:42.757Z</time>
      </trkpt>
      <trkpt lat="43.30719" lon="6.55611">
        <ele>178.38</ele>
        <time>2025-03-15T13:54:45.746Z</time>
      </trkpt>
      <trkpt lat="43.30722" lon="6.55607">
        <ele>178.83</ele>
        <time>2025-03-15T13:54:48.693Z</time>
      </trkpt>
      <trkpt lat="43.30739" lon="6.55583">
        <ele>179.26</ele>
        <time>2025-03-15T13:55:00.347Z</time>
      </trkpt>
      <trkpt lat="43.30742" lon="6.55578">
        <ele>179.69</ele>
        <time>2025-03-15T13:55:03.378Z</time>
      </trkpt>
      <trkpt lat="43.30746" lon="6.55573">
        <ele>180.11</ele>
        <time>2025-03-15T13:55:06.233Z</time>
      </trkpt>
      <trkpt lat="43.3075" lon="6.5557">
        <ele>180.55</ele>
        <time>2025-03-15T13:55:09.105Z</time>
      </trkpt>
      <trkpt lat="43.30753" lon="6.55567">
        <ele>180.98</ele>
        <time>2025-03-15T13:55:11.890Z</time>
      </trkpt>
      <trkpt lat="43.30758" lon="6.55564">
        <ele>181.39</ele>
        <time>2025-03-15T13:55:14.750Z</time>
      </trkpt>
      <trkpt lat="43.30775" lon="6.55551">
        <ele>181.8</ele>
        <time>2025-03-15T13:55:24.110Z</time>
      </trkpt>
      <trkpt lat="43.30783" lon="6.55546">
        <ele>182.18</ele>
        <time>2025-03-15T13:55:28.887Z</time>
      </trkpt>
      <trkpt lat="43.30787" lon="6.55544">
        <ele>182.55</ele>
        <time>2025-03-15T13:55:31.559Z</time>
      </trkpt>
      <trkpt lat="43.30791" lon="6.55542">
        <ele>182.91</ele>
        <time>2025-03-15T13:55:34.218Z</time>
      </trkpt>
      <trkpt lat="43.30796" lon="6.5554">
        <ele>183.24</ele>
        <time>2025-03-15T13:55:37.002Z</time>
      </trkpt>
      <trkpt lat="43.30801" lon="6.55538">
        <ele>183.56</ele>
        <time>2025-03-15T13:55:39.705Z</time>
      </trkpt>
      <trkpt lat="43.30813" lon="6.5553">
        <ele>183.87</ele>
        <time>2025-03-15T13:55:46.575Z</time>
      </trkpt>
      <trkpt lat="43.30844" lon="6.55503">
        <ele>184.14</ele>
        <time>2025-03-15T13:56:03.459Z</time>
      </trkpt>
      <trkpt lat="43.30864" lon="6.55485">
        <ele>184.44</ele>
        <time>2025-03-15T13:56:14.725Z</time>
      </trkpt>
      <trkpt lat="43.30868" lon="6.55483">
        <ele>184.68</ele>
        <time>2025-03-15T13:56:17.059Z</time>
      </trkpt>
      <trkpt lat="43.30871" lon="6.55481">
        <ele>184.89</ele>
        <time>2025-03-15T13:56:19.247Z</time>
      </trkpt>
      <trkpt lat="43.30875" lon="6.55479">
        <ele>185.09</ele>
        <time>2025-03-15T13:56:21.566Z</time>
      </trkpt>
      <trkpt lat="43.30889" lon="6.55473">
        <ele>185.29</ele>
        <time>2025-03-15T13:56:28.104Z</time>
      </trkpt>
      <trkpt lat="43.30914" lon="6.55458">
        <ele>185.47</ele>
        <time>2025-03-15T13:56:40.947Z</time>
      </trkpt>
      <trkpt lat="43.30932" lon="6.55441">
        <ele>185.58</ele>
        <time>2025-03-15T13:56:51.266Z</time>
      </trkpt>
      <trkpt lat="43.3094" lon="6.5543">
        <ele>185.65</ele>
        <time>2025-03-15T13:56:56.575Z</time>
      </trkpt>
      <trkpt lat="43.3095" lon="6.55411">
        <ele>185.66</ele>
        <time>2025-03-15T13:57:04.315Z</time>
      </trkpt>
      <trkpt lat="43.30954" lon="6.55396">
        <ele>185.64</ele>
        <time>2025-03-15T13:57:09.744Z</time>
      </trkpt>
      <trkpt lat="43.3096" lon="6.5538">
        <ele>185.61</ele>
        <time>2025-03-15T13:57:15.635Z</time>
      </trkpt>
      <trkpt lat="43.30963" lon="6.55372">
        <ele>185.59</ele>
        <time>2025-03-15T13:57:18.655Z</time>
      </trkpt>
      <trkpt lat="43.30967" lon="6.55363">
        <ele>185.55</ele>
        <time>2025-03-15T13:57:21.817Z</time>
      </trkpt>
      <trkpt lat="43.30971" lon="6.55355">
        <ele>185.52</ele>
        <time>2025-03-15T13:57:25.053Z</time>
      </trkpt>
      <trkpt lat="43.30974" lon="6.55347">
        <ele>185.47</ele>
        <time>2025-03-15T13:57:28.162Z</time>
      </trkpt>
      <trkpt lat="43.30975" lon="6.55338">
        <ele>185.41</ele>
        <time>2025-03-15T13:57:31.111Z</time>
      </trkpt>
      <trkpt lat="43.30976" lon="6.55321">
        <ele>185.37</ele>
        <time>2025-03-15T13:57:36.751Z</time>
      </trkpt>
      <trkpt lat="43.30977" lon="6.55311">
        <ele>185.3</ele>
        <time>2025-03-15T13:57:39.846Z</time>
      </trkpt>
      <trkpt lat="43.30979" lon="6.55303">
        <ele>185.24</ele>
        <time>2025-03-15T13:57:42.589Z</time>
      </trkpt>
      <trkpt lat="43.30981" lon="6.55295">
        <ele>185.18</ele>
        <time>2025-03-15T13:57:45.513Z</time>
      </trkpt>
      <trkpt lat="43.30985" lon="6.55287">
        <ele>185.11</ele>
        <time>2025-03-15T13:57:48.489Z</time>
      </trkpt>
      <trkpt lat="43.30991" lon="6.55272">
        <ele>185.06</ele>
        <time>2025-03-15T13:57:54.066Z</time>
      </trkpt>
      <trkpt lat="43.30994" lon="6.55265">
        <ele>185</ele>
        <time>2025-03-15T13:57:56.557Z</time>
      </trkpt>
      <trkpt lat="43.30998" lon="6.55236">
        <ele>184.98</ele>
        <time>2025-03-15T13:58:06.332Z</time>
      </trkpt>
      <trkpt lat="43.31" lon="6.55231">
        <ele>184.92</ele>
        <time>2025-03-15T13:58:08.370Z</time>
      </trkpt>
      <trkpt lat="43.31007" lon="6.55207">
        <ele>184.87</ele>
        <time>2025-03-15T13:58:16.745Z</time>
      </trkpt>
      <trkpt lat="43.31009" lon="6.55201">
        <ele>184.8</ele>
        <time>2025-03-15T13:58:18.718Z</time>
      </trkpt>
      <trkpt lat="43.31011" lon="6.55196">
        <ele>184.73</ele>
        <time>2025-03-15T13:58:20.648Z</time>
      </trkpt>
      <trkpt lat="43.31012" lon="6.5519">
        <ele>184.65</ele>
        <time>2025-03-15T13:58:22.633Z</time>
      </trkpt>
      <trkpt lat="43.31017" lon="6.55173">
        <ele>184.55</ele>
        <time>2025-03-15T13:58:28.398Z</time>
      </trkpt>
      <trkpt lat="43.31019" lon="6.55168">
        <ele>184.48</ele>
        <time>2025-03-15T13:58:30.350Z</time>
      </trkpt>
      <trkpt lat="43.31025" lon="6.55152">
        <ele>184.42</ele>
        <time>2025-03-15T13:58:36.113Z</time>
      </trkpt>
      <trkpt lat="43.31026" lon="6.55147">
        <ele>184.38</ele>
        <time>2025-03-15T13:58:37.771Z</time>
      </trkpt>
      <trkpt lat="43.31028" lon="6.55143">
        <ele>184.33</ele>
        <time>2025-03-15T13:58:39.293Z</time>
      </trkpt>
      <trkpt lat="43.31029" lon="6.55138">
        <ele>184.3</ele>
        <time>2025-03-15T13:58:40.880Z</time>
      </trkpt>
      <trkpt lat="43.31031" lon="6.55134">
        <ele>184.28</ele>
        <time>2025-03-15T13:58:42.394Z</time>
      </trkpt>
      <trkpt lat="43.31032" lon="6.5513">
        <ele>184.28</ele>
        <time>2025-03-15T13:58:44.003Z</time>
      </trkpt>
      <trkpt lat="43.31034" lon="6.55126">
        <ele>184.28</ele>
        <time>2025-03-15T13:58:45.703Z</time>
      </trkpt>
      <trkpt lat="43.31036" lon="6.55121">
        <ele>184.3</ele>
        <time>2025-03-15T13:58:47.465Z</time>
      </trkpt>
      <trkpt lat="43.31038" lon="6.55116">
        <ele>184.33</ele>
        <time>2025-03-15T13:58:49.282Z</time>
      </trkpt>
      <trkpt lat="43.3104" lon="6.55112">
        <ele>184.38</ele>
        <time>2025-03-15T13:58:51.230Z</time>
      </trkpt>
      <trkpt lat="43.31043" lon="6.55107">
        <ele>184.43</ele>
        <time>2025-03-15T13:58:53.294Z</time>
      </trkpt>
      <trkpt lat="43.31055" lon="6.5509">
        <ele>184.53</ele>
        <time>2025-03-15T13:59:01.501Z</time>
      </trkpt>
      <trkpt lat="43.31062" lon="6.55082">
        <ele>184.6</ele>
        <time>2025-03-15T13:59:05.590Z</time>
      </trkpt>
      <trkpt lat="43.31071" lon="6.55068">
        <ele>184.68</ele>
        <time>2025-03-15T13:59:12.141Z</time>
      </trkpt>
      <trkpt lat="43.31077" lon="6.55059">
        <ele>184.78</ele>
        <time>2025-03-15T13:59:16.332Z</time>
      </trkpt>
      <trkpt lat="43.31088" lon="6.5504">
        <ele>184.94</ele>
        <time>2025-03-15T13:59:24.537Z</time>
      </trkpt>
      <trkpt lat="43.3109" lon="6.55034">
        <ele>185.09</ele>
        <time>2025-03-15T13:59:26.845Z</time>
      </trkpt>
      <trkpt lat="43.31101" lon="6.55015">
        <ele>185.27</ele>
        <time>2025-03-15T13:59:35.095Z</time>
      </trkpt>
      <trkpt lat="43.31111" lon="6.55004">
        <ele>185.45</ele>
        <time>2025-03-15T13:59:41.373Z</time>
      </trkpt>
      <trkpt lat="43.31118" lon="6.54996">
        <ele>185.65</ele>
        <time>2025-03-15T13:59:45.927Z</time>
      </trkpt>
      <trkpt lat="43.31131" lon="6.54977">
        <ele>185.89</ele>
        <time>2025-03-15T13:59:55.108Z</time>
      </trkpt>
      <trkpt lat="43.31135" lon="6.54972">
        <ele>186.11</ele>
        <time>2025-03-15T13:59:57.476Z</time>
      </trkpt>
      <trkpt lat="43.31138" lon="6.54968">
        <ele>186.34</ele>
        <time>2025-03-15T13:59:59.921Z</time>
      </trkpt>
      <trkpt lat="43.31141" lon="6.54964">
        <ele>186.59</ele>
        <time>2025-03-15T14:00:02.533Z</time>
      </trkpt>
      <trkpt lat="43.31161" lon="6.54941">
        <ele>186.86</ele>
        <time>2025-03-15T14:00:14.395Z</time>
      </trkpt>
      <trkpt lat="43.31165" lon="6.54938">
        <ele>187.13</ele>
        <time>2025-03-15T14:00:17.041Z</time>
      </trkpt>
      <trkpt lat="43.31176" lon="6.54925">
        <ele>187.4</ele>
        <time>2025-03-15T14:00:23.960Z</time>
      </trkpt>
      <trkpt lat="43.31179" lon="6.5492">
        <ele>187.69</ele>
        <time>2025-03-15T14:00:26.761Z</time>
      </trkpt>
      <trkpt lat="43.31182" lon="6.54915">
        <ele>187.99</ele>
        <time>2025-03-15T14:00:29.433Z</time>
      </trkpt>
      <trkpt lat="43.31184" lon="6.54909">
        <ele>188.31</ele>
        <time>2025-03-15T14:00:32.179Z</time>
      </trkpt>
      <trkpt lat="43.31187" lon="6.54903">
        <ele>188.64</ele>
        <time>2025-03-15T14:00:34.990Z</time>
      </trkpt>
      <trkpt lat="43.31189" lon="6.5489">
        <ele>188.99</ele>
        <time>2025-03-15T14:00:40.018Z</time>
      </trkpt>
      <trkpt lat="43.31191" lon="6.54867">
        <ele>189.34</ele>
        <time>2025-03-15T14:00:48.125Z</time>
      </trkpt>
      <trkpt lat="43.31194" lon="6.54847">
        <ele>189.68</ele>
        <time>2025-03-15T14:00:55.562Z</time>
      </trkpt>
      <trkpt lat="43.31196" lon="6.54833">
        <ele>190.04</ele>
        <time>2025-03-15T14:01:00.792Z</time>
      </trkpt>
      <trkpt lat="43.31199" lon="6.5481">
        <ele>190.43</ele>
        <time>2025-03-15T14:01:09.224Z</time>
      </trkpt>
      <trkpt lat="43.31203" lon="6.54787">
        <ele>190.82</ele>
        <time>2025-03-15T14:01:17.346Z</time>
      </trkpt>
      <trkpt lat="43.31215" lon="6.54745">
        <ele>191.28</ele>
        <time>2025-03-15T14:01:33.044Z</time>
      </trkpt>
      <trkpt lat="43.3122" lon="6.54733">
        <ele>191.68</ele>
        <time>2025-03-15T14:01:38.417Z</time>
      </trkpt>
      <trkpt lat="43.31232" lon="6.54711">
        <ele>192.12</ele>
        <time>2025-03-15T14:01:47.976Z</time>
      </trkpt>
      <trkpt lat="43.31235" lon="6.54707">
        <ele>192.49</ele>
        <time>2025-03-15T14:01:50.766Z</time>
      </trkpt>
      <trkpt lat="43.31244" lon="6.547">
        <ele>192.85</ele>
        <time>2025-03-15T14:01:55.816Z</time>
      </trkpt>
      <trkpt lat="43.31248" lon="6.54698">
        <ele>193.2</ele>
        <time>2025-03-15T14:01:58.611Z</time>
      </trkpt>
      <trkpt lat="43.31253" lon="6.54697">
        <ele>193.53</ele>
        <time>2025-03-15T14:02:01.387Z</time>
      </trkpt>
      <trkpt lat="43.31258" lon="6.54696">
        <ele>193.86</ele>
        <time>2025-03-15T14:02:04.091Z</time>
      </trkpt>
      <trkpt lat="43.31263" lon="6.54695">
        <ele>194.18</ele>
        <time>2025-03-15T14:02:06.866Z</time>
      </trkpt>
      <trkpt lat="43.31267" lon="6.54694">
        <ele>194.49</ele>
        <time>2025-03-15T14:02:09.446Z</time>
      </trkpt>
      <trkpt lat="43.31276" lon="6.54691">
        <ele>194.79</ele>
        <time>2025-03-15T14:02:14.065Z</time>
      </trkpt>
      <trkpt lat="43.3128" lon="6.54689">
        <ele>195.09</ele>
        <time>2025-03-15T14:02:16.581Z</time>
      </trkpt>
      <trkpt lat="43.31284" lon="6.54686">
        <ele>195.39</ele>
        <time>2025-03-15T14:02:19.092Z</time>
      </trkpt>
      <trkpt lat="43.31288" lon="6.54683">
        <ele>195.68</ele>
        <time>2025-03-15T14:02:21.539Z</time>
      </trkpt>
      <trkpt lat="43.31291" lon="6.54678">
        <ele>195.95</ele>
        <time>2025-03-15T14:02:24.238Z</time>
      </trkpt>
      <trkpt lat="43.31299" lon="6.54661">
        <ele>196.19</ele>
        <time>2025-03-15T14:02:31.259Z</time>
      </trkpt>
      <trkpt lat="43.31301" lon="6.54654">
        <ele>196.47</ele>
        <time>2025-03-15T14:02:34.152Z</time>
      </trkpt>
      <trkpt lat="43.31311" lon="6.54612">
        <ele>196.76</ele>
        <time>2025-03-15T14:02:49.351Z</time>
      </trkpt>
      <trkpt lat="43.31321" lon="6.54572">
        <ele>197.03</ele>
        <time>2025-03-15T14:03:03.860Z</time>
      </trkpt>
      <trkpt lat="43.31331" lon="6.54533">
        <ele>197.29</ele>
        <time>2025-03-15T14:03:17.874Z</time>
      </trkpt>
      <trkpt lat="43.31332" lon="6.54527">
        <ele>197.56</ele>
        <time>2025-03-15T14:03:20.361Z</time>
      </trkpt>
      <trkpt lat="43.31334" lon="6.54514">
        <ele>197.83</ele>
        <time>2025-03-15T14:03:25.099Z</time>
      </trkpt>
      <trkpt lat="43.31334" lon="6.54499">
        <ele>198.11</ele>
        <time>2025-03-15T14:03:30.637Z</time>
      </trkpt>
      <trkpt lat="43.31333" lon="6.54492">
        <ele>198.38</ele>
        <time>2025-03-15T14:03:33.213Z</time>
      </trkpt>
      <trkpt lat="43.31332" lon="6.54485">
        <ele>198.65</ele>
        <time>2025-03-15T14:03:36.006Z</time>
      </trkpt>
      <trkpt lat="43.31331" lon="6.54479">
        <ele>198.91</ele>
        <time>2025-03-15T14:03:38.594Z</time>
      </trkpt>
      <trkpt lat="43.3133" lon="6.54473">
        <ele>199.17</ele>
        <time>2025-03-15T14:03:41.133Z</time>
      </trkpt>
      <trkpt lat="43.31329" lon="6.54466">
        <ele>199.43</ele>
        <time>2025-03-15T14:03:43.659Z</time>
      </trkpt>
      <trkpt lat="43.31327" lon="6.54454">
        <ele>199.71</ele>
        <time>2025-03-15T14:03:48.350Z</time>
      </trkpt>
      <trkpt lat="43.31325" lon="6.54443">
        <ele>199.97</ele>
        <time>2025-03-15T14:03:52.485Z</time>
      </trkpt>
      <trkpt lat="43.31324" lon="6.54433">
        <ele>200.23</ele>
        <time>2025-03-15T14:03:56.406Z</time>
      </trkpt>
      <trkpt lat="43.31324" lon="6.54428">
        <ele>200.44</ele>
        <time>2025-03-15T14:03:58.414Z</time>
      </trkpt>
      <trkpt lat="43.31324" lon="6.54423">
        <ele>200.64</ele>
        <time>2025-03-15T14:04:00.393Z</time>
      </trkpt>
      <trkpt lat="43.31324" lon="6.54418">
        <ele>200.81</ele>
        <time>2025-03-15T14:04:02.313Z</time>
      </trkpt>
      <trkpt lat="43.31324" lon="6.54413">
        <ele>200.97</ele>
        <time>2025-03-15T14:04:04.147Z</time>
      </trkpt>
      <trkpt lat="43.31326" lon="6.54403">
        <ele>201.11</ele>
        <time>2025-03-15T14:04:07.570Z</time>
      </trkpt>
      <trkpt lat="43.31327" lon="6.54399">
        <ele>201.23</ele>
        <time>2025-03-15T14:04:09.322Z</time>
      </trkpt>
      <trkpt lat="43.31328" lon="6.54395">
        <ele>201.33</ele>
        <time>2025-03-15T14:04:10.951Z</time>
      </trkpt>
      <trkpt lat="43.31329" lon="6.5439">
        <ele>201.42</ele>
        <time>2025-03-15T14:04:12.639Z</time>
      </trkpt>
      <trkpt lat="43.31329" lon="6.54386">
        <ele>201.49</ele>
        <time>2025-03-15T14:04:14.275Z</time>
      </trkpt>
      <trkpt lat="43.31337" lon="6.54368">
        <ele>201.56</ele>
        <time>2025-03-15T14:04:21.340Z</time>
      </trkpt>
      <trkpt lat="43.3134" lon="6.54363">
        <ele>201.58</ele>
        <time>2025-03-15T14:04:23.304Z</time>
      </trkpt>
      <trkpt lat="43.31343" lon="6.54359">
        <ele>201.59</ele>
        <time>2025-03-15T14:04:25.197Z</time>
      </trkpt>
      <trkpt lat="43.31346" lon="6.54356">
        <ele>201.59</ele>
        <time>2025-03-15T14:04:26.855Z</time>
      </trkpt>
      <trkpt lat="43.31348" lon="6.54352">
        <ele>201.57</ele>
        <time>2025-03-15T14:04:28.673Z</time>
      </trkpt>
      <trkpt lat="43.31352" lon="6.54341">
        <ele>201.51</ele>
        <time>2025-03-15T14:04:32.569Z</time>
      </trkpt>
      <trkpt lat="43.31354" lon="6.54335">
        <ele>201.45</ele>
        <time>2025-03-15T14:04:34.494Z</time>
      </trkpt>
      <trkpt lat="43.31356" lon="6.54313">
        <ele>201.39</ele>
        <time>2025-03-15T14:04:41.938Z</time>
      </trkpt>
      <trkpt lat="43.3135" lon="6.54291">
        <ele>201.32</ele>
        <time>2025-03-15T14:04:49.588Z</time>
      </trkpt>
      <trkpt lat="43.31347" lon="6.54286">
        <ele>201.25</ele>
        <time>2025-03-15T14:04:51.643Z</time>
      </trkpt>
      <trkpt lat="43.31329" lon="6.5426">
        <ele>201.2</ele>
        <time>2025-03-15T14:05:03.498Z</time>
      </trkpt>
      <trkpt lat="43.31325" lon="6.54256">
        <ele>201.11</ele>
        <time>2025-03-15T14:05:05.556Z</time>
      </trkpt>
      <trkpt lat="43.31318" lon="6.54246">
        <ele>201.01</ele>
        <time>2025-03-15T14:05:09.871Z</time>
      </trkpt>
      <trkpt lat="43.31306" lon="6.5423">
        <ele>200.89</ele>
        <time>2025-03-15T14:05:17.683Z</time>
      </trkpt>
      <trkpt lat="43.31297" lon="6.5422">
        <ele>200.82</ele>
        <time>2025-03-15T14:05:22.964Z</time>
      </trkpt>
      <trkpt lat="43.31285" lon="6.54207">
        <ele>200.81</ele>
        <time>2025-03-15T14:05:29.648Z</time>
      </trkpt>
      <trkpt lat="43.31287" lon="6.54193">
        <ele>200.68</ele>
        <time>2025-03-15T14:05:34.210Z</time>
      </trkpt>
      <trkpt lat="43.31293" lon="6.5418">
        <ele>200.52</ele>
        <time>2025-03-15T14:05:39.139Z</time>
      </trkpt>
      <trkpt lat="43.31304" lon="6.54152">
        <ele>200.28</ele>
        <time>2025-03-15T14:05:49.410Z</time>
      </trkpt>
      <trkpt lat="43.31312" lon="6.54121">
        <ele>200.09</ele>
        <time>2025-03-15T14:05:59.992Z</time>
      </trkpt>
      <trkpt lat="43.31314" lon="6.54105">
        <ele>199.98</ele>
        <time>2025-03-15T14:06:05.299Z</time>
      </trkpt>
      <trkpt lat="43.31314" lon="6.54075">
        <ele>199.9</ele>
        <time>2025-03-15T14:06:15.219Z</time>
      </trkpt>
      <trkpt lat="43.31312" lon="6.54067">
        <ele>199.83</ele>
        <time>2025-03-15T14:06:17.859Z</time>
      </trkpt>
      <trkpt lat="43.31297" lon="6.54043">
        <ele>199.91</ele>
        <time>2025-03-15T14:06:28.453Z</time>
      </trkpt>
      <trkpt lat="43.31287" lon="6.54016">
        <ele>199.93</ele>
        <time>2025-03-15T14:06:38.434Z</time>
      </trkpt>
      <trkpt lat="43.31289" lon="6.54">
        <ele>199.82</ele>
        <time>2025-03-15T14:06:43.811Z</time>
      </trkpt>
      <trkpt lat="43.31291" lon="6.53992">
        <ele>199.76</ele>
        <time>2025-03-15T14:06:46.436Z</time>
      </trkpt>
      <trkpt lat="43.31292" lon="6.53984">
        <ele>199.73</ele>
        <time>2025-03-15T14:06:49.029Z</time>
      </trkpt>
      <trkpt lat="43.31301" lon="6.5394">
        <ele>199.64</ele>
        <time>2025-03-15T14:07:04.060Z</time>
      </trkpt>
      <trkpt lat="43.31302" lon="6.53926">
        <ele>199.62</ele>
        <time>2025-03-15T14:07:08.946Z</time>
      </trkpt>
      <trkpt lat="43.31302" lon="6.5391">
        <ele>199.65</ele>
        <time>2025-03-15T14:07:14.021Z</time>
      </trkpt>
      <trkpt lat="43.31301" lon="6.53903">
        <ele>199.71</ele>
        <time>2025-03-15T14:07:16.720Z</time>
      </trkpt>
      <trkpt lat="43.31296" lon="6.53882">
        <ele>199.85</ele>
        <time>2025-03-15T14:07:24.330Z</time>
      </trkpt>
      <trkpt lat="43.31292" lon="6.53869">
        <ele>200</ele>
        <time>2025-03-15T14:07:28.969Z</time>
      </trkpt>
      <trkpt lat="43.31291" lon="6.53863">
        <ele>200.12</ele>
        <time>2025-03-15T14:07:31.448Z</time>
      </trkpt>
      <trkpt lat="43.31291" lon="6.53841">
        <ele>200.26</ele>
        <time>2025-03-15T14:07:38.909Z</time>
      </trkpt>
      <trkpt lat="43.31295" lon="6.53824">
        <ele>200.36</ele>
        <time>2025-03-15T14:07:45.063Z</time>
      </trkpt>
      <trkpt lat="43.31297" lon="6.53818">
        <ele>200.48</ele>
        <time>2025-03-15T14:07:47.528Z</time>
      </trkpt>
      <trkpt lat="43.31299" lon="6.53811">
        <ele>200.63</ele>
        <time>2025-03-15T14:07:49.933Z</time>
      </trkpt>
      <trkpt lat="43.31301" lon="6.53805">
        <ele>200.79</ele>
        <time>2025-03-15T14:07:52.475Z</time>
      </trkpt>
      <trkpt lat="43.31302" lon="6.53799">
        <ele>200.99</ele>
        <time>2025-03-15T14:07:54.969Z</time>
      </trkpt>
      <trkpt lat="43.31303" lon="6.53786">
        <ele>201.22</ele>
        <time>2025-03-15T14:07:59.588Z</time>
      </trkpt>
      <trkpt lat="43.31303" lon="6.53779">
        <ele>201.46</ele>
        <time>2025-03-15T14:08:02.084Z</time>
      </trkpt>
      <trkpt lat="43.31301" lon="6.5375">
        <ele>201.74</ele>
        <time>2025-03-15T14:08:12.173Z</time>
      </trkpt>
      <trkpt lat="43.31303" lon="6.53718">
        <ele>202.05</ele>
        <time>2025-03-15T14:08:23.283Z</time>
      </trkpt>
      <trkpt lat="43.31305" lon="6.53707">
        <ele>202.3</ele>
        <time>2025-03-15T14:08:27.389Z</time>
      </trkpt>
      <trkpt lat="43.31306" lon="6.53703">
        <ele>202.6</ele>
        <time>2025-03-15T14:08:29.563Z</time>
      </trkpt>
      <trkpt lat="43.31307" lon="6.53697">
        <ele>202.91</ele>
        <time>2025-03-15T14:08:31.999Z</time>
      </trkpt>
      <trkpt lat="43.31308" lon="6.53691">
        <ele>203.25</ele>
        <time>2025-03-15T14:08:34.591Z</time>
      </trkpt>
      <trkpt lat="43.3131" lon="6.53685">
        <ele>203.6</ele>
        <time>2025-03-15T14:08:37.230Z</time>
      </trkpt>
      <trkpt lat="43.31315" lon="6.53645">
        <ele>204.02</ele>
        <time>2025-03-15T14:08:51.318Z</time>
      </trkpt>
      <trkpt lat="43.31316" lon="6.53639">
        <ele>204.42</ele>
        <time>2025-03-15T14:08:54.100Z</time>
      </trkpt>
      <trkpt lat="43.31317" lon="6.53633">
        <ele>204.85</ele>
        <time>2025-03-15T14:08:56.841Z</time>
      </trkpt>
      <trkpt lat="43.31318" lon="6.53628">
        <ele>205.29</ele>
        <time>2025-03-15T14:08:59.561Z</time>
      </trkpt>
      <trkpt lat="43.31319" lon="6.53623">
        <ele>205.74</ele>
        <time>2025-03-15T14:09:02.188Z</time>
      </trkpt>
      <trkpt lat="43.3132" lon="6.53618">
        <ele>206.21</ele>
        <time>2025-03-15T14:09:04.789Z</time>
      </trkpt>
      <trkpt lat="43.31329" lon="6.53591">
        <ele>206.67</ele>
        <time>2025-03-15T14:09:15.207Z</time>
      </trkpt>
      <trkpt lat="43.3133" lon="6.53587">
        <ele>207.15</ele>
        <time>2025-03-15T14:09:17.674Z</time>
      </trkpt>
      <trkpt lat="43.31331" lon="6.53583">
        <ele>207.65</ele>
        <time>2025-03-15T14:09:20.147Z</time>
      </trkpt>
      <trkpt lat="43.31333" lon="6.53579">
        <ele>208.15</ele>
        <time>2025-03-15T14:09:22.709Z</time>
      </trkpt>
      <trkpt lat="43.31335" lon="6.53574">
        <ele>208.66</ele>
        <time>2025-03-15T14:09:25.386Z</time>
      </trkpt>
      <trkpt lat="43.31337" lon="6.53569">
        <ele>209.18</ele>
        <time>2025-03-15T14:09:28.345Z</time>
      </trkpt>
      <trkpt lat="43.31339" lon="6.53563">
        <ele>209.71</ele>
        <time>2025-03-15T14:09:31.483Z</time>
      </trkpt>
      <trkpt lat="43.31346" lon="6.53536">
        <ele>210.2</ele>
        <time>2025-03-15T14:09:41.677Z</time>
      </trkpt>
      <trkpt lat="43.31343" lon="6.53514">
        <ele>210.84</ele>
        <time>2025-03-15T14:09:50.171Z</time>
      </trkpt>
      <trkpt lat="43.31343" lon="6.53508">
        <ele>211.41</ele>
        <time>2025-03-15T14:09:53.321Z</time>
      </trkpt>
      <trkpt lat="43.31341" lon="6.53502">
        <ele>211.98</ele>
        <time>2025-03-15T14:09:56.383Z</time>
      </trkpt>
      <trkpt lat="43.3134" lon="6.53496">
        <ele>212.56</ele>
        <time>2025-03-15T14:09:59.573Z</time>
      </trkpt>
      <trkpt lat="43.31338" lon="6.5349">
        <ele>213.14</ele>
        <time>2025-03-15T14:10:02.785Z</time>
      </trkpt>
      <trkpt lat="43.31337" lon="6.53484">
        <ele>213.7</ele>
        <time>2025-03-15T14:10:06.009Z</time>
      </trkpt>
      <trkpt lat="43.31336" lon="6.53478">
        <ele>214.24</ele>
        <time>2025-03-15T14:10:09.050Z</time>
      </trkpt>
      <trkpt lat="43.31335" lon="6.53471">
        <ele>214.78</ele>
        <time>2025-03-15T14:10:12.255Z</time>
      </trkpt>
      <trkpt lat="43.31333" lon="6.53459">
        <ele>215.38</ele>
        <time>2025-03-15T14:10:17.285Z</time>
      </trkpt>
      <trkpt lat="43.31335" lon="6.53447">
        <ele>215.9</ele>
        <time>2025-03-15T14:10:22.289Z</time>
      </trkpt>
      <trkpt lat="43.31336" lon="6.53441">
        <ele>216.36</ele>
        <time>2025-03-15T14:10:25.150Z</time>
      </trkpt>
      <trkpt lat="43.31338" lon="6.53436">
        <ele>216.78</ele>
        <time>2025-03-15T14:10:27.867Z</time>
      </trkpt>
      <trkpt lat="43.31341" lon="6.53431">
        <ele>217.16</ele>
        <time>2025-03-15T14:10:30.525Z</time>
      </trkpt>
      <trkpt lat="43.31343" lon="6.53427">
        <ele>217.53</ele>
        <time>2025-03-15T14:10:33.041Z</time>
      </trkpt>
      <trkpt lat="43.31346" lon="6.53423">
        <ele>217.88</ele>
        <time>2025-03-15T14:10:35.488Z</time>
      </trkpt>
      <trkpt lat="43.31363" lon="6.53395">
        <ele>218.33</ele>
        <time>2025-03-15T14:10:47.986Z</time>
      </trkpt>
      <trkpt lat="43.31366" lon="6.53391">
        <ele>218.65</ele>
        <time>2025-03-15T14:10:50.438Z</time>
      </trkpt>
      <trkpt lat="43.31369" lon="6.53388">
        <ele>218.95</ele>
        <time>2025-03-15T14:10:52.787Z</time>
      </trkpt>
      <trkpt lat="43.31372" lon="6.53384">
        <ele>219.22</ele>
        <time>2025-03-15T14:10:55.078Z</time>
      </trkpt>
      <trkpt lat="43.31375" lon="6.53381">
        <ele>219.46</ele>
        <time>2025-03-15T14:10:57.254Z</time>
      </trkpt>
      <trkpt lat="43.31378" lon="6.53377">
        <ele>219.71</ele>
        <time>2025-03-15T14:10:59.499Z</time>
      </trkpt>
      <trkpt lat="43.31381" lon="6.53374">
        <ele>219.93</ele>
        <time>2025-03-15T14:11:01.620Z</time>
      </trkpt>
      <trkpt lat="43.31385" lon="6.53371">
        <ele>220.13</ele>
        <time>2025-03-15T14:11:03.714Z</time>
      </trkpt>
      <trkpt lat="43.31387" lon="6.53369">
        <ele>220.33</ele>
        <time>2025-03-15T14:11:05.525Z</time>
      </trkpt>
      <trkpt lat="43.3139" lon="6.53367">
        <ele>220.51</ele>
        <time>2025-03-15T14:11:07.001Z</time>
      </trkpt>
      <trkpt lat="43.31398" lon="6.53359">
        <ele>220.67</ele>
        <time>2025-03-15T14:11:11.831Z</time>
      </trkpt>
      <trkpt lat="43.31413" lon="6.53341">
        <ele>220.79</ele>
        <time>2025-03-15T14:11:21.289Z</time>
      </trkpt>
      <trkpt lat="43.31435" lon="6.53307">
        <ele>220.94</ele>
        <time>2025-03-15T14:11:36.344Z</time>
      </trkpt>
      <trkpt lat="43.31437" lon="6.53303">
        <ele>221.08</ele>
        <time>2025-03-15T14:11:38.406Z</time>
      </trkpt>
      <trkpt lat="43.3144" lon="6.53299">
        <ele>221.22</ele>
        <time>2025-03-15T14:11:40.419Z</time>
      </trkpt>
      <trkpt lat="43.31442" lon="6.53295">
        <ele>221.35</ele>
        <time>2025-03-15T14:11:42.432Z</time>
      </trkpt>
      <trkpt lat="43.31445" lon="6.5329">
        <ele>221.48</ele>
        <time>2025-03-15T14:11:44.439Z</time>
      </trkpt>
      <trkpt lat="43.31456" lon="6.53267">
        <ele>221.61</ele>
        <time>2025-03-15T14:11:53.766Z</time>
      </trkpt>
      <trkpt lat="43.31457" lon="6.53263">
        <ele>221.73</ele>
        <time>2025-03-15T14:11:55.502Z</time>
      </trkpt>
      <trkpt lat="43.31458" lon="6.53259">
        <ele>221.85</ele>
        <time>2025-03-15T14:11:57.093Z</time>
      </trkpt>
      <trkpt lat="43.31459" lon="6.53255">
        <ele>221.97</ele>
        <time>2025-03-15T14:11:58.749Z</time>
      </trkpt>
      <trkpt lat="43.3146" lon="6.5325">
        <ele>222.09</ele>
        <time>2025-03-15T14:12:00.577Z</time>
      </trkpt>
      <trkpt lat="43.31462" lon="6.53241">
        <ele>222.2</ele>
        <time>2025-03-15T14:12:03.981Z</time>
      </trkpt>
      <trkpt lat="43.31467" lon="6.53223">
        <ele>222.3</ele>
        <time>2025-03-15T14:12:10.430Z</time>
      </trkpt>
      <trkpt lat="43.31469" lon="6.53219">
        <ele>222.42</ele>
        <time>2025-03-15T14:12:12.256Z</time>
      </trkpt>
      <trkpt lat="43.3147" lon="6.53214">
        <ele>222.54</ele>
        <time>2025-03-15T14:12:14.038Z</time>
      </trkpt>
      <trkpt lat="43.31472" lon="6.5321">
        <ele>222.67</ele>
        <time>2025-03-15T14:12:15.884Z</time>
      </trkpt>
      <trkpt lat="43.31473" lon="6.53206">
        <ele>222.82</ele>
        <time>2025-03-15T14:12:17.627Z</time>
      </trkpt>
      <trkpt lat="43.31474" lon="6.53201">
        <ele>222.97</ele>
        <time>2025-03-15T14:12:19.380Z</time>
      </trkpt>
      <trkpt lat="43.31476" lon="6.53197">
        <ele>223.13</ele>
        <time>2025-03-15T14:12:21.273Z</time>
      </trkpt>
      <trkpt lat="43.31477" lon="6.53192">
        <ele>223.32</ele>
        <time>2025-03-15T14:12:23.256Z</time>
      </trkpt>
      <trkpt lat="43.31478" lon="6.53187">
        <ele>223.53</ele>
        <time>2025-03-15T14:12:25.321Z</time>
      </trkpt>
      <trkpt lat="43.3148" lon="6.53182">
        <ele>223.74</ele>
        <time>2025-03-15T14:12:27.381Z</time>
      </trkpt>
      <trkpt lat="43.31481" lon="6.53177">
        <ele>223.97</ele>
        <time>2025-03-15T14:12:29.494Z</time>
      </trkpt>
      <trkpt lat="43.31487" lon="6.53145">
        <ele>224.28</ele>
        <time>2025-03-15T14:12:41.001Z</time>
      </trkpt>
      <trkpt lat="43.31487" lon="6.5314">
        <ele>224.55</ele>
        <time>2025-03-15T14:12:43.287Z</time>
      </trkpt>
      <trkpt lat="43.31488" lon="6.53134">
        <ele>224.83</ele>
        <time>2025-03-15T14:12:45.613Z</time>
      </trkpt>
      <trkpt lat="43.31488" lon="6.53129">
        <ele>225.12</ele>
        <time>2025-03-15T14:12:47.917Z</time>
      </trkpt>
      <trkpt lat="43.31488" lon="6.53123">
        <ele>225.42</ele>
        <time>2025-03-15T14:12:50.329Z</time>
      </trkpt>
      <trkpt lat="43.31487" lon="6.53099">
        <ele>225.78</ele>
        <time>2025-03-15T14:12:58.775Z</time>
      </trkpt>
      <trkpt lat="43.31485" lon="6.53069">
        <ele>226.14</ele>
        <time>2025-03-15T14:13:09.224Z</time>
      </trkpt>
      <trkpt lat="43.31485" lon="6.53064">
        <ele>226.47</ele>
        <time>2025-03-15T14:13:11.629Z</time>
      </trkpt>
      <trkpt lat="43.31484" lon="6.53058">
        <ele>226.82</ele>
        <time>2025-03-15T14:13:14.214Z</time>
      </trkpt>
      <trkpt lat="43.31484" lon="6.53052">
        <ele>227.17</ele>
        <time>2025-03-15T14:13:16.844Z</time>
      </trkpt>
      <trkpt lat="43.31481" lon="6.53026">
        <ele>227.54</ele>
        <time>2025-03-15T14:13:25.914Z</time>
      </trkpt>
      <trkpt lat="43.31479" lon="6.53008">
        <ele>227.95</ele>
        <time>2025-03-15T14:13:32.698Z</time>
      </trkpt>
      <trkpt lat="43.31479" lon="6.53002">
        <ele>228.37</ele>
        <time>2025-03-15T14:13:35.368Z</time>
      </trkpt>
      <trkpt lat="43.31478" lon="6.52996">
        <ele>228.79</ele>
        <time>2025-03-15T14:13:38.131Z</time>
      </trkpt>
      <trkpt lat="43.31477" lon="6.5299">
        <ele>229.24</ele>
        <time>2025-03-15T14:13:41.022Z</time>
      </trkpt>
      <trkpt lat="43.31475" lon="6.52985">
        <ele>229.73</ele>
        <time>2025-03-15T14:13:43.804Z</time>
      </trkpt>
      <trkpt lat="43.31473" lon="6.52979">
        <ele>230.22</ele>
        <time>2025-03-15T14:13:46.721Z</time>
      </trkpt>
      <trkpt lat="43.31471" lon="6.52975">
        <ele>230.75</ele>
        <time>2025-03-15T14:13:49.627Z</time>
      </trkpt>
      <trkpt lat="43.31468" lon="6.52965">
        <ele>231.29</ele>
        <time>2025-03-15T14:13:54.182Z</time>
      </trkpt>
      <trkpt lat="43.31465" lon="6.5296">
        <ele>231.86</ele>
        <time>2025-03-15T14:13:57.143Z</time>
      </trkpt>
      <trkpt lat="43.31463" lon="6.52956">
        <ele>232.44</ele>
        <time>2025-03-15T14:14:00.198Z</time>
      </trkpt>
      <trkpt lat="43.3146" lon="6.52952">
        <ele>233.04</ele>
        <time>2025-03-15T14:14:03.224Z</time>
      </trkpt>
      <trkpt lat="43.31457" lon="6.52949">
        <ele>233.66</ele>
        <time>2025-03-15T14:14:06.137Z</time>
      </trkpt>
      <trkpt lat="43.31451" lon="6.52944">
        <ele>234.36</ele>
        <time>2025-03-15T14:14:10.651Z</time>
      </trkpt>
      <trkpt lat="43.31448" lon="6.52941">
        <ele>235</ele>
        <time>2025-03-15T14:14:13.671Z</time>
      </trkpt>
      <trkpt lat="43.31446" lon="6.52937">
        <ele>235.64</ele>
        <time>2025-03-15T14:14:16.818Z</time>
      </trkpt>
      <trkpt lat="43.31444" lon="6.52933">
        <ele>236.27</ele>
        <time>2025-03-15T14:14:19.790Z</time>
      </trkpt>
      <trkpt lat="43.31443" lon="6.52927">
        <ele>236.88</ele>
        <time>2025-03-15T14:14:22.903Z</time>
      </trkpt>
      <trkpt lat="43.31442" lon="6.52921">
        <ele>237.47</ele>
        <time>2025-03-15T14:14:26.082Z</time>
      </trkpt>
      <trkpt lat="43.31443" lon="6.52905">
        <ele>238.06</ele>
        <time>2025-03-15T14:14:32.384Z</time>
      </trkpt>
      <trkpt lat="43.31444" lon="6.529">
        <ele>238.63</ele>
        <time>2025-03-15T14:14:35.213Z</time>
      </trkpt>
      <trkpt lat="43.31446" lon="6.52896">
        <ele>239.19</ele>
        <time>2025-03-15T14:14:38.064Z</time>
      </trkpt>
      <trkpt lat="43.31448" lon="6.52891">
        <ele>239.76</ele>
        <time>2025-03-15T14:14:41.023Z</time>
      </trkpt>
      <trkpt lat="43.31449" lon="6.52886">
        <ele>240.34</ele>
        <time>2025-03-15T14:14:43.917Z</time>
      </trkpt>
      <trkpt lat="43.31448" lon="6.52872">
        <ele>240.95</ele>
        <time>2025-03-15T14:14:49.544Z</time>
      </trkpt>
      <trkpt lat="43.31447" lon="6.52867">
        <ele>241.56</ele>
        <time>2025-03-15T14:14:52.518Z</time>
      </trkpt>
      <trkpt lat="43.31445" lon="6.52863">
        <ele>242.16</ele>
        <time>2025-03-15T14:14:55.480Z</time>
      </trkpt>
      <trkpt lat="43.31443" lon="6.52858">
        <ele>242.75</ele>
        <time>2025-03-15T14:14:58.408Z</time>
      </trkpt>
      <trkpt lat="43.31442" lon="6.52854">
        <ele>243.32</ele>
        <time>2025-03-15T14:15:01.254Z</time>
      </trkpt>
      <trkpt lat="43.31441" lon="6.52849">
        <ele>243.87</ele>
        <time>2025-03-15T14:15:03.938Z</time>
      </trkpt>
      <trkpt lat="43.31437" lon="6.52825">
        <ele>244.42</ele>
        <time>2025-03-15T14:15:13.068Z</time>
      </trkpt>
      <trkpt lat="43.31436" lon="6.5282">
        <ele>244.93</ele>
        <time>2025-03-15T14:15:15.748Z</time>
      </trkpt>
      <trkpt lat="43.31435" lon="6.52815">
        <ele>245.42</ele>
        <time>2025-03-15T14:15:18.309Z</time>
      </trkpt>
      <trkpt lat="43.31434" lon="6.52811">
        <ele>245.89</ele>
        <time>2025-03-15T14:15:20.868Z</time>
      </trkpt>
      <trkpt lat="43.31433" lon="6.52806">
        <ele>246.34</ele>
        <time>2025-03-15T14:15:23.301Z</time>
      </trkpt>
      <trkpt lat="43.31432" lon="6.52801">
        <ele>246.77</ele>
        <time>2025-03-15T14:15:25.772Z</time>
      </trkpt>
      <trkpt lat="43.31431" lon="6.52796">
        <ele>247.17</ele>
        <time>2025-03-15T14:15:28.154Z</time>
      </trkpt>
      <trkpt lat="43.31426" lon="6.52777">
        <ele>247.6</ele>
        <time>2025-03-15T14:15:35.677Z</time>
      </trkpt>
      <trkpt lat="43.31424" lon="6.52772">
        <ele>247.97</ele>
        <time>2025-03-15T14:15:38.139Z</time>
      </trkpt>
      <trkpt lat="43.31423" lon="6.52767">
        <ele>248.3</ele>
        <time>2025-03-15T14:15:40.566Z</time>
      </trkpt>
      <trkpt lat="43.31422" lon="6.52762">
        <ele>248.6</ele>
        <time>2025-03-15T14:15:42.838Z</time>
      </trkpt>
      <trkpt lat="43.31421" lon="6.52756">
        <ele>248.86</ele>
        <time>2025-03-15T14:15:45.082Z</time>
      </trkpt>
      <trkpt lat="43.3142" lon="6.52746">
        <ele>249.1</ele>
        <time>2025-03-15T14:15:49.084Z</time>
      </trkpt>
      <trkpt lat="43.31418" lon="6.52722">
        <ele>249.32</ele>
        <time>2025-03-15T14:15:57.106Z</time>
      </trkpt>
      <trkpt lat="43.31416" lon="6.52712">
        <ele>249.46</ele>
        <time>2025-03-15T14:16:01.017Z</time>
      </trkpt>
      <trkpt lat="43.31416" lon="6.52706">
        <ele>249.56</ele>
        <time>2025-03-15T14:16:02.907Z</time>
      </trkpt>
      <trkpt lat="43.31416" lon="6.52701">
        <ele>249.62</ele>
        <time>2025-03-15T14:16:04.668Z</time>
      </trkpt>
      <trkpt lat="43.31415" lon="6.52696">
        <ele>249.66</ele>
        <time>2025-03-15T14:16:06.443Z</time>
      </trkpt>
      <trkpt lat="43.31412" lon="6.52687">
        <ele>249.66</ele>
        <time>2025-03-15T14:16:09.887Z</time>
      </trkpt>
      <trkpt lat="43.31397" lon="6.52667">
        <ele>249.64</ele>
        <time>2025-03-15T14:16:19.184Z</time>
      </trkpt>
      <trkpt lat="43.31391" lon="6.52658">
        <ele>249.54</ele>
        <time>2025-03-15T14:16:23.080Z</time>
      </trkpt>
      <trkpt lat="43.31387" lon="6.52646">
        <ele>249.37</ele>
        <time>2025-03-15T14:16:27.392Z</time>
      </trkpt>
      <trkpt lat="43.31385" lon="6.52621">
        <ele>249.19</ele>
        <time>2025-03-15T14:16:35.395Z</time>
      </trkpt>
      <trkpt lat="43.31381" lon="6.52604">
        <ele>248.98</ele>
        <time>2025-03-15T14:16:41.047Z</time>
      </trkpt>
      <trkpt lat="43.31366" lon="6.52586">
        <ele>248.72</ele>
        <time>2025-03-15T14:16:49.718Z</time>
      </trkpt>
      <trkpt lat="43.3136" lon="6.52583">
        <ele>248.43</ele>
        <time>2025-03-15T14:16:52.474Z</time>
      </trkpt>
      <trkpt lat="43.31353" lon="6.5258">
        <ele>248.1</ele>
        <time>2025-03-15T14:16:55.369Z</time>
      </trkpt>
      <trkpt lat="43.31347" lon="6.52576">
        <ele>247.73</ele>
        <time>2025-03-15T14:16:58.312Z</time>
      </trkpt>
      <trkpt lat="43.3134" lon="6.52571">
        <ele>247.33</ele>
        <time>2025-03-15T14:17:01.402Z</time>
      </trkpt>
      <trkpt lat="43.31333" lon="6.52565">
        <ele>246.9</ele>
        <time>2025-03-15T14:17:04.560Z</time>
      </trkpt>
      <trkpt lat="43.31326" lon="6.52559">
        <ele>246.44</ele>
        <time>2025-03-15T14:17:07.826Z</time>
      </trkpt>
      <trkpt lat="43.31319" lon="6.52552">
        <ele>245.95</ele>
        <time>2025-03-15T14:17:11.417Z</time>
      </trkpt>
      <trkpt lat="43.31312" lon="6.52545">
        <ele>245.44</ele>
        <time>2025-03-15T14:17:14.817Z</time>
      </trkpt>
      <trkpt lat="43.31305" lon="6.52537">
        <ele>244.91</ele>
        <time>2025-03-15T14:17:18.349Z</time>
      </trkpt>
      <trkpt lat="43.31299" lon="6.52529">
        <ele>244.36</ele>
        <time>2025-03-15T14:17:21.953Z</time>
      </trkpt>
      <trkpt lat="43.31292" lon="6.5252">
        <ele>243.78</ele>
        <time>2025-03-15T14:17:25.496Z</time>
      </trkpt>
      <trkpt lat="43.31285" lon="6.52512">
        <ele>243.2</ele>
        <time>2025-03-15T14:17:29.121Z</time>
      </trkpt>
      <trkpt lat="43.31279" lon="6.52503">
        <ele>242.6</ele>
        <time>2025-03-15T14:17:32.843Z</time>
      </trkpt>
      <trkpt lat="43.31272" lon="6.52493">
        <ele>241.97</ele>
        <time>2025-03-15T14:17:36.778Z</time>
      </trkpt>
      <trkpt lat="43.31266" lon="6.52484">
        <ele>241.35</ele>
        <time>2025-03-15T14:17:40.385Z</time>
      </trkpt>
      <trkpt lat="43.31262" lon="6.52474">
        <ele>240.74</ele>
        <time>2025-03-15T14:17:43.821Z</time>
      </trkpt>
      <trkpt lat="43.31258" lon="6.52464">
        <ele>240.11</ele>
        <time>2025-03-15T14:17:46.891Z</time>
      </trkpt>
      <trkpt lat="43.31255" lon="6.52455">
        <ele>239.47</ele>
        <time>2025-03-15T14:17:50.015Z</time>
      </trkpt>
      <trkpt lat="43.31253" lon="6.52446">
        <ele>238.87</ele>
        <time>2025-03-15T14:17:52.591Z</time>
      </trkpt>
      <trkpt lat="43.31255" lon="6.52437">
        <ele>238.28</ele>
        <time>2025-03-15T14:17:55.139Z</time>
      </trkpt>
      <trkpt lat="43.3126" lon="6.5242">
        <ele>237.72</ele>
        <time>2025-03-15T14:18:00.458Z</time>
      </trkpt>
      <trkpt lat="43.31263" lon="6.52414">
        <ele>237.17</ele>
        <time>2025-03-15T14:18:02.984Z</time>
      </trkpt>
      <trkpt lat="43.31271" lon="6.52401">
        <ele>236.63</ele>
        <time>2025-03-15T14:18:07.779Z</time>
      </trkpt>
      <trkpt lat="43.31286" lon="6.52384">
        <ele>236.07</ele>
        <time>2025-03-15T14:18:15.769Z</time>
      </trkpt>
      <trkpt lat="43.3129" lon="6.52378">
        <ele>235.53</ele>
        <time>2025-03-15T14:18:18.120Z</time>
      </trkpt>
      <trkpt lat="43.31293" lon="6.52371">
        <ele>234.98</ele>
        <time>2025-03-15T14:18:20.306Z</time>
      </trkpt>
      <trkpt lat="43.31295" lon="6.52366">
        <ele>234.44</ele>
        <time>2025-03-15T14:18:22.370Z</time>
      </trkpt>
      <trkpt lat="43.31301" lon="6.52354">
        <ele>233.88</ele>
        <time>2025-03-15T14:18:26.444Z</time>
      </trkpt>
      <trkpt lat="43.31309" lon="6.52343">
        <ele>233.34</ele>
        <time>2025-03-15T14:18:30.858Z</time>
      </trkpt>
      <trkpt lat="43.31318" lon="6.52339">
        <ele>232.87</ele>
        <time>2025-03-15T14:18:34.866Z</time>
      </trkpt>
      <trkpt lat="43.31329" lon="6.52335">
        <ele>232.43</ele>
        <time>2025-03-15T14:18:39.589Z</time>
      </trkpt>
      <trkpt lat="43.3134" lon="6.52328">
        <ele>231.88</ele>
        <time>2025-03-15T14:18:44.486Z</time>
      </trkpt>
      <trkpt lat="43.31346" lon="6.52323">
        <ele>231.36</ele>
        <time>2025-03-15T14:18:46.949Z</time>
      </trkpt>
      <trkpt lat="43.31351" lon="6.52319">
        <ele>230.88</ele>
        <time>2025-03-15T14:18:49.517Z</time>
      </trkpt>
      <trkpt lat="43.31356" lon="6.52315">
        <ele>230.4</ele>
        <time>2025-03-15T14:18:51.921Z</time>
      </trkpt>
      <trkpt lat="43.31361" lon="6.52311">
        <ele>229.91</ele>
        <time>2025-03-15T14:18:54.259Z</time>
      </trkpt>
      <trkpt lat="43.31366" lon="6.52307">
        <ele>229.43</ele>
        <time>2025-03-15T14:18:56.517Z</time>
      </trkpt>
      <trkpt lat="43.31371" lon="6.52303">
        <ele>228.96</ele>
        <time>2025-03-15T14:18:58.713Z</time>
      </trkpt>
      <trkpt lat="43.31376" lon="6.52299">
        <ele>228.48</ele>
        <time>2025-03-15T14:19:00.905Z</time>
      </trkpt>
      <trkpt lat="43.31381" lon="6.52296">
        <ele>228.01</ele>
        <time>2025-03-15T14:19:03.133Z</time>
      </trkpt>
      <trkpt lat="43.31386" lon="6.52292">
        <ele>227.55</ele>
        <time>2025-03-15T14:19:05.666Z</time>
      </trkpt>
      <trkpt lat="43.31393" lon="6.5229">
        <ele>227.11</ele>
        <time>2025-03-15T14:19:08.221Z</time>
      </trkpt>
      <trkpt lat="43.314" lon="6.52292">
        <ele>226.7</ele>
        <time>2025-03-15T14:19:11.194Z</time>
      </trkpt>
      <trkpt lat="43.31407" lon="6.52294">
        <ele>226.31</ele>
        <time>2025-03-15T14:19:14.093Z</time>
      </trkpt>
      <trkpt lat="43.31413" lon="6.52297">
        <ele>225.91</ele>
        <time>2025-03-15T14:19:16.619Z</time>
      </trkpt>
      <trkpt lat="43.3142" lon="6.52295">
        <ele>225.48</ele>
        <time>2025-03-15T14:19:19.386Z</time>
      </trkpt>
      <trkpt lat="43.31426" lon="6.52291">
        <ele>225.03</ele>
        <time>2025-03-15T14:19:21.995Z</time>
      </trkpt>
      <trkpt lat="43.3143" lon="6.52284">
        <ele>224.56</ele>
        <time>2025-03-15T14:19:24.575Z</time>
      </trkpt>
      <trkpt lat="43.31435" lon="6.52276">
        <ele>224.09</ele>
        <time>2025-03-15T14:19:27.655Z</time>
      </trkpt>
      <trkpt lat="43.31441" lon="6.5227">
        <ele>223.61</ele>
        <time>2025-03-15T14:19:30.436Z</time>
      </trkpt>
      <trkpt lat="43.31447" lon="6.52264">
        <ele>223.1</ele>
        <time>2025-03-15T14:19:33.688Z</time>
      </trkpt>
      <trkpt lat="43.31455" lon="6.5226">
        <ele>222.63</ele>
        <time>2025-03-15T14:19:36.886Z</time>
      </trkpt>
      <trkpt lat="43.31462" lon="6.52259">
        <ele>222.18</ele>
        <time>2025-03-15T14:19:39.925Z</time>
      </trkpt>
      <trkpt lat="43.31469" lon="6.52258">
        <ele>221.73</ele>
        <time>2025-03-15T14:19:42.700Z</time>
      </trkpt>
      <trkpt lat="43.31476" lon="6.52254">
        <ele>221.24</ele>
        <time>2025-03-15T14:19:45.484Z</time>
      </trkpt>
      <trkpt lat="43.31479" lon="6.52249">
        <ele>220.71</ele>
        <time>2025-03-15T14:19:47.440Z</time>
      </trkpt>
      <trkpt lat="43.31479" lon="6.52243">
        <ele>220.16</ele>
        <time>2025-03-15T14:19:49.105Z</time>
      </trkpt>
      <trkpt lat="43.31477" lon="6.52235">
        <ele>219.57</ele>
        <time>2025-03-15T14:19:51.490Z</time>
      </trkpt>
      <trkpt lat="43.31476" lon="6.52226">
        <ele>218.97</ele>
        <time>2025-03-15T14:19:54.296Z</time>
      </trkpt>
      <trkpt lat="43.31475" lon="6.52215">
        <ele>218.36</ele>
        <time>2025-03-15T14:19:57.617Z</time>
      </trkpt>
      <trkpt lat="43.31478" lon="6.52203">
        <ele>217.76</ele>
        <time>2025-03-15T14:20:01.169Z</time>
      </trkpt>
      <trkpt lat="43.31483" lon="6.52193">
        <ele>217.16</ele>
        <time>2025-03-15T14:20:04.615Z</time>
      </trkpt>
      <trkpt lat="43.31489" lon="6.52184">
        <ele>216.57</ele>
        <time>2025-03-15T14:20:08.046Z</time>
      </trkpt>
      <trkpt lat="43.31495" lon="6.52175">
        <ele>215.96</ele>
        <time>2025-03-15T14:20:11.704Z</time>
      </trkpt>
      <trkpt lat="43.31501" lon="6.52167">
        <ele>215.36</ele>
        <time>2025-03-15T14:20:15.006Z</time>
      </trkpt>
      <trkpt lat="43.31506" lon="6.52158">
        <ele>214.76</ele>
        <time>2025-03-15T14:20:18.295Z</time>
      </trkpt>
      <trkpt lat="43.31507" lon="6.52149">
        <ele>214.13</ele>
        <time>2025-03-15T14:20:20.887Z</time>
      </trkpt>
      <trkpt lat="43.31504" lon="6.52141">
        <ele>213.46</ele>
        <time>2025-03-15T14:20:23.513Z</time>
      </trkpt>
      <trkpt lat="43.31498" lon="6.52134">
        <ele>212.76</ele>
        <time>2025-03-15T14:20:26.706Z</time>
      </trkpt>
      <trkpt lat="43.31491" lon="6.52127">
        <ele>212.05</ele>
        <time>2025-03-15T14:20:30.112Z</time>
      </trkpt>
      <trkpt lat="43.31484" lon="6.52121">
        <ele>211.34</ele>
        <time>2025-03-15T14:20:33.507Z</time>
      </trkpt>
      <trkpt lat="43.31479" lon="6.52111">
        <ele>210.64</ele>
        <time>2025-03-15T14:20:36.860Z</time>
      </trkpt>
      <trkpt lat="43.31477" lon="6.52099">
        <ele>209.96</ele>
        <time>2025-03-15T14:20:40.577Z</time>
      </trkpt>
      <trkpt lat="43.31474" lon="6.52086">
        <ele>209.28</ele>
        <time>2025-03-15T14:20:44.467Z</time>
      </trkpt>
      <trkpt lat="43.31471" lon="6.52073">
        <ele>208.59</ele>
        <time>2025-03-15T14:20:48.352Z</time>
      </trkpt>
      <trkpt lat="43.31469" lon="6.5206">
        <ele>207.91</ele>
        <time>2025-03-15T14:20:52.367Z</time>
      </trkpt>
      <trkpt lat="43.31467" lon="6.52047">
        <ele>207.23</ele>
        <time>2025-03-15T14:20:56.154Z</time>
      </trkpt>
      <trkpt lat="43.31465" lon="6.52036">
        <ele>206.57</ele>
        <time>2025-03-15T14:20:59.439Z</time>
      </trkpt>
      <trkpt lat="43.31465" lon="6.52026">
        <ele>205.94</ele>
        <time>2025-03-15T14:21:02.443Z</time>
      </trkpt>
      <trkpt lat="43.31467" lon="6.52016">
        <ele>205.34</ele>
        <time>2025-03-15T14:21:05.543Z</time>
      </trkpt>
      <trkpt lat="43.31472" lon="6.52006">
        <ele>204.78</ele>
        <time>2025-03-15T14:21:08.899Z</time>
      </trkpt>
      <trkpt lat="43.31478" lon="6.51997">
        <ele>204.26</ele>
        <time>2025-03-15T14:21:12.322Z</time>
      </trkpt>
      <trkpt lat="43.31484" lon="6.51989">
        <ele>203.76</ele>
        <time>2025-03-15T14:21:15.828Z</time>
      </trkpt>
      <trkpt lat="43.31491" lon="6.51981">
        <ele>203.29</ele>
        <time>2025-03-15T14:21:19.394Z</time>
      </trkpt>
      <trkpt lat="43.31498" lon="6.51974">
        <ele>202.83</ele>
        <time>2025-03-15T14:21:22.923Z</time>
      </trkpt>
      <trkpt lat="43.31506" lon="6.51968">
        <ele>202.4</ele>
        <time>2025-03-15T14:21:26.674Z</time>
      </trkpt>
      <trkpt lat="43.31514" lon="6.51963">
        <ele>202</ele>
        <time>2025-03-15T14:21:30.361Z</time>
      </trkpt>
      <trkpt lat="43.31523" lon="6.51957">
        <ele>201.65</ele>
        <time>2025-03-15T14:21:34.230Z</time>
      </trkpt>
      <trkpt lat="43.31532" lon="6.51953">
        <ele>201.32</ele>
        <time>2025-03-15T14:21:38.249Z</time>
      </trkpt>
      <trkpt lat="43.31541" lon="6.51948">
        <ele>201.04</ele>
        <time>2025-03-15T14:21:42.242Z</time>
      </trkpt>
      <trkpt lat="43.3155" lon="6.51944">
        <ele>200.8</ele>
        <time>2025-03-15T14:21:46.259Z</time>
      </trkpt>
      <trkpt lat="43.31559" lon="6.5194">
        <ele>200.56</ele>
        <time>2025-03-15T14:21:50.319Z</time>
      </trkpt>
      <trkpt lat="43.31568" lon="6.51936">
        <ele>200.36</ele>
        <time>2025-03-15T14:21:54.321Z</time>
      </trkpt>
      <trkpt lat="43.31575" lon="6.51932">
        <ele>200.17</ele>
        <time>2025-03-15T14:21:57.365Z</time>
      </trkpt>
      <trkpt lat="43.31581" lon="6.51927">
        <ele>200.01</ele>
        <time>2025-03-15T14:22:00.328Z</time>
      </trkpt>
      <trkpt lat="43.31586" lon="6.51923">
        <ele>199.9</ele>
        <time>2025-03-15T14:22:02.778Z</time>
      </trkpt>
      <trkpt lat="43.31589" lon="6.5192">
        <ele>199.81</ele>
        <time>2025-03-15T14:22:04.372Z</time>
      </trkpt>
      <trkpt lat="43.3159" lon="6.5192">
        <ele>199.75</ele>
        <time>2025-03-15T14:22:04.926Z</time>
      </trkpt>
      <trkpt lat="43.31588" lon="6.5192">
        <ele>199.72</ele>
        <time>2025-03-15T14:22:05.685Z</time>
      </trkpt>
      <trkpt lat="43.31571" lon="6.51918">
        <ele>199.69</ele>
        <time>2025-03-15T14:22:13.407Z</time>
      </trkpt>
      <trkpt lat="43.31557" lon="6.51914">
        <ele>199.73</ele>
        <time>2025-03-15T14:22:20.081Z</time>
      </trkpt>
      <trkpt lat="43.31551" lon="6.51911">
        <ele>199.8</ele>
        <time>2025-03-15T14:22:23.414Z</time>
      </trkpt>
      <trkpt lat="43.31539" lon="6.51906">
        <ele>199.91</ele>
        <time>2025-03-15T14:22:29.058Z</time>
      </trkpt>
      <trkpt lat="43.31534" lon="6.51903">
        <ele>200.03</ele>
        <time>2025-03-15T14:22:31.772Z</time>
      </trkpt>
      <trkpt lat="43.31525" lon="6.51898">
        <ele>200.19</ele>
        <time>2025-03-15T14:22:36.583Z</time>
      </trkpt>
      <trkpt lat="43.31516" lon="6.51894">
        <ele>200.36</ele>
        <time>2025-03-15T14:22:41.245Z</time>
      </trkpt>
      <trkpt lat="43.31511" lon="6.51893">
        <ele>200.54</ele>
        <time>2025-03-15T14:22:43.821Z</time>
      </trkpt>
      <trkpt lat="43.31507" lon="6.51893">
        <ele>200.74</ele>
        <time>2025-03-15T14:22:46.016Z</time>
      </trkpt>
      <trkpt lat="43.31502" lon="6.51894">
        <ele>200.95</ele>
        <time>2025-03-15T14:22:48.432Z</time>
      </trkpt>
      <trkpt lat="43.31497" lon="6.51895">
        <ele>201.17</ele>
        <time>2025-03-15T14:22:51.063Z</time>
      </trkpt>
      <trkpt lat="43.31487" lon="6.51897">
        <ele>201.41</ele>
        <time>2025-03-15T14:22:55.919Z</time>
      </trkpt>
      <trkpt lat="43.31483" lon="6.51898">
        <ele>201.69</ele>
        <time>2025-03-15T14:22:58.602Z</time>
      </trkpt>
      <trkpt lat="43.31478" lon="6.519">
        <ele>201.98</ele>
        <time>2025-03-15T14:23:01.270Z</time>
      </trkpt>
      <trkpt lat="43.31474" lon="6.51901">
        <ele>202.27</ele>
        <time>2025-03-15T14:23:03.671Z</time>
      </trkpt>
      <trkpt lat="43.31469" lon="6.51902">
        <ele>202.58</ele>
        <time>2025-03-15T14:23:06.209Z</time>
      </trkpt>
      <trkpt lat="43.31461" lon="6.51902">
        <ele>202.91</ele>
        <time>2025-03-15T14:23:10.689Z</time>
      </trkpt>
      <trkpt lat="43.31448" lon="6.51898">
        <ele>203.31</ele>
        <time>2025-03-15T14:23:17.375Z</time>
      </trkpt>
      <trkpt lat="43.31444" lon="6.51894">
        <ele>203.71</ele>
        <time>2025-03-15T14:23:20.046Z</time>
      </trkpt>
      <trkpt lat="43.31441" lon="6.51891">
        <ele>204.12</ele>
        <time>2025-03-15T14:23:22.641Z</time>
      </trkpt>
      <trkpt lat="43.31437" lon="6.51887">
        <ele>204.54</ele>
        <time>2025-03-15T14:23:25.393Z</time>
      </trkpt>
      <trkpt lat="43.31435" lon="6.51883">
        <ele>204.97</ele>
        <time>2025-03-15T14:23:28.051Z</time>
      </trkpt>
      <trkpt lat="43.31432" lon="6.51879">
        <ele>205.4</ele>
        <time>2025-03-15T14:23:30.746Z</time>
      </trkpt>
      <trkpt lat="43.31428" lon="6.51875">
        <ele>205.83</ele>
        <time>2025-03-15T14:23:33.454Z</time>
      </trkpt>
      <trkpt lat="43.31425" lon="6.51871">
        <ele>206.26</ele>
        <time>2025-03-15T14:23:36.077Z</time>
      </trkpt>
      <trkpt lat="43.31415" lon="6.5186">
        <ele>206.75</ele>
        <time>2025-03-15T14:23:43.029Z</time>
      </trkpt>
      <trkpt lat="43.31411" lon="6.51857">
        <ele>207.17</ele>
        <time>2025-03-15T14:23:45.797Z</time>
      </trkpt>
      <trkpt lat="43.31407" lon="6.51854">
        <ele>207.57</ele>
        <time>2025-03-15T14:23:48.529Z</time>
      </trkpt>
      <trkpt lat="43.31403" lon="6.51851">
        <ele>207.97</ele>
        <time>2025-03-15T14:23:51.207Z</time>
      </trkpt>
      <trkpt lat="43.31399" lon="6.51849">
        <ele>208.36</ele>
        <time>2025-03-15T14:23:53.815Z</time>
      </trkpt>
      <trkpt lat="43.31395" lon="6.51847">
        <ele>208.73</ele>
        <time>2025-03-15T14:23:56.412Z</time>
      </trkpt>
      <trkpt lat="43.3138" lon="6.51837">
        <ele>209.13</ele>
        <time>2025-03-15T14:24:04.804Z</time>
      </trkpt>
      <trkpt lat="43.31376" lon="6.51833">
        <ele>209.49</ele>
        <time>2025-03-15T14:24:07.369Z</time>
      </trkpt>
      <trkpt lat="43.31372" lon="6.5183">
        <ele>209.83</ele>
        <time>2025-03-15T14:24:10.013Z</time>
      </trkpt>
      <trkpt lat="43.31368" lon="6.51828">
        <ele>210.15</ele>
        <time>2025-03-15T14:24:12.428Z</time>
      </trkpt>
      <trkpt lat="43.31364" lon="6.51827">
        <ele>210.45</ele>
        <time>2025-03-15T14:24:14.898Z</time>
      </trkpt>
      <trkpt lat="43.3136" lon="6.51828">
        <ele>210.72</ele>
        <time>2025-03-15T14:24:17.429Z</time>
      </trkpt>
      <trkpt lat="43.31346" lon="6.5183">
        <ele>210.96</ele>
        <time>2025-03-15T14:24:24.081Z</time>
      </trkpt>
      <trkpt lat="43.31342" lon="6.5183">
        <ele>211.25</ele>
        <time>2025-03-15T14:24:26.518Z</time>
      </trkpt>
      <trkpt lat="43.31337" lon="6.5183">
        <ele>211.52</ele>
        <time>2025-03-15T14:24:29.069Z</time>
      </trkpt>
      <trkpt lat="43.31333" lon="6.5183">
        <ele>211.8</ele>
        <time>2025-03-15T14:24:31.516Z</time>
      </trkpt>
      <trkpt lat="43.31328" lon="6.5183">
        <ele>212.06</ele>
        <time>2025-03-15T14:24:33.960Z</time>
      </trkpt>
      <trkpt lat="43.31324" lon="6.51831">
        <ele>212.33</ele>
        <time>2025-03-15T14:24:36.420Z</time>
      </trkpt>
      <trkpt lat="43.31319" lon="6.51831">
        <ele>212.58</ele>
        <time>2025-03-15T14:24:38.834Z</time>
      </trkpt>
      <trkpt lat="43.31315" lon="6.51831">
        <ele>212.84</ele>
        <time>2025-03-15T14:24:41.271Z</time>
      </trkpt>
      <trkpt lat="43.31311" lon="6.51831">
        <ele>213.09</ele>
        <time>2025-03-15T14:24:43.638Z</time>
      </trkpt>
      <trkpt lat="43.31306" lon="6.5183">
        <ele>213.34</ele>
        <time>2025-03-15T14:24:45.980Z</time>
      </trkpt>
      <trkpt lat="43.31298" lon="6.51828">
        <ele>213.6</ele>
        <time>2025-03-15T14:24:50.205Z</time>
      </trkpt>
      <trkpt lat="43.31294" lon="6.51827">
        <ele>213.84</ele>
        <time>2025-03-15T14:24:52.494Z</time>
      </trkpt>
      <trkpt lat="43.3129" lon="6.51824">
        <ele>214.09</ele>
        <time>2025-03-15T14:24:54.977Z</time>
      </trkpt>
      <trkpt lat="43.31286" lon="6.51822">
        <ele>214.35</ele>
        <time>2025-03-15T14:24:57.217Z</time>
      </trkpt>
      <trkpt lat="43.31282" lon="6.5182">
        <ele>214.61</ele>
        <time>2025-03-15T14:24:59.590Z</time>
      </trkpt>
      <trkpt lat="43.31276" lon="6.51813">
        <ele>214.9</ele>
        <time>2025-03-15T14:25:03.744Z</time>
      </trkpt>
      <trkpt lat="43.31273" lon="6.51809">
        <ele>215.18</ele>
        <time>2025-03-15T14:25:06.084Z</time>
      </trkpt>
      <trkpt lat="43.31271" lon="6.51805">
        <ele>215.46</ele>
        <time>2025-03-15T14:25:08.295Z</time>
      </trkpt>
      <trkpt lat="43.31269" lon="6.518">
        <ele>215.74</ele>
        <time>2025-03-15T14:25:10.592Z</time>
      </trkpt>
      <trkpt lat="43.31267" lon="6.51795">
        <ele>216.01</ele>
        <time>2025-03-15T14:25:12.976Z</time>
      </trkpt>
      <trkpt lat="43.31265" lon="6.5179">
        <ele>216.3</ele>
        <time>2025-03-15T14:25:15.273Z</time>
      </trkpt>
      <trkpt lat="43.31263" lon="6.51779">
        <ele>216.62</ele>
        <time>2025-03-15T14:25:19.587Z</time>
      </trkpt>
      <trkpt lat="43.31262" lon="6.51767">
        <ele>216.94</ele>
        <time>2025-03-15T14:25:24.028Z</time>
      </trkpt>
      <trkpt lat="43.31262" lon="6.51761">
        <ele>217.27</ele>
        <time>2025-03-15T14:25:26.705Z</time>
      </trkpt>
      <trkpt lat="43.31262" lon="6.51754">
        <ele>217.6</ele>
        <time>2025-03-15T14:25:29.340Z</time>
      </trkpt>
      <trkpt lat="43.31262" lon="6.51749">
        <ele>217.93</ele>
        <time>2025-03-15T14:25:31.632Z</time>
      </trkpt>
      <trkpt lat="43.31263" lon="6.51744">
        <ele>218.27</ele>
        <time>2025-03-15T14:25:33.917Z</time>
      </trkpt>
      <trkpt lat="43.31265" lon="6.51734">
        <ele>218.64</ele>
        <time>2025-03-15T14:25:38.067Z</time>
      </trkpt>
      <trkpt lat="43.31265" lon="6.51729">
        <ele>218.99</ele>
        <time>2025-03-15T14:25:40.316Z</time>
      </trkpt>
      <trkpt lat="43.31266" lon="6.51725">
        <ele>219.34</ele>
        <time>2025-03-15T14:25:42.290Z</time>
      </trkpt>
      <trkpt lat="43.31266" lon="6.51721">
        <ele>219.67</ele>
        <time>2025-03-15T14:25:44.344Z</time>
      </trkpt>
      <trkpt lat="43.31266" lon="6.51716">
        <ele>219.99</ele>
        <time>2025-03-15T14:25:46.395Z</time>
      </trkpt>
      <trkpt lat="43.31265" lon="6.5171">
        <ele>220.31</ele>
        <time>2025-03-15T14:25:48.947Z</time>
      </trkpt>
      <trkpt lat="43.31264" lon="6.51703">
        <ele>220.61</ele>
        <time>2025-03-15T14:25:51.648Z</time>
      </trkpt>
      <trkpt lat="43.31262" lon="6.51691">
        <ele>220.9</ele>
        <time>2025-03-15T14:25:56.343Z</time>
      </trkpt>
      <trkpt lat="43.31262" lon="6.51686">
        <ele>221.2</ele>
        <time>2025-03-15T14:25:58.602Z</time>
      </trkpt>
      <trkpt lat="43.31261" lon="6.5168">
        <ele>221.5</ele>
        <time>2025-03-15T14:26:01.032Z</time>
      </trkpt>
      <trkpt lat="43.31261" lon="6.51674">
        <ele>221.82</ele>
        <time>2025-03-15T14:26:03.552Z</time>
      </trkpt>
      <trkpt lat="43.31261" lon="6.51668">
        <ele>222.15</ele>
        <time>2025-03-15T14:26:06.094Z</time>
      </trkpt>
      <trkpt lat="43.31267" lon="6.51647">
        <ele>222.5</ele>
        <time>2025-03-15T14:26:14.120Z</time>
      </trkpt>
      <trkpt lat="43.31284" lon="6.51603">
        <ele>222.93</ele>
        <time>2025-03-15T14:26:31.361Z</time>
      </trkpt>
      <trkpt lat="43.31298" lon="6.51566">
        <ele>223.31</ele>
        <time>2025-03-15T14:26:45.615Z</time>
      </trkpt>
      <trkpt lat="43.313" lon="6.51561">
        <ele>223.66</ele>
        <time>2025-03-15T14:26:48.298Z</time>
      </trkpt>
      <trkpt lat="43.31294" lon="6.51544">
        <ele>223.91</ele>
        <time>2025-03-15T14:26:54.846Z</time>
      </trkpt>
      <trkpt lat="43.31285" lon="6.51536">
        <ele>224.12</ele>
        <time>2025-03-15T14:27:00.005Z</time>
      </trkpt>
      <trkpt lat="43.31282" lon="6.5153">
        <ele>224.42</ele>
        <time>2025-03-15T14:27:02.874Z</time>
      </trkpt>
      <trkpt lat="43.31279" lon="6.51524">
        <ele>224.74</ele>
        <time>2025-03-15T14:27:05.692Z</time>
      </trkpt>
      <trkpt lat="43.31274" lon="6.51502">
        <ele>225.1</ele>
        <time>2025-03-15T14:27:13.999Z</time>
      </trkpt>
      <trkpt lat="43.31272" lon="6.51495">
        <ele>225.45</ele>
        <time>2025-03-15T14:27:17.046Z</time>
      </trkpt>
      <trkpt lat="43.31267" lon="6.51461">
        <ele>225.81</ele>
        <time>2025-03-15T14:27:29.055Z</time>
      </trkpt>
      <trkpt lat="43.31267" lon="6.51455">
        <ele>226.17</ele>
        <time>2025-03-15T14:27:31.674Z</time>
      </trkpt>
      <trkpt lat="43.31267" lon="6.51449">
        <ele>226.52</ele>
        <time>2025-03-15T14:27:34.274Z</time>
      </trkpt>
      <trkpt lat="43.31268" lon="6.51444">
        <ele>226.89</ele>
        <time>2025-03-15T14:27:36.798Z</time>
      </trkpt>
      <trkpt lat="43.31269" lon="6.51438">
        <ele>227.26</ele>
        <time>2025-03-15T14:27:39.243Z</time>
      </trkpt>
      <trkpt lat="43.31271" lon="6.51433">
        <ele>227.63</ele>
        <time>2025-03-15T14:27:41.714Z</time>
      </trkpt>
      <trkpt lat="43.31273" lon="6.51429">
        <ele>228</ele>
        <time>2025-03-15T14:27:44.048Z</time>
      </trkpt>
      <trkpt lat="43.31275" lon="6.51426">
        <ele>228.38</ele>
        <time>2025-03-15T14:27:46.223Z</time>
      </trkpt>
      <trkpt lat="43.31278" lon="6.51424">
        <ele>228.76</ele>
        <time>2025-03-15T14:27:48.410Z</time>
      </trkpt>
      <trkpt lat="43.31281" lon="6.51422">
        <ele>229.12</ele>
        <time>2025-03-15T14:27:50.562Z</time>
      </trkpt>
      <trkpt lat="43.31284" lon="6.51419">
        <ele>229.48</ele>
        <time>2025-03-15T14:27:52.754Z</time>
      </trkpt>
      <trkpt lat="43.31287" lon="6.51418">
        <ele>229.83</ele>
        <time>2025-03-15T14:27:54.879Z</time>
      </trkpt>
      <trkpt lat="43.31294" lon="6.51413">
        <ele>230.2</ele>
        <time>2025-03-15T14:27:59.027Z</time>
      </trkpt>
      <trkpt lat="43.31296" lon="6.51411">
        <ele>230.5</ele>
        <time>2025-03-15T14:28:00.966Z</time>
      </trkpt>
      <trkpt lat="43.31299" lon="6.51409">
        <ele>230.8</ele>
        <time>2025-03-15T14:28:02.938Z</time>
      </trkpt>
      <trkpt lat="43.31302" lon="6.51407">
        <ele>231.08</ele>
        <time>2025-03-15T14:28:04.983Z</time>
      </trkpt>
      <trkpt lat="43.31306" lon="6.51404">
        <ele>231.33</ele>
        <time>2025-03-15T14:28:07.281Z</time>
      </trkpt>
      <trkpt lat="43.31309" lon="6.514">
        <ele>231.56</ele>
        <time>2025-03-15T14:28:09.544Z</time>
      </trkpt>
      <trkpt lat="43.31328" lon="6.51378">
        <ele>231.82</ele>
        <time>2025-03-15T14:28:21.179Z</time>
      </trkpt>
      <trkpt lat="43.3133" lon="6.51375">
        <ele>231.98</ele>
        <time>2025-03-15T14:28:22.999Z</time>
      </trkpt>
      <trkpt lat="43.31332" lon="6.51372">
        <ele>232.11</ele>
        <time>2025-03-15T14:28:24.468Z</time>
      </trkpt>
      <trkpt lat="43.31332" lon="6.51369">
        <ele>232.19</ele>
        <time>2025-03-15T14:28:25.574Z</time>
      </trkpt>
      <trkpt lat="43.31333" lon="6.51366">
        <ele>232.23</ele>
        <time>2025-03-15T14:28:26.520Z</time>
      </trkpt>
      <trkpt lat="43.31332" lon="6.51362">
        <ele>232.23</ele>
        <time>2025-03-15T14:28:27.941Z</time>
      </trkpt>
      <trkpt lat="43.31331" lon="6.51358">
        <ele>232.2</ele>
        <time>2025-03-15T14:28:29.254Z</time>
      </trkpt>
      <trkpt lat="43.31326" lon="6.51327">
        <ele>232.07</ele>
        <time>2025-03-15T14:28:39.584Z</time>
      </trkpt>
      <trkpt lat="43.31321" lon="6.51314">
        <ele>231.96</ele>
        <time>2025-03-15T14:28:44.292Z</time>
      </trkpt>
      <trkpt lat="43.31312" lon="6.51296">
        <ele>231.78</ele>
        <time>2025-03-15T14:28:51.456Z</time>
      </trkpt>
      <trkpt lat="43.31304" lon="6.51285">
        <ele>231.59</ele>
        <time>2025-03-15T14:28:56.323Z</time>
      </trkpt>
      <trkpt lat="43.31296" lon="6.51271">
        <ele>231.4</ele>
        <time>2025-03-15T14:29:01.908Z</time>
      </trkpt>
      <trkpt lat="43.31292" lon="6.51264">
        <ele>231.2</ele>
        <time>2025-03-15T14:29:04.623Z</time>
      </trkpt>
      <trkpt lat="43.31289" lon="6.51257">
        <ele>230.98</ele>
        <time>2025-03-15T14:29:07.235Z</time>
      </trkpt>
      <trkpt lat="43.31285" lon="6.5125">
        <ele>230.73</ele>
        <time>2025-03-15T14:29:09.746Z</time>
      </trkpt>
      <trkpt lat="43.31282" lon="6.51243">
        <ele>230.45</ele>
        <time>2025-03-15T14:29:12.197Z</time>
      </trkpt>
      <trkpt lat="43.31277" lon="6.51237">
        <ele>230.14</ele>
        <time>2025-03-15T14:29:14.675Z</time>
      </trkpt>
      <trkpt lat="43.31267" lon="6.51225">
        <ele>229.78</ele>
        <time>2025-03-15T14:29:20.390Z</time>
      </trkpt>
      <trkpt lat="43.31262" lon="6.51221">
        <ele>229.43</ele>
        <time>2025-03-15T14:29:22.872Z</time>
      </trkpt>
      <trkpt lat="43.31256" lon="6.51216">
        <ele>229.05</ele>
        <time>2025-03-15T14:29:25.523Z</time>
      </trkpt>
      <trkpt lat="43.3125" lon="6.51211">
        <ele>228.65</ele>
        <time>2025-03-15T14:29:28.304Z</time>
      </trkpt>
      <trkpt lat="43.31244" lon="6.51205">
        <ele>228.24</ele>
        <time>2025-03-15T14:29:31.087Z</time>
      </trkpt>
      <trkpt lat="43.31239" lon="6.51199">
        <ele>227.79</ele>
        <time>2025-03-15T14:29:34.061Z</time>
      </trkpt>
      <trkpt lat="43.31233" lon="6.5119">
        <ele>227.33</ele>
        <time>2025-03-15T14:29:37.234Z</time>
      </trkpt>
      <trkpt lat="43.31229" lon="6.51181">
        <ele>226.87</ele>
        <time>2025-03-15T14:29:40.424Z</time>
      </trkpt>
      <trkpt lat="43.31224" lon="6.51171">
        <ele>226.39</ele>
        <time>2025-03-15T14:29:44.013Z</time>
      </trkpt>
      <trkpt lat="43.31219" lon="6.51162">
        <ele>225.88</ele>
        <time>2025-03-15T14:29:47.359Z</time>
      </trkpt>
      <trkpt lat="43.31212" lon="6.51154">
        <ele>225.34</ele>
        <time>2025-03-15T14:29:50.769Z</time>
      </trkpt>
      <trkpt lat="43.31206" lon="6.51148">
        <ele>224.78</ele>
        <time>2025-03-15T14:29:53.819Z</time>
      </trkpt>
      <trkpt lat="43.31202" lon="6.51139">
        <ele>224.23</ele>
        <time>2025-03-15T14:29:57.025Z</time>
      </trkpt>
      <trkpt lat="43.31198" lon="6.51128">
        <ele>223.67</ele>
        <time>2025-03-15T14:30:00.355Z</time>
      </trkpt>
      <trkpt lat="43.31196" lon="6.51118">
        <ele>223.12</ele>
        <time>2025-03-15T14:30:03.662Z</time>
      </trkpt>
      <trkpt lat="43.31194" lon="6.51105">
        <ele>222.56</ele>
        <time>2025-03-15T14:30:07.284Z</time>
      </trkpt>
      <trkpt lat="43.31191" lon="6.51094">
        <ele>221.97</ele>
        <time>2025-03-15T14:30:10.817Z</time>
      </trkpt>
      <trkpt lat="43.3119" lon="6.51082">
        <ele>221.39</ele>
        <time>2025-03-15T14:30:14.249Z</time>
      </trkpt>
      <trkpt lat="43.31189" lon="6.5107">
        <ele>220.84</ele>
        <time>2025-03-15T14:30:17.772Z</time>
      </trkpt>
      <trkpt lat="43.3119" lon="6.51058">
        <ele>220.31</ele>
        <time>2025-03-15T14:30:21.328Z</time>
      </trkpt>
      <trkpt lat="43.31191" lon="6.51046">
        <ele>219.75</ele>
        <time>2025-03-15T14:30:24.894Z</time>
      </trkpt>
      <trkpt lat="43.31193" lon="6.51034">
        <ele>219.17</ele>
        <time>2025-03-15T14:30:28.346Z</time>
      </trkpt>
      <trkpt lat="43.31193" lon="6.51021">
        <ele>218.6</ele>
        <time>2025-03-15T14:30:32.049Z</time>
      </trkpt>
      <trkpt lat="43.31193" lon="6.5101">
        <ele>218</ele>
        <time>2025-03-15T14:30:35.349Z</time>
      </trkpt>
      <trkpt lat="43.31191" lon="6.51">
        <ele>217.36</ele>
        <time>2025-03-15T14:30:38.348Z</time>
      </trkpt>
      <trkpt lat="43.31186" lon="6.50991">
        <ele>216.72</ele>
        <time>2025-03-15T14:30:41.625Z</time>
      </trkpt>
      <trkpt lat="43.3118" lon="6.50984">
        <ele>216.04</ele>
        <time>2025-03-15T14:30:44.820Z</time>
      </trkpt>
      <trkpt lat="43.31173" lon="6.50976">
        <ele>215.35</ele>
        <time>2025-03-15T14:30:48.317Z</time>
      </trkpt>
      <trkpt lat="43.31166" lon="6.50969">
        <ele>214.66</ele>
        <time>2025-03-15T14:30:51.773Z</time>
      </trkpt>
      <trkpt lat="43.3116" lon="6.50961">
        <ele>213.96</ele>
        <time>2025-03-15T14:30:55.106Z</time>
      </trkpt>
      <trkpt lat="43.31154" lon="6.50953">
        <ele>213.28</ele>
        <time>2025-03-15T14:30:58.625Z</time>
      </trkpt>
      <trkpt lat="43.31148" lon="6.50944">
        <ele>212.59</ele>
        <time>2025-03-15T14:31:02.017Z</time>
      </trkpt>
      <trkpt lat="43.31142" lon="6.50935">
        <ele>211.9</ele>
        <time>2025-03-15T14:31:05.585Z</time>
      </trkpt>
      <trkpt lat="43.31136" lon="6.50927">
        <ele>211.21</ele>
        <time>2025-03-15T14:31:09.015Z</time>
      </trkpt>
      <trkpt lat="43.31129" lon="6.50918">
        <ele>210.52</ele>
        <time>2025-03-15T14:31:12.683Z</time>
      </trkpt>
      <trkpt lat="43.31123" lon="6.50908">
        <ele>209.82</ele>
        <time>2025-03-15T14:31:16.360Z</time>
      </trkpt>
      <trkpt lat="43.31119" lon="6.50899">
        <ele>209.12</ele>
        <time>2025-03-15T14:31:19.708Z</time>
      </trkpt>
      <trkpt lat="43.31114" lon="6.50888">
        <ele>208.43</ele>
        <time>2025-03-15T14:31:23.295Z</time>
      </trkpt>
      <trkpt lat="43.31109" lon="6.50878">
        <ele>207.74</ele>
        <time>2025-03-15T14:31:26.863Z</time>
      </trkpt>
      <trkpt lat="43.31105" lon="6.50867">
        <ele>207.06</ele>
        <time>2025-03-15T14:31:30.427Z</time>
      </trkpt>
      <trkpt lat="43.311" lon="6.50857">
        <ele>206.37</ele>
        <time>2025-03-15T14:31:34.083Z</time>
      </trkpt>
      <trkpt lat="43.31095" lon="6.50847">
        <ele>205.69</ele>
        <time>2025-03-15T14:31:37.666Z</time>
      </trkpt>
      <trkpt lat="43.31088" lon="6.50841">
        <ele>204.98</ele>
        <time>2025-03-15T14:31:40.867Z</time>
      </trkpt>
      <trkpt lat="43.3108" lon="6.50837">
        <ele>204.26</ele>
        <time>2025-03-15T14:31:44.201Z</time>
      </trkpt>
      <trkpt lat="43.31072" lon="6.50834">
        <ele>203.55</ele>
        <time>2025-03-15T14:31:47.340Z</time>
      </trkpt>
      <trkpt lat="43.31064" lon="6.50831">
        <ele>202.85</ele>
        <time>2025-03-15T14:31:50.665Z</time>
      </trkpt>
      <trkpt lat="43.31057" lon="6.50825">
        <ele>202.18</ele>
        <time>2025-03-15T14:31:54.138Z</time>
      </trkpt>
      <trkpt lat="43.3105" lon="6.50817">
        <ele>201.53</ele>
        <time>2025-03-15T14:31:57.542Z</time>
      </trkpt>
      <trkpt lat="43.31044" lon="6.5081">
        <ele>200.91</ele>
        <time>2025-03-15T14:32:01.083Z</time>
      </trkpt>
      <trkpt lat="43.31037" lon="6.50802">
        <ele>200.31</ele>
        <time>2025-03-15T14:32:04.338Z</time>
      </trkpt>
      <trkpt lat="43.31032" lon="6.50796">
        <ele>199.72</ele>
        <time>2025-03-15T14:32:07.150Z</time>
      </trkpt>
      <trkpt lat="43.31029" lon="6.50788">
        <ele>199.17</ele>
        <time>2025-03-15T14:32:09.695Z</time>
      </trkpt>
      <trkpt lat="43.31027" lon="6.50779">
        <ele>198.63</ele>
        <time>2025-03-15T14:32:12.449Z</time>
      </trkpt>
      <trkpt lat="43.31026" lon="6.50771">
        <ele>198.11</ele>
        <time>2025-03-15T14:32:15.016Z</time>
      </trkpt>
      <trkpt lat="43.31026" lon="6.50761">
        <ele>197.62</ele>
        <time>2025-03-15T14:32:17.736Z</time>
      </trkpt>
      <trkpt lat="43.31035" lon="6.50729">
        <ele>197.11</ele>
        <time>2025-03-15T14:32:28.459Z</time>
      </trkpt>
      <trkpt lat="43.3105" lon="6.50716">
        <ele>196.57</ele>
        <time>2025-03-15T14:32:35.934Z</time>
      </trkpt>
      <trkpt lat="43.31056" lon="6.50713">
        <ele>196.1</ele>
        <time>2025-03-15T14:32:38.558Z</time>
      </trkpt>
      <trkpt lat="43.31062" lon="6.50709">
        <ele>195.65</ele>
        <time>2025-03-15T14:32:41.115Z</time>
      </trkpt>
      <trkpt lat="43.31068" lon="6.50705">
        <ele>195.2</ele>
        <time>2025-03-15T14:32:43.647Z</time>
      </trkpt>
      <trkpt lat="43.31073" lon="6.50701">
        <ele>194.76</ele>
        <time>2025-03-15T14:32:46.167Z</time>
      </trkpt>
      <trkpt lat="43.31079" lon="6.50696">
        <ele>194.34</ele>
        <time>2025-03-15T14:32:48.799Z</time>
      </trkpt>
      <trkpt lat="43.31085" lon="6.50691">
        <ele>193.93</ele>
        <time>2025-03-15T14:32:51.673Z</time>
      </trkpt>
      <trkpt lat="43.31105" lon="6.50681">
        <ele>193.53</ele>
        <time>2025-03-15T14:33:00.697Z</time>
      </trkpt>
      <trkpt lat="43.31111" lon="6.5068">
        <ele>193.18</ele>
        <time>2025-03-15T14:33:03.340Z</time>
      </trkpt>
      <trkpt lat="43.31132" lon="6.50678">
        <ele>192.82</ele>
        <time>2025-03-15T14:33:12.161Z</time>
      </trkpt>
      <trkpt lat="43.31139" lon="6.50676">
        <ele>192.49</ele>
        <time>2025-03-15T14:33:15.207Z</time>
      </trkpt>
      <trkpt lat="43.31153" lon="6.50671">
        <ele>192.15</ele>
        <time>2025-03-15T14:33:21.270Z</time>
      </trkpt>
      <trkpt lat="43.3116" lon="6.5067">
        <ele>191.87</ele>
        <time>2025-03-15T14:33:24.250Z</time>
      </trkpt>
      <trkpt lat="43.31168" lon="6.50669">
        <ele>191.63</ele>
        <time>2025-03-15T14:33:27.449Z</time>
      </trkpt>
      <trkpt lat="43.31175" lon="6.50668">
        <ele>191.42</ele>
        <time>2025-03-15T14:33:30.654Z</time>
      </trkpt>
      <trkpt lat="43.31183" lon="6.50668">
        <ele>191.23</ele>
        <time>2025-03-15T14:33:33.863Z</time>
      </trkpt>
      <trkpt lat="43.31199" lon="6.50665">
        <ele>191.02</ele>
        <time>2025-03-15T14:33:40.929Z</time>
      </trkpt>
      <trkpt lat="43.31207" lon="6.50664">
        <ele>190.83</ele>
        <time>2025-03-15T14:33:44.137Z</time>
      </trkpt>
      <trkpt lat="43.31214" lon="6.50662">
        <ele>190.67</ele>
        <time>2025-03-15T14:33:47.406Z</time>
      </trkpt>
      <trkpt lat="43.31222" lon="6.50661">
        <ele>190.55</ele>
        <time>2025-03-15T14:33:50.733Z</time>
      </trkpt>
      <trkpt lat="43.31229" lon="6.50658">
        <ele>190.47</ele>
        <time>2025-03-15T14:33:54.078Z</time>
      </trkpt>
      <trkpt lat="43.31237" lon="6.50656">
        <ele>190.42</ele>
        <time>2025-03-15T14:33:57.665Z</time>
      </trkpt>
      <trkpt lat="43.31245" lon="6.50653">
        <ele>190.41</ele>
        <time>2025-03-15T14:34:01.570Z</time>
      </trkpt>
      <trkpt lat="43.31253" lon="6.50649">
        <ele>190.42</ele>
        <time>2025-03-15T14:34:05.383Z</time>
      </trkpt>
      <trkpt lat="43.31261" lon="6.50647">
        <ele>190.46</ele>
        <time>2025-03-15T14:34:09.272Z</time>
      </trkpt>
      <trkpt lat="43.31269" lon="6.50644">
        <ele>190.51</ele>
        <time>2025-03-15T14:34:13.130Z</time>
      </trkpt>
      <trkpt lat="43.31293" lon="6.50637">
        <ele>190.61</ele>
        <time>2025-03-15T14:34:24.308Z</time>
      </trkpt>
      <trkpt lat="43.31301" lon="6.50636">
        <ele>190.72</ele>
        <time>2025-03-15T14:34:28.006Z</time>
      </trkpt>
      <trkpt lat="43.31308" lon="6.50633">
        <ele>190.84</ele>
        <time>2025-03-15T14:34:31.807Z</time>
      </trkpt>
      <trkpt lat="43.31316" lon="6.50631">
        <ele>190.97</ele>
        <time>2025-03-15T14:34:35.559Z</time>
      </trkpt>
      <trkpt lat="43.31323" lon="6.50629">
        <ele>191.14</ele>
        <time>2025-03-15T14:34:39.245Z</time>
      </trkpt>
      <trkpt lat="43.3133" lon="6.50627">
        <ele>191.34</ele>
        <time>2025-03-15T14:34:42.909Z</time>
      </trkpt>
      <trkpt lat="43.31357" lon="6.5062">
        <ele>191.54</ele>
        <time>2025-03-15T14:34:55.699Z</time>
      </trkpt>
      <trkpt lat="43.3137" lon="6.50617">
        <ele>191.76</ele>
        <time>2025-03-15T14:35:01.962Z</time>
      </trkpt>
      <trkpt lat="43.31376" lon="6.50617">
        <ele>192</ele>
        <time>2025-03-15T14:35:05.172Z</time>
      </trkpt>
      <trkpt lat="43.31388" lon="6.50616">
        <ele>192.27</ele>
        <time>2025-03-15T14:35:10.771Z</time>
      </trkpt>
      <trkpt lat="43.31398" lon="6.50616">
        <ele>192.57</ele>
        <time>2025-03-15T14:35:15.891Z</time>
      </trkpt>
      <trkpt lat="43.31403" lon="6.50617">
        <ele>192.87</ele>
        <time>2025-03-15T14:35:18.831Z</time>
      </trkpt>
      <trkpt lat="43.31418" lon="6.5062">
        <ele>193.2</ele>
        <time>2025-03-15T14:35:26.169Z</time>
      </trkpt>
      <trkpt lat="43.31428" lon="6.50623">
        <ele>193.54</ele>
        <time>2025-03-15T14:35:31.135Z</time>
      </trkpt>
      <trkpt lat="43.31433" lon="6.50625">
        <ele>193.89</ele>
        <time>2025-03-15T14:35:34.093Z</time>
      </trkpt>
      <trkpt lat="43.31447" lon="6.50631">
        <ele>194.26</ele>
        <time>2025-03-15T14:35:41.532Z</time>
      </trkpt>
      <trkpt lat="43.31452" lon="6.50633">
        <ele>194.64</ele>
        <time>2025-03-15T14:35:44.417Z</time>
      </trkpt>
      <trkpt lat="43.31457" lon="6.50635">
        <ele>195.03</ele>
        <time>2025-03-15T14:35:47.571Z</time>
      </trkpt>
      <trkpt lat="43.31462" lon="6.50637">
        <ele>195.43</ele>
        <time>2025-03-15T14:35:50.463Z</time>
      </trkpt>
      <trkpt lat="43.31467" lon="6.50639">
        <ele>195.84</ele>
        <time>2025-03-15T14:35:53.427Z</time>
      </trkpt>
      <trkpt lat="43.31499" lon="6.50652">
        <ele>196.34</ele>
        <time>2025-03-15T14:36:09.643Z</time>
      </trkpt>
      <trkpt lat="43.31508" lon="6.50656">
        <ele>196.78</ele>
        <time>2025-03-15T14:36:14.522Z</time>
      </trkpt>
      <trkpt lat="43.31512" lon="6.50657">
        <ele>197.21</ele>
        <time>2025-03-15T14:36:17.271Z</time>
      </trkpt>
      <trkpt lat="43.31516" lon="6.50658">
        <ele>197.66</ele>
        <time>2025-03-15T14:36:19.983Z</time>
      </trkpt>
      <trkpt lat="43.3152" lon="6.5066">
        <ele>198.11</ele>
        <time>2025-03-15T14:36:22.704Z</time>
      </trkpt>
      <trkpt lat="43.31524" lon="6.50661">
        <ele>198.57</ele>
        <time>2025-03-15T14:36:25.429Z</time>
      </trkpt>
      <trkpt lat="43.31528" lon="6.50663">
        <ele>199.03</ele>
        <time>2025-03-15T14:36:28.264Z</time>
      </trkpt>
      <trkpt lat="43.31545" lon="6.50669">
        <ele>199.54</ele>
        <time>2025-03-15T14:36:36.889Z</time>
      </trkpt>
      <trkpt lat="43.31549" lon="6.5067">
        <ele>200.02</ele>
        <time>2025-03-15T14:36:39.780Z</time>
      </trkpt>
      <trkpt lat="43.31554" lon="6.50671">
        <ele>200.48</ele>
        <time>2025-03-15T14:36:42.606Z</time>
      </trkpt>
      <trkpt lat="43.31558" lon="6.50672">
        <ele>200.94</ele>
        <time>2025-03-15T14:36:45.378Z</time>
      </trkpt>
      <trkpt lat="43.31562" lon="6.50673">
        <ele>201.39</ele>
        <time>2025-03-15T14:36:48.103Z</time>
      </trkpt>
      <trkpt lat="43.31586" lon="6.50674">
        <ele>201.86</ele>
        <time>2025-03-15T14:36:59.612Z</time>
      </trkpt>
      <trkpt lat="43.3159" lon="6.50674">
        <ele>202.31</ele>
        <time>2025-03-15T14:37:02.506Z</time>
      </trkpt>
      <trkpt lat="43.31595" lon="6.50675">
        <ele>202.76</ele>
        <time>2025-03-15T14:37:05.529Z</time>
      </trkpt>
      <trkpt lat="43.316" lon="6.50675">
        <ele>203.2</ele>
        <time>2025-03-15T14:37:08.384Z</time>
      </trkpt>
      <trkpt lat="43.31604" lon="6.50675">
        <ele>203.64</ele>
        <time>2025-03-15T14:37:11.086Z</time>
      </trkpt>
      <trkpt lat="43.31613" lon="6.50674">
        <ele>204.09</ele>
        <time>2025-03-15T14:37:16.030Z</time>
      </trkpt>
      <trkpt lat="43.31622" lon="6.50673">
        <ele>204.53</ele>
        <time>2025-03-15T14:37:20.786Z</time>
      </trkpt>
      <trkpt lat="43.31626" lon="6.50673">
        <ele>204.95</ele>
        <time>2025-03-15T14:37:23.482Z</time>
      </trkpt>
      <trkpt lat="43.31631" lon="6.50673">
        <ele>205.37</ele>
        <time>2025-03-15T14:37:26.259Z</time>
      </trkpt>
      <trkpt lat="43.31635" lon="6.50672">
        <ele>205.77</ele>
        <time>2025-03-15T14:37:28.995Z</time>
      </trkpt>
      <trkpt lat="43.31639" lon="6.50672">
        <ele>206.17</ele>
        <time>2025-03-15T14:37:31.696Z</time>
      </trkpt>
      <trkpt lat="43.31644" lon="6.50672">
        <ele>206.57</ele>
        <time>2025-03-15T14:37:34.380Z</time>
      </trkpt>
      <trkpt lat="43.31652" lon="6.5067">
        <ele>206.98</ele>
        <time>2025-03-15T14:37:38.857Z</time>
      </trkpt>
      <trkpt lat="43.31665" lon="6.50667">
        <ele>207.38</ele>
        <time>2025-03-15T14:37:45.622Z</time>
      </trkpt>
      <trkpt lat="43.31675" lon="6.50665">
        <ele>207.76</ele>
        <time>2025-03-15T14:37:50.452Z</time>
      </trkpt>
      <trkpt lat="43.31679" lon="6.50664">
        <ele>208.13</ele>
        <time>2025-03-15T14:37:53.136Z</time>
      </trkpt>
      <trkpt lat="43.31683" lon="6.50662">
        <ele>208.48</ele>
        <time>2025-03-15T14:37:55.774Z</time>
      </trkpt>
      <trkpt lat="43.31688" lon="6.50661">
        <ele>208.82</ele>
        <time>2025-03-15T14:37:58.359Z</time>
      </trkpt>
      <trkpt lat="43.31696" lon="6.50658">
        <ele>209.15</ele>
        <time>2025-03-15T14:38:02.944Z</time>
      </trkpt>
      <trkpt lat="43.31724" lon="6.50656">
        <ele>209.48</ele>
        <time>2025-03-15T14:38:15.958Z</time>
      </trkpt>
      <trkpt lat="43.31733" lon="6.50658">
        <ele>209.79</ele>
        <time>2025-03-15T14:38:20.861Z</time>
      </trkpt>
      <trkpt lat="43.31738" lon="6.50659">
        <ele>210.1</ele>
        <time>2025-03-15T14:38:23.575Z</time>
      </trkpt>
      <trkpt lat="43.31743" lon="6.50659">
        <ele>210.39</ele>
        <time>2025-03-15T14:38:26.181Z</time>
      </trkpt>
      <trkpt lat="43.31747" lon="6.5066">
        <ele>210.69</ele>
        <time>2025-03-15T14:38:28.676Z</time>
      </trkpt>
      <trkpt lat="43.31751" lon="6.50661">
        <ele>210.98</ele>
        <time>2025-03-15T14:38:31.060Z</time>
      </trkpt>
      <trkpt lat="43.31759" lon="6.50663">
        <ele>211.27</ele>
        <time>2025-03-15T14:38:35.075Z</time>
      </trkpt>
      <trkpt lat="43.31787" lon="6.50672">
        <ele>211.56</ele>
        <time>2025-03-15T14:38:48.548Z</time>
      </trkpt>
      <trkpt lat="43.31791" lon="6.50673">
        <ele>211.83</ele>
        <time>2025-03-15T14:38:51.116Z</time>
      </trkpt>
      <trkpt lat="43.31796" lon="6.50675">
        <ele>212.09</ele>
        <time>2025-03-15T14:38:53.600Z</time>
      </trkpt>
      <trkpt lat="43.31801" lon="6.50676">
        <ele>212.35</ele>
        <time>2025-03-15T14:38:56.285Z</time>
      </trkpt>
      <trkpt lat="43.31826" lon="6.50687">
        <ele>212.66</ele>
        <time>2025-03-15T14:39:08.917Z</time>
      </trkpt>
      <trkpt lat="43.31839" lon="6.50693">
        <ele>212.94</ele>
        <time>2025-03-15T14:39:15.439Z</time>
      </trkpt>
      <trkpt lat="43.31843" lon="6.50695">
        <ele>213.2</ele>
        <time>2025-03-15T14:39:17.751Z</time>
      </trkpt>
      <trkpt lat="43.31847" lon="6.50696">
        <ele>213.47</ele>
        <time>2025-03-15T14:39:20.064Z</time>
      </trkpt>
      <trkpt lat="43.3185" lon="6.50698">
        <ele>213.73</ele>
        <time>2025-03-15T14:39:22.249Z</time>
      </trkpt>
      <trkpt lat="43.31854" lon="6.507">
        <ele>213.99</ele>
        <time>2025-03-15T14:39:24.412Z</time>
      </trkpt>
      <trkpt lat="43.31873" lon="6.5071">
        <ele>214.25</ele>
        <time>2025-03-15T14:39:34.047Z</time>
      </trkpt>
      <trkpt lat="43.31876" lon="6.50713">
        <ele>214.5</ele>
        <time>2025-03-15T14:39:36.250Z</time>
      </trkpt>
      <trkpt lat="43.31879" lon="6.50715">
        <ele>214.76</ele>
        <time>2025-03-15T14:39:38.458Z</time>
      </trkpt>
      <trkpt lat="43.31883" lon="6.50718">
        <ele>215.01</ele>
        <time>2025-03-15T14:39:40.645Z</time>
      </trkpt>
      <trkpt lat="43.31886" lon="6.50721">
        <ele>215.27</ele>
        <time>2025-03-15T14:39:42.720Z</time>
      </trkpt>
      <trkpt lat="43.31898" lon="6.50731">
        <ele>215.6</ele>
        <time>2025-03-15T14:39:49.792Z</time>
      </trkpt>
      <trkpt lat="43.31901" lon="6.50732">
        <ele>215.86</ele>
        <time>2025-03-15T14:39:51.649Z</time>
      </trkpt>
      <trkpt lat="43.31904" lon="6.50733">
        <ele>216.13</ele>
        <time>2025-03-15T14:39:53.610Z</time>
      </trkpt>
      <trkpt lat="43.31908" lon="6.50732">
        <ele>216.39</ele>
        <time>2025-03-15T14:39:55.645Z</time>
      </trkpt>
      <trkpt lat="43.31911" lon="6.50729">
        <ele>216.65</ele>
        <time>2025-03-15T14:39:57.701Z</time>
      </trkpt>
      <trkpt lat="43.31914" lon="6.50711">
        <ele>216.93</ele>
        <time>2025-03-15T14:40:04.287Z</time>
      </trkpt>
      <trkpt lat="43.31904" lon="6.50692">
        <ele>217.18</ele>
        <time>2025-03-15T14:40:12.505Z</time>
      </trkpt>
      <trkpt lat="43.31901" lon="6.50688">
        <ele>217.45</ele>
        <time>2025-03-15T14:40:14.910Z</time>
      </trkpt>
      <trkpt lat="43.31897" lon="6.50685">
        <ele>217.7</ele>
        <time>2025-03-15T14:40:17.436Z</time>
      </trkpt>
      <trkpt lat="43.31883" lon="6.50672">
        <ele>217.97</ele>
        <time>2025-03-15T14:40:25.564Z</time>
      </trkpt>
      <trkpt lat="43.31879" lon="6.50669">
        <ele>218.24</ele>
        <time>2025-03-15T14:40:27.870Z</time>
      </trkpt>
      <trkpt lat="43.31876" lon="6.50665">
        <ele>218.51</ele>
        <time>2025-03-15T14:40:30.175Z</time>
      </trkpt>
      <trkpt lat="43.31873" lon="6.50663">
        <ele>218.79</ele>
        <time>2025-03-15T14:40:32.352Z</time>
      </trkpt>
      <trkpt lat="43.31869" lon="6.50659">
        <ele>219.08</ele>
        <time>2025-03-15T14:40:34.716Z</time>
      </trkpt>
      <trkpt lat="43.31857" lon="6.50646">
        <ele>219.41</ele>
        <time>2025-03-15T14:40:42.431Z</time>
      </trkpt>
      <trkpt lat="43.31851" lon="6.50639">
        <ele>219.72</ele>
        <time>2025-03-15T14:40:46.406Z</time>
      </trkpt>
      <trkpt lat="43.31849" lon="6.50634">
        <ele>220.02</ele>
        <time>2025-03-15T14:40:48.724Z</time>
      </trkpt>
      <trkpt lat="43.31847" lon="6.5063">
        <ele>220.32</ele>
        <time>2025-03-15T14:40:50.930Z</time>
      </trkpt>
      <trkpt lat="43.31845" lon="6.50626">
        <ele>220.64</ele>
        <time>2025-03-15T14:40:53.207Z</time>
      </trkpt>
      <trkpt lat="43.31842" lon="6.50622">
        <ele>220.95</ele>
        <time>2025-03-15T14:40:55.381Z</time>
      </trkpt>
      <trkpt lat="43.3183" lon="6.50614">
        <ele>221.22</ele>
        <time>2025-03-15T14:41:02.216Z</time>
      </trkpt>
      <trkpt lat="43.31826" lon="6.50613">
        <ele>221.53</ele>
        <time>2025-03-15T14:41:04.366Z</time>
      </trkpt>
      <trkpt lat="43.31823" lon="6.50611">
        <ele>221.85</ele>
        <time>2025-03-15T14:41:06.667Z</time>
      </trkpt>
      <trkpt lat="43.31819" lon="6.5061">
        <ele>222.17</ele>
        <time>2025-03-15T14:41:08.848Z</time>
      </trkpt>
      <trkpt lat="43.31816" lon="6.50607">
        <ele>222.52</ele>
        <time>2025-03-15T14:41:11.169Z</time>
      </trkpt>
      <trkpt lat="43.31805" lon="6.50601">
        <ele>222.88</ele>
        <time>2025-03-15T14:41:16.894Z</time>
      </trkpt>
      <trkpt lat="43.31785" lon="6.50591">
        <ele>223.22</ele>
        <time>2025-03-15T14:41:27.208Z</time>
      </trkpt>
      <trkpt lat="43.31782" lon="6.50589">
        <ele>223.57</ele>
        <time>2025-03-15T14:41:29.366Z</time>
      </trkpt>
      <trkpt lat="43.31778" lon="6.50588">
        <ele>223.92</ele>
        <time>2025-03-15T14:41:31.795Z</time>
      </trkpt>
      <trkpt lat="43.31775" lon="6.50586">
        <ele>224.3</ele>
        <time>2025-03-15T14:41:34.008Z</time>
      </trkpt>
      <trkpt lat="43.31772" lon="6.50583">
        <ele>224.68</ele>
        <time>2025-03-15T14:41:36.345Z</time>
      </trkpt>
      <trkpt lat="43.31765" lon="6.50579">
        <ele>225.1</ele>
        <time>2025-03-15T14:41:40.456Z</time>
      </trkpt>
      <trkpt lat="43.31748" lon="6.50565">
        <ele>225.62</ele>
        <time>2025-03-15T14:41:50.450Z</time>
      </trkpt>
      <trkpt lat="43.31744" lon="6.50563">
        <ele>226.03</ele>
        <time>2025-03-15T14:41:53.029Z</time>
      </trkpt>
      <trkpt lat="43.31741" lon="6.5056">
        <ele>226.45</ele>
        <time>2025-03-15T14:41:55.637Z</time>
      </trkpt>
      <trkpt lat="43.31737" lon="6.50558">
        <ele>226.88</ele>
        <time>2025-03-15T14:41:58.151Z</time>
      </trkpt>
      <trkpt lat="43.31734" lon="6.50555">
        <ele>227.31</ele>
        <time>2025-03-15T14:42:00.777Z</time>
      </trkpt>
      <trkpt lat="43.3172" lon="6.50546">
        <ele>227.79</ele>
        <time>2025-03-15T14:42:08.415Z</time>
      </trkpt>
      <trkpt lat="43.31717" lon="6.50543">
        <ele>228.23</ele>
        <time>2025-03-15T14:42:11.058Z</time>
      </trkpt>
      <trkpt lat="43.31713" lon="6.50541">
        <ele>228.66</ele>
        <time>2025-03-15T14:42:13.528Z</time>
      </trkpt>
      <trkpt lat="43.3171" lon="6.50538">
        <ele>229.1</ele>
        <time>2025-03-15T14:42:16.017Z</time>
      </trkpt>
      <trkpt lat="43.31707" lon="6.50536">
        <ele>229.54</ele>
        <time>2025-03-15T14:42:18.406Z</time>
      </trkpt>
      <trkpt lat="43.31702" lon="6.50532">
        <ele>229.99</ele>
        <time>2025-03-15T14:42:21.978Z</time>
      </trkpt>
      <trkpt lat="43.31697" lon="6.50527">
        <ele>230.45</ele>
        <time>2025-03-15T14:42:25.615Z</time>
      </trkpt>
      <trkpt lat="43.31694" lon="6.50525">
        <ele>230.89</ele>
        <time>2025-03-15T14:42:27.854Z</time>
      </trkpt>
      <trkpt lat="43.31691" lon="6.50524">
        <ele>231.33</ele>
        <time>2025-03-15T14:42:30.074Z</time>
      </trkpt>
      <trkpt lat="43.31689" lon="6.50522">
        <ele>231.77</ele>
        <time>2025-03-15T14:42:32.352Z</time>
      </trkpt>
      <trkpt lat="43.31685" lon="6.50521">
        <ele>232.21</ele>
        <time>2025-03-15T14:42:34.662Z</time>
      </trkpt>
      <trkpt lat="43.31666" lon="6.50516">
        <ele>232.65</ele>
        <time>2025-03-15T14:42:44.542Z</time>
      </trkpt>
      <trkpt lat="43.31662" lon="6.50515">
        <ele>233.09</ele>
        <time>2025-03-15T14:42:46.902Z</time>
      </trkpt>
      <trkpt lat="43.31659" lon="6.50514">
        <ele>233.53</ele>
        <time>2025-03-15T14:42:49.186Z</time>
      </trkpt>
      <trkpt lat="43.31656" lon="6.50514">
        <ele>233.96</ele>
        <time>2025-03-15T14:42:51.362Z</time>
      </trkpt>
      <trkpt lat="43.31654" lon="6.50513">
        <ele>234.4</ele>
        <time>2025-03-15T14:42:53.564Z</time>
      </trkpt>
      <trkpt lat="43.31645" lon="6.50509">
        <ele>234.86</ele>
        <time>2025-03-15T14:42:58.399Z</time>
      </trkpt>
      <trkpt lat="43.31632" lon="6.50503">
        <ele>235.33</ele>
        <time>2025-03-15T14:43:05.226Z</time>
      </trkpt>
      <trkpt lat="43.3163" lon="6.50501">
        <ele>235.77</ele>
        <time>2025-03-15T14:43:07.530Z</time>
      </trkpt>
      <trkpt lat="43.31627" lon="6.50499">
        <ele>236.21</ele>
        <time>2025-03-15T14:43:09.857Z</time>
      </trkpt>
      <trkpt lat="43.31625" lon="6.50497">
        <ele>236.66</ele>
        <time>2025-03-15T14:43:12.059Z</time>
      </trkpt>
      <trkpt lat="43.31622" lon="6.50495">
        <ele>237.11</ele>
        <time>2025-03-15T14:43:14.248Z</time>
      </trkpt>
      <trkpt lat="43.31614" lon="6.50486">
        <ele>237.6</ele>
        <time>2025-03-15T14:43:20.011Z</time>
      </trkpt>
      <trkpt lat="43.31612" lon="6.50482">
        <ele>238.06</ele>
        <time>2025-03-15T14:43:22.332Z</time>
      </trkpt>
      <trkpt lat="43.3161" lon="6.50479">
        <ele>238.52</ele>
        <time>2025-03-15T14:43:24.747Z</time>
      </trkpt>
      <trkpt lat="43.31608" lon="6.50476">
        <ele>238.97</ele>
        <time>2025-03-15T14:43:27.045Z</time>
      </trkpt>
      <trkpt lat="43.31605" lon="6.50473">
        <ele>239.41</ele>
        <time>2025-03-15T14:43:29.397Z</time>
      </trkpt>
      <trkpt lat="43.31603" lon="6.5047">
        <ele>239.86</ele>
        <time>2025-03-15T14:43:31.644Z</time>
      </trkpt>
      <trkpt lat="43.31601" lon="6.50467">
        <ele>240.32</ele>
        <time>2025-03-15T14:43:34.071Z</time>
      </trkpt>
      <trkpt lat="43.31588" lon="6.50453">
        <ele>240.87</ele>
        <time>2025-03-15T14:43:42.238Z</time>
      </trkpt>
      <trkpt lat="43.31585" lon="6.50452">
        <ele>241.28</ele>
        <time>2025-03-15T14:43:44.465Z</time>
      </trkpt>
      <trkpt lat="43.31582" lon="6.50452">
        <ele>241.69</ele>
        <time>2025-03-15T14:43:46.601Z</time>
      </trkpt>
      <trkpt lat="43.31579" lon="6.50452">
        <ele>242.08</ele>
        <time>2025-03-15T14:43:48.751Z</time>
      </trkpt>
      <trkpt lat="43.31576" lon="6.50453">
        <ele>242.46</ele>
        <time>2025-03-15T14:43:51.062Z</time>
      </trkpt>
      <trkpt lat="43.31572" lon="6.50453">
        <ele>242.84</ele>
        <time>2025-03-15T14:43:53.492Z</time>
      </trkpt>
      <trkpt lat="43.31553" lon="6.50458">
        <ele>243.16</ele>
        <time>2025-03-15T14:44:02.972Z</time>
      </trkpt>
      <trkpt lat="43.3155" lon="6.50459">
        <ele>243.55</ele>
        <time>2025-03-15T14:44:05.093Z</time>
      </trkpt>
      <trkpt lat="43.31546" lon="6.50459">
        <ele>243.94</ele>
        <time>2025-03-15T14:44:07.359Z</time>
      </trkpt>
      <trkpt lat="43.31542" lon="6.50459">
        <ele>244.32</ele>
        <time>2025-03-15T14:44:09.723Z</time>
      </trkpt>
      <trkpt lat="43.31539" lon="6.50459">
        <ele>244.71</ele>
        <time>2025-03-15T14:44:11.924Z</time>
      </trkpt>
      <trkpt lat="43.31526" lon="6.50457">
        <ele>245.12</ele>
        <time>2025-03-15T14:44:18.419Z</time>
      </trkpt>
      <trkpt lat="43.31511" lon="6.50454">
        <ele>245.54</ele>
        <time>2025-03-15T14:44:26.241Z</time>
      </trkpt>
      <trkpt lat="43.31507" lon="6.50453">
        <ele>245.94</ele>
        <time>2025-03-15T14:44:28.580Z</time>
      </trkpt>
      <trkpt lat="43.31504" lon="6.50451">
        <ele>246.35</ele>
        <time>2025-03-15T14:44:30.991Z</time>
      </trkpt>
      <trkpt lat="43.31501" lon="6.50449">
        <ele>246.75</ele>
        <time>2025-03-15T14:44:33.276Z</time>
      </trkpt>
      <trkpt lat="43.31498" lon="6.50447">
        <ele>247.16</ele>
        <time>2025-03-15T14:44:35.642Z</time>
      </trkpt>
      <trkpt lat="43.31492" lon="6.50443">
        <ele>247.56</ele>
        <time>2025-03-15T14:44:39.398Z</time>
      </trkpt>
      <trkpt lat="43.31477" lon="6.50432">
        <ele>248</ele>
        <time>2025-03-15T14:44:47.706Z</time>
      </trkpt>
      <trkpt lat="43.31474" lon="6.5043">
        <ele>248.39</ele>
        <time>2025-03-15T14:44:50.105Z</time>
      </trkpt>
      <trkpt lat="43.3147" lon="6.50428">
        <ele>248.78</ele>
        <time>2025-03-15T14:44:52.537Z</time>
      </trkpt>
      <trkpt lat="43.31467" lon="6.50426">
        <ele>249.16</ele>
        <time>2025-03-15T14:44:54.688Z</time>
      </trkpt>
      <trkpt lat="43.31464" lon="6.50423">
        <ele>249.54</ele>
        <time>2025-03-15T14:44:57.128Z</time>
      </trkpt>
      <trkpt lat="43.31456" lon="6.50417">
        <ele>249.94</ele>
        <time>2025-03-15T14:45:02.049Z</time>
      </trkpt>
      <trkpt lat="43.31453" lon="6.50414">
        <ele>250.31</ele>
        <time>2025-03-15T14:45:04.400Z</time>
      </trkpt>
      <trkpt lat="43.3145" lon="6.50411">
        <ele>250.68</ele>
        <time>2025-03-15T14:45:06.559Z</time>
      </trkpt>
      <trkpt lat="43.31447" lon="6.50409">
        <ele>251.03</ele>
        <time>2025-03-15T14:45:08.704Z</time>
      </trkpt>
      <trkpt lat="43.31444" lon="6.50407">
        <ele>251.37</ele>
        <time>2025-03-15T14:45:10.971Z</time>
      </trkpt>
      <trkpt lat="43.31441" lon="6.50405">
        <ele>251.7</ele>
        <time>2025-03-15T14:45:13.092Z</time>
      </trkpt>
      <trkpt lat="43.31435" lon="6.50401">
        <ele>252.05</ele>
        <time>2025-03-15T14:45:16.690Z</time>
      </trkpt>
      <trkpt lat="43.31432" lon="6.504">
        <ele>252.37</ele>
        <time>2025-03-15T14:45:18.671Z</time>
      </trkpt>
      <trkpt lat="43.31428" lon="6.504">
        <ele>252.66</ele>
        <time>2025-03-15T14:45:20.777Z</time>
      </trkpt>
      <trkpt lat="43.31425" lon="6.50399">
        <ele>252.95</ele>
        <time>2025-03-15T14:45:22.705Z</time>
      </trkpt>
      <trkpt lat="43.31422" lon="6.50399">
        <ele>253.22</ele>
        <time>2025-03-15T14:45:24.575Z</time>
      </trkpt>
      <trkpt lat="43.3142" lon="6.504">
        <ele>253.46</ele>
        <time>2025-03-15T14:45:26.231Z</time>
      </trkpt>
      <trkpt lat="43.31417" lon="6.50401">
        <ele>253.69</ele>
        <time>2025-03-15T14:45:27.935Z</time>
      </trkpt>
      <trkpt lat="43.31414" lon="6.504">
        <ele>253.93</ele>
        <time>2025-03-15T14:45:29.798Z</time>
      </trkpt>
      <trkpt lat="43.3141" lon="6.504">
        <ele>254.15</ele>
        <time>2025-03-15T14:45:31.747Z</time>
      </trkpt>
      <trkpt lat="43.31407" lon="6.504">
        <ele>254.36</ele>
        <time>2025-03-15T14:45:33.535Z</time>
      </trkpt>
      <trkpt lat="43.31404" lon="6.504">
        <ele>254.56</ele>
        <time>2025-03-15T14:45:35.340Z</time>
      </trkpt>
      <trkpt lat="43.31397" lon="6.50398">
        <ele>254.77</ele>
        <time>2025-03-15T14:45:38.588Z</time>
      </trkpt>
      <trkpt lat="43.31389" lon="6.50398">
        <ele>254.96</ele>
        <time>2025-03-15T14:45:42.459Z</time>
      </trkpt>
      <trkpt lat="43.31386" lon="6.50398">
        <ele>255.12</ele>
        <time>2025-03-15T14:45:44.508Z</time>
      </trkpt>
      <trkpt lat="43.31382" lon="6.50398">
        <ele>255.26</ele>
        <time>2025-03-15T14:45:46.167Z</time>
      </trkpt>
      <trkpt lat="43.31379" lon="6.50397">
        <ele>255.39</ele>
        <time>2025-03-15T14:45:47.869Z</time>
      </trkpt>
      <trkpt lat="43.31375" lon="6.50397">
        <ele>255.49</ele>
        <time>2025-03-15T14:45:49.873Z</time>
      </trkpt>
      <trkpt lat="43.31355" lon="6.50388">
        <ele>255.55</ele>
        <time>2025-03-15T14:45:59.644Z</time>
      </trkpt>
      <trkpt lat="43.31352" lon="6.50386">
        <ele>255.66</ele>
        <time>2025-03-15T14:46:01.399Z</time>
      </trkpt>
      <trkpt lat="43.31349" lon="6.50384">
        <ele>255.75</ele>
        <time>2025-03-15T14:46:02.970Z</time>
      </trkpt>
      <trkpt lat="43.31346" lon="6.50382">
        <ele>255.84</ele>
        <time>2025-03-15T14:46:04.782Z</time>
      </trkpt>
      <trkpt lat="43.31342" lon="6.5038">
        <ele>255.93</ele>
        <time>2025-03-15T14:46:06.536Z</time>
      </trkpt>
      <trkpt lat="43.31339" lon="6.50377">
        <ele>256.04</ele>
        <time>2025-03-15T14:46:08.489Z</time>
      </trkpt>
      <trkpt lat="43.31336" lon="6.50373">
        <ele>256.13</ele>
        <time>2025-03-15T14:46:10.536Z</time>
      </trkpt>
      <trkpt lat="43.31322" lon="6.50351">
        <ele>256.31</ele>
        <time>2025-03-15T14:46:20.444Z</time>
      </trkpt>
      <trkpt lat="43.31319" lon="6.50347">
        <ele>256.43</ele>
        <time>2025-03-15T14:46:22.564Z</time>
      </trkpt>
      <trkpt lat="43.31316" lon="6.50343">
        <ele>256.55</ele>
        <time>2025-03-15T14:46:24.684Z</time>
      </trkpt>
      <trkpt lat="43.31314" lon="6.50338">
        <ele>256.67</ele>
        <time>2025-03-15T14:46:26.817Z</time>
      </trkpt>
      <trkpt lat="43.31311" lon="6.50335">
        <ele>256.79</ele>
        <time>2025-03-15T14:46:28.526Z</time>
      </trkpt>
      <trkpt lat="43.31305" lon="6.50321">
        <ele>256.98</ele>
        <time>2025-03-15T14:46:34.243Z</time>
      </trkpt>
      <trkpt lat="43.31302" lon="6.50318">
        <ele>257.1</ele>
        <time>2025-03-15T14:46:36.220Z</time>
      </trkpt>
      <trkpt lat="43.31299" lon="6.50314">
        <ele>257.22</ele>
        <time>2025-03-15T14:46:38.017Z</time>
      </trkpt>
      <trkpt lat="43.31295" lon="6.50311">
        <ele>257.33</ele>
        <time>2025-03-15T14:46:40.123Z</time>
      </trkpt>
      <trkpt lat="43.31292" lon="6.5031">
        <ele>257.44</ele>
        <time>2025-03-15T14:46:42.147Z</time>
      </trkpt>
      <trkpt lat="43.31288" lon="6.50308">
        <ele>257.54</ele>
        <time>2025-03-15T14:46:44.102Z</time>
      </trkpt>
      <trkpt lat="43.31272" lon="6.50308">
        <ele>257.58</ele>
        <time>2025-03-15T14:46:51.455Z</time>
      </trkpt>
      <trkpt lat="43.31268" lon="6.50307">
        <ele>257.68</ele>
        <time>2025-03-15T14:46:53.577Z</time>
      </trkpt>
      <trkpt lat="43.31263" lon="6.50308">
        <ele>257.78</ele>
        <time>2025-03-15T14:46:55.645Z</time>
      </trkpt>
      <trkpt lat="43.31259" lon="6.50307">
        <ele>257.9</ele>
        <time>2025-03-15T14:46:57.581Z</time>
      </trkpt>
      <trkpt lat="43.31256" lon="6.50307">
        <ele>258.01</ele>
        <time>2025-03-15T14:46:59.496Z</time>
      </trkpt>
      <trkpt lat="43.31248" lon="6.50307">
        <ele>258.11</ele>
        <time>2025-03-15T14:47:03.116Z</time>
      </trkpt>
      <trkpt lat="43.31244" lon="6.50307">
        <ele>258.24</ele>
        <time>2025-03-15T14:47:05.036Z</time>
      </trkpt>
      <trkpt lat="43.3124" lon="6.50308">
        <ele>258.38</ele>
        <time>2025-03-15T14:47:07.116Z</time>
      </trkpt>
      <trkpt lat="43.31236" lon="6.50307">
        <ele>258.54</ele>
        <time>2025-03-15T14:47:09.318Z</time>
      </trkpt>
      <trkpt lat="43.31232" lon="6.50307">
        <ele>258.7</ele>
        <time>2025-03-15T14:47:11.308Z</time>
      </trkpt>
      <trkpt lat="43.31219" lon="6.50305">
        <ele>258.88</ele>
        <time>2025-03-15T14:47:17.382Z</time>
      </trkpt>
      <trkpt lat="43.31215" lon="6.50304">
        <ele>259.06</ele>
        <time>2025-03-15T14:47:19.550Z</time>
      </trkpt>
      <trkpt lat="43.31212" lon="6.50302">
        <ele>259.26</ele>
        <time>2025-03-15T14:47:21.714Z</time>
      </trkpt>
      <trkpt lat="43.31208" lon="6.503">
        <ele>259.47</ele>
        <time>2025-03-15T14:47:23.810Z</time>
      </trkpt>
      <trkpt lat="43.31206" lon="6.50296">
        <ele>259.7</ele>
        <time>2025-03-15T14:47:26.008Z</time>
      </trkpt>
      <trkpt lat="43.31204" lon="6.50291">
        <ele>259.95</ele>
        <time>2025-03-15T14:47:28.050Z</time>
      </trkpt>
      <trkpt lat="43.31209" lon="6.50275">
        <ele>260.29</ele>
        <time>2025-03-15T14:47:34.279Z</time>
      </trkpt>
      <trkpt lat="43.31214" lon="6.50268">
        <ele>260.59</ele>
        <time>2025-03-15T14:47:38.314Z</time>
      </trkpt>
      <trkpt lat="43.31216" lon="6.50263">
        <ele>260.88</ele>
        <time>2025-03-15T14:47:40.558Z</time>
      </trkpt>
      <trkpt lat="43.31219" lon="6.5026">
        <ele>261.18</ele>
        <time>2025-03-15T14:47:42.616Z</time>
      </trkpt>
      <trkpt lat="43.31221" lon="6.50257">
        <ele>261.49</ele>
        <time>2025-03-15T14:47:44.650Z</time>
      </trkpt>
      <trkpt lat="43.31224" lon="6.50253">
        <ele>261.81</ele>
        <time>2025-03-15T14:47:46.994Z</time>
      </trkpt>
      <trkpt lat="43.31228" lon="6.50246">
        <ele>262.16</ele>
        <time>2025-03-15T14:47:50.431Z</time>
      </trkpt>
      <trkpt lat="43.3123" lon="6.50243">
        <ele>262.48</ele>
        <time>2025-03-15T14:47:52.422Z</time>
      </trkpt>
      <trkpt lat="43.31232" lon="6.5024">
        <ele>262.81</ele>
        <time>2025-03-15T14:47:54.301Z</time>
      </trkpt>
      <trkpt lat="43.31233" lon="6.50237">
        <ele>263.16</ele>
        <time>2025-03-15T14:47:56.295Z</time>
      </trkpt>
      <trkpt lat="43.31237" lon="6.50226">
        <ele>263.56</ele>
        <time>2025-03-15T14:48:00.822Z</time>
      </trkpt>
      <trkpt lat="43.3124" lon="6.50223">
        <ele>263.93</ele>
        <time>2025-03-15T14:48:02.970Z</time>
      </trkpt>
      <trkpt lat="43.3124" lon="6.50219">
        <ele>264.27</ele>
        <time>2025-03-15T14:48:04.994Z</time>
      </trkpt>
      <trkpt lat="43.31242" lon="6.50215">
        <ele>264.63</ele>
        <time>2025-03-15T14:48:07.190Z</time>
      </trkpt>
      <trkpt lat="43.31243" lon="6.5021">
        <ele>265</ele>
        <time>2025-03-15T14:48:09.530Z</time>
      </trkpt>
      <trkpt lat="43.31248" lon="6.50198">
        <ele>265.38</ele>
        <time>2025-03-15T14:48:14.691Z</time>
      </trkpt>
      <trkpt lat="43.31249" lon="6.50195">
        <ele>265.75</ele>
        <time>2025-03-15T14:48:16.701Z</time>
      </trkpt>
      <trkpt lat="43.3125" lon="6.50191">
        <ele>266.11</ele>
        <time>2025-03-15T14:48:18.749Z</time>
      </trkpt>
      <trkpt lat="43.31252" lon="6.50187">
        <ele>266.47</ele>
        <time>2025-03-15T14:48:20.938Z</time>
      </trkpt>
      <trkpt lat="43.31253" lon="6.50183">
        <ele>266.84</ele>
        <time>2025-03-15T14:48:23.114Z</time>
      </trkpt>
      <trkpt lat="43.3126" lon="6.50167">
        <ele>267.21</ele>
        <time>2025-03-15T14:48:29.566Z</time>
      </trkpt>
      <trkpt lat="43.31262" lon="6.50164">
        <ele>267.59</ele>
        <time>2025-03-15T14:48:31.714Z</time>
      </trkpt>
      <trkpt lat="43.31264" lon="6.50161">
        <ele>267.98</ele>
        <time>2025-03-15T14:48:33.968Z</time>
      </trkpt>
      <trkpt lat="43.31267" lon="6.50158">
        <ele>268.36</ele>
        <time>2025-03-15T14:48:36.109Z</time>
      </trkpt>
      <trkpt lat="43.3128" lon="6.50151">
        <ele>268.72</ele>
        <time>2025-03-15T14:48:43.384Z</time>
      </trkpt>
      <trkpt lat="43.31284" lon="6.50151">
        <ele>269.11</ele>
        <time>2025-03-15T14:48:45.591Z</time>
      </trkpt>
      <trkpt lat="43.31287" lon="6.50152">
        <ele>269.52</ele>
        <time>2025-03-15T14:48:47.969Z</time>
      </trkpt>
      <trkpt lat="43.3129" lon="6.50154">
        <ele>269.94</ele>
        <time>2025-03-15T14:48:50.243Z</time>
      </trkpt>
      <trkpt lat="43.31293" lon="6.50155">
        <ele>270.35</ele>
        <time>2025-03-15T14:48:52.477Z</time>
      </trkpt>
      <trkpt lat="43.31296" lon="6.50157">
        <ele>270.78</ele>
        <time>2025-03-15T14:48:54.789Z</time>
      </trkpt>
      <trkpt lat="43.31302" lon="6.5016">
        <ele>271.22</ele>
        <time>2025-03-15T14:48:58.493Z</time>
      </trkpt>
      <trkpt lat="43.31305" lon="6.50162">
        <ele>271.67</ele>
        <time>2025-03-15T14:49:00.863Z</time>
      </trkpt>
      <trkpt lat="43.31308" lon="6.50165">
        <ele>272.13</ele>
        <time>2025-03-15T14:49:03.471Z</time>
      </trkpt>
      <trkpt lat="43.31311" lon="6.50167">
        <ele>272.59</ele>
        <time>2025-03-15T14:49:05.903Z</time>
      </trkpt>
      <trkpt lat="43.31314" lon="6.50169">
        <ele>273.05</ele>
        <time>2025-03-15T14:49:08.312Z</time>
      </trkpt>
      <trkpt lat="43.31317" lon="6.50171">
        <ele>273.52</ele>
        <time>2025-03-15T14:49:10.753Z</time>
      </trkpt>
      <trkpt lat="43.31337" lon="6.50186">
        <ele>274.08</ele>
        <time>2025-03-15T14:49:21.895Z</time>
      </trkpt>
      <trkpt lat="43.3134" lon="6.50188">
        <ele>274.57</ele>
        <time>2025-03-15T14:49:24.317Z</time>
      </trkpt>
      <trkpt lat="43.31342" lon="6.50191">
        <ele>275.05</ele>
        <time>2025-03-15T14:49:26.684Z</time>
      </trkpt>
      <trkpt lat="43.31345" lon="6.50193">
        <ele>275.54</ele>
        <time>2025-03-15T14:49:29.196Z</time>
      </trkpt>
      <trkpt lat="43.31363" lon="6.50205">
        <ele>276.06</ele>
        <time>2025-03-15T14:49:39.135Z</time>
      </trkpt>
      <trkpt lat="43.31366" lon="6.50207">
        <ele>276.53</ele>
        <time>2025-03-15T14:49:41.615Z</time>
      </trkpt>
      <trkpt lat="43.31369" lon="6.50208">
        <ele>277</ele>
        <time>2025-03-15T14:49:44.062Z</time>
      </trkpt>
      <trkpt lat="43.31372" lon="6.5021">
        <ele>277.47</ele>
        <time>2025-03-15T14:49:46.518Z</time>
      </trkpt>
      <trkpt lat="43.31376" lon="6.50212">
        <ele>277.93</ele>
        <time>2025-03-15T14:49:49.028Z</time>
      </trkpt>
      <trkpt lat="43.31392" lon="6.50218">
        <ele>278.42</ele>
        <time>2025-03-15T14:49:57.306Z</time>
      </trkpt>
      <trkpt lat="43.31398" lon="6.5022">
        <ele>278.89</ele>
        <time>2025-03-15T14:50:01.130Z</time>
      </trkpt>
      <trkpt lat="43.31401" lon="6.50221">
        <ele>279.35</ele>
        <time>2025-03-15T14:50:03.505Z</time>
      </trkpt>
      <trkpt lat="43.31404" lon="6.50223">
        <ele>279.8</ele>
        <time>2025-03-15T14:50:05.896Z</time>
      </trkpt>
      <trkpt lat="43.31408" lon="6.50224">
        <ele>280.25</ele>
        <time>2025-03-15T14:50:08.319Z</time>
      </trkpt>
      <trkpt lat="43.31411" lon="6.50225">
        <ele>280.7</ele>
        <time>2025-03-15T14:50:10.735Z</time>
      </trkpt>
      <trkpt lat="43.3143" lon="6.50233">
        <ele>281.18</ele>
        <time>2025-03-15T14:50:20.686Z</time>
      </trkpt>
      <trkpt lat="43.31433" lon="6.50234">
        <ele>281.61</ele>
        <time>2025-03-15T14:50:22.997Z</time>
      </trkpt>
      <trkpt lat="43.31436" lon="6.50235">
        <ele>282.05</ele>
        <time>2025-03-15T14:50:25.282Z</time>
      </trkpt>
      <trkpt lat="43.31439" lon="6.50237">
        <ele>282.48</ele>
        <time>2025-03-15T14:50:27.605Z</time>
      </trkpt>
      <trkpt lat="43.31443" lon="6.50238">
        <ele>282.9</ele>
        <time>2025-03-15T14:50:29.963Z</time>
      </trkpt>
      <trkpt lat="43.31453" lon="6.50242">
        <ele>283.34</ele>
        <time>2025-03-15T14:50:35.608Z</time>
      </trkpt>
      <trkpt lat="43.31457" lon="6.50243">
        <ele>283.76</ele>
        <time>2025-03-15T14:50:38.009Z</time>
      </trkpt>
      <trkpt lat="43.3146" lon="6.50245">
        <ele>284.17</ele>
        <time>2025-03-15T14:50:40.379Z</time>
      </trkpt>
      <trkpt lat="43.31463" lon="6.50246">
        <ele>284.58</ele>
        <time>2025-03-15T14:50:42.744Z</time>
      </trkpt>
      <trkpt lat="43.31467" lon="6.50247">
        <ele>284.99</ele>
        <time>2025-03-15T14:50:45.108Z</time>
      </trkpt>
      <trkpt lat="43.3147" lon="6.50249">
        <ele>285.39</ele>
        <time>2025-03-15T14:50:47.521Z</time>
      </trkpt>
      <trkpt lat="43.31481" lon="6.50255">
        <ele>285.8</ele>
        <time>2025-03-15T14:50:53.342Z</time>
      </trkpt>
      <trkpt lat="43.31494" lon="6.50259">
        <ele>286.2</ele>
        <time>2025-03-15T14:51:00.282Z</time>
      </trkpt>
      <trkpt lat="43.31498" lon="6.50261">
        <ele>286.6</ele>
        <time>2025-03-15T14:51:02.626Z</time>
      </trkpt>
      <trkpt lat="43.31501" lon="6.50262">
        <ele>287</ele>
        <time>2025-03-15T14:51:04.855Z</time>
      </trkpt>
      <trkpt lat="43.31504" lon="6.50262">
        <ele>287.4</ele>
        <time>2025-03-15T14:51:07.098Z</time>
      </trkpt>
      <trkpt lat="43.31518" lon="6.50263">
        <ele>287.81</ele>
        <time>2025-03-15T14:51:13.904Z</time>
      </trkpt>
      <trkpt lat="43.31521" lon="6.50264">
        <ele>288.2</ele>
        <time>2025-03-15T14:51:16.143Z</time>
      </trkpt>
      <trkpt lat="43.31524" lon="6.50264">
        <ele>288.59</ele>
        <time>2025-03-15T14:51:18.299Z</time>
      </trkpt>
      <trkpt lat="43.31527" lon="6.50264">
        <ele>288.99</ele>
        <time>2025-03-15T14:51:20.509Z</time>
      </trkpt>
      <trkpt lat="43.3153" lon="6.50264">
        <ele>289.39</ele>
        <time>2025-03-15T14:51:22.688Z</time>
      </trkpt>
      <trkpt lat="43.31539" lon="6.50265">
        <ele>289.82</ele>
        <time>2025-03-15T14:51:27.389Z</time>
      </trkpt>
      <trkpt lat="43.31545" lon="6.50266">
        <ele>290.24</ele>
        <time>2025-03-15T14:51:30.873Z</time>
      </trkpt>
      <trkpt lat="43.31548" lon="6.50266">
        <ele>290.63</ele>
        <time>2025-03-15T14:51:33.042Z</time>
      </trkpt>
      <trkpt lat="43.31551" lon="6.50266">
        <ele>291.03</ele>
        <time>2025-03-15T14:51:35.251Z</time>
      </trkpt>
      <trkpt lat="43.31554" lon="6.50267">
        <ele>291.43</ele>
        <time>2025-03-15T14:51:37.363Z</time>
      </trkpt>
      <trkpt lat="43.31557" lon="6.50267">
        <ele>291.82</ele>
        <time>2025-03-15T14:51:39.439Z</time>
      </trkpt>
      <trkpt lat="43.31568" lon="6.50266">
        <ele>292.26</ele>
        <time>2025-03-15T14:51:44.882Z</time>
      </trkpt>
      <trkpt lat="43.3157" lon="6.50266">
        <ele>292.65</ele>
        <time>2025-03-15T14:51:46.697Z</time>
      </trkpt>
      <trkpt lat="43.31572" lon="6.50266">
        <ele>293.04</ele>
        <time>2025-03-15T14:51:48.489Z</time>
      </trkpt>
      <trkpt lat="43.31574" lon="6.50266">
        <ele>293.43</ele>
        <time>2025-03-15T14:51:50.338Z</time>
      </trkpt>
      <trkpt lat="43.31581" lon="6.50267">
        <ele>293.84</ele>
        <time>2025-03-15T14:51:54.424Z</time>
      </trkpt>
      <trkpt lat="43.31584" lon="6.50267">
        <ele>294.23</ele>
        <time>2025-03-15T14:51:56.413Z</time>
      </trkpt>
      <trkpt lat="43.31587" lon="6.50266">
        <ele>294.62</ele>
        <time>2025-03-15T14:51:58.446Z</time>
      </trkpt>
      <trkpt lat="43.31589" lon="6.50265">
        <ele>295.01</ele>
        <time>2025-03-15T14:52:00.483Z</time>
      </trkpt>
      <trkpt lat="43.31592" lon="6.50265">
        <ele>295.41</ele>
        <time>2025-03-15T14:52:02.538Z</time>
      </trkpt>
      <trkpt lat="43.31604" lon="6.50265">
        <ele>295.82</ele>
        <time>2025-03-15T14:52:08.463Z</time>
      </trkpt>
      <trkpt lat="43.3161" lon="6.50264">
        <ele>296.23</ele>
        <time>2025-03-15T14:52:12.031Z</time>
      </trkpt>
      <trkpt lat="43.31613" lon="6.50264">
        <ele>296.64</ele>
        <time>2025-03-15T14:52:14.223Z</time>
      </trkpt>
      <trkpt lat="43.31616" lon="6.50265">
        <ele>297.05</ele>
        <time>2025-03-15T14:52:16.457Z</time>
      </trkpt>
      <trkpt lat="43.3162" lon="6.50265">
        <ele>297.47</ele>
        <time>2025-03-15T14:52:18.717Z</time>
      </trkpt>
      <trkpt lat="43.31623" lon="6.50265">
        <ele>297.9</ele>
        <time>2025-03-15T14:52:20.985Z</time>
      </trkpt>
      <trkpt lat="43.31626" lon="6.50264">
        <ele>298.33</ele>
        <time>2025-03-15T14:52:23.278Z</time>
      </trkpt>
      <trkpt lat="43.31635" lon="6.50264">
        <ele>298.78</ele>
        <time>2025-03-15T14:52:28.212Z</time>
      </trkpt>
      <trkpt lat="43.31638" lon="6.50264">
        <ele>299.24</ele>
        <time>2025-03-15T14:52:30.494Z</time>
      </trkpt>
      <trkpt lat="43.31641" lon="6.50265">
        <ele>299.7</ele>
        <time>2025-03-15T14:52:32.785Z</time>
      </trkpt>
      <trkpt lat="43.31644" lon="6.50265">
        <ele>300.17</ele>
        <time>2025-03-15T14:52:35.089Z</time>
      </trkpt>
      <trkpt lat="43.31647" lon="6.50264">
        <ele>300.65</ele>
        <time>2025-03-15T14:52:37.461Z</time>
      </trkpt>
      <trkpt lat="43.31653" lon="6.50264">
        <ele>301.14</ele>
        <time>2025-03-15T14:52:40.987Z</time>
      </trkpt>
      <trkpt lat="43.31656" lon="6.50264">
        <ele>301.64</ele>
        <time>2025-03-15T14:52:43.370Z</time>
      </trkpt>
      <trkpt lat="43.31659" lon="6.50264">
        <ele>302.14</ele>
        <time>2025-03-15T14:52:45.766Z</time>
      </trkpt>
      <trkpt lat="43.31662" lon="6.50264">
        <ele>302.65</ele>
        <time>2025-03-15T14:52:48.214Z</time>
      </trkpt>
      <trkpt lat="43.31664" lon="6.50264">
        <ele>303.18</ele>
        <time>2025-03-15T14:52:50.702Z</time>
      </trkpt>
      <trkpt lat="43.3167" lon="6.50264">
        <ele>303.75</ele>
        <time>2025-03-15T14:52:54.432Z</time>
      </trkpt>
      <trkpt lat="43.31678" lon="6.50263">
        <ele>304.33</ele>
        <time>2025-03-15T14:52:59.090Z</time>
      </trkpt>
      <trkpt lat="43.31681" lon="6.50263">
        <ele>304.87</ele>
        <time>2025-03-15T14:53:01.523Z</time>
      </trkpt>
      <trkpt lat="43.31683" lon="6.50262">
        <ele>305.42</ele>
        <time>2025-03-15T14:53:04.007Z</time>
      </trkpt>
      <trkpt lat="43.31686" lon="6.50262">
        <ele>305.96</ele>
        <time>2025-03-15T14:53:06.463Z</time>
      </trkpt>
      <trkpt lat="43.31689" lon="6.50261">
        <ele>306.51</ele>
        <time>2025-03-15T14:53:09.005Z</time>
      </trkpt>
      <trkpt lat="43.317" lon="6.50259">
        <ele>307.1</ele>
        <time>2025-03-15T14:53:15.016Z</time>
      </trkpt>
      <trkpt lat="43.31702" lon="6.50259">
        <ele>307.64</ele>
        <time>2025-03-15T14:53:17.521Z</time>
      </trkpt>
      <trkpt lat="43.31705" lon="6.50258">
        <ele>308.18</ele>
        <time>2025-03-15T14:53:20.005Z</time>
      </trkpt>
      <trkpt lat="43.31708" lon="6.50257">
        <ele>308.72</ele>
        <time>2025-03-15T14:53:22.535Z</time>
      </trkpt>
      <trkpt lat="43.31711" lon="6.50256">
        <ele>309.25</ele>
        <time>2025-03-15T14:53:24.995Z</time>
      </trkpt>
      <trkpt lat="43.31718" lon="6.50254">
        <ele>309.8</ele>
        <time>2025-03-15T14:53:29.602Z</time>
      </trkpt>
      <trkpt lat="43.31721" lon="6.50253">
        <ele>310.31</ele>
        <time>2025-03-15T14:53:31.981Z</time>
      </trkpt>
      <trkpt lat="43.31724" lon="6.50252">
        <ele>310.83</ele>
        <time>2025-03-15T14:53:34.416Z</time>
      </trkpt>
      <trkpt lat="43.31727" lon="6.50252">
        <ele>311.33</ele>
        <time>2025-03-15T14:53:36.754Z</time>
      </trkpt>
      <trkpt lat="43.3173" lon="6.50251">
        <ele>311.83</ele>
        <time>2025-03-15T14:53:39.166Z</time>
      </trkpt>
      <trkpt lat="43.31739" lon="6.50247">
        <ele>312.34</ele>
        <time>2025-03-15T14:53:44.673Z</time>
      </trkpt>
      <trkpt lat="43.31742" lon="6.50246">
        <ele>312.79</ele>
        <time>2025-03-15T14:53:46.918Z</time>
      </trkpt>
      <trkpt lat="43.31745" lon="6.50245">
        <ele>313.24</ele>
        <time>2025-03-15T14:53:49.170Z</time>
      </trkpt>
      <trkpt lat="43.31748" lon="6.50243">
        <ele>313.66</ele>
        <time>2025-03-15T14:53:51.346Z</time>
      </trkpt>
      <trkpt lat="43.3175" lon="6.50242">
        <ele>314.06</ele>
        <time>2025-03-15T14:53:53.472Z</time>
      </trkpt>
      <trkpt lat="43.31762" lon="6.50237">
        <ele>314.48</ele>
        <time>2025-03-15T14:53:59.389Z</time>
      </trkpt>
      <trkpt lat="43.31764" lon="6.50237">
        <ele>314.87</ele>
        <time>2025-03-15T14:54:01.473Z</time>
      </trkpt>
      <trkpt lat="43.31767" lon="6.50236">
        <ele>315.24</ele>
        <time>2025-03-15T14:54:03.365Z</time>
      </trkpt>
      <trkpt lat="43.3177" lon="6.50235">
        <ele>315.6</ele>
        <time>2025-03-15T14:54:05.306Z</time>
      </trkpt>
      <trkpt lat="43.31772" lon="6.50234">
        <ele>315.94</ele>
        <time>2025-03-15T14:54:07.258Z</time>
      </trkpt>
      <trkpt lat="43.31781" lon="6.50232">
        <ele>316.25</ele>
        <time>2025-03-15T14:54:11.592Z</time>
      </trkpt>
      <trkpt lat="43.31784" lon="6.50231">
        <ele>316.54</ele>
        <time>2025-03-15T14:54:13.493Z</time>
      </trkpt>
      <trkpt lat="43.31787" lon="6.50231">
        <ele>316.82</ele>
        <time>2025-03-15T14:54:15.365Z</time>
      </trkpt>
      <trkpt lat="43.3179" lon="6.5023">
        <ele>317.07</ele>
        <time>2025-03-15T14:54:17.180Z</time>
      </trkpt>
      <trkpt lat="43.31792" lon="6.5023">
        <ele>317.31</ele>
        <time>2025-03-15T14:54:18.859Z</time>
      </trkpt>
      <trkpt lat="43.31795" lon="6.50228">
        <ele>317.53</ele>
        <time>2025-03-15T14:54:20.527Z</time>
      </trkpt>
      <trkpt lat="43.31803" lon="6.50226">
        <ele>317.74</ele>
        <time>2025-03-15T14:54:24.504Z</time>
      </trkpt>
      <trkpt lat="43.31806" lon="6.50225">
        <ele>317.92</ele>
        <time>2025-03-15T14:54:26.020Z</time>
      </trkpt>
      <trkpt lat="43.31808" lon="6.50225">
        <ele>318.08</ele>
        <time>2025-03-15T14:54:27.558Z</time>
      </trkpt>
      <trkpt lat="43.31811" lon="6.50225">
        <ele>318.24</ele>
        <time>2025-03-15T14:54:29.060Z</time>
      </trkpt>
      <trkpt lat="43.31814" lon="6.50225">
        <ele>318.37</ele>
        <time>2025-03-15T14:54:30.537Z</time>
      </trkpt>
      <trkpt lat="43.31821" lon="6.50225">
        <ele>318.5</ele>
        <time>2025-03-15T14:54:34.101Z</time>
      </trkpt>
      <trkpt lat="43.31824" lon="6.50225">
        <ele>318.62</ele>
        <time>2025-03-15T14:54:35.423Z</time>
      </trkpt>
      <trkpt lat="43.31826" lon="6.50225">
        <ele>318.73</ele>
        <time>2025-03-15T14:54:36.714Z</time>
      </trkpt>
      <trkpt lat="43.31828" lon="6.50227">
        <ele>318.83</ele>
        <time>2025-03-15T14:54:37.892Z</time>
      </trkpt>
      <trkpt lat="43.3183" lon="6.50228">
        <ele>318.93</ele>
        <time>2025-03-15T14:54:39.154Z</time>
      </trkpt>
      <trkpt lat="43.31832" lon="6.50231">
        <ele>319.02</ele>
        <time>2025-03-15T14:54:40.511Z</time>
      </trkpt>
      <trkpt lat="43.31834" lon="6.50238">
        <ele>319.13</ele>
        <time>2025-03-15T14:54:43.149Z</time>
      </trkpt>
      <trkpt lat="43.31833" lon="6.50241">
        <ele>319.22</ele>
        <time>2025-03-15T14:54:44.505Z</time>
      </trkpt>
      <trkpt lat="43.31832" lon="6.50244">
        <ele>319.29</ele>
        <time>2025-03-15T14:54:45.885Z</time>
      </trkpt>
      <trkpt lat="43.31829" lon="6.50246">
        <ele>319.36</ele>
        <time>2025-03-15T14:54:47.292Z</time>
      </trkpt>
      <trkpt lat="43.31824" lon="6.5025">
        <ele>319.44</ele>
        <time>2025-03-15T14:54:50.135Z</time>
      </trkpt>
      <trkpt lat="43.31818" lon="6.50252">
        <ele>319.52</ele>
        <time>2025-03-15T14:54:53.095Z</time>
      </trkpt>
      <trkpt lat="43.31812" lon="6.50254">
        <ele>319.59</ele>
        <time>2025-03-15T14:54:56.126Z</time>
      </trkpt>
      <trkpt lat="43.31809" lon="6.50256">
        <ele>319.67</ele>
        <time>2025-03-15T14:54:57.672Z</time>
      </trkpt>
      <trkpt lat="43.31806" lon="6.50257">
        <ele>319.76</ele>
        <time>2025-03-15T14:54:59.261Z</time>
      </trkpt>
      <trkpt lat="43.31803" lon="6.50259">
        <ele>319.84</ele>
        <time>2025-03-15T14:55:00.869Z</time>
      </trkpt>
      <trkpt lat="43.318" lon="6.5026">
        <ele>319.94</ele>
        <time>2025-03-15T14:55:02.464Z</time>
      </trkpt>
      <trkpt lat="43.31779" lon="6.50272">
        <ele>320.03</ele>
        <time>2025-03-15T14:55:12.918Z</time>
      </trkpt>
      <trkpt lat="43.31773" lon="6.50286">
        <ele>320.12</ele>
        <time>2025-03-15T14:55:18.612Z</time>
      </trkpt>
      <trkpt lat="43.31774" lon="6.5029">
        <ele>320.24</ele>
        <time>2025-03-15T14:55:20.205Z</time>
      </trkpt>
      <trkpt lat="43.31776" lon="6.50294">
        <ele>320.39</ele>
        <time>2025-03-15T14:55:21.872Z</time>
      </trkpt>
      <trkpt lat="43.31779" lon="6.50296">
        <ele>320.56</ele>
        <time>2025-03-15T14:55:23.547Z</time>
      </trkpt>
      <trkpt lat="43.31782" lon="6.50296">
        <ele>320.75</ele>
        <time>2025-03-15T14:55:25.407Z</time>
      </trkpt>
      <trkpt lat="43.31785" lon="6.50295">
        <ele>320.98</ele>
        <time>2025-03-15T14:55:27.328Z</time>
      </trkpt>
      <trkpt lat="43.31789" lon="6.50294">
        <ele>321.22</ele>
        <time>2025-03-15T14:55:29.354Z</time>
      </trkpt>
      <trkpt lat="43.31794" lon="6.50289">
        <ele>321.48</ele>
        <time>2025-03-15T14:55:32.792Z</time>
      </trkpt>
      <trkpt lat="43.31809" lon="6.50279">
        <ele>321.78</ele>
        <time>2025-03-15T14:55:40.745Z</time>
      </trkpt>
      <trkpt lat="43.31812" lon="6.50277">
        <ele>322.08</ele>
        <time>2025-03-15T14:55:42.836Z</time>
      </trkpt>
      <trkpt lat="43.31815" lon="6.50276">
        <ele>322.39</ele>
        <time>2025-03-15T14:55:44.892Z</time>
      </trkpt>
      <trkpt lat="43.31818" lon="6.50275">
        <ele>322.73</ele>
        <time>2025-03-15T14:55:46.964Z</time>
      </trkpt>
      <trkpt lat="43.31822" lon="6.50274">
        <ele>323.1</ele>
        <time>2025-03-15T14:55:49.156Z</time>
      </trkpt>
      <trkpt lat="43.31828" lon="6.50274">
        <ele>323.49</ele>
        <time>2025-03-15T14:55:52.802Z</time>
      </trkpt>
      <trkpt lat="43.31843" lon="6.5028">
        <ele>323.95</ele>
        <time>2025-03-15T14:56:00.661Z</time>
      </trkpt>
      <trkpt lat="43.31846" lon="6.50283">
        <ele>324.39</ele>
        <time>2025-03-15T14:56:02.990Z</time>
      </trkpt>
      <trkpt lat="43.31848" lon="6.50286">
        <ele>324.86</ele>
        <time>2025-03-15T14:56:05.364Z</time>
      </trkpt>
      <trkpt lat="43.31851" lon="6.50288">
        <ele>325.35</ele>
        <time>2025-03-15T14:56:07.796Z</time>
      </trkpt>
      <trkpt lat="43.3186" lon="6.50294">
        <ele>325.9</ele>
        <time>2025-03-15T14:56:13.402Z</time>
      </trkpt>
      <trkpt lat="43.31863" lon="6.50295">
        <ele>326.45</ele>
        <time>2025-03-15T14:56:16.045Z</time>
      </trkpt>
      <trkpt lat="43.31867" lon="6.50297">
        <ele>327.02</ele>
        <time>2025-03-15T14:56:18.777Z</time>
      </trkpt>
      <trkpt lat="43.3187" lon="6.50297">
        <ele>327.61</ele>
        <time>2025-03-15T14:56:21.567Z</time>
      </trkpt>
      <trkpt lat="43.31873" lon="6.50298">
        <ele>328.22</ele>
        <time>2025-03-15T14:56:24.412Z</time>
      </trkpt>
      <trkpt lat="43.31879" lon="6.50299">
        <ele>328.86</ele>
        <time>2025-03-15T14:56:28.169Z</time>
      </trkpt>
      <trkpt lat="43.31898" lon="6.50299">
        <ele>329.59</ele>
        <time>2025-03-15T14:56:37.951Z</time>
      </trkpt>
      <trkpt lat="43.31901" lon="6.50299">
        <ele>330.25</ele>
        <time>2025-03-15T14:56:40.988Z</time>
      </trkpt>
      <trkpt lat="43.31904" lon="6.50298">
        <ele>330.92</ele>
        <time>2025-03-15T14:56:43.996Z</time>
      </trkpt>
      <trkpt lat="43.31907" lon="6.50298">
        <ele>331.61</ele>
        <time>2025-03-15T14:56:47.098Z</time>
      </trkpt>
      <trkpt lat="43.3191" lon="6.50297">
        <ele>332.31</ele>
        <time>2025-03-15T14:56:50.284Z</time>
      </trkpt>
      <trkpt lat="43.31919" lon="6.50296">
        <ele>333.05</ele>
        <time>2025-03-15T14:56:55.580Z</time>
      </trkpt>
      <trkpt lat="43.31923" lon="6.50293">
        <ele>333.78</ele>
        <time>2025-03-15T14:56:59.183Z</time>
      </trkpt>
      <trkpt lat="43.31926" lon="6.50293">
        <ele>334.5</ele>
        <time>2025-03-15T14:57:02.416Z</time>
      </trkpt>
      <trkpt lat="43.31929" lon="6.50293">
        <ele>335.23</ele>
        <time>2025-03-15T14:57:05.695Z</time>
      </trkpt>
      <trkpt lat="43.31932" lon="6.50292">
        <ele>335.97</ele>
        <time>2025-03-15T14:57:09.020Z</time>
      </trkpt>
      <trkpt lat="43.31935" lon="6.50291">
        <ele>336.71</ele>
        <time>2025-03-15T14:57:12.344Z</time>
      </trkpt>
      <trkpt lat="43.31938" lon="6.50291">
        <ele>337.45</ele>
        <time>2025-03-15T14:57:15.668Z</time>
      </trkpt>
      <trkpt lat="43.31951" lon="6.50289">
        <ele>338.24</ele>
        <time>2025-03-15T14:57:23.118Z</time>
      </trkpt>
      <trkpt lat="43.31955" lon="6.50288">
        <ele>338.98</ele>
        <time>2025-03-15T14:57:26.672Z</time>
      </trkpt>
      <trkpt lat="43.31959" lon="6.50287">
        <ele>339.72</ele>
        <time>2025-03-15T14:57:30.124Z</time>
      </trkpt>
      <trkpt lat="43.31963" lon="6.50287">
        <ele>340.45</ele>
        <time>2025-03-15T14:57:33.437Z</time>
      </trkpt>
      <trkpt lat="43.31966" lon="6.50286">
        <ele>341.18</ele>
        <time>2025-03-15T14:57:36.818Z</time>
      </trkpt>
      <trkpt lat="43.31984" lon="6.50284">
        <ele>341.96</ele>
        <time>2025-03-15T14:57:46.027Z</time>
      </trkpt>
      <trkpt lat="43.31987" lon="6.50284">
        <ele>342.68</ele>
        <time>2025-03-15T14:57:49.353Z</time>
      </trkpt>
      <trkpt lat="43.31991" lon="6.50284">
        <ele>343.4</ele>
        <time>2025-03-15T14:57:52.640Z</time>
      </trkpt>
      <trkpt lat="43.31994" lon="6.50283">
        <ele>344.1</ele>
        <time>2025-03-15T14:57:55.857Z</time>
      </trkpt>
      <trkpt lat="43.31998" lon="6.50282">
        <ele>344.81</ele>
        <time>2025-03-15T14:57:59.084Z</time>
      </trkpt>
      <trkpt lat="43.32007" lon="6.50276">
        <ele>345.55</ele>
        <time>2025-03-15T14:58:05.161Z</time>
      </trkpt>
      <trkpt lat="43.32011" lon="6.50273">
        <ele>346.23</ele>
        <time>2025-03-15T14:58:08.349Z</time>
      </trkpt>
      <trkpt lat="43.32014" lon="6.50271">
        <ele>346.89</ele>
        <time>2025-03-15T14:58:11.478Z</time>
      </trkpt>
      <trkpt lat="43.32017" lon="6.50268">
        <ele>347.54</ele>
        <time>2025-03-15T14:58:14.534Z</time>
      </trkpt>
      <trkpt lat="43.32026" lon="6.50262">
        <ele>348.21</ele>
        <time>2025-03-15T14:58:20.330Z</time>
      </trkpt>
      <trkpt lat="43.3204" lon="6.5025">
        <ele>348.92</ele>
        <time>2025-03-15T14:58:29.043Z</time>
      </trkpt>
      <trkpt lat="43.32043" lon="6.50248">
        <ele>349.53</ele>
        <time>2025-03-15T14:58:31.801Z</time>
      </trkpt>
      <trkpt lat="43.32045" lon="6.50246">
        <ele>350.12</ele>
        <time>2025-03-15T14:58:34.533Z</time>
      </trkpt>
      <trkpt lat="43.32048" lon="6.50243">
        <ele>350.7</ele>
        <time>2025-03-15T14:58:37.359Z</time>
      </trkpt>
      <trkpt lat="43.32051" lon="6.50241">
        <ele>351.26</ele>
        <time>2025-03-15T14:58:40.023Z</time>
      </trkpt>
      <trkpt lat="43.32054" lon="6.50238">
        <ele>351.79</ele>
        <time>2025-03-15T14:58:42.725Z</time>
      </trkpt>
      <trkpt lat="43.32056" lon="6.50235">
        <ele>352.3</ele>
        <time>2025-03-15T14:58:45.219Z</time>
      </trkpt>
      <trkpt lat="43.32059" lon="6.50232">
        <ele>352.8</ele>
        <time>2025-03-15T14:58:47.746Z</time>
      </trkpt>
      <trkpt lat="43.32062" lon="6.5023">
        <ele>353.29</ele>
        <time>2025-03-15T14:58:50.290Z</time>
      </trkpt>
      <trkpt lat="43.32065" lon="6.50228">
        <ele>353.77</ele>
        <time>2025-03-15T14:58:52.824Z</time>
      </trkpt>
      <trkpt lat="43.32078" lon="6.50217">
        <ele>354.29</ele>
        <time>2025-03-15T14:59:00.816Z</time>
      </trkpt>
      <trkpt lat="43.32095" lon="6.50202">
        <ele>354.74</ele>
        <time>2025-03-15T14:59:10.362Z</time>
      </trkpt>
      <trkpt lat="43.32098" lon="6.50199">
        <ele>355.17</ele>
        <time>2025-03-15T14:59:12.991Z</time>
      </trkpt>
      <trkpt lat="43.32102" lon="6.50197">
        <ele>355.59</ele>
        <time>2025-03-15T14:59:15.470Z</time>
      </trkpt>
      <trkpt lat="43.32105" lon="6.50195">
        <ele>356</ele>
        <time>2025-03-15T14:59:17.986Z</time>
      </trkpt>
      <trkpt lat="43.32108" lon="6.50193">
        <ele>356.38</ele>
        <time>2025-03-15T14:59:20.220Z</time>
      </trkpt>
      <trkpt lat="43.32112" lon="6.50191">
        <ele>356.73</ele>
        <time>2025-03-15T14:59:22.581Z</time>
      </trkpt>
      <trkpt lat="43.32115" lon="6.50188">
        <ele>357.08</ele>
        <time>2025-03-15T14:59:24.882Z</time>
      </trkpt>
      <trkpt lat="43.3213" lon="6.5018">
        <ele>357.44</ele>
        <time>2025-03-15T14:59:32.604Z</time>
      </trkpt>
      <trkpt lat="43.32133" lon="6.50178">
        <ele>357.77</ele>
        <time>2025-03-15T14:59:34.930Z</time>
      </trkpt>
      <trkpt lat="43.32137" lon="6.50175">
        <ele>358.09</ele>
        <time>2025-03-15T14:59:37.422Z</time>
      </trkpt>
      <trkpt lat="43.3214" lon="6.50173">
        <ele>358.39</ele>
        <time>2025-03-15T14:59:39.645Z</time>
      </trkpt>
      <trkpt lat="43.32144" lon="6.5017">
        <ele>358.7</ele>
        <time>2025-03-15T14:59:41.954Z</time>
      </trkpt>
      <trkpt lat="43.32162" lon="6.50162">
        <ele>359.05</ele>
        <time>2025-03-15T14:59:51.152Z</time>
      </trkpt>
      <trkpt lat="43.32166" lon="6.50161">
        <ele>359.34</ele>
        <time>2025-03-15T14:59:53.610Z</time>
      </trkpt>
      <trkpt lat="43.3217" lon="6.5016">
        <ele>359.63</ele>
        <time>2025-03-15T14:59:55.849Z</time>
      </trkpt>
      <trkpt lat="43.32173" lon="6.50158">
        <ele>359.91</ele>
        <time>2025-03-15T14:59:58.091Z</time>
      </trkpt>
      <trkpt lat="43.32185" lon="6.50156">
        <ele>360.21</ele>
        <time>2025-03-15T15:00:03.957Z</time>
      </trkpt>
      <trkpt lat="43.32211" lon="6.5016">
        <ele>360.52</ele>
        <time>2025-03-15T15:00:16.095Z</time>
      </trkpt>
      <trkpt lat="43.32216" lon="6.50161">
        <ele>360.8</ele>
        <time>2025-03-15T15:00:19.012Z</time>
      </trkpt>
      <trkpt lat="43.32221" lon="6.50161">
        <ele>361.09</ele>
        <time>2025-03-15T15:00:21.770Z</time>
      </trkpt>
      <trkpt lat="43.32226" lon="6.50162">
        <ele>361.38</ele>
        <time>2025-03-15T15:00:24.507Z</time>
      </trkpt>
      <trkpt lat="43.32231" lon="6.50163">
        <ele>361.67</ele>
        <time>2025-03-15T15:00:27.338Z</time>
      </trkpt>
      <trkpt lat="43.32249" lon="6.50166">
        <ele>361.97</ele>
        <time>2025-03-15T15:00:36.156Z</time>
      </trkpt>
      <trkpt lat="43.32277" lon="6.5017">
        <ele>362.27</ele>
        <time>2025-03-15T15:00:49.512Z</time>
      </trkpt>
      <trkpt lat="43.32282" lon="6.5017">
        <ele>362.59</ele>
        <time>2025-03-15T15:00:52.179Z</time>
      </trkpt>
      <trkpt lat="43.32287" lon="6.50171">
        <ele>362.91</ele>
        <time>2025-03-15T15:00:54.808Z</time>
      </trkpt>
      <trkpt lat="43.32291" lon="6.50171">
        <ele>363.24</ele>
        <time>2025-03-15T15:00:57.523Z</time>
      </trkpt>
      <trkpt lat="43.32296" lon="6.50171">
        <ele>363.58</ele>
        <time>2025-03-15T15:01:00.063Z</time>
      </trkpt>
      <trkpt lat="43.323" lon="6.50172">
        <ele>363.94</ele>
        <time>2025-03-15T15:01:02.609Z</time>
      </trkpt>
      <trkpt lat="43.32304" lon="6.50173">
        <ele>364.32</ele>
        <time>2025-03-15T15:01:05.217Z</time>
      </trkpt>
      <trkpt lat="43.32325" lon="6.50177">
        <ele>364.78</ele>
        <time>2025-03-15T15:01:15.516Z</time>
      </trkpt>
      <trkpt lat="43.32328" lon="6.50178">
        <ele>365.18</ele>
        <time>2025-03-15T15:01:17.759Z</time>
      </trkpt>
      <trkpt lat="43.32332" lon="6.50179">
        <ele>365.62</ele>
        <time>2025-03-15T15:01:20.520Z</time>
      </trkpt>
      <trkpt lat="43.32337" lon="6.50181">
        <ele>366.06</ele>
        <time>2025-03-15T15:01:23.290Z</time>
      </trkpt>
      <trkpt lat="43.32341" lon="6.50183">
        <ele>366.52</ele>
        <time>2025-03-15T15:01:26.188Z</time>
      </trkpt>
      <trkpt lat="43.32348" lon="6.50185">
        <ele>367</ele>
        <time>2025-03-15T15:01:30.398Z</time>
      </trkpt>
      <trkpt lat="43.32352" lon="6.50186">
        <ele>367.45</ele>
        <time>2025-03-15T15:01:33.027Z</time>
      </trkpt>
      <trkpt lat="43.32356" lon="6.50187">
        <ele>367.92</ele>
        <time>2025-03-15T15:01:35.829Z</time>
      </trkpt>
      <trkpt lat="43.32361" lon="6.50188">
        <ele>368.39</ele>
        <time>2025-03-15T15:01:38.638Z</time>
      </trkpt>
      <trkpt lat="43.32365" lon="6.50188">
        <ele>368.86</ele>
        <time>2025-03-15T15:01:41.314Z</time>
      </trkpt>
      <trkpt lat="43.32377" lon="6.50188">
        <ele>369.34</ele>
        <time>2025-03-15T15:01:47.680Z</time>
      </trkpt>
      <trkpt lat="43.32381" lon="6.50188">
        <ele>369.82</ele>
        <time>2025-03-15T15:01:50.569Z</time>
      </trkpt>
      <trkpt lat="43.32386" lon="6.50187">
        <ele>370.3</ele>
        <time>2025-03-15T15:01:53.511Z</time>
      </trkpt>
      <trkpt lat="43.3239" lon="6.50187">
        <ele>370.78</ele>
        <time>2025-03-15T15:01:56.433Z</time>
      </trkpt>
      <trkpt lat="43.32395" lon="6.50186">
        <ele>371.26</ele>
        <time>2025-03-15T15:01:59.274Z</time>
      </trkpt>
      <trkpt lat="43.32419" lon="6.50183">
        <ele>371.78</ele>
        <time>2025-03-15T15:02:11.050Z</time>
      </trkpt>
      <trkpt lat="43.32443" lon="6.50182">
        <ele>372.32</ele>
        <time>2025-03-15T15:02:23.151Z</time>
      </trkpt>
      <trkpt lat="43.32455" lon="6.50183">
        <ele>372.8</ele>
        <time>2025-03-15T15:02:29.117Z</time>
      </trkpt>
      <trkpt lat="43.32459" lon="6.50183">
        <ele>373.28</ele>
        <time>2025-03-15T15:02:31.841Z</time>
      </trkpt>
      <trkpt lat="43.32462" lon="6.50183">
        <ele>373.76</ele>
        <time>2025-03-15T15:02:34.456Z</time>
      </trkpt>
      <trkpt lat="43.32466" lon="6.50183">
        <ele>374.23</ele>
        <time>2025-03-15T15:02:36.949Z</time>
      </trkpt>
      <trkpt lat="43.32469" lon="6.50184">
        <ele>374.69</ele>
        <time>2025-03-15T15:02:39.375Z</time>
      </trkpt>
      <trkpt lat="43.32487" lon="6.50184">
        <ele>375.15</ele>
        <time>2025-03-15T15:02:48.227Z</time>
      </trkpt>
      <trkpt lat="43.32495" lon="6.50183">
        <ele>375.6</ele>
        <time>2025-03-15T15:02:52.367Z</time>
      </trkpt>
      <trkpt lat="43.32498" lon="6.50183">
        <ele>376.05</ele>
        <time>2025-03-15T15:02:54.787Z</time>
      </trkpt>
      <trkpt lat="43.32501" lon="6.50183">
        <ele>376.48</ele>
        <time>2025-03-15T15:02:57.054Z</time>
      </trkpt>
      <trkpt lat="43.32504" lon="6.50183">
        <ele>376.9</ele>
        <time>2025-03-15T15:02:59.229Z</time>
      </trkpt>
      <trkpt lat="43.32507" lon="6.50183">
        <ele>377.31</ele>
        <time>2025-03-15T15:03:01.343Z</time>
      </trkpt>
      <trkpt lat="43.32519" lon="6.50181">
        <ele>377.74</ele>
        <time>2025-03-15T15:03:07.574Z</time>
      </trkpt>
      <trkpt lat="43.32522" lon="6.50182">
        <ele>378.13</ele>
        <time>2025-03-15T15:03:09.805Z</time>
      </trkpt>
      <trkpt lat="43.32525" lon="6.50183">
        <ele>378.49</ele>
        <time>2025-03-15T15:03:11.851Z</time>
      </trkpt>
      <trkpt lat="43.32528" lon="6.50184">
        <ele>378.82</ele>
        <time>2025-03-15T15:03:13.778Z</time>
      </trkpt>
      <trkpt lat="43.32532" lon="6.50184">
        <ele>379.13</ele>
        <time>2025-03-15T15:03:15.907Z</time>
      </trkpt>
      <trkpt lat="43.32544" lon="6.5019">
        <ele>379.46</ele>
        <time>2025-03-15T15:03:22.185Z</time>
      </trkpt>
      <trkpt lat="43.32547" lon="6.5019">
        <ele>379.72</ele>
        <time>2025-03-15T15:03:24.126Z</time>
      </trkpt>
      <trkpt lat="43.32552" lon="6.5019">
        <ele>379.96</ele>
        <time>2025-03-15T15:03:26.653Z</time>
      </trkpt>
      <trkpt lat="43.32556" lon="6.50189">
        <ele>380.17</ele>
        <time>2025-03-15T15:03:29.085Z</time>
      </trkpt>
      <trkpt lat="43.32561" lon="6.50188">
        <ele>380.34</ele>
        <time>2025-03-15T15:03:31.389Z</time>
      </trkpt>
      <trkpt lat="43.32584" lon="6.5018">
        <ele>380.54</ele>
        <time>2025-03-15T15:03:42.821Z</time>
      </trkpt>
      <trkpt lat="43.32596" lon="6.50164">
        <ele>380.7</ele>
        <time>2025-03-15T15:03:50.720Z</time>
      </trkpt>
      <trkpt lat="43.32596" lon="6.50139">
        <ele>380.78</ele>
        <time>2025-03-15T15:03:58.856Z</time>
      </trkpt>
      <trkpt lat="43.3259" lon="6.50124">
        <ele>380.83</ele>
        <time>2025-03-15T15:04:04.726Z</time>
      </trkpt>
      <trkpt lat="43.32586" lon="6.50114">
        <ele>380.83</ele>
        <time>2025-03-15T15:04:08.692Z</time>
      </trkpt>
      <trkpt lat="43.32583" lon="6.50109">
        <ele>380.8</ele>
        <time>2025-03-15T15:04:10.651Z</time>
      </trkpt>
      <trkpt lat="43.32566" lon="6.50079">
        <ele>380.77</ele>
        <time>2025-03-15T15:04:23.390Z</time>
      </trkpt>
      <trkpt lat="43.32548" lon="6.50058">
        <ele>380.7</ele>
        <time>2025-03-15T15:04:33.853Z</time>
      </trkpt>
      <trkpt lat="43.32544" lon="6.50054">
        <ele>380.56</ele>
        <time>2025-03-15T15:04:35.787Z</time>
      </trkpt>
      <trkpt lat="43.32521" lon="6.5004">
        <ele>380.29</ele>
        <time>2025-03-15T15:04:47.315Z</time>
      </trkpt>
      <trkpt lat="43.32516" lon="6.50037">
        <ele>380.08</ele>
        <time>2025-03-15T15:04:49.533Z</time>
      </trkpt>
      <trkpt lat="43.3251" lon="6.50034">
        <ele>379.84</ele>
        <time>2025-03-15T15:04:51.814Z</time>
      </trkpt>
      <trkpt lat="43.32494" lon="6.50028">
        <ele>379.51</ele>
        <time>2025-03-15T15:04:59.220Z</time>
      </trkpt>
      <trkpt lat="43.32482" lon="6.50022">
        <ele>379.2</ele>
        <time>2025-03-15T15:05:04.311Z</time>
      </trkpt>
      <trkpt lat="43.32477" lon="6.50019">
        <ele>378.89</ele>
        <time>2025-03-15T15:05:06.622Z</time>
      </trkpt>
      <trkpt lat="43.32466" lon="6.5">
        <ele>378.58</ele>
        <time>2025-03-15T15:05:14.411Z</time>
      </trkpt>
      <trkpt lat="43.32466" lon="6.4998">
        <ele>378.24</ele>
        <time>2025-03-15T15:05:20.510Z</time>
      </trkpt>
      <trkpt lat="43.32468" lon="6.49969">
        <ele>377.88</ele>
        <time>2025-03-15T15:05:23.936Z</time>
      </trkpt>
      <trkpt lat="43.32471" lon="6.49959">
        <ele>377.48</ele>
        <time>2025-03-15T15:05:27.176Z</time>
      </trkpt>
      <trkpt lat="43.32474" lon="6.49949">
        <ele>377.07</ele>
        <time>2025-03-15T15:05:30.324Z</time>
      </trkpt>
      <trkpt lat="43.32477" lon="6.49938">
        <ele>376.63</ele>
        <time>2025-03-15T15:05:33.540Z</time>
      </trkpt>
      <trkpt lat="43.32481" lon="6.49928">
        <ele>376.17</ele>
        <time>2025-03-15T15:05:36.772Z</time>
      </trkpt>
      <trkpt lat="43.32485" lon="6.49919">
        <ele>375.69</ele>
        <time>2025-03-15T15:05:39.983Z</time>
      </trkpt>
      <trkpt lat="43.32489" lon="6.49909">
        <ele>375.19</ele>
        <time>2025-03-15T15:05:43.268Z</time>
      </trkpt>
      <trkpt lat="43.32494" lon="6.499">
        <ele>374.68</ele>
        <time>2025-03-15T15:05:46.573Z</time>
      </trkpt>
      <trkpt lat="43.32499" lon="6.4989">
        <ele>374.15</ele>
        <time>2025-03-15T15:05:50.094Z</time>
      </trkpt>
      <trkpt lat="43.32503" lon="6.49881">
        <ele>373.61</ele>
        <time>2025-03-15T15:05:53.168Z</time>
      </trkpt>
      <trkpt lat="43.32508" lon="6.49872">
        <ele>373.06</ele>
        <time>2025-03-15T15:05:56.512Z</time>
      </trkpt>
      <trkpt lat="43.32513" lon="6.49863">
        <ele>372.51</ele>
        <time>2025-03-15T15:05:59.763Z</time>
      </trkpt>
      <trkpt lat="43.32518" lon="6.49854">
        <ele>371.93</ele>
        <time>2025-03-15T15:06:02.933Z</time>
      </trkpt>
      <trkpt lat="43.32528" lon="6.49838">
        <ele>371.36</ele>
        <time>2025-03-15T15:06:09.352Z</time>
      </trkpt>
      <trkpt lat="43.32533" lon="6.49831">
        <ele>370.81</ele>
        <time>2025-03-15T15:06:12.417Z</time>
      </trkpt>
      <trkpt lat="43.32539" lon="6.49824">
        <ele>370.25</ele>
        <time>2025-03-15T15:06:15.440Z</time>
      </trkpt>
      <trkpt lat="43.32548" lon="6.49823">
        <ele>369.75</ele>
        <time>2025-03-15T15:06:19.018Z</time>
      </trkpt>
      <trkpt lat="43.32564" lon="6.49816">
        <ele>369.23</ele>
        <time>2025-03-15T15:06:25.884Z</time>
      </trkpt>
      <trkpt lat="43.32571" lon="6.49811">
        <ele>368.66</ele>
        <time>2025-03-15T15:06:28.982Z</time>
      </trkpt>
      <trkpt lat="43.32577" lon="6.49807">
        <ele>368.09</ele>
        <time>2025-03-15T15:06:31.942Z</time>
      </trkpt>
      <trkpt lat="43.32584" lon="6.49802">
        <ele>367.52</ele>
        <time>2025-03-15T15:06:35.097Z</time>
      </trkpt>
      <trkpt lat="43.32591" lon="6.49795">
        <ele>366.94</ele>
        <time>2025-03-15T15:06:38.294Z</time>
      </trkpt>
      <trkpt lat="43.32597" lon="6.49788">
        <ele>366.35</ele>
        <time>2025-03-15T15:06:41.432Z</time>
      </trkpt>
      <trkpt lat="43.32603" lon="6.49782">
        <ele>365.75</ele>
        <time>2025-03-15T15:06:44.702Z</time>
      </trkpt>
      <trkpt lat="43.3261" lon="6.49775">
        <ele>365.15</ele>
        <time>2025-03-15T15:06:48.043Z</time>
      </trkpt>
      <trkpt lat="43.32618" lon="6.4977">
        <ele>364.56</ele>
        <time>2025-03-15T15:06:51.255Z</time>
      </trkpt>
      <trkpt lat="43.32625" lon="6.49766">
        <ele>363.96</ele>
        <time>2025-03-15T15:06:54.438Z</time>
      </trkpt>
      <trkpt lat="43.32635" lon="6.49767">
        <ele>363.38</ele>
        <time>2025-03-15T15:06:58.543Z</time>
      </trkpt>
      <trkpt lat="43.32653" lon="6.49767">
        <ele>362.83</ele>
        <time>2025-03-15T15:07:05.741Z</time>
      </trkpt>
      <trkpt lat="43.32661" lon="6.49765">
        <ele>362.24</ele>
        <time>2025-03-15T15:07:09.073Z</time>
      </trkpt>
      <trkpt lat="43.32669" lon="6.49763">
        <ele>361.62</ele>
        <time>2025-03-15T15:07:12.252Z</time>
      </trkpt>
      <trkpt lat="43.32675" lon="6.49759">
        <ele>361</ele>
        <time>2025-03-15T15:07:15.082Z</time>
      </trkpt>
      <trkpt lat="43.32679" lon="6.49753">
        <ele>360.37</ele>
        <time>2025-03-15T15:07:17.435Z</time>
      </trkpt>
      <trkpt lat="43.32683" lon="6.49747">
        <ele>359.71</ele>
        <time>2025-03-15T15:07:19.662Z</time>
      </trkpt>
      <trkpt lat="43.32684" lon="6.49739">
        <ele>359.04</ele>
        <time>2025-03-15T15:07:22.097Z</time>
      </trkpt>
      <trkpt lat="43.32684" lon="6.49731">
        <ele>358.36</ele>
        <time>2025-03-15T15:07:24.481Z</time>
      </trkpt>
      <trkpt lat="43.32683" lon="6.49714">
        <ele>357.65</ele>
        <time>2025-03-15T15:07:29.322Z</time>
      </trkpt>
      <trkpt lat="43.32682" lon="6.49705">
        <ele>356.96</ele>
        <time>2025-03-15T15:07:31.944Z</time>
      </trkpt>
      <trkpt lat="43.32681" lon="6.49697">
        <ele>356.27</ele>
        <time>2025-03-15T15:07:34.440Z</time>
      </trkpt>
      <trkpt lat="43.3268" lon="6.49688">
        <ele>355.6</ele>
        <time>2025-03-15T15:07:37.004Z</time>
      </trkpt>
      <trkpt lat="43.32679" lon="6.49679">
        <ele>354.93</ele>
        <time>2025-03-15T15:07:39.739Z</time>
      </trkpt>
      <trkpt lat="43.32679" lon="6.49668">
        <ele>354.28</ele>
        <time>2025-03-15T15:07:42.882Z</time>
      </trkpt>
      <trkpt lat="43.32679" lon="6.49656">
        <ele>353.66</ele>
        <time>2025-03-15T15:07:46.456Z</time>
      </trkpt>
      <trkpt lat="43.3268" lon="6.49643">
        <ele>353.07</ele>
        <time>2025-03-15T15:07:50.171Z</time>
      </trkpt>
      <trkpt lat="43.32681" lon="6.4963">
        <ele>352.51</ele>
        <time>2025-03-15T15:07:54.025Z</time>
      </trkpt>
      <trkpt lat="43.32684" lon="6.49616">
        <ele>352.02</ele>
        <time>2025-03-15T15:07:58.147Z</time>
      </trkpt>
      <trkpt lat="43.32687" lon="6.49603">
        <ele>351.56</ele>
        <time>2025-03-15T15:08:02.178Z</time>
      </trkpt>
      <trkpt lat="43.32691" lon="6.4959">
        <ele>351.12</ele>
        <time>2025-03-15T15:08:06.188Z</time>
      </trkpt>
      <trkpt lat="43.32695" lon="6.49578">
        <ele>350.76</ele>
        <time>2025-03-15T15:08:10.245Z</time>
      </trkpt>
      <trkpt lat="43.32697" lon="6.49567">
        <ele>350.45</ele>
        <time>2025-03-15T15:08:13.678Z</time>
      </trkpt>
      <trkpt lat="43.32696" lon="6.49558">
        <ele>350.17</ele>
        <time>2025-03-15T15:08:16.440Z</time>
      </trkpt>
      <trkpt lat="43.32692" lon="6.49551">
        <ele>349.94</ele>
        <time>2025-03-15T15:08:18.965Z</time>
      </trkpt>
      <trkpt lat="43.32688" lon="6.49544">
        <ele>349.77</ele>
        <time>2025-03-15T15:08:21.502Z</time>
      </trkpt>
      <trkpt lat="43.32684" lon="6.49538">
        <ele>349.67</ele>
        <time>2025-03-15T15:08:24.186Z</time>
      </trkpt>
      <trkpt lat="43.32681" lon="6.49532">
        <ele>349.65</ele>
        <time>2025-03-15T15:08:26.655Z</time>
      </trkpt>
      <trkpt lat="43.32679" lon="6.49525">
        <ele>349.71</ele>
        <time>2025-03-15T15:08:29.075Z</time>
      </trkpt>
      <trkpt lat="43.32677" lon="6.49519">
        <ele>349.87</ele>
        <time>2025-03-15T15:08:31.764Z</time>
      </trkpt>
      <trkpt lat="43.32676" lon="6.49512">
        <ele>350.11</ele>
        <time>2025-03-15T15:08:34.292Z</time>
      </trkpt>
      <trkpt lat="43.32672" lon="6.49498">
        <ele>350.44</ele>
        <time>2025-03-15T15:08:39.934Z</time>
      </trkpt>
      <trkpt lat="43.3267" lon="6.4949">
        <ele>350.85</ele>
        <time>2025-03-15T15:08:43.353Z</time>
      </trkpt>
      <trkpt lat="43.32668" lon="6.49482">
        <ele>351.35</ele>
        <time>2025-03-15T15:08:47.089Z</time>
      </trkpt>
      <trkpt lat="43.32666" lon="6.49474">
        <ele>351.94</ele>
        <time>2025-03-15T15:08:50.857Z</time>
      </trkpt>
      <trkpt lat="43.32664" lon="6.49466">
        <ele>352.65</ele>
        <time>2025-03-15T15:08:54.976Z</time>
      </trkpt>
      <trkpt lat="43.32662" lon="6.49458">
        <ele>353.45</ele>
        <time>2025-03-15T15:08:59.233Z</time>
      </trkpt>
      <trkpt lat="43.32658" lon="6.49444">
        <ele>354.35</ele>
        <time>2025-03-15T15:09:05.977Z</time>
      </trkpt>
      <trkpt lat="43.32656" lon="6.49428">
        <ele>355.33</ele>
        <time>2025-03-15T15:09:12.912Z</time>
      </trkpt>
      <trkpt lat="43.32655" lon="6.49412">
        <ele>356.41</ele>
        <time>2025-03-15T15:09:20.202Z</time>
      </trkpt>
      <trkpt lat="43.32656" lon="6.49396">
        <ele>357.56</ele>
        <time>2025-03-15T15:09:27.595Z</time>
      </trkpt>
      <trkpt lat="43.32657" lon="6.49388">
        <ele>358.8</ele>
        <time>2025-03-15T15:09:33.200Z</time>
      </trkpt>
      <trkpt lat="43.32663" lon="6.49366">
        <ele>360.1</ele>
        <time>2025-03-15T15:09:43.367Z</time>
      </trkpt>
      <trkpt lat="43.32666" lon="6.49357">
        <ele>361.51</ele>
        <time>2025-03-15T15:09:49.772Z</time>
      </trkpt>
      <trkpt lat="43.32671" lon="6.49339">
        <ele>362.99</ele>
        <time>2025-03-15T15:09:58.888Z</time>
      </trkpt>
      <trkpt lat="43.32675" lon="6.49324">
        <ele>364.55</ele>
        <time>2025-03-15T15:10:07.232Z</time>
      </trkpt>
      <trkpt lat="43.32676" lon="6.49281">
        <ele>366.25</ele>
        <time>2025-03-15T15:10:24.276Z</time>
      </trkpt>
      <trkpt lat="43.32676" lon="6.49271">
        <ele>367.99</ele>
        <time>2025-03-15T15:10:32.111Z</time>
      </trkpt>
      <trkpt lat="43.32691" lon="6.49261">
        <ele>369.88</ele>
        <time>2025-03-15T15:10:43.025Z</time>
      </trkpt>
      <trkpt lat="43.32671" lon="6.49228">
        <ele>371.77</ele>
        <time>2025-03-15T15:11:00.434Z</time>
      </trkpt>
      <trkpt lat="43.32663" lon="6.49214">
        <ele>373.69</ele>
        <time>2025-03-15T15:11:10.200Z</time>
      </trkpt>
      <trkpt lat="43.32638" lon="6.49186">
        <ele>375.85</ele>
        <time>2025-03-15T15:11:28.125Z</time>
      </trkpt>
      <trkpt lat="43.32636" lon="6.49184">
        <ele>377.81</ele>
        <time>2025-03-15T15:11:35.708Z</time>
      </trkpt>
      <trkpt lat="43.32605" lon="6.49176">
        <ele>379.88</ele>
        <time>2025-03-15T15:11:53.480Z</time>
      </trkpt>
      <trkpt lat="43.32592" lon="6.49172">
        <ele>381.88</ele>
        <time>2025-03-15T15:12:03.742Z</time>
      </trkpt>
      <trkpt lat="43.32562" lon="6.49179">
        <ele>383.8</ele>
        <time>2025-03-15T15:12:20.753Z</time>
      </trkpt>
      <trkpt lat="43.32539" lon="6.49169">
        <ele>385.83</ele>
        <time>2025-03-15T15:12:34.897Z</time>
      </trkpt>
      <trkpt lat="43.32516" lon="6.49152">
        <ele>387.81</ele>
        <time>2025-03-15T15:12:50.325Z</time>
      </trkpt>
      <trkpt lat="43.32513" lon="6.49134">
        <ele>389.75</ele>
        <time>2025-03-15T15:13:00.355Z</time>
      </trkpt>
      <trkpt lat="43.32535" lon="6.49122">
        <ele>391.71</ele>
        <time>2025-03-15T15:13:14.579Z</time>
      </trkpt>
      <trkpt lat="43.32549" lon="6.49101">
        <ele>393.65</ele>
        <time>2025-03-15T15:13:27.443Z</time>
      </trkpt>
      <trkpt lat="43.32563" lon="6.49077">
        <ele>395.54</ele>
        <time>2025-03-15T15:13:40.791Z</time>
      </trkpt>
      <trkpt lat="43.3255" lon="6.49039">
        <ele>397.3</ele>
        <time>2025-03-15T15:13:57.953Z</time>
      </trkpt>
      <trkpt lat="43.32545" lon="6.49026">
        <ele>398.87</ele>
        <time>2025-03-15T15:14:05.844Z</time>
      </trkpt>
      <trkpt lat="43.32537" lon="6.48993">
        <ele>400.29</ele>
        <time>2025-03-15T15:14:19.671Z</time>
      </trkpt>
      <trkpt lat="43.32558" lon="6.48962">
        <ele>401.85</ele>
        <time>2025-03-15T15:14:36.492Z</time>
      </trkpt>
      <trkpt lat="43.32564" lon="6.48954">
        <ele>403.15</ele>
        <time>2025-03-15T15:14:43.041Z</time>
      </trkpt>
      <trkpt lat="43.32572" lon="6.48913">
        <ele>404.46</ele>
        <time>2025-03-15T15:14:58.958Z</time>
      </trkpt>
      <trkpt lat="43.32567" lon="6.48888">
        <ele>405.46</ele>
        <time>2025-03-15T15:15:09.402Z</time>
      </trkpt>
      <trkpt lat="43.32573" lon="6.48845">
        <ele>406.38</ele>
        <time>2025-03-15T15:15:25.128Z</time>
      </trkpt>
      <trkpt lat="43.32574" lon="6.48834">
        <ele>407.08</ele>
        <time>2025-03-15T15:15:30.070Z</time>
      </trkpt>
      <trkpt lat="43.32596" lon="6.48803">
        <ele>407.69</ele>
        <time>2025-03-15T15:15:45.335Z</time>
      </trkpt>
      <trkpt lat="43.32596" lon="6.48802">
        <ele>408.07</ele>
        <time>2025-03-15T15:15:47.376Z</time>
      </trkpt>
      <trkpt lat="43.32613" lon="6.48774">
        <ele>408.37</ele>
        <time>2025-03-15T15:15:59.817Z</time>
      </trkpt>
      <trkpt lat="43.32643" lon="6.48787">
        <ele>408.47</ele>
        <time>2025-03-15T15:16:14.169Z</time>
      </trkpt>
      <trkpt lat="43.32674" lon="6.48782">
        <ele>408.25</ele>
        <time>2025-03-15T15:16:28.257Z</time>
      </trkpt>
      <trkpt lat="43.3269" lon="6.4878">
        <ele>407.85</ele>
        <time>2025-03-15T15:16:34.698Z</time>
      </trkpt>
      <trkpt lat="43.32717" lon="6.48772">
        <ele>407.18</ele>
        <time>2025-03-15T15:16:46.708Z</time>
      </trkpt>
      <trkpt lat="43.32737" lon="6.4876">
        <ele>406.39</ele>
        <time>2025-03-15T15:16:55.653Z</time>
      </trkpt>
      <trkpt lat="43.32759" lon="6.4876">
        <ele>405.49</ele>
        <time>2025-03-15T15:17:04.479Z</time>
      </trkpt>
      <trkpt lat="43.32773" lon="6.48768">
        <ele>404.49</ele>
        <time>2025-03-15T15:17:10.710Z</time>
      </trkpt>
      <trkpt lat="43.32784" lon="6.48781">
        <ele>403.28</ele>
        <time>2025-03-15T15:17:16.362Z</time>
      </trkpt>
      <trkpt lat="43.32803" lon="6.48816">
        <ele>401.9</ele>
        <time>2025-03-15T15:17:28.954Z</time>
      </trkpt>
      <trkpt lat="43.32814" lon="6.48838">
        <ele>400.29</ele>
        <time>2025-03-15T15:17:36.741Z</time>
      </trkpt>
      <trkpt lat="43.32833" lon="6.48863">
        <ele>398.56</ele>
        <time>2025-03-15T15:17:47.333Z</time>
      </trkpt>
      <trkpt lat="43.3285" lon="6.48881">
        <ele>396.81</ele>
        <time>2025-03-15T15:17:55.763Z</time>
      </trkpt>
      <trkpt lat="43.32868" lon="6.48874">
        <ele>394.7</ele>
        <time>2025-03-15T15:18:03.524Z</time>
      </trkpt>
      <trkpt lat="43.32898" lon="6.48858">
        <ele>392.4</ele>
        <time>2025-03-15T15:18:16.112Z</time>
      </trkpt>
      <trkpt lat="43.32905" lon="6.48854">
        <ele>390.15</ele>
        <time>2025-03-15T15:18:19.284Z</time>
      </trkpt>
      <trkpt lat="43.32933" lon="6.48849">
        <ele>387.78</ele>
        <time>2025-03-15T15:18:30.606Z</time>
      </trkpt>
      <trkpt lat="43.32964" lon="6.48859">
        <ele>385.39</ele>
        <time>2025-03-15T15:18:43.199Z</time>
      </trkpt>
      <trkpt lat="43.32992" lon="6.48868">
        <ele>382.67</ele>
        <time>2025-03-15T15:18:54.941Z</time>
      </trkpt>
      <trkpt lat="43.33023" lon="6.48875">
        <ele>379.74</ele>
        <time>2025-03-15T15:19:07.537Z</time>
      </trkpt>
      <trkpt lat="43.33055" lon="6.48882">
        <ele>376.82</ele>
        <time>2025-03-15T15:19:20.133Z</time>
      </trkpt>
      <trkpt lat="43.33068" lon="6.48885">
        <ele>373.92</ele>
        <time>2025-03-15T15:19:25.439Z</time>
      </trkpt>
      <trkpt lat="43.33099" lon="6.48889">
        <ele>370.83</ele>
        <time>2025-03-15T15:19:38.036Z</time>
      </trkpt>
      <trkpt lat="43.33118" lon="6.48892">
        <ele>367.69</ele>
        <time>2025-03-15T15:19:45.669Z</time>
      </trkpt>
      <trkpt lat="43.33127" lon="6.48896">
        <ele>364.57</ele>
        <time>2025-03-15T15:19:49.421Z</time>
      </trkpt>
      <trkpt lat="43.33134" lon="6.48904">
        <ele>361.42</ele>
        <time>2025-03-15T15:19:53.198Z</time>
      </trkpt>
      <trkpt lat="43.33135" lon="6.48934">
        <ele>358.28</ele>
        <time>2025-03-15T15:20:01.940Z</time>
      </trkpt>
      <trkpt lat="43.3314" lon="6.48943">
        <ele>355.02</ele>
        <time>2025-03-15T15:20:05.404Z</time>
      </trkpt>
      <trkpt lat="43.33152" lon="6.48904">
        <ele>351.63</ele>
        <time>2025-03-15T15:20:17.963Z</time>
      </trkpt>
      <trkpt lat="43.33155" lon="6.48893">
        <ele>348.34</ele>
        <time>2025-03-15T15:20:21.143Z</time>
      </trkpt>
      <trkpt lat="43.33161" lon="6.4887">
        <ele>344.89</ele>
        <time>2025-03-15T15:20:28.196Z</time>
      </trkpt>
      <trkpt lat="43.33153" lon="6.48851">
        <ele>341.51</ele>
        <time>2025-03-15T15:20:34.834Z</time>
      </trkpt>
      <trkpt lat="43.33149" lon="6.48838">
        <ele>338.15</ele>
        <time>2025-03-15T15:20:38.746Z</time>
      </trkpt>
      <trkpt lat="43.33159" lon="6.48833">
        <ele>334.76</ele>
        <time>2025-03-15T15:20:43.184Z</time>
      </trkpt>
      <trkpt lat="43.33181" lon="6.48865">
        <ele>331.6</ele>
        <time>2025-03-15T15:20:55.757Z</time>
      </trkpt>
      <trkpt lat="43.33182" lon="6.48866">
        <ele>328.36</ele>
        <time>2025-03-15T15:20:56.212Z</time>
      </trkpt>
      <trkpt lat="43.33212" lon="6.48878">
        <ele>324.92</ele>
        <time>2025-03-15T15:21:08.805Z</time>
      </trkpt>
      <trkpt lat="43.33217" lon="6.4888">
        <ele>321.71</ele>
        <time>2025-03-15T15:21:10.976Z</time>
      </trkpt>
      <trkpt lat="43.3323" lon="6.48873">
        <ele>318.44</ele>
        <time>2025-03-15T15:21:16.571Z</time>
      </trkpt>
      <trkpt lat="43.33261" lon="6.48869">
        <ele>315.19</ele>
        <time>2025-03-15T15:21:29.167Z</time>
      </trkpt>
      <trkpt lat="43.33274" lon="6.48868">
        <ele>312.13</ele>
        <time>2025-03-15T15:21:34.243Z</time>
      </trkpt>
      <trkpt lat="43.33294" lon="6.4888">
        <ele>309.14</ele>
        <time>2025-03-15T15:21:42.705Z</time>
      </trkpt>
      <trkpt lat="43.33316" lon="6.4891">
        <ele>306.17</ele>
        <time>2025-03-15T15:21:55.278Z</time>
      </trkpt>
      <trkpt lat="43.33324" lon="6.48922">
        <ele>303.33</ele>
        <time>2025-03-15T15:22:00.138Z</time>
      </trkpt>
      <trkpt lat="43.3335" lon="6.48947">
        <ele>300.47</ele>
        <time>2025-03-15T15:22:12.720Z</time>
      </trkpt>
      <trkpt lat="43.33353" lon="6.4895">
        <ele>297.84</ele>
        <time>2025-03-15T15:22:14.375Z</time>
      </trkpt>
      <trkpt lat="43.33385" lon="6.48951">
        <ele>295.07</ele>
        <time>2025-03-15T15:22:26.971Z</time>
      </trkpt>
      <trkpt lat="43.33385" lon="6.48951">
        <ele>292.66</ele>
        <time>2025-03-15T15:22:27.169Z</time>
      </trkpt>
      <trkpt lat="43.33417" lon="6.48947">
        <ele>290.08</ele>
        <time>2025-03-15T15:22:39.766Z</time>
      </trkpt>
      <trkpt lat="43.33424" lon="6.48946">
        <ele>287.84</ele>
        <time>2025-03-15T15:22:42.522Z</time>
      </trkpt>
      <trkpt lat="43.33442" lon="6.48952">
        <ele>285.63</ele>
        <time>2025-03-15T15:22:50.206Z</time>
      </trkpt>
      <trkpt lat="43.33458" lon="6.48965">
        <ele>283.55</ele>
        <time>2025-03-15T15:22:57.565Z</time>
      </trkpt>
      <trkpt lat="43.33464" lon="6.48984">
        <ele>281.7</ele>
        <time>2025-03-15T15:23:03.505Z</time>
      </trkpt>
      <trkpt lat="43.33473" lon="6.4902">
        <ele>279.94</ele>
        <time>2025-03-15T15:23:14.665Z</time>
      </trkpt>
      <trkpt lat="43.33499" lon="6.49046">
        <ele>278.34</ele>
        <time>2025-03-15T15:23:27.245Z</time>
      </trkpt>
      <trkpt lat="43.33501" lon="6.49049">
        <ele>276.92</ele>
        <time>2025-03-15T15:23:28.624Z</time>
      </trkpt>
      <trkpt lat="43.33502" lon="6.49049">
        <ele>275.62</ele>
        <time>2025-03-15T15:23:28.753Z</time>
      </trkpt>
      <trkpt lat="43.33503" lon="6.49052">
        <ele>274.45</ele>
        <time>2025-03-15T15:23:29.602Z</time>
      </trkpt>
      <trkpt lat="43.33502" lon="6.49061">
        <ele>273.43</ele>
        <time>2025-03-15T15:23:32.349Z</time>
      </trkpt>
      <trkpt lat="43.33502" lon="6.49065">
        <ele>272.52</ele>
        <time>2025-03-15T15:23:33.593Z</time>
      </trkpt>
      <trkpt lat="43.33501" lon="6.49069">
        <ele>271.73</ele>
        <time>2025-03-15T15:23:34.805Z</time>
      </trkpt>
      <trkpt lat="43.335" lon="6.49073">
        <ele>271.05</ele>
        <time>2025-03-15T15:23:36.023Z</time>
      </trkpt>
      <trkpt lat="43.33499" lon="6.49077">
        <ele>270.48</ele>
        <time>2025-03-15T15:23:37.105Z</time>
      </trkpt>
      <trkpt lat="43.33498" lon="6.49081">
        <ele>270.03</ele>
        <time>2025-03-15T15:23:38.295Z</time>
      </trkpt>
      <trkpt lat="43.33498" lon="6.49082">
        <ele>269.67</ele>
        <time>2025-03-15T15:23:38.797Z</time>
      </trkpt>
      <trkpt lat="43.33497" lon="6.49084">
        <ele>269.42</ele>
        <time>2025-03-15T15:23:39.435Z</time>
      </trkpt>
      <trkpt lat="43.33497" lon="6.49087">
        <ele>269.27</ele>
        <time>2025-03-15T15:23:40.242Z</time>
      </trkpt>
      <trkpt lat="43.33498" lon="6.4909">
        <ele>269.21</ele>
        <time>2025-03-15T15:23:41.215Z</time>
      </trkpt>
      <trkpt lat="43.33498" lon="6.49094">
        <ele>269.24</ele>
        <time>2025-03-15T15:23:42.439Z</time>
      </trkpt>
      <trkpt lat="43.33499" lon="6.49096">
        <ele>269.34</ele>
        <time>2025-03-15T15:23:43.455Z</time>
      </trkpt>
      <trkpt lat="43.33502" lon="6.49101">
        <ele>269.53</ele>
        <time>2025-03-15T15:23:45.722Z</time>
      </trkpt>
      <trkpt lat="43.33503" lon="6.49103">
        <ele>269.78</ele>
        <time>2025-03-15T15:23:47.061Z</time>
      </trkpt>
      <trkpt lat="43.33504" lon="6.49108">
        <ele>270.1</ele>
        <time>2025-03-15T15:23:49.603Z</time>
      </trkpt>
      <trkpt lat="43.33506" lon="6.49111">
        <ele>270.48</ele>
        <time>2025-03-15T15:23:51.451Z</time>
      </trkpt>
      <trkpt lat="43.33508" lon="6.49113">
        <ele>270.9</ele>
        <time>2025-03-15T15:23:53.577Z</time>
      </trkpt>
      <trkpt lat="43.33509" lon="6.49117">
        <ele>271.38</ele>
        <time>2025-03-15T15:23:55.883Z</time>
      </trkpt>
      <trkpt lat="43.33511" lon="6.4912">
        <ele>271.9</ele>
        <time>2025-03-15T15:23:58.292Z</time>
      </trkpt>
      <trkpt lat="43.33513" lon="6.49126">
        <ele>272.47</ele>
        <time>2025-03-15T15:24:01.612Z</time>
      </trkpt>
      <trkpt lat="43.33513" lon="6.4913">
        <ele>273.07</ele>
        <time>2025-03-15T15:24:04.329Z</time>
      </trkpt>
      <trkpt lat="43.33513" lon="6.49133">
        <ele>273.7</ele>
        <time>2025-03-15T15:24:07.333Z</time>
      </trkpt>
      <trkpt lat="43.33513" lon="6.49135">
        <ele>274.35</ele>
        <time>2025-03-15T15:24:10.397Z</time>
      </trkpt>
      <trkpt lat="43.33513" lon="6.49138">
        <ele>275.03</ele>
        <time>2025-03-15T15:24:13.725Z</time>
      </trkpt>
      <trkpt lat="43.33513" lon="6.49141">
        <ele>275.73</ele>
        <time>2025-03-15T15:24:17.138Z</time>
      </trkpt>
      <trkpt lat="43.33514" lon="6.49144">
        <ele>276.44</ele>
        <time>2025-03-15T15:24:20.542Z</time>
      </trkpt>
      <trkpt lat="43.33514" lon="6.49146">
        <ele>277.16</ele>
        <time>2025-03-15T15:24:24.016Z</time>
      </trkpt>
      <trkpt lat="43.33515" lon="6.49149">
        <ele>277.9</ele>
        <time>2025-03-15T15:24:27.554Z</time>
      </trkpt>
      <trkpt lat="43.33516" lon="6.49151">
        <ele>278.64</ele>
        <time>2025-03-15T15:24:31.282Z</time>
      </trkpt>
      <trkpt lat="43.33517" lon="6.49153">
        <ele>279.38</ele>
        <time>2025-03-15T15:24:35.236Z</time>
      </trkpt>
      <trkpt lat="43.33519" lon="6.49155">
        <ele>280.13</ele>
        <time>2025-03-15T15:24:39.027Z</time>
      </trkpt>
      <trkpt lat="43.3352" lon="6.49159">
        <ele>280.88</ele>
        <time>2025-03-15T15:24:42.401Z</time>
      </trkpt>
      <trkpt lat="43.3352" lon="6.49161">
        <ele>281.62</ele>
        <time>2025-03-15T15:24:45.865Z</time>
      </trkpt>
      <trkpt lat="43.33521" lon="6.49163">
        <ele>282.36</ele>
        <time>2025-03-15T15:24:49.229Z</time>
      </trkpt>
      <trkpt lat="43.33522" lon="6.49164">
        <ele>283.1</ele>
        <time>2025-03-15T15:24:52.976Z</time>
      </trkpt>
      <trkpt lat="43.33524" lon="6.49168">
        <ele>283.83</ele>
        <time>2025-03-15T15:24:56.275Z</time>
      </trkpt>
      <trkpt lat="43.33525" lon="6.4917">
        <ele>284.56</ele>
        <time>2025-03-15T15:24:59.813Z</time>
      </trkpt>
      <trkpt lat="43.33527" lon="6.49172">
        <ele>285.28</ele>
        <time>2025-03-15T15:25:03.341Z</time>
      </trkpt>
      <trkpt lat="43.33528" lon="6.49173">
        <ele>286</ele>
        <time>2025-03-15T15:25:06.978Z</time>
      </trkpt>
      <trkpt lat="43.3353" lon="6.49175">
        <ele>286.69</ele>
        <time>2025-03-15T15:25:10.401Z</time>
      </trkpt>
      <trkpt lat="43.33536" lon="6.49179">
        <ele>287.41</ele>
        <time>2025-03-15T15:25:14.986Z</time>
      </trkpt>
      <trkpt lat="43.33538" lon="6.49181">
        <ele>288.08</ele>
        <time>2025-03-15T15:25:18.435Z</time>
      </trkpt>
      <trkpt lat="43.33539" lon="6.49182">
        <ele>288.75</ele>
        <time>2025-03-15T15:25:21.576Z</time>
      </trkpt>
      <trkpt lat="43.33541" lon="6.49184">
        <ele>289.4</ele>
        <time>2025-03-15T15:25:24.842Z</time>
      </trkpt>
      <trkpt lat="43.33542" lon="6.49186">
        <ele>290.04</ele>
        <time>2025-03-15T15:25:27.792Z</time>
      </trkpt>
      <trkpt lat="43.33544" lon="6.49188">
        <ele>290.67</ele>
        <time>2025-03-15T15:25:30.684Z</time>
      </trkpt>
      <trkpt lat="43.33547" lon="6.49192">
        <ele>291.3</ele>
        <time>2025-03-15T15:25:34.025Z</time>
      </trkpt>
      <trkpt lat="43.33548" lon="6.49193">
        <ele>291.9</ele>
        <time>2025-03-15T15:25:37.142Z</time>
      </trkpt>
      <trkpt lat="43.3355" lon="6.49195">
        <ele>292.49</ele>
        <time>2025-03-15T15:25:39.935Z</time>
      </trkpt>
      <trkpt lat="43.33551" lon="6.49196">
        <ele>293.07</ele>
        <time>2025-03-15T15:25:42.755Z</time>
      </trkpt>
      <trkpt lat="43.33553" lon="6.49198">
        <ele>293.64</ele>
        <time>2025-03-15T15:25:45.332Z</time>
      </trkpt>
      <trkpt lat="43.33554" lon="6.49199">
        <ele>294.19</ele>
        <time>2025-03-15T15:25:47.937Z</time>
      </trkpt>
      <trkpt lat="43.33555" lon="6.49201">
        <ele>294.73</ele>
        <time>2025-03-15T15:25:50.593Z</time>
      </trkpt>
      <trkpt lat="43.33556" lon="6.49203">
        <ele>295.26</ele>
        <time>2025-03-15T15:25:53.084Z</time>
      </trkpt>
      <trkpt lat="43.33557" lon="6.49205">
        <ele>295.79</ele>
        <time>2025-03-15T15:25:55.502Z</time>
      </trkpt>
      <trkpt lat="43.33557" lon="6.49207">
        <ele>296.29</ele>
        <time>2025-03-15T15:25:57.782Z</time>
      </trkpt>
      <trkpt lat="43.33558" lon="6.49209">
        <ele>296.79</ele>
        <time>2025-03-15T15:26:00.073Z</time>
      </trkpt>
      <trkpt lat="43.33558" lon="6.49212">
        <ele>297.28</ele>
        <time>2025-03-15T15:26:02.273Z</time>
      </trkpt>
      <trkpt lat="43.33559" lon="6.49214">
        <ele>297.75</ele>
        <time>2025-03-15T15:26:04.406Z</time>
      </trkpt>
      <trkpt lat="43.3356" lon="6.49216">
        <ele>298.22</ele>
        <time>2025-03-15T15:26:06.521Z</time>
      </trkpt>
      <trkpt lat="43.3356" lon="6.49218">
        <ele>298.68</ele>
        <time>2025-03-15T15:26:08.657Z</time>
      </trkpt>
      <trkpt lat="43.33561" lon="6.4922">
        <ele>299.13</ele>
        <time>2025-03-15T15:26:10.681Z</time>
      </trkpt>
      <trkpt lat="43.33563" lon="6.49225">
        <ele>299.58</ele>
        <time>2025-03-15T15:26:13.304Z</time>
      </trkpt>
      <trkpt lat="43.33564" lon="6.49227">
        <ele>300.01</ele>
        <time>2025-03-15T15:26:15.234Z</time>
      </trkpt>
      <trkpt lat="43.33565" lon="6.49229">
        <ele>300.44</ele>
        <time>2025-03-15T15:26:17.172Z</time>
      </trkpt>
      <trkpt lat="43.33566" lon="6.49231">
        <ele>300.85</ele>
        <time>2025-03-15T15:26:19.018Z</time>
      </trkpt>
      <trkpt lat="43.33568" lon="6.49232">
        <ele>301.25</ele>
        <time>2025-03-15T15:26:20.825Z</time>
      </trkpt>
      <trkpt lat="43.33572" lon="6.49234">
        <ele>301.67</ele>
        <time>2025-03-15T15:26:23.847Z</time>
      </trkpt>
      <trkpt lat="43.33575" lon="6.49234">
        <ele>302.05</ele>
        <time>2025-03-15T15:26:25.638Z</time>
      </trkpt>
      <trkpt lat="43.33577" lon="6.49233">
        <ele>302.42</ele>
        <time>2025-03-15T15:26:27.412Z</time>
      </trkpt>
      <trkpt lat="43.33579" lon="6.49233">
        <ele>302.79</ele>
        <time>2025-03-15T15:26:29.127Z</time>
      </trkpt>
      <trkpt lat="43.33581" lon="6.49233">
        <ele>303.16</ele>
        <time>2025-03-15T15:26:30.879Z</time>
      </trkpt>
      <trkpt lat="43.33587" lon="6.4923">
        <ele>303.56</ele>
        <time>2025-03-15T15:26:34.460Z</time>
      </trkpt>
      <trkpt lat="43.33589" lon="6.4923">
        <ele>303.91</ele>
        <time>2025-03-15T15:26:36.191Z</time>
      </trkpt>
      <trkpt lat="43.33591" lon="6.49229">
        <ele>304.25</ele>
        <time>2025-03-15T15:26:37.887Z</time>
      </trkpt>
      <trkpt lat="43.33593" lon="6.49228">
        <ele>304.59</ele>
        <time>2025-03-15T15:26:39.535Z</time>
      </trkpt>
      <trkpt lat="43.33595" lon="6.49226">
        <ele>304.9</ele>
        <time>2025-03-15T15:26:41.232Z</time>
      </trkpt>
      <trkpt lat="43.33602" lon="6.49212">
        <ele>305.2</ele>
        <time>2025-03-15T15:26:47.316Z</time>
      </trkpt>
      <trkpt lat="43.33611" lon="6.49191">
        <ele>305.43</ele>
        <time>2025-03-15T15:26:55.858Z</time>
      </trkpt>
      <trkpt lat="43.3362" lon="6.49182">
        <ele>305.72</ele>
        <time>2025-03-15T15:27:01.257Z</time>
      </trkpt>
      <trkpt lat="43.33625" lon="6.49182">
        <ele>306.05</ele>
        <time>2025-03-15T15:27:04.230Z</time>
      </trkpt>
      <trkpt lat="43.33635" lon="6.49185">
        <ele>306.41</ele>
        <time>2025-03-15T15:27:09.442Z</time>
      </trkpt>
      <trkpt lat="43.33638" lon="6.49186">
        <ele>306.72</ele>
        <time>2025-03-15T15:27:11.188Z</time>
      </trkpt>
      <trkpt lat="43.3364" lon="6.49187">
        <ele>307.01</ele>
        <time>2025-03-15T15:27:12.946Z</time>
      </trkpt>
      <trkpt lat="43.33644" lon="6.49188">
        <ele>307.31</ele>
        <time>2025-03-15T15:27:14.970Z</time>
      </trkpt>
      <trkpt lat="43.33646" lon="6.49189">
        <ele>307.6</ele>
        <time>2025-03-15T15:27:16.778Z</time>
      </trkpt>
      <trkpt lat="43.33658" lon="6.49194">
        <ele>307.93</ele>
        <time>2025-03-15T15:27:22.793Z</time>
      </trkpt>
      <trkpt lat="43.3366" lon="6.49194">
        <ele>308.21</ele>
        <time>2025-03-15T15:27:24.537Z</time>
      </trkpt>
      <trkpt lat="43.33663" lon="6.49195">
        <ele>308.48</ele>
        <time>2025-03-15T15:27:26.250Z</time>
      </trkpt>
      <trkpt lat="43.33666" lon="6.49196">
        <ele>308.75</ele>
        <time>2025-03-15T15:27:28.013Z</time>
      </trkpt>
      <trkpt lat="43.33668" lon="6.49196">
        <ele>309.02</ele>
        <time>2025-03-15T15:27:29.641Z</time>
      </trkpt>
      <trkpt lat="43.33678" lon="6.49199">
        <ele>309.31</ele>
        <time>2025-03-15T15:27:34.624Z</time>
      </trkpt>
      <trkpt lat="43.33681" lon="6.492">
        <ele>309.57</ele>
        <time>2025-03-15T15:27:36.494Z</time>
      </trkpt>
      <trkpt lat="43.33684" lon="6.49201">
        <ele>309.82</ele>
        <time>2025-03-15T15:27:38.244Z</time>
      </trkpt>
      <trkpt lat="43.33687" lon="6.49202">
        <ele>310.07</ele>
        <time>2025-03-15T15:27:40.019Z</time>
      </trkpt>
      <trkpt lat="43.33689" lon="6.49203">
        <ele>310.31</ele>
        <time>2025-03-15T15:27:41.648Z</time>
      </trkpt>
      <trkpt lat="43.33694" lon="6.49204">
        <ele>310.56</ele>
        <time>2025-03-15T15:27:44.336Z</time>
      </trkpt>
      <trkpt lat="43.33699" lon="6.49206">
        <ele>310.8</ele>
        <time>2025-03-15T15:27:46.827Z</time>
      </trkpt>
      <trkpt lat="43.33701" lon="6.49207">
        <ele>311.02</ele>
        <time>2025-03-15T15:27:48.445Z</time>
      </trkpt>
      <trkpt lat="43.33704" lon="6.49208">
        <ele>311.23</ele>
        <time>2025-03-15T15:27:49.840Z</time>
      </trkpt>
      <trkpt lat="43.33706" lon="6.49209">
        <ele>311.44</ele>
        <time>2025-03-15T15:27:51.418Z</time>
      </trkpt>
      <trkpt lat="43.33709" lon="6.4921">
        <ele>311.65</ele>
        <time>2025-03-15T15:27:53.265Z</time>
      </trkpt>
      <trkpt lat="43.33712" lon="6.49212">
        <ele>311.85</ele>
        <time>2025-03-15T15:27:54.833Z</time>
      </trkpt>
      <trkpt lat="43.33714" lon="6.49212">
        <ele>312.04</ele>
        <time>2025-03-15T15:27:56.347Z</time>
      </trkpt>
      <trkpt lat="43.33717" lon="6.49212">
        <ele>312.21</ele>
        <time>2025-03-15T15:27:57.757Z</time>
      </trkpt>
      <trkpt lat="43.33719" lon="6.49212">
        <ele>312.37</ele>
        <time>2025-03-15T15:27:59.266Z</time>
      </trkpt>
      <trkpt lat="43.33723" lon="6.49212">
        <ele>312.53</ele>
        <time>2025-03-15T15:28:01.071Z</time>
      </trkpt>
      <trkpt lat="43.33726" lon="6.49211">
        <ele>312.68</ele>
        <time>2025-03-15T15:28:02.544Z</time>
      </trkpt>
      <trkpt lat="43.33742" lon="6.49212">
        <ele>312.83</ele>
        <time>2025-03-15T15:28:10.241Z</time>
      </trkpt>
      <trkpt lat="43.33757" lon="6.49217">
        <ele>312.98</ele>
        <time>2025-03-15T15:28:17.304Z</time>
      </trkpt>
      <trkpt lat="43.3376" lon="6.4922">
        <ele>313.12</ele>
        <time>2025-03-15T15:28:19.509Z</time>
      </trkpt>
      <trkpt lat="43.33769" lon="6.49224">
        <ele>313.26</ele>
        <time>2025-03-15T15:28:23.734Z</time>
      </trkpt>
      <trkpt lat="43.33773" lon="6.49224">
        <ele>313.37</ele>
        <time>2025-03-15T15:28:26.127Z</time>
      </trkpt>
      <trkpt lat="43.33791" lon="6.49218">
        <ele>313.48</ele>
        <time>2025-03-15T15:28:34.555Z</time>
      </trkpt>
      <trkpt lat="43.33808" lon="6.49214">
        <ele>313.58</ele>
        <time>2025-03-15T15:28:42.575Z</time>
      </trkpt>
      <trkpt lat="43.33829" lon="6.4921">
        <ele>313.68</ele>
        <time>2025-03-15T15:28:52.603Z</time>
      </trkpt>
      <trkpt lat="43.33849" lon="6.49211">
        <ele>313.77</ele>
        <time>2025-03-15T15:29:01.674Z</time>
      </trkpt>
      <trkpt lat="43.33869" lon="6.49216">
        <ele>313.85</ele>
        <time>2025-03-15T15:29:10.922Z</time>
      </trkpt>
      <trkpt lat="43.33876" lon="6.49219">
        <ele>313.94</ele>
        <time>2025-03-15T15:29:14.419Z</time>
      </trkpt>
      <trkpt lat="43.33896" lon="6.49234">
        <ele>314.08</ele>
        <time>2025-03-15T15:29:24.904Z</time>
      </trkpt>
      <trkpt lat="43.33911" lon="6.49232">
        <ele>314.13</ele>
        <time>2025-03-15T15:29:32.107Z</time>
      </trkpt>
      <trkpt lat="43.33933" lon="6.49224">
        <ele>314.16</ele>
        <time>2025-03-15T15:29:42.355Z</time>
      </trkpt>
      <trkpt lat="43.33951" lon="6.49225">
        <ele>314.27</ele>
        <time>2025-03-15T15:29:51.052Z</time>
      </trkpt>
      <trkpt lat="43.33966" lon="6.49228">
        <ele>314.41</ele>
        <time>2025-03-15T15:29:57.810Z</time>
      </trkpt>
      <trkpt lat="43.3397" lon="6.49227">
        <ele>314.5</ele>
        <time>2025-03-15T15:30:00.060Z</time>
      </trkpt>
      <trkpt lat="43.33996" lon="6.49219">
        <ele>314.49</ele>
        <time>2025-03-15T15:30:12.308Z</time>
      </trkpt>
      <trkpt lat="43.34027" lon="6.49213">
        <ele>314.5</ele>
        <time>2025-03-15T15:30:26.570Z</time>
      </trkpt>
      <trkpt lat="43.34034" lon="6.49214">
        <ele>314.57</ele>
        <time>2025-03-15T15:30:29.588Z</time>
      </trkpt>
      <trkpt lat="43.34048" lon="6.49224">
        <ele>314.7</ele>
        <time>2025-03-15T15:30:37.183Z</time>
      </trkpt>
      <trkpt lat="43.34052" lon="6.49227">
        <ele>314.81</ele>
        <time>2025-03-15T15:30:39.490Z</time>
      </trkpt>
      <trkpt lat="43.34064" lon="6.49238">
        <ele>314.96</ele>
        <time>2025-03-15T15:30:46.381Z</time>
      </trkpt>
      <trkpt lat="43.34067" lon="6.49243">
        <ele>315.09</ele>
        <time>2025-03-15T15:30:48.617Z</time>
      </trkpt>
      <trkpt lat="43.34073" lon="6.49252">
        <ele>315.26</ele>
        <time>2025-03-15T15:30:52.965Z</time>
      </trkpt>
      <trkpt lat="43.34075" lon="6.49257">
        <ele>315.42</ele>
        <time>2025-03-15T15:30:55.107Z</time>
      </trkpt>
      <trkpt lat="43.34079" lon="6.49266">
        <ele>315.6</ele>
        <time>2025-03-15T15:30:58.760Z</time>
      </trkpt>
      <trkpt lat="43.34088" lon="6.49274">
        <ele>315.78</ele>
        <time>2025-03-15T15:31:03.869Z</time>
      </trkpt>
      <trkpt lat="43.34092" lon="6.49275">
        <ele>315.92</ele>
        <time>2025-03-15T15:31:06.038Z</time>
      </trkpt>
      <trkpt lat="43.34116" lon="6.49283">
        <ele>316.04</ele>
        <time>2025-03-15T15:31:17.506Z</time>
      </trkpt>
      <trkpt lat="43.34122" lon="6.49286">
        <ele>316.19</ele>
        <time>2025-03-15T15:31:20.800Z</time>
      </trkpt>
      <trkpt lat="43.34126" lon="6.49287">
        <ele>316.34</ele>
        <time>2025-03-15T15:31:22.500Z</time>
      </trkpt>
      <trkpt lat="43.34128" lon="6.49288">
        <ele>316.5</ele>
        <time>2025-03-15T15:31:23.892Z</time>
      </trkpt>
      <trkpt lat="43.3413" lon="6.4929">
        <ele>316.67</ele>
        <time>2025-03-15T15:31:25.477Z</time>
      </trkpt>
      <trkpt lat="43.34133" lon="6.49291">
        <ele>316.85</ele>
        <time>2025-03-15T15:31:26.977Z</time>
      </trkpt>
      <trkpt lat="43.34152" lon="6.49299">
        <ele>317.05</ele>
        <time>2025-03-15T15:31:36.285Z</time>
      </trkpt>
      <trkpt lat="43.34155" lon="6.49297">
        <ele>317.23</ele>
        <time>2025-03-15T15:31:38.377Z</time>
      </trkpt>
      <trkpt lat="43.34163" lon="6.4929">
        <ele>317.4</ele>
        <time>2025-03-15T15:31:42.843Z</time>
      </trkpt>
      <trkpt lat="43.34182" lon="6.49275">
        <ele>317.63</ele>
        <time>2025-03-15T15:31:52.989Z</time>
      </trkpt>
      <trkpt lat="43.34187" lon="6.49273">
        <ele>317.87</ele>
        <time>2025-03-15T15:31:55.847Z</time>
      </trkpt>
      <trkpt lat="43.34189" lon="6.49272">
        <ele>318.1</ele>
        <time>2025-03-15T15:31:57.127Z</time>
      </trkpt>
      <trkpt lat="43.34191" lon="6.49271">
        <ele>318.35</ele>
        <time>2025-03-15T15:31:58.762Z</time>
      </trkpt>
      <trkpt lat="43.34193" lon="6.49269">
        <ele>318.59</ele>
        <time>2025-03-15T15:32:00.218Z</time>
      </trkpt>
      <trkpt lat="43.34195" lon="6.49268">
        <ele>318.85</ele>
        <time>2025-03-15T15:32:01.664Z</time>
      </trkpt>
      <trkpt lat="43.34199" lon="6.49263">
        <ele>319.11</ele>
        <time>2025-03-15T15:32:04.525Z</time>
      </trkpt>
      <trkpt lat="43.34203" lon="6.49256">
        <ele>319.39</ele>
        <time>2025-03-15T15:32:08.000Z</time>
      </trkpt>
      <trkpt lat="43.34205" lon="6.49254">
        <ele>319.68</ele>
        <time>2025-03-15T15:32:09.602Z</time>
      </trkpt>
      <trkpt lat="43.34206" lon="6.49251">
        <ele>319.96</ele>
        <time>2025-03-15T15:32:11.220Z</time>
      </trkpt>
      <trkpt lat="43.34207" lon="6.49248">
        <ele>320.25</ele>
        <time>2025-03-15T15:32:12.891Z</time>
      </trkpt>
      <trkpt lat="43.34209" lon="6.49245">
        <ele>320.56</ele>
        <time>2025-03-15T15:32:14.782Z</time>
      </trkpt>
      <trkpt lat="43.34211" lon="6.49245">
        <ele>320.87</ele>
        <time>2025-03-15T15:32:16.402Z</time>
      </trkpt>
      <trkpt lat="43.34214" lon="6.49246">
        <ele>321.2</ele>
        <time>2025-03-15T15:32:18.296Z</time>
      </trkpt>
      <trkpt lat="43.34215" lon="6.49248">
        <ele>321.52</ele>
        <time>2025-03-15T15:32:19.840Z</time>
      </trkpt>
      <trkpt lat="43.34218" lon="6.49252">
        <ele>321.86</ele>
        <time>2025-03-15T15:32:22.469Z</time>
      </trkpt>
      <trkpt lat="43.3422" lon="6.49257">
        <ele>322.19</ele>
        <time>2025-03-15T15:32:24.601Z</time>
      </trkpt>
      <trkpt lat="43.34217" lon="6.49274">
        <ele>322.53</ele>
        <time>2025-03-15T15:32:31.047Z</time>
      </trkpt>
      <trkpt lat="43.34219" lon="6.49288">
        <ele>322.93</ele>
        <time>2025-03-15T15:32:36.202Z</time>
      </trkpt>
      <trkpt lat="43.34221" lon="6.49291">
        <ele>323.28</ele>
        <time>2025-03-15T15:32:38.161Z</time>
      </trkpt>
      <trkpt lat="43.34222" lon="6.49294">
        <ele>323.64</ele>
        <time>2025-03-15T15:32:40.112Z</time>
      </trkpt>
      <trkpt lat="43.34224" lon="6.49297">
        <ele>324.01</ele>
        <time>2025-03-15T15:32:42.130Z</time>
      </trkpt>
      <trkpt lat="43.34226" lon="6.493">
        <ele>324.38</ele>
        <time>2025-03-15T15:32:44.225Z</time>
      </trkpt>
      <trkpt lat="43.34228" lon="6.49303">
        <ele>324.75</ele>
        <time>2025-03-15T15:32:46.385Z</time>
      </trkpt>
      <trkpt lat="43.34234" lon="6.49314">
        <ele>325.15</ele>
        <time>2025-03-15T15:32:51.309Z</time>
      </trkpt>
      <trkpt lat="43.34238" lon="6.49323">
        <ele>325.55</ele>
        <time>2025-03-15T15:32:55.485Z</time>
      </trkpt>
      <trkpt lat="43.3424" lon="6.49326">
        <ele>325.92</ele>
        <time>2025-03-15T15:32:57.470Z</time>
      </trkpt>
      <trkpt lat="43.34242" lon="6.49329">
        <ele>326.3</ele>
        <time>2025-03-15T15:32:59.629Z</time>
      </trkpt>
      <trkpt lat="43.34245" lon="6.4933">
        <ele>326.67</ele>
        <time>2025-03-15T15:33:01.521Z</time>
      </trkpt>
      <trkpt lat="43.34247" lon="6.49333">
        <ele>327.04</ele>
        <time>2025-03-15T15:33:03.590Z</time>
      </trkpt>
      <trkpt lat="43.34254" lon="6.49342">
        <ele>327.41</ele>
        <time>2025-03-15T15:33:08.767Z</time>
      </trkpt>
      <trkpt lat="43.34255" lon="6.49345">
        <ele>327.79</ele>
        <time>2025-03-15T15:33:10.679Z</time>
      </trkpt>
      <trkpt lat="43.34256" lon="6.49349">
        <ele>328.19</ele>
        <time>2025-03-15T15:33:12.791Z</time>
      </trkpt>
      <trkpt lat="43.34257" lon="6.49353">
        <ele>328.57</ele>
        <time>2025-03-15T15:33:15.034Z</time>
      </trkpt>
      <trkpt lat="43.34259" lon="6.49357">
        <ele>328.95</ele>
        <time>2025-03-15T15:33:16.994Z</time>
      </trkpt>
      <trkpt lat="43.3426" lon="6.4936">
        <ele>329.32</ele>
        <time>2025-03-15T15:33:19.025Z</time>
      </trkpt>
      <trkpt lat="43.34268" lon="6.49378">
        <ele>329.73</ele>
        <time>2025-03-15T15:33:26.517Z</time>
      </trkpt>
      <trkpt lat="43.34269" lon="6.49381">
        <ele>330.09</ele>
        <time>2025-03-15T15:33:28.412Z</time>
      </trkpt>
      <trkpt lat="43.3427" lon="6.49384">
        <ele>330.45</ele>
        <time>2025-03-15T15:33:30.291Z</time>
      </trkpt>
      <trkpt lat="43.34271" lon="6.49387">
        <ele>330.8</ele>
        <time>2025-03-15T15:33:32.142Z</time>
      </trkpt>
      <trkpt lat="43.34273" lon="6.4939">
        <ele>331.13</ele>
        <time>2025-03-15T15:33:33.819Z</time>
      </trkpt>
      <trkpt lat="43.34274" lon="6.49392">
        <ele>331.45</ele>
        <time>2025-03-15T15:33:35.485Z</time>
      </trkpt>
      <trkpt lat="43.34276" lon="6.49397">
        <ele>331.77</ele>
        <time>2025-03-15T15:33:37.721Z</time>
      </trkpt>
      <trkpt lat="43.3428" lon="6.49408">
        <ele>332.08</ele>
        <time>2025-03-15T15:33:42.409Z</time>
      </trkpt>
      <trkpt lat="43.34282" lon="6.49412">
        <ele>332.38</ele>
        <time>2025-03-15T15:33:44.399Z</time>
      </trkpt>
      <trkpt lat="43.34283" lon="6.49416">
        <ele>332.68</ele>
        <time>2025-03-15T15:33:46.528Z</time>
      </trkpt>
      <trkpt lat="43.34285" lon="6.49421">
        <ele>332.99</ele>
        <time>2025-03-15T15:33:48.797Z</time>
      </trkpt>
      <trkpt lat="43.34287" lon="6.49429">
        <ele>333.3</ele>
        <time>2025-03-15T15:33:52.205Z</time>
      </trkpt>
      <trkpt lat="43.34287" lon="6.49433">
        <ele>333.59</ele>
        <time>2025-03-15T15:33:54.112Z</time>
      </trkpt>
      <trkpt lat="43.34288" lon="6.49437">
        <ele>333.89</ele>
        <time>2025-03-15T15:33:56.002Z</time>
      </trkpt>
      <trkpt lat="43.34289" lon="6.49441">
        <ele>334.18</ele>
        <time>2025-03-15T15:33:57.779Z</time>
      </trkpt>
      <trkpt lat="43.3429" lon="6.49445">
        <ele>334.46</ele>
        <time>2025-03-15T15:33:59.661Z</time>
      </trkpt>
      <trkpt lat="43.34294" lon="6.4946">
        <ele>334.77</ele>
        <time>2025-03-15T15:34:05.579Z</time>
      </trkpt>
      <trkpt lat="43.34296" lon="6.49464">
        <ele>335.05</ele>
        <time>2025-03-15T15:34:07.664Z</time>
      </trkpt>
      <trkpt lat="43.34297" lon="6.49468">
        <ele>335.3</ele>
        <time>2025-03-15T15:34:09.393Z</time>
      </trkpt>
      <trkpt lat="43.34299" lon="6.49471">
        <ele>335.55</ele>
        <time>2025-03-15T15:34:11.201Z</time>
      </trkpt>
      <trkpt lat="43.34301" lon="6.49475">
        <ele>335.81</ele>
        <time>2025-03-15T15:34:13.185Z</time>
      </trkpt>
      <trkpt lat="43.34303" lon="6.4948">
        <ele>336.05</ele>
        <time>2025-03-15T15:34:15.416Z</time>
      </trkpt>
      <trkpt lat="43.34305" lon="6.49484">
        <ele>336.3</ele>
        <time>2025-03-15T15:34:17.707Z</time>
      </trkpt>
      <trkpt lat="43.34324" lon="6.49513">
        <ele>336.46</ele>
        <time>2025-03-15T15:34:30.572Z</time>
      </trkpt>
      <trkpt lat="43.34338" lon="6.49536">
        <ele>336.65</ele>
        <time>2025-03-15T15:34:40.809Z</time>
      </trkpt>
      <trkpt lat="43.34348" lon="6.49564">
        <ele>336.9</ele>
        <time>2025-03-15T15:34:51.697Z</time>
      </trkpt>
      <trkpt lat="43.34351" lon="6.49569">
        <ele>337.15</ele>
        <time>2025-03-15T15:34:54.159Z</time>
      </trkpt>
      <trkpt lat="43.34356" lon="6.49579">
        <ele>337.38</ele>
        <time>2025-03-15T15:34:58.526Z</time>
      </trkpt>
      <trkpt lat="43.34366" lon="6.49591">
        <ele>337.63</ele>
        <time>2025-03-15T15:35:04.938Z</time>
      </trkpt>
      <trkpt lat="43.34373" lon="6.49597">
        <ele>337.86</ele>
        <time>2025-03-15T15:35:09.045Z</time>
      </trkpt>
      <trkpt lat="43.34388" lon="6.49616">
        <ele>338.12</ele>
        <time>2025-03-15T15:35:18.662Z</time>
      </trkpt>
      <trkpt lat="43.34391" lon="6.49619">
        <ele>338.35</ele>
        <time>2025-03-15T15:35:20.790Z</time>
      </trkpt>
      <trkpt lat="43.34393" lon="6.49624">
        <ele>338.58</ele>
        <time>2025-03-15T15:35:23.034Z</time>
      </trkpt>
      <trkpt lat="43.34395" lon="6.49629">
        <ele>338.8</ele>
        <time>2025-03-15T15:35:25.161Z</time>
      </trkpt>
      <trkpt lat="43.34397" lon="6.49633">
        <ele>339.03</ele>
        <time>2025-03-15T15:35:27.184Z</time>
      </trkpt>
      <trkpt lat="43.34401" lon="6.49641">
        <ele>339.27</ele>
        <time>2025-03-15T15:35:30.748Z</time>
      </trkpt>
      <trkpt lat="43.34402" lon="6.49646">
        <ele>339.48</ele>
        <time>2025-03-15T15:35:32.706Z</time>
      </trkpt>
      <trkpt lat="43.34403" lon="6.4965">
        <ele>339.69</ele>
        <time>2025-03-15T15:35:34.560Z</time>
      </trkpt>
      <trkpt lat="43.34404" lon="6.49655">
        <ele>339.91</ele>
        <time>2025-03-15T15:35:36.741Z</time>
      </trkpt>
      <trkpt lat="43.34405" lon="6.49661">
        <ele>340.12</ele>
        <time>2025-03-15T15:35:38.924Z</time>
      </trkpt>
      <trkpt lat="43.34406" lon="6.49665">
        <ele>340.33</ele>
        <time>2025-03-15T15:35:40.915Z</time>
      </trkpt>
      <trkpt lat="43.34408" lon="6.49691">
        <ele>340.54</ele>
        <time>2025-03-15T15:35:49.649Z</time>
      </trkpt>
      <trkpt lat="43.34416" lon="6.49721">
        <ele>340.68</ele>
        <time>2025-03-15T15:36:00.527Z</time>
      </trkpt>
      <trkpt lat="43.3442" lon="6.49739">
        <ele>340.78</ele>
        <time>2025-03-15T15:36:07.018Z</time>
      </trkpt>
      <trkpt lat="43.34418" lon="6.49751">
        <ele>340.92</ele>
        <time>2025-03-15T15:36:11.219Z</time>
      </trkpt>
      <trkpt lat="43.34408" lon="6.4976">
        <ele>341.11</ele>
        <time>2025-03-15T15:36:17.258Z</time>
      </trkpt>
      <trkpt lat="43.34403" lon="6.49762">
        <ele>341.3</ele>
        <time>2025-03-15T15:36:19.818Z</time>
      </trkpt>
      <trkpt lat="43.34388" lon="6.4977">
        <ele>341.48</ele>
        <time>2025-03-15T15:36:27.497Z</time>
      </trkpt>
      <trkpt lat="43.34382" lon="6.49772">
        <ele>341.65</ele>
        <time>2025-03-15T15:36:30.379Z</time>
      </trkpt>
      <trkpt lat="43.34376" lon="6.49774">
        <ele>341.83</ele>
        <time>2025-03-15T15:36:33.649Z</time>
      </trkpt>
      <trkpt lat="43.34369" lon="6.49777">
        <ele>342.01</ele>
        <time>2025-03-15T15:36:37.020Z</time>
      </trkpt>
      <trkpt lat="43.34362" lon="6.4978">
        <ele>342.18</ele>
        <time>2025-03-15T15:36:40.664Z</time>
      </trkpt>
      <trkpt lat="43.34355" lon="6.49783">
        <ele>342.34</ele>
        <time>2025-03-15T15:36:44.222Z</time>
      </trkpt>
      <trkpt lat="43.34348" lon="6.49785">
        <ele>342.53</ele>
        <time>2025-03-15T15:36:47.822Z</time>
      </trkpt>
      <trkpt lat="43.34341" lon="6.49787">
        <ele>342.7</ele>
        <time>2025-03-15T15:36:51.581Z</time>
      </trkpt>
      <trkpt lat="43.34333" lon="6.49789">
        <ele>342.87</ele>
        <time>2025-03-15T15:36:55.273Z</time>
      </trkpt>
      <trkpt lat="43.34326" lon="6.49792">
        <ele>343.03</ele>
        <time>2025-03-15T15:36:58.732Z</time>
      </trkpt>
      <trkpt lat="43.34321" lon="6.49797">
        <ele>343.15</ele>
        <time>2025-03-15T15:37:01.966Z</time>
      </trkpt>
      <trkpt lat="43.34317" lon="6.49804">
        <ele>343.25</ele>
        <time>2025-03-15T15:37:05.346Z</time>
      </trkpt>
      <trkpt lat="43.34313" lon="6.49812">
        <ele>343.33</ele>
        <time>2025-03-15T15:37:08.443Z</time>
      </trkpt>
      <trkpt lat="43.34309" lon="6.49819">
        <ele>343.41</ele>
        <time>2025-03-15T15:37:11.476Z</time>
      </trkpt>
      <trkpt lat="43.34301" lon="6.49829">
        <ele>343.54</ele>
        <time>2025-03-15T15:37:16.629Z</time>
      </trkpt>
      <trkpt lat="43.34292" lon="6.49837">
        <ele>343.75</ele>
        <time>2025-03-15T15:37:21.937Z</time>
      </trkpt>
      <trkpt lat="43.34288" lon="6.49841">
        <ele>343.86</ele>
        <time>2025-03-15T15:37:24.180Z</time>
      </trkpt>
      <trkpt lat="43.34284" lon="6.49852">
        <ele>343.94</ele>
        <time>2025-03-15T15:37:28.527Z</time>
      </trkpt>
      <trkpt lat="43.34284" lon="6.49859">
        <ele>343.96</ele>
        <time>2025-03-15T15:37:30.729Z</time>
      </trkpt>
      <trkpt lat="43.34285" lon="6.49865">
        <ele>343.96</ele>
        <time>2025-03-15T15:37:32.869Z</time>
      </trkpt>
      <trkpt lat="43.34287" lon="6.49871">
        <ele>343.95</ele>
        <time>2025-03-15T15:37:35.058Z</time>
      </trkpt>
      <trkpt lat="43.34288" lon="6.49878">
        <ele>343.95</ele>
        <time>2025-03-15T15:37:37.473Z</time>
      </trkpt>
      <trkpt lat="43.34289" lon="6.49885">
        <ele>343.95</ele>
        <time>2025-03-15T15:37:39.826Z</time>
      </trkpt>
      <trkpt lat="43.34294" lon="6.49904">
        <ele>343.91</ele>
        <time>2025-03-15T15:37:46.379Z</time>
      </trkpt>
      <trkpt lat="43.34298" lon="6.49916">
        <ele>343.89</ele>
        <time>2025-03-15T15:37:50.687Z</time>
      </trkpt>
      <trkpt lat="43.343" lon="6.49921">
        <ele>343.9</ele>
        <time>2025-03-15T15:37:52.742Z</time>
      </trkpt>
      <trkpt lat="43.34302" lon="6.49927">
        <ele>343.94</ele>
        <time>2025-03-15T15:37:54.769Z</time>
      </trkpt>
      <trkpt lat="43.34304" lon="6.49932">
        <ele>343.98</ele>
        <time>2025-03-15T15:37:56.912Z</time>
      </trkpt>
      <trkpt lat="43.34305" lon="6.49938">
        <ele>344.02</ele>
        <time>2025-03-15T15:37:59.079Z</time>
      </trkpt>
      <trkpt lat="43.34312" lon="6.4996">
        <ele>344.04</ele>
        <time>2025-03-15T15:38:06.859Z</time>
      </trkpt>
      <trkpt lat="43.3431" lon="6.49981">
        <ele>344.11</ele>
        <time>2025-03-15T15:38:14.121Z</time>
      </trkpt>
      <trkpt lat="43.34308" lon="6.49987">
        <ele>344.19</ele>
        <time>2025-03-15T15:38:16.339Z</time>
      </trkpt>
      <trkpt lat="43.34306" lon="6.49992">
        <ele>344.28</ele>
        <time>2025-03-15T15:38:18.399Z</time>
      </trkpt>
      <trkpt lat="43.34304" lon="6.49997">
        <ele>344.39</ele>
        <time>2025-03-15T15:38:20.346Z</time>
      </trkpt>
      <trkpt lat="43.34302" lon="6.50002">
        <ele>344.51</ele>
        <time>2025-03-15T15:38:22.382Z</time>
      </trkpt>
      <trkpt lat="43.34299" lon="6.50005">
        <ele>344.65</ele>
        <time>2025-03-15T15:38:24.405Z</time>
      </trkpt>
      <trkpt lat="43.3429" lon="6.50013">
        <ele>344.86</ele>
        <time>2025-03-15T15:38:29.591Z</time>
      </trkpt>
      <trkpt lat="43.34287" lon="6.50015">
        <ele>345.03</ele>
        <time>2025-03-15T15:38:31.341Z</time>
      </trkpt>
      <trkpt lat="43.34283" lon="6.50017">
        <ele>345.21</ele>
        <time>2025-03-15T15:38:33.353Z</time>
      </trkpt>
      <trkpt lat="43.3428" lon="6.50019">
        <ele>345.4</ele>
        <time>2025-03-15T15:38:35.480Z</time>
      </trkpt>
      <trkpt lat="43.34276" lon="6.50022">
        <ele>345.58</ele>
        <time>2025-03-15T15:38:37.579Z</time>
      </trkpt>
      <trkpt lat="43.34273" lon="6.50025">
        <ele>345.77</ele>
        <time>2025-03-15T15:38:39.638Z</time>
      </trkpt>
      <trkpt lat="43.34267" lon="6.50032">
        <ele>345.96</ele>
        <time>2025-03-15T15:38:43.749Z</time>
      </trkpt>
      <trkpt lat="43.34256" lon="6.50049">
        <ele>346.09</ele>
        <time>2025-03-15T15:38:51.212Z</time>
      </trkpt>
      <trkpt lat="43.34253" lon="6.50053">
        <ele>346.25</ele>
        <time>2025-03-15T15:38:53.409Z</time>
      </trkpt>
      <trkpt lat="43.34239" lon="6.50063">
        <ele>346.49</ele>
        <time>2025-03-15T15:39:01.095Z</time>
      </trkpt>
      <trkpt lat="43.34235" lon="6.50066">
        <ele>346.69</ele>
        <time>2025-03-15T15:39:03.354Z</time>
      </trkpt>
      <trkpt lat="43.34231" lon="6.50067">
        <ele>346.89</ele>
        <time>2025-03-15T15:39:05.715Z</time>
      </trkpt>
      <trkpt lat="43.34227" lon="6.50069">
        <ele>347.09</ele>
        <time>2025-03-15T15:39:07.979Z</time>
      </trkpt>
      <trkpt lat="43.34214" lon="6.50074">
        <ele>347.39</ele>
        <time>2025-03-15T15:39:14.571Z</time>
      </trkpt>
      <trkpt lat="43.3421" lon="6.50076">
        <ele>347.58</ele>
        <time>2025-03-15T15:39:16.936Z</time>
      </trkpt>
      <trkpt lat="43.34197" lon="6.50093">
        <ele>347.77</ele>
        <time>2025-03-15T15:39:25.116Z</time>
      </trkpt>
      <trkpt lat="43.34196" lon="6.5011">
        <ele>347.78</ele>
        <time>2025-03-15T15:39:30.768Z</time>
      </trkpt>
      <trkpt lat="43.34198" lon="6.50142">
        <ele>347.75</ele>
        <time>2025-03-15T15:39:41.651Z</time>
      </trkpt>
      <trkpt lat="43.34202" lon="6.50166">
        <ele>347.82</ele>
        <time>2025-03-15T15:39:49.805Z</time>
      </trkpt>
      <trkpt lat="43.34202" lon="6.50173">
        <ele>347.95</ele>
        <time>2025-03-15T15:39:52.113Z</time>
      </trkpt>
      <trkpt lat="43.34202" lon="6.50178">
        <ele>348.09</ele>
        <time>2025-03-15T15:39:54.286Z</time>
      </trkpt>
      <trkpt lat="43.34201" lon="6.50185">
        <ele>348.22</ele>
        <time>2025-03-15T15:39:56.592Z</time>
      </trkpt>
      <trkpt lat="43.342" lon="6.50191">
        <ele>348.37</ele>
        <time>2025-03-15T15:39:58.943Z</time>
      </trkpt>
      <trkpt lat="43.34198" lon="6.50202">
        <ele>348.52</ele>
        <time>2025-03-15T15:40:02.873Z</time>
      </trkpt>
      <trkpt lat="43.34197" lon="6.50207">
        <ele>348.66</ele>
        <time>2025-03-15T15:40:05.057Z</time>
      </trkpt>
      <trkpt lat="43.34193" lon="6.50229">
        <ele>348.81</ele>
        <time>2025-03-15T15:40:12.732Z</time>
      </trkpt>
      <trkpt lat="43.34193" lon="6.50235">
        <ele>348.93</ele>
        <time>2025-03-15T15:40:14.992Z</time>
      </trkpt>
      <trkpt lat="43.34191" lon="6.50262">
        <ele>349.02</ele>
        <time>2025-03-15T15:40:24.141Z</time>
      </trkpt>
      <trkpt lat="43.34189" lon="6.50268">
        <ele>349.17</ele>
        <time>2025-03-15T15:40:26.318Z</time>
      </trkpt>
      <trkpt lat="43.34177" lon="6.50282">
        <ele>349.36</ele>
        <time>2025-03-15T15:40:34.009Z</time>
      </trkpt>
      <trkpt lat="43.34173" lon="6.50284">
        <ele>349.52</ele>
        <time>2025-03-15T15:40:36.220Z</time>
      </trkpt>
      <trkpt lat="43.34169" lon="6.50286">
        <ele>349.68</ele>
        <time>2025-03-15T15:40:38.378Z</time>
      </trkpt>
      <trkpt lat="43.34165" lon="6.50287">
        <ele>349.84</ele>
        <time>2025-03-15T15:40:40.583Z</time>
      </trkpt>
      <trkpt lat="43.3416" lon="6.50288">
        <ele>350</ele>
        <time>2025-03-15T15:40:42.713Z</time>
      </trkpt>
      <trkpt lat="43.34156" lon="6.50289">
        <ele>350.16</ele>
        <time>2025-03-15T15:40:44.791Z</time>
      </trkpt>
      <trkpt lat="43.34148" lon="6.50289">
        <ele>350.37</ele>
        <time>2025-03-15T15:40:48.974Z</time>
      </trkpt>
      <trkpt lat="43.3413" lon="6.5029">
        <ele>350.62</ele>
        <time>2025-03-15T15:40:57.541Z</time>
      </trkpt>
      <trkpt lat="43.34116" lon="6.50294">
        <ele>350.8</ele>
        <time>2025-03-15T15:41:04.414Z</time>
      </trkpt>
      <trkpt lat="43.34107" lon="6.50298">
        <ele>350.96</ele>
        <time>2025-03-15T15:41:08.947Z</time>
      </trkpt>
      <trkpt lat="43.34103" lon="6.50302">
        <ele>351.05</ele>
        <time>2025-03-15T15:41:11.446Z</time>
      </trkpt>
      <trkpt lat="43.34098" lon="6.50314">
        <ele>351.1</ele>
        <time>2025-03-15T15:41:15.949Z</time>
      </trkpt>
      <trkpt lat="43.34097" lon="6.50335">
        <ele>351.07</ele>
        <time>2025-03-15T15:41:22.930Z</time>
      </trkpt>
      <trkpt lat="43.34097" lon="6.50342">
        <ele>351.12</ele>
        <time>2025-03-15T15:41:25.478Z</time>
      </trkpt>
      <trkpt lat="43.34098" lon="6.50349">
        <ele>351.16</ele>
        <time>2025-03-15T15:41:27.722Z</time>
      </trkpt>
      <trkpt lat="43.34098" lon="6.50355">
        <ele>351.21</ele>
        <time>2025-03-15T15:41:30.021Z</time>
      </trkpt>
      <trkpt lat="43.34099" lon="6.50363">
        <ele>351.26</ele>
        <time>2025-03-15T15:41:32.506Z</time>
      </trkpt>
      <trkpt lat="43.341" lon="6.50369">
        <ele>351.3</ele>
        <time>2025-03-15T15:41:34.829Z</time>
      </trkpt>
      <trkpt lat="43.34101" lon="6.50383">
        <ele>351.34</ele>
        <time>2025-03-15T15:41:39.584Z</time>
      </trkpt>
      <trkpt lat="43.34102" lon="6.50429">
        <ele>351.53</ele>
        <time>2025-03-15T15:41:54.878Z</time>
      </trkpt>
      <trkpt lat="43.34104" lon="6.50434">
        <ele>351.62</ele>
        <time>2025-03-15T15:41:57.086Z</time>
      </trkpt>
      <trkpt lat="43.34109" lon="6.50458">
        <ele>351.72</ele>
        <time>2025-03-15T15:42:05.584Z</time>
      </trkpt>
      <trkpt lat="43.34114" lon="6.5047">
        <ele>351.81</ele>
        <time>2025-03-15T15:42:10.162Z</time>
      </trkpt>
      <trkpt lat="43.34116" lon="6.50477">
        <ele>351.91</ele>
        <time>2025-03-15T15:42:12.725Z</time>
      </trkpt>
      <trkpt lat="43.34118" lon="6.50483">
        <ele>352.02</ele>
        <time>2025-03-15T15:42:14.941Z</time>
      </trkpt>
      <trkpt lat="43.3412" lon="6.50488">
        <ele>352.13</ele>
        <time>2025-03-15T15:42:17.213Z</time>
      </trkpt>
      <trkpt lat="43.34122" lon="6.50493">
        <ele>352.25</ele>
        <time>2025-03-15T15:42:19.325Z</time>
      </trkpt>
      <trkpt lat="43.34126" lon="6.50505">
        <ele>352.37</ele>
        <time>2025-03-15T15:42:23.948Z</time>
      </trkpt>
      <trkpt lat="43.3413" lon="6.50517">
        <ele>352.51</ele>
        <time>2025-03-15T15:42:28.349Z</time>
      </trkpt>
      <trkpt lat="43.34131" lon="6.50523">
        <ele>352.68</ele>
        <time>2025-03-15T15:42:30.786Z</time>
      </trkpt>
      <trkpt lat="43.34134" lon="6.50549">
        <ele>352.86</ele>
        <time>2025-03-15T15:42:39.618Z</time>
      </trkpt>
      <trkpt lat="43.34134" lon="6.50555">
        <ele>353.05</ele>
        <time>2025-03-15T15:42:42.094Z</time>
      </trkpt>
      <trkpt lat="43.34135" lon="6.50561">
        <ele>353.24</ele>
        <time>2025-03-15T15:42:44.418Z</time>
      </trkpt>
      <trkpt lat="43.34135" lon="6.50567">
        <ele>353.46</ele>
        <time>2025-03-15T15:42:46.531Z</time>
      </trkpt>
      <trkpt lat="43.34135" lon="6.50572">
        <ele>353.69</ele>
        <time>2025-03-15T15:42:48.730Z</time>
      </trkpt>
      <trkpt lat="43.34137" lon="6.50578">
        <ele>353.93</ele>
        <time>2025-03-15T15:42:51.096Z</time>
      </trkpt>
      <trkpt lat="43.34138" lon="6.50584">
        <ele>354.2</ele>
        <time>2025-03-15T15:42:53.677Z</time>
      </trkpt>
      <trkpt lat="43.34145" lon="6.50621">
        <ele>354.52</ele>
        <time>2025-03-15T15:43:06.732Z</time>
      </trkpt>
      <trkpt lat="43.34147" lon="6.50632">
        <ele>354.85</ele>
        <time>2025-03-15T15:43:11.182Z</time>
      </trkpt>
      <trkpt lat="43.34147" lon="6.50638">
        <ele>355.2</ele>
        <time>2025-03-15T15:43:13.861Z</time>
      </trkpt>
      <trkpt lat="43.34147" lon="6.50662">
        <ele>355.6</ele>
        <time>2025-03-15T15:43:22.381Z</time>
      </trkpt>
      <trkpt lat="43.34144" lon="6.50695">
        <ele>356.01</ele>
        <time>2025-03-15T15:43:33.854Z</time>
      </trkpt>
      <trkpt lat="43.34143" lon="6.507">
        <ele>356.44</ele>
        <time>2025-03-15T15:43:36.552Z</time>
      </trkpt>
      <trkpt lat="43.34143" lon="6.50705">
        <ele>356.88</ele>
        <time>2025-03-15T15:43:39.043Z</time>
      </trkpt>
      <trkpt lat="43.34143" lon="6.5071">
        <ele>357.34</ele>
        <time>2025-03-15T15:43:41.567Z</time>
      </trkpt>
      <trkpt lat="43.34143" lon="6.50716">
        <ele>357.82</ele>
        <time>2025-03-15T15:43:44.260Z</time>
      </trkpt>
      <trkpt lat="43.34143" lon="6.50726">
        <ele>358.33</ele>
        <time>2025-03-15T15:43:48.576Z</time>
      </trkpt>
      <trkpt lat="43.34143" lon="6.50758">
        <ele>358.98</ele>
        <time>2025-03-15T15:43:59.978Z</time>
      </trkpt>
      <trkpt lat="43.34142" lon="6.50767">
        <ele>359.56</ele>
        <time>2025-03-15T15:44:04.122Z</time>
      </trkpt>
      <trkpt lat="43.34142" lon="6.50773">
        <ele>360.13</ele>
        <time>2025-03-15T15:44:07.089Z</time>
      </trkpt>
      <trkpt lat="43.34141" lon="6.50777">
        <ele>360.7</ele>
        <time>2025-03-15T15:44:09.864Z</time>
      </trkpt>
      <trkpt lat="43.34141" lon="6.50782">
        <ele>361.3</ele>
        <time>2025-03-15T15:44:12.816Z</time>
      </trkpt>
      <trkpt lat="43.3414" lon="6.50787">
        <ele>361.9</ele>
        <time>2025-03-15T15:44:15.610Z</time>
      </trkpt>
      <trkpt lat="43.34138" lon="6.50801">
        <ele>362.59</ele>
        <time>2025-03-15T15:44:21.494Z</time>
      </trkpt>
      <trkpt lat="43.34138" lon="6.50805">
        <ele>363.2</ele>
        <time>2025-03-15T15:44:24.328Z</time>
      </trkpt>
      <trkpt lat="43.34137" lon="6.50809">
        <ele>363.8</ele>
        <time>2025-03-15T15:44:27.127Z</time>
      </trkpt>
      <trkpt lat="43.34137" lon="6.50813">
        <ele>364.39</ele>
        <time>2025-03-15T15:44:29.838Z</time>
      </trkpt>
      <trkpt lat="43.34137" lon="6.50818">
        <ele>364.99</ele>
        <time>2025-03-15T15:44:32.652Z</time>
      </trkpt>
      <trkpt lat="43.34137" lon="6.50822">
        <ele>365.57</ele>
        <time>2025-03-15T15:44:35.362Z</time>
      </trkpt>
      <trkpt lat="43.34136" lon="6.50827">
        <ele>366.14</ele>
        <time>2025-03-15T15:44:38.148Z</time>
      </trkpt>
      <trkpt lat="43.34136" lon="6.50831">
        <ele>366.7</ele>
        <time>2025-03-15T15:44:40.881Z</time>
      </trkpt>
      <trkpt lat="43.34135" lon="6.50836">
        <ele>367.24</ele>
        <time>2025-03-15T15:44:43.576Z</time>
      </trkpt>
      <trkpt lat="43.34134" lon="6.50841">
        <ele>367.77</ele>
        <time>2025-03-15T15:44:46.386Z</time>
      </trkpt>
      <trkpt lat="43.34133" lon="6.5085">
        <ele>368.29</ele>
        <time>2025-03-15T15:44:50.272Z</time>
      </trkpt>
      <trkpt lat="43.34132" lon="6.50855">
        <ele>368.76</ele>
        <time>2025-03-15T15:44:52.736Z</time>
      </trkpt>
      <trkpt lat="43.34129" lon="6.50859">
        <ele>369.19</ele>
        <time>2025-03-15T15:44:55.329Z</time>
      </trkpt>
      <trkpt lat="43.34127" lon="6.50862">
        <ele>369.6</ele>
        <time>2025-03-15T15:44:57.542Z</time>
      </trkpt>
      <trkpt lat="43.34124" lon="6.50865">
        <ele>369.98</ele>
        <time>2025-03-15T15:44:59.757Z</time>
      </trkpt>
      <trkpt lat="43.34122" lon="6.50867">
        <ele>370.33</ele>
        <time>2025-03-15T15:45:01.712Z</time>
      </trkpt>
      <trkpt lat="43.34113" lon="6.50873">
        <ele>370.62</ele>
        <time>2025-03-15T15:45:06.620Z</time>
      </trkpt>
      <trkpt lat="43.34111" lon="6.50874">
        <ele>370.92</ele>
        <time>2025-03-15T15:45:08.343Z</time>
      </trkpt>
      <trkpt lat="43.34108" lon="6.50877">
        <ele>371.21</ele>
        <time>2025-03-15T15:45:10.346Z</time>
      </trkpt>
      <trkpt lat="43.34105" lon="6.50879">
        <ele>371.47</ele>
        <time>2025-03-15T15:45:12.394Z</time>
      </trkpt>
      <trkpt lat="43.34103" lon="6.50882">
        <ele>371.73</ele>
        <time>2025-03-15T15:45:14.365Z</time>
      </trkpt>
      <trkpt lat="43.341" lon="6.50885">
        <ele>371.98</ele>
        <time>2025-03-15T15:45:16.217Z</time>
      </trkpt>
      <trkpt lat="43.34087" lon="6.509">
        <ele>372.3</ele>
        <time>2025-03-15T15:45:24.563Z</time>
      </trkpt>
      <trkpt lat="43.3408" lon="6.50909">
        <ele>372.55</ele>
        <time>2025-03-15T15:45:29.435Z</time>
      </trkpt>
      <trkpt lat="43.34078" lon="6.50912">
        <ele>372.76</ele>
        <time>2025-03-15T15:45:31.022Z</time>
      </trkpt>
      <trkpt lat="43.34075" lon="6.50915">
        <ele>372.95</ele>
        <time>2025-03-15T15:45:32.862Z</time>
      </trkpt>
      <trkpt lat="43.34073" lon="6.50918">
        <ele>373.13</ele>
        <time>2025-03-15T15:45:34.487Z</time>
      </trkpt>
      <trkpt lat="43.3407" lon="6.5092">
        <ele>373.28</ele>
        <time>2025-03-15T15:45:36.293Z</time>
      </trkpt>
      <trkpt lat="43.34058" lon="6.50928">
        <ele>373.42</ele>
        <time>2025-03-15T15:45:42.414Z</time>
      </trkpt>
      <trkpt lat="43.34055" lon="6.50929">
        <ele>373.53</ele>
        <time>2025-03-15T15:45:44.095Z</time>
      </trkpt>
      <trkpt lat="43.34052" lon="6.50931">
        <ele>373.64</ele>
        <time>2025-03-15T15:45:45.836Z</time>
      </trkpt>
      <trkpt lat="43.34049" lon="6.50933">
        <ele>373.73</ele>
        <time>2025-03-15T15:45:47.614Z</time>
      </trkpt>
      <trkpt lat="43.34045" lon="6.50934">
        <ele>373.8</ele>
        <time>2025-03-15T15:45:49.289Z</time>
      </trkpt>
      <trkpt lat="43.34042" lon="6.50935">
        <ele>373.87</ele>
        <time>2025-03-15T15:45:50.856Z</time>
      </trkpt>
      <trkpt lat="43.34034" lon="6.50938">
        <ele>373.91</ele>
        <time>2025-03-15T15:45:54.810Z</time>
      </trkpt>
      <trkpt lat="43.34028" lon="6.50939">
        <ele>373.95</ele>
        <time>2025-03-15T15:45:57.823Z</time>
      </trkpt>
      <trkpt lat="43.34024" lon="6.5094">
        <ele>374.02</ele>
        <time>2025-03-15T15:45:59.540Z</time>
      </trkpt>
      <trkpt lat="43.34021" lon="6.5094">
        <ele>374.1</ele>
        <time>2025-03-15T15:46:01.265Z</time>
      </trkpt>
      <trkpt lat="43.34017" lon="6.5094">
        <ele>374.19</ele>
        <time>2025-03-15T15:46:03.053Z</time>
      </trkpt>
      <trkpt lat="43.34014" lon="6.50941">
        <ele>374.31</ele>
        <time>2025-03-15T15:46:04.699Z</time>
      </trkpt>
      <trkpt lat="43.34001" lon="6.50945">
        <ele>374.44</ele>
        <time>2025-03-15T15:46:10.903Z</time>
      </trkpt>
      <trkpt lat="43.33998" lon="6.50947">
        <ele>374.61</ele>
        <time>2025-03-15T15:46:12.593Z</time>
      </trkpt>
      <trkpt lat="43.33996" lon="6.50949">
        <ele>374.8</ele>
        <time>2025-03-15T15:46:14.268Z</time>
      </trkpt>
      <trkpt lat="43.33994" lon="6.50952">
        <ele>375.01</ele>
        <time>2025-03-15T15:46:15.873Z</time>
      </trkpt>
      <trkpt lat="43.33992" lon="6.50955">
        <ele>375.24</ele>
        <time>2025-03-15T15:46:17.753Z</time>
      </trkpt>
      <trkpt lat="43.33986" lon="6.50964">
        <ele>375.53</ele>
        <time>2025-03-15T15:46:22.383Z</time>
      </trkpt>
      <trkpt lat="43.33974" lon="6.50981">
        <ele>375.88</ele>
        <time>2025-03-15T15:46:30.557Z</time>
      </trkpt>
      <trkpt lat="43.33973" lon="6.50984">
        <ele>376.15</ele>
        <time>2025-03-15T15:46:32.237Z</time>
      </trkpt>
      <trkpt lat="43.33972" lon="6.50988">
        <ele>376.44</ele>
        <time>2025-03-15T15:46:34.097Z</time>
      </trkpt>
      <trkpt lat="43.33971" lon="6.50992">
        <ele>376.75</ele>
        <time>2025-03-15T15:46:35.969Z</time>
      </trkpt>
      <trkpt lat="43.33971" lon="6.50995">
        <ele>377.07</ele>
        <time>2025-03-15T15:46:37.632Z</time>
      </trkpt>
      <trkpt lat="43.3397" lon="6.50998">
        <ele>377.42</ele>
        <time>2025-03-15T15:46:39.282Z</time>
      </trkpt>
      <trkpt lat="43.3397" lon="6.51002">
        <ele>377.78</ele>
        <time>2025-03-15T15:46:41.303Z</time>
      </trkpt>
      <trkpt lat="43.33969" lon="6.51003">
        <ele>378.16</ele>
        <time>2025-03-15T15:46:43.216Z</time>
      </trkpt>
      <trkpt lat="43.33969" lon="6.51004">
        <ele>378.55</ele>
        <time>2025-03-15T15:46:44.794Z</time>
      </trkpt>
      <trkpt lat="43.3397" lon="6.51004">
        <ele>378.98</ele>
        <time>2025-03-15T15:46:46.791Z</time>
      </trkpt>
      <trkpt lat="43.33976" lon="6.51008">
        <ele>379.47</ele>
        <time>2025-03-15T15:46:50.375Z</time>
      </trkpt>
      <trkpt lat="43.33978" lon="6.5101">
        <ele>379.94</ele>
        <time>2025-03-15T15:46:52.562Z</time>
      </trkpt>
      <trkpt lat="43.3398" lon="6.51013">
        <ele>380.41</ele>
        <time>2025-03-15T15:46:54.752Z</time>
      </trkpt>
      <trkpt lat="43.33982" lon="6.51015">
        <ele>380.91</ele>
        <time>2025-03-15T15:46:57.084Z</time>
      </trkpt>
      <trkpt lat="43.33984" lon="6.51017">
        <ele>381.41</ele>
        <time>2025-03-15T15:46:59.403Z</time>
      </trkpt>
      <trkpt lat="43.33988" lon="6.51018">
        <ele>381.95</ele>
        <time>2025-03-15T15:47:02.421Z</time>
      </trkpt>
      <trkpt lat="43.33995" lon="6.51024">
        <ele>382.51</ele>
        <time>2025-03-15T15:47:07.092Z</time>
      </trkpt>
      <trkpt lat="43.33997" lon="6.51025">
        <ele>383.03</ele>
        <time>2025-03-15T15:47:09.440Z</time>
      </trkpt>
      <trkpt lat="43.34004" lon="6.51028">
        <ele>383.57</ele>
        <time>2025-03-15T15:47:13.434Z</time>
      </trkpt>
      <trkpt lat="43.34006" lon="6.51029">
        <ele>384.08</ele>
        <time>2025-03-15T15:47:15.806Z</time>
      </trkpt>
      <trkpt lat="43.34008" lon="6.5103">
        <ele>384.6</ele>
        <time>2025-03-15T15:47:18.141Z</time>
      </trkpt>
      <trkpt lat="43.3401" lon="6.51031">
        <ele>385.11</ele>
        <time>2025-03-15T15:47:20.446Z</time>
      </trkpt>
      <trkpt lat="43.34012" lon="6.51033">
        <ele>385.62</ele>
        <time>2025-03-15T15:47:22.767Z</time>
      </trkpt>
      <trkpt lat="43.34019" lon="6.51037">
        <ele>386.14</ele>
        <time>2025-03-15T15:47:27.074Z</time>
      </trkpt>
      <trkpt lat="43.34027" lon="6.51042">
        <ele>386.67</ele>
        <time>2025-03-15T15:47:31.721Z</time>
      </trkpt>
      <trkpt lat="43.34029" lon="6.51044">
        <ele>387.19</ele>
        <time>2025-03-15T15:47:34.128Z</time>
      </trkpt>
      <trkpt lat="43.34031" lon="6.51046">
        <ele>387.7</ele>
        <time>2025-03-15T15:47:36.455Z</time>
      </trkpt>
      <trkpt lat="43.34034" lon="6.51047">
        <ele>388.21</ele>
        <time>2025-03-15T15:47:38.811Z</time>
      </trkpt>
      <trkpt lat="43.34036" lon="6.51049">
        <ele>388.7</ele>
        <time>2025-03-15T15:47:41.089Z</time>
      </trkpt>
      <trkpt lat="43.34045" lon="6.51057">
        <ele>389.24</ele>
        <time>2025-03-15T15:47:46.779Z</time>
      </trkpt>
      <trkpt lat="43.34049" lon="6.51063">
        <ele>389.71</ele>
        <time>2025-03-15T15:47:50.387Z</time>
      </trkpt>
      <trkpt lat="43.34052" lon="6.51065">
        <ele>390.16</ele>
        <time>2025-03-15T15:47:52.903Z</time>
      </trkpt>
      <trkpt lat="43.34055" lon="6.51068">
        <ele>390.58</ele>
        <time>2025-03-15T15:47:55.145Z</time>
      </trkpt>
      <trkpt lat="43.34057" lon="6.51071">
        <ele>391</ele>
        <time>2025-03-15T15:47:57.334Z</time>
      </trkpt>
      <trkpt lat="43.34059" lon="6.51074">
        <ele>391.38</ele>
        <time>2025-03-15T15:47:59.369Z</time>
      </trkpt>
      <trkpt lat="43.34064" lon="6.51083">
        <ele>391.77</ele>
        <time>2025-03-15T15:48:03.851Z</time>
      </trkpt>
      <trkpt lat="43.34066" lon="6.51086">
        <ele>392.13</ele>
        <time>2025-03-15T15:48:05.960Z</time>
      </trkpt>
      <trkpt lat="43.34068" lon="6.5109">
        <ele>392.48</ele>
        <time>2025-03-15T15:48:07.918Z</time>
      </trkpt>
      <trkpt lat="43.34069" lon="6.51094">
        <ele>392.81</ele>
        <time>2025-03-15T15:48:09.990Z</time>
      </trkpt>
      <trkpt lat="43.34071" lon="6.51097">
        <ele>393.13</ele>
        <time>2025-03-15T15:48:12.030Z</time>
      </trkpt>
      <trkpt lat="43.34073" lon="6.51101">
        <ele>393.42</ele>
        <time>2025-03-15T15:48:13.970Z</time>
      </trkpt>
      <trkpt lat="43.34074" lon="6.51113">
        <ele>393.69</ele>
        <time>2025-03-15T15:48:18.541Z</time>
      </trkpt>
      <trkpt lat="43.34071" lon="6.5114">
        <ele>393.87</ele>
        <time>2025-03-15T15:48:27.735Z</time>
      </trkpt>
      <trkpt lat="43.3407" lon="6.51144">
        <ele>394.08</ele>
        <time>2025-03-15T15:48:29.500Z</time>
      </trkpt>
      <trkpt lat="43.3407" lon="6.51148">
        <ele>394.29</ele>
        <time>2025-03-15T15:48:31.323Z</time>
      </trkpt>
      <trkpt lat="43.3407" lon="6.51153">
        <ele>394.47</ele>
        <time>2025-03-15T15:48:33.140Z</time>
      </trkpt>
      <trkpt lat="43.34069" lon="6.51157">
        <ele>394.66</ele>
        <time>2025-03-15T15:48:34.859Z</time>
      </trkpt>
      <trkpt lat="43.34069" lon="6.51161">
        <ele>394.83</ele>
        <time>2025-03-15T15:48:36.578Z</time>
      </trkpt>
      <trkpt lat="43.34068" lon="6.51165">
        <ele>395.01</ele>
        <time>2025-03-15T15:48:38.306Z</time>
      </trkpt>
      <trkpt lat="43.34066" lon="6.5119">
        <ele>395.11</ele>
        <time>2025-03-15T15:48:46.813Z</time>
      </trkpt>
      <trkpt lat="43.34065" lon="6.51195">
        <ele>395.29</ele>
        <time>2025-03-15T15:48:48.562Z</time>
      </trkpt>
      <trkpt lat="43.34064" lon="6.51199">
        <ele>395.45</ele>
        <time>2025-03-15T15:48:50.329Z</time>
      </trkpt>
      <trkpt lat="43.34063" lon="6.51203">
        <ele>395.62</ele>
        <time>2025-03-15T15:48:51.999Z</time>
      </trkpt>
      <trkpt lat="43.34063" lon="6.51207">
        <ele>395.8</ele>
        <time>2025-03-15T15:48:53.632Z</time>
      </trkpt>
      <trkpt lat="43.3406" lon="6.5122">
        <ele>395.93</ele>
        <time>2025-03-15T15:48:58.370Z</time>
      </trkpt>
      <trkpt lat="43.34059" lon="6.5124">
        <ele>396.11</ele>
        <time>2025-03-15T15:49:05.324Z</time>
      </trkpt>
      <trkpt lat="43.3406" lon="6.51244">
        <ele>396.34</ele>
        <time>2025-03-15T15:49:06.994Z</time>
      </trkpt>
      <trkpt lat="43.3406" lon="6.51248">
        <ele>396.59</ele>
        <time>2025-03-15T15:49:08.831Z</time>
      </trkpt>
      <trkpt lat="43.34061" lon="6.51253">
        <ele>396.86</ele>
        <time>2025-03-15T15:49:10.704Z</time>
      </trkpt>
      <trkpt lat="43.34062" lon="6.51256">
        <ele>397.14</ele>
        <time>2025-03-15T15:49:12.534Z</time>
      </trkpt>
      <trkpt lat="43.34063" lon="6.5126">
        <ele>397.44</ele>
        <time>2025-03-15T15:49:14.481Z</time>
      </trkpt>
      <trkpt lat="43.34064" lon="6.51265">
        <ele>397.78</ele>
        <time>2025-03-15T15:49:16.587Z</time>
      </trkpt>
      <trkpt lat="43.34075" lon="6.51287">
        <ele>398.25</ele>
        <time>2025-03-15T15:49:26.328Z</time>
      </trkpt>
      <trkpt lat="43.3409" lon="6.51311">
        <ele>398.7</ele>
        <time>2025-03-15T15:49:37.347Z</time>
      </trkpt>
      <trkpt lat="43.34101" lon="6.51325">
        <ele>399.15</ele>
        <time>2025-03-15T15:49:45.020Z</time>
      </trkpt>
      <trkpt lat="43.34103" lon="6.51328">
        <ele>399.56</ele>
        <time>2025-03-15T15:49:47.169Z</time>
      </trkpt>
      <trkpt lat="43.34104" lon="6.51332">
        <ele>399.98</ele>
        <time>2025-03-15T15:49:49.285Z</time>
      </trkpt>
      <trkpt lat="43.34106" lon="6.51335">
        <ele>400.44</ele>
        <time>2025-03-15T15:49:51.562Z</time>
      </trkpt>
      <trkpt lat="43.34108" lon="6.51338">
        <ele>400.91</ele>
        <time>2025-03-15T15:49:53.847Z</time>
      </trkpt>
      <trkpt lat="43.34116" lon="6.51352">
        <ele>401.41</ele>
        <time>2025-03-15T15:50:00.672Z</time>
      </trkpt>
      <trkpt lat="43.34122" lon="6.51364">
        <ele>401.94</ele>
        <time>2025-03-15T15:50:06.416Z</time>
      </trkpt>
      <trkpt lat="43.34125" lon="6.51366">
        <ele>402.47</ele>
        <time>2025-03-15T15:50:08.924Z</time>
      </trkpt>
      <trkpt lat="43.34127" lon="6.51369">
        <ele>403</ele>
        <time>2025-03-15T15:50:11.375Z</time>
      </trkpt>
      <trkpt lat="43.34129" lon="6.51372">
        <ele>403.55</ele>
        <time>2025-03-15T15:50:13.930Z</time>
      </trkpt>
      <trkpt lat="43.34131" lon="6.51375">
        <ele>404.08</ele>
        <time>2025-03-15T15:50:16.468Z</time>
      </trkpt>
      <trkpt lat="43.34139" lon="6.51386">
        <ele>404.73</ele>
        <time>2025-03-15T15:50:22.754Z</time>
      </trkpt>
      <trkpt lat="43.3414" lon="6.51389">
        <ele>405.3</ele>
        <time>2025-03-15T15:50:25.314Z</time>
      </trkpt>
      <trkpt lat="43.34142" lon="6.51391">
        <ele>405.85</ele>
        <time>2025-03-15T15:50:27.799Z</time>
      </trkpt>
      <trkpt lat="43.34144" lon="6.51393">
        <ele>406.39</ele>
        <time>2025-03-15T15:50:30.238Z</time>
      </trkpt>
      <trkpt lat="43.34146" lon="6.51395">
        <ele>406.94</ele>
        <time>2025-03-15T15:50:32.733Z</time>
      </trkpt>
      <trkpt lat="43.34147" lon="6.51398">
        <ele>407.45</ele>
        <time>2025-03-15T15:50:35.022Z</time>
      </trkpt>
      <trkpt lat="43.34149" lon="6.51401">
        <ele>407.96</ele>
        <time>2025-03-15T15:50:37.469Z</time>
      </trkpt>
      <trkpt lat="43.34151" lon="6.51404">
        <ele>408.46</ele>
        <time>2025-03-15T15:50:39.938Z</time>
      </trkpt>
      <trkpt lat="43.34153" lon="6.51408">
        <ele>408.94</ele>
        <time>2025-03-15T15:50:42.284Z</time>
      </trkpt>
      <trkpt lat="43.34154" lon="6.51412">
        <ele>409.4</ele>
        <time>2025-03-15T15:50:44.682Z</time>
      </trkpt>
      <trkpt lat="43.34156" lon="6.51419">
        <ele>409.86</ele>
        <time>2025-03-15T15:50:48.091Z</time>
      </trkpt>
      <trkpt lat="43.34156" lon="6.51423">
        <ele>410.27</ele>
        <time>2025-03-15T15:50:50.110Z</time>
      </trkpt>
      <trkpt lat="43.34156" lon="6.51426">
        <ele>410.67</ele>
        <time>2025-03-15T15:50:52.127Z</time>
      </trkpt>
      <trkpt lat="43.34156" lon="6.5143">
        <ele>411.05</ele>
        <time>2025-03-15T15:50:54.090Z</time>
      </trkpt>
      <trkpt lat="43.34157" lon="6.51433">
        <ele>411.43</ele>
        <time>2025-03-15T15:50:56.029Z</time>
      </trkpt>
      <trkpt lat="43.34158" lon="6.51437">
        <ele>411.8</ele>
        <time>2025-03-15T15:50:58.111Z</time>
      </trkpt>
      <trkpt lat="43.34159" lon="6.51442">
        <ele>412.13</ele>
        <time>2025-03-15T15:51:00.254Z</time>
      </trkpt>
      <trkpt lat="43.3416" lon="6.51446">
        <ele>412.44</ele>
        <time>2025-03-15T15:51:02.203Z</time>
      </trkpt>
      <trkpt lat="43.3416" lon="6.5145">
        <ele>412.74</ele>
        <time>2025-03-15T15:51:04.151Z</time>
      </trkpt>
      <trkpt lat="43.34161" lon="6.51454">
        <ele>413.01</ele>
        <time>2025-03-15T15:51:05.906Z</time>
      </trkpt>
      <trkpt lat="43.34161" lon="6.51457">
        <ele>413.27</ele>
        <time>2025-03-15T15:51:07.656Z</time>
      </trkpt>
      <trkpt lat="43.34165" lon="6.51477">
        <ele>413.54</ele>
        <time>2025-03-15T15:51:14.733Z</time>
      </trkpt>
      <trkpt lat="43.34165" lon="6.5148">
        <ele>413.77</ele>
        <time>2025-03-15T15:51:16.250Z</time>
      </trkpt>
      <trkpt lat="43.34165" lon="6.51483">
        <ele>413.97</ele>
        <time>2025-03-15T15:51:17.660Z</time>
      </trkpt>
      <trkpt lat="43.34165" lon="6.51487">
        <ele>414.15</ele>
        <time>2025-03-15T15:51:19.172Z</time>
      </trkpt>
      <trkpt lat="43.34165" lon="6.51491">
        <ele>414.34</ele>
        <time>2025-03-15T15:51:20.922Z</time>
      </trkpt>
      <trkpt lat="43.34166" lon="6.51503">
        <ele>414.55</ele>
        <time>2025-03-15T15:51:25.094Z</time>
      </trkpt>
      <trkpt lat="43.34166" lon="6.51507">
        <ele>414.7</ele>
        <time>2025-03-15T15:51:26.567Z</time>
      </trkpt>
      <trkpt lat="43.34166" lon="6.5151">
        <ele>414.84</ele>
        <time>2025-03-15T15:51:28.024Z</time>
      </trkpt>
      <trkpt lat="43.34165" lon="6.51514">
        <ele>414.97</ele>
        <time>2025-03-15T15:51:29.420Z</time>
      </trkpt>
      <trkpt lat="43.34164" lon="6.51517">
        <ele>415.08</ele>
        <time>2025-03-15T15:51:30.849Z</time>
      </trkpt>
      <trkpt lat="43.3416" lon="6.51523">
        <ele>415.16</ele>
        <time>2025-03-15T15:51:33.648Z</time>
      </trkpt>
      <trkpt lat="43.34151" lon="6.51537">
        <ele>415.22</ele>
        <time>2025-03-15T15:51:40.042Z</time>
      </trkpt>
      <trkpt lat="43.34149" lon="6.5154">
        <ele>415.29</ele>
        <time>2025-03-15T15:51:41.419Z</time>
      </trkpt>
      <trkpt lat="43.34147" lon="6.51543">
        <ele>415.39</ele>
        <time>2025-03-15T15:51:42.891Z</time>
      </trkpt>
      <trkpt lat="43.34145" lon="6.51545">
        <ele>415.47</ele>
        <time>2025-03-15T15:51:44.343Z</time>
      </trkpt>
      <trkpt lat="43.34142" lon="6.51548">
        <ele>415.56</ele>
        <time>2025-03-15T15:51:45.725Z</time>
      </trkpt>
      <trkpt lat="43.34133" lon="6.51556">
        <ele>415.62</ele>
        <time>2025-03-15T15:51:50.756Z</time>
      </trkpt>
      <trkpt lat="43.34124" lon="6.51565">
        <ele>415.7</ele>
        <time>2025-03-15T15:51:56.051Z</time>
      </trkpt>
      <trkpt lat="43.34122" lon="6.51566">
        <ele>415.81</ele>
        <time>2025-03-15T15:51:57.278Z</time>
      </trkpt>
      <trkpt lat="43.3412" lon="6.51568">
        <ele>415.91</ele>
        <time>2025-03-15T15:51:58.533Z</time>
      </trkpt>
      <trkpt lat="43.34118" lon="6.5157">
        <ele>416.05</ele>
        <time>2025-03-15T15:51:59.979Z</time>
      </trkpt>
      <trkpt lat="43.34116" lon="6.51572">
        <ele>416.2</ele>
        <time>2025-03-15T15:52:01.366Z</time>
      </trkpt>
      <trkpt lat="43.34101" lon="6.51582">
        <ele>416.32</ele>
        <time>2025-03-15T15:52:09.072Z</time>
      </trkpt>
      <trkpt lat="43.34098" lon="6.51584">
        <ele>416.49</ele>
        <time>2025-03-15T15:52:10.634Z</time>
      </trkpt>
      <trkpt lat="43.34096" lon="6.51586">
        <ele>416.69</ele>
        <time>2025-03-15T15:52:12.255Z</time>
      </trkpt>
      <trkpt lat="43.34094" lon="6.51589">
        <ele>416.91</ele>
        <time>2025-03-15T15:52:13.946Z</time>
      </trkpt>
      <trkpt lat="43.34092" lon="6.51591">
        <ele>417.15</ele>
        <time>2025-03-15T15:52:15.577Z</time>
      </trkpt>
      <trkpt lat="43.3409" lon="6.51594">
        <ele>417.43</ele>
        <time>2025-03-15T15:52:17.320Z</time>
      </trkpt>
      <trkpt lat="43.34089" lon="6.51597">
        <ele>417.74</ele>
        <time>2025-03-15T15:52:19.108Z</time>
      </trkpt>
      <trkpt lat="43.34087" lon="6.51616">
        <ele>418.15</ele>
        <time>2025-03-15T15:52:26.118Z</time>
      </trkpt>
      <trkpt lat="43.34095" lon="6.51638">
        <ele>418.66</ele>
        <time>2025-03-15T15:52:35.026Z</time>
      </trkpt>
      <trkpt lat="43.34097" lon="6.51642">
        <ele>419.06</ele>
        <time>2025-03-15T15:52:37.250Z</time>
      </trkpt>
      <trkpt lat="43.34099" lon="6.51645">
        <ele>419.49</ele>
        <time>2025-03-15T15:52:39.456Z</time>
      </trkpt>
      <trkpt lat="43.34101" lon="6.51647">
        <ele>419.94</ele>
        <time>2025-03-15T15:52:41.699Z</time>
      </trkpt>
      <trkpt lat="43.34103" lon="6.5165">
        <ele>420.42</ele>
        <time>2025-03-15T15:52:44.042Z</time>
      </trkpt>
      <trkpt lat="43.34113" lon="6.51659">
        <ele>420.97</ele>
        <time>2025-03-15T15:52:50.315Z</time>
      </trkpt>
      <trkpt lat="43.34127" lon="6.51675">
        <ele>421.53</ele>
        <time>2025-03-15T15:52:59.546Z</time>
      </trkpt>
      <trkpt lat="43.34146" lon="6.51695">
        <ele>422.18</ele>
        <time>2025-03-15T15:53:11.373Z</time>
      </trkpt>
      <trkpt lat="43.34149" lon="6.51697">
        <ele>422.75</ele>
        <time>2025-03-15T15:53:14.109Z</time>
      </trkpt>
      <trkpt lat="43.34152" lon="6.517">
        <ele>423.35</ele>
        <time>2025-03-15T15:53:16.995Z</time>
      </trkpt>
      <trkpt lat="43.34155" lon="6.51702">
        <ele>423.96</ele>
        <time>2025-03-15T15:53:19.841Z</time>
      </trkpt>
      <trkpt lat="43.34158" lon="6.51705">
        <ele>424.59</ele>
        <time>2025-03-15T15:53:22.779Z</time>
      </trkpt>
      <trkpt lat="43.3416" lon="6.51707">
        <ele>425.24</ele>
        <time>2025-03-15T15:53:25.779Z</time>
      </trkpt>
      <trkpt lat="43.34169" lon="6.51714">
        <ele>425.9</ele>
        <time>2025-03-15T15:53:31.275Z</time>
      </trkpt>
      <trkpt lat="43.3418" lon="6.51722">
        <ele>426.57</ele>
        <time>2025-03-15T15:53:38.014Z</time>
      </trkpt>
      <trkpt lat="43.34183" lon="6.51725">
        <ele>427.23</ele>
        <time>2025-03-15T15:53:41.098Z</time>
      </trkpt>
      <trkpt lat="43.34186" lon="6.51727">
        <ele>427.89</ele>
        <time>2025-03-15T15:53:44.168Z</time>
      </trkpt>
      <trkpt lat="43.34188" lon="6.51729">
        <ele>428.57</ele>
        <time>2025-03-15T15:53:47.260Z</time>
      </trkpt>
      <trkpt lat="43.34191" lon="6.51732">
        <ele>429.25</ele>
        <time>2025-03-15T15:53:50.368Z</time>
      </trkpt>
      <trkpt lat="43.34206" lon="6.51741">
        <ele>429.96</ele>
        <time>2025-03-15T15:53:58.852Z</time>
      </trkpt>
      <trkpt lat="43.34217" lon="6.51747">
        <ele>430.68</ele>
        <time>2025-03-15T15:54:05.661Z</time>
      </trkpt>
      <trkpt lat="43.3422" lon="6.5175">
        <ele>431.38</ele>
        <time>2025-03-15T15:54:08.828Z</time>
      </trkpt>
      <trkpt lat="43.34224" lon="6.51752">
        <ele>432.11</ele>
        <time>2025-03-15T15:54:12.172Z</time>
      </trkpt>
      <trkpt lat="43.34226" lon="6.51754">
        <ele>432.82</ele>
        <time>2025-03-15T15:54:15.399Z</time>
      </trkpt>
      <trkpt lat="43.34229" lon="6.51756">
        <ele>433.54</ele>
        <time>2025-03-15T15:54:18.642Z</time>
      </trkpt>
      <trkpt lat="43.3424" lon="6.51764">
        <ele>434.29</ele>
        <time>2025-03-15T15:54:25.543Z</time>
      </trkpt>
      <trkpt lat="43.34243" lon="6.51766">
        <ele>435.01</ele>
        <time>2025-03-15T15:54:28.787Z</time>
      </trkpt>
      <trkpt lat="43.34246" lon="6.51768">
        <ele>435.73</ele>
        <time>2025-03-15T15:54:32.081Z</time>
      </trkpt>
      <trkpt lat="43.34249" lon="6.5177">
        <ele>436.48</ele>
        <time>2025-03-15T15:54:35.469Z</time>
      </trkpt>
      <trkpt lat="43.34261" lon="6.51779">
        <ele>437.29</ele>
        <time>2025-03-15T15:54:42.922Z</time>
      </trkpt>
      <trkpt lat="43.34279" lon="6.51796">
        <ele>438.08</ele>
        <time>2025-03-15T15:54:54.160Z</time>
      </trkpt>
      <trkpt lat="43.34282" lon="6.51799">
        <ele>438.77</ele>
        <time>2025-03-15T15:54:57.296Z</time>
      </trkpt>
      <trkpt lat="43.34284" lon="6.51803">
        <ele>439.46</ele>
        <time>2025-03-15T15:55:00.430Z</time>
      </trkpt>
      <trkpt lat="43.34286" lon="6.51806">
        <ele>440.14</ele>
        <time>2025-03-15T15:55:03.501Z</time>
      </trkpt>
      <trkpt lat="43.34288" lon="6.51809">
        <ele>440.8</ele>
        <time>2025-03-15T15:55:06.489Z</time>
      </trkpt>
      <trkpt lat="43.3429" lon="6.51812">
        <ele>441.46</ele>
        <time>2025-03-15T15:55:09.463Z</time>
      </trkpt>
      <trkpt lat="43.34301" lon="6.51826">
        <ele>442.11</ele>
        <time>2025-03-15T15:55:17.211Z</time>
      </trkpt>
      <trkpt lat="43.34306" lon="6.5183">
        <ele>442.78</ele>
        <time>2025-03-15T15:55:21.079Z</time>
      </trkpt>
      <trkpt lat="43.34308" lon="6.51832">
        <ele>443.43</ele>
        <time>2025-03-15T15:55:24.002Z</time>
      </trkpt>
      <trkpt lat="43.34311" lon="6.51834">
        <ele>444.09</ele>
        <time>2025-03-15T15:55:26.985Z</time>
      </trkpt>
      <trkpt lat="43.34313" lon="6.51836">
        <ele>444.73</ele>
        <time>2025-03-15T15:55:29.880Z</time>
      </trkpt>
      <trkpt lat="43.34316" lon="6.51838">
        <ele>445.38</ele>
        <time>2025-03-15T15:55:32.798Z</time>
      </trkpt>
      <trkpt lat="43.34329" lon="6.51843">
        <ele>446.11</ele>
        <time>2025-03-15T15:55:40.403Z</time>
      </trkpt>
      <trkpt lat="43.34332" lon="6.51844">
        <ele>446.76</ele>
        <time>2025-03-15T15:55:43.339Z</time>
      </trkpt>
      <trkpt lat="43.34334" lon="6.51845">
        <ele>447.38</ele>
        <time>2025-03-15T15:55:46.125Z</time>
      </trkpt>
      <trkpt lat="43.34337" lon="6.51846">
        <ele>447.99</ele>
        <time>2025-03-15T15:55:48.867Z</time>
      </trkpt>
      <trkpt lat="43.3434" lon="6.51847">
        <ele>448.58</ele>
        <time>2025-03-15T15:55:51.534Z</time>
      </trkpt>
      <trkpt lat="43.34351" lon="6.51851">
        <ele>449.24</ele>
        <time>2025-03-15T15:55:57.893Z</time>
      </trkpt>
      <trkpt lat="43.34368" lon="6.51861">
        <ele>449.86</ele>
        <time>2025-03-15T15:56:07.299Z</time>
      </trkpt>
      <trkpt lat="43.3437" lon="6.51863">
        <ele>450.39</ele>
        <time>2025-03-15T15:56:09.802Z</time>
      </trkpt>
      <trkpt lat="43.34373" lon="6.51866">
        <ele>450.9</ele>
        <time>2025-03-15T15:56:12.234Z</time>
      </trkpt>
      <trkpt lat="43.34375" lon="6.51868">
        <ele>451.39</ele>
        <time>2025-03-15T15:56:14.570Z</time>
      </trkpt>
      <trkpt lat="43.34377" lon="6.5187">
        <ele>451.86</ele>
        <time>2025-03-15T15:56:16.875Z</time>
      </trkpt>
      <trkpt lat="43.3438" lon="6.51873">
        <ele>452.32</ele>
        <time>2025-03-15T15:56:19.176Z</time>
      </trkpt>
      <trkpt lat="43.34382" lon="6.51875">
        <ele>452.76</ele>
        <time>2025-03-15T15:56:21.398Z</time>
      </trkpt>
      <trkpt lat="43.34385" lon="6.51877">
        <ele>453.18</ele>
        <time>2025-03-15T15:56:23.547Z</time>
      </trkpt>
      <trkpt lat="43.34387" lon="6.51879">
        <ele>453.57</ele>
        <time>2025-03-15T15:56:25.616Z</time>
      </trkpt>
      <trkpt lat="43.34394" lon="6.51887">
        <ele>453.94</ele>
        <time>2025-03-15T15:56:30.147Z</time>
      </trkpt>
      <trkpt lat="43.3441" lon="6.51904">
        <ele>454.22</ele>
        <time>2025-03-15T15:56:40.105Z</time>
      </trkpt>
      <trkpt lat="43.34416" lon="6.51907">
        <ele>454.6</ele>
        <time>2025-03-15T15:56:43.617Z</time>
      </trkpt>
      <trkpt lat="43.34419" lon="6.51909">
        <ele>454.95</ele>
        <time>2025-03-15T15:56:45.749Z</time>
      </trkpt>
      <trkpt lat="43.34422" lon="6.51911">
        <ele>455.28</ele>
        <time>2025-03-15T15:56:47.740Z</time>
      </trkpt>
      <trkpt lat="43.34425" lon="6.51913">
        <ele>455.6</ele>
        <time>2025-03-15T15:56:49.751Z</time>
      </trkpt>
      <trkpt lat="43.34428" lon="6.51914">
        <ele>455.91</ele>
        <time>2025-03-15T15:56:51.717Z</time>
      </trkpt>
      <trkpt lat="43.34442" lon="6.51919">
        <ele>456.32</ele>
        <time>2025-03-15T15:56:59.026Z</time>
      </trkpt>
      <trkpt lat="43.34445" lon="6.51921">
        <ele>456.56</ele>
        <time>2025-03-15T15:57:00.871Z</time>
      </trkpt>
      <trkpt lat="43.34448" lon="6.51922">
        <ele>456.77</ele>
        <time>2025-03-15T15:57:02.724Z</time>
      </trkpt>
      <trkpt lat="43.34451" lon="6.51923">
        <ele>456.96</ele>
        <time>2025-03-15T15:57:04.599Z</time>
      </trkpt>
      <trkpt lat="43.34454" lon="6.51924">
        <ele>457.15</ele>
        <time>2025-03-15T15:57:06.269Z</time>
      </trkpt>
      <trkpt lat="43.3447" lon="6.5193">
        <ele>457.31</ele>
        <time>2025-03-15T15:57:13.872Z</time>
      </trkpt>
      <trkpt lat="43.34473" lon="6.51932">
        <ele>457.44</ele>
        <time>2025-03-15T15:57:15.597Z</time>
      </trkpt>
      <trkpt lat="43.34476" lon="6.51933">
        <ele>457.56</ele>
        <time>2025-03-15T15:57:17.395Z</time>
      </trkpt>
      <trkpt lat="43.3448" lon="6.51935">
        <ele>457.65</ele>
        <time>2025-03-15T15:57:19.119Z</time>
      </trkpt>
      <trkpt lat="43.34483" lon="6.51937">
        <ele>457.73</ele>
        <time>2025-03-15T15:57:20.831Z</time>
      </trkpt>
      <trkpt lat="43.34495" lon="6.51947">
        <ele>457.73</ele>
        <time>2025-03-15T15:57:27.364Z</time>
      </trkpt>
      <trkpt lat="43.34509" lon="6.51965">
        <ele>457.89</ele>
        <time>2025-03-15T15:57:36.137Z</time>
      </trkpt>
      <trkpt lat="43.3451" lon="6.51969">
        <ele>457.93</ele>
        <time>2025-03-15T15:57:37.799Z</time>
      </trkpt>
      <trkpt lat="43.34511" lon="6.51974">
        <ele>457.96</ele>
        <time>2025-03-15T15:57:39.654Z</time>
      </trkpt>
      <trkpt lat="43.34511" lon="6.51979">
        <ele>458</ele>
        <time>2025-03-15T15:57:41.374Z</time>
      </trkpt>
      <trkpt lat="43.3451" lon="6.51984">
        <ele>458.03</ele>
        <time>2025-03-15T15:57:42.975Z</time>
      </trkpt>
      <trkpt lat="43.3451" lon="6.52011">
        <ele>458.02</ele>
        <time>2025-03-15T15:57:51.958Z</time>
      </trkpt>
      <trkpt lat="43.34512" lon="6.52025">
        <ele>458.08</ele>
        <time>2025-03-15T15:57:56.672Z</time>
      </trkpt>
      <trkpt lat="43.34513" lon="6.52029">
        <ele>458.13</ele>
        <time>2025-03-15T15:57:58.324Z</time>
      </trkpt>
      <trkpt lat="43.34514" lon="6.52034">
        <ele>458.19</ele>
        <time>2025-03-15T15:57:59.969Z</time>
      </trkpt>
      <trkpt lat="43.34515" lon="6.52038">
        <ele>458.24</ele>
        <time>2025-03-15T15:58:01.552Z</time>
      </trkpt>
      <trkpt lat="43.34516" lon="6.52043">
        <ele>458.28</ele>
        <time>2025-03-15T15:58:03.137Z</time>
      </trkpt>
      <trkpt lat="43.34519" lon="6.52058">
        <ele>458.38</ele>
        <time>2025-03-15T15:58:08.703Z</time>
      </trkpt>
      <trkpt lat="43.34524" lon="6.52079">
        <ele>458.43</ele>
        <time>2025-03-15T15:58:16.052Z</time>
      </trkpt>
      <trkpt lat="43.34524" lon="6.52083">
        <ele>458.47</ele>
        <time>2025-03-15T15:58:17.447Z</time>
      </trkpt>
      <trkpt lat="43.34526" lon="6.52087">
        <ele>458.52</ele>
        <time>2025-03-15T15:58:18.939Z</time>
      </trkpt>
      <trkpt lat="43.34527" lon="6.52091">
        <ele>458.57</ele>
        <time>2025-03-15T15:58:20.512Z</time>
      </trkpt>
      <trkpt lat="43.34528" lon="6.52095">
        <ele>458.63</ele>
        <time>2025-03-15T15:58:22.006Z</time>
      </trkpt>
      <trkpt lat="43.34534" lon="6.52111">
        <ele>458.66</ele>
        <time>2025-03-15T15:58:28.034Z</time>
      </trkpt>
      <trkpt lat="43.34542" lon="6.52136">
        <ele>458.66</ele>
        <time>2025-03-15T15:58:37.203Z</time>
      </trkpt>
      <trkpt lat="43.34544" lon="6.5214">
        <ele>458.75</ele>
        <time>2025-03-15T15:58:38.798Z</time>
      </trkpt>
      <trkpt lat="43.34545" lon="6.52144">
        <ele>458.84</ele>
        <time>2025-03-15T15:58:40.310Z</time>
      </trkpt>
      <trkpt lat="43.34546" lon="6.52148">
        <ele>458.95</ele>
        <time>2025-03-15T15:58:41.841Z</time>
      </trkpt>
      <trkpt lat="43.34547" lon="6.52152">
        <ele>459.07</ele>
        <time>2025-03-15T15:58:43.361Z</time>
      </trkpt>
      <trkpt lat="43.34549" lon="6.52155">
        <ele>459.22</ele>
        <time>2025-03-15T15:58:44.931Z</time>
      </trkpt>
      <trkpt lat="43.34551" lon="6.52158">
        <ele>459.4</ele>
        <time>2025-03-15T15:58:46.635Z</time>
      </trkpt>
      <trkpt lat="43.34555" lon="6.52164">
        <ele>459.57</ele>
        <time>2025-03-15T15:58:49.520Z</time>
      </trkpt>
      <trkpt lat="43.34557" lon="6.52167">
        <ele>459.78</ele>
        <time>2025-03-15T15:58:51.369Z</time>
      </trkpt>
      <trkpt lat="43.3456" lon="6.52169">
        <ele>459.99</ele>
        <time>2025-03-15T15:58:53.252Z</time>
      </trkpt>
      <trkpt lat="43.34563" lon="6.52172">
        <ele>460.22</ele>
        <time>2025-03-15T15:58:55.189Z</time>
      </trkpt>
      <trkpt lat="43.34566" lon="6.52174">
        <ele>460.47</ele>
        <time>2025-03-15T15:58:57.164Z</time>
      </trkpt>
      <trkpt lat="43.34583" lon="6.52181">
        <ele>460.79</ele>
        <time>2025-03-15T15:59:05.651Z</time>
      </trkpt>
      <trkpt lat="43.34586" lon="6.52182">
        <ele>461.06</ele>
        <time>2025-03-15T15:59:07.702Z</time>
      </trkpt>
      <trkpt lat="43.3459" lon="6.52183">
        <ele>461.35</ele>
        <time>2025-03-15T15:59:09.820Z</time>
      </trkpt>
      <trkpt lat="43.34593" lon="6.52184">
        <ele>461.66</ele>
        <time>2025-03-15T15:59:11.952Z</time>
      </trkpt>
      <trkpt lat="43.34597" lon="6.52184">
        <ele>461.98</ele>
        <time>2025-03-15T15:59:14.163Z</time>
      </trkpt>
      <trkpt lat="43.34607" lon="6.52184">
        <ele>462.36</ele>
        <time>2025-03-15T15:59:19.284Z</time>
      </trkpt>
      <trkpt lat="43.34626" lon="6.52176">
        <ele>462.85</ele>
        <time>2025-03-15T15:59:29.320Z</time>
      </trkpt>
      <trkpt lat="43.3463" lon="6.52175">
        <ele>463.18</ele>
        <time>2025-03-15T15:59:31.427Z</time>
      </trkpt>
      <trkpt lat="43.34633" lon="6.52174">
        <ele>463.51</ele>
        <time>2025-03-15T15:59:33.578Z</time>
      </trkpt>
      <trkpt lat="43.34636" lon="6.52174">
        <ele>463.82</ele>
        <time>2025-03-15T15:59:35.671Z</time>
      </trkpt>
      <trkpt lat="43.3464" lon="6.52175">
        <ele>464.11</ele>
        <time>2025-03-15T15:59:37.662Z</time>
      </trkpt>
      <trkpt lat="43.34646" lon="6.52175">
        <ele>464.39</ele>
        <time>2025-03-15T15:59:41.128Z</time>
      </trkpt>
      <trkpt lat="43.34653" lon="6.52176">
        <ele>464.64</ele>
        <time>2025-03-15T15:59:44.473Z</time>
      </trkpt>
      <trkpt lat="43.34656" lon="6.52176">
        <ele>464.89</ele>
        <time>2025-03-15T15:59:46.423Z</time>
      </trkpt>
      <trkpt lat="43.34659" lon="6.52176">
        <ele>465.12</ele>
        <time>2025-03-15T15:59:48.329Z</time>
      </trkpt>
      <trkpt lat="43.34663" lon="6.52176">
        <ele>465.33</ele>
        <time>2025-03-15T15:59:50.206Z</time>
      </trkpt>
      <trkpt lat="43.34666" lon="6.52176">
        <ele>465.52</ele>
        <time>2025-03-15T15:59:52.061Z</time>
      </trkpt>
      <trkpt lat="43.3467" lon="6.52176">
        <ele>465.68</ele>
        <time>2025-03-15T15:59:53.977Z</time>
      </trkpt>
      <trkpt lat="43.34691" lon="6.52181">
        <ele>465.84</ele>
        <time>2025-03-15T16:00:03.761Z</time>
      </trkpt>
      <trkpt lat="43.34698" lon="6.52184">
        <ele>465.98</ele>
        <time>2025-03-15T16:00:07.532Z</time>
      </trkpt>
      <trkpt lat="43.34702" lon="6.52185">
        <ele>466.09</ele>
        <time>2025-03-15T16:00:09.606Z</time>
      </trkpt>
      <trkpt lat="43.34706" lon="6.52186">
        <ele>466.18</ele>
        <time>2025-03-15T16:00:11.675Z</time>
      </trkpt>
      <trkpt lat="43.34711" lon="6.52187">
        <ele>466.24</ele>
        <time>2025-03-15T16:00:13.765Z</time>
      </trkpt>
      <trkpt lat="43.34715" lon="6.52188">
        <ele>466.27</ele>
        <time>2025-03-15T16:00:15.818Z</time>
      </trkpt>
      <trkpt lat="43.34744" lon="6.52194">
        <ele>466.37</ele>
        <time>2025-03-15T16:00:29.414Z</time>
      </trkpt>
      <trkpt lat="43.34756" lon="6.52198">
        <ele>466.33</ele>
        <time>2025-03-15T16:00:35.142Z</time>
      </trkpt>
      <trkpt lat="43.34767" lon="6.52203">
        <ele>466.23</ele>
        <time>2025-03-15T16:00:40.294Z</time>
      </trkpt>
      <trkpt lat="43.34782" lon="6.52211">
        <ele>466.08</ele>
        <time>2025-03-15T16:00:47.323Z</time>
      </trkpt>
      <trkpt lat="43.34786" lon="6.52213">
        <ele>465.92</ele>
        <time>2025-03-15T16:00:49.122Z</time>
      </trkpt>
      <trkpt lat="43.3479" lon="6.52216">
        <ele>465.72</ele>
        <time>2025-03-15T16:00:50.873Z</time>
      </trkpt>
      <trkpt lat="43.34794" lon="6.52219">
        <ele>465.49</ele>
        <time>2025-03-15T16:00:52.619Z</time>
      </trkpt>
      <trkpt lat="43.34798" lon="6.52222">
        <ele>465.23</ele>
        <time>2025-03-15T16:00:54.387Z</time>
      </trkpt>
      <trkpt lat="43.34827" lon="6.52242">
        <ele>464.78</ele>
        <time>2025-03-15T16:01:08.437Z</time>
      </trkpt>
      <trkpt lat="43.34837" lon="6.52246">
        <ele>464.44</ele>
        <time>2025-03-15T16:01:12.755Z</time>
      </trkpt>
      <trkpt lat="43.34847" lon="6.52249">
        <ele>464.09</ele>
        <time>2025-03-15T16:01:17.443Z</time>
      </trkpt>
      <trkpt lat="43.3486" lon="6.52253">
        <ele>463.69</ele>
        <time>2025-03-15T16:01:22.921Z</time>
      </trkpt>
      <trkpt lat="43.3488" lon="6.52257">
        <ele>463.19</ele>
        <time>2025-03-15T16:01:31.492Z</time>
      </trkpt>
      <trkpt lat="43.34887" lon="6.52257">
        <ele>462.76</ele>
        <time>2025-03-15T16:01:34.213Z</time>
      </trkpt>
      <trkpt lat="43.34894" lon="6.52255">
        <ele>462.31</ele>
        <time>2025-03-15T16:01:36.928Z</time>
      </trkpt>
      <trkpt lat="43.349" lon="6.52252">
        <ele>461.85</ele>
        <time>2025-03-15T16:01:39.602Z</time>
      </trkpt>
      <trkpt lat="43.34905" lon="6.52247">
        <ele>461.38</ele>
        <time>2025-03-15T16:01:42.204Z</time>
      </trkpt>
      <trkpt lat="43.3491" lon="6.52241">
        <ele>460.91</ele>
        <time>2025-03-15T16:01:44.787Z</time>
      </trkpt>
      <trkpt lat="43.34915" lon="6.52234">
        <ele>460.43</ele>
        <time>2025-03-15T16:01:47.522Z</time>
      </trkpt>
      <trkpt lat="43.34919" lon="6.52226">
        <ele>459.93</ele>
        <time>2025-03-15T16:01:50.327Z</time>
      </trkpt>
      <trkpt lat="43.34922" lon="6.5222">
        <ele>459.41</ele>
        <time>2025-03-15T16:01:52.439Z</time>
      </trkpt>
      <trkpt lat="43.34923" lon="6.52217">
        <ele>458.87</ele>
        <time>2025-03-15T16:01:53.388Z</time>
      </trkpt>
      <trkpt lat="43.34924" lon="6.52217">
        <ele>458.33</ele>
        <time>2025-03-15T16:01:53.800Z</time>
      </trkpt>
      <trkpt lat="43.34925" lon="6.52217">
        <ele>457.78</ele>
        <time>2025-03-15T16:01:54.036Z</time>
      </trkpt>
      <trkpt lat="43.34925" lon="6.52218">
        <ele>457.23</ele>
        <time>2025-03-15T16:01:54.342Z</time>
      </trkpt>
      <trkpt lat="43.34926" lon="6.52219">
        <ele>456.66</ele>
        <time>2025-03-15T16:01:54.677Z</time>
      </trkpt>
      <trkpt lat="43.34927" lon="6.5222">
        <ele>456.08</ele>
        <time>2025-03-15T16:01:55.328Z</time>
      </trkpt>
      <trkpt lat="43.34932" lon="6.52223">
        <ele>455.46</ele>
        <time>2025-03-15T16:01:57.414Z</time>
      </trkpt>
      <trkpt lat="43.34936" lon="6.52224">
        <ele>454.85</ele>
        <time>2025-03-15T16:01:59.036Z</time>
      </trkpt>
      <trkpt lat="43.3494" lon="6.52224">
        <ele>454.22</ele>
        <time>2025-03-15T16:02:00.847Z</time>
      </trkpt>
      <trkpt lat="43.34945" lon="6.52225">
        <ele>453.62</ele>
        <time>2025-03-15T16:02:02.854Z</time>
      </trkpt>
      <trkpt lat="43.34951" lon="6.52225">
        <ele>453.01</ele>
        <time>2025-03-15T16:02:05.015Z</time>
      </trkpt>
      <trkpt lat="43.34956" lon="6.52225">
        <ele>452.4</ele>
        <time>2025-03-15T16:02:06.955Z</time>
      </trkpt>
      <trkpt lat="43.3496" lon="6.52226">
        <ele>451.79</ele>
        <time>2025-03-15T16:02:08.624Z</time>
      </trkpt>
      <trkpt lat="43.34964" lon="6.52227">
        <ele>451.18</ele>
        <time>2025-03-15T16:02:10.528Z</time>
      </trkpt>
      <trkpt lat="43.3497" lon="6.52228">
        <ele>450.56</ele>
        <time>2025-03-15T16:02:12.614Z</time>
      </trkpt>
      <trkpt lat="43.34974" lon="6.52229">
        <ele>449.94</ele>
        <time>2025-03-15T16:02:14.544Z</time>
      </trkpt>
      <trkpt lat="43.34978" lon="6.5223">
        <ele>449.32</ele>
        <time>2025-03-15T16:02:16.155Z</time>
      </trkpt>
      <trkpt lat="43.34983" lon="6.5223">
        <ele>448.7</ele>
        <time>2025-03-15T16:02:17.856Z</time>
      </trkpt>
      <trkpt lat="43.34987" lon="6.52231">
        <ele>448.08</ele>
        <time>2025-03-15T16:02:19.734Z</time>
      </trkpt>
      <trkpt lat="43.34992" lon="6.52231">
        <ele>447.46</ele>
        <time>2025-03-15T16:02:21.640Z</time>
      </trkpt>
      <trkpt lat="43.34996" lon="6.52232">
        <ele>446.83</ele>
        <time>2025-03-15T16:02:23.398Z</time>
      </trkpt>
      <trkpt lat="43.35" lon="6.52233">
        <ele>446.2</ele>
        <time>2025-03-15T16:02:24.888Z</time>
      </trkpt>
      <trkpt lat="43.35003" lon="6.52235">
        <ele>445.56</ele>
        <time>2025-03-15T16:02:26.113Z</time>
      </trkpt>
      <trkpt lat="43.35004" lon="6.52237">
        <ele>444.92</ele>
        <time>2025-03-15T16:02:26.953Z</time>
      </trkpt>
      <trkpt lat="43.35003" lon="6.5224">
        <ele>444.27</ele>
        <time>2025-03-15T16:02:27.697Z</time>
      </trkpt>
      <trkpt lat="43.35001" lon="6.52242">
        <ele>443.62</ele>
        <time>2025-03-15T16:02:28.774Z</time>
      </trkpt>
      <trkpt lat="43.34998" lon="6.52244">
        <ele>442.97</ele>
        <time>2025-03-15T16:02:30.109Z</time>
      </trkpt>
      <trkpt lat="43.34992" lon="6.52252">
        <ele>442.29</ele>
        <time>2025-03-15T16:02:33.316Z</time>
      </trkpt>
      <trkpt lat="43.34988" lon="6.52257">
        <ele>441.61</ele>
        <time>2025-03-15T16:02:35.488Z</time>
      </trkpt>
      <trkpt lat="43.34985" lon="6.52262">
        <ele>440.92</ele>
        <time>2025-03-15T16:02:37.557Z</time>
      </trkpt>
      <trkpt lat="43.34981" lon="6.52267">
        <ele>440.23</ele>
        <time>2025-03-15T16:02:39.634Z</time>
      </trkpt>
      <trkpt lat="43.34978" lon="6.52272">
        <ele>439.54</ele>
        <time>2025-03-15T16:02:41.426Z</time>
      </trkpt>
      <trkpt lat="43.34976" lon="6.52276">
        <ele>438.85</ele>
        <time>2025-03-15T16:02:42.869Z</time>
      </trkpt>
      <trkpt lat="43.34975" lon="6.52279">
        <ele>438.16</ele>
        <time>2025-03-15T16:02:43.969Z</time>
      </trkpt>
      <trkpt lat="43.34975" lon="6.52282">
        <ele>437.47</ele>
        <time>2025-03-15T16:02:44.805Z</time>
      </trkpt>
      <trkpt lat="43.34974" lon="6.52285">
        <ele>436.77</ele>
        <time>2025-03-15T16:02:45.541Z</time>
      </trkpt>
      <trkpt lat="43.34975" lon="6.52287">
        <ele>436.08</ele>
        <time>2025-03-15T16:02:46.211Z</time>
      </trkpt>
      <trkpt lat="43.34974" lon="6.5229">
        <ele>435.38</ele>
        <time>2025-03-15T16:02:47.119Z</time>
      </trkpt>
      <trkpt lat="43.34974" lon="6.52293">
        <ele>434.68</ele>
        <time>2025-03-15T16:02:47.947Z</time>
      </trkpt>
      <trkpt lat="43.34973" lon="6.52295">
        <ele>433.98</ele>
        <time>2025-03-15T16:02:48.594Z</time>
      </trkpt>
      <trkpt lat="43.34973" lon="6.52298">
        <ele>433.28</ele>
        <time>2025-03-15T16:02:49.399Z</time>
      </trkpt>
      <trkpt lat="43.34972" lon="6.523">
        <ele>432.57</ele>
        <time>2025-03-15T16:02:50.202Z</time>
      </trkpt>
      <trkpt lat="43.34971" lon="6.52303">
        <ele>431.86</ele>
        <time>2025-03-15T16:02:51.013Z</time>
      </trkpt>
      <trkpt lat="43.3497" lon="6.52307">
        <ele>431.14</ele>
        <time>2025-03-15T16:02:52.372Z</time>
      </trkpt>
      <trkpt lat="43.34968" lon="6.52311">
        <ele>430.43</ele>
        <time>2025-03-15T16:02:53.738Z</time>
      </trkpt>
      <trkpt lat="43.34967" lon="6.52315">
        <ele>429.71</ele>
        <time>2025-03-15T16:02:55.147Z</time>
      </trkpt>
      <trkpt lat="43.34965" lon="6.5232">
        <ele>429</ele>
        <time>2025-03-15T16:02:56.653Z</time>
      </trkpt>
      <trkpt lat="43.34963" lon="6.52323">
        <ele>428.3</ele>
        <time>2025-03-15T16:02:57.954Z</time>
      </trkpt>
      <trkpt lat="43.3496" lon="6.52326">
        <ele>427.6</ele>
        <time>2025-03-15T16:02:59.265Z</time>
      </trkpt>
      <trkpt lat="43.34958" lon="6.5233">
        <ele>426.88</ele>
        <time>2025-03-15T16:03:00.719Z</time>
      </trkpt>
      <trkpt lat="43.34956" lon="6.52333">
        <ele>426.16</ele>
        <time>2025-03-15T16:03:01.947Z</time>
      </trkpt>
      <trkpt lat="43.34954" lon="6.52337">
        <ele>425.43</ele>
        <time>2025-03-15T16:03:03.278Z</time>
      </trkpt>
      <trkpt lat="43.34953" lon="6.5234">
        <ele>424.7</ele>
        <time>2025-03-15T16:03:04.346Z</time>
      </trkpt>
      <trkpt lat="43.34952" lon="6.52343">
        <ele>423.97</ele>
        <time>2025-03-15T16:03:05.310Z</time>
      </trkpt>
      <trkpt lat="43.34951" lon="6.52347">
        <ele>423.23</ele>
        <time>2025-03-15T16:03:06.271Z</time>
      </trkpt>
      <trkpt lat="43.34951" lon="6.5235">
        <ele>422.48</ele>
        <time>2025-03-15T16:03:07.379Z</time>
      </trkpt>
      <trkpt lat="43.34949" lon="6.52353">
        <ele>421.72</ele>
        <time>2025-03-15T16:03:08.431Z</time>
      </trkpt>
      <trkpt lat="43.34948" lon="6.52357">
        <ele>420.96</ele>
        <time>2025-03-15T16:03:09.558Z</time>
      </trkpt>
      <trkpt lat="43.34946" lon="6.5236">
        <ele>420.2</ele>
        <time>2025-03-15T16:03:10.875Z</time>
      </trkpt>
      <trkpt lat="43.34943" lon="6.52365">
        <ele>419.43</ele>
        <time>2025-03-15T16:03:12.671Z</time>
      </trkpt>
      <trkpt lat="43.3494" lon="6.52369">
        <ele>418.64</ele>
        <time>2025-03-15T16:03:14.286Z</time>
      </trkpt>
      <trkpt lat="43.34939" lon="6.52373">
        <ele>417.85</ele>
        <time>2025-03-15T16:03:15.565Z</time>
      </trkpt>
      <trkpt lat="43.34938" lon="6.52377">
        <ele>417.06</ele>
        <time>2025-03-15T16:03:16.776Z</time>
      </trkpt>
      <trkpt lat="43.34937" lon="6.52382">
        <ele>416.27</ele>
        <time>2025-03-15T16:03:18.155Z</time>
      </trkpt>
      <trkpt lat="43.34935" lon="6.52386">
        <ele>415.47</ele>
        <time>2025-03-15T16:03:19.566Z</time>
      </trkpt>
      <trkpt lat="43.34933" lon="6.52389">
        <ele>414.67</ele>
        <time>2025-03-15T16:03:20.841Z</time>
      </trkpt>
      <trkpt lat="43.3493" lon="6.52392">
        <ele>413.89</ele>
        <time>2025-03-15T16:03:22.161Z</time>
      </trkpt>
      <trkpt lat="43.34927" lon="6.52393">
        <ele>413.12</ele>
        <time>2025-03-15T16:03:23.621Z</time>
      </trkpt>
      <trkpt lat="43.34923" lon="6.52394">
        <ele>412.35</ele>
        <time>2025-03-15T16:03:25.159Z</time>
      </trkpt>
      <trkpt lat="43.3492" lon="6.52396">
        <ele>411.59</ele>
        <time>2025-03-15T16:03:26.586Z</time>
      </trkpt>
      <trkpt lat="43.34916" lon="6.52397">
        <ele>410.81</ele>
        <time>2025-03-15T16:03:28.002Z</time>
      </trkpt>
      <trkpt lat="43.34913" lon="6.52399">
        <ele>410.03</ele>
        <time>2025-03-15T16:03:29.391Z</time>
      </trkpt>
      <trkpt lat="43.3491" lon="6.524">
        <ele>409.26</ele>
        <time>2025-03-15T16:03:30.798Z</time>
      </trkpt>
      <trkpt lat="43.34906" lon="6.524">
        <ele>408.51</ele>
        <time>2025-03-15T16:03:32.137Z</time>
      </trkpt>
      <trkpt lat="43.34903" lon="6.52402">
        <ele>407.74</ele>
        <time>2025-03-15T16:03:33.504Z</time>
      </trkpt>
      <trkpt lat="43.34902" lon="6.52405">
        <ele>406.97</ele>
        <time>2025-03-15T16:03:34.458Z</time>
      </trkpt>
      <trkpt lat="43.34902" lon="6.52407">
        <ele>406.21</ele>
        <time>2025-03-15T16:03:35.209Z</time>
      </trkpt>
      <trkpt lat="43.34902" lon="6.5241">
        <ele>405.45</ele>
        <time>2025-03-15T16:03:36.025Z</time>
      </trkpt>
      <trkpt lat="43.34903" lon="6.52413">
        <ele>404.7</ele>
        <time>2025-03-15T16:03:36.878Z</time>
      </trkpt>
      <trkpt lat="43.34903" lon="6.52417">
        <ele>403.94</ele>
        <time>2025-03-15T16:03:37.983Z</time>
      </trkpt>
      <trkpt lat="43.34904" lon="6.52421">
        <ele>403.21</ele>
        <time>2025-03-15T16:03:39.361Z</time>
      </trkpt>
      <trkpt lat="43.34906" lon="6.52426">
        <ele>402.49</ele>
        <time>2025-03-15T16:03:40.889Z</time>
      </trkpt>
      <trkpt lat="43.34907" lon="6.5243">
        <ele>401.78</ele>
        <time>2025-03-15T16:03:42.288Z</time>
      </trkpt>
      <trkpt lat="43.34908" lon="6.52433">
        <ele>401.08</ele>
        <time>2025-03-15T16:03:43.108Z</time>
      </trkpt>
      <trkpt lat="43.34909" lon="6.52435">
        <ele>400.4</ele>
        <time>2025-03-15T16:03:43.813Z</time>
      </trkpt>
      <trkpt lat="43.3491" lon="6.52438">
        <ele>399.73</ele>
        <time>2025-03-15T16:03:44.685Z</time>
      </trkpt>
      <trkpt lat="43.34912" lon="6.52441">
        <ele>399.07</ele>
        <time>2025-03-15T16:03:45.925Z</time>
      </trkpt>
      <trkpt lat="43.34914" lon="6.52444">
        <ele>398.42</ele>
        <time>2025-03-15T16:03:47.318Z</time>
      </trkpt>
      <trkpt lat="43.34916" lon="6.52447">
        <ele>397.77</ele>
        <time>2025-03-15T16:03:48.481Z</time>
      </trkpt>
      <trkpt lat="43.34917" lon="6.5245">
        <ele>397.12</ele>
        <time>2025-03-15T16:03:49.252Z</time>
      </trkpt>
      <trkpt lat="43.34917" lon="6.52452">
        <ele>396.48</ele>
        <time>2025-03-15T16:03:50.062Z</time>
      </trkpt>
      <trkpt lat="43.34917" lon="6.52455">
        <ele>395.85</ele>
        <time>2025-03-15T16:03:50.758Z</time>
      </trkpt>
      <trkpt lat="43.34917" lon="6.52457">
        <ele>395.23</ele>
        <time>2025-03-15T16:03:51.473Z</time>
      </trkpt>
      <trkpt lat="43.34917" lon="6.5246">
        <ele>394.63</ele>
        <time>2025-03-15T16:03:52.210Z</time>
      </trkpt>
      <trkpt lat="43.34917" lon="6.52462">
        <ele>394.03</ele>
        <time>2025-03-15T16:03:52.866Z</time>
      </trkpt>
      <trkpt lat="43.34917" lon="6.52464">
        <ele>393.45</ele>
        <time>2025-03-15T16:03:53.393Z</time>
      </trkpt>
      <trkpt lat="43.34916" lon="6.52465">
        <ele>392.87</ele>
        <time>2025-03-15T16:03:53.964Z</time>
      </trkpt>
      <trkpt lat="43.34916" lon="6.52468">
        <ele>392.31</ele>
        <time>2025-03-15T16:03:54.637Z</time>
      </trkpt>
      <trkpt lat="43.34916" lon="6.52469">
        <ele>391.75</ele>
        <time>2025-03-15T16:03:55.171Z</time>
      </trkpt>
      <trkpt lat="43.34917" lon="6.52471">
        <ele>391.22</ele>
        <time>2025-03-15T16:03:55.861Z</time>
      </trkpt>
      <trkpt lat="43.34918" lon="6.52473">
        <ele>390.68</ele>
        <time>2025-03-15T16:03:56.660Z</time>
      </trkpt>
      <trkpt lat="43.3492" lon="6.52476">
        <ele>390.16</ele>
        <time>2025-03-15T16:03:57.581Z</time>
      </trkpt>
      <trkpt lat="43.3492" lon="6.52478">
        <ele>389.64</ele>
        <time>2025-03-15T16:03:58.250Z</time>
      </trkpt>
      <trkpt lat="43.34921" lon="6.5248">
        <ele>389.14</ele>
        <time>2025-03-15T16:03:58.911Z</time>
      </trkpt>
      <trkpt lat="43.34923" lon="6.52482">
        <ele>388.64</ele>
        <time>2025-03-15T16:03:59.878Z</time>
      </trkpt>
      <trkpt lat="43.34925" lon="6.52484">
        <ele>388.15</ele>
        <time>2025-03-15T16:04:00.864Z</time>
      </trkpt>
      <trkpt lat="43.34927" lon="6.52487">
        <ele>387.65</ele>
        <time>2025-03-15T16:04:01.860Z</time>
      </trkpt>
      <trkpt lat="43.34925" lon="6.52489">
        <ele>387.15</ele>
        <time>2025-03-15T16:04:02.799Z</time>
      </trkpt>
      <trkpt lat="43.34922" lon="6.52491">
        <ele>386.64</ele>
        <time>2025-03-15T16:04:04.072Z</time>
      </trkpt>
      <trkpt lat="43.3492" lon="6.52492">
        <ele>386.16</ele>
        <time>2025-03-15T16:04:05.097Z</time>
      </trkpt>
      <trkpt lat="43.34917" lon="6.52492">
        <ele>385.69</ele>
        <time>2025-03-15T16:04:06.126Z</time>
      </trkpt>
      <trkpt lat="43.34916" lon="6.52492">
        <ele>385.22</ele>
        <time>2025-03-15T16:04:06.846Z</time>
      </trkpt>
      <trkpt lat="43.34914" lon="6.52492">
        <ele>384.76</ele>
        <time>2025-03-15T16:04:07.297Z</time>
      </trkpt>
      <trkpt lat="43.34914" lon="6.52491">
        <ele>384.31</ele>
        <time>2025-03-15T16:04:07.486Z</time>
      </trkpt>
      <trkpt lat="43.34914" lon="6.52491">
        <ele>383.87</ele>
        <time>2025-03-15T16:04:07.707Z</time>
      </trkpt>
      <trkpt lat="43.34914" lon="6.52491">
        <ele>383.4</ele>
        <time>2025-03-15T16:04:07.861Z</time>
      </trkpt>
      <trkpt lat="43.34913" lon="6.5249">
        <ele>382.96</ele>
        <time>2025-03-15T16:04:08.097Z</time>
      </trkpt>
      <trkpt lat="43.34913" lon="6.5249">
        <ele>382.49</ele>
        <time>2025-03-15T16:04:08.398Z</time>
      </trkpt>
      <trkpt lat="43.3491" lon="6.52492">
        <ele>381.98</ele>
        <time>2025-03-15T16:04:09.671Z</time>
      </trkpt>
      <trkpt lat="43.34907" lon="6.52492">
        <ele>381.48</ele>
        <time>2025-03-15T16:04:10.878Z</time>
      </trkpt>
      <trkpt lat="43.34904" lon="6.52493">
        <ele>380.98</ele>
        <time>2025-03-15T16:04:11.933Z</time>
      </trkpt>
      <trkpt lat="43.34901" lon="6.52494">
        <ele>380.47</ele>
        <time>2025-03-15T16:04:13.220Z</time>
      </trkpt>
      <trkpt lat="43.34898" lon="6.52495">
        <ele>379.95</ele>
        <time>2025-03-15T16:04:14.529Z</time>
      </trkpt>
      <trkpt lat="43.34896" lon="6.52497">
        <ele>379.42</ele>
        <time>2025-03-15T16:04:15.598Z</time>
      </trkpt>
      <trkpt lat="43.34894" lon="6.52499">
        <ele>378.88</ele>
        <time>2025-03-15T16:04:16.642Z</time>
      </trkpt>
      <trkpt lat="43.34891" lon="6.52501">
        <ele>378.32</ele>
        <time>2025-03-15T16:04:17.880Z</time>
      </trkpt>
      <trkpt lat="43.34887" lon="6.52502">
        <ele>377.77</ele>
        <time>2025-03-15T16:04:19.280Z</time>
      </trkpt>
      <trkpt lat="43.34884" lon="6.52503">
        <ele>377.19</ele>
        <time>2025-03-15T16:04:20.666Z</time>
      </trkpt>
      <trkpt lat="43.34881" lon="6.52504">
        <ele>376.6</ele>
        <time>2025-03-15T16:04:21.965Z</time>
      </trkpt>
      <trkpt lat="43.34878" lon="6.52505">
        <ele>376</ele>
        <time>2025-03-15T16:04:23.242Z</time>
      </trkpt>
      <trkpt lat="43.34874" lon="6.52507">
        <ele>375.38</ele>
        <time>2025-03-15T16:04:24.710Z</time>
      </trkpt>
      <trkpt lat="43.34872" lon="6.52508">
        <ele>374.76</ele>
        <time>2025-03-15T16:04:25.926Z</time>
      </trkpt>
      <trkpt lat="43.34869" lon="6.52509">
        <ele>374.13</ele>
        <time>2025-03-15T16:04:26.880Z</time>
      </trkpt>
      <trkpt lat="43.34867" lon="6.5251">
        <ele>373.49</ele>
        <time>2025-03-15T16:04:27.746Z</time>
      </trkpt>
      <trkpt lat="43.34866" lon="6.52512">
        <ele>372.84</ele>
        <time>2025-03-15T16:04:28.593Z</time>
      </trkpt>
      <trkpt lat="43.34864" lon="6.52512">
        <ele>372.18</ele>
        <time>2025-03-15T16:04:29.169Z</time>
      </trkpt>
      <trkpt lat="43.34863" lon="6.52513">
        <ele>371.52</ele>
        <time>2025-03-15T16:04:29.814Z</time>
      </trkpt>
      <trkpt lat="43.34861" lon="6.52513">
        <ele>370.85</ele>
        <time>2025-03-15T16:04:30.613Z</time>
      </trkpt>
      <trkpt lat="43.34858" lon="6.52513">
        <ele>370.15</ele>
        <time>2025-03-15T16:04:31.616Z</time>
      </trkpt>
      <trkpt lat="43.34857" lon="6.52516">
        <ele>369.43</ele>
        <time>2025-03-15T16:04:32.517Z</time>
      </trkpt>
      <trkpt lat="43.34858" lon="6.52519">
        <ele>368.71</ele>
        <time>2025-03-15T16:04:33.272Z</time>
      </trkpt>
      <trkpt lat="43.34859" lon="6.52521">
        <ele>367.98</ele>
        <time>2025-03-15T16:04:34.003Z</time>
      </trkpt>
      <trkpt lat="43.34859" lon="6.52524">
        <ele>367.23</ele>
        <time>2025-03-15T16:04:34.759Z</time>
      </trkpt>
      <trkpt lat="43.34861" lon="6.52526">
        <ele>366.49</ele>
        <time>2025-03-15T16:04:35.483Z</time>
      </trkpt>
      <trkpt lat="43.34862" lon="6.52528">
        <ele>365.72</ele>
        <time>2025-03-15T16:04:36.495Z</time>
      </trkpt>
      <trkpt lat="43.34864" lon="6.52532">
        <ele>364.96</ele>
        <time>2025-03-15T16:04:37.669Z</time>
      </trkpt>
      <trkpt lat="43.34865" lon="6.52535">
        <ele>364.17</ele>
        <time>2025-03-15T16:04:38.906Z</time>
      </trkpt>
      <trkpt lat="43.34864" lon="6.52539">
        <ele>363.37</ele>
        <time>2025-03-15T16:04:40.009Z</time>
      </trkpt>
      <trkpt lat="43.34862" lon="6.5254">
        <ele>362.57</ele>
        <time>2025-03-15T16:04:40.901Z</time>
      </trkpt>
      <trkpt lat="43.3486" lon="6.52541">
        <ele>361.77</ele>
        <time>2025-03-15T16:04:41.922Z</time>
      </trkpt>
      <trkpt lat="43.34858" lon="6.52542">
        <ele>360.97</ele>
        <time>2025-03-15T16:04:42.756Z</time>
      </trkpt>
      <trkpt lat="43.34856" lon="6.52542">
        <ele>360.15</ele>
        <time>2025-03-15T16:04:43.590Z</time>
      </trkpt>
      <trkpt lat="43.34853" lon="6.52544">
        <ele>359.32</ele>
        <time>2025-03-15T16:04:44.610Z</time>
      </trkpt>
      <trkpt lat="43.34851" lon="6.52546">
        <ele>358.49</ele>
        <time>2025-03-15T16:04:45.575Z</time>
      </trkpt>
      <trkpt lat="43.34848" lon="6.52547">
        <ele>357.65</ele>
        <time>2025-03-15T16:04:46.890Z</time>
      </trkpt>
      <trkpt lat="43.34845" lon="6.52549">
        <ele>356.8</ele>
        <time>2025-03-15T16:04:48.133Z</time>
      </trkpt>
      <trkpt lat="43.34843" lon="6.52551">
        <ele>355.96</ele>
        <time>2025-03-15T16:04:49.281Z</time>
      </trkpt>
      <trkpt lat="43.3484" lon="6.52553">
        <ele>355.11</ele>
        <time>2025-03-15T16:04:50.500Z</time>
      </trkpt>
      <trkpt lat="43.34838" lon="6.52556">
        <ele>354.25</ele>
        <time>2025-03-15T16:04:51.835Z</time>
      </trkpt>
      <trkpt lat="43.34835" lon="6.52559">
        <ele>353.41</ele>
        <time>2025-03-15T16:04:52.986Z</time>
      </trkpt>
      <trkpt lat="43.34835" lon="6.52562">
        <ele>352.57</ele>
        <time>2025-03-15T16:04:54.013Z</time>
      </trkpt>
      <trkpt lat="43.34836" lon="6.52567">
        <ele>351.74</ele>
        <time>2025-03-15T16:04:55.336Z</time>
      </trkpt>
      <trkpt lat="43.34836" lon="6.52571">
        <ele>350.91</ele>
        <time>2025-03-15T16:04:56.692Z</time>
      </trkpt>
      <trkpt lat="43.34834" lon="6.52575">
        <ele>350.09</ele>
        <time>2025-03-15T16:04:58.067Z</time>
      </trkpt>
      <trkpt lat="43.34831" lon="6.52578">
        <ele>349.27</ele>
        <time>2025-03-15T16:04:59.379Z</time>
      </trkpt>
      <trkpt lat="43.34829" lon="6.52581">
        <ele>348.46</ele>
        <time>2025-03-15T16:05:00.614Z</time>
      </trkpt>
      <trkpt lat="43.34827" lon="6.52583">
        <ele>347.66</ele>
        <time>2025-03-15T16:05:01.676Z</time>
      </trkpt>
      <trkpt lat="43.34827" lon="6.52586">
        <ele>346.89</ele>
        <time>2025-03-15T16:05:02.495Z</time>
      </trkpt>
      <trkpt lat="43.34827" lon="6.52591">
        <ele>346.12</ele>
        <time>2025-03-15T16:05:03.828Z</time>
      </trkpt>
      <trkpt lat="43.34827" lon="6.52597">
        <ele>345.35</ele>
        <time>2025-03-15T16:05:05.571Z</time>
      </trkpt>
      <trkpt lat="43.34827" lon="6.52601">
        <ele>344.61</ele>
        <time>2025-03-15T16:05:07.014Z</time>
      </trkpt>
      <trkpt lat="43.34828" lon="6.52607">
        <ele>343.88</ele>
        <time>2025-03-15T16:05:08.570Z</time>
      </trkpt>
      <trkpt lat="43.34828" lon="6.52612">
        <ele>343.16</ele>
        <time>2025-03-15T16:05:09.988Z</time>
      </trkpt>
      <trkpt lat="43.34827" lon="6.52616">
        <ele>342.46</ele>
        <time>2025-03-15T16:05:11.182Z</time>
      </trkpt>
      <trkpt lat="43.34826" lon="6.52619">
        <ele>341.76</ele>
        <time>2025-03-15T16:05:12.359Z</time>
      </trkpt>
      <trkpt lat="43.34823" lon="6.52622">
        <ele>341.08</ele>
        <time>2025-03-15T16:05:13.558Z</time>
      </trkpt>
      <trkpt lat="43.34821" lon="6.52625">
        <ele>340.41</ele>
        <time>2025-03-15T16:05:14.873Z</time>
      </trkpt>
      <trkpt lat="43.34819" lon="6.52628">
        <ele>339.76</ele>
        <time>2025-03-15T16:05:16.125Z</time>
      </trkpt>
      <trkpt lat="43.34817" lon="6.52632">
        <ele>339.15</ele>
        <time>2025-03-15T16:05:17.470Z</time>
      </trkpt>
      <trkpt lat="43.34815" lon="6.52635">
        <ele>338.55</ele>
        <time>2025-03-15T16:05:18.796Z</time>
      </trkpt>
      <trkpt lat="43.34813" lon="6.52639">
        <ele>337.97</ele>
        <time>2025-03-15T16:05:20.184Z</time>
      </trkpt>
      <trkpt lat="43.3481" lon="6.52643">
        <ele>337.4</ele>
        <time>2025-03-15T16:05:21.725Z</time>
      </trkpt>
      <trkpt lat="43.34809" lon="6.52647">
        <ele>336.85</ele>
        <time>2025-03-15T16:05:23.043Z</time>
      </trkpt>
      <trkpt lat="43.34808" lon="6.52651">
        <ele>336.33</ele>
        <time>2025-03-15T16:05:24.220Z</time>
      </trkpt>
      <trkpt lat="43.34808" lon="6.52655">
        <ele>335.83</ele>
        <time>2025-03-15T16:05:25.493Z</time>
      </trkpt>
      <trkpt lat="43.34808" lon="6.5266">
        <ele>335.34</ele>
        <time>2025-03-15T16:05:26.726Z</time>
      </trkpt>
      <trkpt lat="43.34807" lon="6.52664">
        <ele>334.87</ele>
        <time>2025-03-15T16:05:27.956Z</time>
      </trkpt>
      <trkpt lat="43.34808" lon="6.52668">
        <ele>334.41</ele>
        <time>2025-03-15T16:05:29.240Z</time>
      </trkpt>
      <trkpt lat="43.34808" lon="6.52672">
        <ele>333.97</ele>
        <time>2025-03-15T16:05:30.422Z</time>
      </trkpt>
      <trkpt lat="43.34808" lon="6.52677">
        <ele>333.55</ele>
        <time>2025-03-15T16:05:31.659Z</time>
      </trkpt>
      <trkpt lat="43.34809" lon="6.52681">
        <ele>333.14</ele>
        <time>2025-03-15T16:05:33.075Z</time>
      </trkpt>
      <trkpt lat="43.34809" lon="6.52686">
        <ele>332.74</ele>
        <time>2025-03-15T16:05:34.487Z</time>
      </trkpt>
      <trkpt lat="43.3481" lon="6.5269">
        <ele>332.35</ele>
        <time>2025-03-15T16:05:35.644Z</time>
      </trkpt>
      <trkpt lat="43.34812" lon="6.52692">
        <ele>331.97</ele>
        <time>2025-03-15T16:05:36.596Z</time>
      </trkpt>
      <trkpt lat="43.34819" lon="6.52693">
        <ele>331.59</ele>
        <time>2025-03-15T16:05:39.448Z</time>
      </trkpt>
      <trkpt lat="43.34822" lon="6.52693">
        <ele>331.23</ele>
        <time>2025-03-15T16:05:40.418Z</time>
      </trkpt>
      <trkpt lat="43.34839" lon="6.52693">
        <ele>330.84</ele>
        <time>2025-03-15T16:05:47.687Z</time>
      </trkpt>
      <trkpt lat="43.34846" lon="6.52695">
        <ele>330.48</ele>
        <time>2025-03-15T16:05:50.523Z</time>
      </trkpt>
      <trkpt lat="43.34853" lon="6.52697">
        <ele>330.13</ele>
        <time>2025-03-15T16:05:53.565Z</time>
      </trkpt>
      <trkpt lat="43.3486" lon="6.527">
        <ele>329.78</ele>
        <time>2025-03-15T16:05:56.477Z</time>
      </trkpt>
      <trkpt lat="43.34867" lon="6.52703">
        <ele>329.44</ele>
        <time>2025-03-15T16:05:59.266Z</time>
      </trkpt>
      <trkpt lat="43.34873" lon="6.52707">
        <ele>329.11</ele>
        <time>2025-03-15T16:06:02.164Z</time>
      </trkpt>
      <trkpt lat="43.3488" lon="6.52711">
        <ele>328.79</ele>
        <time>2025-03-15T16:06:04.921Z</time>
      </trkpt>
      <trkpt lat="43.34886" lon="6.52714">
        <ele>328.49</ele>
        <time>2025-03-15T16:06:07.510Z</time>
      </trkpt>
      <trkpt lat="43.34891" lon="6.52718">
        <ele>328.19</ele>
        <time>2025-03-15T16:06:09.961Z</time>
      </trkpt>
      <trkpt lat="43.34896" lon="6.52722">
        <ele>327.9</ele>
        <time>2025-03-15T16:06:12.285Z</time>
      </trkpt>
      <trkpt lat="43.34901" lon="6.52726">
        <ele>327.64</ele>
        <time>2025-03-15T16:06:14.338Z</time>
      </trkpt>
      <trkpt lat="43.34905" lon="6.5273">
        <ele>327.39</ele>
        <time>2025-03-15T16:06:16.297Z</time>
      </trkpt>
      <trkpt lat="43.34909" lon="6.52732">
        <ele>327.15</ele>
        <time>2025-03-15T16:06:18.145Z</time>
      </trkpt>
      <trkpt lat="43.34913" lon="6.52735">
        <ele>326.93</ele>
        <time>2025-03-15T16:06:19.844Z</time>
      </trkpt>
      <trkpt lat="43.34917" lon="6.52737">
        <ele>326.72</ele>
        <time>2025-03-15T16:06:21.519Z</time>
      </trkpt>
      <trkpt lat="43.34921" lon="6.52739">
        <ele>326.53</ele>
        <time>2025-03-15T16:06:23.240Z</time>
      </trkpt>
      <trkpt lat="43.34925" lon="6.52741">
        <ele>326.34</ele>
        <time>2025-03-15T16:06:25.188Z</time>
      </trkpt>
      <trkpt lat="43.3493" lon="6.52742">
        <ele>326.17</ele>
        <time>2025-03-15T16:06:27.179Z</time>
      </trkpt>
      <trkpt lat="43.34935" lon="6.52743">
        <ele>326.03</ele>
        <time>2025-03-15T16:06:29.172Z</time>
      </trkpt>
      <trkpt lat="43.34939" lon="6.52745">
        <ele>325.9</ele>
        <time>2025-03-15T16:06:31.023Z</time>
      </trkpt>
      <trkpt lat="43.34943" lon="6.52746">
        <ele>325.78</ele>
        <time>2025-03-15T16:06:32.949Z</time>
      </trkpt>
      <trkpt lat="43.34948" lon="6.52747">
        <ele>325.69</ele>
        <time>2025-03-15T16:06:35.023Z</time>
      </trkpt>
      <trkpt lat="43.34958" lon="6.52749">
        <ele>325.6</ele>
        <time>2025-03-15T16:06:39.219Z</time>
      </trkpt>
      <trkpt lat="43.34962" lon="6.52749">
        <ele>325.54</ele>
        <time>2025-03-15T16:06:41.156Z</time>
      </trkpt>
      <trkpt lat="43.34966" lon="6.52748">
        <ele>325.49</ele>
        <time>2025-03-15T16:06:42.928Z</time>
      </trkpt>
      <trkpt lat="43.3497" lon="6.52747">
        <ele>325.46</ele>
        <time>2025-03-15T16:06:44.699Z</time>
      </trkpt>
      <trkpt lat="43.34974" lon="6.52745">
        <ele>325.43</ele>
        <time>2025-03-15T16:06:46.540Z</time>
      </trkpt>
      <trkpt lat="43.34978" lon="6.52744">
        <ele>325.41</ele>
        <time>2025-03-15T16:06:48.595Z</time>
      </trkpt>
      <trkpt lat="43.34982" lon="6.52743">
        <ele>325.4</ele>
        <time>2025-03-15T16:06:50.547Z</time>
      </trkpt>
      <trkpt lat="43.34987" lon="6.52742">
        <ele>325.4</ele>
        <time>2025-03-15T16:06:52.582Z</time>
      </trkpt>
      <trkpt lat="43.34995" lon="6.52741">
        <ele>325.4</ele>
        <time>2025-03-15T16:06:56.236Z</time>
      </trkpt>
      <trkpt lat="43.34998" lon="6.52741">
        <ele>325.4</ele>
        <time>2025-03-15T16:06:57.754Z</time>
      </trkpt>
      <trkpt lat="43.35001" lon="6.52741">
        <ele>325.4</ele>
        <time>2025-03-15T16:06:59.264Z</time>
      </trkpt>
      <trkpt lat="43.35005" lon="6.52741">
        <ele>325.4</ele>
        <time>2025-03-15T16:07:01.020Z</time>
      </trkpt>
      <trkpt lat="43.35009" lon="6.52741">
        <ele>325.41</ele>
        <time>2025-03-15T16:07:02.789Z</time>
      </trkpt>
      <trkpt lat="43.35021" lon="6.52739">
        <ele>325.41</ele>
        <time>2025-03-15T16:07:08.297Z</time>
      </trkpt>
      <trkpt lat="43.35025" lon="6.52737">
        <ele>325.42</ele>
        <time>2025-03-15T16:07:10.230Z</time>
      </trkpt>
      <trkpt lat="43.35033" lon="6.52735">
        <ele>325.42</ele>
        <time>2025-03-15T16:07:14.128Z</time>
      </trkpt>
      <trkpt lat="43.35042" lon="6.52729">
        <ele>325.41</ele>
        <time>2025-03-15T16:07:18.573Z</time>
      </trkpt>
      <trkpt lat="43.35052" lon="6.52714">
        <ele>325.42</ele>
        <time>2025-03-15T16:07:25.273Z</time>
      </trkpt>
      <trkpt lat="43.35054" lon="6.52707">
        <ele>325.42</ele>
        <time>2025-03-15T16:07:28.010Z</time>
      </trkpt>
      <trkpt lat="43.35057" lon="6.527">
        <ele>325.41</ele>
        <time>2025-03-15T16:07:30.650Z</time>
      </trkpt>
      <trkpt lat="43.35061" lon="6.52693">
        <ele>325.38</ele>
        <time>2025-03-15T16:07:33.445Z</time>
      </trkpt>
      <trkpt lat="43.35065" lon="6.52687">
        <ele>325.34</ele>
        <time>2025-03-15T16:07:35.971Z</time>
      </trkpt>
      <trkpt lat="43.35068" lon="6.52682">
        <ele>325.29</ele>
        <time>2025-03-15T16:07:38.175Z</time>
      </trkpt>
      <trkpt lat="43.35071" lon="6.52678">
        <ele>325.22</ele>
        <time>2025-03-15T16:07:39.988Z</time>
      </trkpt>
      <trkpt lat="43.35073" lon="6.52674">
        <ele>325.14</ele>
        <time>2025-03-15T16:07:41.502Z</time>
      </trkpt>
      <trkpt lat="43.35073" lon="6.52669">
        <ele>325.05</ele>
        <time>2025-03-15T16:07:43.075Z</time>
      </trkpt>
      <trkpt lat="43.35073" lon="6.52663">
        <ele>324.95</ele>
        <time>2025-03-15T16:07:44.869Z</time>
      </trkpt>
      <trkpt lat="43.35073" lon="6.52658">
        <ele>324.83</ele>
        <time>2025-03-15T16:07:46.389Z</time>
      </trkpt>
      <trkpt lat="43.35073" lon="6.52654">
        <ele>324.68</ele>
        <time>2025-03-15T16:07:47.686Z</time>
      </trkpt>
      <trkpt lat="43.35074" lon="6.5265">
        <ele>324.49</ele>
        <time>2025-03-15T16:07:48.812Z</time>
      </trkpt>
      <trkpt lat="43.35077" lon="6.52648">
        <ele>324.26</ele>
        <time>2025-03-15T16:07:49.954Z</time>
      </trkpt>
      <trkpt lat="43.35081" lon="6.52649">
        <ele>323.98</ele>
        <time>2025-03-15T16:07:51.620Z</time>
      </trkpt>
      <trkpt lat="43.35082" lon="6.5265">
        <ele>323.68</ele>
        <time>2025-03-15T16:07:52.361Z</time>
      </trkpt>
      <trkpt lat="43.35082" lon="6.52651">
        <ele>323.35</ele>
        <time>2025-03-15T16:07:52.488Z</time>
      </trkpt>
      <trkpt lat="43.35084" lon="6.52654">
        <ele>322.97</ele>
        <time>2025-03-15T16:07:53.459Z</time>
      </trkpt>
      <trkpt lat="43.35088" lon="6.52666">
        <ele>322.52</ele>
        <time>2025-03-15T16:07:57.413Z</time>
      </trkpt>
      <trkpt lat="43.35092" lon="6.52679">
        <ele>322.02</ele>
        <time>2025-03-15T16:08:01.539Z</time>
      </trkpt>
      <trkpt lat="43.35095" lon="6.52684">
        <ele>321.54</ele>
        <time>2025-03-15T16:08:03.414Z</time>
      </trkpt>
      <trkpt lat="43.35102" lon="6.52705">
        <ele>320.98</ele>
        <time>2025-03-15T16:08:10.148Z</time>
      </trkpt>
      <trkpt lat="43.35103" lon="6.52712">
        <ele>320.44</ele>
        <time>2025-03-15T16:08:12.481Z</time>
      </trkpt>
      <trkpt lat="43.35104" lon="6.5272">
        <ele>319.87</ele>
        <time>2025-03-15T16:08:14.747Z</time>
      </trkpt>
      <trkpt lat="43.35106" lon="6.52728">
        <ele>319.27</ele>
        <time>2025-03-15T16:08:17.208Z</time>
      </trkpt>
      <trkpt lat="43.35107" lon="6.52737">
        <ele>318.65</ele>
        <time>2025-03-15T16:08:19.670Z</time>
      </trkpt>
      <trkpt lat="43.35107" lon="6.52745">
        <ele>318.01</ele>
        <time>2025-03-15T16:08:22.089Z</time>
      </trkpt>
      <trkpt lat="43.35107" lon="6.52754">
        <ele>317.33</ele>
        <time>2025-03-15T16:08:24.699Z</time>
      </trkpt>
      <trkpt lat="43.35108" lon="6.52763">
        <ele>316.63</ele>
        <time>2025-03-15T16:08:27.229Z</time>
      </trkpt>
      <trkpt lat="43.35109" lon="6.5277">
        <ele>315.91</ele>
        <time>2025-03-15T16:08:29.458Z</time>
      </trkpt>
      <trkpt lat="43.35111" lon="6.52776">
        <ele>315.18</ele>
        <time>2025-03-15T16:08:31.469Z</time>
      </trkpt>
      <trkpt lat="43.35113" lon="6.52782">
        <ele>314.44</ele>
        <time>2025-03-15T16:08:33.244Z</time>
      </trkpt>
      <trkpt lat="43.35118" lon="6.52792">
        <ele>313.68</ele>
        <time>2025-03-15T16:08:36.840Z</time>
      </trkpt>
      <trkpt lat="43.35121" lon="6.52797">
        <ele>312.91</ele>
        <time>2025-03-15T16:08:38.854Z</time>
      </trkpt>
      <trkpt lat="43.3513" lon="6.52816">
        <ele>312.1</ele>
        <time>2025-03-15T16:08:45.388Z</time>
      </trkpt>
      <trkpt lat="43.35136" lon="6.52829">
        <ele>311.27</ele>
        <time>2025-03-15T16:08:49.904Z</time>
      </trkpt>
      <trkpt lat="43.35141" lon="6.52836">
        <ele>310.44</ele>
        <time>2025-03-15T16:08:52.524Z</time>
      </trkpt>
      <trkpt lat="43.35146" lon="6.52842">
        <ele>309.59</ele>
        <time>2025-03-15T16:08:55.288Z</time>
      </trkpt>
      <trkpt lat="43.35151" lon="6.52849">
        <ele>308.74</ele>
        <time>2025-03-15T16:08:57.989Z</time>
      </trkpt>
      <trkpt lat="43.35155" lon="6.52854">
        <ele>307.89</ele>
        <time>2025-03-15T16:09:00.308Z</time>
      </trkpt>
      <trkpt lat="43.35159" lon="6.5286">
        <ele>307.04</ele>
        <time>2025-03-15T16:09:02.526Z</time>
      </trkpt>
      <trkpt lat="43.35163" lon="6.52865">
        <ele>306.19</ele>
        <time>2025-03-15T16:09:04.805Z</time>
      </trkpt>
      <trkpt lat="43.35167" lon="6.52871">
        <ele>305.34</ele>
        <time>2025-03-15T16:09:07.077Z</time>
      </trkpt>
      <trkpt lat="43.35171" lon="6.52876">
        <ele>304.49</ele>
        <time>2025-03-15T16:09:09.290Z</time>
      </trkpt>
      <trkpt lat="43.35174" lon="6.52883">
        <ele>303.65</ele>
        <time>2025-03-15T16:09:11.651Z</time>
      </trkpt>
      <trkpt lat="43.35178" lon="6.52888">
        <ele>302.81</ele>
        <time>2025-03-15T16:09:13.783Z</time>
      </trkpt>
      <trkpt lat="43.35181" lon="6.52894">
        <ele>301.98</ele>
        <time>2025-03-15T16:09:15.717Z</time>
      </trkpt>
      <trkpt lat="43.35183" lon="6.529">
        <ele>301.16</ele>
        <time>2025-03-15T16:09:17.803Z</time>
      </trkpt>
      <trkpt lat="43.35185" lon="6.52908">
        <ele>300.34</ele>
        <time>2025-03-15T16:09:20.304Z</time>
      </trkpt>
      <trkpt lat="43.35188" lon="6.52915">
        <ele>299.53</ele>
        <time>2025-03-15T16:09:22.629Z</time>
      </trkpt>
      <trkpt lat="43.35189" lon="6.52923">
        <ele>298.74</ele>
        <time>2025-03-15T16:09:24.955Z</time>
      </trkpt>
      <trkpt lat="43.35191" lon="6.52931">
        <ele>297.99</ele>
        <time>2025-03-15T16:09:27.322Z</time>
      </trkpt>
      <trkpt lat="43.35193" lon="6.52938">
        <ele>297.24</ele>
        <time>2025-03-15T16:09:29.453Z</time>
      </trkpt>
      <trkpt lat="43.35193" lon="6.52944">
        <ele>296.51</ele>
        <time>2025-03-15T16:09:31.384Z</time>
      </trkpt>
      <trkpt lat="43.35193" lon="6.52951">
        <ele>295.81</ele>
        <time>2025-03-15T16:09:33.251Z</time>
      </trkpt>
      <trkpt lat="43.35192" lon="6.52957">
        <ele>295.1</ele>
        <time>2025-03-15T16:09:35.206Z</time>
      </trkpt>
      <trkpt lat="43.35189" lon="6.52964">
        <ele>294.4</ele>
        <time>2025-03-15T16:09:37.392Z</time>
      </trkpt>
      <trkpt lat="43.35186" lon="6.52969">
        <ele>293.73</ele>
        <time>2025-03-15T16:09:39.426Z</time>
      </trkpt>
      <trkpt lat="43.35182" lon="6.52974">
        <ele>293.06</ele>
        <time>2025-03-15T16:09:41.512Z</time>
      </trkpt>
      <trkpt lat="43.35179" lon="6.52978">
        <ele>292.42</ele>
        <time>2025-03-15T16:09:43.451Z</time>
      </trkpt>
      <trkpt lat="43.35175" lon="6.52983">
        <ele>291.8</ele>
        <time>2025-03-15T16:09:45.396Z</time>
      </trkpt>
      <trkpt lat="43.3517" lon="6.52987">
        <ele>291.17</ele>
        <time>2025-03-15T16:09:47.507Z</time>
      </trkpt>
      <trkpt lat="43.35166" lon="6.52991">
        <ele>290.55</ele>
        <time>2025-03-15T16:09:49.770Z</time>
      </trkpt>
      <trkpt lat="43.35162" lon="6.52996">
        <ele>289.95</ele>
        <time>2025-03-15T16:09:51.996Z</time>
      </trkpt>
      <trkpt lat="43.35159" lon="6.53002">
        <ele>289.4</ele>
        <time>2025-03-15T16:09:54.012Z</time>
      </trkpt>
      <trkpt lat="43.35156" lon="6.53007">
        <ele>288.87</ele>
        <time>2025-03-15T16:09:55.875Z</time>
      </trkpt>
      <trkpt lat="43.35154" lon="6.53013">
        <ele>288.37</ele>
        <time>2025-03-15T16:09:57.675Z</time>
      </trkpt>
      <trkpt lat="43.35152" lon="6.53017">
        <ele>287.89</ele>
        <time>2025-03-15T16:09:59.152Z</time>
      </trkpt>
      <trkpt lat="43.3515" lon="6.53021">
        <ele>287.43</ele>
        <time>2025-03-15T16:10:00.553Z</time>
      </trkpt>
      <trkpt lat="43.35148" lon="6.53025">
        <ele>287</ele>
        <time>2025-03-15T16:10:01.884Z</time>
      </trkpt>
      <trkpt lat="43.35147" lon="6.53029">
        <ele>286.59</ele>
        <time>2025-03-15T16:10:03.159Z</time>
      </trkpt>
      <trkpt lat="43.35146" lon="6.53033">
        <ele>286.23</ele>
        <time>2025-03-15T16:10:04.338Z</time>
      </trkpt>
      <trkpt lat="43.35145" lon="6.53036">
        <ele>285.89</ele>
        <time>2025-03-15T16:10:05.335Z</time>
      </trkpt>
      <trkpt lat="43.35145" lon="6.53039">
        <ele>285.57</ele>
        <time>2025-03-15T16:10:06.301Z</time>
      </trkpt>
      <trkpt lat="43.35144" lon="6.53041">
        <ele>285.28</ele>
        <time>2025-03-15T16:10:07.122Z</time>
      </trkpt>
      <trkpt lat="43.35143" lon="6.53043">
        <ele>285.01</ele>
        <time>2025-03-15T16:10:07.800Z</time>
      </trkpt>
      <trkpt lat="43.35142" lon="6.53046">
        <ele>284.77</ele>
        <time>2025-03-15T16:10:08.517Z</time>
      </trkpt>
      <trkpt lat="43.35145" lon="6.53058">
        <ele>284.55</ele>
        <time>2025-03-15T16:10:12.468Z</time>
      </trkpt>
      <trkpt lat="43.35146" lon="6.53069">
        <ele>284.4</ele>
        <time>2025-03-15T16:10:16.079Z</time>
      </trkpt>
      <trkpt lat="43.35145" lon="6.53074">
        <ele>284.24</ele>
        <time>2025-03-15T16:10:17.360Z</time>
      </trkpt>
      <trkpt lat="43.35142" lon="6.53088">
        <ele>284.07</ele>
        <time>2025-03-15T16:10:21.980Z</time>
      </trkpt>
      <trkpt lat="43.3514" lon="6.53098">
        <ele>283.95</ele>
        <time>2025-03-15T16:10:25.548Z</time>
      </trkpt>
      <trkpt lat="43.35139" lon="6.53104">
        <ele>283.87</ele>
        <time>2025-03-15T16:10:27.383Z</time>
      </trkpt>
      <trkpt lat="43.35136" lon="6.53123">
        <ele>283.77</ele>
        <time>2025-03-15T16:10:33.604Z</time>
      </trkpt>
      <trkpt lat="43.35138" lon="6.53134">
        <ele>283.75</ele>
        <time>2025-03-15T16:10:37.326Z</time>
      </trkpt>
      <trkpt lat="43.35147" lon="6.53143">
        <ele>283.81</ele>
        <time>2025-03-15T16:10:42.741Z</time>
      </trkpt>
      <trkpt lat="43.35151" lon="6.53146">
        <ele>283.88</ele>
        <time>2025-03-15T16:10:44.841Z</time>
      </trkpt>
      <trkpt lat="43.35158" lon="6.53153">
        <ele>283.97</ele>
        <time>2025-03-15T16:10:48.776Z</time>
      </trkpt>
      <trkpt lat="43.35162" lon="6.53161">
        <ele>284.07</ele>
        <time>2025-03-15T16:10:52.400Z</time>
      </trkpt>
      <trkpt lat="43.35164" lon="6.53165">
        <ele>284.19</ele>
        <time>2025-03-15T16:10:53.963Z</time>
      </trkpt>
      <trkpt lat="43.35166" lon="6.53169">
        <ele>284.35</ele>
        <time>2025-03-15T16:10:55.983Z</time>
      </trkpt>
      <trkpt lat="43.35168" lon="6.53174">
        <ele>284.51</ele>
        <time>2025-03-15T16:10:58.020Z</time>
      </trkpt>
      <trkpt lat="43.35171" lon="6.53178">
        <ele>284.71</ele>
        <time>2025-03-15T16:11:00.111Z</time>
      </trkpt>
      <trkpt lat="43.35174" lon="6.53181">
        <ele>284.94</ele>
        <time>2025-03-15T16:11:02.279Z</time>
      </trkpt>
      <trkpt lat="43.35177" lon="6.53185">
        <ele>285.18</ele>
        <time>2025-03-15T16:11:04.518Z</time>
      </trkpt>
      <trkpt lat="43.35183" lon="6.53191">
        <ele>285.47</ele>
        <time>2025-03-15T16:11:08.641Z</time>
      </trkpt>
      <trkpt lat="43.35193" lon="6.53199">
        <ele>285.81</ele>
        <time>2025-03-15T16:11:14.267Z</time>
      </trkpt>
      <trkpt lat="43.35196" lon="6.53201">
        <ele>286.11</ele>
        <time>2025-03-15T16:11:16.218Z</time>
      </trkpt>
      <trkpt lat="43.35198" lon="6.53203">
        <ele>286.43</ele>
        <time>2025-03-15T16:11:18.196Z</time>
      </trkpt>
      <trkpt lat="43.35201" lon="6.53208">
        <ele>286.75</ele>
        <time>2025-03-15T16:11:20.550Z</time>
      </trkpt>
      <trkpt lat="43.35202" lon="6.53212">
        <ele>287.07</ele>
        <time>2025-03-15T16:11:22.670Z</time>
      </trkpt>
      <trkpt lat="43.35202" lon="6.53226">
        <ele>287.36</ele>
        <time>2025-03-15T16:11:27.647Z</time>
      </trkpt>
      <trkpt lat="43.35201" lon="6.5323">
        <ele>287.68</ele>
        <time>2025-03-15T16:11:29.641Z</time>
      </trkpt>
      <trkpt lat="43.352" lon="6.53234">
        <ele>288</ele>
        <time>2025-03-15T16:11:31.776Z</time>
      </trkpt>
      <trkpt lat="43.35199" lon="6.53239">
        <ele>288.33</ele>
        <time>2025-03-15T16:11:33.815Z</time>
      </trkpt>
      <trkpt lat="43.35199" lon="6.53243">
        <ele>288.69</ele>
        <time>2025-03-15T16:11:36.001Z</time>
      </trkpt>
      <trkpt lat="43.352" lon="6.53248">
        <ele>289.07</ele>
        <time>2025-03-15T16:11:38.272Z</time>
      </trkpt>
      <trkpt lat="43.35201" lon="6.53268">
        <ele>289.44</ele>
        <time>2025-03-15T16:11:45.627Z</time>
      </trkpt>
      <trkpt lat="43.352" lon="6.53273">
        <ele>289.82</ele>
        <time>2025-03-15T16:11:48.027Z</time>
      </trkpt>
      <trkpt lat="43.352" lon="6.53279">
        <ele>290.2</ele>
        <time>2025-03-15T16:11:50.420Z</time>
      </trkpt>
      <trkpt lat="43.352" lon="6.53283">
        <ele>290.59</ele>
        <time>2025-03-15T16:11:52.745Z</time>
      </trkpt>
      <trkpt lat="43.352" lon="6.53288">
        <ele>290.99</ele>
        <time>2025-03-15T16:11:54.897Z</time>
      </trkpt>
      <trkpt lat="43.35199" lon="6.53297">
        <ele>291.39</ele>
        <time>2025-03-15T16:11:58.697Z</time>
      </trkpt>
      <trkpt lat="43.35198" lon="6.53301">
        <ele>291.81</ele>
        <time>2025-03-15T16:12:00.908Z</time>
      </trkpt>
      <trkpt lat="43.35198" lon="6.53305">
        <ele>292.24</ele>
        <time>2025-03-15T16:12:03.066Z</time>
      </trkpt>
      <trkpt lat="43.35198" lon="6.53309">
        <ele>292.67</ele>
        <time>2025-03-15T16:12:05.296Z</time>
      </trkpt>
      <trkpt lat="43.35198" lon="6.53315">
        <ele>293.1</ele>
        <time>2025-03-15T16:12:07.863Z</time>
      </trkpt>
      <trkpt lat="43.35198" lon="6.5332">
        <ele>293.55</ele>
        <time>2025-03-15T16:12:10.495Z</time>
      </trkpt>
      <trkpt lat="43.35199" lon="6.53326">
        <ele>294.01</ele>
        <time>2025-03-15T16:12:13.355Z</time>
      </trkpt>
      <trkpt lat="43.35205" lon="6.53344">
        <ele>294.49</ele>
        <time>2025-03-15T16:12:20.669Z</time>
      </trkpt>
      <trkpt lat="43.3521" lon="6.53349">
        <ele>294.99</ele>
        <time>2025-03-15T16:12:24.272Z</time>
      </trkpt>
      <trkpt lat="43.35218" lon="6.53353">
        <ele>295.53</ele>
        <time>2025-03-15T16:12:29.232Z</time>
      </trkpt>
      <trkpt lat="43.35221" lon="6.53354">
        <ele>296.02</ele>
        <time>2025-03-15T16:12:31.705Z</time>
      </trkpt>
      <trkpt lat="43.35224" lon="6.53355">
        <ele>296.51</ele>
        <time>2025-03-15T16:12:34.123Z</time>
      </trkpt>
      <trkpt lat="43.35227" lon="6.53357">
        <ele>297</ele>
        <time>2025-03-15T16:12:36.564Z</time>
      </trkpt>
      <trkpt lat="43.3523" lon="6.53358">
        <ele>297.49</ele>
        <time>2025-03-15T16:12:39.013Z</time>
      </trkpt>
      <trkpt lat="43.35245" lon="6.53366">
        <ele>298.02</ele>
        <time>2025-03-15T16:12:47.327Z</time>
      </trkpt>
      <trkpt lat="43.35257" lon="6.53376">
        <ele>298.49</ele>
        <time>2025-03-15T16:12:54.381Z</time>
      </trkpt>
      <trkpt lat="43.3526" lon="6.53378">
        <ele>298.95</ele>
        <time>2025-03-15T16:12:56.859Z</time>
      </trkpt>
      <trkpt lat="43.35264" lon="6.53379">
        <ele>299.4</ele>
        <time>2025-03-15T16:12:59.182Z</time>
      </trkpt>
      <trkpt lat="43.35267" lon="6.53381">
        <ele>299.83</ele>
        <time>2025-03-15T16:13:01.505Z</time>
      </trkpt>
      <trkpt lat="43.3527" lon="6.53382">
        <ele>300.26</ele>
        <time>2025-03-15T16:13:03.792Z</time>
      </trkpt>
      <trkpt lat="43.35279" lon="6.53385">
        <ele>300.7</ele>
        <time>2025-03-15T16:13:08.671Z</time>
      </trkpt>
      <trkpt lat="43.35281" lon="6.53386">
        <ele>301.09</ele>
        <time>2025-03-15T16:13:10.624Z</time>
      </trkpt>
      <trkpt lat="43.35283" lon="6.53388">
        <ele>301.47</ele>
        <time>2025-03-15T16:13:12.643Z</time>
      </trkpt>
      <trkpt lat="43.35286" lon="6.5339">
        <ele>301.82</ele>
        <time>2025-03-15T16:13:14.590Z</time>
      </trkpt>
      <trkpt lat="43.35288" lon="6.53392">
        <ele>302.14</ele>
        <time>2025-03-15T16:13:16.462Z</time>
      </trkpt>
      <trkpt lat="43.353" lon="6.53404">
        <ele>302.47</ele>
        <time>2025-03-15T16:13:23.639Z</time>
      </trkpt>
      <trkpt lat="43.3531" lon="6.53415">
        <ele>302.76</ele>
        <time>2025-03-15T16:13:30.047Z</time>
      </trkpt>
      <trkpt lat="43.35319" lon="6.53425">
        <ele>303.02</ele>
        <time>2025-03-15T16:13:35.558Z</time>
      </trkpt>
      <trkpt lat="43.35336" lon="6.53448">
        <ele>303.27</ele>
        <time>2025-03-15T16:13:46.854Z</time>
      </trkpt>
      <trkpt lat="43.35342" lon="6.53454">
        <ele>303.46</ele>
        <time>2025-03-15T16:13:50.525Z</time>
      </trkpt>
      <trkpt lat="43.35345" lon="6.53457">
        <ele>303.62</ele>
        <time>2025-03-15T16:13:52.312Z</time>
      </trkpt>
      <trkpt lat="43.35347" lon="6.53459">
        <ele>303.74</ele>
        <time>2025-03-15T16:13:53.974Z</time>
      </trkpt>
      <trkpt lat="43.3535" lon="6.53462">
        <ele>303.82</ele>
        <time>2025-03-15T16:13:55.490Z</time>
      </trkpt>
      <trkpt lat="43.35352" lon="6.53465">
        <ele>303.87</ele>
        <time>2025-03-15T16:13:56.883Z</time>
      </trkpt>
      <trkpt lat="43.35357" lon="6.53471">
        <ele>303.89</ele>
        <time>2025-03-15T16:14:00.011Z</time>
      </trkpt>
      <trkpt lat="43.35366" lon="6.53487">
        <ele>303.84</ele>
        <time>2025-03-15T16:14:06.527Z</time>
      </trkpt>
      <trkpt lat="43.35368" lon="6.53491">
        <ele>303.77</ele>
        <time>2025-03-15T16:14:08.126Z</time>
      </trkpt>
      <trkpt lat="43.3537" lon="6.53495">
        <ele>303.67</ele>
        <time>2025-03-15T16:14:09.486Z</time>
      </trkpt>
      <trkpt lat="43.35371" lon="6.53498">
        <ele>303.53</ele>
        <time>2025-03-15T16:14:10.740Z</time>
      </trkpt>
      <trkpt lat="43.35373" lon="6.53501">
        <ele>303.36</ele>
        <time>2025-03-15T16:14:11.827Z</time>
      </trkpt>
      <trkpt lat="43.35379" lon="6.53508">
        <ele>303.17</ele>
        <time>2025-03-15T16:14:15.146Z</time>
      </trkpt>
      <trkpt lat="43.35381" lon="6.53509">
        <ele>302.94</ele>
        <time>2025-03-15T16:14:16.143Z</time>
      </trkpt>
      <trkpt lat="43.35384" lon="6.5351">
        <ele>302.68</ele>
        <time>2025-03-15T16:14:17.136Z</time>
      </trkpt>
      <trkpt lat="43.35386" lon="6.53509">
        <ele>302.38</ele>
        <time>2025-03-15T16:14:18.027Z</time>
      </trkpt>
      <trkpt lat="43.35388" lon="6.53509">
        <ele>302.04</ele>
        <time>2025-03-15T16:14:18.940Z</time>
      </trkpt>
      <trkpt lat="43.35391" lon="6.53508">
        <ele>301.67</ele>
        <time>2025-03-15T16:14:19.988Z</time>
      </trkpt>
      <trkpt lat="43.35409" lon="6.53496">
        <ele>301.22</ele>
        <time>2025-03-15T16:14:28.687Z</time>
      </trkpt>
      <trkpt lat="43.35415" lon="6.53493">
        <ele>300.79</ele>
        <time>2025-03-15T16:14:31.121Z</time>
      </trkpt>
      <trkpt lat="43.3542" lon="6.53489">
        <ele>300.33</ele>
        <time>2025-03-15T16:14:33.318Z</time>
      </trkpt>
      <trkpt lat="43.35424" lon="6.53485">
        <ele>299.85</ele>
        <time>2025-03-15T16:14:35.444Z</time>
      </trkpt>
      <trkpt lat="43.35428" lon="6.53483">
        <ele>299.36</ele>
        <time>2025-03-15T16:14:37.346Z</time>
      </trkpt>
      <trkpt lat="43.35433" lon="6.53481">
        <ele>298.85</ele>
        <time>2025-03-15T16:14:39.221Z</time>
      </trkpt>
      <trkpt lat="43.35438" lon="6.53479">
        <ele>298.32</ele>
        <time>2025-03-15T16:14:41.285Z</time>
      </trkpt>
      <trkpt lat="43.35443" lon="6.53477">
        <ele>297.77</ele>
        <time>2025-03-15T16:14:43.327Z</time>
      </trkpt>
      <trkpt lat="43.35448" lon="6.53476">
        <ele>297.2</ele>
        <time>2025-03-15T16:14:45.472Z</time>
      </trkpt>
      <trkpt lat="43.35454" lon="6.53476">
        <ele>296.63</ele>
        <time>2025-03-15T16:14:47.863Z</time>
      </trkpt>
      <trkpt lat="43.35459" lon="6.53472">
        <ele>296.06</ele>
        <time>2025-03-15T16:14:50.205Z</time>
      </trkpt>
      <trkpt lat="43.35464" lon="6.53468">
        <ele>295.51</ele>
        <time>2025-03-15T16:14:52.461Z</time>
      </trkpt>
      <trkpt lat="43.35468" lon="6.53462">
        <ele>294.96</ele>
        <time>2025-03-15T16:14:54.864Z</time>
      </trkpt>
      <trkpt lat="43.35472" lon="6.53456">
        <ele>294.42</ele>
        <time>2025-03-15T16:14:57.142Z</time>
      </trkpt>
      <trkpt lat="43.35475" lon="6.53449">
        <ele>293.88</ele>
        <time>2025-03-15T16:14:59.564Z</time>
      </trkpt>
      <trkpt lat="43.35478" lon="6.53441">
        <ele>293.37</ele>
        <time>2025-03-15T16:15:02.055Z</time>
      </trkpt>
      <trkpt lat="43.35481" lon="6.53432">
        <ele>292.89</ele>
        <time>2025-03-15T16:15:04.977Z</time>
      </trkpt>
      <trkpt lat="43.35483" lon="6.53423">
        <ele>292.4</ele>
        <time>2025-03-15T16:15:07.630Z</time>
      </trkpt>
      <trkpt lat="43.35486" lon="6.53415">
        <ele>291.92</ele>
        <time>2025-03-15T16:15:10.399Z</time>
      </trkpt>
      <trkpt lat="43.35489" lon="6.53405">
        <ele>291.47</ele>
        <time>2025-03-15T16:15:13.428Z</time>
      </trkpt>
      <trkpt lat="43.35494" lon="6.53387">
        <ele>291.01</ele>
        <time>2025-03-15T16:15:19.420Z</time>
      </trkpt>
      <trkpt lat="43.35498" lon="6.53378">
        <ele>290.58</ele>
        <time>2025-03-15T16:15:22.296Z</time>
      </trkpt>
      <trkpt lat="43.35501" lon="6.53368">
        <ele>290.19</ele>
        <time>2025-03-15T16:15:25.390Z</time>
      </trkpt>
      <trkpt lat="43.35505" lon="6.53359">
        <ele>289.78</ele>
        <time>2025-03-15T16:15:28.451Z</time>
      </trkpt>
      <trkpt lat="43.35509" lon="6.5335">
        <ele>289.4</ele>
        <time>2025-03-15T16:15:31.514Z</time>
      </trkpt>
      <trkpt lat="43.35512" lon="6.53341">
        <ele>289.08</ele>
        <time>2025-03-15T16:15:34.485Z</time>
      </trkpt>
      <trkpt lat="43.35515" lon="6.53332">
        <ele>288.79</ele>
        <time>2025-03-15T16:15:37.502Z</time>
      </trkpt>
      <trkpt lat="43.35518" lon="6.53322">
        <ele>288.53</ele>
        <time>2025-03-15T16:15:40.627Z</time>
      </trkpt>
      <trkpt lat="43.35518" lon="6.53313">
        <ele>288.34</ele>
        <time>2025-03-15T16:15:43.341Z</time>
      </trkpt>
      <trkpt lat="43.3552" lon="6.53305">
        <ele>288.12</ele>
        <time>2025-03-15T16:15:45.747Z</time>
      </trkpt>
      <trkpt lat="43.35524" lon="6.53299">
        <ele>287.9</ele>
        <time>2025-03-15T16:15:48.035Z</time>
      </trkpt>
      <trkpt lat="43.35527" lon="6.53294">
        <ele>287.68</ele>
        <time>2025-03-15T16:15:50.065Z</time>
      </trkpt>
      <trkpt lat="43.35531" lon="6.53291">
        <ele>287.46</ele>
        <time>2025-03-15T16:15:52.020Z</time>
      </trkpt>
      <trkpt lat="43.35535" lon="6.53287">
        <ele>287.26</ele>
        <time>2025-03-15T16:15:53.868Z</time>
      </trkpt>
      <trkpt lat="43.35539" lon="6.53284">
        <ele>287.09</ele>
        <time>2025-03-15T16:15:55.648Z</time>
      </trkpt>
      <trkpt lat="43.35547" lon="6.53278">
        <ele>286.91</ele>
        <time>2025-03-15T16:15:59.382Z</time>
      </trkpt>
      <trkpt lat="43.35563" lon="6.53263">
        <ele>286.79</ele>
        <time>2025-03-15T16:16:08.347Z</time>
      </trkpt>
      <trkpt lat="43.35572" lon="6.53256">
        <ele>286.66</ele>
        <time>2025-03-15T16:16:12.778Z</time>
      </trkpt>
      <trkpt lat="43.35577" lon="6.53254">
        <ele>286.5</ele>
        <time>2025-03-15T16:16:14.928Z</time>
      </trkpt>
      <trkpt lat="43.35582" lon="6.53254">
        <ele>286.34</ele>
        <time>2025-03-15T16:16:16.860Z</time>
      </trkpt>
      <trkpt lat="43.35586" lon="6.53256">
        <ele>286.17</ele>
        <time>2025-03-15T16:16:18.659Z</time>
      </trkpt>
      <trkpt lat="43.35589" lon="6.5326">
        <ele>285.99</ele>
        <time>2025-03-15T16:16:20.381Z</time>
      </trkpt>
      <trkpt lat="43.35594" lon="6.53269">
        <ele>285.76</ele>
        <time>2025-03-15T16:16:24.013Z</time>
      </trkpt>
      <trkpt lat="43.35596" lon="6.53274">
        <ele>285.54</ele>
        <time>2025-03-15T16:16:25.761Z</time>
      </trkpt>
      <trkpt lat="43.35602" lon="6.53284">
        <ele>285.31</ele>
        <time>2025-03-15T16:16:29.465Z</time>
      </trkpt>
      <trkpt lat="43.35605" lon="6.53289">
        <ele>285.08</ele>
        <time>2025-03-15T16:16:31.355Z</time>
      </trkpt>
      <trkpt lat="43.35614" lon="6.53303">
        <ele>284.87</ele>
        <time>2025-03-15T16:16:37.520Z</time>
      </trkpt>
      <trkpt lat="43.35617" lon="6.53307">
        <ele>284.63</ele>
        <time>2025-03-15T16:16:39.309Z</time>
      </trkpt>
      <trkpt lat="43.35632" lon="6.53321">
        <ele>284.42</ele>
        <time>2025-03-15T16:16:47.154Z</time>
      </trkpt>
      <trkpt lat="43.35635" lon="6.53327">
        <ele>284.13</ele>
        <time>2025-03-15T16:16:49.125Z</time>
      </trkpt>
      <trkpt lat="43.35642" lon="6.53344">
        <ele>283.78</ele>
        <time>2025-03-15T16:16:55.060Z</time>
      </trkpt>
      <trkpt lat="43.35645" lon="6.53355">
        <ele>283.38</ele>
        <time>2025-03-15T16:16:58.472Z</time>
      </trkpt>
      <trkpt lat="43.35646" lon="6.53361">
        <ele>282.97</ele>
        <time>2025-03-15T16:17:00.367Z</time>
      </trkpt>
      <trkpt lat="43.35656" lon="6.53381">
        <ele>282.52</ele>
        <time>2025-03-15T16:17:07.670Z</time>
      </trkpt>
      <trkpt lat="43.35663" lon="6.53394">
        <ele>282.05</ele>
        <time>2025-03-15T16:17:12.462Z</time>
      </trkpt>
      <trkpt lat="43.35674" lon="6.53411">
        <ele>281.61</ele>
        <time>2025-03-15T16:17:19.725Z</time>
      </trkpt>
      <trkpt lat="43.35684" lon="6.53426">
        <ele>281.11</ele>
        <time>2025-03-15T16:17:25.879Z</time>
      </trkpt>
      <trkpt lat="43.35688" lon="6.53433">
        <ele>280.52</ele>
        <time>2025-03-15T16:17:28.304Z</time>
      </trkpt>
      <trkpt lat="43.35691" lon="6.5344">
        <ele>279.89</ele>
        <time>2025-03-15T16:17:30.642Z</time>
      </trkpt>
      <trkpt lat="43.35694" lon="6.53447">
        <ele>279.19</ele>
        <time>2025-03-15T16:17:33.118Z</time>
      </trkpt>
      <trkpt lat="43.35695" lon="6.53456">
        <ele>278.44</ele>
        <time>2025-03-15T16:17:35.628Z</time>
      </trkpt>
      <trkpt lat="43.35696" lon="6.53464">
        <ele>277.65</ele>
        <time>2025-03-15T16:17:37.951Z</time>
      </trkpt>
      <trkpt lat="43.35696" lon="6.53472">
        <ele>276.81</ele>
        <time>2025-03-15T16:17:40.231Z</time>
      </trkpt>
      <trkpt lat="43.35697" lon="6.53479">
        <ele>275.93</ele>
        <time>2025-03-15T16:17:42.398Z</time>
      </trkpt>
      <trkpt lat="43.35698" lon="6.53486">
        <ele>275.02</ele>
        <time>2025-03-15T16:17:44.599Z</time>
      </trkpt>
      <trkpt lat="43.357" lon="6.53494">
        <ele>274.08</ele>
        <time>2025-03-15T16:17:46.877Z</time>
      </trkpt>
      <trkpt lat="43.35701" lon="6.535">
        <ele>273.11</ele>
        <time>2025-03-15T16:17:48.790Z</time>
      </trkpt>
      <trkpt lat="43.35702" lon="6.53507">
        <ele>272.11</ele>
        <time>2025-03-15T16:17:50.748Z</time>
      </trkpt>
      <trkpt lat="43.35702" lon="6.53513">
        <ele>271.08</ele>
        <time>2025-03-15T16:17:52.515Z</time>
      </trkpt>
      <trkpt lat="43.35702" lon="6.53519">
        <ele>270.03</ele>
        <time>2025-03-15T16:17:54.305Z</time>
      </trkpt>
      <trkpt lat="43.35701" lon="6.53524">
        <ele>268.97</ele>
        <time>2025-03-15T16:17:55.777Z</time>
      </trkpt>
      <trkpt lat="43.357" lon="6.5353">
        <ele>267.87</ele>
        <time>2025-03-15T16:17:57.572Z</time>
      </trkpt>
      <trkpt lat="43.357" lon="6.53535">
        <ele>266.75</ele>
        <time>2025-03-15T16:17:59.029Z</time>
      </trkpt>
      <trkpt lat="43.35699" lon="6.53539">
        <ele>265.64</ele>
        <time>2025-03-15T16:18:00.116Z</time>
      </trkpt>
      <trkpt lat="43.357" lon="6.53542">
        <ele>264.52</ele>
        <time>2025-03-15T16:18:01.205Z</time>
      </trkpt>
      <trkpt lat="43.357" lon="6.53547">
        <ele>263.39</ele>
        <time>2025-03-15T16:18:02.638Z</time>
      </trkpt>
      <trkpt lat="43.35701" lon="6.53553">
        <ele>262.24</ele>
        <time>2025-03-15T16:18:04.217Z</time>
      </trkpt>
      <trkpt lat="43.35701" lon="6.53558">
        <ele>261.08</ele>
        <time>2025-03-15T16:18:05.619Z</time>
      </trkpt>
      <trkpt lat="43.35702" lon="6.53562">
        <ele>259.93</ele>
        <time>2025-03-15T16:18:07.038Z</time>
      </trkpt>
      <trkpt lat="43.35702" lon="6.53568">
        <ele>258.76</ele>
        <time>2025-03-15T16:18:08.717Z</time>
      </trkpt>
      <trkpt lat="43.35703" lon="6.53574">
        <ele>257.59</ele>
        <time>2025-03-15T16:18:10.515Z</time>
      </trkpt>
      <trkpt lat="43.35704" lon="6.5358">
        <ele>256.42</ele>
        <time>2025-03-15T16:18:12.274Z</time>
      </trkpt>
      <trkpt lat="43.35707" lon="6.53586">
        <ele>255.26</ele>
        <time>2025-03-15T16:18:14.455Z</time>
      </trkpt>
      <trkpt lat="43.3571" lon="6.53593">
        <ele>254.11</ele>
        <time>2025-03-15T16:18:16.610Z</time>
      </trkpt>
      <trkpt lat="43.35714" lon="6.53597">
        <ele>252.99</ele>
        <time>2025-03-15T16:18:18.627Z</time>
      </trkpt>
      <trkpt lat="43.35718" lon="6.53602">
        <ele>251.87</ele>
        <time>2025-03-15T16:18:20.803Z</time>
      </trkpt>
      <trkpt lat="43.35723" lon="6.53606">
        <ele>250.76</ele>
        <time>2025-03-15T16:18:23.018Z</time>
      </trkpt>
      <trkpt lat="43.35728" lon="6.53609">
        <ele>249.65</ele>
        <time>2025-03-15T16:18:25.273Z</time>
      </trkpt>
      <trkpt lat="43.35733" lon="6.53613">
        <ele>248.56</ele>
        <time>2025-03-15T16:18:27.561Z</time>
      </trkpt>
      <trkpt lat="43.35738" lon="6.53617">
        <ele>247.47</ele>
        <time>2025-03-15T16:18:29.877Z</time>
      </trkpt>
      <trkpt lat="43.35742" lon="6.53619">
        <ele>246.4</ele>
        <time>2025-03-15T16:18:31.824Z</time>
      </trkpt>
      <trkpt lat="43.35747" lon="6.53624">
        <ele>245.32</ele>
        <time>2025-03-15T16:18:34.100Z</time>
      </trkpt>
      <trkpt lat="43.35752" lon="6.53629">
        <ele>244.24</ele>
        <time>2025-03-15T16:18:36.629Z</time>
      </trkpt>
      <trkpt lat="43.35758" lon="6.53634">
        <ele>243.16</ele>
        <time>2025-03-15T16:18:39.293Z</time>
      </trkpt>
      <trkpt lat="43.35763" lon="6.5364">
        <ele>242.09</ele>
        <time>2025-03-15T16:18:42.044Z</time>
      </trkpt>
      <trkpt lat="43.35769" lon="6.53643">
        <ele>241.04</ele>
        <time>2025-03-15T16:18:44.548Z</time>
      </trkpt>
      <trkpt lat="43.35774" lon="6.53647">
        <ele>240.01</ele>
        <time>2025-03-15T16:18:46.890Z</time>
      </trkpt>
      <trkpt lat="43.35779" lon="6.53651">
        <ele>238.98</ele>
        <time>2025-03-15T16:18:49.179Z</time>
      </trkpt>
      <trkpt lat="43.35784" lon="6.53654">
        <ele>237.97</ele>
        <time>2025-03-15T16:18:51.234Z</time>
      </trkpt>
      <trkpt lat="43.35788" lon="6.53656">
        <ele>236.97</ele>
        <time>2025-03-15T16:18:52.892Z</time>
      </trkpt>
      <trkpt lat="43.35792" lon="6.53658">
        <ele>235.98</ele>
        <time>2025-03-15T16:18:54.662Z</time>
      </trkpt>
      <trkpt lat="43.35796" lon="6.53661">
        <ele>235</ele>
        <time>2025-03-15T16:18:56.453Z</time>
      </trkpt>
      <trkpt lat="43.35803" lon="6.53668">
        <ele>233.99</ele>
        <time>2025-03-15T16:18:59.917Z</time>
      </trkpt>
      <trkpt lat="43.35806" lon="6.53673">
        <ele>233.01</ele>
        <time>2025-03-15T16:19:02.037Z</time>
      </trkpt>
      <trkpt lat="43.35811" lon="6.53678">
        <ele>232.03</ele>
        <time>2025-03-15T16:19:04.251Z</time>
      </trkpt>
      <trkpt lat="43.35814" lon="6.53683">
        <ele>231.07</ele>
        <time>2025-03-15T16:19:06.362Z</time>
      </trkpt>
      <trkpt lat="43.35818" lon="6.53688">
        <ele>230.12</ele>
        <time>2025-03-15T16:19:08.232Z</time>
      </trkpt>
      <trkpt lat="43.35822" lon="6.53692">
        <ele>229.17</ele>
        <time>2025-03-15T16:19:10.223Z</time>
      </trkpt>
      <trkpt lat="43.35826" lon="6.53698">
        <ele>228.22</ele>
        <time>2025-03-15T16:19:12.630Z</time>
      </trkpt>
      <trkpt lat="43.3583" lon="6.53703">
        <ele>227.29</ele>
        <time>2025-03-15T16:19:14.928Z</time>
      </trkpt>
      <trkpt lat="43.35835" lon="6.53709">
        <ele>226.34</ele>
        <time>2025-03-15T16:19:17.448Z</time>
      </trkpt>
      <trkpt lat="43.35839" lon="6.53714">
        <ele>225.42</ele>
        <time>2025-03-15T16:19:19.545Z</time>
      </trkpt>
      <trkpt lat="43.35843" lon="6.53719">
        <ele>224.51</ele>
        <time>2025-03-15T16:19:21.814Z</time>
      </trkpt>
      <trkpt lat="43.35847" lon="6.53724">
        <ele>223.61</ele>
        <time>2025-03-15T16:19:24.074Z</time>
      </trkpt>
      <trkpt lat="43.35851" lon="6.53731">
        <ele>222.71</ele>
        <time>2025-03-15T16:19:26.591Z</time>
      </trkpt>
      <trkpt lat="43.35854" lon="6.53738">
        <ele>221.83</ele>
        <time>2025-03-15T16:19:28.885Z</time>
      </trkpt>
      <trkpt lat="43.35856" lon="6.53743">
        <ele>220.98</ele>
        <time>2025-03-15T16:19:30.671Z</time>
      </trkpt>
      <trkpt lat="43.35859" lon="6.53748">
        <ele>220.15</ele>
        <time>2025-03-15T16:19:32.463Z</time>
      </trkpt>
      <trkpt lat="43.35863" lon="6.53753">
        <ele>219.33</ele>
        <time>2025-03-15T16:19:34.564Z</time>
      </trkpt>
      <trkpt lat="43.35867" lon="6.53756">
        <ele>218.55</ele>
        <time>2025-03-15T16:19:36.356Z</time>
      </trkpt>
      <trkpt lat="43.35871" lon="6.53758">
        <ele>217.79</ele>
        <time>2025-03-15T16:19:38.184Z</time>
      </trkpt>
      <trkpt lat="43.35875" lon="6.5376">
        <ele>217.05</ele>
        <time>2025-03-15T16:19:39.996Z</time>
      </trkpt>
      <trkpt lat="43.3588" lon="6.53762">
        <ele>216.33</ele>
        <time>2025-03-15T16:19:41.956Z</time>
      </trkpt>
      <trkpt lat="43.35885" lon="6.53765">
        <ele>215.62</ele>
        <time>2025-03-15T16:19:44.043Z</time>
      </trkpt>
      <trkpt lat="43.35889" lon="6.5377">
        <ele>214.93</ele>
        <time>2025-03-15T16:19:46.124Z</time>
      </trkpt>
      <trkpt lat="43.35893" lon="6.53773">
        <ele>214.26</ele>
        <time>2025-03-15T16:19:48.130Z</time>
      </trkpt>
      <trkpt lat="43.35898" lon="6.53776">
        <ele>213.62</ele>
        <time>2025-03-15T16:19:50.148Z</time>
      </trkpt>
      <trkpt lat="43.35903" lon="6.53779">
        <ele>212.99</ele>
        <time>2025-03-15T16:19:52.322Z</time>
      </trkpt>
      <trkpt lat="43.35908" lon="6.53782">
        <ele>212.39</ele>
        <time>2025-03-15T16:19:54.475Z</time>
      </trkpt>
      <trkpt lat="43.35913" lon="6.53786">
        <ele>211.79</ele>
        <time>2025-03-15T16:19:56.900Z</time>
      </trkpt>
      <trkpt lat="43.35918" lon="6.53791">
        <ele>211.21</ele>
        <time>2025-03-15T16:19:59.302Z</time>
      </trkpt>
      <trkpt lat="43.35921" lon="6.53795">
        <ele>210.64</ele>
        <time>2025-03-15T16:20:01.147Z</time>
      </trkpt>
      <trkpt lat="43.35926" lon="6.53798">
        <ele>210.11</ele>
        <time>2025-03-15T16:20:03.043Z</time>
      </trkpt>
      <trkpt lat="43.3593" lon="6.538">
        <ele>209.6</ele>
        <time>2025-03-15T16:20:04.866Z</time>
      </trkpt>
      <trkpt lat="43.35934" lon="6.53802">
        <ele>209.11</ele>
        <time>2025-03-15T16:20:06.633Z</time>
      </trkpt>
      <trkpt lat="43.35939" lon="6.53805">
        <ele>208.63</ele>
        <time>2025-03-15T16:20:08.658Z</time>
      </trkpt>
      <trkpt lat="43.35943" lon="6.53808">
        <ele>208.17</ele>
        <time>2025-03-15T16:20:10.751Z</time>
      </trkpt>
      <trkpt lat="43.35949" lon="6.53813">
        <ele>207.72</ele>
        <time>2025-03-15T16:20:13.257Z</time>
      </trkpt>
      <trkpt lat="43.35954" lon="6.53817">
        <ele>207.29</ele>
        <time>2025-03-15T16:20:15.888Z</time>
      </trkpt>
      <trkpt lat="43.3596" lon="6.53821">
        <ele>206.88</ele>
        <time>2025-03-15T16:20:18.367Z</time>
      </trkpt>
      <trkpt lat="43.35965" lon="6.53822">
        <ele>206.51</ele>
        <time>2025-03-15T16:20:20.428Z</time>
      </trkpt>
      <trkpt lat="43.3597" lon="6.53822">
        <ele>206.18</ele>
        <time>2025-03-15T16:20:22.391Z</time>
      </trkpt>
      <trkpt lat="43.35974" lon="6.53822">
        <ele>205.86</ele>
        <time>2025-03-15T16:20:24.227Z</time>
      </trkpt>
      <trkpt lat="43.35978" lon="6.53824">
        <ele>205.55</ele>
        <time>2025-03-15T16:20:26.015Z</time>
      </trkpt>
      <trkpt lat="43.35982" lon="6.53828">
        <ele>205.27</ele>
        <time>2025-03-15T16:20:27.928Z</time>
      </trkpt>
      <trkpt lat="43.35987" lon="6.53831">
        <ele>205.01</ele>
        <time>2025-03-15T16:20:29.921Z</time>
      </trkpt>
      <trkpt lat="43.35997" lon="6.53834">
        <ele>204.77</ele>
        <time>2025-03-15T16:20:34.282Z</time>
      </trkpt>
      <trkpt lat="43.36002" lon="6.53837">
        <ele>204.56</ele>
        <time>2025-03-15T16:20:36.364Z</time>
      </trkpt>
      <trkpt lat="43.36005" lon="6.53841">
        <ele>204.38</ele>
        <time>2025-03-15T16:20:38.204Z</time>
      </trkpt>
      <trkpt lat="43.36007" lon="6.53845">
        <ele>204.23</ele>
        <time>2025-03-15T16:20:39.558Z</time>
      </trkpt>
      <trkpt lat="43.36007" lon="6.53849">
        <ele>204.1</ele>
        <time>2025-03-15T16:20:40.921Z</time>
      </trkpt>
      <trkpt lat="43.36006" lon="6.53853">
        <ele>204.01</ele>
        <time>2025-03-15T16:20:42.164Z</time>
      </trkpt>
      <trkpt lat="43.36004" lon="6.53855">
        <ele>203.96</ele>
        <time>2025-03-15T16:20:43.289Z</time>
      </trkpt>
      <trkpt lat="43.36001" lon="6.53854">
        <ele>203.93</ele>
        <time>2025-03-15T16:20:44.529Z</time>
      </trkpt>
      <trkpt lat="43.35998" lon="6.53853">
        <ele>203.94</ele>
        <time>2025-03-15T16:20:45.880Z</time>
      </trkpt>
      <trkpt lat="43.35996" lon="6.5385">
        <ele>203.97</ele>
        <time>2025-03-15T16:20:47.404Z</time>
      </trkpt>
      <trkpt lat="43.35993" lon="6.53848">
        <ele>204.03</ele>
        <time>2025-03-15T16:20:49.064Z</time>
      </trkpt>
      <trkpt lat="43.3598" lon="6.53844">
        <ele>204.13</ele>
        <time>2025-03-15T16:20:55.005Z</time>
      </trkpt>
      <trkpt lat="43.35977" lon="6.53846">
        <ele>204.22</ele>
        <time>2025-03-15T16:20:56.517Z</time>
      </trkpt>
      <trkpt lat="43.35971" lon="6.53855">
        <ele>204.34</ele>
        <time>2025-03-15T16:21:00.973Z</time>
      </trkpt>
      <trkpt lat="43.35969" lon="6.53858">
        <ele>204.48</ele>
        <time>2025-03-15T16:21:02.509Z</time>
      </trkpt>
      <trkpt lat="43.35961" lon="6.53865">
        <ele>204.65</ele>
        <time>2025-03-15T16:21:06.960Z</time>
      </trkpt>
      <trkpt lat="43.35959" lon="6.53866">
        <ele>204.84</ele>
        <time>2025-03-15T16:21:08.479Z</time>
      </trkpt>
      <trkpt lat="43.35953" lon="6.53866">
        <ele>205.05</ele>
        <time>2025-03-15T16:21:11.359Z</time>
      </trkpt>
      <trkpt lat="43.35948" lon="6.53866">
        <ele>205.27</ele>
        <time>2025-03-15T16:21:14.142Z</time>
      </trkpt>
      <trkpt lat="43.35945" lon="6.53867">
        <ele>205.52</ele>
        <time>2025-03-15T16:21:15.804Z</time>
      </trkpt>
      <trkpt lat="43.35938" lon="6.53865">
        <ele>205.79</ele>
        <time>2025-03-15T16:21:19.424Z</time>
      </trkpt>
      <trkpt lat="43.35934" lon="6.53864">
        <ele>206.06</ele>
        <time>2025-03-15T16:21:21.962Z</time>
      </trkpt>
      <trkpt lat="43.35931" lon="6.53864">
        <ele>206.36</ele>
        <time>2025-03-15T16:21:23.810Z</time>
      </trkpt>
      <trkpt lat="43.35928" lon="6.53864">
        <ele>206.67</ele>
        <time>2025-03-15T16:21:25.489Z</time>
      </trkpt>
      <trkpt lat="43.35926" lon="6.53864">
        <ele>206.99</ele>
        <time>2025-03-15T16:21:27.294Z</time>
      </trkpt>
      <trkpt lat="43.35919" lon="6.53863">
        <ele>207.34</ele>
        <time>2025-03-15T16:21:31.076Z</time>
      </trkpt>
      <trkpt lat="43.35917" lon="6.53863">
        <ele>207.69</ele>
        <time>2025-03-15T16:21:32.726Z</time>
      </trkpt>
      <trkpt lat="43.35915" lon="6.53862">
        <ele>208.05</ele>
        <time>2025-03-15T16:21:34.477Z</time>
      </trkpt>
      <trkpt lat="43.35912" lon="6.53861">
        <ele>208.42</ele>
        <time>2025-03-15T16:21:36.330Z</time>
      </trkpt>
      <trkpt lat="43.3591" lon="6.5386">
        <ele>208.81</ele>
        <time>2025-03-15T16:21:38.317Z</time>
      </trkpt>
      <trkpt lat="43.359" lon="6.53853">
        <ele>209.24</ele>
        <time>2025-03-15T16:21:43.825Z</time>
      </trkpt>
      <trkpt lat="43.35898" lon="6.53851">
        <ele>209.65</ele>
        <time>2025-03-15T16:21:45.882Z</time>
      </trkpt>
      <trkpt lat="43.35891" lon="6.53846">
        <ele>210.08</ele>
        <time>2025-03-15T16:21:50.269Z</time>
      </trkpt>
      <trkpt lat="43.35889" lon="6.53843">
        <ele>210.51</ele>
        <time>2025-03-15T16:21:52.554Z</time>
      </trkpt>
      <trkpt lat="43.35886" lon="6.53841">
        <ele>210.93</ele>
        <time>2025-03-15T16:21:54.703Z</time>
      </trkpt>
      <trkpt lat="43.35884" lon="6.53839">
        <ele>211.37</ele>
        <time>2025-03-15T16:21:56.840Z</time>
      </trkpt>
      <trkpt lat="43.35881" lon="6.53837">
        <ele>211.8</ele>
        <time>2025-03-15T16:21:59.075Z</time>
      </trkpt>
      <trkpt lat="43.35872" lon="6.53828">
        <ele>212.27</ele>
        <time>2025-03-15T16:22:04.808Z</time>
      </trkpt>
      <trkpt lat="43.35858" lon="6.53815">
        <ele>212.78</ele>
        <time>2025-03-15T16:22:13.401Z</time>
      </trkpt>
      <trkpt lat="43.35856" lon="6.53812">
        <ele>213.22</ele>
        <time>2025-03-15T16:22:15.544Z</time>
      </trkpt>
      <trkpt lat="43.35854" lon="6.5381">
        <ele>213.65</ele>
        <time>2025-03-15T16:22:17.665Z</time>
      </trkpt>
      <trkpt lat="43.35852" lon="6.53808">
        <ele>214.09</ele>
        <time>2025-03-15T16:22:19.735Z</time>
      </trkpt>
      <trkpt lat="43.3585" lon="6.53808">
        <ele>214.53</ele>
        <time>2025-03-15T16:22:21.766Z</time>
      </trkpt>
      <trkpt lat="43.35848" lon="6.53807">
        <ele>214.96</ele>
        <time>2025-03-15T16:22:23.828Z</time>
      </trkpt>
      <trkpt lat="43.35845" lon="6.53806">
        <ele>215.38</ele>
        <time>2025-03-15T16:22:25.768Z</time>
      </trkpt>
      <trkpt lat="43.35831" lon="6.53803">
        <ele>215.86</ele>
        <time>2025-03-15T16:22:32.993Z</time>
      </trkpt>
      <trkpt lat="43.35827" lon="6.53802">
        <ele>216.29</ele>
        <time>2025-03-15T16:22:35.732Z</time>
      </trkpt>
      <trkpt lat="43.35825" lon="6.53802">
        <ele>216.7</ele>
        <time>2025-03-15T16:22:37.681Z</time>
      </trkpt>
      <trkpt lat="43.35823" lon="6.53802">
        <ele>217.11</ele>
        <time>2025-03-15T16:22:39.581Z</time>
      </trkpt>
      <trkpt lat="43.35821" lon="6.53802">
        <ele>217.51</ele>
        <time>2025-03-15T16:22:41.420Z</time>
      </trkpt>
      <trkpt lat="43.35819" lon="6.53803">
        <ele>217.9</ele>
        <time>2025-03-15T16:22:43.260Z</time>
      </trkpt>
      <trkpt lat="43.35813" lon="6.53804">
        <ele>218.3</ele>
        <time>2025-03-15T16:22:46.387Z</time>
      </trkpt>
      <trkpt lat="43.35811" lon="6.53805">
        <ele>218.67</ele>
        <time>2025-03-15T16:22:48.126Z</time>
      </trkpt>
      <trkpt lat="43.3581" lon="6.53805">
        <ele>219.05</ele>
        <time>2025-03-15T16:22:49.878Z</time>
      </trkpt>
      <trkpt lat="43.35808" lon="6.53806">
        <ele>219.41</ele>
        <time>2025-03-15T16:22:51.500Z</time>
      </trkpt>
      <trkpt lat="43.35806" lon="6.53807">
        <ele>219.77</ele>
        <time>2025-03-15T16:22:53.201Z</time>
      </trkpt>
      <trkpt lat="43.35802" lon="6.5381">
        <ele>220.13</ele>
        <time>2025-03-15T16:22:55.874Z</time>
      </trkpt>
      <trkpt lat="43.358" lon="6.53811">
        <ele>220.48</ele>
        <time>2025-03-15T16:22:57.537Z</time>
      </trkpt>
      <trkpt lat="43.35799" lon="6.53812">
        <ele>220.82</ele>
        <time>2025-03-15T16:22:59.129Z</time>
      </trkpt>
      <trkpt lat="43.35797" lon="6.53813">
        <ele>221.15</ele>
        <time>2025-03-15T16:23:00.690Z</time>
      </trkpt>
      <trkpt lat="43.35795" lon="6.53813">
        <ele>221.49</ele>
        <time>2025-03-15T16:23:02.228Z</time>
      </trkpt>
      <trkpt lat="43.35792" lon="6.53814">
        <ele>221.83</ele>
        <time>2025-03-15T16:23:04.607Z</time>
      </trkpt>
      <trkpt lat="43.3579" lon="6.53814">
        <ele>222.15</ele>
        <time>2025-03-15T16:23:06.047Z</time>
      </trkpt>
      <trkpt lat="43.35789" lon="6.53814">
        <ele>222.47</ele>
        <time>2025-03-15T16:23:07.487Z</time>
      </trkpt>
      <trkpt lat="43.35788" lon="6.53813">
        <ele>222.79</ele>
        <time>2025-03-15T16:23:08.930Z</time>
      </trkpt>
      <trkpt lat="43.35786" lon="6.53812">
        <ele>223.11</ele>
        <time>2025-03-15T16:23:10.396Z</time>
      </trkpt>
      <trkpt lat="43.35783" lon="6.53811">
        <ele>223.43</ele>
        <time>2025-03-15T16:23:12.443Z</time>
      </trkpt>
      <trkpt lat="43.35776" lon="6.53808">
        <ele>223.77</ele>
        <time>2025-03-15T16:23:16.263Z</time>
      </trkpt>
      <trkpt lat="43.35775" lon="6.53807">
        <ele>224.09</ele>
        <time>2025-03-15T16:23:17.707Z</time>
      </trkpt>
      <trkpt lat="43.35774" lon="6.53806">
        <ele>224.41</ele>
        <time>2025-03-15T16:23:19.156Z</time>
      </trkpt>
      <trkpt lat="43.35772" lon="6.53807">
        <ele>224.73</ele>
        <time>2025-03-15T16:23:20.594Z</time>
      </trkpt>
      <trkpt lat="43.35772" lon="6.53807">
        <ele>225.06</ele>
        <time>2025-03-15T16:23:22.119Z</time>
      </trkpt>
      <trkpt lat="43.35767" lon="6.53813">
        <ele>225.42</ele>
        <time>2025-03-15T16:23:25.310Z</time>
      </trkpt>
      <trkpt lat="43.35767" lon="6.53814">
        <ele>225.76</ele>
        <time>2025-03-15T16:23:26.905Z</time>
      </trkpt>
      <trkpt lat="43.35766" lon="6.53815">
        <ele>226.09</ele>
        <time>2025-03-15T16:23:28.395Z</time>
      </trkpt>
      <trkpt lat="43.35766" lon="6.53817">
        <ele>226.43</ele>
        <time>2025-03-15T16:23:29.927Z</time>
      </trkpt>
      <trkpt lat="43.35766" lon="6.53819">
        <ele>226.76</ele>
        <time>2025-03-15T16:23:31.409Z</time>
      </trkpt>
      <trkpt lat="43.35766" lon="6.53823">
        <ele>227.11</ele>
        <time>2025-03-15T16:23:33.343Z</time>
      </trkpt>
      <trkpt lat="43.35765" lon="6.53825">
        <ele>227.46</ele>
        <time>2025-03-15T16:23:34.927Z</time>
      </trkpt>
      <trkpt lat="43.35765" lon="6.53828">
        <ele>227.82</ele>
        <time>2025-03-15T16:23:36.606Z</time>
      </trkpt>
      <trkpt lat="43.35764" lon="6.5383">
        <ele>228.19</ele>
        <time>2025-03-15T16:23:38.278Z</time>
      </trkpt>
      <trkpt lat="43.35764" lon="6.53832">
        <ele>228.56</ele>
        <time>2025-03-15T16:23:39.951Z</time>
      </trkpt>
      <trkpt lat="43.35762" lon="6.53837">
        <ele>228.95</ele>
        <time>2025-03-15T16:23:42.567Z</time>
      </trkpt>
      <trkpt lat="43.35762" lon="6.53839">
        <ele>229.33</ele>
        <time>2025-03-15T16:23:44.275Z</time>
      </trkpt>
      <trkpt lat="43.35761" lon="6.53841">
        <ele>229.72</ele>
        <time>2025-03-15T16:23:46.098Z</time>
      </trkpt>
      <trkpt lat="43.3576" lon="6.53842">
        <ele>230.11</ele>
        <time>2025-03-15T16:23:47.880Z</time>
      </trkpt>
      <trkpt lat="43.3576" lon="6.53844">
        <ele>230.51</ele>
        <time>2025-03-15T16:23:49.731Z</time>
      </trkpt>
      <trkpt lat="43.35758" lon="6.53847">
        <ele>230.93</ele>
        <time>2025-03-15T16:23:51.928Z</time>
      </trkpt>
      <trkpt lat="43.35757" lon="6.53852">
        <ele>231.37</ele>
        <time>2025-03-15T16:23:54.478Z</time>
      </trkpt>
      <trkpt lat="43.35757" lon="6.53854">
        <ele>231.8</ele>
        <time>2025-03-15T16:23:56.427Z</time>
      </trkpt>
      <trkpt lat="43.35756" lon="6.53856">
        <ele>232.24</ele>
        <time>2025-03-15T16:23:58.589Z</time>
      </trkpt>
      <trkpt lat="43.35756" lon="6.53858">
        <ele>232.68</ele>
        <time>2025-03-15T16:24:00.569Z</time>
      </trkpt>
      <trkpt lat="43.35755" lon="6.5386">
        <ele>233.13</ele>
        <time>2025-03-15T16:24:02.589Z</time>
      </trkpt>
      <trkpt lat="43.35753" lon="6.5387">
        <ele>233.64</ele>
        <time>2025-03-15T16:24:06.792Z</time>
      </trkpt>
      <trkpt lat="43.35752" lon="6.53872">
        <ele>234.09</ele>
        <time>2025-03-15T16:24:08.995Z</time>
      </trkpt>
      <trkpt lat="43.35752" lon="6.53874">
        <ele>234.54</ele>
        <time>2025-03-15T16:24:11.078Z</time>
      </trkpt>
      <trkpt lat="43.35751" lon="6.53876">
        <ele>235</ele>
        <time>2025-03-15T16:24:13.151Z</time>
      </trkpt>
      <trkpt lat="43.35751" lon="6.53878">
        <ele>235.46</ele>
        <time>2025-03-15T16:24:15.221Z</time>
      </trkpt>
      <trkpt lat="43.35748" lon="6.53884">
        <ele>235.94</ele>
        <time>2025-03-15T16:24:18.330Z</time>
      </trkpt>
      <trkpt lat="43.35748" lon="6.53885">
        <ele>236.4</ele>
        <time>2025-03-15T16:24:20.606Z</time>
      </trkpt>
      <trkpt lat="43.35747" lon="6.53887">
        <ele>236.87</ele>
        <time>2025-03-15T16:24:22.814Z</time>
      </trkpt>
      <trkpt lat="43.35746" lon="6.53889">
        <ele>237.35</ele>
        <time>2025-03-15T16:24:25.014Z</time>
      </trkpt>
      <trkpt lat="43.35745" lon="6.5389">
        <ele>237.82</ele>
        <time>2025-03-15T16:24:27.522Z</time>
      </trkpt>
      <trkpt lat="43.35743" lon="6.53895">
        <ele>238.33</ele>
        <time>2025-03-15T16:24:30.413Z</time>
      </trkpt>
      <trkpt lat="43.35743" lon="6.53897">
        <ele>238.8</ele>
        <time>2025-03-15T16:24:32.723Z</time>
      </trkpt>
      <trkpt lat="43.35742" lon="6.53899">
        <ele>239.29</ele>
        <time>2025-03-15T16:24:34.936Z</time>
      </trkpt>
      <trkpt lat="43.35741" lon="6.53901">
        <ele>239.77</ele>
        <time>2025-03-15T16:24:37.096Z</time>
      </trkpt>
      <trkpt lat="43.35739" lon="6.53903">
        <ele>240.27</ele>
        <time>2025-03-15T16:24:39.347Z</time>
      </trkpt>
      <trkpt lat="43.35738" lon="6.53905">
        <ele>240.75</ele>
        <time>2025-03-15T16:24:41.543Z</time>
      </trkpt>
      <trkpt lat="43.35736" lon="6.53909">
        <ele>241.25</ele>
        <time>2025-03-15T16:24:44.128Z</time>
      </trkpt>
      <trkpt lat="43.35734" lon="6.53911">
        <ele>241.73</ele>
        <time>2025-03-15T16:24:46.363Z</time>
      </trkpt>
      <trkpt lat="43.35733" lon="6.53913">
        <ele>242.2</ele>
        <time>2025-03-15T16:24:48.563Z</time>
      </trkpt>
      <trkpt lat="43.35733" lon="6.53914">
        <ele>242.67</ele>
        <time>2025-03-15T16:24:50.807Z</time>
      </trkpt>
      <trkpt lat="43.35732" lon="6.53916">
        <ele>243.13</ele>
        <time>2025-03-15T16:24:52.912Z</time>
      </trkpt>
      <trkpt lat="43.35731" lon="6.53918">
        <ele>243.6</ele>
        <time>2025-03-15T16:24:55.041Z</time>
      </trkpt>
      <trkpt lat="43.3573" lon="6.5392">
        <ele>244.06</ele>
        <time>2025-03-15T16:24:57.110Z</time>
      </trkpt>
      <trkpt lat="43.35725" lon="6.53928">
        <ele>244.57</ele>
        <time>2025-03-15T16:25:01.614Z</time>
      </trkpt>
      <trkpt lat="43.35724" lon="6.53931">
        <ele>245.02</ele>
        <time>2025-03-15T16:25:03.637Z</time>
      </trkpt>
      <trkpt lat="43.35723" lon="6.53933">
        <ele>245.45</ele>
        <time>2025-03-15T16:25:05.576Z</time>
      </trkpt>
      <trkpt lat="43.35723" lon="6.53935">
        <ele>245.89</ele>
        <time>2025-03-15T16:25:07.569Z</time>
      </trkpt>
      <trkpt lat="43.35722" lon="6.53937">
        <ele>246.31</ele>
        <time>2025-03-15T16:25:09.464Z</time>
      </trkpt>
      <trkpt lat="43.35721" lon="6.53942">
        <ele>246.74</ele>
        <time>2025-03-15T16:25:12.141Z</time>
      </trkpt>
      <trkpt lat="43.3572" lon="6.53944">
        <ele>247.16</ele>
        <time>2025-03-15T16:25:14.029Z</time>
      </trkpt>
      <trkpt lat="43.35719" lon="6.53946">
        <ele>247.58</ele>
        <time>2025-03-15T16:25:15.964Z</time>
      </trkpt>
      <trkpt lat="43.35719" lon="6.53948">
        <ele>247.98</ele>
        <time>2025-03-15T16:25:17.768Z</time>
      </trkpt>
      <trkpt lat="43.35719" lon="6.53951">
        <ele>248.38</ele>
        <time>2025-03-15T16:25:19.566Z</time>
      </trkpt>
      <trkpt lat="43.35718" lon="6.53956">
        <ele>248.78</ele>
        <time>2025-03-15T16:25:22.121Z</time>
      </trkpt>
      <trkpt lat="43.35717" lon="6.53957">
        <ele>249.18</ele>
        <time>2025-03-15T16:25:23.974Z</time>
      </trkpt>
      <trkpt lat="43.35716" lon="6.53959">
        <ele>249.57</ele>
        <time>2025-03-15T16:25:25.747Z</time>
      </trkpt>
      <trkpt lat="43.35716" lon="6.53961">
        <ele>249.95</ele>
        <time>2025-03-15T16:25:27.453Z</time>
      </trkpt>
      <trkpt lat="43.35715" lon="6.53963">
        <ele>250.33</ele>
        <time>2025-03-15T16:25:29.168Z</time>
      </trkpt>
      <trkpt lat="43.35715" lon="6.53965">
        <ele>250.7</ele>
        <time>2025-03-15T16:25:30.829Z</time>
      </trkpt>
      <trkpt lat="43.35715" lon="6.53967">
        <ele>251.06</ele>
        <time>2025-03-15T16:25:32.478Z</time>
      </trkpt>
      <trkpt lat="43.35713" lon="6.53977">
        <ele>251.44</ele>
        <time>2025-03-15T16:25:36.279Z</time>
      </trkpt>
      <trkpt lat="43.35713" lon="6.53979">
        <ele>251.8</ele>
        <time>2025-03-15T16:25:37.907Z</time>
      </trkpt>
      <trkpt lat="43.35712" lon="6.53981">
        <ele>252.17</ele>
        <time>2025-03-15T16:25:39.571Z</time>
      </trkpt>
      <trkpt lat="43.35712" lon="6.53983">
        <ele>252.52</ele>
        <time>2025-03-15T16:25:41.142Z</time>
      </trkpt>
      <trkpt lat="43.35711" lon="6.53984">
        <ele>252.87</ele>
        <time>2025-03-15T16:25:42.724Z</time>
      </trkpt>
      <trkpt lat="43.35709" lon="6.5399">
        <ele>253.25</ele>
        <time>2025-03-15T16:25:45.354Z</time>
      </trkpt>
      <trkpt lat="43.35709" lon="6.53992">
        <ele>253.59</ele>
        <time>2025-03-15T16:25:46.927Z</time>
      </trkpt>
      <trkpt lat="43.35709" lon="6.53994">
        <ele>253.93</ele>
        <time>2025-03-15T16:25:48.463Z</time>
      </trkpt>
      <trkpt lat="43.35708" lon="6.53996">
        <ele>254.27</ele>
        <time>2025-03-15T16:25:50.019Z</time>
      </trkpt>
      <trkpt lat="43.35707" lon="6.53999">
        <ele>254.6</ele>
        <time>2025-03-15T16:25:51.589Z</time>
      </trkpt>
      <trkpt lat="43.35706" lon="6.54004">
        <ele>254.95</ele>
        <time>2025-03-15T16:25:54.218Z</time>
      </trkpt>
      <trkpt lat="43.35706" lon="6.54007">
        <ele>255.28</ele>
        <time>2025-03-15T16:25:55.730Z</time>
      </trkpt>
      <trkpt lat="43.35705" lon="6.54009">
        <ele>255.6</ele>
        <time>2025-03-15T16:25:57.178Z</time>
      </trkpt>
      <trkpt lat="43.35705" lon="6.54011">
        <ele>255.93</ele>
        <time>2025-03-15T16:25:58.721Z</time>
      </trkpt>
      <trkpt lat="43.35704" lon="6.54013">
        <ele>256.25</ele>
        <time>2025-03-15T16:26:00.181Z</time>
      </trkpt>
      <trkpt lat="43.35704" lon="6.54015">
        <ele>256.57</ele>
        <time>2025-03-15T16:26:01.661Z</time>
      </trkpt>
      <trkpt lat="43.35703" lon="6.54016">
        <ele>256.88</ele>
        <time>2025-03-15T16:26:03.058Z</time>
      </trkpt>
      <trkpt lat="43.35701" lon="6.54025">
        <ele>257.2</ele>
        <time>2025-03-15T16:26:06.705Z</time>
      </trkpt>
      <trkpt lat="43.35701" lon="6.54027">
        <ele>257.51</ele>
        <time>2025-03-15T16:26:08.115Z</time>
      </trkpt>
      <trkpt lat="43.35701" lon="6.54029">
        <ele>257.8</ele>
        <time>2025-03-15T16:26:09.417Z</time>
      </trkpt>
      <trkpt lat="43.357" lon="6.54031">
        <ele>258.11</ele>
        <time>2025-03-15T16:26:10.932Z</time>
      </trkpt>
      <trkpt lat="43.357" lon="6.54033">
        <ele>258.41</ele>
        <time>2025-03-15T16:26:12.341Z</time>
      </trkpt>
      <trkpt lat="43.35698" lon="6.5404">
        <ele>258.74</ele>
        <time>2025-03-15T16:26:15.384Z</time>
      </trkpt>
      <trkpt lat="43.35698" lon="6.54042">
        <ele>259.03</ele>
        <time>2025-03-15T16:26:16.722Z</time>
      </trkpt>
      <trkpt lat="43.35697" lon="6.54051">
        <ele>259.32</ele>
        <time>2025-03-15T16:26:20.183Z</time>
      </trkpt>
      <trkpt lat="43.35697" lon="6.54054">
        <ele>259.6</ele>
        <time>2025-03-15T16:26:21.586Z</time>
      </trkpt>
      <trkpt lat="43.35697" lon="6.54056">
        <ele>259.87</ele>
        <time>2025-03-15T16:26:23.004Z</time>
      </trkpt>
      <trkpt lat="43.35697" lon="6.54059">
        <ele>260.16</ele>
        <time>2025-03-15T16:26:24.523Z</time>
      </trkpt>
      <trkpt lat="43.35698" lon="6.54062">
        <ele>260.44</ele>
        <time>2025-03-15T16:26:25.944Z</time>
      </trkpt>
      <trkpt lat="43.35698" lon="6.54064">
        <ele>260.72</ele>
        <time>2025-03-15T16:26:27.287Z</time>
      </trkpt>
      <trkpt lat="43.35698" lon="6.54069">
        <ele>260.99</ele>
        <time>2025-03-15T16:26:29.231Z</time>
      </trkpt>
      <trkpt lat="43.35697" lon="6.54075">
        <ele>261.27</ele>
        <time>2025-03-15T16:26:31.717Z</time>
      </trkpt>
      <trkpt lat="43.35697" lon="6.54077">
        <ele>261.54</ele>
        <time>2025-03-15T16:26:32.964Z</time>
      </trkpt>
      <trkpt lat="43.35696" lon="6.54079">
        <ele>261.81</ele>
        <time>2025-03-15T16:26:34.416Z</time>
      </trkpt>
      <trkpt lat="43.35696" lon="6.54081">
        <ele>262.08</ele>
        <time>2025-03-15T16:26:35.742Z</time>
      </trkpt>
      <trkpt lat="43.35695" lon="6.54083">
        <ele>262.35</ele>
        <time>2025-03-15T16:26:37.163Z</time>
      </trkpt>
      <trkpt lat="43.35694" lon="6.54086">
        <ele>262.63</ele>
        <time>2025-03-15T16:26:38.619Z</time>
      </trkpt>
      <trkpt lat="43.35694" lon="6.54105">
        <ele>262.92</ele>
        <time>2025-03-15T16:26:45.442Z</time>
      </trkpt>
      <trkpt lat="43.35701" lon="6.54123">
        <ele>263.2</ele>
        <time>2025-03-15T16:26:52.345Z</time>
      </trkpt>
      <trkpt lat="43.35702" lon="6.54125">
        <ele>263.47</ele>
        <time>2025-03-15T16:26:53.817Z</time>
      </trkpt>
      <trkpt lat="43.35703" lon="6.54128">
        <ele>263.74</ele>
        <time>2025-03-15T16:26:55.331Z</time>
      </trkpt>
      <trkpt lat="43.35704" lon="6.54131">
        <ele>264.01</ele>
        <time>2025-03-15T16:26:56.798Z</time>
      </trkpt>
      <trkpt lat="43.35704" lon="6.54134">
        <ele>264.29</ele>
        <time>2025-03-15T16:26:58.443Z</time>
      </trkpt>
      <trkpt lat="43.35709" lon="6.54145">
        <ele>264.57</ele>
        <time>2025-03-15T16:27:03.210Z</time>
      </trkpt>
      <trkpt lat="43.35711" lon="6.54155">
        <ele>264.86</ele>
        <time>2025-03-15T16:27:07.029Z</time>
      </trkpt>
      <trkpt lat="43.35712" lon="6.54157">
        <ele>265.14</ele>
        <time>2025-03-15T16:27:08.484Z</time>
      </trkpt>
      <trkpt lat="43.35713" lon="6.54159">
        <ele>265.41</ele>
        <time>2025-03-15T16:27:09.867Z</time>
      </trkpt>
      <trkpt lat="43.35714" lon="6.54161">
        <ele>265.7</ele>
        <time>2025-03-15T16:27:11.193Z</time>
      </trkpt>
      <trkpt lat="43.35716" lon="6.54177">
        <ele>266.01</ele>
        <time>2025-03-15T16:27:16.997Z</time>
      </trkpt>
      <trkpt lat="43.35715" lon="6.54188">
        <ele>266.33</ele>
        <time>2025-03-15T16:27:21.112Z</time>
      </trkpt>
      <trkpt lat="43.35715" lon="6.5419">
        <ele>266.63</ele>
        <time>2025-03-15T16:27:22.492Z</time>
      </trkpt>
      <trkpt lat="43.35715" lon="6.54193">
        <ele>266.94</ele>
        <time>2025-03-15T16:27:23.993Z</time>
      </trkpt>
      <trkpt lat="43.35715" lon="6.54195">
        <ele>267.24</ele>
        <time>2025-03-15T16:27:25.479Z</time>
      </trkpt>
      <trkpt lat="43.35714" lon="6.54197">
        <ele>267.55</ele>
        <time>2025-03-15T16:27:26.906Z</time>
      </trkpt>
      <trkpt lat="43.35712" lon="6.54206">
        <ele>267.89</ele>
        <time>2025-03-15T16:27:30.402Z</time>
      </trkpt>
      <trkpt lat="43.35711" lon="6.5421">
        <ele>268.22</ele>
        <time>2025-03-15T16:27:32.585Z</time>
      </trkpt>
      <trkpt lat="43.35711" lon="6.54212">
        <ele>268.55</ele>
        <time>2025-03-15T16:27:34.066Z</time>
      </trkpt>
      <trkpt lat="43.3571" lon="6.54214">
        <ele>268.87</ele>
        <time>2025-03-15T16:27:35.506Z</time>
      </trkpt>
      <trkpt lat="43.3571" lon="6.54216">
        <ele>269.21</ele>
        <time>2025-03-15T16:27:37.034Z</time>
      </trkpt>
      <trkpt lat="43.35709" lon="6.54217">
        <ele>269.55</ele>
        <time>2025-03-15T16:27:38.562Z</time>
      </trkpt>
      <trkpt lat="43.35709" lon="6.54219">
        <ele>269.89</ele>
        <time>2025-03-15T16:27:40.093Z</time>
      </trkpt>
      <trkpt lat="43.35709" lon="6.54222">
        <ele>270.24</ele>
        <time>2025-03-15T16:27:41.709Z</time>
      </trkpt>
      <trkpt lat="43.35708" lon="6.54224">
        <ele>270.6</ele>
        <time>2025-03-15T16:27:43.348Z</time>
      </trkpt>
      <trkpt lat="43.35708" lon="6.54226">
        <ele>270.95</ele>
        <time>2025-03-15T16:27:44.925Z</time>
      </trkpt>
      <trkpt lat="43.35707" lon="6.54228">
        <ele>271.31</ele>
        <time>2025-03-15T16:27:46.542Z</time>
      </trkpt>
      <trkpt lat="43.35706" lon="6.54232">
        <ele>271.69</ele>
        <time>2025-03-15T16:27:48.740Z</time>
      </trkpt>
      <trkpt lat="43.35706" lon="6.54234">
        <ele>272.06</ele>
        <time>2025-03-15T16:27:50.402Z</time>
      </trkpt>
      <trkpt lat="43.35705" lon="6.54236">
        <ele>272.44</ele>
        <time>2025-03-15T16:27:52.116Z</time>
      </trkpt>
      <trkpt lat="43.35704" lon="6.54237">
        <ele>272.82</ele>
        <time>2025-03-15T16:27:53.856Z</time>
      </trkpt>
      <trkpt lat="43.35704" lon="6.54239">
        <ele>273.2</ele>
        <time>2025-03-15T16:27:55.580Z</time>
      </trkpt>
      <trkpt lat="43.35704" lon="6.54241">
        <ele>273.6</ele>
        <time>2025-03-15T16:27:57.470Z</time>
      </trkpt>
      <trkpt lat="43.35704" lon="6.54244">
        <ele>274.01</ele>
        <time>2025-03-15T16:27:59.438Z</time>
      </trkpt>
      <trkpt lat="43.35703" lon="6.54245">
        <ele>274.41</ele>
        <time>2025-03-15T16:28:01.261Z</time>
      </trkpt>
      <trkpt lat="43.35702" lon="6.54247">
        <ele>274.83</ele>
        <time>2025-03-15T16:28:03.163Z</time>
      </trkpt>
      <trkpt lat="43.35701" lon="6.54248">
        <ele>275.25</ele>
        <time>2025-03-15T16:28:05.088Z</time>
      </trkpt>
      <trkpt lat="43.35699" lon="6.54249">
        <ele>275.67</ele>
        <time>2025-03-15T16:28:06.973Z</time>
      </trkpt>
      <trkpt lat="43.35698" lon="6.5425">
        <ele>276.09</ele>
        <time>2025-03-15T16:28:08.976Z</time>
      </trkpt>
      <trkpt lat="43.35692" lon="6.54255">
        <ele>276.56</ele>
        <time>2025-03-15T16:28:12.847Z</time>
      </trkpt>
      <trkpt lat="43.35691" lon="6.54256">
        <ele>276.98</ele>
        <time>2025-03-15T16:28:14.935Z</time>
      </trkpt>
      <trkpt lat="43.3569" lon="6.54257">
        <ele>277.4</ele>
        <time>2025-03-15T16:28:16.965Z</time>
      </trkpt>
      <trkpt lat="43.35689" lon="6.54258">
        <ele>277.83</ele>
        <time>2025-03-15T16:28:18.923Z</time>
      </trkpt>
      <trkpt lat="43.35688" lon="6.54258">
        <ele>278.24</ele>
        <time>2025-03-15T16:28:20.934Z</time>
      </trkpt>
      <trkpt lat="43.35688" lon="6.54258">
        <ele>278.66</ele>
        <time>2025-03-15T16:28:23.002Z</time>
      </trkpt>
      <trkpt lat="43.35686" lon="6.54259">
        <ele>279.08</ele>
        <time>2025-03-15T16:28:25.018Z</time>
      </trkpt>
      <trkpt lat="43.35685" lon="6.5426">
        <ele>279.49</ele>
        <time>2025-03-15T16:28:26.885Z</time>
      </trkpt>
      <trkpt lat="43.35684" lon="6.54261">
        <ele>279.91</ele>
        <time>2025-03-15T16:28:28.770Z</time>
      </trkpt>
      <trkpt lat="43.35677" lon="6.54268">
        <ele>280.37</ele>
        <time>2025-03-15T16:28:33.202Z</time>
      </trkpt>
      <trkpt lat="43.35676" lon="6.54269">
        <ele>280.77</ele>
        <time>2025-03-15T16:28:35.017Z</time>
      </trkpt>
      <trkpt lat="43.35675" lon="6.5427">
        <ele>281.17</ele>
        <time>2025-03-15T16:28:36.885Z</time>
      </trkpt>
      <trkpt lat="43.35674" lon="6.5427">
        <ele>281.56</ele>
        <time>2025-03-15T16:28:38.690Z</time>
      </trkpt>
      <trkpt lat="43.35673" lon="6.54271">
        <ele>281.94</ele>
        <time>2025-03-15T16:28:40.444Z</time>
      </trkpt>
      <trkpt lat="43.35671" lon="6.54275">
        <ele>282.33</ele>
        <time>2025-03-15T16:28:42.699Z</time>
      </trkpt>
      <trkpt lat="43.35669" lon="6.54277">
        <ele>282.7</ele>
        <time>2025-03-15T16:28:44.428Z</time>
      </trkpt>
      <trkpt lat="43.35669" lon="6.54278">
        <ele>283.05</ele>
        <time>2025-03-15T16:28:46.051Z</time>
      </trkpt>
      <trkpt lat="43.35668" lon="6.54279">
        <ele>283.4</ele>
        <time>2025-03-15T16:28:47.861Z</time>
      </trkpt>
      <trkpt lat="43.35667" lon="6.54279">
        <ele>283.74</ele>
        <time>2025-03-15T16:28:49.387Z</time>
      </trkpt>
      <trkpt lat="43.35665" lon="6.5428">
        <ele>284.07</ele>
        <time>2025-03-15T16:28:50.885Z</time>
      </trkpt>
      <trkpt lat="43.35664" lon="6.54281">
        <ele>284.4</ele>
        <time>2025-03-15T16:28:52.373Z</time>
      </trkpt>
      <trkpt lat="43.35659" lon="6.54289">
        <ele>284.74</ele>
        <time>2025-03-15T16:28:56.532Z</time>
      </trkpt>
      <trkpt lat="43.35657" lon="6.54291">
        <ele>285.04</ele>
        <time>2025-03-15T16:28:57.906Z</time>
      </trkpt>
      <trkpt lat="43.35657" lon="6.54292">
        <ele>285.33</ele>
        <time>2025-03-15T16:28:59.239Z</time>
      </trkpt>
      <trkpt lat="43.35656" lon="6.54294">
        <ele>285.61</ele>
        <time>2025-03-15T16:29:00.522Z</time>
      </trkpt>
      <trkpt lat="43.35656" lon="6.54295">
        <ele>285.88</ele>
        <time>2025-03-15T16:29:01.748Z</time>
      </trkpt>
      <trkpt lat="43.35653" lon="6.54302">
        <ele>286.15</ele>
        <time>2025-03-15T16:29:04.711Z</time>
      </trkpt>
      <trkpt lat="43.35653" lon="6.54304">
        <ele>286.39</ele>
        <time>2025-03-15T16:29:05.857Z</time>
      </trkpt>
      <trkpt lat="43.35654" lon="6.54306">
        <ele>286.63</ele>
        <time>2025-03-15T16:29:07.004Z</time>
      </trkpt>
      <trkpt lat="43.35654" lon="6.54308">
        <ele>286.86</ele>
        <time>2025-03-15T16:29:08.199Z</time>
      </trkpt>
      <trkpt lat="43.35653" lon="6.5431">
        <ele>287.08</ele>
        <time>2025-03-15T16:29:09.319Z</time>
      </trkpt>
      <trkpt lat="43.35653" lon="6.54312">
        <ele>287.3</ele>
        <time>2025-03-15T16:29:10.440Z</time>
      </trkpt>
      <trkpt lat="43.35653" lon="6.54314">
        <ele>287.51</ele>
        <time>2025-03-15T16:29:11.459Z</time>
      </trkpt>
      <trkpt lat="43.35655" lon="6.54322">
        <ele>287.71</ele>
        <time>2025-03-15T16:29:14.645Z</time>
      </trkpt>
      <trkpt lat="43.35655" lon="6.54324">
        <ele>287.91</ele>
        <time>2025-03-15T16:29:15.723Z</time>
      </trkpt>
      <trkpt lat="43.35656" lon="6.54326">
        <ele>288.11</ele>
        <time>2025-03-15T16:29:16.691Z</time>
      </trkpt>
      <trkpt lat="43.35655" lon="6.54328">
        <ele>288.3</ele>
        <time>2025-03-15T16:29:17.833Z</time>
      </trkpt>
      <trkpt lat="43.35655" lon="6.5433">
        <ele>288.5</ele>
        <time>2025-03-15T16:29:18.912Z</time>
      </trkpt>
      <trkpt lat="43.35655" lon="6.54332">
        <ele>288.69</ele>
        <time>2025-03-15T16:29:19.962Z</time>
      </trkpt>
      <trkpt lat="43.35655" lon="6.54334">
        <ele>288.88</ele>
        <time>2025-03-15T16:29:21.001Z</time>
      </trkpt>
      <trkpt lat="43.35653" lon="6.54351">
        <ele>289.11</ele>
        <time>2025-03-15T16:29:27.086Z</time>
      </trkpt>
      <trkpt lat="43.35649" lon="6.5437">
        <ele>289.32</ele>
        <time>2025-03-15T16:29:33.769Z</time>
      </trkpt>
      <trkpt lat="43.35649" lon="6.54385">
        <ele>289.51</ele>
        <time>2025-03-15T16:29:39.080Z</time>
      </trkpt>
      <trkpt lat="43.3565" lon="6.54395">
        <ele>289.7</ele>
        <time>2025-03-15T16:29:42.968Z</time>
      </trkpt>
      <trkpt lat="43.35652" lon="6.54399">
        <ele>289.9</ele>
        <time>2025-03-15T16:29:44.658Z</time>
      </trkpt>
      <trkpt lat="43.35654" lon="6.54402">
        <ele>290.11</ele>
        <time>2025-03-15T16:29:46.373Z</time>
      </trkpt>
      <trkpt lat="43.35655" lon="6.54405">
        <ele>290.32</ele>
        <time>2025-03-15T16:29:48.022Z</time>
      </trkpt>
      <trkpt lat="43.35658" lon="6.54408">
        <ele>290.53</ele>
        <time>2025-03-15T16:29:49.819Z</time>
      </trkpt>
      <trkpt lat="43.35665" lon="6.54418">
        <ele>290.74</ele>
        <time>2025-03-15T16:29:54.785Z</time>
      </trkpt>
      <trkpt lat="43.3567" lon="6.54424">
        <ele>290.97</ele>
        <time>2025-03-15T16:29:58.118Z</time>
      </trkpt>
      <trkpt lat="43.35678" lon="6.54435">
        <ele>291.22</ele>
        <time>2025-03-15T16:30:03.765Z</time>
      </trkpt>
      <trkpt lat="43.35682" lon="6.54439">
        <ele>291.45</ele>
        <time>2025-03-15T16:30:06.431Z</time>
      </trkpt>
      <trkpt lat="43.35691" lon="6.54452">
        <ele>291.71</ele>
        <time>2025-03-15T16:30:12.742Z</time>
      </trkpt>
      <trkpt lat="43.35693" lon="6.54454">
        <ele>291.94</ele>
        <time>2025-03-15T16:30:14.350Z</time>
      </trkpt>
      <trkpt lat="43.35695" lon="6.54457">
        <ele>292.17</ele>
        <time>2025-03-15T16:30:15.948Z</time>
      </trkpt>
      <trkpt lat="43.35697" lon="6.5446">
        <ele>292.41</ele>
        <time>2025-03-15T16:30:17.672Z</time>
      </trkpt>
      <trkpt lat="43.35698" lon="6.54463">
        <ele>292.64</ele>
        <time>2025-03-15T16:30:19.147Z</time>
      </trkpt>
      <trkpt lat="43.35708" lon="6.54478">
        <ele>292.9</ele>
        <time>2025-03-15T16:30:26.098Z</time>
      </trkpt>
      <trkpt lat="43.3571" lon="6.5448">
        <ele>293.13</ele>
        <time>2025-03-15T16:30:27.773Z</time>
      </trkpt>
      <trkpt lat="43.35712" lon="6.54483">
        <ele>293.35</ele>
        <time>2025-03-15T16:30:29.375Z</time>
      </trkpt>
      <trkpt lat="43.35713" lon="6.54484">
        <ele>293.57</ele>
        <time>2025-03-15T16:30:30.685Z</time>
      </trkpt>
      <trkpt lat="43.35714" lon="6.54486">
        <ele>293.77</ele>
        <time>2025-03-15T16:30:31.914Z</time>
      </trkpt>
      <trkpt lat="43.35718" lon="6.5449">
        <ele>293.98</ele>
        <time>2025-03-15T16:30:34.331Z</time>
      </trkpt>
      <trkpt lat="43.35722" lon="6.54494">
        <ele>294.18</ele>
        <time>2025-03-15T16:30:36.786Z</time>
      </trkpt>
      <trkpt lat="43.35724" lon="6.54495">
        <ele>294.35</ele>
        <time>2025-03-15T16:30:37.981Z</time>
      </trkpt>
      <trkpt lat="43.35725" lon="6.54498">
        <ele>294.52</ele>
        <time>2025-03-15T16:30:39.320Z</time>
      </trkpt>
      <trkpt lat="43.35727" lon="6.545">
        <ele>294.67</ele>
        <time>2025-03-15T16:30:40.601Z</time>
      </trkpt>
      <trkpt lat="43.35728" lon="6.54502">
        <ele>294.81</ele>
        <time>2025-03-15T16:30:41.900Z</time>
      </trkpt>
      <trkpt lat="43.35732" lon="6.5451">
        <ele>294.95</ele>
        <time>2025-03-15T16:30:45.170Z</time>
      </trkpt>
      <trkpt lat="43.35733" lon="6.54513">
        <ele>295.06</ele>
        <time>2025-03-15T16:30:46.314Z</time>
      </trkpt>
      <trkpt lat="43.35734" lon="6.54516">
        <ele>295.15</ele>
        <time>2025-03-15T16:30:47.691Z</time>
      </trkpt>
      <trkpt lat="43.35735" lon="6.54519">
        <ele>295.23</ele>
        <time>2025-03-15T16:30:49.046Z</time>
      </trkpt>
      <trkpt lat="43.35736" lon="6.54522">
        <ele>295.29</ele>
        <time>2025-03-15T16:30:50.277Z</time>
      </trkpt>
      <trkpt lat="43.35749" lon="6.54543">
        <ele>295.37</ele>
        <time>2025-03-15T16:30:59.137Z</time>
      </trkpt>
      <trkpt lat="43.3575" lon="6.54544">
        <ele>295.39</ele>
        <time>2025-03-15T16:31:00.150Z</time>
      </trkpt>
      <trkpt lat="43.35752" lon="6.54547">
        <ele>295.38</ele>
        <time>2025-03-15T16:31:01.281Z</time>
      </trkpt>
      <trkpt lat="43.35754" lon="6.5455">
        <ele>295.36</ele>
        <time>2025-03-15T16:31:02.490Z</time>
      </trkpt>
      <trkpt lat="43.35756" lon="6.54552">
        <ele>295.33</ele>
        <time>2025-03-15T16:31:03.614Z</time>
      </trkpt>
      <trkpt lat="43.3576" lon="6.54559">
        <ele>295.28</ele>
        <time>2025-03-15T16:31:06.620Z</time>
      </trkpt>
      <trkpt lat="43.35766" lon="6.54577">
        <ele>295.2</ele>
        <time>2025-03-15T16:31:13.122Z</time>
      </trkpt>
      <trkpt lat="43.35774" lon="6.54602">
        <ele>295.07</ele>
        <time>2025-03-15T16:31:21.958Z</time>
      </trkpt>
      <trkpt lat="43.35778" lon="6.54619">
        <ele>294.92</ele>
        <time>2025-03-15T16:31:27.734Z</time>
      </trkpt>
      <trkpt lat="43.35777" lon="6.54629">
        <ele>294.78</ele>
        <time>2025-03-15T16:31:30.739Z</time>
      </trkpt>
      <trkpt lat="43.35777" lon="6.54638">
        <ele>294.63</ele>
        <time>2025-03-15T16:31:33.679Z</time>
      </trkpt>
      <trkpt lat="43.35779" lon="6.54648">
        <ele>294.47</ele>
        <time>2025-03-15T16:31:36.769Z</time>
      </trkpt>
      <trkpt lat="43.35782" lon="6.54657">
        <ele>294.3</ele>
        <time>2025-03-15T16:31:39.881Z</time>
      </trkpt>
      <trkpt lat="43.35785" lon="6.54666">
        <ele>294.12</ele>
        <time>2025-03-15T16:31:42.877Z</time>
      </trkpt>
      <trkpt lat="43.35789" lon="6.54674">
        <ele>293.95</ele>
        <time>2025-03-15T16:31:45.885Z</time>
      </trkpt>
      <trkpt lat="43.35794" lon="6.54681">
        <ele>293.78</ele>
        <time>2025-03-15T16:31:48.965Z</time>
      </trkpt>
      <trkpt lat="43.35798" lon="6.54688">
        <ele>293.62</ele>
        <time>2025-03-15T16:31:51.804Z</time>
      </trkpt>
      <trkpt lat="43.35802" lon="6.54695">
        <ele>293.46</ele>
        <time>2025-03-15T16:31:54.538Z</time>
      </trkpt>
      <trkpt lat="43.35807" lon="6.54702">
        <ele>293.3</ele>
        <time>2025-03-15T16:31:57.446Z</time>
      </trkpt>
      <trkpt lat="43.35812" lon="6.5471">
        <ele>293.14</ele>
        <time>2025-03-15T16:32:00.616Z</time>
      </trkpt>
      <trkpt lat="43.35816" lon="6.54718">
        <ele>293</ele>
        <time>2025-03-15T16:32:03.853Z</time>
      </trkpt>
      <trkpt lat="43.35821" lon="6.54726">
        <ele>292.85</ele>
        <time>2025-03-15T16:32:07.187Z</time>
      </trkpt>
      <trkpt lat="43.35826" lon="6.54735">
        <ele>292.72</ele>
        <time>2025-03-15T16:32:10.685Z</time>
      </trkpt>
      <trkpt lat="43.35831" lon="6.54743">
        <ele>292.59</ele>
        <time>2025-03-15T16:32:14.024Z</time>
      </trkpt>
      <trkpt lat="43.35836" lon="6.54751">
        <ele>292.47</ele>
        <time>2025-03-15T16:32:17.317Z</time>
      </trkpt>
      <trkpt lat="43.3584" lon="6.5476">
        <ele>292.37</ele>
        <time>2025-03-15T16:32:20.569Z</time>
      </trkpt>
      <trkpt lat="43.35844" lon="6.54767">
        <ele>292.28</ele>
        <time>2025-03-15T16:32:23.660Z</time>
      </trkpt>
      <trkpt lat="43.35848" lon="6.54775">
        <ele>292.2</ele>
        <time>2025-03-15T16:32:26.605Z</time>
      </trkpt>
      <trkpt lat="43.35851" lon="6.54783">
        <ele>292.14</ele>
        <time>2025-03-15T16:32:29.377Z</time>
      </trkpt>
      <trkpt lat="43.35859" lon="6.54803">
        <ele>292.1</ele>
        <time>2025-03-15T16:32:37.046Z</time>
      </trkpt>
      <trkpt lat="43.35864" lon="6.54816">
        <ele>292.07</ele>
        <time>2025-03-15T16:32:41.980Z</time>
      </trkpt>
      <trkpt lat="43.35867" lon="6.5483">
        <ele>292.05</ele>
        <time>2025-03-15T16:32:46.682Z</time>
      </trkpt>
      <trkpt lat="43.35869" lon="6.54844">
        <ele>292.04</ele>
        <time>2025-03-15T16:32:51.356Z</time>
      </trkpt>
      <trkpt lat="43.35869" lon="6.5485">
        <ele>292.03</ele>
        <time>2025-03-15T16:32:53.597Z</time>
      </trkpt>
      <trkpt lat="43.35871" lon="6.54864">
        <ele>292.02</ele>
        <time>2025-03-15T16:32:58.149Z</time>
      </trkpt>
      <trkpt lat="43.35873" lon="6.54883">
        <ele>292.01</ele>
        <time>2025-03-15T16:33:04.559Z</time>
      </trkpt>
      <trkpt lat="43.35874" lon="6.5489">
        <ele>292</ele>
        <time>2025-03-15T16:33:06.799Z</time>
      </trkpt>
      <trkpt lat="43.35875" lon="6.54902">
        <ele>292.02</ele>
        <time>2025-03-15T16:33:11.122Z</time>
      </trkpt>
      <trkpt lat="43.35877" lon="6.54915">
        <ele>292.04</ele>
        <time>2025-03-15T16:33:15.325Z</time>
      </trkpt>
      <trkpt lat="43.3588" lon="6.54926">
        <ele>292.07</ele>
        <time>2025-03-15T16:33:19.396Z</time>
      </trkpt>
      <trkpt lat="43.35882" lon="6.54932">
        <ele>292.09</ele>
        <time>2025-03-15T16:33:21.444Z</time>
      </trkpt>
      <trkpt lat="43.35884" lon="6.54937">
        <ele>292.11</ele>
        <time>2025-03-15T16:33:23.593Z</time>
      </trkpt>
      <trkpt lat="43.35886" lon="6.54942">
        <ele>292.12</ele>
        <time>2025-03-15T16:33:25.557Z</time>
      </trkpt>
      <trkpt lat="43.35889" lon="6.54947">
        <ele>292.12</ele>
        <time>2025-03-15T16:33:27.418Z</time>
      </trkpt>
      <trkpt lat="43.35898" lon="6.54965">
        <ele>292.14</ele>
        <time>2025-03-15T16:33:34.990Z</time>
      </trkpt>
      <trkpt lat="43.35901" lon="6.54972">
        <ele>292.13</ele>
        <time>2025-03-15T16:33:37.292Z</time>
      </trkpt>
      <trkpt lat="43.35914" lon="6.55003">
        <ele>292.1</ele>
        <time>2025-03-15T16:33:49.237Z</time>
      </trkpt>
      <trkpt lat="43.35927" lon="6.55031">
        <ele>292.04</ele>
        <time>2025-03-15T16:34:00.344Z</time>
      </trkpt>
      <trkpt lat="43.35933" lon="6.55041">
        <ele>291.97</ele>
        <time>2025-03-15T16:34:04.620Z</time>
      </trkpt>
      <trkpt lat="43.35938" lon="6.55053">
        <ele>291.89</ele>
        <time>2025-03-15T16:34:08.930Z</time>
      </trkpt>
      <trkpt lat="43.35948" lon="6.55067">
        <ele>291.79</ele>
        <time>2025-03-15T16:34:15.173Z</time>
      </trkpt>
      <trkpt lat="43.35961" lon="6.55078">
        <ele>291.68</ele>
        <time>2025-03-15T16:34:22.013Z</time>
      </trkpt>
      <trkpt lat="43.35966" lon="6.55081">
        <ele>291.57</ele>
        <time>2025-03-15T16:34:24.582Z</time>
      </trkpt>
      <trkpt lat="43.35972" lon="6.55084">
        <ele>291.44</ele>
        <time>2025-03-15T16:34:27.208Z</time>
      </trkpt>
      <trkpt lat="43.35978" lon="6.55087">
        <ele>291.29</ele>
        <time>2025-03-15T16:34:29.710Z</time>
      </trkpt>
      <trkpt lat="43.35984" lon="6.55089">
        <ele>291.13</ele>
        <time>2025-03-15T16:34:32.308Z</time>
      </trkpt>
      <trkpt lat="43.35989" lon="6.55091">
        <ele>290.95</ele>
        <time>2025-03-15T16:34:34.716Z</time>
      </trkpt>
      <trkpt lat="43.36" lon="6.55098">
        <ele>290.74</ele>
        <time>2025-03-15T16:34:39.777Z</time>
      </trkpt>
      <trkpt lat="43.36011" lon="6.55116">
        <ele>290.49</ele>
        <time>2025-03-15T16:34:47.338Z</time>
      </trkpt>
      <trkpt lat="43.36016" lon="6.55138">
        <ele>290.23</ele>
        <time>2025-03-15T16:34:54.632Z</time>
      </trkpt>
      <trkpt lat="43.36022" lon="6.55151">
        <ele>289.96</ele>
        <time>2025-03-15T16:34:59.335Z</time>
      </trkpt>
      <trkpt lat="43.36028" lon="6.55163">
        <ele>289.68</ele>
        <time>2025-03-15T16:35:03.736Z</time>
      </trkpt>
      <trkpt lat="43.36036" lon="6.55174">
        <ele>289.36</ele>
        <time>2025-03-15T16:35:08.385Z</time>
      </trkpt>
      <trkpt lat="43.36054" lon="6.55203">
        <ele>289.02</ele>
        <time>2025-03-15T16:35:20.636Z</time>
      </trkpt>
      <trkpt lat="43.36056" lon="6.5521">
        <ele>288.66</ele>
        <time>2025-03-15T16:35:22.829Z</time>
      </trkpt>
      <trkpt lat="43.36059" lon="6.55216">
        <ele>288.28</ele>
        <time>2025-03-15T16:35:24.907Z</time>
      </trkpt>
      <trkpt lat="43.36061" lon="6.55223">
        <ele>287.87</ele>
        <time>2025-03-15T16:35:27.087Z</time>
      </trkpt>
      <trkpt lat="43.36063" lon="6.55229">
        <ele>287.45</ele>
        <time>2025-03-15T16:35:29.127Z</time>
      </trkpt>
      <trkpt lat="43.36071" lon="6.55245">
        <ele>287.01</ele>
        <time>2025-03-15T16:35:34.914Z</time>
      </trkpt>
      <trkpt lat="43.36077" lon="6.55261">
        <ele>286.52</ele>
        <time>2025-03-15T16:35:40.122Z</time>
      </trkpt>
      <trkpt lat="43.36082" lon="6.55274">
        <ele>285.99</ele>
        <time>2025-03-15T16:35:44.665Z</time>
      </trkpt>
      <trkpt lat="43.36084" lon="6.55283">
        <ele>285.45</ele>
        <time>2025-03-15T16:35:47.365Z</time>
      </trkpt>
      <trkpt lat="43.36091" lon="6.55299">
        <ele>284.85</ele>
        <time>2025-03-15T16:35:52.708Z</time>
      </trkpt>
      <trkpt lat="43.36094" lon="6.55307">
        <ele>284.27</ele>
        <time>2025-03-15T16:35:55.441Z</time>
      </trkpt>
      <trkpt lat="43.36098" lon="6.55316">
        <ele>283.66</ele>
        <time>2025-03-15T16:35:58.379Z</time>
      </trkpt>
      <trkpt lat="43.36102" lon="6.55324">
        <ele>283.03</ele>
        <time>2025-03-15T16:36:01.323Z</time>
      </trkpt>
      <trkpt lat="43.36106" lon="6.55335">
        <ele>282.39</ele>
        <time>2025-03-15T16:36:04.624Z</time>
      </trkpt>
      <trkpt lat="43.36108" lon="6.55346">
        <ele>281.74</ele>
        <time>2025-03-15T16:36:07.994Z</time>
      </trkpt>
      <trkpt lat="43.36111" lon="6.55357">
        <ele>281.08</ele>
        <time>2025-03-15T16:36:11.575Z</time>
      </trkpt>
      <trkpt lat="43.36113" lon="6.5537">
        <ele>280.41</ele>
        <time>2025-03-15T16:36:15.284Z</time>
      </trkpt>
      <trkpt lat="43.36113" lon="6.55382">
        <ele>279.73</ele>
        <time>2025-03-15T16:36:18.770Z</time>
      </trkpt>
      <trkpt lat="43.36111" lon="6.55395">
        <ele>279.04</ele>
        <time>2025-03-15T16:36:22.524Z</time>
      </trkpt>
      <trkpt lat="43.36109" lon="6.55407">
        <ele>278.34</ele>
        <time>2025-03-15T16:36:26.145Z</time>
      </trkpt>
      <trkpt lat="43.36107" lon="6.55418">
        <ele>277.63</ele>
        <time>2025-03-15T16:36:29.524Z</time>
      </trkpt>
      <trkpt lat="43.36105" lon="6.55429">
        <ele>276.92</ele>
        <time>2025-03-15T16:36:32.777Z</time>
      </trkpt>
      <trkpt lat="43.36103" lon="6.55439">
        <ele>276.21</ele>
        <time>2025-03-15T16:36:35.786Z</time>
      </trkpt>
      <trkpt lat="43.36101" lon="6.55449">
        <ele>275.49</ele>
        <time>2025-03-15T16:36:38.796Z</time>
      </trkpt>
      <trkpt lat="43.361" lon="6.55458">
        <ele>274.77</ele>
        <time>2025-03-15T16:36:41.482Z</time>
      </trkpt>
      <trkpt lat="43.36097" lon="6.55479">
        <ele>274.04</ele>
        <time>2025-03-15T16:36:47.838Z</time>
      </trkpt>
      <trkpt lat="43.36094" lon="6.5549">
        <ele>273.34</ele>
        <time>2025-03-15T16:36:51.007Z</time>
      </trkpt>
      <trkpt lat="43.3609" lon="6.555">
        <ele>272.61</ele>
        <time>2025-03-15T16:36:54.329Z</time>
      </trkpt>
      <trkpt lat="43.36085" lon="6.5551">
        <ele>271.92</ele>
        <time>2025-03-15T16:36:57.732Z</time>
      </trkpt>
      <trkpt lat="43.36081" lon="6.55519">
        <ele>271.23</ele>
        <time>2025-03-15T16:37:01.163Z</time>
      </trkpt>
      <trkpt lat="43.36075" lon="6.55527">
        <ele>270.55</ele>
        <time>2025-03-15T16:37:04.411Z</time>
      </trkpt>
      <trkpt lat="43.36069" lon="6.55535">
        <ele>269.86</ele>
        <time>2025-03-15T16:37:07.666Z</time>
      </trkpt>
      <trkpt lat="43.36062" lon="6.55542">
        <ele>269.19</ele>
        <time>2025-03-15T16:37:11.069Z</time>
      </trkpt>
      <trkpt lat="43.36056" lon="6.5555">
        <ele>268.53</ele>
        <time>2025-03-15T16:37:14.523Z</time>
      </trkpt>
      <trkpt lat="43.3605" lon="6.55559">
        <ele>267.87</ele>
        <time>2025-03-15T16:37:17.907Z</time>
      </trkpt>
      <trkpt lat="43.36045" lon="6.55568">
        <ele>267.23</ele>
        <time>2025-03-15T16:37:21.201Z</time>
      </trkpt>
      <trkpt lat="43.36042" lon="6.55578">
        <ele>266.6</ele>
        <time>2025-03-15T16:37:24.503Z</time>
      </trkpt>
      <trkpt lat="43.3604" lon="6.5559">
        <ele>265.99</ele>
        <time>2025-03-15T16:37:27.953Z</time>
      </trkpt>
      <trkpt lat="43.36041" lon="6.55601">
        <ele>265.4</ele>
        <time>2025-03-15T16:37:31.185Z</time>
      </trkpt>
      <trkpt lat="43.36043" lon="6.55612">
        <ele>264.82</ele>
        <time>2025-03-15T16:37:34.456Z</time>
      </trkpt>
      <trkpt lat="43.36047" lon="6.55623">
        <ele>264.28</ele>
        <time>2025-03-15T16:37:37.868Z</time>
      </trkpt>
      <trkpt lat="43.3605" lon="6.55634">
        <ele>263.76</ele>
        <time>2025-03-15T16:37:41.479Z</time>
      </trkpt>
      <trkpt lat="43.36054" lon="6.55646">
        <ele>263.27</ele>
        <time>2025-03-15T16:37:45.118Z</time>
      </trkpt>
      <trkpt lat="43.36057" lon="6.55657">
        <ele>262.82</ele>
        <time>2025-03-15T16:37:48.752Z</time>
      </trkpt>
      <trkpt lat="43.3606" lon="6.55669">
        <ele>262.39</ele>
        <time>2025-03-15T16:37:52.475Z</time>
      </trkpt>
      <trkpt lat="43.36063" lon="6.5568">
        <ele>261.98</ele>
        <time>2025-03-15T16:37:55.898Z</time>
      </trkpt>
      <trkpt lat="43.36066" lon="6.55691">
        <ele>261.61</ele>
        <time>2025-03-15T16:37:59.206Z</time>
      </trkpt>
      <trkpt lat="43.36068" lon="6.55701">
        <ele>261.25</ele>
        <time>2025-03-15T16:38:02.395Z</time>
      </trkpt>
      <trkpt lat="43.36071" lon="6.55711">
        <ele>260.91</ele>
        <time>2025-03-15T16:38:05.579Z</time>
      </trkpt>
      <trkpt lat="43.3608" lon="6.55742">
        <ele>260.57</ele>
        <time>2025-03-15T16:38:15.946Z</time>
      </trkpt>
      <trkpt lat="43.36081" lon="6.55752">
        <ele>260.28</ele>
        <time>2025-03-15T16:38:19.079Z</time>
      </trkpt>
      <trkpt lat="43.3608" lon="6.55763">
        <ele>260.04</ele>
        <time>2025-03-15T16:38:22.206Z</time>
      </trkpt>
      <trkpt lat="43.3608" lon="6.55773">
        <ele>259.82</ele>
        <time>2025-03-15T16:38:25.325Z</time>
      </trkpt>
      <trkpt lat="43.36081" lon="6.55782">
        <ele>259.64</ele>
        <time>2025-03-15T16:38:28.209Z</time>
      </trkpt>
      <trkpt lat="43.36082" lon="6.5579">
        <ele>259.49</ele>
        <time>2025-03-15T16:38:30.737Z</time>
      </trkpt>
      <trkpt lat="43.36083" lon="6.55797">
        <ele>259.37</ele>
        <time>2025-03-15T16:38:32.993Z</time>
      </trkpt>
      <trkpt lat="43.36085" lon="6.55804">
        <ele>259.28</ele>
        <time>2025-03-15T16:38:35.339Z</time>
      </trkpt>
      <trkpt lat="43.36088" lon="6.55818">
        <ele>259.22</ele>
        <time>2025-03-15T16:38:40.131Z</time>
      </trkpt>
      <trkpt lat="43.36093" lon="6.55843">
        <ele>259.17</ele>
        <time>2025-03-15T16:38:48.536Z</time>
      </trkpt>
      <trkpt lat="43.36095" lon="6.55861">
        <ele>259.13</ele>
        <time>2025-03-15T16:38:54.505Z</time>
      </trkpt>
      <trkpt lat="43.36102" lon="6.55909">
        <ele>259.17</ele>
        <time>2025-03-15T16:39:10.842Z</time>
      </trkpt>
      <trkpt lat="43.36107" lon="6.55937">
        <ele>259.18</ele>
        <time>2025-03-15T16:39:20.410Z</time>
      </trkpt>
      <trkpt lat="43.36107" lon="6.55944">
        <ele>259.22</ele>
        <time>2025-03-15T16:39:22.674Z</time>
      </trkpt>
      <trkpt lat="43.36109" lon="6.55957">
        <ele>259.29</ele>
        <time>2025-03-15T16:39:27.136Z</time>
      </trkpt>
      <trkpt lat="43.3611" lon="6.55974">
        <ele>259.39</ele>
        <time>2025-03-15T16:39:33.122Z</time>
      </trkpt>
      <trkpt lat="43.36111" lon="6.55994">
        <ele>259.5</ele>
        <time>2025-03-15T16:39:40.035Z</time>
      </trkpt>
      <trkpt lat="43.36113" lon="6.56002">
        <ele>259.61</ele>
        <time>2025-03-15T16:39:42.831Z</time>
      </trkpt>
      <trkpt lat="43.36115" lon="6.56009">
        <ele>259.72</ele>
        <time>2025-03-15T16:39:45.695Z</time>
      </trkpt>
      <trkpt lat="43.36125" lon="6.56036">
        <ele>259.81</ele>
        <time>2025-03-15T16:39:55.746Z</time>
      </trkpt>
      <trkpt lat="43.36126" lon="6.56042">
        <ele>259.94</ele>
        <time>2025-03-15T16:39:58.081Z</time>
      </trkpt>
      <trkpt lat="43.36124" lon="6.56067">
        <ele>260.07</ele>
        <time>2025-03-15T16:40:06.589Z</time>
      </trkpt>
      <trkpt lat="43.36123" lon="6.56079">
        <ele>260.21</ele>
        <time>2025-03-15T16:40:10.664Z</time>
      </trkpt>
      <trkpt lat="43.36124" lon="6.56097">
        <ele>260.35</ele>
        <time>2025-03-15T16:40:16.820Z</time>
      </trkpt>
      <trkpt lat="43.36125" lon="6.56103">
        <ele>260.48</ele>
        <time>2025-03-15T16:40:19.148Z</time>
      </trkpt>
      <trkpt lat="43.36126" lon="6.56109">
        <ele>260.61</ele>
        <time>2025-03-15T16:40:21.478Z</time>
      </trkpt>
      <trkpt lat="43.36127" lon="6.56116">
        <ele>260.75</ele>
        <time>2025-03-15T16:40:24.002Z</time>
      </trkpt>
      <trkpt lat="43.36129" lon="6.56122">
        <ele>260.88</ele>
        <time>2025-03-15T16:40:26.234Z</time>
      </trkpt>
      <trkpt lat="43.36131" lon="6.56134">
        <ele>261.01</ele>
        <time>2025-03-15T16:40:30.526Z</time>
      </trkpt>
      <trkpt lat="43.36132" lon="6.56149">
        <ele>261.11</ele>
        <time>2025-03-15T16:40:35.630Z</time>
      </trkpt>
      <trkpt lat="43.36128" lon="6.56185">
        <ele>261.16</ele>
        <time>2025-03-15T16:40:48.031Z</time>
      </trkpt>
      <trkpt lat="43.36129" lon="6.56209">
        <ele>261.23</ele>
        <time>2025-03-15T16:40:55.811Z</time>
      </trkpt>
      <trkpt lat="43.3613" lon="6.56232">
        <ele>261.26</ele>
        <time>2025-03-15T16:41:03.605Z</time>
      </trkpt>
      <trkpt lat="43.36124" lon="6.56282">
        <ele>261.28</ele>
        <time>2025-03-15T16:41:20.616Z</time>
      </trkpt>
      <trkpt lat="43.36115" lon="6.56319">
        <ele>261.32</ele>
        <time>2025-03-15T16:41:33.581Z</time>
      </trkpt>
      <trkpt lat="43.36104" lon="6.56367">
        <ele>261.34</ele>
        <time>2025-03-15T16:41:50.373Z</time>
      </trkpt>
      <trkpt lat="43.36095" lon="6.56412">
        <ele>261.33</ele>
        <time>2025-03-15T16:42:05.854Z</time>
      </trkpt>
      <trkpt lat="43.36094" lon="6.5642">
        <ele>261.3</ele>
        <time>2025-03-15T16:42:08.470Z</time>
      </trkpt>
      <trkpt lat="43.36088" lon="6.56442">
        <ele>261.25</ele>
        <time>2025-03-15T16:42:16.126Z</time>
      </trkpt>
      <trkpt lat="43.3608" lon="6.56462">
        <ele>261.17</ele>
        <time>2025-03-15T16:42:23.457Z</time>
      </trkpt>
      <trkpt lat="43.36071" lon="6.56478">
        <ele>261.06</ele>
        <time>2025-03-15T16:42:30.332Z</time>
      </trkpt>
      <trkpt lat="43.36061" lon="6.56495">
        <ele>260.91</ele>
        <time>2025-03-15T16:42:37.260Z</time>
      </trkpt>
      <trkpt lat="43.36034" lon="6.56532">
        <ele>260.78</ele>
        <time>2025-03-15T16:42:54.562Z</time>
      </trkpt>
      <trkpt lat="43.36018" lon="6.56549">
        <ele>260.55</ele>
        <time>2025-03-15T16:43:03.413Z</time>
      </trkpt>
      <trkpt lat="43.3601" lon="6.56554">
        <ele>260.29</ele>
        <time>2025-03-15T16:43:07.189Z</time>
      </trkpt>
      <trkpt lat="43.36002" lon="6.56558">
        <ele>260</ele>
        <time>2025-03-15T16:43:10.778Z</time>
      </trkpt>
      <trkpt lat="43.35997" lon="6.56559">
        <ele>259.69</ele>
        <time>2025-03-15T16:43:12.445Z</time>
      </trkpt>
      <trkpt lat="43.35993" lon="6.5656">
        <ele>259.34</ele>
        <time>2025-03-15T16:43:14.098Z</time>
      </trkpt>
      <trkpt lat="43.35989" lon="6.56561">
        <ele>258.97</ele>
        <time>2025-03-15T16:43:15.713Z</time>
      </trkpt>
      <trkpt lat="43.35986" lon="6.56564">
        <ele>258.57</ele>
        <time>2025-03-15T16:43:17.408Z</time>
      </trkpt>
      <trkpt lat="43.35977" lon="6.5658">
        <ele>258.13</ele>
        <time>2025-03-15T16:43:23.634Z</time>
      </trkpt>
      <trkpt lat="43.35973" lon="6.56599">
        <ele>257.69</ele>
        <time>2025-03-15T16:43:29.476Z</time>
      </trkpt>
      <trkpt lat="43.35972" lon="6.5661">
        <ele>257.24</ele>
        <time>2025-03-15T16:43:32.853Z</time>
      </trkpt>
      <trkpt lat="43.3597" lon="6.56621">
        <ele>256.76</ele>
        <time>2025-03-15T16:43:36.134Z</time>
      </trkpt>
      <trkpt lat="43.35969" lon="6.56633">
        <ele>256.27</ele>
        <time>2025-03-15T16:43:39.622Z</time>
      </trkpt>
      <trkpt lat="43.35966" lon="6.56646">
        <ele>255.74</ele>
        <time>2025-03-15T16:43:43.331Z</time>
      </trkpt>
      <trkpt lat="43.35963" lon="6.56659">
        <ele>255.19</ele>
        <time>2025-03-15T16:43:47.402Z</time>
      </trkpt>
      <trkpt lat="43.3596" lon="6.56673">
        <ele>254.64</ele>
        <time>2025-03-15T16:43:51.764Z</time>
      </trkpt>
      <trkpt lat="43.35956" lon="6.56688">
        <ele>254.07</ele>
        <time>2025-03-15T16:43:56.275Z</time>
      </trkpt>
      <trkpt lat="43.35952" lon="6.56701">
        <ele>253.51</ele>
        <time>2025-03-15T16:44:00.542Z</time>
      </trkpt>
      <trkpt lat="43.35948" lon="6.56715">
        <ele>252.93</ele>
        <time>2025-03-15T16:44:04.716Z</time>
      </trkpt>
      <trkpt lat="43.35944" lon="6.56728">
        <ele>252.37</ele>
        <time>2025-03-15T16:44:08.743Z</time>
      </trkpt>
      <trkpt lat="43.3594" lon="6.5674">
        <ele>251.8</ele>
        <time>2025-03-15T16:44:12.797Z</time>
      </trkpt>
      <trkpt lat="43.35936" lon="6.56753">
        <ele>251.24</ele>
        <time>2025-03-15T16:44:16.729Z</time>
      </trkpt>
      <trkpt lat="43.35932" lon="6.56765">
        <ele>250.68</ele>
        <time>2025-03-15T16:44:20.605Z</time>
      </trkpt>
      <trkpt lat="43.35927" lon="6.5679">
        <ele>250.14</ele>
        <time>2025-03-15T16:44:28.577Z</time>
      </trkpt>
      <trkpt lat="43.35925" lon="6.56802">
        <ele>249.65</ele>
        <time>2025-03-15T16:44:32.074Z</time>
      </trkpt>
      <trkpt lat="43.35923" lon="6.56813">
        <ele>249.17</ele>
        <time>2025-03-15T16:44:35.380Z</time>
      </trkpt>
      <trkpt lat="43.35921" lon="6.56824">
        <ele>248.7</ele>
        <time>2025-03-15T16:44:38.668Z</time>
      </trkpt>
      <trkpt lat="43.35919" lon="6.56835">
        <ele>248.26</ele>
        <time>2025-03-15T16:44:41.967Z</time>
      </trkpt>
      <trkpt lat="43.35911" lon="6.56855">
        <ele>247.81</ele>
        <time>2025-03-15T16:44:49.080Z</time>
      </trkpt>
      <trkpt lat="43.35907" lon="6.56864">
        <ele>247.36</ele>
        <time>2025-03-15T16:44:52.147Z</time>
      </trkpt>
      <trkpt lat="43.35903" lon="6.5687">
        <ele>246.91</ele>
        <time>2025-03-15T16:44:54.535Z</time>
      </trkpt>
      <trkpt lat="43.35899" lon="6.56874">
        <ele>246.49</ele>
        <time>2025-03-15T16:44:56.415Z</time>
      </trkpt>
      <trkpt lat="43.35895" lon="6.56876">
        <ele>246.09</ele>
        <time>2025-03-15T16:44:57.873Z</time>
      </trkpt>
      <trkpt lat="43.35892" lon="6.56877">
        <ele>245.71</ele>
        <time>2025-03-15T16:44:59.100Z</time>
      </trkpt>
      <trkpt lat="43.3589" lon="6.56877">
        <ele>245.35</ele>
        <time>2025-03-15T16:45:00.068Z</time>
      </trkpt>
      <trkpt lat="43.35888" lon="6.56878">
        <ele>245</ele>
        <time>2025-03-15T16:45:00.994Z</time>
      </trkpt>
      <trkpt lat="43.35886" lon="6.56879">
        <ele>244.68</ele>
        <time>2025-03-15T16:45:01.995Z</time>
      </trkpt>
      <trkpt lat="43.35883" lon="6.56886">
        <ele>244.35</ele>
        <time>2025-03-15T16:45:04.160Z</time>
      </trkpt>
      <trkpt lat="43.35879" lon="6.56891">
        <ele>244.06</ele>
        <time>2025-03-15T16:45:06.405Z</time>
      </trkpt>
      <trkpt lat="43.35872" lon="6.569">
        <ele>243.77</ele>
        <time>2025-03-15T16:45:10.385Z</time>
      </trkpt>
      <trkpt lat="43.35868" lon="6.56905">
        <ele>243.51</ele>
        <time>2025-03-15T16:45:12.524Z</time>
      </trkpt>
      <trkpt lat="43.35864" lon="6.56911">
        <ele>243.28</ele>
        <time>2025-03-15T16:45:14.819Z</time>
      </trkpt>
      <trkpt lat="43.3586" lon="6.56916">
        <ele>243.06</ele>
        <time>2025-03-15T16:45:17.120Z</time>
      </trkpt>
      <trkpt lat="43.35856" lon="6.56921">
        <ele>242.87</ele>
        <time>2025-03-15T16:45:19.307Z</time>
      </trkpt>
      <trkpt lat="43.35853" lon="6.56927">
        <ele>242.69</ele>
        <time>2025-03-15T16:45:21.400Z</time>
      </trkpt>
      <trkpt lat="43.35847" lon="6.56939">
        <ele>242.5</ele>
        <time>2025-03-15T16:45:25.977Z</time>
      </trkpt>
      <trkpt lat="43.35843" lon="6.56953">
        <ele>242.33</ele>
        <time>2025-03-15T16:45:30.780Z</time>
      </trkpt>
      <trkpt lat="43.3584" lon="6.5696">
        <ele>242.21</ele>
        <time>2025-03-15T16:45:33.183Z</time>
      </trkpt>
      <trkpt lat="43.35838" lon="6.56967">
        <ele>242.12</ele>
        <time>2025-03-15T16:45:35.791Z</time>
      </trkpt>
      <trkpt lat="43.35836" lon="6.56974">
        <ele>242.05</ele>
        <time>2025-03-15T16:45:38.182Z</time>
      </trkpt>
      <trkpt lat="43.35835" lon="6.56981">
        <ele>241.99</ele>
        <time>2025-03-15T16:45:40.336Z</time>
      </trkpt>
      <trkpt lat="43.35834" lon="6.56986">
        <ele>241.95</ele>
        <time>2025-03-15T16:45:41.996Z</time>
      </trkpt>
      <trkpt lat="43.35832" lon="6.57001">
        <ele>241.95</ele>
        <time>2025-03-15T16:45:46.979Z</time>
      </trkpt>
      <trkpt lat="43.3583" lon="6.57012">
        <ele>241.94</ele>
        <time>2025-03-15T16:45:50.645Z</time>
      </trkpt>
      <trkpt lat="43.35828" lon="6.5702">
        <ele>241.94</ele>
        <time>2025-03-15T16:45:53.535Z</time>
      </trkpt>
      <trkpt lat="43.35823" lon="6.57026">
        <ele>241.94</ele>
        <time>2025-03-15T16:45:56.580Z</time>
      </trkpt>
      <trkpt lat="43.35815" lon="6.57037">
        <ele>241.97</ele>
        <time>2025-03-15T16:46:01.949Z</time>
      </trkpt>
      <trkpt lat="43.35808" lon="6.57047">
        <ele>242</ele>
        <time>2025-03-15T16:46:06.554Z</time>
      </trkpt>
      <trkpt lat="43.35795" lon="6.5707">
        <ele>242.02</ele>
        <time>2025-03-15T16:46:16.197Z</time>
      </trkpt>
      <trkpt lat="43.35788" lon="6.5708">
        <ele>242</ele>
        <time>2025-03-15T16:46:20.915Z</time>
      </trkpt>
      <trkpt lat="43.35772" lon="6.57105">
        <ele>241.98</ele>
        <time>2025-03-15T16:46:31.857Z</time>
      </trkpt>
      <trkpt lat="43.3577" lon="6.57111">
        <ele>241.93</ele>
        <time>2025-03-15T16:46:34.158Z</time>
      </trkpt>
      <trkpt lat="43.35762" lon="6.57131">
        <ele>241.83</ele>
        <time>2025-03-15T16:46:41.514Z</time>
      </trkpt>
      <trkpt lat="43.35757" lon="6.57145">
        <ele>241.76</ele>
        <time>2025-03-15T16:46:46.548Z</time>
      </trkpt>
      <trkpt lat="43.35747" lon="6.57171">
        <ele>241.63</ele>
        <time>2025-03-15T16:46:56.132Z</time>
      </trkpt>
      <trkpt lat="43.35744" lon="6.57177">
        <ele>241.49</ele>
        <time>2025-03-15T16:46:58.446Z</time>
      </trkpt>
      <trkpt lat="43.35737" lon="6.57189">
        <ele>241.32</ele>
        <time>2025-03-15T16:47:03.315Z</time>
      </trkpt>
      <trkpt lat="43.35734" lon="6.57195">
        <ele>241.14</ele>
        <time>2025-03-15T16:47:05.444Z</time>
      </trkpt>
      <trkpt lat="43.35731" lon="6.57201">
        <ele>240.91</ele>
        <time>2025-03-15T16:47:07.544Z</time>
      </trkpt>
      <trkpt lat="43.3573" lon="6.57208">
        <ele>240.66</ele>
        <time>2025-03-15T16:47:09.761Z</time>
      </trkpt>
      <trkpt lat="43.35729" lon="6.57221">
        <ele>240.38</ele>
        <time>2025-03-15T16:47:13.641Z</time>
      </trkpt>
      <trkpt lat="43.35729" lon="6.57227">
        <ele>240.05</ele>
        <time>2025-03-15T16:47:15.387Z</time>
      </trkpt>
      <trkpt lat="43.35725" lon="6.57256">
        <ele>239.65</ele>
        <time>2025-03-15T16:47:24.454Z</time>
      </trkpt>
      <trkpt lat="43.35723" lon="6.57263">
        <ele>239.23</ele>
        <time>2025-03-15T16:47:26.730Z</time>
      </trkpt>
      <trkpt lat="43.35721" lon="6.57271">
        <ele>238.77</ele>
        <time>2025-03-15T16:47:29.135Z</time>
      </trkpt>
      <trkpt lat="43.3572" lon="6.57279">
        <ele>238.27</ele>
        <time>2025-03-15T16:47:31.576Z</time>
      </trkpt>
      <trkpt lat="43.35718" lon="6.57287">
        <ele>237.74</ele>
        <time>2025-03-15T16:47:34.129Z</time>
      </trkpt>
      <trkpt lat="43.35718" lon="6.57296">
        <ele>237.17</ele>
        <time>2025-03-15T16:47:36.615Z</time>
      </trkpt>
      <trkpt lat="43.35716" lon="6.57304">
        <ele>236.55</ele>
        <time>2025-03-15T16:47:38.908Z</time>
      </trkpt>
      <trkpt lat="43.35714" lon="6.57311">
        <ele>235.89</ele>
        <time>2025-03-15T16:47:41.245Z</time>
      </trkpt>
      <trkpt lat="43.35712" lon="6.57318">
        <ele>235.18</ele>
        <time>2025-03-15T16:47:43.626Z</time>
      </trkpt>
      <trkpt lat="43.35709" lon="6.57327">
        <ele>234.43</ele>
        <time>2025-03-15T16:47:46.242Z</time>
      </trkpt>
      <trkpt lat="43.35707" lon="6.57335">
        <ele>233.64</ele>
        <time>2025-03-15T16:47:48.924Z</time>
      </trkpt>
      <trkpt lat="43.35704" lon="6.57344">
        <ele>232.79</ele>
        <time>2025-03-15T16:47:51.650Z</time>
      </trkpt>
      <trkpt lat="43.357" lon="6.57352">
        <ele>231.91</ele>
        <time>2025-03-15T16:47:54.346Z</time>
      </trkpt>
      <trkpt lat="43.35696" lon="6.57358">
        <ele>231.01</ele>
        <time>2025-03-15T16:47:56.873Z</time>
      </trkpt>
      <trkpt lat="43.3569" lon="6.57363">
        <ele>230.08</ele>
        <time>2025-03-15T16:47:59.626Z</time>
      </trkpt>
      <trkpt lat="43.35684" lon="6.57366">
        <ele>229.1</ele>
        <time>2025-03-15T16:48:02.283Z</time>
      </trkpt>
      <trkpt lat="43.35677" lon="6.57369">
        <ele>228.08</ele>
        <time>2025-03-15T16:48:04.935Z</time>
      </trkpt>
      <trkpt lat="43.35671" lon="6.57371">
        <ele>227.02</ele>
        <time>2025-03-15T16:48:07.478Z</time>
      </trkpt>
      <trkpt lat="43.35666" lon="6.57374">
        <ele>225.94</ele>
        <time>2025-03-15T16:48:09.832Z</time>
      </trkpt>
      <trkpt lat="43.35655" lon="6.57378">
        <ele>224.8</ele>
        <time>2025-03-15T16:48:14.477Z</time>
      </trkpt>
      <trkpt lat="43.35639" lon="6.57388">
        <ele>223.6</ele>
        <time>2025-03-15T16:48:21.212Z</time>
      </trkpt>
      <trkpt lat="43.35635" lon="6.57394">
        <ele>222.41</ele>
        <time>2025-03-15T16:48:23.392Z</time>
      </trkpt>
      <trkpt lat="43.35633" lon="6.57401">
        <ele>221.15</ele>
        <time>2025-03-15T16:48:25.686Z</time>
      </trkpt>
      <trkpt lat="43.3563" lon="6.57408">
        <ele>219.87</ele>
        <time>2025-03-15T16:48:28.055Z</time>
      </trkpt>
      <trkpt lat="43.35626" lon="6.57414">
        <ele>218.55</ele>
        <time>2025-03-15T16:48:30.307Z</time>
      </trkpt>
      <trkpt lat="43.35621" lon="6.57417">
        <ele>217.22</ele>
        <time>2025-03-15T16:48:32.565Z</time>
      </trkpt>
      <trkpt lat="43.35615" lon="6.57421">
        <ele>215.84</ele>
        <time>2025-03-15T16:48:35.280Z</time>
      </trkpt>
      <trkpt lat="43.35609" lon="6.57425">
        <ele>214.45</ele>
        <time>2025-03-15T16:48:37.884Z</time>
      </trkpt>
      <trkpt lat="43.35604" lon="6.5743">
        <ele>213.03</ele>
        <time>2025-03-15T16:48:40.558Z</time>
      </trkpt>
      <trkpt lat="43.35598" lon="6.57435">
        <ele>211.58</ele>
        <time>2025-03-15T16:48:43.266Z</time>
      </trkpt>
      <trkpt lat="43.35594" lon="6.57441">
        <ele>210.13</ele>
        <time>2025-03-15T16:48:45.703Z</time>
      </trkpt>
      <trkpt lat="43.35591" lon="6.57448">
        <ele>208.68</ele>
        <time>2025-03-15T16:48:47.828Z</time>
      </trkpt>
      <trkpt lat="43.35589" lon="6.57455">
        <ele>207.21</ele>
        <time>2025-03-15T16:48:50.025Z</time>
      </trkpt>
      <trkpt lat="43.35588" lon="6.57461">
        <ele>205.74</ele>
        <time>2025-03-15T16:48:52.063Z</time>
      </trkpt>
      <trkpt lat="43.35586" lon="6.57468">
        <ele>204.27</ele>
        <time>2025-03-15T16:48:54.204Z</time>
      </trkpt>
      <trkpt lat="43.35584" lon="6.57475">
        <ele>202.8</ele>
        <time>2025-03-15T16:48:56.209Z</time>
      </trkpt>
      <trkpt lat="43.35582" lon="6.5748">
        <ele>201.33</ele>
        <time>2025-03-15T16:48:57.961Z</time>
      </trkpt>
      <trkpt lat="43.3558" lon="6.57486">
        <ele>199.87</ele>
        <time>2025-03-15T16:48:59.913Z</time>
      </trkpt>
      <trkpt lat="43.35576" lon="6.57491">
        <ele>198.4</ele>
        <time>2025-03-15T16:49:01.908Z</time>
      </trkpt>
      <trkpt lat="43.35573" lon="6.57497">
        <ele>196.93</ele>
        <time>2025-03-15T16:49:04.047Z</time>
      </trkpt>
      <trkpt lat="43.35569" lon="6.57502">
        <ele>195.47</ele>
        <time>2025-03-15T16:49:06.407Z</time>
      </trkpt>
      <trkpt lat="43.35564" lon="6.57509">
        <ele>194</ele>
        <time>2025-03-15T16:49:08.879Z</time>
      </trkpt>
      <trkpt lat="43.35559" lon="6.57515">
        <ele>192.56</ele>
        <time>2025-03-15T16:49:11.658Z</time>
      </trkpt>
      <trkpt lat="43.35555" lon="6.57522">
        <ele>191.17</ele>
        <time>2025-03-15T16:49:14.375Z</time>
      </trkpt>
      <trkpt lat="43.35551" lon="6.5753">
        <ele>189.8</ele>
        <time>2025-03-15T16:49:17.141Z</time>
      </trkpt>
      <trkpt lat="43.35547" lon="6.57538">
        <ele>188.41</ele>
        <time>2025-03-15T16:49:19.927Z</time>
      </trkpt>
      <trkpt lat="43.35545" lon="6.57548">
        <ele>187.05</ele>
        <time>2025-03-15T16:49:22.801Z</time>
      </trkpt>
      <trkpt lat="43.35542" lon="6.57558">
        <ele>185.71</ele>
        <time>2025-03-15T16:49:26.124Z</time>
      </trkpt>
      <trkpt lat="43.35539" lon="6.57569">
        <ele>184.37</ele>
        <time>2025-03-15T16:49:29.405Z</time>
      </trkpt>
      <trkpt lat="43.35537" lon="6.5758">
        <ele>183.1</ele>
        <time>2025-03-15T16:49:32.828Z</time>
      </trkpt>
      <trkpt lat="43.35536" lon="6.57592">
        <ele>181.83</ele>
        <time>2025-03-15T16:49:36.285Z</time>
      </trkpt>
      <trkpt lat="43.35535" lon="6.57603">
        <ele>180.58</ele>
        <time>2025-03-15T16:49:39.557Z</time>
      </trkpt>
      <trkpt lat="43.35534" lon="6.57614">
        <ele>179.38</ele>
        <time>2025-03-15T16:49:42.669Z</time>
      </trkpt>
      <trkpt lat="43.35533" lon="6.57623">
        <ele>178.19</ele>
        <time>2025-03-15T16:49:45.389Z</time>
      </trkpt>
      <trkpt lat="43.35531" lon="6.57632">
        <ele>177.09</ele>
        <time>2025-03-15T16:49:47.937Z</time>
      </trkpt>
      <trkpt lat="43.35528" lon="6.57638">
        <ele>176.02</ele>
        <time>2025-03-15T16:49:50.139Z</time>
      </trkpt>
      <trkpt lat="43.35524" lon="6.57644">
        <ele>174.99</ele>
        <time>2025-03-15T16:49:52.625Z</time>
      </trkpt>
      <trkpt lat="43.35519" lon="6.57651">
        <ele>173.96</ele>
        <time>2025-03-15T16:49:55.411Z</time>
      </trkpt>
      <trkpt lat="43.35514" lon="6.5766">
        <ele>172.97</ele>
        <time>2025-03-15T16:49:58.605Z</time>
      </trkpt>
      <trkpt lat="43.35511" lon="6.57671">
        <ele>172.06</ele>
        <time>2025-03-15T16:50:01.966Z</time>
      </trkpt>
      <trkpt lat="43.35509" lon="6.57681">
        <ele>171.19</ele>
        <time>2025-03-15T16:50:05.071Z</time>
      </trkpt>
      <trkpt lat="43.35507" lon="6.5769">
        <ele>170.39</ele>
        <time>2025-03-15T16:50:07.823Z</time>
      </trkpt>
      <trkpt lat="43.35504" lon="6.57697">
        <ele>169.63</ele>
        <time>2025-03-15T16:50:10.265Z</time>
      </trkpt>
      <trkpt lat="43.35499" lon="6.57703">
        <ele>168.9</ele>
        <time>2025-03-15T16:50:12.769Z</time>
      </trkpt>
      <trkpt lat="43.35495" lon="6.57709">
        <ele>168.24</ele>
        <time>2025-03-15T16:50:15.205Z</time>
      </trkpt>
      <trkpt lat="43.3549" lon="6.57715">
        <ele>167.62</ele>
        <time>2025-03-15T16:50:17.759Z</time>
      </trkpt>
      <trkpt lat="43.35486" lon="6.57721">
        <ele>167.06</ele>
        <time>2025-03-15T16:50:20.258Z</time>
      </trkpt>
      <trkpt lat="43.3548" lon="6.57725">
        <ele>166.56</ele>
        <time>2025-03-15T16:50:22.805Z</time>
      </trkpt>
      <trkpt lat="43.35475" lon="6.57729">
        <ele>166.11</ele>
        <time>2025-03-15T16:50:25.246Z</time>
      </trkpt>
      <trkpt lat="43.35469" lon="6.57733">
        <ele>165.72</ele>
        <time>2025-03-15T16:50:27.868Z</time>
      </trkpt>
      <trkpt lat="43.35464" lon="6.57737">
        <ele>165.37</ele>
        <time>2025-03-15T16:50:30.152Z</time>
      </trkpt>
      <trkpt lat="43.35454" lon="6.57745">
        <ele>165.07</ele>
        <time>2025-03-15T16:50:34.882Z</time>
      </trkpt>
      <trkpt lat="43.35437" lon="6.5777">
        <ele>164.82</ele>
        <time>2025-03-15T16:50:46.015Z</time>
      </trkpt>
      <trkpt lat="43.35426" lon="6.57779">
        <ele>164.63</ele>
        <time>2025-03-15T16:50:51.639Z</time>
      </trkpt>
      <trkpt lat="43.3542" lon="6.57783">
        <ele>164.49</ele>
        <time>2025-03-15T16:50:54.472Z</time>
      </trkpt>
      <trkpt lat="43.35414" lon="6.57786">
        <ele>164.4</ele>
        <time>2025-03-15T16:50:57.582Z</time>
      </trkpt>
      <trkpt lat="43.35406" lon="6.5779">
        <ele>164.35</ele>
        <time>2025-03-15T16:51:00.963Z</time>
      </trkpt>
      <trkpt lat="43.35399" lon="6.57792">
        <ele>164.35</ele>
        <time>2025-03-15T16:51:04.352Z</time>
      </trkpt>
      <trkpt lat="43.35392" lon="6.57793">
        <ele>164.41</ele>
        <time>2025-03-15T16:51:07.909Z</time>
      </trkpt>
      <trkpt lat="43.35385" lon="6.57794">
        <ele>164.51</ele>
        <time>2025-03-15T16:51:11.077Z</time>
      </trkpt>
      <trkpt lat="43.35379" lon="6.57796">
        <ele>164.66</ele>
        <time>2025-03-15T16:51:14.086Z</time>
      </trkpt>
      <trkpt lat="43.35374" lon="6.57799">
        <ele>164.85</ele>
        <time>2025-03-15T16:51:16.829Z</time>
      </trkpt>
      <trkpt lat="43.3537" lon="6.57801">
        <ele>165.09</ele>
        <time>2025-03-15T16:51:19.323Z</time>
      </trkpt>
      <trkpt lat="43.35358" lon="6.57808">
        <ele>165.39</ele>
        <time>2025-03-15T16:51:25.451Z</time>
      </trkpt>
      <trkpt lat="43.35355" lon="6.5781">
        <ele>165.7</ele>
        <time>2025-03-15T16:51:27.662Z</time>
      </trkpt>
      <trkpt lat="43.35351" lon="6.57812">
        <ele>166.04</ele>
        <time>2025-03-15T16:51:30.031Z</time>
      </trkpt>
      <trkpt lat="43.35347" lon="6.57813">
        <ele>166.42</ele>
        <time>2025-03-15T16:51:32.543Z</time>
      </trkpt>
      <trkpt lat="43.35344" lon="6.57813">
        <ele>166.82</ele>
        <time>2025-03-15T16:51:34.927Z</time>
      </trkpt>
      <trkpt lat="43.3534" lon="6.57813">
        <ele>167.25</ele>
        <time>2025-03-15T16:51:37.357Z</time>
      </trkpt>
      <trkpt lat="43.35333" lon="6.57811">
        <ele>167.71</ele>
        <time>2025-03-15T16:51:41.351Z</time>
      </trkpt>
      <trkpt lat="43.35324" lon="6.57805">
        <ele>168.19</ele>
        <time>2025-03-15T16:51:46.730Z</time>
      </trkpt>
      <trkpt lat="43.35321" lon="6.57804">
        <ele>168.66</ele>
        <time>2025-03-15T16:51:49.210Z</time>
      </trkpt>
      <trkpt lat="43.35318" lon="6.57804">
        <ele>169.16</ele>
        <time>2025-03-15T16:51:51.726Z</time>
      </trkpt>
      <trkpt lat="43.35315" lon="6.57806">
        <ele>169.67</ele>
        <time>2025-03-15T16:51:54.106Z</time>
      </trkpt>
      <trkpt lat="43.35314" lon="6.57809">
        <ele>170.19</ele>
        <time>2025-03-15T16:51:56.512Z</time>
      </trkpt>
      <trkpt lat="43.35313" lon="6.57814">
        <ele>170.7</ele>
        <time>2025-03-15T16:51:59.104Z</time>
      </trkpt>
      <trkpt lat="43.35311" lon="6.57819">
        <ele>171.21</ele>
        <time>2025-03-15T16:52:01.855Z</time>
      </trkpt>
      <trkpt lat="43.35308" lon="6.5784">
        <ele>171.74</ele>
        <time>2025-03-15T16:52:09.940Z</time>
      </trkpt>
      <trkpt lat="43.35304" lon="6.57871">
        <ele>172.26</ele>
        <time>2025-03-15T16:52:21.230Z</time>
      </trkpt>
      <trkpt lat="43.35298" lon="6.57902">
        <ele>172.78</ele>
        <time>2025-03-15T16:52:32.613Z</time>
      </trkpt>
      <trkpt lat="43.35293" lon="6.57908">
        <ele>173.31</ele>
        <time>2025-03-15T16:52:36.365Z</time>
      </trkpt>
      <trkpt lat="43.35287" lon="6.57909">
        <ele>173.82</ele>
        <time>2025-03-15T16:52:40.056Z</time>
      </trkpt>
      <trkpt lat="43.35284" lon="6.57909">
        <ele>174.31</ele>
        <time>2025-03-15T16:52:42.476Z</time>
      </trkpt>
      <trkpt lat="43.35282" lon="6.57908">
        <ele>174.78</ele>
        <time>2025-03-15T16:52:44.733Z</time>
      </trkpt>
      <trkpt lat="43.3528" lon="6.57905">
        <ele>175.25</ele>
        <time>2025-03-15T16:52:46.891Z</time>
      </trkpt>
      <trkpt lat="43.35279" lon="6.57902">
        <ele>175.71</ele>
        <time>2025-03-15T16:52:49.020Z</time>
      </trkpt>
      <trkpt lat="43.35278" lon="6.57899">
        <ele>176.14</ele>
        <time>2025-03-15T16:52:51.000Z</time>
      </trkpt>
      <trkpt lat="43.35279" lon="6.57891">
        <ele>176.55</ele>
        <time>2025-03-15T16:52:54.474Z</time>
      </trkpt>
      <trkpt lat="43.3528" lon="6.57888">
        <ele>176.92</ele>
        <time>2025-03-15T16:52:56.335Z</time>
      </trkpt>
      <trkpt lat="43.3528" lon="6.57885">
        <ele>177.27</ele>
        <time>2025-03-15T16:52:58.126Z</time>
      </trkpt>
      <trkpt lat="43.35279" lon="6.57881">
        <ele>177.58</ele>
        <time>2025-03-15T16:52:59.883Z</time>
      </trkpt>
      <trkpt lat="43.35278" lon="6.57878">
        <ele>177.88</ele>
        <time>2025-03-15T16:53:01.537Z</time>
      </trkpt>
      <trkpt lat="43.35277" lon="6.57875">
        <ele>178.14</ele>
        <time>2025-03-15T16:53:03.208Z</time>
      </trkpt>
      <trkpt lat="43.35271" lon="6.57868">
        <ele>178.37</ele>
        <time>2025-03-15T16:53:07.141Z</time>
      </trkpt>
      <trkpt lat="43.35268" lon="6.57867">
        <ele>178.55</ele>
        <time>2025-03-15T16:53:08.724Z</time>
      </trkpt>
      <trkpt lat="43.35265" lon="6.57867">
        <ele>178.7</ele>
        <time>2025-03-15T16:53:10.275Z</time>
      </trkpt>
      <trkpt lat="43.35262" lon="6.57867">
        <ele>178.81</ele>
        <time>2025-03-15T16:53:11.849Z</time>
      </trkpt>
      <trkpt lat="43.35259" lon="6.57868">
        <ele>178.87</ele>
        <time>2025-03-15T16:53:13.447Z</time>
      </trkpt>
      <trkpt lat="43.35255" lon="6.57868">
        <ele>178.9</ele>
        <time>2025-03-15T16:53:15.223Z</time>
      </trkpt>
      <trkpt lat="43.35248" lon="6.57866">
        <ele>178.88</ele>
        <time>2025-03-15T16:53:18.671Z</time>
      </trkpt>
      <trkpt lat="43.35234" lon="6.5785">
        <ele>178.8</ele>
        <time>2025-03-15T16:53:26.832Z</time>
      </trkpt>
      <trkpt lat="43.35229" lon="6.57828">
        <ele>178.7</ele>
        <time>2025-03-15T16:53:34.336Z</time>
      </trkpt>
      <trkpt lat="43.35223" lon="6.57817">
        <ele>178.55</ele>
        <time>2025-03-15T16:53:38.827Z</time>
      </trkpt>
      <trkpt lat="43.35217" lon="6.57806">
        <ele>178.35</ele>
        <time>2025-03-15T16:53:43.155Z</time>
      </trkpt>
      <trkpt lat="43.35215" lon="6.578">
        <ele>178.1</ele>
        <time>2025-03-15T16:53:44.867Z</time>
      </trkpt>
      <trkpt lat="43.35212" lon="6.57797">
        <ele>177.8</ele>
        <time>2025-03-15T16:53:46.432Z</time>
      </trkpt>
      <trkpt lat="43.35209" lon="6.57796">
        <ele>177.47</ele>
        <time>2025-03-15T16:53:47.466Z</time>
      </trkpt>
      <trkpt lat="43.35207" lon="6.57797">
        <ele>177.1</ele>
        <time>2025-03-15T16:53:48.415Z</time>
      </trkpt>
      <trkpt lat="43.35206" lon="6.57801">
        <ele>176.67</ele>
        <time>2025-03-15T16:53:49.685Z</time>
      </trkpt>
      <trkpt lat="43.35205" lon="6.57807">
        <ele>176.21</ele>
        <time>2025-03-15T16:53:51.252Z</time>
      </trkpt>
      <trkpt lat="43.35204" lon="6.57812">
        <ele>175.69</ele>
        <time>2025-03-15T16:53:53.000Z</time>
      </trkpt>
      <trkpt lat="43.35204" lon="6.57819">
        <ele>175.12</ele>
        <time>2025-03-15T16:53:54.954Z</time>
      </trkpt>
      <trkpt lat="43.35203" lon="6.57826">
        <ele>174.5</ele>
        <time>2025-03-15T16:53:57.065Z</time>
      </trkpt>
      <trkpt lat="43.35203" lon="6.57834">
        <ele>173.84</ele>
        <time>2025-03-15T16:53:59.343Z</time>
      </trkpt>
      <trkpt lat="43.35204" lon="6.57842">
        <ele>173.13</ele>
        <time>2025-03-15T16:54:01.730Z</time>
      </trkpt>
      <trkpt lat="43.35204" lon="6.57852">
        <ele>172.38</ele>
        <time>2025-03-15T16:54:04.445Z</time>
      </trkpt>
      <trkpt lat="43.35203" lon="6.57862">
        <ele>171.57</ele>
        <time>2025-03-15T16:54:07.426Z</time>
      </trkpt>
      <trkpt lat="43.35203" lon="6.57871">
        <ele>170.73</ele>
        <time>2025-03-15T16:54:10.180Z</time>
      </trkpt>
      <trkpt lat="43.35204" lon="6.57879">
        <ele>169.85</ele>
        <time>2025-03-15T16:54:12.465Z</time>
      </trkpt>
      <trkpt lat="43.35204" lon="6.57887">
        <ele>168.93</ele>
        <time>2025-03-15T16:54:14.812Z</time>
      </trkpt>
      <trkpt lat="43.35205" lon="6.57896">
        <ele>168</ele>
        <time>2025-03-15T16:54:17.273Z</time>
      </trkpt>
      <trkpt lat="43.35207" lon="6.57904">
        <ele>167.05</ele>
        <time>2025-03-15T16:54:19.796Z</time>
      </trkpt>
      <trkpt lat="43.35208" lon="6.57912">
        <ele>166.06</ele>
        <time>2025-03-15T16:54:22.150Z</time>
      </trkpt>
      <trkpt lat="43.3521" lon="6.5792">
        <ele>165.05</ele>
        <time>2025-03-15T16:54:24.521Z</time>
      </trkpt>
      <trkpt lat="43.35211" lon="6.57927">
        <ele>164</ele>
        <time>2025-03-15T16:54:26.661Z</time>
      </trkpt>
      <trkpt lat="43.35211" lon="6.57934">
        <ele>162.92</ele>
        <time>2025-03-15T16:54:28.687Z</time>
      </trkpt>
      <trkpt lat="43.3521" lon="6.57942">
        <ele>161.82</ele>
        <time>2025-03-15T16:54:31.018Z</time>
      </trkpt>
      <trkpt lat="43.35209" lon="6.5795">
        <ele>160.68</ele>
        <time>2025-03-15T16:54:33.426Z</time>
      </trkpt>
      <trkpt lat="43.35208" lon="6.57959">
        <ele>159.53</ele>
        <time>2025-03-15T16:54:36.193Z</time>
      </trkpt>
      <trkpt lat="43.35207" lon="6.57968">
        <ele>158.37</ele>
        <time>2025-03-15T16:54:38.686Z</time>
      </trkpt>
      <trkpt lat="43.35207" lon="6.57976">
        <ele>157.2</ele>
        <time>2025-03-15T16:54:41.014Z</time>
      </trkpt>
      <trkpt lat="43.35208" lon="6.57985">
        <ele>156.01</ele>
        <time>2025-03-15T16:54:43.683Z</time>
      </trkpt>
      <trkpt lat="43.35207" lon="6.57994">
        <ele>154.81</ele>
        <time>2025-03-15T16:54:46.388Z</time>
      </trkpt>
      <trkpt lat="43.35205" lon="6.58004">
        <ele>153.62</ele>
        <time>2025-03-15T16:54:49.411Z</time>
      </trkpt>
      <trkpt lat="43.35202" lon="6.58015">
        <ele>152.4</ele>
        <time>2025-03-15T16:54:52.539Z</time>
      </trkpt>
      <trkpt lat="43.35199" lon="6.58026">
        <ele>151.22</ele>
        <time>2025-03-15T16:54:55.964Z</time>
      </trkpt>
      <trkpt lat="43.35195" lon="6.58036">
        <ele>150.03</ele>
        <time>2025-03-15T16:54:59.516Z</time>
      </trkpt>
      <trkpt lat="43.35191" lon="6.58047">
        <ele>148.86</ele>
        <time>2025-03-15T16:55:03.105Z</time>
      </trkpt>
      <trkpt lat="43.35188" lon="6.58059">
        <ele>147.69</ele>
        <time>2025-03-15T16:55:06.808Z</time>
      </trkpt>
      <trkpt lat="43.35185" lon="6.5807">
        <ele>146.54</ele>
        <time>2025-03-15T16:55:10.153Z</time>
      </trkpt>
      <trkpt lat="43.35183" lon="6.58081">
        <ele>145.43</ele>
        <time>2025-03-15T16:55:13.447Z</time>
      </trkpt>
      <trkpt lat="43.35181" lon="6.58092">
        <ele>144.38</ele>
        <time>2025-03-15T16:55:16.752Z</time>
      </trkpt>
      <trkpt lat="43.35182" lon="6.58104">
        <ele>143.36</ele>
        <time>2025-03-15T16:55:20.040Z</time>
      </trkpt>
      <trkpt lat="43.35184" lon="6.58114">
        <ele>142.38</ele>
        <time>2025-03-15T16:55:23.228Z</time>
      </trkpt>
      <trkpt lat="43.35187" lon="6.58124">
        <ele>141.45</ele>
        <time>2025-03-15T16:55:26.452Z</time>
      </trkpt>
      <trkpt lat="43.35192" lon="6.58134">
        <ele>140.54</ele>
        <time>2025-03-15T16:55:29.685Z</time>
      </trkpt>
      <trkpt lat="43.35196" lon="6.58142">
        <ele>139.64</ele>
        <time>2025-03-15T16:55:32.736Z</time>
      </trkpt>
      <trkpt lat="43.35199" lon="6.58151">
        <ele>138.76</ele>
        <time>2025-03-15T16:55:35.636Z</time>
      </trkpt>
      <trkpt lat="43.35199" lon="6.5816">
        <ele>137.92</ele>
        <time>2025-03-15T16:55:37.975Z</time>
      </trkpt>
      <trkpt lat="43.35198" lon="6.58166">
        <ele>137.12</ele>
        <time>2025-03-15T16:55:39.977Z</time>
      </trkpt>
      <trkpt lat="43.35196" lon="6.58171">
        <ele>136.35</ele>
        <time>2025-03-15T16:55:41.600Z</time>
      </trkpt>
      <trkpt lat="43.35195" lon="6.58176">
        <ele>135.6</ele>
        <time>2025-03-15T16:55:43.136Z</time>
      </trkpt>
      <trkpt lat="43.35192" lon="6.58181">
        <ele>134.89</ele>
        <time>2025-03-15T16:55:44.782Z</time>
      </trkpt>
      <trkpt lat="43.3519" lon="6.58185">
        <ele>134.19</ele>
        <time>2025-03-15T16:55:46.453Z</time>
      </trkpt>
      <trkpt lat="43.35186" lon="6.5819">
        <ele>133.51</ele>
        <time>2025-03-15T16:55:48.326Z</time>
      </trkpt>
      <trkpt lat="43.35182" lon="6.58194">
        <ele>132.86</ele>
        <time>2025-03-15T16:55:50.429Z</time>
      </trkpt>
      <trkpt lat="43.35178" lon="6.58199">
        <ele>132.24</ele>
        <time>2025-03-15T16:55:52.568Z</time>
      </trkpt>
      <trkpt lat="43.35174" lon="6.58205">
        <ele>131.62</ele>
        <time>2025-03-15T16:55:54.822Z</time>
      </trkpt>
      <trkpt lat="43.35162" lon="6.5823">
        <ele>130.98</ele>
        <time>2025-03-15T16:56:04.028Z</time>
      </trkpt>
      <trkpt lat="43.35158" lon="6.58235">
        <ele>130.42</ele>
        <time>2025-03-15T16:56:06.213Z</time>
      </trkpt>
      <trkpt lat="43.35154" lon="6.58239">
        <ele>129.87</ele>
        <time>2025-03-15T16:56:08.326Z</time>
      </trkpt>
      <trkpt lat="43.3515" lon="6.58244">
        <ele>129.36</ele>
        <time>2025-03-15T16:56:10.331Z</time>
      </trkpt>
      <trkpt lat="43.35146" lon="6.58248">
        <ele>128.88</ele>
        <time>2025-03-15T16:56:12.249Z</time>
      </trkpt>
      <trkpt lat="43.35143" lon="6.58253">
        <ele>128.42</ele>
        <time>2025-03-15T16:56:14.164Z</time>
      </trkpt>
      <trkpt lat="43.3514" lon="6.58257">
        <ele>127.97</ele>
        <time>2025-03-15T16:56:16.019Z</time>
      </trkpt>
      <trkpt lat="43.35135" lon="6.58261">
        <ele>127.56</ele>
        <time>2025-03-15T16:56:18.374Z</time>
      </trkpt>
      <trkpt lat="43.35128" lon="6.58266">
        <ele>127.13</ele>
        <time>2025-03-15T16:56:21.270Z</time>
      </trkpt>
      <trkpt lat="43.35122" lon="6.58272">
        <ele>126.72</ele>
        <time>2025-03-15T16:56:24.408Z</time>
      </trkpt>
      <trkpt lat="43.35115" lon="6.58276">
        <ele>126.37</ele>
        <time>2025-03-15T16:56:27.268Z</time>
      </trkpt>
      <trkpt lat="43.35109" lon="6.58281">
        <ele>126.03</ele>
        <time>2025-03-15T16:56:30.020Z</time>
      </trkpt>
      <trkpt lat="43.35104" lon="6.58286">
        <ele>125.71</ele>
        <time>2025-03-15T16:56:32.779Z</time>
      </trkpt>
      <trkpt lat="43.35099" lon="6.58294">
        <ele>125.41</ele>
        <time>2025-03-15T16:56:35.571Z</time>
      </trkpt>
      <trkpt lat="43.35096" lon="6.58301">
        <ele>125.14</ele>
        <time>2025-03-15T16:56:38.241Z</time>
      </trkpt>
      <trkpt lat="43.35091" lon="6.58309">
        <ele>124.9</ele>
        <time>2025-03-15T16:56:41.099Z</time>
      </trkpt>
      <trkpt lat="43.35087" lon="6.58316">
        <ele>124.65</ele>
        <time>2025-03-15T16:56:43.841Z</time>
      </trkpt>
      <trkpt lat="43.35082" lon="6.58324">
        <ele>124.47</ele>
        <time>2025-03-15T16:56:47.306Z</time>
      </trkpt>
      <trkpt lat="43.35076" lon="6.58332">
        <ele>124.28</ele>
        <time>2025-03-15T16:56:50.997Z</time>
      </trkpt>
      <trkpt lat="43.3507" lon="6.5834">
        <ele>124.09</ele>
        <time>2025-03-15T16:56:54.436Z</time>
      </trkpt>
      <trkpt lat="43.35063" lon="6.58348">
        <ele>123.91</ele>
        <time>2025-03-15T16:56:58.378Z</time>
      </trkpt>
      <trkpt lat="43.35056" lon="6.58355">
        <ele>123.75</ele>
        <time>2025-03-15T16:57:01.968Z</time>
      </trkpt>
      <trkpt lat="43.3505" lon="6.58361">
        <ele>123.58</ele>
        <time>2025-03-15T16:57:05.244Z</time>
      </trkpt>
      <trkpt lat="43.35045" lon="6.58368">
        <ele>123.43</ele>
        <time>2025-03-15T16:57:08.226Z</time>
      </trkpt>
      <trkpt lat="43.3504" lon="6.58375">
        <ele>123.26</ele>
        <time>2025-03-15T16:57:11.283Z</time>
      </trkpt>
      <trkpt lat="43.35035" lon="6.58382">
        <ele>123.12</ele>
        <time>2025-03-15T16:57:14.208Z</time>
      </trkpt>
      <trkpt lat="43.35031" lon="6.58389">
        <ele>122.97</ele>
        <time>2025-03-15T16:57:17.019Z</time>
      </trkpt>
      <trkpt lat="43.35016" lon="6.58412">
        <ele>122.79</ele>
        <time>2025-03-15T16:57:27.025Z</time>
      </trkpt>
      <trkpt lat="43.35004" lon="6.58433">
        <ele>122.63</ele>
        <time>2025-03-15T16:57:35.892Z</time>
      </trkpt>
      <trkpt lat="43.35002" lon="6.58438">
        <ele>122.44</ele>
        <time>2025-03-15T16:57:37.295Z</time>
      </trkpt>
      <trkpt lat="43.35" lon="6.58442">
        <ele>122.22</ele>
        <time>2025-03-15T16:57:38.654Z</time>
      </trkpt>
      <trkpt lat="43.34999" lon="6.58446">
        <ele>121.99</ele>
        <time>2025-03-15T16:57:39.974Z</time>
      </trkpt>
      <trkpt lat="43.34998" lon="6.5845">
        <ele>121.73</ele>
        <time>2025-03-15T16:57:41.396Z</time>
      </trkpt>
      <trkpt lat="43.34994" lon="6.5846">
        <ele>121.44</ele>
        <time>2025-03-15T16:57:44.404Z</time>
      </trkpt>
      <trkpt lat="43.34994" lon="6.58464">
        <ele>121.13</ele>
        <time>2025-03-15T16:57:45.662Z</time>
      </trkpt>
      <trkpt lat="43.34991" lon="6.58486">
        <ele>120.81</ele>
        <time>2025-03-15T16:57:52.620Z</time>
      </trkpt>
      <trkpt lat="43.34979" lon="6.58499">
        <ele>120.43</ele>
        <time>2025-03-15T16:57:59.223Z</time>
      </trkpt>
      <trkpt lat="43.34967" lon="6.58504">
        <ele>120.01</ele>
        <time>2025-03-15T16:58:04.163Z</time>
      </trkpt>
      <trkpt lat="43.34961" lon="6.58504">
        <ele>119.54</ele>
        <time>2025-03-15T16:58:06.442Z</time>
      </trkpt>
      <trkpt lat="43.34956" lon="6.58502">
        <ele>119.04</ele>
        <time>2025-03-15T16:58:08.686Z</time>
      </trkpt>
      <trkpt lat="43.3495" lon="6.58498">
        <ele>118.49</ele>
        <time>2025-03-15T16:58:11.179Z</time>
      </trkpt>
      <trkpt lat="43.34944" lon="6.58495">
        <ele>117.91</ele>
        <time>2025-03-15T16:58:13.774Z</time>
      </trkpt>
      <trkpt lat="43.34938" lon="6.58491">
        <ele>117.28</ele>
        <time>2025-03-15T16:58:16.374Z</time>
      </trkpt>
      <trkpt lat="43.34932" lon="6.58489">
        <ele>116.6</ele>
        <time>2025-03-15T16:58:19.042Z</time>
      </trkpt>
      <trkpt lat="43.34925" lon="6.58487">
        <ele>115.89</ele>
        <time>2025-03-15T16:58:21.844Z</time>
      </trkpt>
      <trkpt lat="43.34918" lon="6.58486">
        <ele>115.15</ele>
        <time>2025-03-15T16:58:24.719Z</time>
      </trkpt>
      <trkpt lat="43.34911" lon="6.58485">
        <ele>114.38</ele>
        <time>2025-03-15T16:58:27.684Z</time>
      </trkpt>
      <trkpt lat="43.34903" lon="6.58482">
        <ele>113.57</ele>
        <time>2025-03-15T16:58:30.882Z</time>
      </trkpt>
      <trkpt lat="43.34895" lon="6.58479">
        <ele>112.72</ele>
        <time>2025-03-15T16:58:33.995Z</time>
      </trkpt>
      <trkpt lat="43.34888" lon="6.58475">
        <ele>111.84</ele>
        <time>2025-03-15T16:58:37.260Z</time>
      </trkpt>
      <trkpt lat="43.3488" lon="6.58472">
        <ele>110.95</ele>
        <time>2025-03-15T16:58:40.479Z</time>
      </trkpt>
      <trkpt lat="43.34872" lon="6.58468">
        <ele>110.06</ele>
        <time>2025-03-15T16:58:43.828Z</time>
      </trkpt>
      <trkpt lat="43.34864" lon="6.58466">
        <ele>109.15</ele>
        <time>2025-03-15T16:58:47.160Z</time>
      </trkpt>
      <trkpt lat="43.34856" lon="6.58464">
        <ele>108.22</ele>
        <time>2025-03-15T16:58:50.543Z</time>
      </trkpt>
      <trkpt lat="43.34847" lon="6.58463">
        <ele>107.27</ele>
        <time>2025-03-15T16:58:54.004Z</time>
      </trkpt>
      <trkpt lat="43.34839" lon="6.58463">
        <ele>106.32</ele>
        <time>2025-03-15T16:58:57.208Z</time>
      </trkpt>
      <trkpt lat="43.34832" lon="6.58464">
        <ele>105.37</ele>
        <time>2025-03-15T16:59:00.198Z</time>
      </trkpt>
      <trkpt lat="43.34824" lon="6.58465">
        <ele>104.41</ele>
        <time>2025-03-15T16:59:03.098Z</time>
      </trkpt>
      <trkpt lat="43.34818" lon="6.58468">
        <ele>103.44</ele>
        <time>2025-03-15T16:59:05.978Z</time>
      </trkpt>
      <trkpt lat="43.34811" lon="6.58471">
        <ele>102.47</ele>
        <time>2025-03-15T16:59:08.604Z</time>
      </trkpt>
      <trkpt lat="43.34805" lon="6.58472">
        <ele>101.49</ele>
        <time>2025-03-15T16:59:11.220Z</time>
      </trkpt>
      <trkpt lat="43.34799" lon="6.58472">
        <ele>100.49</ele>
        <time>2025-03-15T16:59:13.693Z</time>
      </trkpt>
      <trkpt lat="43.34793" lon="6.58469">
        <ele>99.47</ele>
        <time>2025-03-15T16:59:16.159Z</time>
      </trkpt>
      <trkpt lat="43.34789" lon="6.58464">
        <ele>98.45</ele>
        <time>2025-03-15T16:59:18.234Z</time>
      </trkpt>
      <trkpt lat="43.34787" lon="6.58458">
        <ele>97.43</ele>
        <time>2025-03-15T16:59:20.260Z</time>
      </trkpt>
      <trkpt lat="43.34787" lon="6.5845">
        <ele>96.41</ele>
        <time>2025-03-15T16:59:22.459Z</time>
      </trkpt>
      <trkpt lat="43.34787" lon="6.58443">
        <ele>95.41</ele>
        <time>2025-03-15T16:59:24.622Z</time>
      </trkpt>
      <trkpt lat="43.34787" lon="6.58436">
        <ele>94.41</ele>
        <time>2025-03-15T16:59:26.512Z</time>
      </trkpt>
      <trkpt lat="43.34786" lon="6.5843">
        <ele>93.42</ele>
        <time>2025-03-15T16:59:28.335Z</time>
      </trkpt>
      <trkpt lat="43.34782" lon="6.58425">
        <ele>92.44</ele>
        <time>2025-03-15T16:59:30.464Z</time>
      </trkpt>
      <trkpt lat="43.34777" lon="6.58421">
        <ele>91.48</ele>
        <time>2025-03-15T16:59:32.903Z</time>
      </trkpt>
      <trkpt lat="43.3477" lon="6.58419">
        <ele>90.56</ele>
        <time>2025-03-15T16:59:35.477Z</time>
      </trkpt>
      <trkpt lat="43.34764" lon="6.58417">
        <ele>89.67</ele>
        <time>2025-03-15T16:59:37.939Z</time>
      </trkpt>
      <trkpt lat="43.34758" lon="6.58413">
        <ele>88.8</ele>
        <time>2025-03-15T16:59:40.598Z</time>
      </trkpt>
      <trkpt lat="43.34753" lon="6.58408">
        <ele>87.94</ele>
        <time>2025-03-15T16:59:43.305Z</time>
      </trkpt>
      <trkpt lat="43.34747" lon="6.58401">
        <ele>87.09</ele>
        <time>2025-03-15T16:59:46.368Z</time>
      </trkpt>
      <trkpt lat="43.34742" lon="6.58391">
        <ele>86.26</ele>
        <time>2025-03-15T16:59:49.817Z</time>
      </trkpt>
      <trkpt lat="43.34736" lon="6.58381">
        <ele>85.44</ele>
        <time>2025-03-15T16:59:53.434Z</time>
      </trkpt>
      <trkpt lat="43.34732" lon="6.58372">
        <ele>84.65</ele>
        <time>2025-03-15T16:59:56.777Z</time>
      </trkpt>
      <trkpt lat="43.34728" lon="6.58362">
        <ele>83.89</ele>
        <time>2025-03-15T16:59:59.968Z</time>
      </trkpt>
      <trkpt lat="43.34723" lon="6.58353">
        <ele>83.14</ele>
        <time>2025-03-15T17:00:03.176Z</time>
      </trkpt>
      <trkpt lat="43.3472" lon="6.58345">
        <ele>82.43</ele>
        <time>2025-03-15T17:00:06.058Z</time>
      </trkpt>
      <trkpt lat="43.34717" lon="6.58336">
        <ele>81.73</ele>
        <time>2025-03-15T17:00:08.851Z</time>
      </trkpt>
      <trkpt lat="43.34714" lon="6.58326">
        <ele>81.07</ele>
        <time>2025-03-15T17:00:11.981Z</time>
      </trkpt>
      <trkpt lat="43.34711" lon="6.58316">
        <ele>80.43</ele>
        <time>2025-03-15T17:00:15.155Z</time>
      </trkpt>
      <trkpt lat="43.34708" lon="6.58308">
        <ele>79.83</ele>
        <time>2025-03-15T17:00:17.759Z</time>
      </trkpt>
      <trkpt lat="43.34704" lon="6.583">
        <ele>79.25</ele>
        <time>2025-03-15T17:00:20.425Z</time>
      </trkpt>
      <trkpt lat="43.347" lon="6.58293">
        <ele>78.69</ele>
        <time>2025-03-15T17:00:23.239Z</time>
      </trkpt>
      <trkpt lat="43.34694" lon="6.58287">
        <ele>78.16</ele>
        <time>2025-03-15T17:00:26.056Z</time>
      </trkpt>
      <trkpt lat="43.34688" lon="6.58282">
        <ele>77.65</ele>
        <time>2025-03-15T17:00:28.849Z</time>
      </trkpt>
      <trkpt lat="43.34682" lon="6.58278">
        <ele>77.16</ele>
        <time>2025-03-15T17:00:31.608Z</time>
      </trkpt>
      <trkpt lat="43.34675" lon="6.58274">
        <ele>76.69</ele>
        <time>2025-03-15T17:00:34.403Z</time>
      </trkpt>
      <trkpt lat="43.34668" lon="6.58271">
        <ele>76.24</ele>
        <time>2025-03-15T17:00:37.396Z</time>
      </trkpt>
      <trkpt lat="43.34662" lon="6.58268">
        <ele>75.81</ele>
        <time>2025-03-15T17:00:40.225Z</time>
      </trkpt>
      <trkpt lat="43.34647" lon="6.58262">
        <ele>75.42</ele>
        <time>2025-03-15T17:00:46.569Z</time>
      </trkpt>
      <trkpt lat="43.3464" lon="6.58259">
        <ele>75.05</ele>
        <time>2025-03-15T17:00:49.550Z</time>
      </trkpt>
      <trkpt lat="43.34633" lon="6.58256">
        <ele>74.69</ele>
        <time>2025-03-15T17:00:52.507Z</time>
      </trkpt>
      <trkpt lat="43.34626" lon="6.58253">
        <ele>74.34</ele>
        <time>2025-03-15T17:00:55.444Z</time>
      </trkpt>
      <trkpt lat="43.34619" lon="6.58252">
        <ele>74.01</ele>
        <time>2025-03-15T17:00:58.096Z</time>
      </trkpt>
      <trkpt lat="43.34613" lon="6.58253">
        <ele>73.69</ele>
        <time>2025-03-15T17:01:00.748Z</time>
      </trkpt>
      <trkpt lat="43.34607" lon="6.58256">
        <ele>73.38</ele>
        <time>2025-03-15T17:01:03.166Z</time>
      </trkpt>
      <trkpt lat="43.34602" lon="6.58261">
        <ele>73.08</ele>
        <time>2025-03-15T17:01:05.797Z</time>
      </trkpt>
      <trkpt lat="43.34596" lon="6.58265">
        <ele>72.78</ele>
        <time>2025-03-15T17:01:08.446Z</time>
      </trkpt>
      <trkpt lat="43.3459" lon="6.5827">
        <ele>72.5</ele>
        <time>2025-03-15T17:01:11.081Z</time>
      </trkpt>
      <trkpt lat="43.34584" lon="6.58273">
        <ele>72.22</ele>
        <time>2025-03-15T17:01:13.900Z</time>
      </trkpt>
      <trkpt lat="43.34577" lon="6.58276">
        <ele>71.95</ele>
        <time>2025-03-15T17:01:16.927Z</time>
      </trkpt>
      <trkpt lat="43.34563" lon="6.58282">
        <ele>71.68</ele>
        <time>2025-03-15T17:01:22.991Z</time>
      </trkpt>
      <trkpt lat="43.34557" lon="6.58286">
        <ele>71.44</ele>
        <time>2025-03-15T17:01:25.836Z</time>
      </trkpt>
      <trkpt lat="43.34551" lon="6.5829">
        <ele>71.22</ele>
        <time>2025-03-15T17:01:28.611Z</time>
      </trkpt>
      <trkpt lat="43.34546" lon="6.58297">
        <ele>71</ele>
        <time>2025-03-15T17:01:31.312Z</time>
      </trkpt>
      <trkpt lat="43.34542" lon="6.58303">
        <ele>70.78</ele>
        <time>2025-03-15T17:01:33.943Z</time>
      </trkpt>
      <trkpt lat="43.34534" lon="6.58314">
        <ele>70.57</ele>
        <time>2025-03-15T17:01:38.873Z</time>
      </trkpt>
      <trkpt lat="43.34529" lon="6.58317">
        <ele>70.35</ele>
        <time>2025-03-15T17:01:41.030Z</time>
      </trkpt>
      <trkpt lat="43.3452" lon="6.58324">
        <ele>70.15</ele>
        <time>2025-03-15T17:01:45.333Z</time>
      </trkpt>
      <trkpt lat="43.34513" lon="6.5833">
        <ele>69.94</ele>
        <time>2025-03-15T17:01:49.121Z</time>
      </trkpt>
      <trkpt lat="43.34509" lon="6.58335">
        <ele>69.72</ele>
        <time>2025-03-15T17:01:50.987Z</time>
      </trkpt>
      <trkpt lat="43.34506" lon="6.5834">
        <ele>69.5</ele>
        <time>2025-03-15T17:01:52.933Z</time>
      </trkpt>
      <trkpt lat="43.34494" lon="6.58362">
        <ele>69.28</ele>
        <time>2025-03-15T17:02:01.960Z</time>
      </trkpt>
      <trkpt lat="43.34491" lon="6.58369">
        <ele>69.06</ele>
        <time>2025-03-15T17:02:04.174Z</time>
      </trkpt>
      <trkpt lat="43.34488" lon="6.58375">
        <ele>68.83</ele>
        <time>2025-03-15T17:02:06.427Z</time>
      </trkpt>
      <trkpt lat="43.34484" lon="6.58381">
        <ele>68.6</ele>
        <time>2025-03-15T17:02:08.866Z</time>
      </trkpt>
      <trkpt lat="43.34481" lon="6.58388">
        <ele>68.35</ele>
        <time>2025-03-15T17:02:11.143Z</time>
      </trkpt>
      <trkpt lat="43.34469" lon="6.58416">
        <ele>68.05</ele>
        <time>2025-03-15T17:02:21.693Z</time>
      </trkpt>
      <trkpt lat="43.34463" lon="6.58439">
        <ele>67.79</ele>
        <time>2025-03-15T17:02:29.375Z</time>
      </trkpt>
      <trkpt lat="43.34462" lon="6.58447">
        <ele>67.53</ele>
        <time>2025-03-15T17:02:31.701Z</time>
      </trkpt>
      <trkpt lat="43.3446" lon="6.58455">
        <ele>67.27</ele>
        <time>2025-03-15T17:02:34.018Z</time>
      </trkpt>
      <trkpt lat="43.34459" lon="6.58462">
        <ele>67.02</ele>
        <time>2025-03-15T17:02:36.308Z</time>
      </trkpt>
      <trkpt lat="43.34459" lon="6.5847">
        <ele>66.76</ele>
        <time>2025-03-15T17:02:38.623Z</time>
      </trkpt>
      <trkpt lat="43.34458" lon="6.58478">
        <ele>66.49</ele>
        <time>2025-03-15T17:02:40.947Z</time>
      </trkpt>
      <trkpt lat="43.34454" lon="6.58503">
        <ele>66.21</ele>
        <time>2025-03-15T17:02:49.117Z</time>
      </trkpt>
      <trkpt lat="43.34444" lon="6.58561">
        <ele>65.87</ele>
        <time>2025-03-15T17:03:08.353Z</time>
      </trkpt>
      <trkpt lat="43.34442" lon="6.58569">
        <ele>65.6</ele>
        <time>2025-03-15T17:03:10.811Z</time>
      </trkpt>
      <trkpt lat="43.3444" lon="6.58577">
        <ele>65.32</ele>
        <time>2025-03-15T17:03:13.318Z</time>
      </trkpt>
      <trkpt lat="43.34438" lon="6.58585">
        <ele>65.05</ele>
        <time>2025-03-15T17:03:15.822Z</time>
      </trkpt>
      <trkpt lat="43.34435" lon="6.58593">
        <ele>64.78</ele>
        <time>2025-03-15T17:03:18.254Z</time>
      </trkpt>
      <trkpt lat="43.34429" lon="6.58607">
        <ele>64.5</ele>
        <time>2025-03-15T17:03:23.489Z</time>
      </trkpt>
      <trkpt lat="43.34422" lon="6.58621">
        <ele>64.21</ele>
        <time>2025-03-15T17:03:28.639Z</time>
      </trkpt>
      <trkpt lat="43.34412" lon="6.5864">
        <ele>63.89</ele>
        <time>2025-03-15T17:03:35.800Z</time>
      </trkpt>
      <trkpt lat="43.3441" lon="6.58646">
        <ele>63.62</ele>
        <time>2025-03-15T17:03:37.865Z</time>
      </trkpt>
      <trkpt lat="43.34407" lon="6.58652">
        <ele>63.36</ele>
        <time>2025-03-15T17:03:39.901Z</time>
      </trkpt>
      <trkpt lat="43.34396" lon="6.58683">
        <ele>63.07</ele>
        <time>2025-03-15T17:03:51.077Z</time>
      </trkpt>
      <trkpt lat="43.34387" lon="6.58717">
        <ele>62.85</ele>
        <time>2025-03-15T17:04:02.701Z</time>
      </trkpt>
      <trkpt lat="43.34385" lon="6.58723">
        <ele>62.64</ele>
        <time>2025-03-15T17:04:04.657Z</time>
      </trkpt>
      <trkpt lat="43.34378" lon="6.58746">
        <ele>62.49</ele>
        <time>2025-03-15T17:04:12.833Z</time>
      </trkpt>
      <trkpt lat="43.3437" lon="6.58769">
        <ele>62.32</ele>
        <time>2025-03-15T17:04:21.151Z</time>
      </trkpt>
      <trkpt lat="43.34357" lon="6.58791">
        <ele>62.08</ele>
        <time>2025-03-15T17:04:30.070Z</time>
      </trkpt>
      <trkpt lat="43.34352" lon="6.58799">
        <ele>61.92</ele>
        <time>2025-03-15T17:04:33.471Z</time>
      </trkpt>
      <trkpt lat="43.34346" lon="6.58811">
        <ele>61.76</ele>
        <time>2025-03-15T17:04:38.210Z</time>
      </trkpt>
      <trkpt lat="43.34339" lon="6.58826">
        <ele>61.64</ele>
        <time>2025-03-15T17:04:43.757Z</time>
      </trkpt>
      <trkpt lat="43.34336" lon="6.58833">
        <ele>61.53</ele>
        <time>2025-03-15T17:04:46.298Z</time>
      </trkpt>
      <trkpt lat="43.34332" lon="6.58837">
        <ele>61.44</ele>
        <time>2025-03-15T17:04:48.365Z</time>
      </trkpt>
      <trkpt lat="43.34328" lon="6.58837">
        <ele>61.37</ele>
        <time>2025-03-15T17:04:50.325Z</time>
      </trkpt>
      <trkpt lat="43.34324" lon="6.58835">
        <ele>61.33</ele>
        <time>2025-03-15T17:04:52.250Z</time>
      </trkpt>
      <trkpt lat="43.34309" lon="6.5883">
        <ele>61.32</ele>
        <time>2025-03-15T17:04:59.255Z</time>
      </trkpt>
      <trkpt lat="43.34299" lon="6.58833">
        <ele>61.34</ele>
        <time>2025-03-15T17:05:03.985Z</time>
      </trkpt>
      <trkpt lat="43.34296" lon="6.58836">
        <ele>61.38</ele>
        <time>2025-03-15T17:05:05.574Z</time>
      </trkpt>
      <trkpt lat="43.34293" lon="6.58838">
        <ele>61.44</ele>
        <time>2025-03-15T17:05:07.083Z</time>
      </trkpt>
      <trkpt lat="43.34286" lon="6.58846">
        <ele>61.53</ele>
        <time>2025-03-15T17:05:11.663Z</time>
      </trkpt>
      <trkpt lat="43.34283" lon="6.58849">
        <ele>61.63</ele>
        <time>2025-03-15T17:05:13.275Z</time>
      </trkpt>
      <trkpt lat="43.34277" lon="6.58853">
        <ele>61.77</ele>
        <time>2025-03-15T17:05:16.502Z</time>
      </trkpt>
      <trkpt lat="43.34271" lon="6.58856">
        <ele>61.93</ele>
        <time>2025-03-15T17:05:19.548Z</time>
      </trkpt>
      <trkpt lat="43.34266" lon="6.58857">
        <ele>62.12</ele>
        <time>2025-03-15T17:05:22.512Z</time>
      </trkpt>
      <trkpt lat="43.3426" lon="6.58859">
        <ele>62.33</ele>
        <time>2025-03-15T17:05:25.331Z</time>
      </trkpt>
      <trkpt lat="43.34255" lon="6.58859">
        <ele>62.56</ele>
        <time>2025-03-15T17:05:28.153Z</time>
      </trkpt>
      <trkpt lat="43.3425" lon="6.5886">
        <ele>62.81</ele>
        <time>2025-03-15T17:05:30.909Z</time>
      </trkpt>
      <trkpt lat="43.34247" lon="6.58859">
        <ele>63.07</ele>
        <time>2025-03-15T17:05:32.475Z</time>
      </trkpt>
      <trkpt lat="43.34245" lon="6.58859">
        <ele>63.34</ele>
        <time>2025-03-15T17:05:34.038Z</time>
      </trkpt>
      <trkpt lat="43.34242" lon="6.58859">
        <ele>63.64</ele>
        <time>2025-03-15T17:05:35.694Z</time>
      </trkpt>
      <trkpt lat="43.3424" lon="6.58859">
        <ele>63.96</ele>
        <time>2025-03-15T17:05:37.313Z</time>
      </trkpt>
      <trkpt lat="43.34236" lon="6.58859">
        <ele>64.29</ele>
        <time>2025-03-15T17:05:39.665Z</time>
      </trkpt>
      <trkpt lat="43.34234" lon="6.58859">
        <ele>64.63</ele>
        <time>2025-03-15T17:05:41.389Z</time>
      </trkpt>
      <trkpt lat="43.34232" lon="6.5886">
        <ele>64.99</ele>
        <time>2025-03-15T17:05:43.255Z</time>
      </trkpt>
      <trkpt lat="43.3423" lon="6.58861">
        <ele>65.35</ele>
        <time>2025-03-15T17:05:45.030Z</time>
      </trkpt>
      <trkpt lat="43.34228" lon="6.58862">
        <ele>65.72</ele>
        <time>2025-03-15T17:05:46.781Z</time>
      </trkpt>
      <trkpt lat="43.34226" lon="6.58863">
        <ele>66.11</ele>
        <time>2025-03-15T17:05:48.624Z</time>
      </trkpt>
      <trkpt lat="43.34224" lon="6.58864">
        <ele>66.51</ele>
        <time>2025-03-15T17:05:50.426Z</time>
      </trkpt>
      <trkpt lat="43.34222" lon="6.58865">
        <ele>66.91</ele>
        <time>2025-03-15T17:05:52.255Z</time>
      </trkpt>
      <trkpt lat="43.3422" lon="6.58866">
        <ele>67.33</ele>
        <time>2025-03-15T17:05:54.195Z</time>
      </trkpt>
      <trkpt lat="43.34218" lon="6.58867">
        <ele>67.75</ele>
        <time>2025-03-15T17:05:56.218Z</time>
      </trkpt>
      <trkpt lat="43.34214" lon="6.58868">
        <ele>68.2</ele>
        <time>2025-03-15T17:05:59.019Z</time>
      </trkpt>
      <trkpt lat="43.34211" lon="6.58869">
        <ele>68.65</ele>
        <time>2025-03-15T17:06:01.066Z</time>
      </trkpt>
      <trkpt lat="43.34209" lon="6.5887">
        <ele>69.09</ele>
        <time>2025-03-15T17:06:03.085Z</time>
      </trkpt>
      <trkpt lat="43.34207" lon="6.5887">
        <ele>69.55</ele>
        <time>2025-03-15T17:06:05.219Z</time>
      </trkpt>
      <trkpt lat="43.34205" lon="6.58871">
        <ele>70.01</ele>
        <time>2025-03-15T17:06:07.345Z</time>
      </trkpt>
      <trkpt lat="43.34199" lon="6.58872">
        <ele>70.49</ele>
        <time>2025-03-15T17:06:10.928Z</time>
      </trkpt>
      <trkpt lat="43.34197" lon="6.58873">
        <ele>70.95</ele>
        <time>2025-03-15T17:06:13.002Z</time>
      </trkpt>
      <trkpt lat="43.34194" lon="6.58873">
        <ele>71.4</ele>
        <time>2025-03-15T17:06:15.072Z</time>
      </trkpt>
      <trkpt lat="43.34192" lon="6.58874">
        <ele>71.86</ele>
        <time>2025-03-15T17:06:17.140Z</time>
      </trkpt>
      <trkpt lat="43.34191" lon="6.58874">
        <ele>72.31</ele>
        <time>2025-03-15T17:06:19.167Z</time>
      </trkpt>
      <trkpt lat="43.34186" lon="6.58875">
        <ele>72.79</ele>
        <time>2025-03-15T17:06:22.252Z</time>
      </trkpt>
      <trkpt lat="43.34184" lon="6.58875">
        <ele>73.24</ele>
        <time>2025-03-15T17:06:24.308Z</time>
      </trkpt>
      <trkpt lat="43.34183" lon="6.58876">
        <ele>73.69</ele>
        <time>2025-03-15T17:06:26.331Z</time>
      </trkpt>
      <trkpt lat="43.34181" lon="6.58877">
        <ele>74.15</ele>
        <time>2025-03-15T17:06:28.405Z</time>
      </trkpt>
      <trkpt lat="43.34178" lon="6.58879">
        <ele>74.6</ele>
        <time>2025-03-15T17:06:30.843Z</time>
      </trkpt>
      <trkpt lat="43.34173" lon="6.58884">
        <ele>75.04</ele>
        <time>2025-03-15T17:06:33.921Z</time>
      </trkpt>
      <trkpt lat="43.34172" lon="6.58885">
        <ele>75.48</ele>
        <time>2025-03-15T17:06:35.898Z</time>
      </trkpt>
      <trkpt lat="43.34171" lon="6.58888">
        <ele>75.91</ele>
        <time>2025-03-15T17:06:37.846Z</time>
      </trkpt>
      <trkpt lat="43.3417" lon="6.5889">
        <ele>76.34</ele>
        <time>2025-03-15T17:06:39.803Z</time>
      </trkpt>
      <trkpt lat="43.34168" lon="6.58891">
        <ele>76.78</ele>
        <time>2025-03-15T17:06:41.818Z</time>
      </trkpt>
      <trkpt lat="43.3416" lon="6.58889">
        <ele>77.27</ele>
        <time>2025-03-15T17:06:46.429Z</time>
      </trkpt>
      <trkpt lat="43.34159" lon="6.58888">
        <ele>77.73</ele>
        <time>2025-03-15T17:06:48.660Z</time>
      </trkpt>
      <trkpt lat="43.34158" lon="6.58886">
        <ele>78.17</ele>
        <time>2025-03-15T17:06:50.637Z</time>
      </trkpt>
      <trkpt lat="43.34157" lon="6.58884">
        <ele>78.62</ele>
        <time>2025-03-15T17:06:52.694Z</time>
      </trkpt>
      <trkpt lat="43.34157" lon="6.58882">
        <ele>79.05</ele>
        <time>2025-03-15T17:06:54.734Z</time>
      </trkpt>
      <trkpt lat="43.34156" lon="6.58881">
        <ele>79.49</ele>
        <time>2025-03-15T17:06:56.735Z</time>
      </trkpt>
      <trkpt lat="43.34154" lon="6.58877">
        <ele>79.94</ele>
        <time>2025-03-15T17:06:58.906Z</time>
      </trkpt>
      <trkpt lat="43.34154" lon="6.58876">
        <ele>80.37</ele>
        <time>2025-03-15T17:07:01.084Z</time>
      </trkpt>
      <trkpt lat="43.34153" lon="6.58875">
        <ele>80.79</ele>
        <time>2025-03-15T17:07:03.228Z</time>
      </trkpt>
      <trkpt lat="43.34153" lon="6.58873">
        <ele>81.2</ele>
        <time>2025-03-15T17:07:05.154Z</time>
      </trkpt>
      <trkpt lat="43.34153" lon="6.58871">
        <ele>81.62</ele>
        <time>2025-03-15T17:07:07.062Z</time>
      </trkpt>
      <trkpt lat="43.34153" lon="6.58869">
        <ele>82.03</ele>
        <time>2025-03-15T17:07:08.914Z</time>
      </trkpt>
      <trkpt lat="43.34152" lon="6.58867">
        <ele>82.44</ele>
        <time>2025-03-15T17:07:10.906Z</time>
      </trkpt>
      <trkpt lat="43.34152" lon="6.58866">
        <ele>82.84</ele>
        <time>2025-03-15T17:07:13.061Z</time>
      </trkpt>
      <trkpt lat="43.34152" lon="6.58865">
        <ele>83.23</ele>
        <time>2025-03-15T17:07:15.163Z</time>
      </trkpt>
      <trkpt lat="43.34152" lon="6.58864">
        <ele>83.63</ele>
        <time>2025-03-15T17:07:16.996Z</time>
      </trkpt>
      <trkpt lat="43.34151" lon="6.58862">
        <ele>84.02</ele>
        <time>2025-03-15T17:07:18.782Z</time>
      </trkpt>
      <trkpt lat="43.34151" lon="6.58859">
        <ele>84.41</ele>
        <time>2025-03-15T17:07:20.599Z</time>
      </trkpt>
      <trkpt lat="43.34152" lon="6.58856">
        <ele>84.8</ele>
        <time>2025-03-15T17:07:22.514Z</time>
      </trkpt>
      <trkpt lat="43.34152" lon="6.58854">
        <ele>85.18</ele>
        <time>2025-03-15T17:07:24.254Z</time>
      </trkpt>
      <trkpt lat="43.34152" lon="6.58852">
        <ele>85.57</ele>
        <time>2025-03-15T17:07:26.014Z</time>
      </trkpt>
      <trkpt lat="43.34152" lon="6.5885">
        <ele>85.93</ele>
        <time>2025-03-15T17:07:27.632Z</time>
      </trkpt>
      <trkpt lat="43.34153" lon="6.58849">
        <ele>86.3</ele>
        <time>2025-03-15T17:07:29.354Z</time>
      </trkpt>
      <trkpt lat="43.34153" lon="6.58848">
        <ele>86.66</ele>
        <time>2025-03-15T17:07:31.103Z</time>
      </trkpt>
      <trkpt lat="43.34157" lon="6.58837">
        <ele>87.06</ele>
        <time>2025-03-15T17:07:35.508Z</time>
      </trkpt>
      <trkpt lat="43.34158" lon="6.58835">
        <ele>87.42</ele>
        <time>2025-03-15T17:07:37.224Z</time>
      </trkpt>
      <trkpt lat="43.34158" lon="6.58832">
        <ele>87.77</ele>
        <time>2025-03-15T17:07:38.961Z</time>
      </trkpt>
      <trkpt lat="43.34159" lon="6.5883">
        <ele>88.12</ele>
        <time>2025-03-15T17:07:40.586Z</time>
      </trkpt>
      <trkpt lat="43.3416" lon="6.58828">
        <ele>88.46</ele>
        <time>2025-03-15T17:07:42.138Z</time>
      </trkpt>
      <trkpt lat="43.3416" lon="6.58826">
        <ele>88.8</ele>
        <time>2025-03-15T17:07:43.674Z</time>
      </trkpt>
      <trkpt lat="43.34161" lon="6.58824">
        <ele>89.14</ele>
        <time>2025-03-15T17:07:45.267Z</time>
      </trkpt>
      <trkpt lat="43.34164" lon="6.58816">
        <ele>89.5</ele>
        <time>2025-03-15T17:07:48.871Z</time>
      </trkpt>
      <trkpt lat="43.34164" lon="6.58814">
        <ele>89.83</ele>
        <time>2025-03-15T17:07:50.359Z</time>
      </trkpt>
      <trkpt lat="43.34165" lon="6.58811">
        <ele>90.16</ele>
        <time>2025-03-15T17:07:52.005Z</time>
      </trkpt>
      <trkpt lat="43.34165" lon="6.58809">
        <ele>90.48</ele>
        <time>2025-03-15T17:07:53.468Z</time>
      </trkpt>
      <trkpt lat="43.34166" lon="6.58807">
        <ele>90.8</ele>
        <time>2025-03-15T17:07:55.033Z</time>
      </trkpt>
      <trkpt lat="43.34172" lon="6.5879">
        <ele>91.14</ele>
        <time>2025-03-15T17:08:01.641Z</time>
      </trkpt>
      <trkpt lat="43.34175" lon="6.58785">
        <ele>91.46</ele>
        <time>2025-03-15T17:08:04.294Z</time>
      </trkpt>
      <trkpt lat="43.34176" lon="6.58783">
        <ele>91.78</ele>
        <time>2025-03-15T17:08:05.779Z</time>
      </trkpt>
      <trkpt lat="43.34176" lon="6.58781">
        <ele>92.09</ele>
        <time>2025-03-15T17:08:07.175Z</time>
      </trkpt>
      <trkpt lat="43.34177" lon="6.58779">
        <ele>92.4</ele>
        <time>2025-03-15T17:08:08.588Z</time>
      </trkpt>
      <trkpt lat="43.34177" lon="6.58777">
        <ele>92.71</ele>
        <time>2025-03-15T17:08:09.987Z</time>
      </trkpt>
      <trkpt lat="43.34179" lon="6.58767">
        <ele>93.07</ele>
        <time>2025-03-15T17:08:14.161Z</time>
      </trkpt>
      <trkpt lat="43.34181" lon="6.58761">
        <ele>93.37</ele>
        <time>2025-03-15T17:08:16.683Z</time>
      </trkpt>
      <trkpt lat="43.34182" lon="6.58759">
        <ele>93.67</ele>
        <time>2025-03-15T17:08:18.093Z</time>
      </trkpt>
      <trkpt lat="43.34183" lon="6.58758">
        <ele>93.96</ele>
        <time>2025-03-15T17:08:19.422Z</time>
      </trkpt>
      <trkpt lat="43.34183" lon="6.58756">
        <ele>94.25</ele>
        <time>2025-03-15T17:08:20.797Z</time>
      </trkpt>
      <trkpt lat="43.34183" lon="6.58754">
        <ele>94.54</ele>
        <time>2025-03-15T17:08:22.103Z</time>
      </trkpt>
      <trkpt lat="43.34186" lon="6.58743">
        <ele>94.85</ele>
        <time>2025-03-15T17:08:26.420Z</time>
      </trkpt>
      <trkpt lat="43.34186" lon="6.58741">
        <ele>95.13</ele>
        <time>2025-03-15T17:08:27.741Z</time>
      </trkpt>
      <trkpt lat="43.34187" lon="6.58739">
        <ele>95.4</ele>
        <time>2025-03-15T17:08:28.971Z</time>
      </trkpt>
      <trkpt lat="43.34187" lon="6.58738">
        <ele>95.68</ele>
        <time>2025-03-15T17:08:30.249Z</time>
      </trkpt>
      <trkpt lat="43.34187" lon="6.58736">
        <ele>95.95</ele>
        <time>2025-03-15T17:08:31.524Z</time>
      </trkpt>
      <trkpt lat="43.34188" lon="6.58728">
        <ele>96.24</ele>
        <time>2025-03-15T17:08:34.598Z</time>
      </trkpt>
      <trkpt lat="43.34188" lon="6.58726">
        <ele>96.51</ele>
        <time>2025-03-15T17:08:35.907Z</time>
      </trkpt>
      <trkpt lat="43.34189" lon="6.58723">
        <ele>96.78</ele>
        <time>2025-03-15T17:08:37.309Z</time>
      </trkpt>
      <trkpt lat="43.34189" lon="6.58721">
        <ele>97.05</ele>
        <time>2025-03-15T17:08:38.573Z</time>
      </trkpt>
      <trkpt lat="43.34189" lon="6.58718">
        <ele>97.32</ele>
        <time>2025-03-15T17:08:40.092Z</time>
      </trkpt>
      <trkpt lat="43.3419" lon="6.5871">
        <ele>97.59</ele>
        <time>2025-03-15T17:08:43.451Z</time>
      </trkpt>
      <trkpt lat="43.34191" lon="6.58708">
        <ele>97.86</ele>
        <time>2025-03-15T17:08:44.681Z</time>
      </trkpt>
      <trkpt lat="43.34191" lon="6.58706">
        <ele>98.13</ele>
        <time>2025-03-15T17:08:46.004Z</time>
      </trkpt>
      <trkpt lat="43.34191" lon="6.58703">
        <ele>98.39</ele>
        <time>2025-03-15T17:08:47.293Z</time>
      </trkpt>
      <trkpt lat="43.34191" lon="6.58701">
        <ele>98.66</ele>
        <time>2025-03-15T17:08:48.580Z</time>
      </trkpt>
      <trkpt lat="43.34191" lon="6.5869">
        <ele>98.96</ele>
        <time>2025-03-15T17:08:52.879Z</time>
      </trkpt>
      <trkpt lat="43.3419" lon="6.58689">
        <ele>99.24</ele>
        <time>2025-03-15T17:08:54.180Z</time>
      </trkpt>
      <trkpt lat="43.3419" lon="6.58688">
        <ele>99.52</ele>
        <time>2025-03-15T17:08:55.507Z</time>
      </trkpt>
      <trkpt lat="43.34189" lon="6.58688">
        <ele>99.79</ele>
        <time>2025-03-15T17:08:56.908Z</time>
      </trkpt>
      <trkpt lat="43.34189" lon="6.58687">
        <ele>100.07</ele>
        <time>2025-03-15T17:08:58.203Z</time>
      </trkpt>
      <trkpt lat="43.34188" lon="6.58686">
        <ele>100.35</ele>
        <time>2025-03-15T17:08:59.467Z</time>
      </trkpt>
      <trkpt lat="43.34187" lon="6.58686">
        <ele>100.63</ele>
        <time>2025-03-15T17:09:00.751Z</time>
      </trkpt>
      <trkpt lat="43.34183" lon="6.58687">
        <ele>100.94</ele>
        <time>2025-03-15T17:09:03.195Z</time>
      </trkpt>
      <trkpt lat="43.34182" lon="6.58688">
        <ele>101.22</ele>
        <time>2025-03-15T17:09:04.452Z</time>
      </trkpt>
      <trkpt lat="43.3418" lon="6.58696">
        <ele>101.5</ele>
        <time>2025-03-15T17:09:07.661Z</time>
      </trkpt>
      <trkpt lat="43.34179" lon="6.58698">
        <ele>101.78</ele>
        <time>2025-03-15T17:09:09.041Z</time>
      </trkpt>
      <trkpt lat="43.34179" lon="6.587">
        <ele>102.04</ele>
        <time>2025-03-15T17:09:10.317Z</time>
      </trkpt>
      <trkpt lat="43.34178" lon="6.58702">
        <ele>102.32</ele>
        <time>2025-03-15T17:09:11.626Z</time>
      </trkpt>
      <trkpt lat="43.34177" lon="6.58704">
        <ele>102.58</ele>
        <time>2025-03-15T17:09:12.853Z</time>
      </trkpt>
      <trkpt lat="43.34177" lon="6.58706">
        <ele>102.86</ele>
        <time>2025-03-15T17:09:14.162Z</time>
      </trkpt>
      <trkpt lat="43.34176" lon="6.58707">
        <ele>103.13</ele>
        <time>2025-03-15T17:09:15.496Z</time>
      </trkpt>
      <trkpt lat="43.34175" lon="6.5871">
        <ele>103.4</ele>
        <time>2025-03-15T17:09:16.876Z</time>
      </trkpt>
      <trkpt lat="43.34168" lon="6.58721">
        <ele>103.71</ele>
        <time>2025-03-15T17:09:22.337Z</time>
      </trkpt>
      <trkpt lat="43.34158" lon="6.58731">
        <ele>104.02</ele>
        <time>2025-03-15T17:09:28.275Z</time>
      </trkpt>
      <trkpt lat="43.34157" lon="6.58733">
        <ele>104.28</ele>
        <time>2025-03-15T17:09:29.643Z</time>
      </trkpt>
      <trkpt lat="43.34155" lon="6.58734">
        <ele>104.54</ele>
        <time>2025-03-15T17:09:30.939Z</time>
      </trkpt>
      <trkpt lat="43.34154" lon="6.58735">
        <ele>104.79</ele>
        <time>2025-03-15T17:09:32.228Z</time>
      </trkpt>
      <trkpt lat="43.34152" lon="6.58736">
        <ele>105.05</ele>
        <time>2025-03-15T17:09:33.496Z</time>
      </trkpt>
      <trkpt lat="43.34148" lon="6.5874">
        <ele>105.3</ele>
        <time>2025-03-15T17:09:36.328Z</time>
      </trkpt>
      <trkpt lat="43.3414" lon="6.58741">
        <ele>105.59</ele>
        <time>2025-03-15T17:09:40.544Z</time>
      </trkpt>
      <trkpt lat="43.34138" lon="6.58739">
        <ele>105.84</ele>
        <time>2025-03-15T17:09:41.792Z</time>
      </trkpt>
      <trkpt lat="43.34137" lon="6.58738">
        <ele>106.08</ele>
        <time>2025-03-15T17:09:42.924Z</time>
      </trkpt>
      <trkpt lat="43.34138" lon="6.58737">
        <ele>106.31</ele>
        <time>2025-03-15T17:09:44.023Z</time>
      </trkpt>
      <trkpt lat="43.34138" lon="6.58735">
        <ele>106.54</ele>
        <time>2025-03-15T17:09:45.243Z</time>
      </trkpt>
      <trkpt lat="43.34143" lon="6.58729">
        <ele>106.76</ele>
        <time>2025-03-15T17:09:48.578Z</time>
      </trkpt>
      <trkpt lat="43.34145" lon="6.58727">
        <ele>106.97</ele>
        <time>2025-03-15T17:09:49.839Z</time>
      </trkpt>
      <trkpt lat="43.34146" lon="6.58725">
        <ele>107.18</ele>
        <time>2025-03-15T17:09:51.206Z</time>
      </trkpt>
      <trkpt lat="43.34147" lon="6.58722">
        <ele>107.38</ele>
        <time>2025-03-15T17:09:52.499Z</time>
      </trkpt>
      <trkpt lat="43.34151" lon="6.5871">
        <ele>107.58</ele>
        <time>2025-03-15T17:09:57.045Z</time>
      </trkpt>
      <trkpt lat="43.34151" lon="6.58708">
        <ele>107.79</ele>
        <time>2025-03-15T17:09:58.320Z</time>
      </trkpt>
      <trkpt lat="43.34152" lon="6.58705">
        <ele>108</ele>
        <time>2025-03-15T17:09:59.686Z</time>
      </trkpt>
      <trkpt lat="43.34152" lon="6.58702">
        <ele>108.2</ele>
        <time>2025-03-15T17:10:00.936Z</time>
      </trkpt>
      <trkpt lat="43.34153" lon="6.587">
        <ele>108.41</ele>
        <time>2025-03-15T17:10:02.217Z</time>
      </trkpt>
      <trkpt lat="43.34153" lon="6.58697">
        <ele>108.62</ele>
        <time>2025-03-15T17:10:03.481Z</time>
      </trkpt>
      <trkpt lat="43.34155" lon="6.5869">
        <ele>108.84</ele>
        <time>2025-03-15T17:10:06.227Z</time>
      </trkpt>
      <trkpt lat="43.34154" lon="6.58678">
        <ele>109.06</ele>
        <time>2025-03-15T17:10:10.536Z</time>
      </trkpt>
      <trkpt lat="43.34153" lon="6.58676">
        <ele>109.29</ele>
        <time>2025-03-15T17:10:11.858Z</time>
      </trkpt>
      <trkpt lat="43.34152" lon="6.58674">
        <ele>109.51</ele>
        <time>2025-03-15T17:10:13.094Z</time>
      </trkpt>
      <trkpt lat="43.34151" lon="6.58673">
        <ele>109.74</ele>
        <time>2025-03-15T17:10:14.164Z</time>
      </trkpt>
      <trkpt lat="43.3415" lon="6.58675">
        <ele>109.97</ele>
        <time>2025-03-15T17:10:15.383Z</time>
      </trkpt>
      <trkpt lat="43.34147" lon="6.58676">
        <ele>110.22</ele>
        <time>2025-03-15T17:10:16.971Z</time>
      </trkpt>
      <trkpt lat="43.34143" lon="6.58682">
        <ele>110.47</ele>
        <time>2025-03-15T17:10:20.218Z</time>
      </trkpt>
      <trkpt lat="43.34142" lon="6.58684">
        <ele>110.71</ele>
        <time>2025-03-15T17:10:21.426Z</time>
      </trkpt>
      <trkpt lat="43.34141" lon="6.58686">
        <ele>110.96</ele>
        <time>2025-03-15T17:10:22.713Z</time>
      </trkpt>
      <trkpt lat="43.3414" lon="6.58688">
        <ele>111.22</ele>
        <time>2025-03-15T17:10:23.983Z</time>
      </trkpt>
      <trkpt lat="43.34139" lon="6.58689">
        <ele>111.48</ele>
        <time>2025-03-15T17:10:25.177Z</time>
      </trkpt>
      <trkpt lat="43.34137" lon="6.58691">
        <ele>111.77</ele>
        <time>2025-03-15T17:10:26.865Z</time>
      </trkpt>
      <trkpt lat="43.34136" lon="6.58692">
        <ele>112.05</ele>
        <time>2025-03-15T17:10:28.195Z</time>
      </trkpt>
      <trkpt lat="43.34134" lon="6.58692">
        <ele>112.35</ele>
        <time>2025-03-15T17:10:29.563Z</time>
      </trkpt>
      <trkpt lat="43.34133" lon="6.58693">
        <ele>112.65</ele>
        <time>2025-03-15T17:10:30.931Z</time>
      </trkpt>
      <trkpt lat="43.34132" lon="6.58693">
        <ele>112.97</ele>
        <time>2025-03-15T17:10:32.367Z</time>
      </trkpt>
      <trkpt lat="43.34128" lon="6.58689">
        <ele>113.31</ele>
        <time>2025-03-15T17:10:34.996Z</time>
      </trkpt>
      <trkpt lat="43.34127" lon="6.58688">
        <ele>113.65</ele>
        <time>2025-03-15T17:10:36.531Z</time>
      </trkpt>
      <trkpt lat="43.34126" lon="6.58687">
        <ele>114</ele>
        <time>2025-03-15T17:10:38.104Z</time>
      </trkpt>
      <trkpt lat="43.34125" lon="6.58685">
        <ele>114.36</ele>
        <time>2025-03-15T17:10:39.725Z</time>
      </trkpt>
      <trkpt lat="43.34124" lon="6.58683">
        <ele>114.73</ele>
        <time>2025-03-15T17:10:41.404Z</time>
      </trkpt>
      <trkpt lat="43.34124" lon="6.58681">
        <ele>115.12</ele>
        <time>2025-03-15T17:10:43.159Z</time>
      </trkpt>
      <trkpt lat="43.34123" lon="6.58679">
        <ele>115.51</ele>
        <time>2025-03-15T17:10:44.917Z</time>
      </trkpt>
      <trkpt lat="43.34123" lon="6.58664">
        <ele>115.95</ele>
        <time>2025-03-15T17:10:50.526Z</time>
      </trkpt>
      <trkpt lat="43.34122" lon="6.58662">
        <ele>116.37</ele>
        <time>2025-03-15T17:10:52.411Z</time>
      </trkpt>
      <trkpt lat="43.34122" lon="6.58659">
        <ele>116.8</ele>
        <time>2025-03-15T17:10:54.352Z</time>
      </trkpt>
      <trkpt lat="43.34121" lon="6.58657">
        <ele>117.24</ele>
        <time>2025-03-15T17:10:56.327Z</time>
      </trkpt>
      <trkpt lat="43.34121" lon="6.58654">
        <ele>117.68</ele>
        <time>2025-03-15T17:10:58.303Z</time>
      </trkpt>
      <trkpt lat="43.3412" lon="6.58653">
        <ele>118.13</ele>
        <time>2025-03-15T17:11:00.330Z</time>
      </trkpt>
      <trkpt lat="43.3411" lon="6.58639">
        <ele>118.67</ele>
        <time>2025-03-15T17:11:07.501Z</time>
      </trkpt>
      <trkpt lat="43.34104" lon="6.58627">
        <ele>119.19</ele>
        <time>2025-03-15T17:11:13.081Z</time>
      </trkpt>
      <trkpt lat="43.34103" lon="6.58625">
        <ele>119.66</ele>
        <time>2025-03-15T17:11:15.201Z</time>
      </trkpt>
      <trkpt lat="43.34102" lon="6.58622">
        <ele>120.14</ele>
        <time>2025-03-15T17:11:17.355Z</time>
      </trkpt>
      <trkpt lat="43.34102" lon="6.5862">
        <ele>120.62</ele>
        <time>2025-03-15T17:11:19.510Z</time>
      </trkpt>
      <trkpt lat="43.34098" lon="6.58612">
        <ele>121.14</ele>
        <time>2025-03-15T17:11:23.639Z</time>
      </trkpt>
      <trkpt lat="43.34095" lon="6.58604">
        <ele>121.66</ele>
        <time>2025-03-15T17:11:27.278Z</time>
      </trkpt>
      <trkpt lat="43.34095" lon="6.58601">
        <ele>122.15</ele>
        <time>2025-03-15T17:11:29.478Z</time>
      </trkpt>
      <trkpt lat="43.34095" lon="6.58599">
        <ele>122.65</ele>
        <time>2025-03-15T17:11:31.726Z</time>
      </trkpt>
      <trkpt lat="43.34096" lon="6.58596">
        <ele>123.14</ele>
        <time>2025-03-15T17:11:33.943Z</time>
      </trkpt>
      <trkpt lat="43.34097" lon="6.58593">
        <ele>123.63</ele>
        <time>2025-03-15T17:11:36.163Z</time>
      </trkpt>
      <trkpt lat="43.341" lon="6.58581">
        <ele>124.14</ele>
        <time>2025-03-15T17:11:41.441Z</time>
      </trkpt>
      <trkpt lat="43.341" lon="6.58565">
        <ele>124.68</ele>
        <time>2025-03-15T17:11:47.491Z</time>
      </trkpt>
      <trkpt lat="43.341" lon="6.58562">
        <ele>125.18</ele>
        <time>2025-03-15T17:11:49.735Z</time>
      </trkpt>
      <trkpt lat="43.34101" lon="6.5856">
        <ele>125.68</ele>
        <time>2025-03-15T17:11:51.989Z</time>
      </trkpt>
      <trkpt lat="43.34101" lon="6.58557">
        <ele>126.18</ele>
        <time>2025-03-15T17:11:54.238Z</time>
      </trkpt>
      <trkpt lat="43.34102" lon="6.58546">
        <ele>126.7</ele>
        <time>2025-03-15T17:11:58.848Z</time>
      </trkpt>
      <trkpt lat="43.34102" lon="6.58538">
        <ele>127.2</ele>
        <time>2025-03-15T17:12:02.212Z</time>
      </trkpt>
      <trkpt lat="43.34102" lon="6.58536">
        <ele>127.71</ele>
        <time>2025-03-15T17:12:04.539Z</time>
      </trkpt>
      <trkpt lat="43.34102" lon="6.58533">
        <ele>128.21</ele>
        <time>2025-03-15T17:12:06.815Z</time>
      </trkpt>
      <trkpt lat="43.34102" lon="6.58531">
        <ele>128.71</ele>
        <time>2025-03-15T17:12:09.118Z</time>
      </trkpt>
      <trkpt lat="43.34102" lon="6.58529">
        <ele>129.22</ele>
        <time>2025-03-15T17:12:11.470Z</time>
      </trkpt>
      <trkpt lat="43.34103" lon="6.58519">
        <ele>129.75</ele>
        <time>2025-03-15T17:12:15.550Z</time>
      </trkpt>
      <trkpt lat="43.34103" lon="6.58517">
        <ele>130.27</ele>
        <time>2025-03-15T17:12:17.938Z</time>
      </trkpt>
      <trkpt lat="43.34103" lon="6.58515">
        <ele>130.78</ele>
        <time>2025-03-15T17:12:20.303Z</time>
      </trkpt>
      <trkpt lat="43.34103" lon="6.58512">
        <ele>131.29</ele>
        <time>2025-03-15T17:12:22.645Z</time>
      </trkpt>
      <trkpt lat="43.34103" lon="6.5851">
        <ele>131.81</ele>
        <time>2025-03-15T17:12:25.020Z</time>
      </trkpt>
      <trkpt lat="43.34101" lon="6.58503">
        <ele>132.36</ele>
        <time>2025-03-15T17:12:28.506Z</time>
      </trkpt>
      <trkpt lat="43.341" lon="6.58501">
        <ele>132.89</ele>
        <time>2025-03-15T17:12:30.957Z</time>
      </trkpt>
      <trkpt lat="43.34099" lon="6.58499">
        <ele>133.42</ele>
        <time>2025-03-15T17:12:33.377Z</time>
      </trkpt>
      <trkpt lat="43.34098" lon="6.58497">
        <ele>133.95</ele>
        <time>2025-03-15T17:12:35.862Z</time>
      </trkpt>
      <trkpt lat="43.34095" lon="6.58496">
        <ele>134.5</ele>
        <time>2025-03-15T17:12:38.476Z</time>
      </trkpt>
      <trkpt lat="43.34093" lon="6.58497">
        <ele>135.02</ele>
        <time>2025-03-15T17:12:40.824Z</time>
      </trkpt>
      <trkpt lat="43.34091" lon="6.58497">
        <ele>135.55</ele>
        <time>2025-03-15T17:12:43.218Z</time>
      </trkpt>
      <trkpt lat="43.34089" lon="6.58497">
        <ele>136.07</ele>
        <time>2025-03-15T17:12:45.592Z</time>
      </trkpt>
      <trkpt lat="43.34088" lon="6.58497">
        <ele>136.59</ele>
        <time>2025-03-15T17:12:48.137Z</time>
      </trkpt>
      <trkpt lat="43.34086" lon="6.58497">
        <ele>137.1</ele>
        <time>2025-03-15T17:12:50.514Z</time>
      </trkpt>
      <trkpt lat="43.34083" lon="6.585">
        <ele>137.61</ele>
        <time>2025-03-15T17:12:53.163Z</time>
      </trkpt>
      <trkpt lat="43.3408" lon="6.58504">
        <ele>138.12</ele>
        <time>2025-03-15T17:12:56.094Z</time>
      </trkpt>
      <trkpt lat="43.34079" lon="6.58506">
        <ele>138.62</ele>
        <time>2025-03-15T17:12:58.397Z</time>
      </trkpt>
      <trkpt lat="43.34077" lon="6.58507">
        <ele>139.12</ele>
        <time>2025-03-15T17:13:00.647Z</time>
      </trkpt>
      <trkpt lat="43.34075" lon="6.58509">
        <ele>139.62</ele>
        <time>2025-03-15T17:13:02.903Z</time>
      </trkpt>
      <trkpt lat="43.34074" lon="6.58509">
        <ele>140.11</ele>
        <time>2025-03-15T17:13:05.324Z</time>
      </trkpt>
      <trkpt lat="43.34071" lon="6.5851">
        <ele>140.62</ele>
        <time>2025-03-15T17:13:07.962Z</time>
      </trkpt>
      <trkpt lat="43.34065" lon="6.58512">
        <ele>141.13</ele>
        <time>2025-03-15T17:13:11.300Z</time>
      </trkpt>
      <trkpt lat="43.34064" lon="6.58513">
        <ele>141.62</ele>
        <time>2025-03-15T17:13:13.513Z</time>
      </trkpt>
      <trkpt lat="43.34062" lon="6.58512">
        <ele>142.1</ele>
        <time>2025-03-15T17:13:15.683Z</time>
      </trkpt>
      <trkpt lat="43.34061" lon="6.58511">
        <ele>142.58</ele>
        <time>2025-03-15T17:13:17.865Z</time>
      </trkpt>
      <trkpt lat="43.34059" lon="6.58509">
        <ele>143.06</ele>
        <time>2025-03-15T17:13:20.022Z</time>
      </trkpt>
      <trkpt lat="43.34057" lon="6.58506">
        <ele>143.53</ele>
        <time>2025-03-15T17:13:22.345Z</time>
      </trkpt>
      <trkpt lat="43.34056" lon="6.58503">
        <ele>143.99</ele>
        <time>2025-03-15T17:13:24.410Z</time>
      </trkpt>
      <trkpt lat="43.34057" lon="6.58501">
        <ele>144.43</ele>
        <time>2025-03-15T17:13:26.387Z</time>
      </trkpt>
      <trkpt lat="43.34057" lon="6.58499">
        <ele>144.85</ele>
        <time>2025-03-15T17:13:28.278Z</time>
      </trkpt>
      <trkpt lat="43.34057" lon="6.58496">
        <ele>145.28</ele>
        <time>2025-03-15T17:13:30.223Z</time>
      </trkpt>
      <trkpt lat="43.34057" lon="6.58494">
        <ele>145.7</ele>
        <time>2025-03-15T17:13:32.133Z</time>
      </trkpt>
      <trkpt lat="43.34058" lon="6.58487">
        <ele>146.11</ele>
        <time>2025-03-15T17:13:35.054Z</time>
      </trkpt>
      <trkpt lat="43.34058" lon="6.58485">
        <ele>146.51</ele>
        <time>2025-03-15T17:13:36.850Z</time>
      </trkpt>
      <trkpt lat="43.34058" lon="6.58483">
        <ele>146.9</ele>
        <time>2025-03-15T17:13:38.612Z</time>
      </trkpt>
      <trkpt lat="43.34058" lon="6.5848">
        <ele>147.28</ele>
        <time>2025-03-15T17:13:40.362Z</time>
      </trkpt>
      <trkpt lat="43.34059" lon="6.58478">
        <ele>147.64</ele>
        <time>2025-03-15T17:13:42.005Z</time>
      </trkpt>
      <trkpt lat="43.3406" lon="6.58474">
        <ele>148</ele>
        <time>2025-03-15T17:13:44.242Z</time>
      </trkpt>
      <trkpt lat="43.34062" lon="6.58463">
        <ele>148.36</ele>
        <time>2025-03-15T17:13:48.289Z</time>
      </trkpt>
      <trkpt lat="43.34062" lon="6.58461">
        <ele>148.7</ele>
        <time>2025-03-15T17:13:49.876Z</time>
      </trkpt>
      <trkpt lat="43.34062" lon="6.58458">
        <ele>149.03</ele>
        <time>2025-03-15T17:13:51.454Z</time>
      </trkpt>
      <trkpt lat="43.34063" lon="6.58456">
        <ele>149.35</ele>
        <time>2025-03-15T17:13:52.997Z</time>
      </trkpt>
      <trkpt lat="43.34063" lon="6.58453">
        <ele>149.66</ele>
        <time>2025-03-15T17:13:54.504Z</time>
      </trkpt>
      <trkpt lat="43.34062" lon="6.58437">
        <ele>149.98</ele>
        <time>2025-03-15T17:14:00.420Z</time>
      </trkpt>
      <trkpt lat="43.34062" lon="6.58435">
        <ele>150.28</ele>
        <time>2025-03-15T17:14:01.867Z</time>
      </trkpt>
      <trkpt lat="43.34061" lon="6.58434">
        <ele>150.58</ele>
        <time>2025-03-15T17:14:03.219Z</time>
      </trkpt>
      <trkpt lat="43.34059" lon="6.58432">
        <ele>150.89</ele>
        <time>2025-03-15T17:14:04.689Z</time>
      </trkpt>
      <trkpt lat="43.34058" lon="6.58431">
        <ele>151.18</ele>
        <time>2025-03-15T17:14:06.019Z</time>
      </trkpt>
      <trkpt lat="43.34055" lon="6.5843">
        <ele>151.49</ele>
        <time>2025-03-15T17:14:08.049Z</time>
      </trkpt>
      <trkpt lat="43.34053" lon="6.58431">
        <ele>151.77</ele>
        <time>2025-03-15T17:14:09.387Z</time>
      </trkpt>
      <trkpt lat="43.34049" lon="6.58435">
        <ele>152.09</ele>
        <time>2025-03-15T17:14:12.296Z</time>
      </trkpt>
      <trkpt lat="43.34049" lon="6.58437">
        <ele>152.34</ele>
        <time>2025-03-15T17:14:13.421Z</time>
      </trkpt>
      <trkpt lat="43.34049" lon="6.58437">
        <ele>152.6</ele>
        <time>2025-03-15T17:14:14.620Z</time>
      </trkpt>
      <trkpt lat="43.34048" lon="6.58438">
        <ele>152.85</ele>
        <time>2025-03-15T17:14:15.745Z</time>
      </trkpt>
      <trkpt lat="43.34047" lon="6.58439">
        <ele>153.09</ele>
        <time>2025-03-15T17:14:16.901Z</time>
      </trkpt>
      <trkpt lat="43.34046" lon="6.5844">
        <ele>153.33</ele>
        <time>2025-03-15T17:14:18.067Z</time>
      </trkpt>
      <trkpt lat="43.34041" lon="6.58448">
        <ele>153.57</ele>
        <time>2025-03-15T17:14:22.144Z</time>
      </trkpt>
      <trkpt lat="43.3404" lon="6.58451">
        <ele>153.78</ele>
        <time>2025-03-15T17:14:23.386Z</time>
      </trkpt>
      <trkpt lat="43.34039" lon="6.58452">
        <ele>153.99</ele>
        <time>2025-03-15T17:14:24.484Z</time>
      </trkpt>
      <trkpt lat="43.34038" lon="6.58454">
        <ele>154.19</ele>
        <time>2025-03-15T17:14:25.527Z</time>
      </trkpt>
      <trkpt lat="43.34037" lon="6.58455">
        <ele>154.39</ele>
        <time>2025-03-15T17:14:26.624Z</time>
      </trkpt>
      <trkpt lat="43.34034" lon="6.5846">
        <ele>154.59</ele>
        <time>2025-03-15T17:14:29.194Z</time>
      </trkpt>
      <trkpt lat="43.34026" lon="6.58462">
        <ele>154.83</ele>
        <time>2025-03-15T17:14:33.082Z</time>
      </trkpt>
      <trkpt lat="43.34025" lon="6.58461">
        <ele>155.02</ele>
        <time>2025-03-15T17:14:34.006Z</time>
      </trkpt>
      <trkpt lat="43.34024" lon="6.58461">
        <ele>155.21</ele>
        <time>2025-03-15T17:14:34.982Z</time>
      </trkpt>
      <trkpt lat="43.34023" lon="6.58459">
        <ele>155.39</ele>
        <time>2025-03-15T17:14:35.899Z</time>
      </trkpt>
      <trkpt lat="43.34023" lon="6.58457">
        <ele>155.56</ele>
        <time>2025-03-15T17:14:36.797Z</time>
      </trkpt>
      <trkpt lat="43.34023" lon="6.58454">
        <ele>155.74</ele>
        <time>2025-03-15T17:14:38.295Z</time>
      </trkpt>
      <trkpt lat="43.34023" lon="6.58452">
        <ele>155.91</ele>
        <time>2025-03-15T17:14:39.372Z</time>
      </trkpt>
      <trkpt lat="43.34023" lon="6.5845">
        <ele>156.07</ele>
        <time>2025-03-15T17:14:40.299Z</time>
      </trkpt>
      <trkpt lat="43.34023" lon="6.58448">
        <ele>156.24</ele>
        <time>2025-03-15T17:14:41.182Z</time>
      </trkpt>
      <trkpt lat="43.34024" lon="6.58446">
        <ele>156.4</ele>
        <time>2025-03-15T17:14:42.273Z</time>
      </trkpt>
      <trkpt lat="43.34024" lon="6.58444">
        <ele>156.56</ele>
        <time>2025-03-15T17:14:43.170Z</time>
      </trkpt>
      <trkpt lat="43.34024" lon="6.58441">
        <ele>156.73</ele>
        <time>2025-03-15T17:14:44.362Z</time>
      </trkpt>
      <trkpt lat="43.34025" lon="6.58438">
        <ele>156.89</ele>
        <time>2025-03-15T17:14:45.874Z</time>
      </trkpt>
      <trkpt lat="43.34026" lon="6.58436">
        <ele>157.05</ele>
        <time>2025-03-15T17:14:46.838Z</time>
      </trkpt>
      <trkpt lat="43.34026" lon="6.58434">
        <ele>157.23</ele>
        <time>2025-03-15T17:14:47.934Z</time>
      </trkpt>
      <trkpt lat="43.34026" lon="6.58431">
        <ele>157.4</ele>
        <time>2025-03-15T17:14:48.960Z</time>
      </trkpt>
      <trkpt lat="43.34026" lon="6.5843">
        <ele>157.57</ele>
        <time>2025-03-15T17:14:49.891Z</time>
      </trkpt>
      <trkpt lat="43.34026" lon="6.58428">
        <ele>157.75</ele>
        <time>2025-03-15T17:14:50.907Z</time>
      </trkpt>
      <trkpt lat="43.34026" lon="6.58421">
        <ele>157.96</ele>
        <time>2025-03-15T17:14:53.355Z</time>
      </trkpt>
      <trkpt lat="43.34025" lon="6.5842">
        <ele>158.14</ele>
        <time>2025-03-15T17:14:54.302Z</time>
      </trkpt>
      <trkpt lat="43.34026" lon="6.58418">
        <ele>158.34</ele>
        <time>2025-03-15T17:14:55.288Z</time>
      </trkpt>
      <trkpt lat="43.34025" lon="6.58416">
        <ele>158.55</ele>
        <time>2025-03-15T17:14:56.324Z</time>
      </trkpt>
      <trkpt lat="43.34025" lon="6.58414">
        <ele>158.77</ele>
        <time>2025-03-15T17:14:57.394Z</time>
      </trkpt>
      <trkpt lat="43.34025" lon="6.58412">
        <ele>158.99</ele>
        <time>2025-03-15T17:14:58.600Z</time>
      </trkpt>
      <trkpt lat="43.34024" lon="6.58406">
        <ele>159.23</ele>
        <time>2025-03-15T17:15:01.127Z</time>
      </trkpt>
      <trkpt lat="43.34024" lon="6.58404">
        <ele>159.48</ele>
        <time>2025-03-15T17:15:02.368Z</time>
      </trkpt>
      <trkpt lat="43.34023" lon="6.58402">
        <ele>159.73</ele>
        <time>2025-03-15T17:15:03.539Z</time>
      </trkpt>
      <trkpt lat="43.34022" lon="6.584">
        <ele>160</ele>
        <time>2025-03-15T17:15:04.828Z</time>
      </trkpt>
      <trkpt lat="43.34021" lon="6.58397">
        <ele>160.29</ele>
        <time>2025-03-15T17:15:06.727Z</time>
      </trkpt>
      <trkpt lat="43.34018" lon="6.58392">
        <ele>160.6</ele>
        <time>2025-03-15T17:15:09.300Z</time>
      </trkpt>
      <trkpt lat="43.34017" lon="6.5839">
        <ele>160.9</ele>
        <time>2025-03-15T17:15:10.673Z</time>
      </trkpt>
      <trkpt lat="43.34016" lon="6.58389">
        <ele>161.22</ele>
        <time>2025-03-15T17:15:12.147Z</time>
      </trkpt>
      <trkpt lat="43.34014" lon="6.58388">
        <ele>161.54</ele>
        <time>2025-03-15T17:15:13.584Z</time>
      </trkpt>
      <trkpt lat="43.34013" lon="6.58387">
        <ele>161.88</ele>
        <time>2025-03-15T17:15:15.127Z</time>
      </trkpt>
      <trkpt lat="43.34009" lon="6.58387">
        <ele>162.25</ele>
        <time>2025-03-15T17:15:17.684Z</time>
      </trkpt>
      <trkpt lat="43.34007" lon="6.58387">
        <ele>162.6</ele>
        <time>2025-03-15T17:15:19.274Z</time>
      </trkpt>
      <trkpt lat="43.34006" lon="6.58389">
        <ele>162.96</ele>
        <time>2025-03-15T17:15:20.944Z</time>
      </trkpt>
      <trkpt lat="43.34004" lon="6.5839">
        <ele>163.34</ele>
        <time>2025-03-15T17:15:22.650Z</time>
      </trkpt>
      <trkpt lat="43.34003" lon="6.58391">
        <ele>163.72</ele>
        <time>2025-03-15T17:15:24.356Z</time>
      </trkpt>
      <trkpt lat="43.34002" lon="6.58393">
        <ele>164.11</ele>
        <time>2025-03-15T17:15:26.107Z</time>
      </trkpt>
      <trkpt lat="43.33998" lon="6.58408">
        <ele>164.49</ele>
        <time>2025-03-15T17:15:32.027Z</time>
      </trkpt>
      <trkpt lat="43.33992" lon="6.58413">
        <ele>164.92</ele>
        <time>2025-03-15T17:15:35.756Z</time>
      </trkpt>
      <trkpt lat="43.33991" lon="6.58413">
        <ele>165.35</ele>
        <time>2025-03-15T17:15:38.047Z</time>
      </trkpt>
      <trkpt lat="43.3399" lon="6.58413">
        <ele>165.8</ele>
        <time>2025-03-15T17:15:40.067Z</time>
      </trkpt>
      <trkpt lat="43.33988" lon="6.58413">
        <ele>166.25</ele>
        <time>2025-03-15T17:15:42.115Z</time>
      </trkpt>
      <trkpt lat="43.33987" lon="6.58412">
        <ele>166.72</ele>
        <time>2025-03-15T17:15:44.248Z</time>
      </trkpt>
      <trkpt lat="43.33985" lon="6.5841">
        <ele>167.21</ele>
        <time>2025-03-15T17:15:46.451Z</time>
      </trkpt>
      <trkpt lat="43.33985" lon="6.58406">
        <ele>167.71</ele>
        <time>2025-03-15T17:15:48.916Z</time>
      </trkpt>
      <trkpt lat="43.33984" lon="6.58401">
        <ele>168.22</ele>
        <time>2025-03-15T17:15:51.473Z</time>
      </trkpt>
      <trkpt lat="43.33984" lon="6.58399">
        <ele>168.72</ele>
        <time>2025-03-15T17:15:53.768Z</time>
      </trkpt>
      <trkpt lat="43.33983" lon="6.58397">
        <ele>169.23</ele>
        <time>2025-03-15T17:15:56.403Z</time>
      </trkpt>
      <trkpt lat="43.33983" lon="6.58396">
        <ele>169.75</ele>
        <time>2025-03-15T17:15:59.134Z</time>
      </trkpt>
      <trkpt lat="43.33984" lon="6.58394">
        <ele>170.27</ele>
        <time>2025-03-15T17:16:01.247Z</time>
      </trkpt>
      <trkpt lat="43.33984" lon="6.58388">
        <ele>170.82</ele>
        <time>2025-03-15T17:16:04.431Z</time>
      </trkpt>
      <trkpt lat="43.33984" lon="6.58386">
        <ele>171.36</ele>
        <time>2025-03-15T17:16:06.996Z</time>
      </trkpt>
      <trkpt lat="43.33984" lon="6.58384">
        <ele>171.91</ele>
        <time>2025-03-15T17:16:09.725Z</time>
      </trkpt>
      <trkpt lat="43.33984" lon="6.58381">
        <ele>172.47</ele>
        <time>2025-03-15T17:16:12.311Z</time>
      </trkpt>
      <trkpt lat="43.33984" lon="6.58379">
        <ele>173.04</ele>
        <time>2025-03-15T17:16:14.965Z</time>
      </trkpt>
      <trkpt lat="43.33984" lon="6.58368">
        <ele>173.64</ele>
        <time>2025-03-15T17:16:19.477Z</time>
      </trkpt>
      <trkpt lat="43.33984" lon="6.58366">
        <ele>174.22</ele>
        <time>2025-03-15T17:16:22.125Z</time>
      </trkpt>
      <trkpt lat="43.33983" lon="6.58363">
        <ele>174.81</ele>
        <time>2025-03-15T17:16:24.786Z</time>
      </trkpt>
      <trkpt lat="43.33983" lon="6.5836">
        <ele>175.39</ele>
        <time>2025-03-15T17:16:27.467Z</time>
      </trkpt>
      <trkpt lat="43.33983" lon="6.58357">
        <ele>175.98</ele>
        <time>2025-03-15T17:16:30.204Z</time>
      </trkpt>
      <trkpt lat="43.33982" lon="6.58346">
        <ele>176.6</ele>
        <time>2025-03-15T17:16:35.127Z</time>
      </trkpt>
      <trkpt lat="43.33981" lon="6.58343">
        <ele>177.19</ele>
        <time>2025-03-15T17:16:37.837Z</time>
      </trkpt>
      <trkpt lat="43.33981" lon="6.5834">
        <ele>177.78</ele>
        <time>2025-03-15T17:16:40.547Z</time>
      </trkpt>
      <trkpt lat="43.3398" lon="6.58338">
        <ele>178.37</ele>
        <time>2025-03-15T17:16:43.355Z</time>
      </trkpt>
      <trkpt lat="43.3398" lon="6.58335">
        <ele>178.95</ele>
        <time>2025-03-15T17:16:45.977Z</time>
      </trkpt>
      <trkpt lat="43.33978" lon="6.58326">
        <ele>179.57</ele>
        <time>2025-03-15T17:16:50.299Z</time>
      </trkpt>
      <trkpt lat="43.33977" lon="6.58314">
        <ele>180.18</ele>
        <time>2025-03-15T17:16:55.136Z</time>
      </trkpt>
      <trkpt lat="43.33977" lon="6.58312">
        <ele>180.75</ele>
        <time>2025-03-15T17:16:57.755Z</time>
      </trkpt>
      <trkpt lat="43.33977" lon="6.5831">
        <ele>181.3</ele>
        <time>2025-03-15T17:17:00.405Z</time>
      </trkpt>
      <trkpt lat="43.33976" lon="6.58307">
        <ele>181.85</ele>
        <time>2025-03-15T17:17:03.028Z</time>
      </trkpt>
      <trkpt lat="43.33974" lon="6.58296">
        <ele>182.42</ele>
        <time>2025-03-15T17:17:08.029Z</time>
      </trkpt>
      <trkpt lat="43.33973" lon="6.58282">
        <ele>182.97</ele>
        <time>2025-03-15T17:17:13.365Z</time>
      </trkpt>
      <trkpt lat="43.33973" lon="6.58279">
        <ele>183.48</ele>
        <time>2025-03-15T17:17:15.667Z</time>
      </trkpt>
      <trkpt lat="43.33974" lon="6.58276">
        <ele>183.98</ele>
        <time>2025-03-15T17:17:17.971Z</time>
      </trkpt>
      <trkpt lat="43.33974" lon="6.58272">
        <ele>184.46</ele>
        <time>2025-03-15T17:17:20.187Z</time>
      </trkpt>
      <trkpt lat="43.33974" lon="6.58269">
        <ele>184.92</ele>
        <time>2025-03-15T17:17:22.321Z</time>
      </trkpt>
      <trkpt lat="43.33974" lon="6.58258">
        <ele>185.38</ele>
        <time>2025-03-15T17:17:26.617Z</time>
      </trkpt>
      <trkpt lat="43.33976" lon="6.5824">
        <ele>185.77</ele>
        <time>2025-03-15T17:17:33.450Z</time>
      </trkpt>
      <trkpt lat="43.33975" lon="6.58228">
        <ele>186.17</ele>
        <time>2025-03-15T17:17:37.934Z</time>
      </trkpt>
      <trkpt lat="43.33972" lon="6.5822">
        <ele>186.57</ele>
        <time>2025-03-15T17:17:41.764Z</time>
      </trkpt>
      <trkpt lat="43.3397" lon="6.58218">
        <ele>186.93</ele>
        <time>2025-03-15T17:17:43.448Z</time>
      </trkpt>
      <trkpt lat="43.33969" lon="6.58216">
        <ele>187.26</ele>
        <time>2025-03-15T17:17:45.110Z</time>
      </trkpt>
      <trkpt lat="43.33968" lon="6.58214">
        <ele>187.57</ele>
        <time>2025-03-15T17:17:46.614Z</time>
      </trkpt>
      <trkpt lat="43.33966" lon="6.58212">
        <ele>187.85</ele>
        <time>2025-03-15T17:17:48.040Z</time>
      </trkpt>
      <trkpt lat="43.33966" lon="6.58209">
        <ele>188.1</ele>
        <time>2025-03-15T17:17:49.484Z</time>
      </trkpt>
      <trkpt lat="43.33966" lon="6.58203">
        <ele>188.33</ele>
        <time>2025-03-15T17:17:51.860Z</time>
      </trkpt>
      <trkpt lat="43.33965" lon="6.58201">
        <ele>188.52</ele>
        <time>2025-03-15T17:17:52.987Z</time>
      </trkpt>
      <trkpt lat="43.33963" lon="6.58199">
        <ele>188.69</ele>
        <time>2025-03-15T17:17:54.441Z</time>
      </trkpt>
      <trkpt lat="43.33962" lon="6.58197">
        <ele>188.82</ele>
        <time>2025-03-15T17:17:55.312Z</time>
      </trkpt>
      <trkpt lat="43.3396" lon="6.58197">
        <ele>188.92</ele>
        <time>2025-03-15T17:17:56.298Z</time>
      </trkpt>
      <trkpt lat="43.33959" lon="6.58195">
        <ele>188.99</ele>
        <time>2025-03-15T17:17:57.253Z</time>
      </trkpt>
      <trkpt lat="43.33955" lon="6.5819">
        <ele>189.03</ele>
        <time>2025-03-15T17:17:59.600Z</time>
      </trkpt>
      <trkpt lat="43.33956" lon="6.58188">
        <ele>189.03</ele>
        <time>2025-03-15T17:18:00.245Z</time>
      </trkpt>
      <trkpt lat="43.33956" lon="6.58186">
        <ele>188.98</ele>
        <time>2025-03-15T17:18:00.698Z</time>
      </trkpt>
      <trkpt lat="43.33957" lon="6.58185">
        <ele>188.91</ele>
        <time>2025-03-15T17:18:01.391Z</time>
      </trkpt>
      <trkpt lat="43.33958" lon="6.58183">
        <ele>188.8</ele>
        <time>2025-03-15T17:18:02.173Z</time>
      </trkpt>
      <trkpt lat="43.33962" lon="6.58179">
        <ele>188.68</ele>
        <time>2025-03-15T17:18:04.017Z</time>
      </trkpt>
      <trkpt lat="43.33979" lon="6.58158">
        <ele>188.5</ele>
        <time>2025-03-15T17:18:14.419Z</time>
      </trkpt>
      <trkpt lat="43.33998" lon="6.58142">
        <ele>188.26</ele>
        <time>2025-03-15T17:18:24.343Z</time>
      </trkpt>
      <trkpt lat="43.34007" lon="6.58135">
        <ele>187.94</ele>
        <time>2025-03-15T17:18:28.373Z</time>
      </trkpt>
      <trkpt lat="43.34015" lon="6.58127">
        <ele>187.61</ele>
        <time>2025-03-15T17:18:32.754Z</time>
      </trkpt>
      <trkpt lat="43.3402" lon="6.58122">
        <ele>187.29</ele>
        <time>2025-03-15T17:18:34.886Z</time>
      </trkpt>
      <trkpt lat="43.34024" lon="6.58117">
        <ele>186.93</ele>
        <time>2025-03-15T17:18:37.200Z</time>
      </trkpt>
      <trkpt lat="43.34029" lon="6.58113">
        <ele>186.54</ele>
        <time>2025-03-15T17:18:39.640Z</time>
      </trkpt>
      <trkpt lat="43.34034" lon="6.58109">
        <ele>186.09</ele>
        <time>2025-03-15T17:18:41.901Z</time>
      </trkpt>
      <trkpt lat="43.34039" lon="6.58105">
        <ele>185.61</ele>
        <time>2025-03-15T17:18:44.170Z</time>
      </trkpt>
      <trkpt lat="43.34045" lon="6.58101">
        <ele>185.11</ele>
        <time>2025-03-15T17:18:46.829Z</time>
      </trkpt>
      <trkpt lat="43.34051" lon="6.58097">
        <ele>184.59</ele>
        <time>2025-03-15T17:18:49.342Z</time>
      </trkpt>
      <trkpt lat="43.34056" lon="6.58093">
        <ele>184.03</ele>
        <time>2025-03-15T17:18:51.915Z</time>
      </trkpt>
      <trkpt lat="43.34062" lon="6.58089">
        <ele>183.45</ele>
        <time>2025-03-15T17:18:54.569Z</time>
      </trkpt>
      <trkpt lat="43.34068" lon="6.58085">
        <ele>182.85</ele>
        <time>2025-03-15T17:18:57.243Z</time>
      </trkpt>
      <trkpt lat="43.34074" lon="6.58082">
        <ele>182.21</ele>
        <time>2025-03-15T17:18:59.670Z</time>
      </trkpt>
      <trkpt lat="43.3408" lon="6.58079">
        <ele>181.53</ele>
        <time>2025-03-15T17:19:02.113Z</time>
      </trkpt>
      <trkpt lat="43.34085" lon="6.58076">
        <ele>180.83</ele>
        <time>2025-03-15T17:19:04.463Z</time>
      </trkpt>
      <trkpt lat="43.34091" lon="6.58074">
        <ele>180.1</ele>
        <time>2025-03-15T17:19:06.742Z</time>
      </trkpt>
      <trkpt lat="43.34117" lon="6.5806">
        <ele>179.28</ele>
        <time>2025-03-15T17:19:18.721Z</time>
      </trkpt>
      <trkpt lat="43.34123" lon="6.5806">
        <ele>178.51</ele>
        <time>2025-03-15T17:19:21.098Z</time>
      </trkpt>
      <trkpt lat="43.34129" lon="6.58062">
        <ele>177.72</ele>
        <time>2025-03-15T17:19:23.216Z</time>
      </trkpt>
      <trkpt lat="43.34134" lon="6.58063">
        <ele>176.92</ele>
        <time>2025-03-15T17:19:25.419Z</time>
      </trkpt>
      <trkpt lat="43.3414" lon="6.58065">
        <ele>176.09</ele>
        <time>2025-03-15T17:19:27.818Z</time>
      </trkpt>
      <trkpt lat="43.34145" lon="6.58066">
        <ele>175.24</ele>
        <time>2025-03-15T17:19:30.025Z</time>
      </trkpt>
      <trkpt lat="43.34156" lon="6.58066">
        <ele>174.35</ele>
        <time>2025-03-15T17:19:34.219Z</time>
      </trkpt>
      <trkpt lat="43.3416" lon="6.58064">
        <ele>173.47</ele>
        <time>2025-03-15T17:19:36.050Z</time>
      </trkpt>
      <trkpt lat="43.34164" lon="6.5806">
        <ele>172.58</ele>
        <time>2025-03-15T17:19:38.068Z</time>
      </trkpt>
      <trkpt lat="43.34169" lon="6.58057">
        <ele>171.68</ele>
        <time>2025-03-15T17:19:40.217Z</time>
      </trkpt>
      <trkpt lat="43.34175" lon="6.58054">
        <ele>170.75</ele>
        <time>2025-03-15T17:19:42.583Z</time>
      </trkpt>
      <trkpt lat="43.34179" lon="6.58052">
        <ele>169.83</ele>
        <time>2025-03-15T17:19:44.616Z</time>
      </trkpt>
      <trkpt lat="43.34185" lon="6.58049">
        <ele>168.91</ele>
        <time>2025-03-15T17:19:46.805Z</time>
      </trkpt>
      <trkpt lat="43.34189" lon="6.58046">
        <ele>168</ele>
        <time>2025-03-15T17:19:48.727Z</time>
      </trkpt>
      <trkpt lat="43.34193" lon="6.58042">
        <ele>167.08</ele>
        <time>2025-03-15T17:19:50.796Z</time>
      </trkpt>
      <trkpt lat="43.34197" lon="6.58035">
        <ele>166.17</ele>
        <time>2025-03-15T17:19:53.164Z</time>
      </trkpt>
      <trkpt lat="43.342" lon="6.58027">
        <ele>165.29</ele>
        <time>2025-03-15T17:19:56.022Z</time>
      </trkpt>
      <trkpt lat="43.34204" lon="6.58019">
        <ele>164.39</ele>
        <time>2025-03-15T17:19:58.733Z</time>
      </trkpt>
      <trkpt lat="43.34207" lon="6.5801">
        <ele>163.53</ele>
        <time>2025-03-15T17:20:01.468Z</time>
      </trkpt>
      <trkpt lat="43.34209" lon="6.58001">
        <ele>162.68</ele>
        <time>2025-03-15T17:20:04.152Z</time>
      </trkpt>
      <trkpt lat="43.34211" lon="6.57993">
        <ele>161.82</ele>
        <time>2025-03-15T17:20:06.725Z</time>
      </trkpt>
      <trkpt lat="43.34215" lon="6.57986">
        <ele>161</ele>
        <time>2025-03-15T17:20:09.357Z</time>
      </trkpt>
      <trkpt lat="43.34217" lon="6.57979">
        <ele>160.19</ele>
        <time>2025-03-15T17:20:11.365Z</time>
      </trkpt>
      <trkpt lat="43.34218" lon="6.57972">
        <ele>159.37</ele>
        <time>2025-03-15T17:20:13.683Z</time>
      </trkpt>
      <trkpt lat="43.3422" lon="6.57963">
        <ele>158.54</ele>
        <time>2025-03-15T17:20:16.247Z</time>
      </trkpt>
      <trkpt lat="43.34222" lon="6.57955">
        <ele>157.72</ele>
        <time>2025-03-15T17:20:18.706Z</time>
      </trkpt>
      <trkpt lat="43.34224" lon="6.57949">
        <ele>156.92</ele>
        <time>2025-03-15T17:20:20.805Z</time>
      </trkpt>
      <trkpt lat="43.34229" lon="6.57947">
        <ele>156.14</ele>
        <time>2025-03-15T17:20:22.614Z</time>
      </trkpt>
      <trkpt lat="43.34233" lon="6.57949">
        <ele>155.39</ele>
        <time>2025-03-15T17:20:24.249Z</time>
      </trkpt>
      <trkpt lat="43.34235" lon="6.57953">
        <ele>154.66</ele>
        <time>2025-03-15T17:20:25.854Z</time>
      </trkpt>
      <trkpt lat="43.34236" lon="6.57957">
        <ele>153.95</ele>
        <time>2025-03-15T17:20:27.190Z</time>
      </trkpt>
      <trkpt lat="43.34237" lon="6.57962">
        <ele>153.26</ele>
        <time>2025-03-15T17:20:28.716Z</time>
      </trkpt>
      <trkpt lat="43.34241" lon="6.57965">
        <ele>152.56</ele>
        <time>2025-03-15T17:20:30.248Z</time>
      </trkpt>
      <trkpt lat="43.34245" lon="6.57962">
        <ele>151.86</ele>
        <time>2025-03-15T17:20:32.093Z</time>
      </trkpt>
      <trkpt lat="43.34249" lon="6.57957">
        <ele>151.14</ele>
        <time>2025-03-15T17:20:34.126Z</time>
      </trkpt>
      <trkpt lat="43.3425" lon="6.57952">
        <ele>150.45</ele>
        <time>2025-03-15T17:20:35.883Z</time>
      </trkpt>
      <trkpt lat="43.34251" lon="6.57943">
        <ele>149.77</ele>
        <time>2025-03-15T17:20:38.430Z</time>
      </trkpt>
      <trkpt lat="43.34252" lon="6.57936">
        <ele>149.09</ele>
        <time>2025-03-15T17:20:40.609Z</time>
      </trkpt>
      <trkpt lat="43.34253" lon="6.57928">
        <ele>148.41</ele>
        <time>2025-03-15T17:20:42.841Z</time>
      </trkpt>
      <trkpt lat="43.34255" lon="6.5792">
        <ele>147.78</ele>
        <time>2025-03-15T17:20:45.172Z</time>
      </trkpt>
      <trkpt lat="43.34253" lon="6.57913">
        <ele>147.16</ele>
        <time>2025-03-15T17:20:47.416Z</time>
      </trkpt>
      <trkpt lat="43.34251" lon="6.57907">
        <ele>146.58</ele>
        <time>2025-03-15T17:20:49.229Z</time>
      </trkpt>
      <trkpt lat="43.34249" lon="6.57903">
        <ele>146.02</ele>
        <time>2025-03-15T17:20:50.887Z</time>
      </trkpt>
      <trkpt lat="43.34249" lon="6.57898">
        <ele>145.45</ele>
        <time>2025-03-15T17:20:52.256Z</time>
      </trkpt>
      <trkpt lat="43.34251" lon="6.57896">
        <ele>144.9</ele>
        <time>2025-03-15T17:20:53.267Z</time>
      </trkpt>
      <trkpt lat="43.34253" lon="6.57894">
        <ele>144.37</ele>
        <time>2025-03-15T17:20:54.251Z</time>
      </trkpt>
      <trkpt lat="43.34256" lon="6.57895">
        <ele>143.84</ele>
        <time>2025-03-15T17:20:55.414Z</time>
      </trkpt>
      <trkpt lat="43.34258" lon="6.57896">
        <ele>143.34</ele>
        <time>2025-03-15T17:20:56.587Z</time>
      </trkpt>
      <trkpt lat="43.34262" lon="6.57896">
        <ele>142.84</ele>
        <time>2025-03-15T17:20:57.880Z</time>
      </trkpt>
      <trkpt lat="43.34266" lon="6.57898">
        <ele>142.35</ele>
        <time>2025-03-15T17:20:59.738Z</time>
      </trkpt>
      <trkpt lat="43.34274" lon="6.57908">
        <ele>141.88</ele>
        <time>2025-03-15T17:21:04.221Z</time>
      </trkpt>
      <trkpt lat="43.34275" lon="6.57915">
        <ele>141.44</ele>
        <time>2025-03-15T17:21:06.133Z</time>
      </trkpt>
      <trkpt lat="43.34277" lon="6.5792">
        <ele>141</ele>
        <time>2025-03-15T17:21:07.873Z</time>
      </trkpt>
      <trkpt lat="43.3428" lon="6.57922">
        <ele>140.54</ele>
        <time>2025-03-15T17:21:09.318Z</time>
      </trkpt>
      <trkpt lat="43.34285" lon="6.57918">
        <ele>140.08</ele>
        <time>2025-03-15T17:21:11.501Z</time>
      </trkpt>
      <trkpt lat="43.34287" lon="6.57912">
        <ele>139.61</ele>
        <time>2025-03-15T17:21:13.524Z</time>
      </trkpt>
      <trkpt lat="43.34287" lon="6.57905">
        <ele>139.17</ele>
        <time>2025-03-15T17:21:15.574Z</time>
      </trkpt>
      <trkpt lat="43.34285" lon="6.57899">
        <ele>138.75</ele>
        <time>2025-03-15T17:21:17.389Z</time>
      </trkpt>
      <trkpt lat="43.34283" lon="6.57895">
        <ele>138.34</ele>
        <time>2025-03-15T17:21:18.833Z</time>
      </trkpt>
      <trkpt lat="43.34282" lon="6.57891">
        <ele>137.93</ele>
        <time>2025-03-15T17:21:20.131Z</time>
      </trkpt>
      <trkpt lat="43.34283" lon="6.57886">
        <ele>137.49</ele>
        <time>2025-03-15T17:21:21.569Z</time>
      </trkpt>
      <trkpt lat="43.34282" lon="6.57882">
        <ele>137.07</ele>
        <time>2025-03-15T17:21:22.910Z</time>
      </trkpt>
      <trkpt lat="43.34279" lon="6.57878">
        <ele>136.66</ele>
        <time>2025-03-15T17:21:24.247Z</time>
      </trkpt>
      <trkpt lat="43.34279" lon="6.57874">
        <ele>136.23</ele>
        <time>2025-03-15T17:21:25.453Z</time>
      </trkpt>
      <trkpt lat="43.34278" lon="6.5787">
        <ele>135.79</ele>
        <time>2025-03-15T17:21:26.775Z</time>
      </trkpt>
      <trkpt lat="43.34278" lon="6.57869">
        <ele>135.37</ele>
        <time>2025-03-15T17:21:27.003Z</time>
      </trkpt>
      <trkpt lat="43.34276" lon="6.57865">
        <ele>134.94</ele>
        <time>2025-03-15T17:21:28.407Z</time>
      </trkpt>
      <trkpt lat="43.34275" lon="6.57862">
        <ele>134.5</ele>
        <time>2025-03-15T17:21:29.453Z</time>
      </trkpt>
      <trkpt lat="43.34274" lon="6.5786">
        <ele>134.06</ele>
        <time>2025-03-15T17:21:30.222Z</time>
      </trkpt>
      <trkpt lat="43.34272" lon="6.57858">
        <ele>133.61</ele>
        <time>2025-03-15T17:21:31.156Z</time>
      </trkpt>
      <trkpt lat="43.3427" lon="6.57856">
        <ele>133.14</ele>
        <time>2025-03-15T17:21:32.122Z</time>
      </trkpt>
      <trkpt lat="43.34268" lon="6.57852">
        <ele>132.67</ele>
        <time>2025-03-15T17:21:33.471Z</time>
      </trkpt>
      <trkpt lat="43.34266" lon="6.57849">
        <ele>132.18</ele>
        <time>2025-03-15T17:21:34.600Z</time>
      </trkpt>
      <trkpt lat="43.34264" lon="6.57845">
        <ele>131.68</ele>
        <time>2025-03-15T17:21:35.992Z</time>
      </trkpt>
      <trkpt lat="43.34263" lon="6.57842">
        <ele>131.18</ele>
        <time>2025-03-15T17:21:37.052Z</time>
      </trkpt>
      <trkpt lat="43.34261" lon="6.57839">
        <ele>130.67</ele>
        <time>2025-03-15T17:21:38.088Z</time>
      </trkpt>
      <trkpt lat="43.3426" lon="6.57835">
        <ele>130.14</ele>
        <time>2025-03-15T17:21:39.542Z</time>
      </trkpt>
      <trkpt lat="43.34259" lon="6.57831">
        <ele>129.61</ele>
        <time>2025-03-15T17:21:40.713Z</time>
      </trkpt>
      <trkpt lat="43.34259" lon="6.57828">
        <ele>129.07</ele>
        <time>2025-03-15T17:21:41.655Z</time>
      </trkpt>
      <trkpt lat="43.34257" lon="6.57823">
        <ele>128.52</ele>
        <time>2025-03-15T17:21:43.321Z</time>
      </trkpt>
      <trkpt lat="43.34256" lon="6.57818">
        <ele>127.96</ele>
        <time>2025-03-15T17:21:44.850Z</time>
      </trkpt>
      <trkpt lat="43.34256" lon="6.57813">
        <ele>127.38</ele>
        <time>2025-03-15T17:21:46.353Z</time>
      </trkpt>
      <trkpt lat="43.34256" lon="6.57808">
        <ele>126.79</ele>
        <time>2025-03-15T17:21:47.911Z</time>
      </trkpt>
      <trkpt lat="43.34257" lon="6.57803">
        <ele>126.2</ele>
        <time>2025-03-15T17:21:49.344Z</time>
      </trkpt>
      <trkpt lat="43.34258" lon="6.57792">
        <ele>125.58</ele>
        <time>2025-03-15T17:21:52.573Z</time>
      </trkpt>
      <trkpt lat="43.3426" lon="6.57786">
        <ele>124.99</ele>
        <time>2025-03-15T17:21:54.388Z</time>
      </trkpt>
      <trkpt lat="43.34262" lon="6.57779">
        <ele>124.38</ele>
        <time>2025-03-15T17:21:56.597Z</time>
      </trkpt>
      <trkpt lat="43.34265" lon="6.57772">
        <ele>123.77</ele>
        <time>2025-03-15T17:21:58.993Z</time>
      </trkpt>
      <trkpt lat="43.34269" lon="6.57764">
        <ele>123.16</ele>
        <time>2025-03-15T17:22:01.603Z</time>
      </trkpt>
      <trkpt lat="43.34272" lon="6.57755">
        <ele>122.55</ele>
        <time>2025-03-15T17:22:04.581Z</time>
      </trkpt>
      <trkpt lat="43.34276" lon="6.57747">
        <ele>121.95</ele>
        <time>2025-03-15T17:22:07.443Z</time>
      </trkpt>
      <trkpt lat="43.34279" lon="6.57739">
        <ele>121.37</ele>
        <time>2025-03-15T17:22:10.246Z</time>
      </trkpt>
      <trkpt lat="43.34283" lon="6.57731">
        <ele>120.8</ele>
        <time>2025-03-15T17:22:13.025Z</time>
      </trkpt>
      <trkpt lat="43.34287" lon="6.57724">
        <ele>120.26</ele>
        <time>2025-03-15T17:22:15.345Z</time>
      </trkpt>
      <trkpt lat="43.34292" lon="6.57721">
        <ele>119.73</ele>
        <time>2025-03-15T17:22:17.549Z</time>
      </trkpt>
      <trkpt lat="43.34297" lon="6.57719">
        <ele>119.22</ele>
        <time>2025-03-15T17:22:19.656Z</time>
      </trkpt>
      <trkpt lat="43.34301" lon="6.57717">
        <ele>118.73</ele>
        <time>2025-03-15T17:22:21.487Z</time>
      </trkpt>
      <trkpt lat="43.34306" lon="6.57713">
        <ele>118.25</ele>
        <time>2025-03-15T17:22:23.574Z</time>
      </trkpt>
      <trkpt lat="43.34315" lon="6.57705">
        <ele>117.76</ele>
        <time>2025-03-15T17:22:28.090Z</time>
      </trkpt>
      <trkpt lat="43.3432" lon="6.577">
        <ele>117.33</ele>
        <time>2025-03-15T17:22:30.643Z</time>
      </trkpt>
      <trkpt lat="43.3433" lon="6.5769">
        <ele>116.92</ele>
        <time>2025-03-15T17:22:35.725Z</time>
      </trkpt>
      <trkpt lat="43.34335" lon="6.57684">
        <ele>116.54</ele>
        <time>2025-03-15T17:22:38.291Z</time>
      </trkpt>
      <trkpt lat="43.3434" lon="6.57679">
        <ele>116.19</ele>
        <time>2025-03-15T17:22:40.929Z</time>
      </trkpt>
      <trkpt lat="43.34345" lon="6.57673">
        <ele>115.9</ele>
        <time>2025-03-15T17:22:43.458Z</time>
      </trkpt>
      <trkpt lat="43.34351" lon="6.57668">
        <ele>115.64</ele>
        <time>2025-03-15T17:22:46.276Z</time>
      </trkpt>
      <trkpt lat="43.34356" lon="6.57662">
        <ele>115.4</ele>
        <time>2025-03-15T17:22:48.924Z</time>
      </trkpt>
      <trkpt lat="43.34361" lon="6.57658">
        <ele>115.19</ele>
        <time>2025-03-15T17:22:51.399Z</time>
      </trkpt>
      <trkpt lat="43.34365" lon="6.57652">
        <ele>115.01</ele>
        <time>2025-03-15T17:22:53.687Z</time>
      </trkpt>
      <trkpt lat="43.34368" lon="6.57646">
        <ele>114.89</ele>
        <time>2025-03-15T17:22:56.142Z</time>
      </trkpt>
      <trkpt lat="43.34371" lon="6.5764">
        <ele>114.8</ele>
        <time>2025-03-15T17:22:58.297Z</time>
      </trkpt>
      <trkpt lat="43.34372" lon="6.57634">
        <ele>114.72</ele>
        <time>2025-03-15T17:23:00.267Z</time>
      </trkpt>
      <trkpt lat="43.3438" lon="6.57618">
        <ele>114.68</ele>
        <time>2025-03-15T17:23:06.593Z</time>
      </trkpt>
      <trkpt lat="43.34384" lon="6.57613">
        <ele>114.67</ele>
        <time>2025-03-15T17:23:08.913Z</time>
      </trkpt>
      <trkpt lat="43.34405" lon="6.5758">
        <ele>114.7</ele>
        <time>2025-03-15T17:23:23.500Z</time>
      </trkpt>
      <trkpt lat="43.34413" lon="6.57566">
        <ele>114.78</ele>
        <time>2025-03-15T17:23:29.683Z</time>
      </trkpt>
      <trkpt lat="43.34415" lon="6.57562">
        <ele>114.87</ele>
        <time>2025-03-15T17:23:31.526Z</time>
      </trkpt>
      <trkpt lat="43.34417" lon="6.57558">
        <ele>115.01</ele>
        <time>2025-03-15T17:23:33.348Z</time>
      </trkpt>
      <trkpt lat="43.34419" lon="6.57556">
        <ele>115.17</ele>
        <time>2025-03-15T17:23:34.780Z</time>
      </trkpt>
      <trkpt lat="43.34421" lon="6.57552">
        <ele>115.35</ele>
        <time>2025-03-15T17:23:36.580Z</time>
      </trkpt>
      <trkpt lat="43.34423" lon="6.57548">
        <ele>115.56</ele>
        <time>2025-03-15T17:23:38.476Z</time>
      </trkpt>
      <trkpt lat="43.34425" lon="6.57543">
        <ele>115.81</ele>
        <time>2025-03-15T17:23:40.581Z</time>
      </trkpt>
      <trkpt lat="43.34427" lon="6.57537">
        <ele>116.09</ele>
        <time>2025-03-15T17:23:43.457Z</time>
      </trkpt>
      <trkpt lat="43.3443" lon="6.57531">
        <ele>116.41</ele>
        <time>2025-03-15T17:23:46.386Z</time>
      </trkpt>
      <trkpt lat="43.34433" lon="6.57524">
        <ele>116.75</ele>
        <time>2025-03-15T17:23:49.755Z</time>
      </trkpt>
      <trkpt lat="43.34437" lon="6.57516">
        <ele>117.11</ele>
        <time>2025-03-15T17:23:53.392Z</time>
      </trkpt>
      <trkpt lat="43.34438" lon="6.57511">
        <ele>117.48</ele>
        <time>2025-03-15T17:23:55.700Z</time>
      </trkpt>
      <trkpt lat="43.3444" lon="6.57507">
        <ele>117.87</ele>
        <time>2025-03-15T17:23:57.956Z</time>
      </trkpt>
      <trkpt lat="43.34442" lon="6.57503">
        <ele>118.28</ele>
        <time>2025-03-15T17:24:00.267Z</time>
      </trkpt>
      <trkpt lat="43.34444" lon="6.575">
        <ele>118.7</ele>
        <time>2025-03-15T17:24:02.621Z</time>
      </trkpt>
      <trkpt lat="43.34445" lon="6.57495">
        <ele>119.14</ele>
        <time>2025-03-15T17:24:05.033Z</time>
      </trkpt>
      <trkpt lat="43.3445" lon="6.57482">
        <ele>119.61</ele>
        <time>2025-03-15T17:24:10.747Z</time>
      </trkpt>
      <trkpt lat="43.34452" lon="6.57478">
        <ele>120.08</ele>
        <time>2025-03-15T17:24:13.308Z</time>
      </trkpt>
      <trkpt lat="43.34457" lon="6.57464">
        <ele>120.57</ele>
        <time>2025-03-15T17:24:19.018Z</time>
      </trkpt>
      <trkpt lat="43.34459" lon="6.5746">
        <ele>121.06</ele>
        <time>2025-03-15T17:24:21.572Z</time>
      </trkpt>
      <trkpt lat="43.3446" lon="6.57456">
        <ele>121.55</ele>
        <time>2025-03-15T17:24:24.222Z</time>
      </trkpt>
      <trkpt lat="43.34462" lon="6.57451">
        <ele>122.04</ele>
        <time>2025-03-15T17:24:26.866Z</time>
      </trkpt>
      <trkpt lat="43.34463" lon="6.57447">
        <ele>122.54</ele>
        <time>2025-03-15T17:24:29.322Z</time>
      </trkpt>
      <trkpt lat="43.34465" lon="6.57443">
        <ele>123.04</ele>
        <time>2025-03-15T17:24:31.945Z</time>
      </trkpt>
      <trkpt lat="43.34471" lon="6.57429">
        <ele>123.53</ele>
        <time>2025-03-15T17:24:37.885Z</time>
      </trkpt>
      <trkpt lat="43.34475" lon="6.57422">
        <ele>124.03</ele>
        <time>2025-03-15T17:24:41.961Z</time>
      </trkpt>
      <trkpt lat="43.34477" lon="6.57418">
        <ele>124.52</ele>
        <time>2025-03-15T17:24:44.476Z</time>
      </trkpt>
      <trkpt lat="43.34479" lon="6.57415">
        <ele>125.01</ele>
        <time>2025-03-15T17:24:46.908Z</time>
      </trkpt>
      <trkpt lat="43.34481" lon="6.57411">
        <ele>125.5</ele>
        <time>2025-03-15T17:24:49.444Z</time>
      </trkpt>
      <trkpt lat="43.34484" lon="6.57407">
        <ele>125.97</ele>
        <time>2025-03-15T17:24:52.084Z</time>
      </trkpt>
      <trkpt lat="43.34487" lon="6.57398">
        <ele>126.46</ele>
        <time>2025-03-15T17:24:56.237Z</time>
      </trkpt>
      <trkpt lat="43.34504" lon="6.57371">
        <ele>126.96</ele>
        <time>2025-03-15T17:25:08.562Z</time>
      </trkpt>
      <trkpt lat="43.34507" lon="6.57364">
        <ele>127.44</ele>
        <time>2025-03-15T17:25:12.469Z</time>
      </trkpt>
      <trkpt lat="43.34509" lon="6.5736">
        <ele>127.86</ele>
        <time>2025-03-15T17:25:14.799Z</time>
      </trkpt>
      <trkpt lat="43.34511" lon="6.57355">
        <ele>128.27</ele>
        <time>2025-03-15T17:25:17.162Z</time>
      </trkpt>
      <trkpt lat="43.34512" lon="6.57351">
        <ele>128.66</ele>
        <time>2025-03-15T17:25:19.414Z</time>
      </trkpt>
      <trkpt lat="43.34513" lon="6.57347">
        <ele>129.03</ele>
        <time>2025-03-15T17:25:21.693Z</time>
      </trkpt>
      <trkpt lat="43.34522" lon="6.57321">
        <ele>129.43</ele>
        <time>2025-03-15T17:25:31.728Z</time>
      </trkpt>
      <trkpt lat="43.34523" lon="6.57316">
        <ele>129.75</ele>
        <time>2025-03-15T17:25:33.965Z</time>
      </trkpt>
      <trkpt lat="43.34525" lon="6.57312">
        <ele>130.03</ele>
        <time>2025-03-15T17:25:36.044Z</time>
      </trkpt>
      <trkpt lat="43.34526" lon="6.57307">
        <ele>130.29</ele>
        <time>2025-03-15T17:25:38.359Z</time>
      </trkpt>
      <trkpt lat="43.34528" lon="6.57302">
        <ele>130.53</ele>
        <time>2025-03-15T17:25:40.448Z</time>
      </trkpt>
      <trkpt lat="43.34532" lon="6.57291">
        <ele>130.73</ele>
        <time>2025-03-15T17:25:44.963Z</time>
      </trkpt>
      <trkpt lat="43.34534" lon="6.57288">
        <ele>130.91</ele>
        <time>2025-03-15T17:25:46.329Z</time>
      </trkpt>
      <trkpt lat="43.34536" lon="6.57285">
        <ele>131.06</ele>
        <time>2025-03-15T17:25:48.042Z</time>
      </trkpt>
      <trkpt lat="43.34537" lon="6.57281">
        <ele>131.18</ele>
        <time>2025-03-15T17:25:49.578Z</time>
      </trkpt>
      <trkpt lat="43.3454" lon="6.57278">
        <ele>131.27</ele>
        <time>2025-03-15T17:25:51.173Z</time>
      </trkpt>
      <trkpt lat="43.34544" lon="6.57271">
        <ele>131.33</ele>
        <time>2025-03-15T17:25:54.499Z</time>
      </trkpt>
      <trkpt lat="43.34547" lon="6.57267">
        <ele>131.36</ele>
        <time>2025-03-15T17:25:56.431Z</time>
      </trkpt>
      <trkpt lat="43.3455" lon="6.57263">
        <ele>131.36</ele>
        <time>2025-03-15T17:25:58.285Z</time>
      </trkpt>
      <trkpt lat="43.34553" lon="6.57261">
        <ele>131.31</ele>
        <time>2025-03-15T17:25:59.798Z</time>
      </trkpt>
      <trkpt lat="43.34556" lon="6.57258">
        <ele>131.23</ele>
        <time>2025-03-15T17:26:01.291Z</time>
      </trkpt>
      <trkpt lat="43.34561" lon="6.57254">
        <ele>131.1</ele>
        <time>2025-03-15T17:26:03.797Z</time>
      </trkpt>
      <trkpt lat="43.34563" lon="6.57253">
        <ele>130.95</ele>
        <time>2025-03-15T17:26:04.775Z</time>
      </trkpt>
      <trkpt lat="43.34566" lon="6.57251">
        <ele>130.76</ele>
        <time>2025-03-15T17:26:05.798Z</time>
      </trkpt>
      <trkpt lat="43.34568" lon="6.57249">
        <ele>130.54</ele>
        <time>2025-03-15T17:26:06.949Z</time>
      </trkpt>
      <trkpt lat="43.3457" lon="6.57247">
        <ele>130.29</ele>
        <time>2025-03-15T17:26:07.881Z</time>
      </trkpt>
      <trkpt lat="43.34574" lon="6.57242">
        <ele>130.01</ele>
        <time>2025-03-15T17:26:10.141Z</time>
      </trkpt>
      <trkpt lat="43.34591" lon="6.57223">
        <ele>129.66</ele>
        <time>2025-03-15T17:26:19.562Z</time>
      </trkpt>
      <trkpt lat="43.34607" lon="6.57199">
        <ele>129.3</ele>
        <time>2025-03-15T17:26:29.839Z</time>
      </trkpt>
      <trkpt lat="43.34613" lon="6.57192">
        <ele>128.91</ele>
        <time>2025-03-15T17:26:32.992Z</time>
      </trkpt>
      <trkpt lat="43.34619" lon="6.57185">
        <ele>128.5</ele>
        <time>2025-03-15T17:26:36.203Z</time>
      </trkpt>
      <trkpt lat="43.34625" lon="6.57176">
        <ele>128.09</ele>
        <time>2025-03-15T17:26:39.862Z</time>
      </trkpt>
      <trkpt lat="43.34631" lon="6.57168">
        <ele>127.67</ele>
        <time>2025-03-15T17:26:43.166Z</time>
      </trkpt>
      <trkpt lat="43.34637" lon="6.57158">
        <ele>127.21</ele>
        <time>2025-03-15T17:26:46.671Z</time>
      </trkpt>
      <trkpt lat="43.34643" lon="6.5715">
        <ele>126.73</ele>
        <time>2025-03-15T17:26:50.085Z</time>
      </trkpt>
      <trkpt lat="43.34648" lon="6.57142">
        <ele>126.25</ele>
        <time>2025-03-15T17:26:53.228Z</time>
      </trkpt>
      <trkpt lat="43.34653" lon="6.57134">
        <ele>125.75</ele>
        <time>2025-03-15T17:26:56.151Z</time>
      </trkpt>
      <trkpt lat="43.34661" lon="6.57119">
        <ele>125.26</ele>
        <time>2025-03-15T17:27:01.819Z</time>
      </trkpt>
      <trkpt lat="43.34675" lon="6.57095">
        <ele>124.69</ele>
        <time>2025-03-15T17:27:11.191Z</time>
      </trkpt>
      <trkpt lat="43.34686" lon="6.5707">
        <ele>124.21</ele>
        <time>2025-03-15T17:27:20.364Z</time>
      </trkpt>
      <trkpt lat="43.34687" lon="6.57062">
        <ele>123.69</ele>
        <time>2025-03-15T17:27:22.577Z</time>
      </trkpt>
      <trkpt lat="43.3469" lon="6.57044">
        <ele>123.16</ele>
        <time>2025-03-15T17:27:27.985Z</time>
      </trkpt>
      <trkpt lat="43.34693" lon="6.57026">
        <ele>122.6</ele>
        <time>2025-03-15T17:27:33.541Z</time>
      </trkpt>
      <trkpt lat="43.34696" lon="6.57007">
        <ele>122.01</ele>
        <time>2025-03-15T17:27:39.241Z</time>
      </trkpt>
      <trkpt lat="43.34699" lon="6.56998">
        <ele>121.46</ele>
        <time>2025-03-15T17:27:42.141Z</time>
      </trkpt>
      <trkpt lat="43.34705" lon="6.56979">
        <ele>120.87</ele>
        <time>2025-03-15T17:27:48.137Z</time>
      </trkpt>
      <trkpt lat="43.34709" lon="6.56969">
        <ele>120.31</ele>
        <time>2025-03-15T17:27:51.524Z</time>
      </trkpt>
      <trkpt lat="43.34712" lon="6.56958">
        <ele>119.76</ele>
        <time>2025-03-15T17:27:54.931Z</time>
      </trkpt>
      <trkpt lat="43.34717" lon="6.56947">
        <ele>119.22</ele>
        <time>2025-03-15T17:27:58.715Z</time>
      </trkpt>
      <trkpt lat="43.34721" lon="6.56935">
        <ele>118.69</ele>
        <time>2025-03-15T17:28:02.558Z</time>
      </trkpt>
      <trkpt lat="43.34725" lon="6.56922">
        <ele>118.18</ele>
        <time>2025-03-15T17:28:06.590Z</time>
      </trkpt>
      <trkpt lat="43.34729" lon="6.56911">
        <ele>117.69</ele>
        <time>2025-03-15T17:28:10.272Z</time>
      </trkpt>
      <trkpt lat="43.34734" lon="6.569">
        <ele>117.23</ele>
        <time>2025-03-15T17:28:13.935Z</time>
      </trkpt>
      <trkpt lat="43.34739" lon="6.56889">
        <ele>116.81</ele>
        <time>2025-03-15T17:28:17.684Z</time>
      </trkpt>
      <trkpt lat="43.34744" lon="6.56878">
        <ele>116.42</ele>
        <time>2025-03-15T17:28:21.574Z</time>
      </trkpt>
      <trkpt lat="43.34749" lon="6.56867">
        <ele>116.04</ele>
        <time>2025-03-15T17:28:25.438Z</time>
      </trkpt>
      <trkpt lat="43.34754" lon="6.56855">
        <ele>115.71</ele>
        <time>2025-03-15T17:28:29.386Z</time>
      </trkpt>
      <trkpt lat="43.34759" lon="6.56844">
        <ele>115.4</ele>
        <time>2025-03-15T17:28:33.429Z</time>
      </trkpt>
      <trkpt lat="43.34765" lon="6.56833">
        <ele>115.14</ele>
        <time>2025-03-15T17:28:37.396Z</time>
      </trkpt>
      <trkpt lat="43.34771" lon="6.56823">
        <ele>114.91</ele>
        <time>2025-03-15T17:28:41.444Z</time>
      </trkpt>
      <trkpt lat="43.34777" lon="6.56813">
        <ele>114.72</ele>
        <time>2025-03-15T17:28:45.559Z</time>
      </trkpt>
      <trkpt lat="43.34784" lon="6.56804">
        <ele>114.55</ele>
        <time>2025-03-15T17:28:49.738Z</time>
      </trkpt>
      <trkpt lat="43.34791" lon="6.56796">
        <ele>114.41</ele>
        <time>2025-03-15T17:28:53.770Z</time>
      </trkpt>
      <trkpt lat="43.34798" lon="6.5679">
        <ele>114.34</ele>
        <time>2025-03-15T17:28:57.620Z</time>
      </trkpt>
      <trkpt lat="43.34806" lon="6.56785">
        <ele>114.29</ele>
        <time>2025-03-15T17:29:01.443Z</time>
      </trkpt>
      <trkpt lat="43.34814" lon="6.56784">
        <ele>114.28</ele>
        <time>2025-03-15T17:29:05.072Z</time>
      </trkpt>
      <trkpt lat="43.34821" lon="6.56782">
        <ele>114.31</ele>
        <time>2025-03-15T17:29:08.235Z</time>
      </trkpt>
      <trkpt lat="43.34826" lon="6.5678">
        <ele>114.38</ele>
        <time>2025-03-15T17:29:11.060Z</time>
      </trkpt>
      <trkpt lat="43.34831" lon="6.56778">
        <ele>114.48</ele>
        <time>2025-03-15T17:29:13.545Z</time>
      </trkpt>
      <trkpt lat="43.34835" lon="6.56775">
        <ele>114.61</ele>
        <time>2025-03-15T17:29:15.746Z</time>
      </trkpt>
      <trkpt lat="43.34838" lon="6.56772">
        <ele>114.78</ele>
        <time>2025-03-15T17:29:17.708Z</time>
      </trkpt>
      <trkpt lat="43.3484" lon="6.56768">
        <ele>114.98</ele>
        <time>2025-03-15T17:29:19.641Z</time>
      </trkpt>
      <trkpt lat="43.34842" lon="6.56764">
        <ele>115.22</ele>
        <time>2025-03-15T17:29:21.646Z</time>
      </trkpt>
      <trkpt lat="43.34844" lon="6.5676">
        <ele>115.49</ele>
        <time>2025-03-15T17:29:23.733Z</time>
      </trkpt>
      <trkpt lat="43.34846" lon="6.56755">
        <ele>115.8</ele>
        <time>2025-03-15T17:29:25.864Z</time>
      </trkpt>
      <trkpt lat="43.34847" lon="6.56751">
        <ele>116.14</ele>
        <time>2025-03-15T17:29:28.094Z</time>
      </trkpt>
      <trkpt lat="43.34849" lon="6.56747">
        <ele>116.5</ele>
        <time>2025-03-15T17:29:30.388Z</time>
      </trkpt>
      <trkpt lat="43.34851" lon="6.56743">
        <ele>116.9</ele>
        <time>2025-03-15T17:29:32.731Z</time>
      </trkpt>
      <trkpt lat="43.34855" lon="6.56734">
        <ele>117.33</ele>
        <time>2025-03-15T17:29:36.752Z</time>
      </trkpt>
      <trkpt lat="43.3486" lon="6.56725">
        <ele>117.8</ele>
        <time>2025-03-15T17:29:41.307Z</time>
      </trkpt>
      <trkpt lat="43.34863" lon="6.56721">
        <ele>118.28</ele>
        <time>2025-03-15T17:29:43.951Z</time>
      </trkpt>
      <trkpt lat="43.34865" lon="6.56717">
        <ele>118.78</ele>
        <time>2025-03-15T17:29:46.601Z</time>
      </trkpt>
      <trkpt lat="43.34867" lon="6.56714">
        <ele>119.3</ele>
        <time>2025-03-15T17:29:49.222Z</time>
      </trkpt>
      <trkpt lat="43.34869" lon="6.5671">
        <ele>119.84</ele>
        <time>2025-03-15T17:29:51.878Z</time>
      </trkpt>
      <trkpt lat="43.34882" lon="6.56687">
        <ele>120.45</ele>
        <time>2025-03-15T17:30:02.449Z</time>
      </trkpt>
      <trkpt lat="43.34888" lon="6.56681">
        <ele>121.05</ele>
        <time>2025-03-15T17:30:06.692Z</time>
      </trkpt>
      <trkpt lat="43.34896" lon="6.56671">
        <ele>121.67</ele>
        <time>2025-03-15T17:30:12.638Z</time>
      </trkpt>
      <trkpt lat="43.34898" lon="6.56668">
        <ele>122.29</ele>
        <time>2025-03-15T17:30:15.554Z</time>
      </trkpt>
      <trkpt lat="43.349" lon="6.56664">
        <ele>122.91</ele>
        <time>2025-03-15T17:30:18.456Z</time>
      </trkpt>
      <trkpt lat="43.34903" lon="6.56661">
        <ele>123.54</ele>
        <time>2025-03-15T17:30:21.385Z</time>
      </trkpt>
      <trkpt lat="43.34905" lon="6.56658">
        <ele>124.2</ele>
        <time>2025-03-15T17:30:24.399Z</time>
      </trkpt>
      <trkpt lat="43.3491" lon="6.56647">
        <ele>124.9</ele>
        <time>2025-03-15T17:30:29.960Z</time>
      </trkpt>
      <trkpt lat="43.34912" lon="6.56643">
        <ele>125.57</ele>
        <time>2025-03-15T17:30:33.004Z</time>
      </trkpt>
      <trkpt lat="43.34914" lon="6.5664">
        <ele>126.25</ele>
        <time>2025-03-15T17:30:36.078Z</time>
      </trkpt>
      <trkpt lat="43.34915" lon="6.56636">
        <ele>126.94</ele>
        <time>2025-03-15T17:30:39.186Z</time>
      </trkpt>
      <trkpt lat="43.34917" lon="6.56633">
        <ele>127.62</ele>
        <time>2025-03-15T17:30:42.258Z</time>
      </trkpt>
      <trkpt lat="43.3492" lon="6.56626">
        <ele>128.32</ele>
        <time>2025-03-15T17:30:46.290Z</time>
      </trkpt>
      <trkpt lat="43.34922" lon="6.56622">
        <ele>129.01</ele>
        <time>2025-03-15T17:30:49.410Z</time>
      </trkpt>
      <trkpt lat="43.34924" lon="6.56619">
        <ele>129.69</ele>
        <time>2025-03-15T17:30:52.498Z</time>
      </trkpt>
      <trkpt lat="43.34926" lon="6.56615">
        <ele>130.36</ele>
        <time>2025-03-15T17:30:55.526Z</time>
      </trkpt>
      <trkpt lat="43.34928" lon="6.56612">
        <ele>131.03</ele>
        <time>2025-03-15T17:30:58.545Z</time>
      </trkpt>
      <trkpt lat="43.34929" lon="6.56609">
        <ele>131.68</ele>
        <time>2025-03-15T17:31:01.504Z</time>
      </trkpt>
      <trkpt lat="43.34931" lon="6.56605">
        <ele>132.33</ele>
        <time>2025-03-15T17:31:04.442Z</time>
      </trkpt>
      <trkpt lat="43.34933" lon="6.56602">
        <ele>132.96</ele>
        <time>2025-03-15T17:31:07.288Z</time>
      </trkpt>
      <trkpt lat="43.34935" lon="6.566">
        <ele>133.57</ele>
        <time>2025-03-15T17:31:10.033Z</time>
      </trkpt>
      <trkpt lat="43.34936" lon="6.56597">
        <ele>134.18</ele>
        <time>2025-03-15T17:31:12.774Z</time>
      </trkpt>
      <trkpt lat="43.34938" lon="6.56594">
        <ele>134.77</ele>
        <time>2025-03-15T17:31:15.434Z</time>
      </trkpt>
      <trkpt lat="43.34939" lon="6.56591">
        <ele>135.34</ele>
        <time>2025-03-15T17:31:17.992Z</time>
      </trkpt>
      <trkpt lat="43.3494" lon="6.56589">
        <ele>135.89</ele>
        <time>2025-03-15T17:31:20.511Z</time>
      </trkpt>
      <trkpt lat="43.34941" lon="6.56587">
        <ele>136.43</ele>
        <time>2025-03-15T17:31:22.942Z</time>
      </trkpt>
      <trkpt lat="43.34942" lon="6.56585">
        <ele>136.94</ele>
        <time>2025-03-15T17:31:25.276Z</time>
      </trkpt>
      <trkpt lat="43.34944" lon="6.56582">
        <ele>137.43</ele>
        <time>2025-03-15T17:31:27.498Z</time>
      </trkpt>
      <trkpt lat="43.34945" lon="6.56579">
        <ele>137.91</ele>
        <time>2025-03-15T17:31:29.672Z</time>
      </trkpt>
      <trkpt lat="43.34946" lon="6.56577">
        <ele>138.37</ele>
        <time>2025-03-15T17:31:31.755Z</time>
      </trkpt>
      <trkpt lat="43.34947" lon="6.56574">
        <ele>138.82</ele>
        <time>2025-03-15T17:31:33.815Z</time>
      </trkpt>
      <trkpt lat="43.34948" lon="6.56572">
        <ele>139.25</ele>
        <time>2025-03-15T17:31:35.833Z</time>
      </trkpt>
      <trkpt lat="43.34949" lon="6.56569">
        <ele>139.67</ele>
        <time>2025-03-15T17:31:37.811Z</time>
      </trkpt>
      <trkpt lat="43.3495" lon="6.56566">
        <ele>140.07</ele>
        <time>2025-03-15T17:31:39.785Z</time>
      </trkpt>
      <trkpt lat="43.34951" lon="6.56563">
        <ele>140.46</ele>
        <time>2025-03-15T17:31:41.730Z</time>
      </trkpt>
      <trkpt lat="43.34953" lon="6.56559">
        <ele>140.84</ele>
        <time>2025-03-15T17:31:43.725Z</time>
      </trkpt>
      <trkpt lat="43.34953" lon="6.56555">
        <ele>141.21</ele>
        <time>2025-03-15T17:31:45.946Z</time>
      </trkpt>
      <trkpt lat="43.34954" lon="6.56551">
        <ele>141.55</ele>
        <time>2025-03-15T17:31:47.920Z</time>
      </trkpt>
      <trkpt lat="43.34955" lon="6.56547">
        <ele>141.89</ele>
        <time>2025-03-15T17:31:49.769Z</time>
      </trkpt>
      <trkpt lat="43.34956" lon="6.56545">
        <ele>142.21</ele>
        <time>2025-03-15T17:31:51.414Z</time>
      </trkpt>
      <trkpt lat="43.34957" lon="6.56539">
        <ele>142.52</ele>
        <time>2025-03-15T17:31:53.874Z</time>
      </trkpt>
      <trkpt lat="43.34958" lon="6.56532">
        <ele>142.81</ele>
        <time>2025-03-15T17:31:56.726Z</time>
      </trkpt>
      <trkpt lat="43.34958" lon="6.56529">
        <ele>143.1</ele>
        <time>2025-03-15T17:31:58.272Z</time>
      </trkpt>
      <trkpt lat="43.34958" lon="6.56526">
        <ele>143.39</ele>
        <time>2025-03-15T17:31:59.908Z</time>
      </trkpt>
      <trkpt lat="43.34959" lon="6.56522">
        <ele>143.67</ele>
        <time>2025-03-15T17:32:01.565Z</time>
      </trkpt>
      <trkpt lat="43.34959" lon="6.56519">
        <ele>143.94</ele>
        <time>2025-03-15T17:32:03.224Z</time>
      </trkpt>
      <trkpt lat="43.34961" lon="6.56499">
        <ele>144.2</ele>
        <time>2025-03-15T17:32:10.167Z</time>
      </trkpt>
      <trkpt lat="43.34962" lon="6.56467">
        <ele>144.51</ele>
        <time>2025-03-15T17:32:21.246Z</time>
      </trkpt>
      <trkpt lat="43.34962" lon="6.56463">
        <ele>144.77</ele>
        <time>2025-03-15T17:32:23.104Z</time>
      </trkpt>
      <trkpt lat="43.34962" lon="6.56459">
        <ele>145.02</ele>
        <time>2025-03-15T17:32:24.934Z</time>
      </trkpt>
      <trkpt lat="43.34962" lon="6.56454">
        <ele>145.27</ele>
        <time>2025-03-15T17:32:26.820Z</time>
      </trkpt>
      <trkpt lat="43.34963" lon="6.5645">
        <ele>145.51</ele>
        <time>2025-03-15T17:32:28.554Z</time>
      </trkpt>
      <trkpt lat="43.34963" lon="6.56446">
        <ele>145.74</ele>
        <time>2025-03-15T17:32:30.244Z</time>
      </trkpt>
      <trkpt lat="43.34964" lon="6.56438">
        <ele>145.97</ele>
        <time>2025-03-15T17:32:33.300Z</time>
      </trkpt>
      <trkpt lat="43.34963" lon="6.56423">
        <ele>146.22</ele>
        <time>2025-03-15T17:32:38.769Z</time>
      </trkpt>
      <trkpt lat="43.34963" lon="6.56419">
        <ele>146.42</ele>
        <time>2025-03-15T17:32:40.313Z</time>
      </trkpt>
      <trkpt lat="43.34963" lon="6.56416">
        <ele>146.61</ele>
        <time>2025-03-15T17:32:41.885Z</time>
      </trkpt>
      <trkpt lat="43.34964" lon="6.56412">
        <ele>146.79</ele>
        <time>2025-03-15T17:32:43.445Z</time>
      </trkpt>
      <trkpt lat="43.34964" lon="6.56408">
        <ele>146.96</ele>
        <time>2025-03-15T17:32:44.985Z</time>
      </trkpt>
      <trkpt lat="43.34964" lon="6.56404">
        <ele>147.12</ele>
        <time>2025-03-15T17:32:46.511Z</time>
      </trkpt>
      <trkpt lat="43.34965" lon="6.56396">
        <ele>147.28</ele>
        <time>2025-03-15T17:32:49.346Z</time>
      </trkpt>
      <trkpt lat="43.34965" lon="6.56393">
        <ele>147.42</ele>
        <time>2025-03-15T17:32:50.828Z</time>
      </trkpt>
      <trkpt lat="43.34965" lon="6.56389">
        <ele>147.55</ele>
        <time>2025-03-15T17:32:52.263Z</time>
      </trkpt>
      <trkpt lat="43.34966" lon="6.56385">
        <ele>147.65</ele>
        <time>2025-03-15T17:32:53.570Z</time>
      </trkpt>
      <trkpt lat="43.34966" lon="6.56382">
        <ele>147.75</ele>
        <time>2025-03-15T17:32:54.856Z</time>
      </trkpt>
      <trkpt lat="43.34967" lon="6.56374">
        <ele>147.84</ele>
        <time>2025-03-15T17:32:57.546Z</time>
      </trkpt>
      <trkpt lat="43.34969" lon="6.56366">
        <ele>147.91</ele>
        <time>2025-03-15T17:33:00.489Z</time>
      </trkpt>
      <trkpt lat="43.34969" lon="6.56362">
        <ele>147.95</ele>
        <time>2025-03-15T17:33:01.937Z</time>
      </trkpt>
      <trkpt lat="43.3497" lon="6.56358">
        <ele>147.99</ele>
        <time>2025-03-15T17:33:03.466Z</time>
      </trkpt>
      <trkpt lat="43.34971" lon="6.56353">
        <ele>148</ele>
        <time>2025-03-15T17:33:04.999Z</time>
      </trkpt>
      <trkpt lat="43.34971" lon="6.56349">
        <ele>148</ele>
        <time>2025-03-15T17:33:06.556Z</time>
      </trkpt>
      <trkpt lat="43.34972" lon="6.56344">
        <ele>147.99</ele>
        <time>2025-03-15T17:33:08.169Z</time>
      </trkpt>
      <trkpt lat="43.34977" lon="6.56315">
        <ele>147.97</ele>
        <time>2025-03-15T17:33:17.920Z</time>
      </trkpt>
      <trkpt lat="43.34979" lon="6.56304">
        <ele>147.97</ele>
        <time>2025-03-15T17:33:21.839Z</time>
      </trkpt>
      <trkpt lat="43.34984" lon="6.56268">
        <ele>147.92</ele>
        <time>2025-03-15T17:33:34.078Z</time>
      </trkpt>
      <trkpt lat="43.34988" lon="6.56235">
        <ele>147.83</ele>
        <time>2025-03-15T17:33:45.001Z</time>
      </trkpt>
      <trkpt lat="43.34988" lon="6.56216">
        <ele>147.72</ele>
        <time>2025-03-15T17:33:51.079Z</time>
      </trkpt>
      <trkpt lat="43.34989" lon="6.56189">
        <ele>147.57</ele>
        <time>2025-03-15T17:33:59.785Z</time>
      </trkpt>
      <trkpt lat="43.3499" lon="6.56184">
        <ele>147.42</ele>
        <time>2025-03-15T17:34:01.141Z</time>
      </trkpt>
      <trkpt lat="43.3499" lon="6.5618">
        <ele>147.26</ele>
        <time>2025-03-15T17:34:02.588Z</time>
      </trkpt>
      <trkpt lat="43.34991" lon="6.56175">
        <ele>147.08</ele>
        <time>2025-03-15T17:34:03.939Z</time>
      </trkpt>
      <trkpt lat="43.34991" lon="6.5617">
        <ele>146.88</ele>
        <time>2025-03-15T17:34:05.274Z</time>
      </trkpt>
      <trkpt lat="43.34991" lon="6.56166">
        <ele>146.66</ele>
        <time>2025-03-15T17:34:06.712Z</time>
      </trkpt>
      <trkpt lat="43.34992" lon="6.56155">
        <ele>146.41</ele>
        <time>2025-03-15T17:34:09.775Z</time>
      </trkpt>
      <trkpt lat="43.34992" lon="6.5615">
        <ele>146.15</ele>
        <time>2025-03-15T17:34:11.412Z</time>
      </trkpt>
      <trkpt lat="43.34995" lon="6.56138">
        <ele>145.87</ele>
        <time>2025-03-15T17:34:15.265Z</time>
      </trkpt>
      <trkpt lat="43.34997" lon="6.56131">
        <ele>145.58</ele>
        <time>2025-03-15T17:34:17.406Z</time>
      </trkpt>
      <trkpt lat="43.35" lon="6.56116">
        <ele>145.27</ele>
        <time>2025-03-15T17:34:22.205Z</time>
      </trkpt>
      <trkpt lat="43.35002" lon="6.56108">
        <ele>144.94</ele>
        <time>2025-03-15T17:34:24.472Z</time>
      </trkpt>
      <trkpt lat="43.35003" lon="6.56101">
        <ele>144.59</ele>
        <time>2025-03-15T17:34:26.689Z</time>
      </trkpt>
      <trkpt lat="43.35003" lon="6.56093">
        <ele>144.24</ele>
        <time>2025-03-15T17:34:28.946Z</time>
      </trkpt>
      <trkpt lat="43.35001" lon="6.56085">
        <ele>143.89</ele>
        <time>2025-03-15T17:34:31.363Z</time>
      </trkpt>
      <trkpt lat="43.34996" lon="6.56069">
        <ele>143.5</ele>
        <time>2025-03-15T17:34:36.772Z</time>
      </trkpt>
      <trkpt lat="43.34995" lon="6.56059">
        <ele>143.08</ele>
        <time>2025-03-15T17:34:39.626Z</time>
      </trkpt>
      <trkpt lat="43.34995" lon="6.56049">
        <ele>142.67</ele>
        <time>2025-03-15T17:34:42.465Z</time>
      </trkpt>
      <trkpt lat="43.34997" lon="6.56039">
        <ele>142.25</ele>
        <time>2025-03-15T17:34:45.531Z</time>
      </trkpt>
      <trkpt lat="43.34998" lon="6.56028">
        <ele>141.81</ele>
        <time>2025-03-15T17:34:48.668Z</time>
      </trkpt>
      <trkpt lat="43.35" lon="6.56018">
        <ele>141.36</ele>
        <time>2025-03-15T17:34:51.774Z</time>
      </trkpt>
      <trkpt lat="43.35001" lon="6.56008">
        <ele>140.91</ele>
        <time>2025-03-15T17:34:54.798Z</time>
      </trkpt>
      <trkpt lat="43.35003" lon="6.55997">
        <ele>140.49</ele>
        <time>2025-03-15T17:34:57.820Z</time>
      </trkpt>
      <trkpt lat="43.35005" lon="6.55987">
        <ele>140.06</ele>
        <time>2025-03-15T17:35:00.953Z</time>
      </trkpt>
      <trkpt lat="43.35007" lon="6.55977">
        <ele>139.64</ele>
        <time>2025-03-15T17:35:04.019Z</time>
      </trkpt>
      <trkpt lat="43.3501" lon="6.55967">
        <ele>139.23</ele>
        <time>2025-03-15T17:35:07.052Z</time>
      </trkpt>
      <trkpt lat="43.35015" lon="6.55948">
        <ele>138.81</ele>
        <time>2025-03-15T17:35:13.468Z</time>
      </trkpt>
      <trkpt lat="43.35018" lon="6.55937">
        <ele>138.39</ele>
        <time>2025-03-15T17:35:16.652Z</time>
      </trkpt>
      <trkpt lat="43.35021" lon="6.55926">
        <ele>137.99</ele>
        <time>2025-03-15T17:35:19.976Z</time>
      </trkpt>
      <trkpt lat="43.35024" lon="6.55916">
        <ele>137.61</ele>
        <time>2025-03-15T17:35:23.294Z</time>
      </trkpt>
      <trkpt lat="43.35028" lon="6.55905">
        <ele>137.25</ele>
        <time>2025-03-15T17:35:26.822Z</time>
      </trkpt>
      <trkpt lat="43.35032" lon="6.55895">
        <ele>136.91</ele>
        <time>2025-03-15T17:35:30.278Z</time>
      </trkpt>
      <trkpt lat="43.35038" lon="6.55885">
        <ele>136.59</ele>
        <time>2025-03-15T17:35:34.155Z</time>
      </trkpt>
      <trkpt lat="43.35043" lon="6.55874">
        <ele>136.3</ele>
        <time>2025-03-15T17:35:38.045Z</time>
      </trkpt>
      <trkpt lat="43.35047" lon="6.55863">
        <ele>136.05</ele>
        <time>2025-03-15T17:35:41.753Z</time>
      </trkpt>
      <trkpt lat="43.35049" lon="6.55852">
        <ele>135.82</ele>
        <time>2025-03-15T17:35:45.222Z</time>
      </trkpt>
      <trkpt lat="43.35051" lon="6.55842">
        <ele>135.62</ele>
        <time>2025-03-15T17:35:48.522Z</time>
      </trkpt>
      <trkpt lat="43.35053" lon="6.55832">
        <ele>135.45</ele>
        <time>2025-03-15T17:35:51.724Z</time>
      </trkpt>
      <trkpt lat="43.35055" lon="6.55823">
        <ele>135.31</ele>
        <time>2025-03-15T17:35:54.573Z</time>
      </trkpt>
      <trkpt lat="43.35057" lon="6.55815">
        <ele>135.21</ele>
        <time>2025-03-15T17:35:57.365Z</time>
      </trkpt>
      <trkpt lat="43.35059" lon="6.55799">
        <ele>135.11</ele>
        <time>2025-03-15T17:36:02.674Z</time>
      </trkpt>
      <trkpt lat="43.35061" lon="6.55784">
        <ele>135.04</ele>
        <time>2025-03-15T17:36:07.378Z</time>
      </trkpt>
      <trkpt lat="43.35061" lon="6.55778">
        <ele>134.99</ele>
        <time>2025-03-15T17:36:09.556Z</time>
      </trkpt>
      <trkpt lat="43.35061" lon="6.55771">
        <ele>134.98</ele>
        <time>2025-03-15T17:36:11.654Z</time>
      </trkpt>
      <trkpt lat="43.35062" lon="6.55766">
        <ele>134.98</ele>
        <time>2025-03-15T17:36:13.508Z</time>
      </trkpt>
      <trkpt lat="43.35062" lon="6.5576">
        <ele>135.01</ele>
        <time>2025-03-15T17:36:15.272Z</time>
      </trkpt>
      <trkpt lat="43.35062" lon="6.55755">
        <ele>135.07</ele>
        <time>2025-03-15T17:36:17.120Z</time>
      </trkpt>
      <trkpt lat="43.35063" lon="6.55745">
        <ele>135.14</ele>
        <time>2025-03-15T17:36:20.768Z</time>
      </trkpt>
      <trkpt lat="43.35062" lon="6.55739">
        <ele>135.24</ele>
        <time>2025-03-15T17:36:22.618Z</time>
      </trkpt>
      <trkpt lat="43.35062" lon="6.55734">
        <ele>135.36</ele>
        <time>2025-03-15T17:36:24.595Z</time>
      </trkpt>
      <trkpt lat="43.35062" lon="6.55729">
        <ele>135.52</ele>
        <time>2025-03-15T17:36:26.528Z</time>
      </trkpt>
      <trkpt lat="43.35062" lon="6.55724">
        <ele>135.7</ele>
        <time>2025-03-15T17:36:28.562Z</time>
      </trkpt>
      <trkpt lat="43.35064" lon="6.55691">
        <ele>135.88</ele>
        <time>2025-03-15T17:36:39.639Z</time>
      </trkpt>
      <trkpt lat="43.35071" lon="6.55652">
        <ele>136.15</ele>
        <time>2025-03-15T17:36:53.326Z</time>
      </trkpt>
      <trkpt lat="43.35071" lon="6.55645">
        <ele>136.41</ele>
        <time>2025-03-15T17:36:56.157Z</time>
      </trkpt>
      <trkpt lat="43.35073" lon="6.55623">
        <ele>136.68</ele>
        <time>2025-03-15T17:37:03.941Z</time>
      </trkpt>
      <trkpt lat="43.35073" lon="6.55615">
        <ele>136.98</ele>
        <time>2025-03-15T17:37:07.018Z</time>
      </trkpt>
      <trkpt lat="43.35073" lon="6.55598">
        <ele>137.28</ele>
        <time>2025-03-15T17:37:13.006Z</time>
      </trkpt>
      <trkpt lat="43.35073" lon="6.55589">
        <ele>137.61</ele>
        <time>2025-03-15T17:37:16.534Z</time>
      </trkpt>
      <trkpt lat="43.35073" lon="6.5558">
        <ele>137.95</ele>
        <time>2025-03-15T17:37:20.082Z</time>
      </trkpt>
      <trkpt lat="43.35074" lon="6.55571">
        <ele>138.32</ele>
        <time>2025-03-15T17:37:23.691Z</time>
      </trkpt>
      <trkpt lat="43.35074" lon="6.55562">
        <ele>138.71</ele>
        <time>2025-03-15T17:37:27.252Z</time>
      </trkpt>
      <trkpt lat="43.35074" lon="6.55554">
        <ele>139.11</ele>
        <time>2025-03-15T17:37:30.598Z</time>
      </trkpt>
      <trkpt lat="43.35074" lon="6.55547">
        <ele>139.54</ele>
        <time>2025-03-15T17:37:33.760Z</time>
      </trkpt>
      <trkpt lat="43.35075" lon="6.5552">
        <ele>140.02</ele>
        <time>2025-03-15T17:37:43.379Z</time>
      </trkpt>
      <trkpt lat="43.35076" lon="6.55511">
        <ele>140.49</ele>
        <time>2025-03-15T17:37:47.093Z</time>
      </trkpt>
      <trkpt lat="43.35077" lon="6.55502">
        <ele>140.97</ele>
        <time>2025-03-15T17:37:50.930Z</time>
      </trkpt>
      <trkpt lat="43.35077" lon="6.55498">
        <ele>141.43</ele>
        <time>2025-03-15T17:37:53.298Z</time>
      </trkpt>
      <trkpt lat="43.35078" lon="6.55494">
        <ele>141.9</ele>
        <time>2025-03-15T17:37:55.642Z</time>
      </trkpt>
      <trkpt lat="43.35079" lon="6.55489">
        <ele>142.38</ele>
        <time>2025-03-15T17:37:58.141Z</time>
      </trkpt>
      <trkpt lat="43.35079" lon="6.55485">
        <ele>142.84</ele>
        <time>2025-03-15T17:38:00.471Z</time>
      </trkpt>
      <trkpt lat="43.3508" lon="6.55477">
        <ele>143.32</ele>
        <time>2025-03-15T17:38:03.879Z</time>
      </trkpt>
      <trkpt lat="43.3508" lon="6.55473">
        <ele>143.77</ele>
        <time>2025-03-15T17:38:06.137Z</time>
      </trkpt>
      <trkpt lat="43.3508" lon="6.55469">
        <ele>144.21</ele>
        <time>2025-03-15T17:38:08.351Z</time>
      </trkpt>
      <trkpt lat="43.3508" lon="6.55466">
        <ele>144.64</ele>
        <time>2025-03-15T17:38:10.504Z</time>
      </trkpt>
      <trkpt lat="43.3508" lon="6.55462">
        <ele>145.06</ele>
        <time>2025-03-15T17:38:12.608Z</time>
      </trkpt>
      <trkpt lat="43.35081" lon="6.55453">
        <ele>145.48</ele>
        <time>2025-03-15T17:38:16.200Z</time>
      </trkpt>
      <trkpt lat="43.35081" lon="6.55449">
        <ele>145.87</ele>
        <time>2025-03-15T17:38:18.453Z</time>
      </trkpt>
      <trkpt lat="43.35081" lon="6.55444">
        <ele>146.24</ele>
        <time>2025-03-15T17:38:20.722Z</time>
      </trkpt>
      <trkpt lat="43.35081" lon="6.55439">
        <ele>146.6</ele>
        <time>2025-03-15T17:38:22.987Z</time>
      </trkpt>
      <trkpt lat="43.35081" lon="6.55434">
        <ele>146.93</ele>
        <time>2025-03-15T17:38:25.171Z</time>
      </trkpt>
      <trkpt lat="43.35082" lon="6.55424">
        <ele>147.25</ele>
        <time>2025-03-15T17:38:28.834Z</time>
      </trkpt>
      <trkpt lat="43.35082" lon="6.5542">
        <ele>147.54</ele>
        <time>2025-03-15T17:38:30.882Z</time>
      </trkpt>
      <trkpt lat="43.35082" lon="6.55415">
        <ele>147.79</ele>
        <time>2025-03-15T17:38:32.817Z</time>
      </trkpt>
      <trkpt lat="43.35082" lon="6.55411">
        <ele>148.03</ele>
        <time>2025-03-15T17:38:34.695Z</time>
      </trkpt>
      <trkpt lat="43.35082" lon="6.55406">
        <ele>148.23</ele>
        <time>2025-03-15T17:38:36.569Z</time>
      </trkpt>
      <trkpt lat="43.35083" lon="6.55383">
        <ele>148.43</ele>
        <time>2025-03-15T17:38:44.573Z</time>
      </trkpt>
      <trkpt lat="43.35083" lon="6.55378">
        <ele>148.57</ele>
        <time>2025-03-15T17:38:46.481Z</time>
      </trkpt>
      <trkpt lat="43.35083" lon="6.55373">
        <ele>148.67</ele>
        <time>2025-03-15T17:38:48.335Z</time>
      </trkpt>
      <trkpt lat="43.35083" lon="6.55368">
        <ele>148.75</ele>
        <time>2025-03-15T17:38:50.158Z</time>
      </trkpt>
      <trkpt lat="43.35083" lon="6.55363">
        <ele>148.8</ele>
        <time>2025-03-15T17:38:51.897Z</time>
      </trkpt>
      <trkpt lat="43.35084" lon="6.55348">
        <ele>148.8</ele>
        <time>2025-03-15T17:38:56.670Z</time>
      </trkpt>
      <trkpt lat="43.35086" lon="6.55315">
        <ele>148.78</ele>
        <time>2025-03-15T17:39:07.808Z</time>
      </trkpt>
      <trkpt lat="43.35088" lon="6.55289">
        <ele>148.71</ele>
        <time>2025-03-15T17:39:16.447Z</time>
      </trkpt>
      <trkpt lat="43.35088" lon="6.5528">
        <ele>148.64</ele>
        <time>2025-03-15T17:39:19.084Z</time>
      </trkpt>
      <trkpt lat="43.3509" lon="6.55252">
        <ele>148.5</ele>
        <time>2025-03-15T17:39:28.462Z</time>
      </trkpt>
      <trkpt lat="43.35091" lon="6.55241">
        <ele>148.35</ele>
        <time>2025-03-15T17:39:31.821Z</time>
      </trkpt>
      <trkpt lat="43.35092" lon="6.55231">
        <ele>148.19</ele>
        <time>2025-03-15T17:39:35.000Z</time>
      </trkpt>
      <trkpt lat="43.35094" lon="6.55221">
        <ele>148.03</ele>
        <time>2025-03-15T17:39:38.154Z</time>
      </trkpt>
      <trkpt lat="43.35097" lon="6.55212">
        <ele>147.83</ele>
        <time>2025-03-15T17:39:41.217Z</time>
      </trkpt>
      <trkpt lat="43.35099" lon="6.55202">
        <ele>147.63</ele>
        <time>2025-03-15T17:39:44.274Z</time>
      </trkpt>
      <trkpt lat="43.35101" lon="6.55193">
        <ele>147.4</ele>
        <time>2025-03-15T17:39:47.161Z</time>
      </trkpt>
      <trkpt lat="43.35104" lon="6.55184">
        <ele>147.14</ele>
        <time>2025-03-15T17:39:49.981Z</time>
      </trkpt>
      <trkpt lat="43.35105" lon="6.55168">
        <ele>146.85</ele>
        <time>2025-03-15T17:39:55.043Z</time>
      </trkpt>
      <trkpt lat="43.35104" lon="6.5516">
        <ele>146.56</ele>
        <time>2025-03-15T17:39:57.263Z</time>
      </trkpt>
      <trkpt lat="43.35103" lon="6.55153">
        <ele>146.25</ele>
        <time>2025-03-15T17:39:59.496Z</time>
      </trkpt>
      <trkpt lat="43.35103" lon="6.55146">
        <ele>145.92</ele>
        <time>2025-03-15T17:40:01.492Z</time>
      </trkpt>
      <trkpt lat="43.35103" lon="6.5514">
        <ele>145.59</ele>
        <time>2025-03-15T17:40:03.155Z</time>
      </trkpt>
      <trkpt lat="43.35103" lon="6.55137">
        <ele>145.24</ele>
        <time>2025-03-15T17:40:04.252Z</time>
      </trkpt>
      <trkpt lat="43.35103" lon="6.55134">
        <ele>144.89</ele>
        <time>2025-03-15T17:40:04.965Z</time>
      </trkpt>
      <trkpt lat="43.35103" lon="6.55132">
        <ele>144.53</ele>
        <time>2025-03-15T17:40:05.506Z</time>
      </trkpt>
      <trkpt lat="43.35102" lon="6.55131">
        <ele>144.16</ele>
        <time>2025-03-15T17:40:06.048Z</time>
      </trkpt>
      <trkpt lat="43.35101" lon="6.55128">
        <ele>143.78</ele>
        <time>2025-03-15T17:40:06.810Z</time>
      </trkpt>
      <trkpt lat="43.35101" lon="6.55125">
        <ele>143.4</ele>
        <time>2025-03-15T17:40:07.739Z</time>
      </trkpt>
      <trkpt lat="43.351" lon="6.55121">
        <ele>143.01</ele>
        <time>2025-03-15T17:40:08.894Z</time>
      </trkpt>
      <trkpt lat="43.35096" lon="6.55112">
        <ele>142.61</ele>
        <time>2025-03-15T17:40:12.008Z</time>
      </trkpt>
      <trkpt lat="43.35082" lon="6.55091">
        <ele>142.17</ele>
        <time>2025-03-15T17:40:21.011Z</time>
      </trkpt>
      <trkpt lat="43.35078" lon="6.55085">
        <ele>141.76</ele>
        <time>2025-03-15T17:40:23.242Z</time>
      </trkpt>
      <trkpt lat="43.35074" lon="6.55079">
        <ele>141.37</ele>
        <time>2025-03-15T17:40:25.617Z</time>
      </trkpt>
      <trkpt lat="43.3507" lon="6.55073">
        <ele>140.98</ele>
        <time>2025-03-15T17:40:28.089Z</time>
      </trkpt>
      <trkpt lat="43.35066" lon="6.55067">
        <ele>140.59</ele>
        <time>2025-03-15T17:40:30.608Z</time>
      </trkpt>
      <trkpt lat="43.35051" lon="6.55046">
        <ele>140.21</ele>
        <time>2025-03-15T17:40:39.692Z</time>
      </trkpt>
      <trkpt lat="43.35046" lon="6.55038">
        <ele>139.85</ele>
        <time>2025-03-15T17:40:42.760Z</time>
      </trkpt>
      <trkpt lat="43.3504" lon="6.55031">
        <ele>139.49</ele>
        <time>2025-03-15T17:40:45.909Z</time>
      </trkpt>
      <trkpt lat="43.35033" lon="6.55024">
        <ele>139.14</ele>
        <time>2025-03-15T17:40:49.227Z</time>
      </trkpt>
      <trkpt lat="43.35027" lon="6.55017">
        <ele>138.8</ele>
        <time>2025-03-15T17:40:52.525Z</time>
      </trkpt>
      <trkpt lat="43.3502" lon="6.5501">
        <ele>138.45</ele>
        <time>2025-03-15T17:40:55.971Z</time>
      </trkpt>
      <trkpt lat="43.35014" lon="6.55004">
        <ele>138.11</ele>
        <time>2025-03-15T17:40:59.230Z</time>
      </trkpt>
      <trkpt lat="43.35007" lon="6.54997">
        <ele>137.78</ele>
        <time>2025-03-15T17:41:02.473Z</time>
      </trkpt>
      <trkpt lat="43.35001" lon="6.54991">
        <ele>137.46</ele>
        <time>2025-03-15T17:41:05.659Z</time>
      </trkpt>
      <trkpt lat="43.34995" lon="6.54985">
        <ele>137.15</ele>
        <time>2025-03-15T17:41:08.674Z</time>
      </trkpt>
      <trkpt lat="43.34989" lon="6.54979">
        <ele>136.85</ele>
        <time>2025-03-15T17:41:11.640Z</time>
      </trkpt>
      <trkpt lat="43.34983" lon="6.54973">
        <ele>136.57</ele>
        <time>2025-03-15T17:41:14.356Z</time>
      </trkpt>
      <trkpt lat="43.34979" lon="6.54967">
        <ele>136.32</ele>
        <time>2025-03-15T17:41:16.895Z</time>
      </trkpt>
      <trkpt lat="43.34976" lon="6.54961">
        <ele>136.12</ele>
        <time>2025-03-15T17:41:19.244Z</time>
      </trkpt>
      <trkpt lat="43.34974" lon="6.54954">
        <ele>135.95</ele>
        <time>2025-03-15T17:41:21.284Z</time>
      </trkpt>
      <trkpt lat="43.34974" lon="6.54949">
        <ele>135.8</ele>
        <time>2025-03-15T17:41:22.965Z</time>
      </trkpt>
      <trkpt lat="43.34973" lon="6.54944">
        <ele>135.66</ele>
        <time>2025-03-15T17:41:24.405Z</time>
      </trkpt>
      <trkpt lat="43.34972" lon="6.5494">
        <ele>135.55</ele>
        <time>2025-03-15T17:41:25.722Z</time>
      </trkpt>
      <trkpt lat="43.3497" lon="6.54932">
        <ele>135.45</ele>
        <time>2025-03-15T17:41:28.316Z</time>
      </trkpt>
      <trkpt lat="43.34969" lon="6.54928">
        <ele>135.38</ele>
        <time>2025-03-15T17:41:29.571Z</time>
      </trkpt>
      <trkpt lat="43.34968" lon="6.54924">
        <ele>135.33</ele>
        <time>2025-03-15T17:41:30.866Z</time>
      </trkpt>
      <trkpt lat="43.34967" lon="6.54921">
        <ele>135.3</ele>
        <time>2025-03-15T17:41:32.115Z</time>
      </trkpt>
      <trkpt lat="43.34967" lon="6.54917">
        <ele>135.28</ele>
        <time>2025-03-15T17:41:33.261Z</time>
      </trkpt>
      <trkpt lat="43.34967" lon="6.54913">
        <ele>135.29</ele>
        <time>2025-03-15T17:41:34.451Z</time>
      </trkpt>
      <trkpt lat="43.34968" lon="6.5491">
        <ele>135.31</ele>
        <time>2025-03-15T17:41:35.739Z</time>
      </trkpt>
      <trkpt lat="43.34968" lon="6.54906">
        <ele>135.36</ele>
        <time>2025-03-15T17:41:37.135Z</time>
      </trkpt>
      <trkpt lat="43.34969" lon="6.54902">
        <ele>135.42</ele>
        <time>2025-03-15T17:41:38.593Z</time>
      </trkpt>
      <trkpt lat="43.34969" lon="6.54898">
        <ele>135.49</ele>
        <time>2025-03-15T17:41:40.089Z</time>
      </trkpt>
      <trkpt lat="43.34969" lon="6.54894">
        <ele>135.58</ele>
        <time>2025-03-15T17:41:41.560Z</time>
      </trkpt>
      <trkpt lat="43.3497" lon="6.5489">
        <ele>135.69</ele>
        <time>2025-03-15T17:41:43.039Z</time>
      </trkpt>
      <trkpt lat="43.3497" lon="6.54886">
        <ele>135.8</ele>
        <time>2025-03-15T17:41:44.548Z</time>
      </trkpt>
      <trkpt lat="43.34971" lon="6.54882">
        <ele>135.92</ele>
        <time>2025-03-15T17:41:46.099Z</time>
      </trkpt>
      <trkpt lat="43.34971" lon="6.54878">
        <ele>136.06</ele>
        <time>2025-03-15T17:41:47.628Z</time>
      </trkpt>
      <trkpt lat="43.34971" lon="6.54874">
        <ele>136.21</ele>
        <time>2025-03-15T17:41:49.232Z</time>
      </trkpt>
      <trkpt lat="43.34972" lon="6.5487">
        <ele>136.37</ele>
        <time>2025-03-15T17:41:50.771Z</time>
      </trkpt>
      <trkpt lat="43.34972" lon="6.54866">
        <ele>136.55</ele>
        <time>2025-03-15T17:41:52.335Z</time>
      </trkpt>
      <trkpt lat="43.34972" lon="6.54862">
        <ele>136.75</ele>
        <time>2025-03-15T17:41:53.938Z</time>
      </trkpt>
      <trkpt lat="43.34972" lon="6.54858">
        <ele>136.95</ele>
        <time>2025-03-15T17:41:55.635Z</time>
      </trkpt>
      <trkpt lat="43.34973" lon="6.54854">
        <ele>137.17</ele>
        <time>2025-03-15T17:41:57.419Z</time>
      </trkpt>
      <trkpt lat="43.34973" lon="6.5485">
        <ele>137.4</ele>
        <time>2025-03-15T17:41:59.166Z</time>
      </trkpt>
      <trkpt lat="43.34974" lon="6.54842">
        <ele>137.66</ele>
        <time>2025-03-15T17:42:02.295Z</time>
      </trkpt>
      <trkpt lat="43.34974" lon="6.54838">
        <ele>137.92</ele>
        <time>2025-03-15T17:42:04.133Z</time>
      </trkpt>
      <trkpt lat="43.34974" lon="6.54834">
        <ele>138.18</ele>
        <time>2025-03-15T17:42:05.940Z</time>
      </trkpt>
      <trkpt lat="43.34975" lon="6.54829">
        <ele>138.46</ele>
        <time>2025-03-15T17:42:07.864Z</time>
      </trkpt>
      <trkpt lat="43.34975" lon="6.54825">
        <ele>138.75</ele>
        <time>2025-03-15T17:42:09.877Z</time>
      </trkpt>
      <trkpt lat="43.34977" lon="6.54808">
        <ele>139.06</ele>
        <time>2025-03-15T17:42:16.065Z</time>
      </trkpt>
      <trkpt lat="43.34978" lon="6.54803">
        <ele>139.37</ele>
        <time>2025-03-15T17:42:18.055Z</time>
      </trkpt>
      <trkpt lat="43.34978" lon="6.54799">
        <ele>139.7</ele>
        <time>2025-03-15T17:42:19.993Z</time>
      </trkpt>
      <trkpt lat="43.34979" lon="6.54795">
        <ele>140.05</ele>
        <time>2025-03-15T17:42:22.074Z</time>
      </trkpt>
      <trkpt lat="43.3498" lon="6.54791">
        <ele>140.41</ele>
        <time>2025-03-15T17:42:24.147Z</time>
      </trkpt>
      <trkpt lat="43.34982" lon="6.54779">
        <ele>140.8</ele>
        <time>2025-03-15T17:42:28.870Z</time>
      </trkpt>
      <trkpt lat="43.34985" lon="6.54766">
        <ele>141.2</ele>
        <time>2025-03-15T17:42:34.022Z</time>
      </trkpt>
      <trkpt lat="43.34986" lon="6.54762">
        <ele>141.62</ele>
        <time>2025-03-15T17:42:36.314Z</time>
      </trkpt>
      <trkpt lat="43.34987" lon="6.54758">
        <ele>142.06</ele>
        <time>2025-03-15T17:42:38.678Z</time>
      </trkpt>
      <trkpt lat="43.34989" lon="6.54753">
        <ele>142.53</ele>
        <time>2025-03-15T17:42:41.144Z</time>
      </trkpt>
      <trkpt lat="43.3499" lon="6.54749">
        <ele>143.01</ele>
        <time>2025-03-15T17:42:43.679Z</time>
      </trkpt>
      <trkpt lat="43.35002" lon="6.54729">
        <ele>143.56</ele>
        <time>2025-03-15T17:42:53.246Z</time>
      </trkpt>
      <trkpt lat="43.35004" lon="6.54725">
        <ele>144.07</ele>
        <time>2025-03-15T17:42:55.823Z</time>
      </trkpt>
      <trkpt lat="43.35007" lon="6.54721">
        <ele>144.59</ele>
        <time>2025-03-15T17:42:58.449Z</time>
      </trkpt>
      <trkpt lat="43.35009" lon="6.54718">
        <ele>145.14</ele>
        <time>2025-03-15T17:43:01.110Z</time>
      </trkpt>
      <trkpt lat="43.35011" lon="6.54714">
        <ele>145.7</ele>
        <time>2025-03-15T17:43:03.744Z</time>
      </trkpt>
      <trkpt lat="43.35019" lon="6.54699">
        <ele>146.27</ele>
        <time>2025-03-15T17:43:11.045Z</time>
      </trkpt>
      <trkpt lat="43.35021" lon="6.54694">
        <ele>146.86</ele>
        <time>2025-03-15T17:43:13.948Z</time>
      </trkpt>
      <trkpt lat="43.35022" lon="6.5469">
        <ele>147.47</ele>
        <time>2025-03-15T17:43:16.895Z</time>
      </trkpt>
      <trkpt lat="43.35024" lon="6.54686">
        <ele>148.11</ele>
        <time>2025-03-15T17:43:19.882Z</time>
      </trkpt>
      <trkpt lat="43.35026" lon="6.54682">
        <ele>148.75</ele>
        <time>2025-03-15T17:43:22.845Z</time>
      </trkpt>
      <trkpt lat="43.35027" lon="6.54678">
        <ele>149.41</ele>
        <time>2025-03-15T17:43:25.839Z</time>
      </trkpt>
      <trkpt lat="43.35029" lon="6.54669">
        <ele>150.08</ele>
        <time>2025-03-15T17:43:30.262Z</time>
      </trkpt>
      <trkpt lat="43.35043" lon="6.54649">
        <ele>150.78</ele>
        <time>2025-03-15T17:43:40.587Z</time>
      </trkpt>
      <trkpt lat="43.35063" lon="6.54626">
        <ele>151.52</ele>
        <time>2025-03-15T17:43:53.506Z</time>
      </trkpt>
      <trkpt lat="43.35078" lon="6.54603">
        <ele>152.3</ele>
        <time>2025-03-15T17:44:04.761Z</time>
      </trkpt>
      <trkpt lat="43.35079" lon="6.546">
        <ele>153.02</ele>
        <time>2025-03-15T17:44:08.002Z</time>
      </trkpt>
      <trkpt lat="43.35081" lon="6.54596">
        <ele>153.73</ele>
        <time>2025-03-15T17:44:11.217Z</time>
      </trkpt>
      <trkpt lat="43.35083" lon="6.54592">
        <ele>154.45</ele>
        <time>2025-03-15T17:44:14.471Z</time>
      </trkpt>
      <trkpt lat="43.35085" lon="6.54588">
        <ele>155.17</ele>
        <time>2025-03-15T17:44:17.717Z</time>
      </trkpt>
      <trkpt lat="43.35086" lon="6.5458">
        <ele>155.88</ele>
        <time>2025-03-15T17:44:21.808Z</time>
      </trkpt>
      <trkpt lat="43.35088" lon="6.5456">
        <ele>156.6</ele>
        <time>2025-03-15T17:44:29.848Z</time>
      </trkpt>
      <trkpt lat="43.35089" lon="6.54556">
        <ele>157.31</ele>
        <time>2025-03-15T17:44:33.038Z</time>
      </trkpt>
      <trkpt lat="43.3509" lon="6.54553">
        <ele>158</ele>
        <time>2025-03-15T17:44:36.136Z</time>
      </trkpt>
      <trkpt lat="43.35091" lon="6.54549">
        <ele>158.68</ele>
        <time>2025-03-15T17:44:39.192Z</time>
      </trkpt>
      <trkpt lat="43.35092" lon="6.54546">
        <ele>159.35</ele>
        <time>2025-03-15T17:44:42.207Z</time>
      </trkpt>
      <trkpt lat="43.35095" lon="6.54539">
        <ele>160.02</ele>
        <time>2025-03-15T17:44:45.891Z</time>
      </trkpt>
      <trkpt lat="43.35096" lon="6.54536">
        <ele>160.65</ele>
        <time>2025-03-15T17:44:48.720Z</time>
      </trkpt>
      <trkpt lat="43.35097" lon="6.54533">
        <ele>161.26</ele>
        <time>2025-03-15T17:44:51.494Z</time>
      </trkpt>
      <trkpt lat="43.35098" lon="6.54529">
        <ele>161.85</ele>
        <time>2025-03-15T17:44:54.211Z</time>
      </trkpt>
      <trkpt lat="43.35099" lon="6.54525">
        <ele>162.41</ele>
        <time>2025-03-15T17:44:56.755Z</time>
      </trkpt>
      <trkpt lat="43.35103" lon="6.54507">
        <ele>163.04</ele>
        <time>2025-03-15T17:45:03.963Z</time>
      </trkpt>
      <trkpt lat="43.35103" lon="6.54504">
        <ele>163.52</ele>
        <time>2025-03-15T17:45:06.132Z</time>
      </trkpt>
      <trkpt lat="43.35104" lon="6.54501">
        <ele>163.97</ele>
        <time>2025-03-15T17:45:08.253Z</time>
      </trkpt>
      <trkpt lat="43.35104" lon="6.54498">
        <ele>164.39</ele>
        <time>2025-03-15T17:45:10.213Z</time>
      </trkpt>
      <trkpt lat="43.35105" lon="6.54495">
        <ele>164.76</ele>
        <time>2025-03-15T17:45:11.966Z</time>
      </trkpt>
      <trkpt lat="43.35105" lon="6.54492">
        <ele>165.1</ele>
        <time>2025-03-15T17:45:13.595Z</time>
      </trkpt>
      <trkpt lat="43.35105" lon="6.5449">
        <ele>165.38</ele>
        <time>2025-03-15T17:45:15.117Z</time>
      </trkpt>
      <trkpt lat="43.35106" lon="6.54487">
        <ele>165.63</ele>
        <time>2025-03-15T17:45:16.572Z</time>
      </trkpt>
      <trkpt lat="43.35106" lon="6.54484">
        <ele>165.83</ele>
        <time>2025-03-15T17:45:17.884Z</time>
      </trkpt>
      <trkpt lat="43.35106" lon="6.54481">
        <ele>165.98</ele>
        <time>2025-03-15T17:45:18.953Z</time>
      </trkpt>
      <trkpt lat="43.35105" lon="6.54479">
        <ele>166.08</ele>
        <time>2025-03-15T17:45:19.940Z</time>
      </trkpt>
      <trkpt lat="43.35104" lon="6.54474">
        <ele>166.13</ele>
        <time>2025-03-15T17:45:21.685Z</time>
      </trkpt>
      <trkpt lat="43.35102" lon="6.54472">
        <ele>166.13</ele>
        <time>2025-03-15T17:45:22.690Z</time>
      </trkpt>
      <trkpt lat="43.35101" lon="6.5447">
        <ele>166.08</ele>
        <time>2025-03-15T17:45:23.746Z</time>
      </trkpt>
      <trkpt lat="43.35099" lon="6.54467">
        <ele>165.98</ele>
        <time>2025-03-15T17:45:24.854Z</time>
      </trkpt>
      <trkpt lat="43.35097" lon="6.54464">
        <ele>165.85</ele>
        <time>2025-03-15T17:45:26.123Z</time>
      </trkpt>
      <trkpt lat="43.35095" lon="6.5446">
        <ele>165.67</ele>
        <time>2025-03-15T17:45:27.433Z</time>
      </trkpt>
      <trkpt lat="43.35087" lon="6.54441">
        <ele>165.43</ele>
        <time>2025-03-15T17:45:34.476Z</time>
      </trkpt>
      <trkpt lat="43.35084" lon="6.54436">
        <ele>165.18</ele>
        <time>2025-03-15T17:45:36.123Z</time>
      </trkpt>
      <trkpt lat="43.35072" lon="6.54414">
        <ele>164.8</ele>
        <time>2025-03-15T17:45:44.895Z</time>
      </trkpt>
      <trkpt lat="43.3507" lon="6.54409">
        <ele>164.46</ele>
        <time>2025-03-15T17:45:46.500Z</time>
      </trkpt>
      <trkpt lat="43.35066" lon="6.54399">
        <ele>164.07</ele>
        <time>2025-03-15T17:45:49.837Z</time>
      </trkpt>
      <trkpt lat="43.35065" lon="6.54383">
        <ele>163.67</ele>
        <time>2025-03-15T17:45:54.721Z</time>
      </trkpt>
      <trkpt lat="43.35066" lon="6.54378">
        <ele>163.26</ele>
        <time>2025-03-15T17:45:56.296Z</time>
      </trkpt>
      <trkpt lat="43.35067" lon="6.54367">
        <ele>162.81</ele>
        <time>2025-03-15T17:45:59.427Z</time>
      </trkpt>
      <trkpt lat="43.35067" lon="6.54362">
        <ele>162.33</ele>
        <time>2025-03-15T17:46:01.004Z</time>
      </trkpt>
      <trkpt lat="43.35068" lon="6.54356">
        <ele>161.82</ele>
        <time>2025-03-15T17:46:02.679Z</time>
      </trkpt>
      <trkpt lat="43.35069" lon="6.5435">
        <ele>161.27</ele>
        <time>2025-03-15T17:46:04.408Z</time>
      </trkpt>
      <trkpt lat="43.35071" lon="6.54344">
        <ele>160.7</ele>
        <time>2025-03-15T17:46:06.269Z</time>
      </trkpt>
      <trkpt lat="43.35074" lon="6.54332">
        <ele>160.1</ele>
        <time>2025-03-15T17:46:09.891Z</time>
      </trkpt>
      <trkpt lat="43.35078" lon="6.54321">
        <ele>159.47</ele>
        <time>2025-03-15T17:46:13.590Z</time>
      </trkpt>
      <trkpt lat="43.3508" lon="6.54315">
        <ele>158.83</ele>
        <time>2025-03-15T17:46:15.508Z</time>
      </trkpt>
      <trkpt lat="43.35081" lon="6.5431">
        <ele>158.17</ele>
        <time>2025-03-15T17:46:17.081Z</time>
      </trkpt>
      <trkpt lat="43.3508" lon="6.54306">
        <ele>157.47</ele>
        <time>2025-03-15T17:46:18.295Z</time>
      </trkpt>
      <trkpt lat="43.35078" lon="6.54306">
        <ele>156.77</ele>
        <time>2025-03-15T17:46:19.022Z</time>
      </trkpt>
      <trkpt lat="43.35076" lon="6.54308">
        <ele>156.07</ele>
        <time>2025-03-15T17:46:20.030Z</time>
      </trkpt>
      <trkpt lat="43.35073" lon="6.54312">
        <ele>155.36</ele>
        <time>2025-03-15T17:46:21.650Z</time>
      </trkpt>
      <trkpt lat="43.3507" lon="6.54317">
        <ele>154.63</ele>
        <time>2025-03-15T17:46:23.673Z</time>
      </trkpt>
      <trkpt lat="43.35067" lon="6.54323">
        <ele>153.89</ele>
        <time>2025-03-15T17:46:25.823Z</time>
      </trkpt>
      <trkpt lat="43.35063" lon="6.54327">
        <ele>153.13</ele>
        <time>2025-03-15T17:46:27.748Z</time>
      </trkpt>
      <trkpt lat="43.35059" lon="6.54327">
        <ele>152.35</ele>
        <time>2025-03-15T17:46:29.140Z</time>
      </trkpt>
      <trkpt lat="43.35058" lon="6.54323">
        <ele>151.56</ele>
        <time>2025-03-15T17:46:30.230Z</time>
      </trkpt>
      <trkpt lat="43.35059" lon="6.54318">
        <ele>150.77</ele>
        <time>2025-03-15T17:46:31.886Z</time>
      </trkpt>
      <trkpt lat="43.35059" lon="6.54312">
        <ele>149.99</ele>
        <time>2025-03-15T17:46:33.688Z</time>
      </trkpt>
      <trkpt lat="43.3506" lon="6.54306">
        <ele>149.2</ele>
        <time>2025-03-15T17:46:35.484Z</time>
      </trkpt>
      <trkpt lat="43.35062" lon="6.543">
        <ele>148.44</ele>
        <time>2025-03-15T17:46:37.235Z</time>
      </trkpt>
      <trkpt lat="43.35064" lon="6.54295">
        <ele>147.68</ele>
        <time>2025-03-15T17:46:38.832Z</time>
      </trkpt>
      <trkpt lat="43.35065" lon="6.54292">
        <ele>146.91</ele>
        <time>2025-03-15T17:46:39.934Z</time>
      </trkpt>
      <trkpt lat="43.35065" lon="6.54288">
        <ele>146.13</ele>
        <time>2025-03-15T17:46:40.929Z</time>
      </trkpt>
      <trkpt lat="43.35063" lon="6.54288">
        <ele>145.35</ele>
        <time>2025-03-15T17:46:41.777Z</time>
      </trkpt>
      <trkpt lat="43.35061" lon="6.54289">
        <ele>144.57</ele>
        <time>2025-03-15T17:46:42.679Z</time>
      </trkpt>
      <trkpt lat="43.35059" lon="6.54291">
        <ele>143.82</ele>
        <time>2025-03-15T17:46:43.617Z</time>
      </trkpt>
      <trkpt lat="43.35057" lon="6.54294">
        <ele>143.08</ele>
        <time>2025-03-15T17:46:44.712Z</time>
      </trkpt>
      <trkpt lat="43.35055" lon="6.54298">
        <ele>142.33</ele>
        <time>2025-03-15T17:46:46.096Z</time>
      </trkpt>
      <trkpt lat="43.35052" lon="6.54302">
        <ele>141.59</ele>
        <time>2025-03-15T17:46:47.791Z</time>
      </trkpt>
      <trkpt lat="43.3505" lon="6.54307">
        <ele>140.86</ele>
        <time>2025-03-15T17:46:49.679Z</time>
      </trkpt>
      <trkpt lat="43.35046" lon="6.54312">
        <ele>140.15</ele>
        <time>2025-03-15T17:46:51.496Z</time>
      </trkpt>
      <trkpt lat="43.35033" lon="6.54323">
        <ele>139.38</ele>
        <time>2025-03-15T17:46:57.728Z</time>
      </trkpt>
      <trkpt lat="43.35027" lon="6.54327">
        <ele>138.64</ele>
        <time>2025-03-15T17:47:00.364Z</time>
      </trkpt>
      <trkpt lat="43.3502" lon="6.54331">
        <ele>137.93</ele>
        <time>2025-03-15T17:47:03.442Z</time>
      </trkpt>
      <trkpt lat="43.35013" lon="6.54336">
        <ele>137.2</ele>
        <time>2025-03-15T17:47:06.531Z</time>
      </trkpt>
      <trkpt lat="43.35007" lon="6.54341">
        <ele>136.5</ele>
        <time>2025-03-15T17:47:09.574Z</time>
      </trkpt>
      <trkpt lat="43.35001" lon="6.54346">
        <ele>135.83</ele>
        <time>2025-03-15T17:47:12.084Z</time>
      </trkpt>
      <trkpt lat="43.34998" lon="6.54352">
        <ele>135.21</ele>
        <time>2025-03-15T17:47:14.233Z</time>
      </trkpt>
      <trkpt lat="43.34997" lon="6.5436">
        <ele>134.62</ele>
        <time>2025-03-15T17:47:16.542Z</time>
      </trkpt>
      <trkpt lat="43.34996" lon="6.54368">
        <ele>134.07</ele>
        <time>2025-03-15T17:47:18.950Z</time>
      </trkpt>
      <trkpt lat="43.34997" lon="6.54376">
        <ele>133.55</ele>
        <time>2025-03-15T17:47:21.418Z</time>
      </trkpt>
      <trkpt lat="43.34998" lon="6.54384">
        <ele>133.04</ele>
        <time>2025-03-15T17:47:23.801Z</time>
      </trkpt>
      <trkpt lat="43.34998" lon="6.54393">
        <ele>132.54</ele>
        <time>2025-03-15T17:47:26.195Z</time>
      </trkpt>
      <trkpt lat="43.34997" lon="6.544">
        <ele>132.05</ele>
        <time>2025-03-15T17:47:28.421Z</time>
      </trkpt>
      <trkpt lat="43.34997" lon="6.54415">
        <ele>131.57</ele>
        <time>2025-03-15T17:47:32.813Z</time>
      </trkpt>
      <trkpt lat="43.34998" lon="6.54431">
        <ele>131.1</ele>
        <time>2025-03-15T17:47:37.556Z</time>
      </trkpt>
      <trkpt lat="43.34999" lon="6.54439">
        <ele>130.67</ele>
        <time>2025-03-15T17:47:39.945Z</time>
      </trkpt>
      <trkpt lat="43.35001" lon="6.54448">
        <ele>130.26</ele>
        <time>2025-03-15T17:47:42.477Z</time>
      </trkpt>
      <trkpt lat="43.35002" lon="6.54456">
        <ele>129.86</ele>
        <time>2025-03-15T17:47:44.887Z</time>
      </trkpt>
      <trkpt lat="43.35003" lon="6.54464">
        <ele>129.47</ele>
        <time>2025-03-15T17:47:47.312Z</time>
      </trkpt>
      <trkpt lat="43.35005" lon="6.5448">
        <ele>129.08</ele>
        <time>2025-03-15T17:47:52.227Z</time>
      </trkpt>
      <trkpt lat="43.35011" lon="6.54504">
        <ele>128.73</ele>
        <time>2025-03-15T17:47:59.875Z</time>
      </trkpt>
      <trkpt lat="43.35013" lon="6.54512">
        <ele>128.4</ele>
        <time>2025-03-15T17:48:02.435Z</time>
      </trkpt>
      <trkpt lat="43.35014" lon="6.5452">
        <ele>128.08</ele>
        <time>2025-03-15T17:48:04.947Z</time>
      </trkpt>
      <trkpt lat="43.35016" lon="6.54529">
        <ele>127.77</ele>
        <time>2025-03-15T17:48:07.535Z</time>
      </trkpt>
      <trkpt lat="43.35017" lon="6.54537">
        <ele>127.47</ele>
        <time>2025-03-15T17:48:10.075Z</time>
      </trkpt>
      <trkpt lat="43.35018" lon="6.54546">
        <ele>127.17</ele>
        <time>2025-03-15T17:48:12.655Z</time>
      </trkpt>
      <trkpt lat="43.35017" lon="6.54563">
        <ele>126.89</ele>
        <time>2025-03-15T17:48:17.824Z</time>
      </trkpt>
      <trkpt lat="43.35014" lon="6.54578">
        <ele>126.61</ele>
        <time>2025-03-15T17:48:22.563Z</time>
      </trkpt>
      <trkpt lat="43.35007" lon="6.54588">
        <ele>126.31</ele>
        <time>2025-03-15T17:48:26.750Z</time>
      </trkpt>
      <trkpt lat="43.35003" lon="6.54592">
        <ele>126.01</ele>
        <time>2025-03-15T17:48:28.873Z</time>
      </trkpt>
      <trkpt lat="43.34998" lon="6.54596">
        <ele>125.7</ele>
        <time>2025-03-15T17:48:31.081Z</time>
      </trkpt>
      <trkpt lat="43.34993" lon="6.54599">
        <ele>125.4</ele>
        <time>2025-03-15T17:48:33.278Z</time>
      </trkpt>
      <trkpt lat="43.34987" lon="6.54603">
        <ele>125.09</ele>
        <time>2025-03-15T17:48:35.800Z</time>
      </trkpt>
      <trkpt lat="43.34982" lon="6.54606">
        <ele>124.78</ele>
        <time>2025-03-15T17:48:38.175Z</time>
      </trkpt>
      <trkpt lat="43.34977" lon="6.54611">
        <ele>124.47</ele>
        <time>2025-03-15T17:48:40.422Z</time>
      </trkpt>
      <trkpt lat="43.34969" lon="6.54621">
        <ele>124.16</ele>
        <time>2025-03-15T17:48:45.397Z</time>
      </trkpt>
      <trkpt lat="43.34965" lon="6.54627">
        <ele>123.87</ele>
        <time>2025-03-15T17:48:47.808Z</time>
      </trkpt>
      <trkpt lat="43.34961" lon="6.54634">
        <ele>123.59</ele>
        <time>2025-03-15T17:48:50.195Z</time>
      </trkpt>
      <trkpt lat="43.34957" lon="6.5464">
        <ele>123.29</ele>
        <time>2025-03-15T17:48:52.612Z</time>
      </trkpt>
      <trkpt lat="43.34954" lon="6.54648">
        <ele>123</ele>
        <time>2025-03-15T17:48:55.166Z</time>
      </trkpt>
      <trkpt lat="43.34947" lon="6.54661">
        <ele>122.69</ele>
        <time>2025-03-15T17:48:59.981Z</time>
      </trkpt>
      <trkpt lat="43.34937" lon="6.54677">
        <ele>122.33</ele>
        <time>2025-03-15T17:49:06.587Z</time>
      </trkpt>
      <trkpt lat="43.34932" lon="6.5468">
        <ele>121.96</ele>
        <time>2025-03-15T17:49:08.799Z</time>
      </trkpt>
      <trkpt lat="43.34916" lon="6.5469">
        <ele>121.54</ele>
        <time>2025-03-15T17:49:16.364Z</time>
      </trkpt>
      <trkpt lat="43.34912" lon="6.54696">
        <ele>121.19</ele>
        <time>2025-03-15T17:49:18.663Z</time>
      </trkpt>
      <trkpt lat="43.34908" lon="6.54702">
        <ele>120.85</ele>
        <time>2025-03-15T17:49:20.961Z</time>
      </trkpt>
      <trkpt lat="43.34905" lon="6.54709">
        <ele>120.5</ele>
        <time>2025-03-15T17:49:23.351Z</time>
      </trkpt>
      <trkpt lat="43.34902" lon="6.54716">
        <ele>120.13</ele>
        <time>2025-03-15T17:49:25.618Z</time>
      </trkpt>
      <trkpt lat="43.3489" lon="6.54733">
        <ele>119.68</ele>
        <time>2025-03-15T17:49:33.028Z</time>
      </trkpt>
      <trkpt lat="43.34875" lon="6.54749">
        <ele>119.23</ele>
        <time>2025-03-15T17:49:41.064Z</time>
      </trkpt>
      <trkpt lat="43.3487" lon="6.54755">
        <ele>118.83</ele>
        <time>2025-03-15T17:49:43.640Z</time>
      </trkpt>
      <trkpt lat="43.34867" lon="6.54763">
        <ele>118.41</ele>
        <time>2025-03-15T17:49:46.226Z</time>
      </trkpt>
      <trkpt lat="43.34863" lon="6.54771">
        <ele>117.97</ele>
        <time>2025-03-15T17:49:49.024Z</time>
      </trkpt>
      <trkpt lat="43.34859" lon="6.54778">
        <ele>117.52</ele>
        <time>2025-03-15T17:49:51.713Z</time>
      </trkpt>
      <trkpt lat="43.34851" lon="6.54794">
        <ele>117.05</ele>
        <time>2025-03-15T17:49:57.493Z</time>
      </trkpt>
      <trkpt lat="43.34848" lon="6.54803">
        <ele>116.58</ele>
        <time>2025-03-15T17:50:00.425Z</time>
      </trkpt>
      <trkpt lat="43.34844" lon="6.54812">
        <ele>116.09</ele>
        <time>2025-03-15T17:50:03.414Z</time>
      </trkpt>
      <trkpt lat="43.34841" lon="6.54822">
        <ele>115.58</ele>
        <time>2025-03-15T17:50:06.538Z</time>
      </trkpt>
      <trkpt lat="43.3484" lon="6.54834">
        <ele>115.09</ele>
        <time>2025-03-15T17:50:09.928Z</time>
      </trkpt>
      <trkpt lat="43.34839" lon="6.54845">
        <ele>114.58</ele>
        <time>2025-03-15T17:50:13.285Z</time>
      </trkpt>
      <trkpt lat="43.34838" lon="6.54857">
        <ele>114.06</ele>
        <time>2025-03-15T17:50:16.789Z</time>
      </trkpt>
      <trkpt lat="43.34834" lon="6.54868">
        <ele>113.5</ele>
        <time>2025-03-15T17:50:20.276Z</time>
      </trkpt>
      <trkpt lat="43.34827" lon="6.54875">
        <ele>112.9</ele>
        <time>2025-03-15T17:50:23.824Z</time>
      </trkpt>
      <trkpt lat="43.34818" lon="6.54878">
        <ele>112.29</ele>
        <time>2025-03-15T17:50:27.553Z</time>
      </trkpt>
      <trkpt lat="43.34808" lon="6.54875">
        <ele>111.68</ele>
        <time>2025-03-15T17:50:31.422Z</time>
      </trkpt>
      <trkpt lat="43.348" lon="6.54868">
        <ele>111.05</ele>
        <time>2025-03-15T17:50:35.279Z</time>
      </trkpt>
      <trkpt lat="43.34793" lon="6.5486">
        <ele>110.42</ele>
        <time>2025-03-15T17:50:39.011Z</time>
      </trkpt>
      <trkpt lat="43.34785" lon="6.54852">
        <ele>109.77</ele>
        <time>2025-03-15T17:50:42.843Z</time>
      </trkpt>
      <trkpt lat="43.34778" lon="6.54843">
        <ele>109.11</ele>
        <time>2025-03-15T17:50:46.765Z</time>
      </trkpt>
      <trkpt lat="43.3477" lon="6.54835">
        <ele>108.44</ele>
        <time>2025-03-15T17:50:50.691Z</time>
      </trkpt>
      <trkpt lat="43.34762" lon="6.54827">
        <ele>107.75</ele>
        <time>2025-03-15T17:50:54.598Z</time>
      </trkpt>
      <trkpt lat="43.34754" lon="6.5482">
        <ele>107.07</ele>
        <time>2025-03-15T17:50:58.461Z</time>
      </trkpt>
      <trkpt lat="43.34745" lon="6.54816">
        <ele>106.4</ele>
        <time>2025-03-15T17:51:02.294Z</time>
      </trkpt>
      <trkpt lat="43.34735" lon="6.54815">
        <ele>105.72</ele>
        <time>2025-03-15T17:51:06.169Z</time>
      </trkpt>
      <trkpt lat="43.34726" lon="6.54816">
        <ele>105.05</ele>
        <time>2025-03-15T17:51:09.690Z</time>
      </trkpt>
      <trkpt lat="43.34718" lon="6.5482">
        <ele>104.42</ele>
        <time>2025-03-15T17:51:13.228Z</time>
      </trkpt>
      <trkpt lat="43.3471" lon="6.54825">
        <ele>103.78</ele>
        <time>2025-03-15T17:51:16.804Z</time>
      </trkpt>
      <trkpt lat="43.34702" lon="6.5483">
        <ele>103.15</ele>
        <time>2025-03-15T17:51:20.271Z</time>
      </trkpt>
      <trkpt lat="43.34695" lon="6.54836">
        <ele>102.53</ele>
        <time>2025-03-15T17:51:23.573Z</time>
      </trkpt>
      <trkpt lat="43.34689" lon="6.54841">
        <ele>101.92</ele>
        <time>2025-03-15T17:51:26.382Z</time>
      </trkpt>
      <trkpt lat="43.34684" lon="6.54847">
        <ele>101.31</ele>
        <time>2025-03-15T17:51:29.005Z</time>
      </trkpt>
      <trkpt lat="43.3468" lon="6.54851">
        <ele>100.7</ele>
        <time>2025-03-15T17:51:30.986Z</time>
      </trkpt>
      <trkpt lat="43.34677" lon="6.54853">
        <ele>100.09</ele>
        <time>2025-03-15T17:51:32.153Z</time>
      </trkpt>
      <trkpt lat="43.34676" lon="6.54853">
        <ele>99.48</ele>
        <time>2025-03-15T17:51:32.825Z</time>
      </trkpt>
      <trkpt lat="43.34676" lon="6.5485">
        <ele>98.88</ele>
        <time>2025-03-15T17:51:33.535Z</time>
      </trkpt>
      <trkpt lat="43.34677" lon="6.54846">
        <ele>98.29</ele>
        <time>2025-03-15T17:51:34.833Z</time>
      </trkpt>
      <trkpt lat="43.3468" lon="6.54842">
        <ele>97.7</ele>
        <time>2025-03-15T17:51:36.320Z</time>
      </trkpt>
      <trkpt lat="43.34682" lon="6.54838">
        <ele>97.12</ele>
        <time>2025-03-15T17:51:37.993Z</time>
      </trkpt>
      <trkpt lat="43.34684" lon="6.54833">
        <ele>96.55</ele>
        <time>2025-03-15T17:51:39.560Z</time>
      </trkpt>
      <trkpt lat="43.34686" lon="6.54829">
        <ele>95.98</ele>
        <time>2025-03-15T17:51:41.050Z</time>
      </trkpt>
      <trkpt lat="43.34687" lon="6.54824">
        <ele>95.41</ele>
        <time>2025-03-15T17:51:42.506Z</time>
      </trkpt>
      <trkpt lat="43.34689" lon="6.54819">
        <ele>94.84</ele>
        <time>2025-03-15T17:51:43.947Z</time>
      </trkpt>
      <trkpt lat="43.34689" lon="6.54815">
        <ele>94.29</ele>
        <time>2025-03-15T17:51:45.196Z</time>
      </trkpt>
      <trkpt lat="43.34688" lon="6.54811">
        <ele>93.74</ele>
        <time>2025-03-15T17:51:46.355Z</time>
      </trkpt>
      <trkpt lat="43.34678" lon="6.54792">
        <ele>93.11</ele>
        <time>2025-03-15T17:51:53.495Z</time>
      </trkpt>
      <trkpt lat="43.34675" lon="6.54785">
        <ele>92.59</ele>
        <time>2025-03-15T17:51:55.698Z</time>
      </trkpt>
      <trkpt lat="43.34672" lon="6.5478">
        <ele>92.1</ele>
        <time>2025-03-15T17:51:57.734Z</time>
      </trkpt>
      <trkpt lat="43.34668" lon="6.54775">
        <ele>91.63</ele>
        <time>2025-03-15T17:51:59.827Z</time>
      </trkpt>
      <trkpt lat="43.34664" lon="6.54771">
        <ele>91.18</ele>
        <time>2025-03-15T17:52:01.901Z</time>
      </trkpt>
      <trkpt lat="43.34658" lon="6.54767">
        <ele>90.75</ele>
        <time>2025-03-15T17:52:04.421Z</time>
      </trkpt>
      <trkpt lat="43.34652" lon="6.54763">
        <ele>90.34</ele>
        <time>2025-03-15T17:52:06.887Z</time>
      </trkpt>
      <trkpt lat="43.34646" lon="6.5476">
        <ele>89.95</ele>
        <time>2025-03-15T17:52:09.534Z</time>
      </trkpt>
      <trkpt lat="43.34641" lon="6.54756">
        <ele>89.57</ele>
        <time>2025-03-15T17:52:12.129Z</time>
      </trkpt>
      <trkpt lat="43.34635" lon="6.54752">
        <ele>89.21</ele>
        <time>2025-03-15T17:52:14.741Z</time>
      </trkpt>
      <trkpt lat="43.34629" lon="6.54749">
        <ele>88.9</ele>
        <time>2025-03-15T17:52:17.077Z</time>
      </trkpt>
      <trkpt lat="43.34624" lon="6.54748">
        <ele>88.6</ele>
        <time>2025-03-15T17:52:19.271Z</time>
      </trkpt>
      <trkpt lat="43.34619" lon="6.54747">
        <ele>88.3</ele>
        <time>2025-03-15T17:52:21.169Z</time>
      </trkpt>
      <trkpt lat="43.34616" lon="6.54747">
        <ele>88.01</ele>
        <time>2025-03-15T17:52:22.418Z</time>
      </trkpt>
      <trkpt lat="43.34614" lon="6.54748">
        <ele>87.72</ele>
        <time>2025-03-15T17:52:23.289Z</time>
      </trkpt>
      <trkpt lat="43.34612" lon="6.5475">
        <ele>87.44</ele>
        <time>2025-03-15T17:52:24.136Z</time>
      </trkpt>
      <trkpt lat="43.34611" lon="6.54752">
        <ele>87.17</ele>
        <time>2025-03-15T17:52:25.080Z</time>
      </trkpt>
      <trkpt lat="43.34609" lon="6.54754">
        <ele>86.9</ele>
        <time>2025-03-15T17:52:25.983Z</time>
      </trkpt>
      <trkpt lat="43.34608" lon="6.54755">
        <ele>86.63</ele>
        <time>2025-03-15T17:52:26.644Z</time>
      </trkpt>
      <trkpt lat="43.34606" lon="6.54755">
        <ele>86.36</ele>
        <time>2025-03-15T17:52:27.122Z</time>
      </trkpt>
      <trkpt lat="43.34604" lon="6.54754">
        <ele>86.1</ele>
        <time>2025-03-15T17:52:28.207Z</time>
      </trkpt>
      <trkpt lat="43.34599" lon="6.54754">
        <ele>85.83</ele>
        <time>2025-03-15T17:52:30.000Z</time>
      </trkpt>
      <trkpt lat="43.34592" lon="6.54755">
        <ele>85.56</ele>
        <time>2025-03-15T17:52:33.123Z</time>
      </trkpt>
      <trkpt lat="43.34587" lon="6.54755">
        <ele>85.29</ele>
        <time>2025-03-15T17:52:34.842Z</time>
      </trkpt>
      <trkpt lat="43.34579" lon="6.54756">
        <ele>85</ele>
        <time>2025-03-15T17:52:38.532Z</time>
      </trkpt>
      <trkpt lat="43.34572" lon="6.54759">
        <ele>84.71</ele>
        <time>2025-03-15T17:52:41.382Z</time>
      </trkpt>
      <trkpt lat="43.34561" lon="6.5477">
        <ele>84.38</ele>
        <time>2025-03-15T17:52:47.168Z</time>
      </trkpt>
      <trkpt lat="43.34548" lon="6.54782">
        <ele>84.04</ele>
        <time>2025-03-15T17:52:53.785Z</time>
      </trkpt>
      <trkpt lat="43.34539" lon="6.54795">
        <ele>83.73</ele>
        <time>2025-03-15T17:52:59.119Z</time>
      </trkpt>
      <trkpt lat="43.34531" lon="6.54805">
        <ele>83.39</ele>
        <time>2025-03-15T17:53:03.860Z</time>
      </trkpt>
      <trkpt lat="43.34521" lon="6.54814">
        <ele>83.07</ele>
        <time>2025-03-15T17:53:08.606Z</time>
      </trkpt>
      <trkpt lat="43.34509" lon="6.54821">
        <ele>82.77</ele>
        <time>2025-03-15T17:53:14.367Z</time>
      </trkpt>
      <trkpt lat="43.34503" lon="6.54825">
        <ele>82.46</ele>
        <time>2025-03-15T17:53:17.136Z</time>
      </trkpt>
      <trkpt lat="43.34496" lon="6.54829">
        <ele>82.15</ele>
        <time>2025-03-15T17:53:19.909Z</time>
      </trkpt>
      <trkpt lat="43.3449" lon="6.54832">
        <ele>81.84</ele>
        <time>2025-03-15T17:53:22.653Z</time>
      </trkpt>
      <trkpt lat="43.34484" lon="6.54835">
        <ele>81.55</ele>
        <time>2025-03-15T17:53:25.307Z</time>
      </trkpt>
      <trkpt lat="43.34478" lon="6.54837">
        <ele>81.26</ele>
        <time>2025-03-15T17:53:27.679Z</time>
      </trkpt>
      <trkpt lat="43.34472" lon="6.54839">
        <ele>80.97</ele>
        <time>2025-03-15T17:53:30.017Z</time>
      </trkpt>
      <trkpt lat="43.34466" lon="6.54841">
        <ele>80.66</ele>
        <time>2025-03-15T17:53:32.607Z</time>
      </trkpt>
      <trkpt lat="43.3446" lon="6.54843">
        <ele>80.36</ele>
        <time>2025-03-15T17:53:35.208Z</time>
      </trkpt>
      <trkpt lat="43.34453" lon="6.54843">
        <ele>80.07</ele>
        <time>2025-03-15T17:53:37.793Z</time>
      </trkpt>
      <trkpt lat="43.3444" lon="6.54844">
        <ele>79.79</ele>
        <time>2025-03-15T17:53:43.232Z</time>
      </trkpt>
      <trkpt lat="43.34435" lon="6.54844">
        <ele>79.54</ele>
        <time>2025-03-15T17:53:45.609Z</time>
      </trkpt>
      <trkpt lat="43.34424" lon="6.54846">
        <ele>79.29</ele>
        <time>2025-03-15T17:53:50.201Z</time>
      </trkpt>
      <trkpt lat="43.3441" lon="6.5485">
        <ele>79.04</ele>
        <time>2025-03-15T17:53:56.174Z</time>
      </trkpt>
      <trkpt lat="43.34406" lon="6.54853">
        <ele>78.81</ele>
        <time>2025-03-15T17:53:57.946Z</time>
      </trkpt>
      <trkpt lat="43.34395" lon="6.54863">
        <ele>78.61</ele>
        <time>2025-03-15T17:54:04.048Z</time>
      </trkpt>
      <trkpt lat="43.34388" lon="6.54882">
        <ele>78.38</ele>
        <time>2025-03-15T17:54:10.563Z</time>
      </trkpt>
      <trkpt lat="43.34385" lon="6.54905">
        <ele>78.18</ele>
        <time>2025-03-15T17:54:18.153Z</time>
      </trkpt>
      <trkpt lat="43.34379" lon="6.54917">
        <ele>78.03</ele>
        <time>2025-03-15T17:54:22.654Z</time>
      </trkpt>
      <trkpt lat="43.34378" lon="6.54921">
        <ele>77.91</ele>
        <time>2025-03-15T17:54:24.176Z</time>
      </trkpt>
      <trkpt lat="43.34377" lon="6.54926">
        <ele>77.8</ele>
        <time>2025-03-15T17:54:25.761Z</time>
      </trkpt>
      <trkpt lat="43.34377" lon="6.54932">
        <ele>77.72</ele>
        <time>2025-03-15T17:54:27.484Z</time>
      </trkpt>
      <trkpt lat="43.34377" lon="6.54938">
        <ele>77.65</ele>
        <time>2025-03-15T17:54:29.262Z</time>
      </trkpt>
      <trkpt lat="43.34376" lon="6.54942">
        <ele>77.59</ele>
        <time>2025-03-15T17:54:30.818Z</time>
      </trkpt>
      <trkpt lat="43.34376" lon="6.54946">
        <ele>77.56</ele>
        <time>2025-03-15T17:54:31.997Z</time>
      </trkpt>
      <trkpt lat="43.34375" lon="6.54952">
        <ele>77.54</ele>
        <time>2025-03-15T17:54:33.937Z</time>
      </trkpt>
      <trkpt lat="43.34374" lon="6.54956">
        <ele>77.55</ele>
        <time>2025-03-15T17:54:35.477Z</time>
      </trkpt>
      <trkpt lat="43.34373" lon="6.54958">
        <ele>77.57</ele>
        <time>2025-03-15T17:54:36.229Z</time>
      </trkpt>
      <trkpt lat="43.34366" lon="6.54952">
        <ele>77.61</ele>
        <time>2025-03-15T17:54:40.098Z</time>
      </trkpt>
      <trkpt lat="43.34363" lon="6.54948">
        <ele>77.67</ele>
        <time>2025-03-15T17:54:41.935Z</time>
      </trkpt>
      <trkpt lat="43.34354" lon="6.54935">
        <ele>77.75</ele>
        <time>2025-03-15T17:54:48.068Z</time>
      </trkpt>
      <trkpt lat="43.34347" lon="6.54926">
        <ele>77.85</ele>
        <time>2025-03-15T17:54:52.543Z</time>
      </trkpt>
      <trkpt lat="43.34339" lon="6.54917">
        <ele>77.96</ele>
        <time>2025-03-15T17:54:57.195Z</time>
      </trkpt>
      <trkpt lat="43.34326" lon="6.54909">
        <ele>78.07</ele>
        <time>2025-03-15T17:55:04.110Z</time>
      </trkpt>
      <trkpt lat="43.34321" lon="6.54907">
        <ele>78.17</ele>
        <time>2025-03-15T17:55:06.476Z</time>
      </trkpt>
      <trkpt lat="43.34309" lon="6.54901">
        <ele>78.28</ele>
        <time>2025-03-15T17:55:12.807Z</time>
      </trkpt>
      <trkpt lat="43.34305" lon="6.54899">
        <ele>78.38</ele>
        <time>2025-03-15T17:55:14.903Z</time>
      </trkpt>
      <trkpt lat="43.343" lon="6.54897">
        <ele>78.47</ele>
        <time>2025-03-15T17:55:17.144Z</time>
      </trkpt>
      <trkpt lat="43.34291" lon="6.54892">
        <ele>78.56</ele>
        <time>2025-03-15T17:55:21.611Z</time>
      </trkpt>
      <trkpt lat="43.34283" lon="6.54886">
        <ele>78.66</ele>
        <time>2025-03-15T17:55:25.974Z</time>
      </trkpt>
      <trkpt lat="43.34279" lon="6.54882">
        <ele>78.76</ele>
        <time>2025-03-15T17:55:28.271Z</time>
      </trkpt>
      <trkpt lat="43.34275" lon="6.5488">
        <ele>78.88</ele>
        <time>2025-03-15T17:55:30.562Z</time>
      </trkpt>
      <trkpt lat="43.34271" lon="6.54877">
        <ele>79</ele>
        <time>2025-03-15T17:55:32.822Z</time>
      </trkpt>
      <trkpt lat="43.34267" lon="6.54874">
        <ele>79.12</ele>
        <time>2025-03-15T17:55:35.207Z</time>
      </trkpt>
      <trkpt lat="43.34263" lon="6.54871">
        <ele>79.24</ele>
        <time>2025-03-15T17:55:37.480Z</time>
      </trkpt>
      <trkpt lat="43.34259" lon="6.54868">
        <ele>79.37</ele>
        <time>2025-03-15T17:55:39.766Z</time>
      </trkpt>
      <trkpt lat="43.34255" lon="6.54864">
        <ele>79.49</ele>
        <time>2025-03-15T17:55:41.893Z</time>
      </trkpt>
      <trkpt lat="43.34253" lon="6.54859">
        <ele>79.61</ele>
        <time>2025-03-15T17:55:44.051Z</time>
      </trkpt>
      <trkpt lat="43.34247" lon="6.54844">
        <ele>79.73</ele>
        <time>2025-03-15T17:55:49.963Z</time>
      </trkpt>
      <trkpt lat="43.34244" lon="6.54839">
        <ele>79.84</ele>
        <time>2025-03-15T17:55:52.283Z</time>
      </trkpt>
      <trkpt lat="43.34234" lon="6.54827">
        <ele>79.95</ele>
        <time>2025-03-15T17:55:58.492Z</time>
      </trkpt>
      <trkpt lat="43.3423" lon="6.54823">
        <ele>80.03</ele>
        <time>2025-03-15T17:56:00.688Z</time>
      </trkpt>
      <trkpt lat="43.34218" lon="6.54813">
        <ele>80.1</ele>
        <time>2025-03-15T17:56:07.220Z</time>
      </trkpt>
      <trkpt lat="43.3421" lon="6.54804">
        <ele>80.15</ele>
        <time>2025-03-15T17:56:12.025Z</time>
      </trkpt>
      <trkpt lat="43.34189" lon="6.54774">
        <ele>80.16</ele>
        <time>2025-03-15T17:56:25.943Z</time>
      </trkpt>
      <trkpt lat="43.34185" lon="6.54769">
        <ele>80.19</ele>
        <time>2025-03-15T17:56:28.383Z</time>
      </trkpt>
      <trkpt lat="43.3417" lon="6.54749">
        <ele>80.22</ele>
        <time>2025-03-15T17:56:38.083Z</time>
      </trkpt>
      <trkpt lat="43.34166" lon="6.54744">
        <ele>80.21</ele>
        <time>2025-03-15T17:56:40.556Z</time>
      </trkpt>
      <trkpt lat="43.34152" lon="6.54725">
        <ele>80.16</ele>
        <time>2025-03-15T17:56:49.466Z</time>
      </trkpt>
      <trkpt lat="43.34137" lon="6.54705">
        <ele>80.1</ele>
        <time>2025-03-15T17:56:58.680Z</time>
      </trkpt>
      <trkpt lat="43.34131" lon="6.54695">
        <ele>80.04</ele>
        <time>2025-03-15T17:57:03.223Z</time>
      </trkpt>
      <trkpt lat="43.34127" lon="6.54691">
        <ele>79.97</ele>
        <time>2025-03-15T17:57:05.189Z</time>
      </trkpt>
      <trkpt lat="43.34115" lon="6.5468">
        <ele>79.89</ele>
        <time>2025-03-15T17:57:11.591Z</time>
      </trkpt>
      <trkpt lat="43.34108" lon="6.5468">
        <ele>79.79</ele>
        <time>2025-03-15T17:57:14.626Z</time>
      </trkpt>
      <trkpt lat="43.34106" lon="6.54681">
        <ele>79.67</ele>
        <time>2025-03-15T17:57:15.742Z</time>
      </trkpt>
      <trkpt lat="43.34103" lon="6.54683">
        <ele>79.53</ele>
        <time>2025-03-15T17:57:16.936Z</time>
      </trkpt>
      <trkpt lat="43.34096" lon="6.54687">
        <ele>79.38</ele>
        <time>2025-03-15T17:57:20.090Z</time>
      </trkpt>
      <trkpt lat="43.34088" lon="6.5469">
        <ele>79.2</ele>
        <time>2025-03-15T17:57:23.701Z</time>
      </trkpt>
      <trkpt lat="43.34077" lon="6.54697">
        <ele>79.01</ele>
        <time>2025-03-15T17:57:29.053Z</time>
      </trkpt>
      <trkpt lat="43.34064" lon="6.54706">
        <ele>78.81</ele>
        <time>2025-03-15T17:57:35.398Z</time>
      </trkpt>
      <trkpt lat="43.34059" lon="6.54709">
        <ele>78.63</ele>
        <time>2025-03-15T17:57:37.647Z</time>
      </trkpt>
      <trkpt lat="43.34054" lon="6.54712">
        <ele>78.45</ele>
        <time>2025-03-15T17:57:39.690Z</time>
      </trkpt>
      <trkpt lat="43.3405" lon="6.54715">
        <ele>78.26</ele>
        <time>2025-03-15T17:57:41.826Z</time>
      </trkpt>
      <trkpt lat="43.34045" lon="6.54718">
        <ele>78.08</ele>
        <time>2025-03-15T17:57:43.939Z</time>
      </trkpt>
      <trkpt lat="43.34041" lon="6.54721">
        <ele>77.89</ele>
        <time>2025-03-15T17:57:45.899Z</time>
      </trkpt>
      <trkpt lat="43.34036" lon="6.54723">
        <ele>77.7</ele>
        <time>2025-03-15T17:57:47.878Z</time>
      </trkpt>
      <trkpt lat="43.34015" lon="6.54728">
        <ele>77.51</ele>
        <time>2025-03-15T17:57:57.381Z</time>
      </trkpt>
      <trkpt lat="43.34009" lon="6.54729">
        <ele>77.34</ele>
        <time>2025-03-15T17:57:59.953Z</time>
      </trkpt>
      <trkpt lat="43.33998" lon="6.5473">
        <ele>77.16</ele>
        <time>2025-03-15T17:58:04.843Z</time>
      </trkpt>
      <trkpt lat="43.33992" lon="6.54731">
        <ele>76.98</ele>
        <time>2025-03-15T17:58:07.067Z</time>
      </trkpt>
      <trkpt lat="43.33987" lon="6.54731">
        <ele>76.81</ele>
        <time>2025-03-15T17:58:09.406Z</time>
      </trkpt>
      <trkpt lat="43.33981" lon="6.54731">
        <ele>76.64</ele>
        <time>2025-03-15T17:58:11.808Z</time>
      </trkpt>
      <trkpt lat="43.3397" lon="6.54732">
        <ele>76.47</ele>
        <time>2025-03-15T17:58:16.862Z</time>
      </trkpt>
      <trkpt lat="43.33951" lon="6.54736">
        <ele>76.31</ele>
        <time>2025-03-15T17:58:24.959Z</time>
      </trkpt>
      <trkpt lat="43.33945" lon="6.54737">
        <ele>76.17</ele>
        <time>2025-03-15T17:58:27.533Z</time>
      </trkpt>
      <trkpt lat="43.33939" lon="6.54737">
        <ele>76.01</ele>
        <time>2025-03-15T17:58:30.077Z</time>
      </trkpt>
      <trkpt lat="43.33934" lon="6.54737">
        <ele>75.83</ele>
        <time>2025-03-15T17:58:32.487Z</time>
      </trkpt>
      <trkpt lat="43.33928" lon="6.54736">
        <ele>75.66</ele>
        <time>2025-03-15T17:58:34.920Z</time>
      </trkpt>
      <trkpt lat="43.33922" lon="6.54735">
        <ele>75.48</ele>
        <time>2025-03-15T17:58:37.460Z</time>
      </trkpt>
      <trkpt lat="43.33917" lon="6.54735">
        <ele>75.3</ele>
        <time>2025-03-15T17:58:39.622Z</time>
      </trkpt>
      <trkpt lat="43.33909" lon="6.54736">
        <ele>75.12</ele>
        <time>2025-03-15T17:58:43.081Z</time>
      </trkpt>
      <trkpt lat="43.33902" lon="6.54739">
        <ele>74.94</ele>
        <time>2025-03-15T17:58:45.978Z</time>
      </trkpt>
      <trkpt lat="43.33898" lon="6.54742">
        <ele>74.75</ele>
        <time>2025-03-15T17:58:47.779Z</time>
      </trkpt>
      <trkpt lat="43.3389" lon="6.54744">
        <ele>74.55</ele>
        <time>2025-03-15T17:58:51.096Z</time>
      </trkpt>
      <trkpt lat="43.33886" lon="6.54743">
        <ele>74.37</ele>
        <time>2025-03-15T17:58:52.892Z</time>
      </trkpt>
      <trkpt lat="43.33882" lon="6.5474">
        <ele>74.19</ele>
        <time>2025-03-15T17:58:54.915Z</time>
      </trkpt>
      <trkpt lat="43.33877" lon="6.54738">
        <ele>74.03</ele>
        <time>2025-03-15T17:58:56.767Z</time>
      </trkpt>
      <trkpt lat="43.33873" lon="6.54736">
        <ele>73.87</ele>
        <time>2025-03-15T17:58:58.736Z</time>
      </trkpt>
      <trkpt lat="43.33864" lon="6.54732">
        <ele>73.71</ele>
        <time>2025-03-15T17:59:02.944Z</time>
      </trkpt>
      <trkpt lat="43.3384" lon="6.54721">
        <ele>73.56</ele>
        <time>2025-03-15T17:59:14.126Z</time>
      </trkpt>
      <trkpt lat="43.33836" lon="6.54719">
        <ele>73.48</ele>
        <time>2025-03-15T17:59:16.183Z</time>
      </trkpt>
      <trkpt lat="43.33827" lon="6.54714">
        <ele>73.4</ele>
        <time>2025-03-15T17:59:20.506Z</time>
      </trkpt>
      <trkpt lat="43.33814" lon="6.54707">
        <ele>73.36</ele>
        <time>2025-03-15T17:59:26.699Z</time>
      </trkpt>
      <trkpt lat="43.33801" lon="6.54702">
        <ele>73.34</ele>
        <time>2025-03-15T17:59:32.742Z</time>
      </trkpt>
      <trkpt lat="43.33798" lon="6.54699">
        <ele>73.33</ele>
        <time>2025-03-15T17:59:34.528Z</time>
      </trkpt>
      <trkpt lat="43.33794" lon="6.54691">
        <ele>73.33</ele>
        <time>2025-03-15T17:59:37.827Z</time>
      </trkpt>
      <trkpt lat="43.33796" lon="6.54671">
        <ele>73.34</ele>
        <time>2025-03-15T17:59:44.302Z</time>
      </trkpt>
      <trkpt lat="43.33807" lon="6.54658">
        <ele>73.37</ele>
        <time>2025-03-15T17:59:51.300Z</time>
      </trkpt>
      <trkpt lat="43.33811" lon="6.54655">
        <ele>73.42</ele>
        <time>2025-03-15T17:59:53.321Z</time>
      </trkpt>
      <trkpt lat="43.33824" lon="6.54636">
        <ele>73.5</ele>
        <time>2025-03-15T18:00:02.034Z</time>
      </trkpt>
      <trkpt lat="43.33824" lon="6.54625">
        <ele>73.55</ele>
        <time>2025-03-15T18:00:05.776Z</time>
      </trkpt>
      <trkpt lat="43.33824" lon="6.54619">
        <ele>73.58</ele>
        <time>2025-03-15T18:00:07.570Z</time>
      </trkpt>
      <trkpt lat="43.33824" lon="6.54614">
        <ele>73.6</ele>
        <time>2025-03-15T18:00:09.212Z</time>
      </trkpt>
      <trkpt lat="43.33823" lon="6.5461">
        <ele>73.63</ele>
        <time>2025-03-15T18:00:10.781Z</time>
      </trkpt>
      <trkpt lat="43.33823" lon="6.54605">
        <ele>73.65</ele>
        <time>2025-03-15T18:00:12.318Z</time>
      </trkpt>
      <trkpt lat="43.33819" lon="6.546">
        <ele>73.67</ele>
        <time>2025-03-15T18:00:14.847Z</time>
      </trkpt>
      <trkpt lat="43.33818" lon="6.54598">
        <ele>73.69</ele>
        <time>2025-03-15T18:00:15.839Z</time>
      </trkpt>
      <trkpt lat="43.33816" lon="6.54597">
        <ele>73.71</ele>
        <time>2025-03-15T18:00:16.690Z</time>
      </trkpt>
      <trkpt lat="43.33815" lon="6.54596">
        <ele>73.74</ele>
        <time>2025-03-15T18:00:17.322Z</time>
      </trkpt>
    </trkseg>
  </trk>
</gpx>